<?xml version='1.0' encoding='UTF-8'?><gpx version="1.1" creator="JPX - https://github.com/jenetics/jpx" xmlns="http://www.topografix.com/GPX/1/1"><trk><trkseg><trkpt lat="38.1342544" lon="14.8381375"><ele>505.99999999999994</ele><time>2026-03-29T07:14:32.72Z</time></trkpt><trkpt lat="38.1342088" lon="14.8380765"><ele>506.0</ele><time>2026-03-29T07:14:41.72Z</time></trkpt><trkpt lat="38.134141" lon="14.8380403"><ele>506.0</ele><time>2026-03-29T07:15:26.72Z</time></trkpt><trkpt lat="38.1340557" lon="14.8381195"><ele>506.0</ele><time>2026-03-29T07:15:29.72Z</time></trkpt><trkpt lat="38.1340068" lon="14.8381866"><ele>505.99999999999994</ele><time>2026-03-29T07:15:30.72Z</time></trkpt><trkpt lat="38.1339545" lon="14.8382621"><ele>506.0</ele><time>2026-03-29T07:15:31.72Z</time></trkpt><trkpt lat="38.1338983" lon="14.8383387"><ele>505.20000000000005</ele><time>2026-03-29T07:15:32.719Z</time></trkpt><trkpt lat="38.1338472" lon="14.8384019"><ele>504.40000000000003</ele><time>2026-03-29T07:15:33.72Z</time></trkpt><trkpt lat="38.1338048" lon="14.8385271"><ele>503.6</ele><time>2026-03-29T07:15:35.719Z</time></trkpt><trkpt lat="38.1339069" lon="14.8386419"><ele>502.8</ele><time>2026-03-29T07:15:37.72Z</time></trkpt><trkpt lat="38.1340059" lon="14.8387194"><ele>502.0</ele><time>2026-03-29T07:15:38.72Z</time></trkpt><trkpt lat="38.1340934" lon="14.8387976"><ele>502.0</ele><time>2026-03-29T07:15:39.72Z</time></trkpt><trkpt lat="38.1341659" lon="14.8388721"><ele>502.00000000000006</ele><time>2026-03-29T07:15:40.72Z</time></trkpt><trkpt lat="38.1342338" lon="14.838935"><ele>502.00000000000006</ele><time>2026-03-29T07:15:41.719Z</time></trkpt><trkpt lat="38.1342946" lon="14.8389842"><ele>502.0</ele><time>2026-03-29T07:15:42.72Z</time></trkpt><trkpt lat="38.1343817" lon="14.8390529"><ele>502.0</ele><time>2026-03-29T07:15:44.72Z</time></trkpt><trkpt lat="38.1344361" lon="14.83916"><ele>502.0</ele><time>2026-03-29T07:15:46.72Z</time></trkpt><trkpt lat="38.1344233" lon="14.839274"><ele>502.00000000000006</ele><time>2026-03-29T07:15:48.719Z</time></trkpt><trkpt lat="38.134369" lon="14.839412"><ele>502.00000000000006</ele><time>2026-03-29T07:15:50.719Z</time></trkpt><trkpt lat="38.1343181" lon="14.8394952"><ele>502.0</ele><time>2026-03-29T07:15:51.72Z</time></trkpt><trkpt lat="38.1342614" lon="14.8395917"><ele>502.0</ele><time>2026-03-29T07:15:52.72Z</time></trkpt><trkpt lat="38.1342158" lon="14.8396884"><ele>503.8</ele><time>2026-03-29T07:15:53.719Z</time></trkpt><trkpt lat="38.1341879" lon="14.8397864"><ele>505.6</ele><time>2026-03-29T07:15:54.719Z</time></trkpt><trkpt lat="38.1341808" lon="14.8399181"><ele>507.40000000000003</ele><time>2026-03-29T07:15:55.72Z</time></trkpt><trkpt lat="38.1341815" lon="14.8400644"><ele>509.20000000000005</ele><time>2026-03-29T07:15:56.72Z</time></trkpt><trkpt lat="38.1341753" lon="14.8402166"><ele>511.0</ele><time>2026-03-29T07:15:57.719Z</time></trkpt><trkpt lat="38.1341661" lon="14.8403512"><ele>512.3333333333334</ele><time>2026-03-29T07:15:58.72Z</time></trkpt><trkpt lat="38.1341472" lon="14.8404736"><ele>513.6666666666667</ele><time>2026-03-29T07:15:59.719Z</time></trkpt><trkpt lat="38.1341296" lon="14.8405846"><ele>515.0</ele><time>2026-03-29T07:16:00.719Z</time></trkpt><trkpt lat="38.1341154" lon="14.8406888"><ele>516.3333333333334</ele><time>2026-03-29T07:16:01.719Z</time></trkpt><trkpt lat="38.1341114" lon="14.8407763"><ele>517.6666666666666</ele><time>2026-03-29T07:16:02.719Z</time></trkpt><trkpt lat="38.134128" lon="14.8408722"><ele>519.0</ele><time>2026-03-29T07:16:04.719Z</time></trkpt><trkpt lat="38.1341013" lon="14.8407484"><ele>519.0</ele><time>2026-03-29T07:16:26.721Z</time></trkpt><trkpt lat="38.1341608" lon="14.8403682"><ele>519.0</ele><time>2026-03-29T07:16:32.722Z</time></trkpt><trkpt lat="38.1342254" lon="14.8402814"><ele>519.0</ele><time>2026-03-29T07:16:33.723Z</time></trkpt><trkpt lat="38.134274" lon="14.8401846"><ele>517.6666666666666</ele><time>2026-03-29T07:16:34.723Z</time></trkpt><trkpt lat="38.1343049" lon="14.8400827"><ele>516.3333333333334</ele><time>2026-03-29T07:16:35.723Z</time></trkpt><trkpt lat="38.1343267" lon="14.8399843"><ele>515.0</ele><time>2026-03-29T07:16:36.722Z</time></trkpt><trkpt lat="38.1343397" lon="14.8398889"><ele>513.6666666666667</ele><time>2026-03-29T07:16:37.722Z</time></trkpt><trkpt lat="38.1343598" lon="14.839801"><ele>512.3333333333334</ele><time>2026-03-29T07:16:38.722Z</time></trkpt><trkpt lat="38.1343888" lon="14.8397199"><ele>511.0</ele><time>2026-03-29T07:16:39.723Z</time></trkpt><trkpt lat="38.134427" lon="14.8396443"><ele>511.00000000000006</ele><time>2026-03-29T07:16:40.723Z</time></trkpt><trkpt lat="38.1344806" lon="14.8395582"><ele>511.0</ele><time>2026-03-29T07:16:41.723Z</time></trkpt><trkpt lat="38.1345324" lon="14.839464"><ele>511.0</ele><time>2026-03-29T07:16:42.723Z</time></trkpt><trkpt lat="38.13458" lon="14.8393571"><ele>511.0</ele><time>2026-03-29T07:16:43.723Z</time></trkpt><trkpt lat="38.1345971" lon="14.8392534"><ele>511.00000000000006</ele><time>2026-03-29T07:16:44.722Z</time></trkpt><trkpt lat="38.1346048" lon="14.8391591"><ele>511.0</ele><time>2026-03-29T07:16:45.723Z</time></trkpt><trkpt lat="38.1345969" lon="14.8390705"><ele>509.50000000000006</ele><time>2026-03-29T07:16:46.723Z</time></trkpt><trkpt lat="38.1345473" lon="14.8389856"><ele>508.0</ele><time>2026-03-29T07:16:47.722Z</time></trkpt><trkpt lat="38.1344628" lon="14.8389082"><ele>506.5</ele><time>2026-03-29T07:16:48.723Z</time></trkpt><trkpt lat="38.1343815" lon="14.8388458"><ele>505.0</ele><time>2026-03-29T07:16:49.723Z</time></trkpt><trkpt lat="38.134313" lon="14.838782"><ele>503.50000000000006</ele><time>2026-03-29T07:16:50.722Z</time></trkpt><trkpt lat="38.1342561" lon="14.8387131"><ele>502.0</ele><time>2026-03-29T07:16:51.723Z</time></trkpt><trkpt lat="38.1341998" lon="14.8386428"><ele>502.00000000000006</ele><time>2026-03-29T07:16:52.722Z</time></trkpt><trkpt lat="38.1341333" lon="14.8385701"><ele>502.0</ele><time>2026-03-29T07:16:53.723Z</time></trkpt><trkpt lat="38.1340567" lon="14.8385107"><ele>502.0</ele><time>2026-03-29T07:16:54.722Z</time></trkpt><trkpt lat="38.1339871" lon="14.8384575"><ele>502.0</ele><time>2026-03-29T07:16:55.723Z</time></trkpt><trkpt lat="38.1339208" lon="14.8384253"><ele>502.00000000000006</ele><time>2026-03-29T07:16:56.723Z</time></trkpt><trkpt lat="38.1338386" lon="14.8383777"><ele>502.0</ele><time>2026-03-29T07:16:58.722Z</time></trkpt><trkpt lat="38.1338687" lon="14.8382981"><ele>502.6666666666667</ele><time>2026-03-29T07:17:00.723Z</time></trkpt><trkpt lat="38.1339216" lon="14.8382347"><ele>503.33333333333337</ele><time>2026-03-29T07:17:01.722Z</time></trkpt><trkpt lat="38.1339811" lon="14.8381627"><ele>504.0</ele><time>2026-03-29T07:17:02.722Z</time></trkpt><trkpt lat="38.1340371" lon="14.8381023"><ele>504.66666666666663</ele><time>2026-03-29T07:17:03.723Z</time></trkpt><trkpt lat="38.1341171" lon="14.8380417"><ele>505.3333333333333</ele><time>2026-03-29T07:17:05.723Z</time></trkpt><trkpt lat="38.1341552" lon="14.837953"><ele>506.0</ele><time>2026-03-29T07:17:11.723Z</time></trkpt><trkpt lat="38.1342191" lon="14.8377997"><ele>506.0</ele><time>2026-03-29T07:17:13.722Z</time></trkpt><trkpt lat="38.1342389" lon="14.837683"><ele>506.0</ele><time>2026-03-29T07:17:14.723Z</time></trkpt><trkpt lat="38.1342409" lon="14.8375445"><ele>506.0</ele><time>2026-03-29T07:17:15.723Z</time></trkpt><trkpt lat="38.1342201" lon="14.8373832"><ele>506.0</ele><time>2026-03-29T07:17:16.723Z</time></trkpt><trkpt lat="38.1341955" lon="14.8372163"><ele>504.6</ele><time>2026-03-29T07:17:17.723Z</time></trkpt><trkpt lat="38.1341787" lon="14.8370744"><ele>503.20000000000005</ele><time>2026-03-29T07:17:18.722Z</time></trkpt><trkpt lat="38.1341712" lon="14.8369463"><ele>501.79999999999995</ele><time>2026-03-29T07:17:19.722Z</time></trkpt><trkpt lat="38.1341692" lon="14.8368271"><ele>500.4</ele><time>2026-03-29T07:17:20.722Z</time></trkpt><trkpt lat="38.1341708" lon="14.836713"><ele>499.0</ele><time>2026-03-29T07:17:21.722Z</time></trkpt><trkpt lat="38.1341684" lon="14.8366048"><ele>498.33333333333337</ele><time>2026-03-29T07:17:22.723Z</time></trkpt><trkpt lat="38.1341496" lon="14.8365069"><ele>497.6666666666667</ele><time>2026-03-29T07:17:23.723Z</time></trkpt><trkpt lat="38.1341087" lon="14.8364271"><ele>497.0</ele><time>2026-03-29T07:17:24.722Z</time></trkpt><trkpt lat="38.1340511" lon="14.8363502"><ele>496.33333333333337</ele><time>2026-03-29T07:17:25.723Z</time></trkpt><trkpt lat="38.1339767" lon="14.8362802"><ele>495.6666666666667</ele><time>2026-03-29T07:17:26.722Z</time></trkpt><trkpt lat="38.133902" lon="14.8362212"><ele>495.0</ele><time>2026-03-29T07:17:27.722Z</time></trkpt><trkpt lat="38.1338418" lon="14.8361684"><ele>488.6666666666667</ele><time>2026-03-29T07:17:28.723Z</time></trkpt><trkpt lat="38.1337736" lon="14.8360793"><ele>482.33333333333337</ele><time>2026-03-29T07:17:30.723Z</time></trkpt><trkpt lat="38.1337831" lon="14.8359972"><ele>476.0</ele><time>2026-03-29T07:17:32.723Z</time></trkpt><trkpt lat="38.1338436" lon="14.8359256"><ele>469.6666666666667</ele><time>2026-03-29T07:17:34.723Z</time></trkpt><trkpt lat="38.1339171" lon="14.8358663"><ele>463.33333333333337</ele><time>2026-03-29T07:17:36.723Z</time></trkpt><trkpt lat="38.1339793" lon="14.8358286"><ele>457.0</ele><time>2026-03-29T07:17:38.723Z</time></trkpt><trkpt lat="38.1340466" lon="14.8357973"><ele>461.6666666666667</ele><time>2026-03-29T07:17:40.722Z</time></trkpt><trkpt lat="38.13411" lon="14.8358061"><ele>466.33333333333337</ele><time>2026-03-29T07:17:43.722Z</time></trkpt><trkpt lat="38.1341992" lon="14.8358264"><ele>471.0</ele><time>2026-03-29T07:17:46.723Z</time></trkpt><trkpt lat="38.1342684" lon="14.8358154"><ele>475.66666666666663</ele><time>2026-03-29T07:17:48.723Z</time></trkpt><trkpt lat="38.134251" lon="14.8357317"><ele>480.3333333333333</ele><time>2026-03-29T07:17:51.723Z</time></trkpt><trkpt lat="38.1341726" lon="14.8356906"><ele>485.0</ele><time>2026-03-29T07:17:53.723Z</time></trkpt><trkpt lat="38.1340926" lon="14.8356736"><ele>484.99999999999994</ele><time>2026-03-29T07:17:55.723Z</time></trkpt><trkpt lat="38.1340289" lon="14.8356637"><ele>485.0</ele><time>2026-03-29T07:17:58.723Z</time></trkpt><trkpt lat="38.1341188" lon="14.8356063"><ele>485.0</ele><time>2026-03-29T07:18:07.722Z</time></trkpt><trkpt lat="38.1341821" lon="14.8355787"><ele>485.0</ele><time>2026-03-29T07:18:08.722Z</time></trkpt><trkpt lat="38.1343001" lon="14.8355662"><ele>484.99999999999994</ele><time>2026-03-29T07:18:10.723Z</time></trkpt><trkpt lat="38.1343654" lon="14.8356159"><ele>485.0</ele><time>2026-03-29T07:18:12.722Z</time></trkpt><trkpt lat="38.1344245" lon="14.8356672"><ele>484.99999999999994</ele><time>2026-03-29T07:18:15.723Z</time></trkpt><trkpt lat="38.1345009" lon="14.835728"><ele>485.0</ele><time>2026-03-29T07:18:18.723Z</time></trkpt><trkpt lat="38.1345697" lon="14.8357486"><ele>485.0</ele><time>2026-03-29T07:18:20.722Z</time></trkpt><trkpt lat="38.1346277" lon="14.8358002"><ele>485.0</ele><time>2026-03-29T07:18:22.723Z</time></trkpt><trkpt lat="38.1346546" lon="14.8358878"><ele>484.99999999999994</ele><time>2026-03-29T07:18:24.723Z</time></trkpt><trkpt lat="38.1345439" lon="14.8358533"><ele>485.0</ele><time>2026-03-29T07:18:29.722Z</time></trkpt><trkpt lat="38.1344822" lon="14.8358077"><ele>485.0</ele><time>2026-03-29T07:18:30.723Z</time></trkpt><trkpt lat="38.1343934" lon="14.835732"><ele>485.0</ele><time>2026-03-29T07:18:32.722Z</time></trkpt><trkpt lat="38.1343371" lon="14.8355874"><ele>485.0</ele><time>2026-03-29T07:18:34.723Z</time></trkpt><trkpt lat="38.1342724" lon="14.8355175"><ele>485.0</ele><time>2026-03-29T07:18:36.723Z</time></trkpt><trkpt lat="38.1341764" lon="14.8355374"><ele>485.0</ele><time>2026-03-29T07:18:39.723Z</time></trkpt><trkpt lat="38.1340871" lon="14.8355947"><ele>481.00000000000006</ele><time>2026-03-29T07:18:41.722Z</time></trkpt><trkpt lat="38.1340191" lon="14.8356482"><ele>477.0</ele><time>2026-03-29T07:18:43.723Z</time></trkpt><trkpt lat="38.133948" lon="14.8356581"><ele>473.00000000000006</ele><time>2026-03-29T07:18:45.723Z</time></trkpt><trkpt lat="38.1338783" lon="14.8356283"><ele>469.00000000000006</ele><time>2026-03-29T07:18:47.723Z</time></trkpt><trkpt lat="38.1338093" lon="14.835593"><ele>465.0</ele><time>2026-03-29T07:18:49.723Z</time></trkpt><trkpt lat="38.1338028" lon="14.8355086"><ele>461.00000000000006</ele><time>2026-03-29T07:18:52.723Z</time></trkpt><trkpt lat="38.1338654" lon="14.8354706"><ele>457.00000000000006</ele><time>2026-03-29T07:18:53.723Z</time></trkpt><trkpt lat="38.1339485" lon="14.8354262"><ele>457.00000000000006</ele><time>2026-03-29T07:18:54.723Z</time></trkpt><trkpt lat="38.1340278" lon="14.8353888"><ele>457.0</ele><time>2026-03-29T07:18:55.723Z</time></trkpt><trkpt lat="38.1340891" lon="14.8353409"><ele>457.0</ele><time>2026-03-29T07:18:56.723Z</time></trkpt><trkpt lat="38.1341761" lon="14.8352357"><ele>457.0</ele><time>2026-03-29T07:18:58.722Z</time></trkpt><trkpt lat="38.1342458" lon="14.8351676"><ele>457.00000000000006</ele><time>2026-03-29T07:19:00.723Z</time></trkpt><trkpt lat="38.1343228" lon="14.8351362"><ele>457.0</ele><time>2026-03-29T07:19:02.723Z</time></trkpt><trkpt lat="38.1344194" lon="14.8351235"><ele>458.1666666666667</ele><time>2026-03-29T07:19:04.722Z</time></trkpt><trkpt lat="38.1345217" lon="14.835095"><ele>459.33333333333337</ele><time>2026-03-29T07:19:06.722Z</time></trkpt><trkpt lat="38.1346" lon="14.83507"><ele>460.5</ele><time>2026-03-29T07:19:08.723Z</time></trkpt><trkpt lat="38.1346683" lon="14.8350583"><ele>461.66666666666663</ele><time>2026-03-29T07:19:10.723Z</time></trkpt><trkpt lat="38.1347233" lon="14.83498"><ele>462.8333333333333</ele><time>2026-03-29T07:19:13.723Z</time></trkpt><trkpt lat="38.1347383" lon="14.8348783"><ele>464.0</ele><time>2026-03-29T07:19:16.722Z</time></trkpt><trkpt lat="38.1347383" lon="14.8347967"><ele>463.99999999999994</ele><time>2026-03-29T07:19:18.723Z</time></trkpt><trkpt lat="38.1347267" lon="14.834715"><ele>464.0</ele><time>2026-03-29T07:19:20.722Z</time></trkpt><trkpt lat="38.134705" lon="14.8346383"><ele>464.0</ele><time>2026-03-29T07:19:22.723Z</time></trkpt><trkpt lat="38.134685" lon="14.8345333"><ele>464.0</ele><time>2026-03-29T07:19:25.723Z</time></trkpt><trkpt lat="38.1346967" lon="14.8344317"><ele>463.99999999999994</ele><time>2026-03-29T07:19:28.723Z</time></trkpt><trkpt lat="38.1347217" lon="14.834325"><ele>464.0</ele><time>2026-03-29T07:19:31.723Z</time></trkpt><trkpt lat="38.1347233" lon="14.8342333"><ele>460.7142857142858</ele><time>2026-03-29T07:19:34.722Z</time></trkpt><trkpt lat="38.1346883" lon="14.83416"><ele>457.42857142857144</ele><time>2026-03-29T07:19:37.723Z</time></trkpt><trkpt lat="38.1346433" lon="14.834095"><ele>454.14285714285717</ele><time>2026-03-29T07:19:40.722Z</time></trkpt><trkpt lat="38.1346467" lon="14.8340117"><ele>450.8571428571429</ele><time>2026-03-29T07:19:43.723Z</time></trkpt><trkpt lat="38.1346317" lon="14.8339283"><ele>447.57142857142856</ele><time>2026-03-29T07:19:46.723Z</time></trkpt><trkpt lat="38.134625" lon="14.8338333"><ele>444.2857142857143</ele><time>2026-03-29T07:19:49.723Z</time></trkpt><trkpt lat="38.13464" lon="14.8337383"><ele>441.0</ele><time>2026-03-29T07:19:52.723Z</time></trkpt><trkpt lat="38.1346567" lon="14.8336583"><ele>441.0</ele><time>2026-03-29T07:19:55.723Z</time></trkpt><trkpt lat="38.1346433" lon="14.8337583"><ele>441.0</ele><time>2026-03-29T07:20:12.723Z</time></trkpt><trkpt lat="38.13468" lon="14.833835"><ele>441.0</ele><time>2026-03-29T07:20:14.723Z</time></trkpt><trkpt lat="38.1347267" lon="14.8339017"><ele>441.0</ele><time>2026-03-29T07:20:17.722Z</time></trkpt><trkpt lat="38.1346933" lon="14.8339967"><ele>441.0</ele><time>2026-03-29T07:20:22.723Z</time></trkpt><trkpt lat="38.13469" lon="14.8341183"><ele>441.0</ele><time>2026-03-29T07:20:25.723Z</time></trkpt><trkpt lat="38.1347267" lon="14.8342067"><ele>444.8333333333333</ele><time>2026-03-29T07:20:27.723Z</time></trkpt><trkpt lat="38.1347367" lon="14.834335"><ele>448.66666666666663</ele><time>2026-03-29T07:20:29.723Z</time></trkpt><trkpt lat="38.1347183" lon="14.8344283"><ele>452.5</ele><time>2026-03-29T07:20:30.722Z</time></trkpt><trkpt lat="38.1347017" lon="14.8345217"><ele>456.3333333333333</ele><time>2026-03-29T07:20:31.723Z</time></trkpt><trkpt lat="38.1347083" lon="14.834645"><ele>460.16666666666663</ele><time>2026-03-29T07:20:32.723Z</time></trkpt><trkpt lat="38.13472" lon="14.834755"><ele>464.0</ele><time>2026-03-29T07:20:33.722Z</time></trkpt><trkpt lat="38.134735" lon="14.8348367"><ele>464.0</ele><time>2026-03-29T07:20:34.722Z</time></trkpt><trkpt lat="38.1347367" lon="14.834985"><ele>464.0</ele><time>2026-03-29T07:20:36.723Z</time></trkpt><trkpt lat="38.13468" lon="14.8350783"><ele>464.0</ele><time>2026-03-29T07:20:38.722Z</time></trkpt><trkpt lat="38.134555" lon="14.8351267"><ele>464.0</ele><time>2026-03-29T07:20:40.723Z</time></trkpt><trkpt lat="38.1344783" lon="14.8351383"><ele>464.0</ele><time>2026-03-29T07:20:41.723Z</time></trkpt><trkpt lat="38.1344" lon="14.83516"><ele>463.00000000000006</ele><time>2026-03-29T07:20:42.723Z</time></trkpt><trkpt lat="38.134325" lon="14.835175"><ele>462.0</ele><time>2026-03-29T07:20:43.723Z</time></trkpt><trkpt lat="38.1342483" lon="14.835185"><ele>461.00000000000006</ele><time>2026-03-29T07:20:44.722Z</time></trkpt><trkpt lat="38.1341783" lon="14.835205"><ele>460.00000000000006</ele><time>2026-03-29T07:20:45.722Z</time></trkpt><trkpt lat="38.1341267" lon="14.8352517"><ele>459.0</ele><time>2026-03-29T07:20:46.723Z</time></trkpt><trkpt lat="38.1340883" lon="14.83532"><ele>458.00000000000006</ele><time>2026-03-29T07:20:47.722Z</time></trkpt><trkpt lat="38.134045" lon="14.8353783"><ele>457.00000000000006</ele><time>2026-03-29T07:20:48.723Z</time></trkpt><trkpt lat="38.1339883" lon="14.83543"><ele>457.00000000000006</ele><time>2026-03-29T07:20:49.723Z</time></trkpt><trkpt lat="38.1339233" lon="14.8354717"><ele>457.0</ele><time>2026-03-29T07:20:50.723Z</time></trkpt><trkpt lat="38.1338483" lon="14.8354933"><ele>457.0</ele><time>2026-03-29T07:20:51.723Z</time></trkpt><trkpt lat="38.1337567" lon="14.835545"><ele>457.0</ele><time>2026-03-29T07:20:53.723Z</time></trkpt><trkpt lat="38.1338067" lon="14.83564"><ele>457.00000000000006</ele><time>2026-03-29T07:20:56.723Z</time></trkpt><trkpt lat="38.13388" lon="14.8356567"><ele>457.0</ele><time>2026-03-29T07:20:57.722Z</time></trkpt><trkpt lat="38.1339883" lon="14.8356833"><ele>462.6</ele><time>2026-03-29T07:20:58.723Z</time></trkpt><trkpt lat="38.1341" lon="14.8356983"><ele>468.20000000000005</ele><time>2026-03-29T07:20:59.722Z</time></trkpt><trkpt lat="38.1341917" lon="14.8357167"><ele>473.8</ele><time>2026-03-29T07:21:00.722Z</time></trkpt><trkpt lat="38.1342533" lon="14.835735"><ele>479.4</ele><time>2026-03-29T07:21:01.723Z</time></trkpt><trkpt lat="38.1342983" lon="14.835805"><ele>485.0</ele><time>2026-03-29T07:21:03.723Z</time></trkpt><trkpt lat="38.1341933" lon="14.835855"><ele>485.0</ele><time>2026-03-29T07:21:06.722Z</time></trkpt><trkpt lat="38.1340967" lon="14.8358767"><ele>485.0</ele><time>2026-03-29T07:21:07.722Z</time></trkpt><trkpt lat="38.1339767" lon="14.8359317"><ele>485.0</ele><time>2026-03-29T07:21:08.722Z</time></trkpt><trkpt lat="38.133885" lon="14.836"><ele>485.0</ele><time>2026-03-29T07:21:09.723Z</time></trkpt><trkpt lat="38.133815" lon="14.83607"><ele>485.0</ele><time>2026-03-29T07:21:10.723Z</time></trkpt><trkpt lat="38.13377" lon="14.8361817"><ele>486.66666666666663</ele><time>2026-03-29T07:21:12.722Z</time></trkpt><trkpt lat="38.1338633" lon="14.83627"><ele>488.3333333333333</ele><time>2026-03-29T07:21:14.723Z</time></trkpt><trkpt lat="38.1339533" lon="14.83633"><ele>490.0</ele><time>2026-03-29T07:21:15.722Z</time></trkpt><trkpt lat="38.1340317" lon="14.8363867"><ele>491.66666666666663</ele><time>2026-03-29T07:21:16.723Z</time></trkpt><trkpt lat="38.134085" lon="14.83644"><ele>493.3333333333333</ele><time>2026-03-29T07:21:17.723Z</time></trkpt><trkpt lat="38.1341283" lon="14.8364983"><ele>495.0</ele><time>2026-03-29T07:21:18.723Z</time></trkpt><trkpt lat="38.1341717" lon="14.836645"><ele>495.0</ele><time>2026-03-29T07:21:20.722Z</time></trkpt><trkpt lat="38.134175" lon="14.836735"><ele>495.0</ele><time>2026-03-29T07:21:21.723Z</time></trkpt><trkpt lat="38.134175" lon="14.8368317"><ele>495.0</ele><time>2026-03-29T07:21:22.722Z</time></trkpt><trkpt lat="38.134165" lon="14.8369433"><ele>495.0</ele><time>2026-03-29T07:21:23.722Z</time></trkpt><trkpt lat="38.13416" lon="14.8370467"><ele>495.0</ele><time>2026-03-29T07:21:24.723Z</time></trkpt><trkpt lat="38.13416" lon="14.8371533"><ele>495.0</ele><time>2026-03-29T07:21:25.723Z</time></trkpt><trkpt lat="38.134175" lon="14.8372333"><ele>495.8</ele><time>2026-03-29T07:21:26.723Z</time></trkpt><trkpt lat="38.134195" lon="14.8373183"><ele>496.6</ele><time>2026-03-29T07:21:27.722Z</time></trkpt><trkpt lat="38.1342133" lon="14.8374133"><ele>497.4</ele><time>2026-03-29T07:21:28.723Z</time></trkpt><trkpt lat="38.1342333" lon="14.837495"><ele>498.2</ele><time>2026-03-29T07:21:29.723Z</time></trkpt><trkpt lat="38.13425" lon="14.83765"><ele>499.0</ele><time>2026-03-29T07:21:31.722Z</time></trkpt><trkpt lat="38.134225" lon="14.8378117"><ele>500.4</ele><time>2026-03-29T07:21:33.723Z</time></trkpt><trkpt lat="38.1342033" lon="14.83789"><ele>501.79999999999995</ele><time>2026-03-29T07:21:34.722Z</time></trkpt><trkpt lat="38.1341417" lon="14.8380117"><ele>503.20000000000005</ele><time>2026-03-29T07:21:36.723Z</time></trkpt><trkpt lat="38.1340783" lon="14.838055"><ele>504.6</ele><time>2026-03-29T07:21:38.723Z</time></trkpt><trkpt lat="38.1339867" lon="14.8381117"><ele>506.0</ele><time>2026-03-29T07:21:40.723Z</time></trkpt><trkpt lat="38.1338817" lon="14.83817"><ele>499.99999999999994</ele><time>2026-03-29T07:21:42.722Z</time></trkpt><trkpt lat="38.13382" lon="14.838195"><ele>494.0</ele><time>2026-03-29T07:21:43.723Z</time></trkpt><trkpt lat="38.1337517" lon="14.8382"><ele>488.0</ele><time>2026-03-29T07:21:44.722Z</time></trkpt><trkpt lat="38.1336483" lon="14.8382283"><ele>482.0</ele><time>2026-03-29T07:21:46.723Z</time></trkpt><trkpt lat="38.1335733" lon="14.8382717"><ele>475.99999999999994</ele><time>2026-03-29T07:21:48.723Z</time></trkpt><trkpt lat="38.1335167" lon="14.8383367"><ele>470.0</ele><time>2026-03-29T07:21:50.723Z</time></trkpt><trkpt lat="38.133475" lon="14.83843"><ele>470.0</ele><time>2026-03-29T07:21:52.723Z</time></trkpt><trkpt lat="38.133425" lon="14.8385"><ele>470.0</ele><time>2026-03-29T07:21:55.723Z</time></trkpt><trkpt lat="38.1334751" lon="14.8384105"><ele>470.0</ele><time>2026-03-29T07:22:34.723Z</time></trkpt><trkpt lat="38.1335588" lon="14.8382879"><ele>470.0</ele><time>2026-03-29T07:22:36.724Z</time></trkpt><trkpt lat="38.1336778" lon="14.8382099"><ele>470.0</ele><time>2026-03-29T07:22:38.724Z</time></trkpt><trkpt lat="38.1337688" lon="14.8381767"><ele>469.99999999999994</ele><time>2026-03-29T07:22:39.724Z</time></trkpt><trkpt lat="38.1338663" lon="14.8381385"><ele>470.0</ele><time>2026-03-29T07:22:40.724Z</time></trkpt><trkpt lat="38.1339559" lon="14.8380931"><ele>470.0</ele><time>2026-03-29T07:22:41.724Z</time></trkpt><trkpt lat="38.134028" lon="14.8380434"><ele>470.0</ele><time>2026-03-29T07:22:42.724Z</time></trkpt><trkpt lat="38.1340862" lon="14.8379984"><ele>469.99999999999994</ele><time>2026-03-29T07:22:43.723Z</time></trkpt><trkpt lat="38.1341457" lon="14.8379703"><ele>470.0</ele><time>2026-03-29T07:22:45.724Z</time></trkpt><trkpt lat="38.1340533" lon="14.8381033"><ele>470.0</ele><time>2026-03-29T07:22:47.723Z</time></trkpt><trkpt lat="38.13397" lon="14.83821"><ele>470.0</ele><time>2026-03-29T07:22:48.724Z</time></trkpt><trkpt lat="38.1338967" lon="14.8383283"><ele>470.0</ele><time>2026-03-29T07:22:49.724Z</time></trkpt><trkpt lat="38.1338367" lon="14.8384067"><ele>470.0</ele><time>2026-03-29T07:22:50.723Z</time></trkpt><trkpt lat="38.1338033" lon="14.838475"><ele>470.0</ele><time>2026-03-29T07:22:51.724Z</time></trkpt><trkpt lat="38.1338367" lon="14.8385733"><ele>468.6</ele><time>2026-03-29T07:22:53.724Z</time></trkpt><trkpt lat="38.1339067" lon="14.83863"><ele>467.2</ele><time>2026-03-29T07:22:54.724Z</time></trkpt><trkpt lat="38.134" lon="14.83871"><ele>465.79999999999995</ele><time>2026-03-29T07:22:55.724Z</time></trkpt><trkpt lat="38.1340833" lon="14.8387967"><ele>464.4</ele><time>2026-03-29T07:22:56.724Z</time></trkpt><trkpt lat="38.1341533" lon="14.8388717"><ele>463.0</ele><time>2026-03-29T07:22:57.723Z</time></trkpt><trkpt lat="38.1342133" lon="14.8389283"><ele>468.57142857142856</ele><time>2026-03-29T07:22:58.724Z</time></trkpt><trkpt lat="38.1342733" lon="14.8389817"><ele>474.1428571428571</ele><time>2026-03-29T07:22:59.723Z</time></trkpt><trkpt lat="38.13433" lon="14.83903"><ele>479.71428571428567</ele><time>2026-03-29T07:23:00.724Z</time></trkpt><trkpt lat="38.1343917" lon="14.83909"><ele>485.2857142857142</ele><time>2026-03-29T07:23:01.724Z</time></trkpt><trkpt lat="38.134435" lon="14.839155"><ele>490.85714285714283</ele><time>2026-03-29T07:23:02.723Z</time></trkpt><trkpt lat="38.1344317" lon="14.8392683"><ele>496.42857142857133</ele><time>2026-03-29T07:23:04.724Z</time></trkpt><trkpt lat="38.1344033" lon="14.8393417"><ele>501.99999999999994</ele><time>2026-03-29T07:23:05.724Z</time></trkpt><trkpt lat="38.134355" lon="14.839445"><ele>503.50000000000006</ele><time>2026-03-29T07:23:06.724Z</time></trkpt><trkpt lat="38.1343" lon="14.839545"><ele>505.0</ele><time>2026-03-29T07:23:07.723Z</time></trkpt><trkpt lat="38.1342467" lon="14.83963"><ele>506.5</ele><time>2026-03-29T07:23:08.724Z</time></trkpt><trkpt lat="38.1342167" lon="14.8397133"><ele>508.0</ele><time>2026-03-29T07:23:09.724Z</time></trkpt><trkpt lat="38.1342" lon="14.8397967"><ele>509.50000000000006</ele><time>2026-03-29T07:23:10.724Z</time></trkpt><trkpt lat="38.1341967" lon="14.839885"><ele>511.0</ele><time>2026-03-29T07:23:11.724Z</time></trkpt><trkpt lat="38.1341933" lon="14.839995"><ele>511.0</ele><time>2026-03-29T07:23:12.723Z</time></trkpt><trkpt lat="38.1341833" lon="14.8401083"><ele>511.0</ele><time>2026-03-29T07:23:13.724Z</time></trkpt><trkpt lat="38.1341767" lon="14.8402367"><ele>511.0</ele><time>2026-03-29T07:23:14.724Z</time></trkpt><trkpt lat="38.1341683" lon="14.8403567"><ele>511.0</ele><time>2026-03-29T07:23:15.724Z</time></trkpt><trkpt lat="38.1341583" lon="14.8404783"><ele>511.0</ele><time>2026-03-29T07:23:16.724Z</time></trkpt><trkpt lat="38.134135" lon="14.84057"><ele>510.83333333333337</ele><time>2026-03-29T07:23:17.724Z</time></trkpt><trkpt lat="38.1341133" lon="14.8406683"><ele>510.6666666666667</ele><time>2026-03-29T07:23:18.724Z</time></trkpt><trkpt lat="38.1341133" lon="14.8408017"><ele>510.5</ele><time>2026-03-29T07:23:20.724Z</time></trkpt><trkpt lat="38.1341483" lon="14.84088"><ele>510.33333333333337</ele><time>2026-03-29T07:23:25.724Z</time></trkpt><trkpt lat="38.1340817" lon="14.840975"><ele>510.1666666666667</ele><time>2026-03-29T07:23:27.723Z</time></trkpt><trkpt lat="38.1340317" lon="14.8410383"><ele>510.0</ele><time>2026-03-29T07:23:28.724Z</time></trkpt><trkpt lat="38.1339867" lon="14.8411267"><ele>512.0</ele><time>2026-03-29T07:23:29.723Z</time></trkpt><trkpt lat="38.1339433" lon="14.8412133"><ele>514.0</ele><time>2026-03-29T07:23:30.724Z</time></trkpt><trkpt lat="38.1339017" lon="14.8413267"><ele>516.0</ele><time>2026-03-29T07:23:31.724Z</time></trkpt><trkpt lat="38.1338617" lon="14.841445"><ele>518.0</ele><time>2026-03-29T07:23:32.724Z</time></trkpt><trkpt lat="38.133825" lon="14.84154"><ele>520.0</ele><time>2026-03-29T07:23:33.724Z</time></trkpt><trkpt lat="38.1337883" lon="14.8416133"><ele>522.0</ele><time>2026-03-29T07:23:34.724Z</time></trkpt><trkpt lat="38.1336983" lon="14.84168"><ele>522.0</ele><time>2026-03-29T07:23:36.723Z</time></trkpt><trkpt lat="38.1335983" lon="14.84167"><ele>522.0</ele><time>2026-03-29T07:23:38.724Z</time></trkpt><trkpt lat="38.1335283" lon="14.841655"><ele>522.0</ele><time>2026-03-29T07:23:39.724Z</time></trkpt><trkpt lat="38.13344" lon="14.8416183"><ele>522.0</ele><time>2026-03-29T07:23:40.724Z</time></trkpt><trkpt lat="38.1333567" lon="14.8415967"><ele>522.0</ele><time>2026-03-29T07:23:41.724Z</time></trkpt><trkpt lat="38.1332617" lon="14.8415717"><ele>522.0</ele><time>2026-03-29T07:23:42.724Z</time></trkpt><trkpt lat="38.133175" lon="14.84157"><ele>521.0</ele><time>2026-03-29T07:23:43.723Z</time></trkpt><trkpt lat="38.1330967" lon="14.8415833"><ele>520.0</ele><time>2026-03-29T07:23:44.724Z</time></trkpt><trkpt lat="38.1330267" lon="14.8416117"><ele>519.0</ele><time>2026-03-29T07:23:45.724Z</time></trkpt><trkpt lat="38.1329483" lon="14.841655"><ele>518.0</ele><time>2026-03-29T07:23:46.724Z</time></trkpt><trkpt lat="38.1328633" lon="14.8417017"><ele>517.0</ele><time>2026-03-29T07:23:47.724Z</time></trkpt><trkpt lat="38.1327917" lon="14.8417567"><ele>516.0</ele><time>2026-03-29T07:23:48.723Z</time></trkpt><trkpt lat="38.1327283" lon="14.8418033"><ele>520.5714285714286</ele><time>2026-03-29T07:23:49.723Z</time></trkpt><trkpt lat="38.1326583" lon="14.8418417"><ele>525.1428571428571</ele><time>2026-03-29T07:23:50.724Z</time></trkpt><trkpt lat="38.1325917" lon="14.84185"><ele>529.7142857142858</ele><time>2026-03-29T07:23:51.723Z</time></trkpt><trkpt lat="38.1325167" lon="14.8418633"><ele>534.2857142857142</ele><time>2026-03-29T07:23:52.724Z</time></trkpt><trkpt lat="38.13245" lon="14.8418833"><ele>538.8571428571429</ele><time>2026-03-29T07:23:53.724Z</time></trkpt><trkpt lat="38.132385" lon="14.84192"><ele>543.4285714285714</ele><time>2026-03-29T07:23:54.724Z</time></trkpt><trkpt lat="38.1323083" lon="14.8419417"><ele>548.0</ele><time>2026-03-29T07:23:55.724Z</time></trkpt><trkpt lat="38.1322217" lon="14.8419667"><ele>548.0</ele><time>2026-03-29T07:23:56.723Z</time></trkpt><trkpt lat="38.1321533" lon="14.841995"><ele>548.0</ele><time>2026-03-29T07:23:57.724Z</time></trkpt><trkpt lat="38.1320883" lon="14.8420217"><ele>548.0</ele><time>2026-03-29T07:23:58.724Z</time></trkpt><trkpt lat="38.1319833" lon="14.8420283"><ele>548.0</ele><time>2026-03-29T07:24:00.724Z</time></trkpt><trkpt lat="38.1318767" lon="14.8419517"><ele>548.0</ele><time>2026-03-29T07:24:02.723Z</time></trkpt><trkpt lat="38.13182" lon="14.841885"><ele>548.0</ele><time>2026-03-29T07:24:03.724Z</time></trkpt><trkpt lat="38.1317717" lon="14.841805"><ele>543.6</ele><time>2026-03-29T07:24:04.723Z</time></trkpt><trkpt lat="38.131715" lon="14.8417467"><ele>539.1999999999999</ele><time>2026-03-29T07:24:05.723Z</time></trkpt><trkpt lat="38.131625" lon="14.841705"><ele>534.8</ele><time>2026-03-29T07:24:07.724Z</time></trkpt><trkpt lat="38.13154" lon="14.841745"><ele>530.4</ele><time>2026-03-29T07:24:09.724Z</time></trkpt><trkpt lat="38.1314417" lon="14.8417933"><ele>526.0</ele><time>2026-03-29T07:24:11.724Z</time></trkpt><trkpt lat="38.1313317" lon="14.8418617"><ele>526.0</ele><time>2026-03-29T07:24:13.724Z</time></trkpt><trkpt lat="38.13128" lon="14.8419083"><ele>526.0</ele><time>2026-03-29T07:24:14.724Z</time></trkpt><trkpt lat="38.1311983" lon="14.841995"><ele>526.0</ele><time>2026-03-29T07:24:16.723Z</time></trkpt><trkpt lat="38.1311333" lon="14.84208"><ele>526.0</ele><time>2026-03-29T07:24:18.724Z</time></trkpt><trkpt lat="38.1310433" lon="14.842175"><ele>526.0</ele><time>2026-03-29T07:24:20.724Z</time></trkpt><trkpt lat="38.1309867" lon="14.8422267"><ele>526.0</ele><time>2026-03-29T07:24:21.723Z</time></trkpt><trkpt lat="38.1309217" lon="14.84228"><ele>526.0</ele><time>2026-03-29T07:24:22.723Z</time></trkpt><trkpt lat="38.1308717" lon="14.8423333"><ele>526.0</ele><time>2026-03-29T07:24:23.724Z</time></trkpt><trkpt lat="38.13078" lon="14.842425"><ele>526.0</ele><time>2026-03-29T07:24:25.724Z</time></trkpt><trkpt lat="38.1307117" lon="14.8425417"><ele>526.0</ele><time>2026-03-29T07:24:27.723Z</time></trkpt><trkpt lat="38.130655" lon="14.8426583"><ele>528.2</ele><time>2026-03-29T07:24:29.724Z</time></trkpt><trkpt lat="38.1305583" lon="14.8427033"><ele>530.4000000000001</ele><time>2026-03-29T07:24:31.723Z</time></trkpt><trkpt lat="38.130435" lon="14.8427067"><ele>532.6</ele><time>2026-03-29T07:24:33.724Z</time></trkpt><trkpt lat="38.130375" lon="14.8427367"><ele>534.8000000000001</ele><time>2026-03-29T07:24:34.724Z</time></trkpt><trkpt lat="38.130295" lon="14.8428467"><ele>537.0</ele><time>2026-03-29T07:24:36.724Z</time></trkpt><trkpt lat="38.1302583" lon="14.8429133"><ele>537.0</ele><time>2026-03-29T07:24:37.723Z</time></trkpt><trkpt lat="38.130165" lon="14.84304"><ele>537.0</ele><time>2026-03-29T07:24:39.724Z</time></trkpt><trkpt lat="38.1300967" lon="14.8431033"><ele>537.0</ele><time>2026-03-29T07:24:40.724Z</time></trkpt><trkpt lat="38.13001" lon="14.843175"><ele>537.0</ele><time>2026-03-29T07:24:41.724Z</time></trkpt><trkpt lat="38.1299417" lon="14.843245"><ele>537.0</ele><time>2026-03-29T07:24:42.723Z</time></trkpt><trkpt lat="38.129865" lon="14.84331"><ele>537.8333333333334</ele><time>2026-03-29T07:24:43.724Z</time></trkpt><trkpt lat="38.1297817" lon="14.843355"><ele>538.6666666666666</ele><time>2026-03-29T07:24:44.724Z</time></trkpt><trkpt lat="38.1296983" lon="14.8433817"><ele>539.5</ele><time>2026-03-29T07:24:45.724Z</time></trkpt><trkpt lat="38.1296067" lon="14.8433867"><ele>540.3333333333333</ele><time>2026-03-29T07:24:46.723Z</time></trkpt><trkpt lat="38.12953" lon="14.8433667"><ele>541.1666666666666</ele><time>2026-03-29T07:24:47.724Z</time></trkpt><trkpt lat="38.1294617" lon="14.8433083"><ele>542.0</ele><time>2026-03-29T07:24:48.724Z</time></trkpt><trkpt lat="38.1294033" lon="14.843235"><ele>542.0</ele><time>2026-03-29T07:24:49.723Z</time></trkpt><trkpt lat="38.129345" lon="14.8431683"><ele>542.0</ele><time>2026-03-29T07:24:50.724Z</time></trkpt><trkpt lat="38.129285" lon="14.8431283"><ele>542.0</ele><time>2026-03-29T07:24:51.724Z</time></trkpt><trkpt lat="38.1292167" lon="14.8431183"><ele>542.0</ele><time>2026-03-29T07:24:52.724Z</time></trkpt><trkpt lat="38.129135" lon="14.8431333"><ele>542.0</ele><time>2026-03-29T07:24:53.723Z</time></trkpt><trkpt lat="38.1290417" lon="14.8431433"><ele>542.0</ele><time>2026-03-29T07:24:54.723Z</time></trkpt><trkpt lat="38.1289533" lon="14.8431533"><ele>541.2</ele><time>2026-03-29T07:24:55.724Z</time></trkpt><trkpt lat="38.1288633" lon="14.8431533"><ele>540.4000000000001</ele><time>2026-03-29T07:24:56.723Z</time></trkpt><trkpt lat="38.1287717" lon="14.843115"><ele>539.5999999999999</ele><time>2026-03-29T07:24:57.723Z</time></trkpt><trkpt lat="38.1286883" lon="14.8430483"><ele>538.8</ele><time>2026-03-29T07:24:58.724Z</time></trkpt><trkpt lat="38.12863" lon="14.8429633"><ele>538.0</ele><time>2026-03-29T07:24:59.724Z</time></trkpt><trkpt lat="38.1285933" lon="14.842875"><ele>538.0</ele><time>2026-03-29T07:25:00.723Z</time></trkpt><trkpt lat="38.1285717" lon="14.8427933"><ele>538.0</ele><time>2026-03-29T07:25:01.724Z</time></trkpt><trkpt lat="38.1285533" lon="14.842655"><ele>538.0</ele><time>2026-03-29T07:25:03.724Z</time></trkpt><trkpt lat="38.1285567" lon="14.84251"><ele>538.0</ele><time>2026-03-29T07:25:05.724Z</time></trkpt><trkpt lat="38.1285833" lon="14.842425"><ele>538.0</ele><time>2026-03-29T07:25:06.724Z</time></trkpt><trkpt lat="38.1286017" lon="14.8423383"><ele>538.0</ele><time>2026-03-29T07:25:07.724Z</time></trkpt><trkpt lat="38.1286133" lon="14.8422533"><ele>536.2857142857143</ele><time>2026-03-29T07:25:08.723Z</time></trkpt><trkpt lat="38.1286217" lon="14.8421617"><ele>534.5714285714287</ele><time>2026-03-29T07:25:09.724Z</time></trkpt><trkpt lat="38.1286183" lon="14.8420767"><ele>532.8571428571429</ele><time>2026-03-29T07:25:10.724Z</time></trkpt><trkpt lat="38.1286133" lon="14.841985"><ele>531.1428571428571</ele><time>2026-03-29T07:25:11.724Z</time></trkpt><trkpt lat="38.1285983" lon="14.841895"><ele>529.4285714285713</ele><time>2026-03-29T07:25:12.724Z</time></trkpt><trkpt lat="38.1285867" lon="14.84181"><ele>527.7142857142857</ele><time>2026-03-29T07:25:13.724Z</time></trkpt><trkpt lat="38.1285617" lon="14.841725"><ele>526.0</ele><time>2026-03-29T07:25:14.724Z</time></trkpt><trkpt lat="38.12854" lon="14.8416367"><ele>525.2857142857142</ele><time>2026-03-29T07:25:15.724Z</time></trkpt><trkpt lat="38.1285167" lon="14.8415583"><ele>524.5714285714286</ele><time>2026-03-29T07:25:16.723Z</time></trkpt><trkpt lat="38.1284967" lon="14.8414733"><ele>523.8571428571429</ele><time>2026-03-29T07:25:17.723Z</time></trkpt><trkpt lat="38.1284833" lon="14.841395"><ele>523.1428571428571</ele><time>2026-03-29T07:25:18.724Z</time></trkpt><trkpt lat="38.1284683" lon="14.8413083"><ele>522.4285714285714</ele><time>2026-03-29T07:25:19.724Z</time></trkpt><trkpt lat="38.1284517" lon="14.841225"><ele>521.7142857142857</ele><time>2026-03-29T07:25:20.723Z</time></trkpt><trkpt lat="38.128445" lon="14.84114"><ele>521.0</ele><time>2026-03-29T07:25:21.724Z</time></trkpt><trkpt lat="38.1284517" lon="14.8410583"><ele>520.4</ele><time>2026-03-29T07:25:22.724Z</time></trkpt><trkpt lat="38.1284567" lon="14.840895"><ele>519.8</ele><time>2026-03-29T07:25:24.724Z</time></trkpt><trkpt lat="38.12846" lon="14.840745"><ele>519.1999999999999</ele><time>2026-03-29T07:25:26.724Z</time></trkpt><trkpt lat="38.128495" lon="14.840655"><ele>518.6</ele><time>2026-03-29T07:25:30.723Z</time></trkpt><trkpt lat="38.128455" lon="14.840725"><ele>518.0</ele><time>2026-03-29T07:25:55.724Z</time></trkpt><trkpt lat="38.128365" lon="14.8406817"><ele>518.0</ele><time>2026-03-29T07:25:57.723Z</time></trkpt><trkpt lat="38.128285" lon="14.840615"><ele>518.0</ele><time>2026-03-29T07:25:59.724Z</time></trkpt><trkpt lat="38.1281933" lon="14.8405583"><ele>518.0</ele><time>2026-03-29T07:26:01.724Z</time></trkpt><trkpt lat="38.128105" lon="14.8405017"><ele>518.0</ele><time>2026-03-29T07:26:03.724Z</time></trkpt><trkpt lat="38.127985" lon="14.8405067"><ele>518.0</ele><time>2026-03-29T07:26:05.724Z</time></trkpt><trkpt lat="38.1278633" lon="14.8405267"><ele>514.6</ele><time>2026-03-29T07:26:07.723Z</time></trkpt><trkpt lat="38.127745" lon="14.840525"><ele>511.19999999999993</ele><time>2026-03-29T07:26:09.724Z</time></trkpt><trkpt lat="38.1276433" lon="14.8405333"><ele>507.8</ele><time>2026-03-29T07:26:11.724Z</time></trkpt><trkpt lat="38.1275667" lon="14.8406233"><ele>504.4</ele><time>2026-03-29T07:26:13.724Z</time></trkpt><trkpt lat="38.1275667" lon="14.840775"><ele>501.0</ele><time>2026-03-29T07:26:15.723Z</time></trkpt><trkpt lat="38.127555" lon="14.840925"><ele>501.0</ele><time>2026-03-29T07:26:17.723Z</time></trkpt><trkpt lat="38.1274933" lon="14.8410583"><ele>501.0</ele><time>2026-03-29T07:26:19.724Z</time></trkpt><trkpt lat="38.1274517" lon="14.8411967"><ele>501.0</ele><time>2026-03-29T07:26:21.723Z</time></trkpt><trkpt lat="38.1274283" lon="14.8413533"><ele>501.0</ele><time>2026-03-29T07:26:23.723Z</time></trkpt><trkpt lat="38.12741" lon="14.8414367"><ele>501.0</ele><time>2026-03-29T07:26:24.724Z</time></trkpt><trkpt lat="38.127365" lon="14.8415583"><ele>500.0</ele><time>2026-03-29T07:26:26.724Z</time></trkpt><trkpt lat="38.1273017" lon="14.8416333"><ele>499.0</ele><time>2026-03-29T07:26:28.723Z</time></trkpt><trkpt lat="38.1271717" lon="14.84169"><ele>498.0</ele><time>2026-03-29T07:26:30.724Z</time></trkpt><trkpt lat="38.1270833" lon="14.8417167"><ele>497.0</ele><time>2026-03-29T07:26:31.724Z</time></trkpt><trkpt lat="38.1270017" lon="14.84176"><ele>496.0</ele><time>2026-03-29T07:26:32.724Z</time></trkpt><trkpt lat="38.12693" lon="14.84182"><ele>496.00000000000006</ele><time>2026-03-29T07:26:33.723Z</time></trkpt><trkpt lat="38.1268433" lon="14.8419017"><ele>496.0</ele><time>2026-03-29T07:26:35.724Z</time></trkpt><trkpt lat="38.12678" lon="14.8418817"><ele>496.0</ele><time>2026-03-29T07:26:37.724Z</time></trkpt><trkpt lat="38.1267367" lon="14.841815"><ele>496.0</ele><time>2026-03-29T07:26:39.724Z</time></trkpt><trkpt lat="38.1266883" lon="14.8417417"><ele>496.00000000000006</ele><time>2026-03-29T07:26:41.723Z</time></trkpt><trkpt lat="38.1266017" lon="14.84172"><ele>496.0</ele><time>2026-03-29T07:26:44.724Z</time></trkpt><trkpt lat="38.1265417" lon="14.84175"><ele>493.1666666666667</ele><time>2026-03-29T07:26:45.724Z</time></trkpt><trkpt lat="38.1264817" lon="14.84178"><ele>490.33333333333337</ele><time>2026-03-29T07:26:46.724Z</time></trkpt><trkpt lat="38.126365" lon="14.84182"><ele>487.5</ele><time>2026-03-29T07:26:48.724Z</time></trkpt><trkpt lat="38.1262783" lon="14.8418817"><ele>484.66666666666663</ele><time>2026-03-29T07:26:50.724Z</time></trkpt><trkpt lat="38.1262083" lon="14.84192"><ele>481.8333333333333</ele><time>2026-03-29T07:26:52.724Z</time></trkpt><trkpt lat="38.1261517" lon="14.8419717"><ele>479.0</ele><time>2026-03-29T07:26:55.723Z</time></trkpt><trkpt lat="38.1261133" lon="14.8420483"><ele>478.99999999999994</ele><time>2026-03-29T07:26:58.724Z</time></trkpt><trkpt lat="38.1260583" lon="14.8421267"><ele>479.0</ele><time>2026-03-29T07:27:01.723Z</time></trkpt><trkpt lat="38.1260233" lon="14.8422117"><ele>479.0</ele><time>2026-03-29T07:27:03.724Z</time></trkpt><trkpt lat="38.1259817" lon="14.8423033"><ele>479.0</ele><time>2026-03-29T07:27:05.724Z</time></trkpt><trkpt lat="38.1259767" lon="14.8423883"><ele>478.99999999999994</ele><time>2026-03-29T07:27:07.724Z</time></trkpt><trkpt lat="38.12601" lon="14.8424767"><ele>479.0</ele><time>2026-03-29T07:27:09.724Z</time></trkpt><trkpt lat="38.1260167" lon="14.8425667"><ele>478.71428571428567</ele><time>2026-03-29T07:27:11.723Z</time></trkpt><trkpt lat="38.1259933" lon="14.8426517"><ele>478.42857142857144</ele><time>2026-03-29T07:27:13.724Z</time></trkpt><trkpt lat="38.1259367" lon="14.8427133"><ele>478.1428571428571</ele><time>2026-03-29T07:27:15.724Z</time></trkpt><trkpt lat="38.125875" lon="14.8427783"><ele>477.85714285714283</ele><time>2026-03-29T07:27:17.724Z</time></trkpt><trkpt lat="38.125825" lon="14.842845"><ele>477.57142857142856</ele><time>2026-03-29T07:27:19.724Z</time></trkpt><trkpt lat="38.1257867" lon="14.84292"><ele>477.2857142857143</ele><time>2026-03-29T07:27:21.724Z</time></trkpt><trkpt lat="38.12575" lon="14.8429917"><ele>477.0</ele><time>2026-03-29T07:27:23.724Z</time></trkpt><trkpt lat="38.1257133" lon="14.843075"><ele>477.0</ele><time>2026-03-29T07:27:25.724Z</time></trkpt><trkpt lat="38.1256933" lon="14.843165"><ele>477.0</ele><time>2026-03-29T07:27:27.724Z</time></trkpt><trkpt lat="38.1256867" lon="14.8432533"><ele>477.0</ele><time>2026-03-29T07:27:29.724Z</time></trkpt><trkpt lat="38.1256383" lon="14.8433067"><ele>477.0</ele><time>2026-03-29T07:27:31.724Z</time></trkpt><trkpt lat="38.1255633" lon="14.8433767"><ele>477.0</ele><time>2026-03-29T07:27:33.724Z</time></trkpt><trkpt lat="38.1254717" lon="14.84347"><ele>477.0</ele><time>2026-03-29T07:27:35.724Z</time></trkpt><trkpt lat="38.1254217" lon="14.843585"><ele>477.0</ele><time>2026-03-29T07:34:35.726Z</time></trkpt><trkpt lat="38.12534" lon="14.84355"><ele>477.00000000000006</ele><time>2026-03-29T07:34:37.725Z</time></trkpt><trkpt lat="38.125245" lon="14.8435183"><ele>477.00000000000006</ele><time>2026-03-29T07:34:39.726Z</time></trkpt><trkpt lat="38.1251217" lon="14.8434717"><ele>477.0</ele><time>2026-03-29T07:34:41.725Z</time></trkpt><trkpt lat="38.1250583" lon="14.8434433"><ele>477.0</ele><time>2026-03-29T07:34:42.725Z</time></trkpt><trkpt lat="38.1249417" lon="14.843435"><ele>477.0</ele><time>2026-03-29T07:34:44.726Z</time></trkpt><trkpt lat="38.1248667" lon="14.8434517"><ele>477.0</ele><time>2026-03-29T07:34:45.726Z</time></trkpt><trkpt lat="38.1247867" lon="14.84348"><ele>477.0</ele><time>2026-03-29T07:34:46.726Z</time></trkpt><trkpt lat="38.1247067" lon="14.843515"><ele>477.0</ele><time>2026-03-29T07:34:47.726Z</time></trkpt><trkpt lat="38.1246267" lon="14.8435317"><ele>477.0</ele><time>2026-03-29T07:34:48.726Z</time></trkpt><trkpt lat="38.12454" lon="14.8435333"><ele>477.0</ele><time>2026-03-29T07:34:49.726Z</time></trkpt><trkpt lat="38.1244483" lon="14.8435383"><ele>477.0</ele><time>2026-03-29T07:34:50.726Z</time></trkpt><trkpt lat="38.124365" lon="14.8435267"><ele>477.0</ele><time>2026-03-29T07:34:51.726Z</time></trkpt><trkpt lat="38.1242783" lon="14.8435383"><ele>477.0</ele><time>2026-03-29T07:34:52.726Z</time></trkpt><trkpt lat="38.1241983" lon="14.84356"><ele>477.0</ele><time>2026-03-29T07:34:53.726Z</time></trkpt><trkpt lat="38.1241283" lon="14.843575"><ele>477.0</ele><time>2026-03-29T07:34:54.725Z</time></trkpt><trkpt lat="38.1240433" lon="14.8436"><ele>477.0</ele><time>2026-03-29T07:34:55.726Z</time></trkpt><trkpt lat="38.12395" lon="14.843605"><ele>472.8333333333333</ele><time>2026-03-29T07:34:56.726Z</time></trkpt><trkpt lat="38.1238617" lon="14.8436283"><ele>468.66666666666663</ele><time>2026-03-29T07:34:57.726Z</time></trkpt><trkpt lat="38.1237967" lon="14.8436717"><ele>464.5</ele><time>2026-03-29T07:34:58.726Z</time></trkpt><trkpt lat="38.1237533" lon="14.8437367"><ele>460.3333333333333</ele><time>2026-03-29T07:34:59.725Z</time></trkpt><trkpt lat="38.1237117" lon="14.8438"><ele>456.16666666666663</ele><time>2026-03-29T07:35:00.726Z</time></trkpt><trkpt lat="38.123655" lon="14.8438733"><ele>452.0</ele><time>2026-03-29T07:35:01.726Z</time></trkpt><trkpt lat="38.1235983" lon="14.8439483"><ele>451.99999999999994</ele><time>2026-03-29T07:35:02.726Z</time></trkpt><trkpt lat="38.1235467" lon="14.84401"><ele>452.0</ele><time>2026-03-29T07:35:03.726Z</time></trkpt><trkpt lat="38.1234917" lon="14.8440667"><ele>452.0</ele><time>2026-03-29T07:35:04.726Z</time></trkpt><trkpt lat="38.1234183" lon="14.844165"><ele>452.0</ele><time>2026-03-29T07:35:06.726Z</time></trkpt><trkpt lat="38.1234083" lon="14.8442917"><ele>451.99999999999994</ele><time>2026-03-29T07:35:08.725Z</time></trkpt><trkpt lat="38.1234" lon="14.8443817"><ele>452.0</ele><time>2026-03-29T07:35:09.725Z</time></trkpt><trkpt lat="38.1233783" lon="14.84448"><ele>453.3333333333333</ele><time>2026-03-29T07:35:10.726Z</time></trkpt><trkpt lat="38.1233617" lon="14.8445767"><ele>454.66666666666663</ele><time>2026-03-29T07:35:11.726Z</time></trkpt><trkpt lat="38.123355" lon="14.8446633"><ele>456.0</ele><time>2026-03-29T07:35:12.726Z</time></trkpt><trkpt lat="38.1233433" lon="14.84476"><ele>457.33333333333337</ele><time>2026-03-29T07:35:13.726Z</time></trkpt><trkpt lat="38.1233283" lon="14.8448583"><ele>458.6666666666667</ele><time>2026-03-29T07:35:14.726Z</time></trkpt><trkpt lat="38.1233033" lon="14.8449467"><ele>460.0</ele><time>2026-03-29T07:35:15.725Z</time></trkpt><trkpt lat="38.1232783" lon="14.845035"><ele>460.00000000000006</ele><time>2026-03-29T07:35:16.725Z</time></trkpt><trkpt lat="38.123255" lon="14.8451267"><ele>460.0</ele><time>2026-03-29T07:35:17.725Z</time></trkpt><trkpt lat="38.1232267" lon="14.8452233"><ele>460.0</ele><time>2026-03-29T07:35:18.725Z</time></trkpt><trkpt lat="38.123205" lon="14.8453083"><ele>460.0</ele><time>2026-03-29T07:35:19.726Z</time></trkpt><trkpt lat="38.1231933" lon="14.845395"><ele>460.00000000000006</ele><time>2026-03-29T07:35:20.726Z</time></trkpt><trkpt lat="38.1231833" lon="14.845485"><ele>460.0</ele><time>2026-03-29T07:35:21.726Z</time></trkpt><trkpt lat="38.12313" lon="14.8456033"><ele>456.33333333333337</ele><time>2026-03-29T07:35:23.726Z</time></trkpt><trkpt lat="38.12301" lon="14.8456083"><ele>452.6666666666667</ele><time>2026-03-29T07:35:25.726Z</time></trkpt><trkpt lat="38.122935" lon="14.8456017"><ele>449.0</ele><time>2026-03-29T07:35:26.726Z</time></trkpt><trkpt lat="38.1228667" lon="14.8455833"><ele>445.33333333333337</ele><time>2026-03-29T07:35:27.726Z</time></trkpt><trkpt lat="38.1227917" lon="14.8455617"><ele>441.6666666666667</ele><time>2026-03-29T07:35:28.726Z</time></trkpt><trkpt lat="38.12271" lon="14.8455483"><ele>438.0</ele><time>2026-03-29T07:35:29.726Z</time></trkpt><trkpt lat="38.12261" lon="14.84555"><ele>438.0</ele><time>2026-03-29T07:35:30.726Z</time></trkpt><trkpt lat="38.1225133" lon="14.8455467"><ele>438.0</ele><time>2026-03-29T07:35:31.725Z</time></trkpt><trkpt lat="38.1224267" lon="14.8455283"><ele>438.0</ele><time>2026-03-29T07:35:32.725Z</time></trkpt><trkpt lat="38.122345" lon="14.84551"><ele>438.0</ele><time>2026-03-29T07:35:33.726Z</time></trkpt><trkpt lat="38.1222633" lon="14.8454933"><ele>438.0</ele><time>2026-03-29T07:35:34.726Z</time></trkpt><trkpt lat="38.1221883" lon="14.8454667"><ele>438.0</ele><time>2026-03-29T07:35:35.725Z</time></trkpt><trkpt lat="38.1221183" lon="14.8454483"><ele>434.3333333333333</ele><time>2026-03-29T07:35:36.726Z</time></trkpt><trkpt lat="38.122045" lon="14.8454317"><ele>430.66666666666663</ele><time>2026-03-29T07:35:37.726Z</time></trkpt><trkpt lat="38.12198" lon="14.8454267"><ele>427.0</ele><time>2026-03-29T07:35:38.725Z</time></trkpt><trkpt lat="38.1219083" lon="14.8454"><ele>423.3333333333333</ele><time>2026-03-29T07:35:40.726Z</time></trkpt><trkpt lat="38.1219833" lon="14.84531"><ele>419.66666666666663</ele><time>2026-03-29T07:35:43.725Z</time></trkpt><trkpt lat="38.1220533" lon="14.8452817"><ele>416.0</ele><time>2026-03-29T07:35:44.726Z</time></trkpt><trkpt lat="38.1221117" lon="14.8452317"><ele>415.99999999999994</ele><time>2026-03-29T07:35:45.726Z</time></trkpt><trkpt lat="38.122165" lon="14.8451683"><ele>416.0</ele><time>2026-03-29T07:35:46.726Z</time></trkpt><trkpt lat="38.1222033" lon="14.845095"><ele>416.0</ele><time>2026-03-29T07:35:47.725Z</time></trkpt><trkpt lat="38.1222183" lon="14.8449783"><ele>416.0</ele><time>2026-03-29T07:35:49.726Z</time></trkpt><trkpt lat="38.1221367" lon="14.844985"><ele>415.99999999999994</ele><time>2026-03-29T07:35:51.726Z</time></trkpt><trkpt lat="38.1220667" lon="14.8450233"><ele>416.0</ele><time>2026-03-29T07:35:52.726Z</time></trkpt><trkpt lat="38.1219833" lon="14.8450433"><ele>416.0</ele><time>2026-03-29T07:35:53.725Z</time></trkpt><trkpt lat="38.1218967" lon="14.8450417"><ele>416.0</ele><time>2026-03-29T07:35:54.725Z</time></trkpt><trkpt lat="38.1218167" lon="14.8450267"><ele>416.0</ele><time>2026-03-29T07:35:55.725Z</time></trkpt><trkpt lat="38.1217067" lon="14.8450517"><ele>416.0</ele><time>2026-03-29T07:35:57.726Z</time></trkpt><trkpt lat="38.1216483" lon="14.84521"><ele>416.0</ele><time>2026-03-29T07:35:59.726Z</time></trkpt><trkpt lat="38.12161" lon="14.8452933"><ele>411.99999999999994</ele><time>2026-03-29T07:36:00.726Z</time></trkpt><trkpt lat="38.1215517" lon="14.845355"><ele>408.0</ele><time>2026-03-29T07:36:01.726Z</time></trkpt><trkpt lat="38.12149" lon="14.8453867"><ele>404.0</ele><time>2026-03-29T07:36:02.726Z</time></trkpt><trkpt lat="38.1213717" lon="14.845405"><ele>400.0</ele><time>2026-03-29T07:36:04.726Z</time></trkpt><trkpt lat="38.1213083" lon="14.845385"><ele>395.99999999999994</ele><time>2026-03-29T07:36:05.726Z</time></trkpt><trkpt lat="38.121245" lon="14.8453533"><ele>392.0</ele><time>2026-03-29T07:36:06.726Z</time></trkpt><trkpt lat="38.121185" lon="14.8453167"><ele>391.99999999999994</ele><time>2026-03-29T07:36:07.726Z</time></trkpt><trkpt lat="38.1210783" lon="14.8452967"><ele>392.0</ele><time>2026-03-29T07:36:09.726Z</time></trkpt><trkpt lat="38.121005" lon="14.84528"><ele>392.0</ele><time>2026-03-29T07:36:11.726Z</time></trkpt><trkpt lat="38.1209683" lon="14.845355"><ele>392.0</ele><time>2026-03-29T07:36:13.726Z</time></trkpt><trkpt lat="38.12096" lon="14.8454383"><ele>391.99999999999994</ele><time>2026-03-29T07:36:14.726Z</time></trkpt><trkpt lat="38.1209517" lon="14.8455317"><ele>392.0</ele><time>2026-03-29T07:36:15.726Z</time></trkpt><trkpt lat="38.1209333" lon="14.845625"><ele>392.0</ele><time>2026-03-29T07:36:16.726Z</time></trkpt><trkpt lat="38.1209167" lon="14.845705"><ele>392.0</ele><time>2026-03-29T07:36:17.726Z</time></trkpt><trkpt lat="38.120865" lon="14.8458317"><ele>392.0</ele><time>2026-03-29T07:36:19.726Z</time></trkpt><trkpt lat="38.1208083" lon="14.8459617"><ele>392.0</ele><time>2026-03-29T07:36:21.726Z</time></trkpt><trkpt lat="38.1207967" lon="14.8460983"><ele>392.0</ele><time>2026-03-29T07:36:23.726Z</time></trkpt><trkpt lat="38.120735" lon="14.8462067"><ele>397.99999999999994</ele><time>2026-03-29T07:36:25.726Z</time></trkpt><trkpt lat="38.120685" lon="14.84627"><ele>404.0</ele><time>2026-03-29T07:36:26.725Z</time></trkpt><trkpt lat="38.12063" lon="14.8463133"><ele>410.0</ele><time>2026-03-29T07:36:27.725Z</time></trkpt><trkpt lat="38.1205517" lon="14.8463233"><ele>416.0</ele><time>2026-03-29T07:36:29.725Z</time></trkpt><trkpt lat="38.1204917" lon="14.846215"><ele>421.99999999999994</ele><time>2026-03-29T07:36:31.725Z</time></trkpt><trkpt lat="38.12045" lon="14.8461283"><ele>428.0</ele><time>2026-03-29T07:36:32.725Z</time></trkpt><trkpt lat="38.1204017" lon="14.8460583"><ele>428.00000000000006</ele><time>2026-03-29T07:36:33.726Z</time></trkpt><trkpt lat="38.12034" lon="14.84603"><ele>428.0</ele><time>2026-03-29T07:36:34.726Z</time></trkpt><trkpt lat="38.1202783" lon="14.8460117"><ele>428.0</ele><time>2026-03-29T07:36:35.726Z</time></trkpt><trkpt lat="38.12021" lon="14.8459933"><ele>428.0</ele><time>2026-03-29T07:36:36.726Z</time></trkpt><trkpt lat="38.1201333" lon="14.84596"><ele>428.0</ele><time>2026-03-29T07:36:37.726Z</time></trkpt><trkpt lat="38.1200667" lon="14.8459133"><ele>428.00000000000006</ele><time>2026-03-29T07:36:38.726Z</time></trkpt><trkpt lat="38.1200083" lon="14.84588"><ele>428.0</ele><time>2026-03-29T07:36:39.726Z</time></trkpt><trkpt lat="38.1199433" lon="14.84585"><ele>427.2</ele><time>2026-03-29T07:36:40.725Z</time></trkpt><trkpt lat="38.1198317" lon="14.8458233"><ele>426.4</ele><time>2026-03-29T07:36:42.726Z</time></trkpt><trkpt lat="38.1197417" lon="14.84577"><ele>425.59999999999997</ele><time>2026-03-29T07:36:44.726Z</time></trkpt><trkpt lat="38.1196833" lon="14.84565"><ele>424.79999999999995</ele><time>2026-03-29T07:36:46.726Z</time></trkpt><trkpt lat="38.119675" lon="14.8455583"><ele>424.0</ele><time>2026-03-29T07:36:47.726Z</time></trkpt><trkpt lat="38.1196767" lon="14.8454733"><ele>424.0</ele><time>2026-03-29T07:36:48.726Z</time></trkpt><trkpt lat="38.1197433" lon="14.8453683"><ele>424.0</ele><time>2026-03-29T07:36:50.726Z</time></trkpt><trkpt lat="38.1198367" lon="14.8452967"><ele>424.0</ele><time>2026-03-29T07:36:51.725Z</time></trkpt><trkpt lat="38.1199133" lon="14.845265"><ele>424.0</ele><time>2026-03-29T07:36:52.726Z</time></trkpt><trkpt lat="38.1199817" lon="14.8452233"><ele>424.0</ele><time>2026-03-29T07:36:53.726Z</time></trkpt><trkpt lat="38.1200767" lon="14.84515"><ele>422.6</ele><time>2026-03-29T07:36:55.726Z</time></trkpt><trkpt lat="38.1201517" lon="14.84504"><ele>421.2</ele><time>2026-03-29T07:36:57.726Z</time></trkpt><trkpt lat="38.1201833" lon="14.8449683"><ele>419.8</ele><time>2026-03-29T07:36:58.726Z</time></trkpt><trkpt lat="38.1202067" lon="14.8448767"><ele>418.40000000000003</ele><time>2026-03-29T07:36:59.726Z</time></trkpt><trkpt lat="38.12022" lon="14.844755"><ele>417.0</ele><time>2026-03-29T07:37:00.726Z</time></trkpt><trkpt lat="38.120245" lon="14.8446133"><ele>417.0</ele><time>2026-03-29T07:37:01.726Z</time></trkpt><trkpt lat="38.1202633" lon="14.8444717"><ele>417.0</ele><time>2026-03-29T07:37:02.725Z</time></trkpt><trkpt lat="38.120285" lon="14.84433"><ele>417.0</ele><time>2026-03-29T07:37:03.725Z</time></trkpt><trkpt lat="38.1203167" lon="14.8442083"><ele>417.0</ele><time>2026-03-29T07:37:04.726Z</time></trkpt><trkpt lat="38.120345" lon="14.8440933"><ele>417.0</ele><time>2026-03-29T07:37:05.726Z</time></trkpt><trkpt lat="38.120385" lon="14.843975"><ele>419.0</ele><time>2026-03-29T07:37:06.725Z</time></trkpt><trkpt lat="38.1204033" lon="14.843865"><ele>421.0</ele><time>2026-03-29T07:37:07.726Z</time></trkpt><trkpt lat="38.1204083" lon="14.8437467"><ele>423.0</ele><time>2026-03-29T07:37:08.725Z</time></trkpt><trkpt lat="38.1203983" lon="14.8436383"><ele>425.0</ele><time>2026-03-29T07:37:09.726Z</time></trkpt><trkpt lat="38.1203833" lon="14.8435383"><ele>427.0</ele><time>2026-03-29T07:37:10.726Z</time></trkpt><trkpt lat="38.1203533" lon="14.8434317"><ele>429.0</ele><time>2026-03-29T07:37:11.726Z</time></trkpt><trkpt lat="38.1203283" lon="14.8433317"><ele>429.8333333333333</ele><time>2026-03-29T07:37:12.726Z</time></trkpt><trkpt lat="38.1203117" lon="14.8432417"><ele>430.66666666666663</ele><time>2026-03-29T07:37:13.726Z</time></trkpt><trkpt lat="38.1202933" lon="14.8430933"><ele>431.5</ele><time>2026-03-29T07:37:15.726Z</time></trkpt><trkpt lat="38.1203017" lon="14.8430083"><ele>432.3333333333333</ele><time>2026-03-29T07:37:16.726Z</time></trkpt><trkpt lat="38.1202883" lon="14.8429067"><ele>433.16666666666663</ele><time>2026-03-29T07:37:17.725Z</time></trkpt><trkpt lat="38.1202867" lon="14.8428267"><ele>434.0</ele><time>2026-03-29T07:37:18.726Z</time></trkpt><trkpt lat="38.1202983" lon="14.8426733"><ele>435.0</ele><time>2026-03-29T07:37:20.726Z</time></trkpt><trkpt lat="38.1202983" lon="14.84258"><ele>436.0</ele><time>2026-03-29T07:37:21.726Z</time></trkpt><trkpt lat="38.1202967" lon="14.8424417"><ele>437.0</ele><time>2026-03-29T07:37:23.726Z</time></trkpt><trkpt lat="38.1202883" lon="14.8423217"><ele>438.0</ele><time>2026-03-29T07:37:25.726Z</time></trkpt><trkpt lat="38.120335" lon="14.8421717"><ele>439.0</ele><time>2026-03-29T07:37:27.726Z</time></trkpt><trkpt lat="38.120385" lon="14.8420983"><ele>439.00000000000006</ele><time>2026-03-29T07:37:28.725Z</time></trkpt><trkpt lat="38.12044" lon="14.84204"><ele>439.0</ele><time>2026-03-29T07:37:29.726Z</time></trkpt><trkpt lat="38.12053" lon="14.841955"><ele>439.0</ele><time>2026-03-29T07:37:31.725Z</time></trkpt><trkpt lat="38.12057" lon="14.841835"><ele>439.0</ele><time>2026-03-29T07:37:33.726Z</time></trkpt><trkpt lat="38.1205667" lon="14.8417417"><ele>439.00000000000006</ele><time>2026-03-29T07:37:34.726Z</time></trkpt><trkpt lat="38.1205517" lon="14.8416417"><ele>439.0</ele><time>2026-03-29T07:37:35.725Z</time></trkpt><trkpt lat="38.1205183" lon="14.84155"><ele>439.79999999999995</ele><time>2026-03-29T07:37:36.725Z</time></trkpt><trkpt lat="38.1204933" lon="14.8414367"><ele>440.59999999999997</ele><time>2026-03-29T07:37:37.726Z</time></trkpt><trkpt lat="38.1204817" lon="14.8413383"><ele>441.4</ele><time>2026-03-29T07:37:38.725Z</time></trkpt><trkpt lat="38.1204517" lon="14.8411967"><ele>442.2</ele><time>2026-03-29T07:37:40.726Z</time></trkpt><trkpt lat="38.1203817" lon="14.8410917"><ele>443.0</ele><time>2026-03-29T07:37:42.725Z</time></trkpt><trkpt lat="38.1202817" lon="14.8410267"><ele>441.0</ele><time>2026-03-29T07:37:44.726Z</time></trkpt><trkpt lat="38.1202033" lon="14.8408883"><ele>438.99999999999994</ele><time>2026-03-29T07:37:46.726Z</time></trkpt><trkpt lat="38.1201767" lon="14.8407917"><ele>436.99999999999994</ele><time>2026-03-29T07:37:47.725Z</time></trkpt><trkpt lat="38.1201333" lon="14.8406817"><ele>435.0</ele><time>2026-03-29T07:37:48.726Z</time></trkpt><trkpt lat="38.1200833" lon="14.84058"><ele>433.0</ele><time>2026-03-29T07:37:49.725Z</time></trkpt><trkpt lat="38.12004" lon="14.8404833"><ele>433.0</ele><time>2026-03-29T07:37:50.726Z</time></trkpt><trkpt lat="38.1200133" lon="14.8403917"><ele>432.99999999999994</ele><time>2026-03-29T07:37:51.726Z</time></trkpt><trkpt lat="38.119995" lon="14.8402883"><ele>432.99999999999994</ele><time>2026-03-29T07:37:52.726Z</time></trkpt><trkpt lat="38.119955" lon="14.8401867"><ele>433.0</ele><time>2026-03-29T07:37:53.726Z</time></trkpt><trkpt lat="38.1199" lon="14.8401017"><ele>433.0</ele><time>2026-03-29T07:37:54.725Z</time></trkpt><trkpt lat="38.1198183" lon="14.8399967"><ele>435.59999999999997</ele><time>2026-03-29T07:37:55.726Z</time></trkpt><trkpt lat="38.11975" lon="14.8399033"><ele>438.19999999999993</ele><time>2026-03-29T07:37:56.726Z</time></trkpt><trkpt lat="38.1196967" lon="14.8398133"><ele>440.8</ele><time>2026-03-29T07:37:57.726Z</time></trkpt><trkpt lat="38.1196517" lon="14.83972"><ele>443.4</ele><time>2026-03-29T07:37:58.726Z</time></trkpt><trkpt lat="38.1196183" lon="14.8396217"><ele>446.0</ele><time>2026-03-29T07:37:59.725Z</time></trkpt><trkpt lat="38.1195783" lon="14.83951"><ele>446.0</ele><time>2026-03-29T07:38:00.725Z</time></trkpt><trkpt lat="38.1195267" lon="14.8394"><ele>446.0</ele><time>2026-03-29T07:38:01.726Z</time></trkpt><trkpt lat="38.119465" lon="14.8392733"><ele>446.0</ele><time>2026-03-29T07:38:02.725Z</time></trkpt><trkpt lat="38.119395" lon="14.839155"><ele>446.0</ele><time>2026-03-29T07:38:03.725Z</time></trkpt><trkpt lat="38.1193283" lon="14.83905"><ele>446.0</ele><time>2026-03-29T07:38:04.725Z</time></trkpt><trkpt lat="38.119275" lon="14.838945"><ele>444.8333333333333</ele><time>2026-03-29T07:38:05.725Z</time></trkpt><trkpt lat="38.11923" lon="14.8388433"><ele>443.66666666666663</ele><time>2026-03-29T07:38:06.725Z</time></trkpt><trkpt lat="38.1191933" lon="14.838745"><ele>442.5</ele><time>2026-03-29T07:38:07.726Z</time></trkpt><trkpt lat="38.1191567" lon="14.83865"><ele>441.33333333333337</ele><time>2026-03-29T07:38:08.726Z</time></trkpt><trkpt lat="38.1191083" lon="14.83856"><ele>440.1666666666667</ele><time>2026-03-29T07:38:09.725Z</time></trkpt><trkpt lat="38.1190583" lon="14.8384633"><ele>439.0</ele><time>2026-03-29T07:38:10.725Z</time></trkpt><trkpt lat="38.1189967" lon="14.8383583"><ele>443.0</ele><time>2026-03-29T07:38:11.725Z</time></trkpt><trkpt lat="38.1189483" lon="14.8382483"><ele>447.0</ele><time>2026-03-29T07:38:12.725Z</time></trkpt><trkpt lat="38.1189183" lon="14.8381267"><ele>451.0</ele><time>2026-03-29T07:38:13.725Z</time></trkpt><trkpt lat="38.1189017" lon="14.8380083"><ele>455.0</ele><time>2026-03-29T07:38:14.726Z</time></trkpt><trkpt lat="38.1188967" lon="14.8378983"><ele>459.0</ele><time>2026-03-29T07:38:15.725Z</time></trkpt><trkpt lat="38.1188683" lon="14.8378033"><ele>459.0</ele><time>2026-03-29T07:38:16.726Z</time></trkpt><trkpt lat="38.1188167" lon="14.8377183"><ele>459.0</ele><time>2026-03-29T07:38:17.726Z</time></trkpt><trkpt lat="38.118755" lon="14.8376317"><ele>459.0</ele><time>2026-03-29T07:38:18.726Z</time></trkpt><trkpt lat="38.11867" lon="14.83753"><ele>459.0</ele><time>2026-03-29T07:38:19.726Z</time></trkpt><trkpt lat="38.1185733" lon="14.83741"><ele>459.0</ele><time>2026-03-29T07:38:20.726Z</time></trkpt><trkpt lat="38.1184967" lon="14.8373"><ele>458.1666666666667</ele><time>2026-03-29T07:38:21.726Z</time></trkpt><trkpt lat="38.118435" lon="14.8372017"><ele>457.33333333333337</ele><time>2026-03-29T07:38:22.726Z</time></trkpt><trkpt lat="38.1183833" lon="14.8371117"><ele>456.5</ele><time>2026-03-29T07:38:23.726Z</time></trkpt><trkpt lat="38.1183467" lon="14.8370283"><ele>455.6666666666667</ele><time>2026-03-29T07:38:24.726Z</time></trkpt><trkpt lat="38.1183217" lon="14.8369133"><ele>454.83333333333337</ele><time>2026-03-29T07:38:26.725Z</time></trkpt><trkpt lat="38.1183" lon="14.8368217"><ele>454.0</ele><time>2026-03-29T07:38:28.726Z</time></trkpt><trkpt lat="38.1183583" lon="14.8367667"><ele>454.0</ele><time>2026-03-29T07:38:30.726Z</time></trkpt><trkpt lat="38.1183367" lon="14.8368733"><ele>454.00000000000006</ele><time>2026-03-29T07:38:36.726Z</time></trkpt><trkpt lat="38.1183033" lon="14.8369433"><ele>454.0</ele><time>2026-03-29T07:38:37.726Z</time></trkpt><trkpt lat="38.11827" lon="14.8370133"><ele>454.0</ele><time>2026-03-29T07:38:38.726Z</time></trkpt><trkpt lat="38.1182333" lon="14.8370933"><ele>454.00000000000006</ele><time>2026-03-29T07:38:39.725Z</time></trkpt><trkpt lat="38.1181917" lon="14.83716"><ele>454.0</ele><time>2026-03-29T07:38:40.725Z</time></trkpt><trkpt lat="38.1181633" lon="14.8372383"><ele>454.0</ele><time>2026-03-29T07:38:42.726Z</time></trkpt><trkpt lat="38.11817" lon="14.8373383"><ele>455.0</ele><time>2026-03-29T07:38:44.726Z</time></trkpt><trkpt lat="38.1181883" lon="14.8374983"><ele>456.0</ele><time>2026-03-29T07:38:46.726Z</time></trkpt><trkpt lat="38.118195" lon="14.8375833"><ele>457.0</ele><time>2026-03-29T07:38:47.726Z</time></trkpt><trkpt lat="38.1181917" lon="14.837685"><ele>458.0</ele><time>2026-03-29T07:38:48.726Z</time></trkpt><trkpt lat="38.118205" lon="14.8378033"><ele>459.0</ele><time>2026-03-29T07:38:49.726Z</time></trkpt><trkpt lat="38.1182417" lon="14.83795"><ele>459.0</ele><time>2026-03-29T07:38:50.726Z</time></trkpt><trkpt lat="38.1182733" lon="14.8380967"><ele>459.0</ele><time>2026-03-29T07:38:51.726Z</time></trkpt><trkpt lat="38.1183117" lon="14.8382"><ele>459.0</ele><time>2026-03-29T07:38:52.726Z</time></trkpt><trkpt lat="38.1183367" lon="14.83828"><ele>459.0</ele><time>2026-03-29T07:38:53.726Z</time></trkpt><trkpt lat="38.1183767" lon="14.8383933"><ele>459.0</ele><time>2026-03-29T07:38:55.726Z</time></trkpt><trkpt lat="38.118405" lon="14.838515"><ele>460.4</ele><time>2026-03-29T07:38:57.725Z</time></trkpt><trkpt lat="38.1184033" lon="14.838635"><ele>461.79999999999995</ele><time>2026-03-29T07:38:59.726Z</time></trkpt><trkpt lat="38.1183583" lon="14.838745"><ele>463.20000000000005</ele><time>2026-03-29T07:39:01.725Z</time></trkpt><trkpt lat="38.1183083" lon="14.838875"><ele>464.6</ele><time>2026-03-29T07:39:03.725Z</time></trkpt><trkpt lat="38.118265" lon="14.8390217"><ele>466.0</ele><time>2026-03-29T07:39:05.726Z</time></trkpt><trkpt lat="38.11826" lon="14.8391183"><ele>466.00000000000006</ele><time>2026-03-29T07:39:06.726Z</time></trkpt><trkpt lat="38.118265" lon="14.8392167"><ele>466.0</ele><time>2026-03-29T07:39:07.726Z</time></trkpt><trkpt lat="38.1182917" lon="14.8393083"><ele>466.0</ele><time>2026-03-29T07:39:08.726Z</time></trkpt><trkpt lat="38.118335" lon="14.839385"><ele>466.0</ele><time>2026-03-29T07:39:09.725Z</time></trkpt><trkpt lat="38.11837" lon="14.8394583"><ele>466.00000000000006</ele><time>2026-03-29T07:39:10.726Z</time></trkpt><trkpt lat="38.11842" lon="14.83954"><ele>466.0</ele><time>2026-03-29T07:39:11.726Z</time></trkpt><trkpt lat="38.11848" lon="14.8396083"><ele>467.50000000000006</ele><time>2026-03-29T07:39:12.726Z</time></trkpt><trkpt lat="38.1185333" lon="14.8397267"><ele>469.0</ele><time>2026-03-29T07:39:14.726Z</time></trkpt><trkpt lat="38.1185433" lon="14.8398517"><ele>470.5</ele><time>2026-03-29T07:39:16.725Z</time></trkpt><trkpt lat="38.1185467" lon="14.8399317"><ele>472.0</ele><time>2026-03-29T07:39:17.726Z</time></trkpt><trkpt lat="38.11856" lon="14.8400183"><ele>473.50000000000006</ele><time>2026-03-29T07:39:18.725Z</time></trkpt><trkpt lat="38.118585" lon="14.8401067"><ele>475.0</ele><time>2026-03-29T07:39:19.725Z</time></trkpt><trkpt lat="38.1186217" lon="14.8401933"><ele>476.33333333333337</ele><time>2026-03-29T07:39:20.726Z</time></trkpt><trkpt lat="38.1186833" lon="14.84029"><ele>477.6666666666667</ele><time>2026-03-29T07:39:21.725Z</time></trkpt><trkpt lat="38.1187533" lon="14.8404"><ele>479.0</ele><time>2026-03-29T07:39:22.725Z</time></trkpt><trkpt lat="38.11881" lon="14.8404933"><ele>480.33333333333337</ele><time>2026-03-29T07:39:23.726Z</time></trkpt><trkpt lat="38.1188517" lon="14.84058"><ele>481.6666666666667</ele><time>2026-03-29T07:39:24.726Z</time></trkpt><trkpt lat="38.118885" lon="14.8406483"><ele>483.0</ele><time>2026-03-29T07:39:25.726Z</time></trkpt><trkpt lat="38.1189367" lon="14.840725"><ele>483.0</ele><time>2026-03-29T07:39:27.727Z</time></trkpt><trkpt lat="38.118985" lon="14.8408267"><ele>483.0</ele><time>2026-03-29T07:39:29.726Z</time></trkpt><trkpt lat="38.1190217" lon="14.8409083"><ele>483.0</ele><time>2026-03-29T07:39:30.727Z</time></trkpt><trkpt lat="38.11906" lon="14.8409917"><ele>483.0</ele><time>2026-03-29T07:39:31.726Z</time></trkpt><trkpt lat="38.1190967" lon="14.8410817"><ele>483.0</ele><time>2026-03-29T07:39:32.726Z</time></trkpt><trkpt lat="38.11916" lon="14.8411767"><ele>483.0</ele><time>2026-03-29T07:39:34.727Z</time></trkpt><trkpt lat="38.1192283" lon="14.8412333"><ele>481.2</ele><time>2026-03-29T07:39:36.727Z</time></trkpt><trkpt lat="38.119275" lon="14.8413383"><ele>479.4</ele><time>2026-03-29T07:39:38.726Z</time></trkpt><trkpt lat="38.1192917" lon="14.8414733"><ele>477.59999999999997</ele><time>2026-03-29T07:39:40.726Z</time></trkpt><trkpt lat="38.1193" lon="14.8416067"><ele>475.79999999999995</ele><time>2026-03-29T07:39:42.727Z</time></trkpt><trkpt lat="38.11929" lon="14.8417367"><ele>474.0</ele><time>2026-03-29T07:39:44.727Z</time></trkpt><trkpt lat="38.1192617" lon="14.8418567"><ele>474.0</ele><time>2026-03-29T07:39:46.726Z</time></trkpt><trkpt lat="38.1192217" lon="14.8419633"><ele>474.0</ele><time>2026-03-29T07:39:48.727Z</time></trkpt><trkpt lat="38.1191983" lon="14.8420467"><ele>474.0</ele><time>2026-03-29T07:39:51.727Z</time></trkpt><trkpt lat="38.1192283" lon="14.8421283"><ele>474.0</ele><time>2026-03-29T07:40:00.727Z</time></trkpt><trkpt lat="38.1192717" lon="14.8422033"><ele>474.0</ele><time>2026-03-29T07:40:03.727Z</time></trkpt><trkpt lat="38.1193183" lon="14.8422867"><ele>474.0</ele><time>2026-03-29T07:40:05.727Z</time></trkpt><trkpt lat="38.11938" lon="14.84237"><ele>474.0</ele><time>2026-03-29T07:40:07.727Z</time></trkpt><trkpt lat="38.1194417" lon="14.8424233"><ele>474.0</ele><time>2026-03-29T07:40:09.726Z</time></trkpt><trkpt lat="38.11951" lon="14.8425067"><ele>474.0</ele><time>2026-03-29T07:40:11.727Z</time></trkpt><trkpt lat="38.1195717" lon="14.8426017"><ele>474.0</ele><time>2026-03-29T07:40:13.726Z</time></trkpt><trkpt lat="38.11961" lon="14.8426783"><ele>474.0</ele><time>2026-03-29T07:40:15.726Z</time></trkpt><trkpt lat="38.1196417" lon="14.842755"><ele>474.0</ele><time>2026-03-29T07:40:17.726Z</time></trkpt><trkpt lat="38.1196733" lon="14.8428433"><ele>474.0</ele><time>2026-03-29T07:40:19.727Z</time></trkpt><trkpt lat="38.1197117" lon="14.8429167"><ele>474.0</ele><time>2026-03-29T07:40:21.726Z</time></trkpt><trkpt lat="38.11979" lon="14.8429633"><ele>474.0</ele><time>2026-03-29T07:40:23.726Z</time></trkpt><trkpt lat="38.1198683" lon="14.8430333"><ele>474.0</ele><time>2026-03-29T07:40:25.726Z</time></trkpt><trkpt lat="38.1199517" lon="14.8431367"><ele>474.0</ele><time>2026-03-29T07:40:27.726Z</time></trkpt><trkpt lat="38.12" lon="14.8431933"><ele>474.0</ele><time>2026-03-29T07:40:28.726Z</time></trkpt><trkpt lat="38.12007" lon="14.843315"><ele>467.3333333333333</ele><time>2026-03-29T07:40:30.727Z</time></trkpt><trkpt lat="38.1201517" lon="14.84342"><ele>460.66666666666663</ele><time>2026-03-29T07:40:32.727Z</time></trkpt><trkpt lat="38.1202133" lon="14.8435117"><ele>454.0</ele><time>2026-03-29T07:40:34.727Z</time></trkpt><trkpt lat="38.12025" lon="14.84359"><ele>447.3333333333333</ele><time>2026-03-29T07:40:36.726Z</time></trkpt><trkpt lat="38.12032" lon="14.8435867"><ele>440.66666666666663</ele><time>2026-03-29T07:40:39.727Z</time></trkpt><trkpt lat="38.1203083" lon="14.8434767"><ele>434.0</ele><time>2026-03-29T07:40:49.727Z</time></trkpt><trkpt lat="38.1203017" lon="14.843375"><ele>433.99999999999994</ele><time>2026-03-29T07:40:52.726Z</time></trkpt><trkpt lat="38.1203001" lon="14.8434658"><ele>434.0</ele><time>2026-03-29T07:41:14.727Z</time></trkpt><trkpt lat="38.1202642" lon="14.8435756"><ele>434.0</ele><time>2026-03-29T07:41:16.727Z</time></trkpt><trkpt lat="38.1201722" lon="14.8435203"><ele>434.0</ele><time>2026-03-29T07:41:19.726Z</time></trkpt><trkpt lat="38.1201354" lon="14.8434401"><ele>433.99999999999994</ele><time>2026-03-29T07:41:20.726Z</time></trkpt><trkpt lat="38.1200976" lon="14.8433419"><ele>434.0</ele><time>2026-03-29T07:41:21.727Z</time></trkpt><trkpt lat="38.1200586" lon="14.8432519"><ele>433.99999999999994</ele><time>2026-03-29T07:41:22.726Z</time></trkpt><trkpt lat="38.1200146" lon="14.8431825"><ele>434.0</ele><time>2026-03-29T07:41:23.727Z</time></trkpt><trkpt lat="38.1199671" lon="14.843128"><ele>434.0</ele><time>2026-03-29T07:41:24.726Z</time></trkpt><trkpt lat="38.1198713" lon="14.8430365"><ele>434.0</ele><time>2026-03-29T07:41:26.727Z</time></trkpt><trkpt lat="38.1198094" lon="14.8429825"><ele>433.99999999999994</ele><time>2026-03-29T07:41:27.726Z</time></trkpt><trkpt lat="38.1197429" lon="14.8429337"><ele>434.0</ele><time>2026-03-29T07:41:28.727Z</time></trkpt><trkpt lat="38.1196845" lon="14.8428718"><ele>440.66666666666663</ele><time>2026-03-29T07:41:29.727Z</time></trkpt><trkpt lat="38.1196498" lon="14.8427911"><ele>447.3333333333333</ele><time>2026-03-29T07:41:30.727Z</time></trkpt><trkpt lat="38.1196213" lon="14.8427192"><ele>454.0</ele><time>2026-03-29T07:41:31.727Z</time></trkpt><trkpt lat="38.1195417" lon="14.8425867"><ele>460.66666666666663</ele><time>2026-03-29T07:41:33.726Z</time></trkpt><trkpt lat="38.1195" lon="14.84252"><ele>467.3333333333333</ele><time>2026-03-29T07:41:34.727Z</time></trkpt><trkpt lat="38.11945" lon="14.8424633"><ele>474.0</ele><time>2026-03-29T07:41:35.727Z</time></trkpt><trkpt lat="38.11935" lon="14.8423733"><ele>474.0</ele><time>2026-03-29T07:41:37.727Z</time></trkpt><trkpt lat="38.1192817" lon="14.84227"><ele>474.0</ele><time>2026-03-29T07:41:39.726Z</time></trkpt><trkpt lat="38.119215" lon="14.8422583"><ele>474.0</ele><time>2026-03-29T07:41:42.727Z</time></trkpt><trkpt lat="38.119225" lon="14.8423583"><ele>474.0</ele><time>2026-03-29T07:41:44.727Z</time></trkpt><trkpt lat="38.1192083" lon="14.8425117"><ele>474.0</ele><time>2026-03-29T07:41:46.727Z</time></trkpt><trkpt lat="38.1191867" lon="14.8425883"><ele>474.0</ele><time>2026-03-29T07:41:47.727Z</time></trkpt><trkpt lat="38.1191367" lon="14.842685"><ele>474.0</ele><time>2026-03-29T07:41:49.727Z</time></trkpt><trkpt lat="38.1191167" lon="14.842595"><ele>474.0</ele><time>2026-03-29T07:41:52.726Z</time></trkpt><trkpt lat="38.1191467" lon="14.842465"><ele>474.0</ele><time>2026-03-29T07:41:54.727Z</time></trkpt><trkpt lat="38.1190933" lon="14.84242"><ele>474.0</ele><time>2026-03-29T07:41:56.727Z</time></trkpt><trkpt lat="38.1189933" lon="14.8424917"><ele>474.0</ele><time>2026-03-29T07:41:58.726Z</time></trkpt><trkpt lat="38.118945" lon="14.84257"><ele>474.0</ele><time>2026-03-29T07:41:59.726Z</time></trkpt><trkpt lat="38.118905" lon="14.8426367"><ele>478.99999999999994</ele><time>2026-03-29T07:42:00.727Z</time></trkpt><trkpt lat="38.1189" lon="14.8427283"><ele>484.0</ele><time>2026-03-29T07:42:02.727Z</time></trkpt><trkpt lat="38.118945" lon="14.8428233"><ele>488.99999999999994</ele><time>2026-03-29T07:42:04.727Z</time></trkpt><trkpt lat="38.1189583" lon="14.8429017"><ele>493.99999999999994</ele><time>2026-03-29T07:42:06.726Z</time></trkpt><trkpt lat="38.1188783" lon="14.8428933"><ele>499.0</ele><time>2026-03-29T07:42:08.726Z</time></trkpt><trkpt lat="38.1188133" lon="14.8428667"><ele>503.99999999999994</ele><time>2026-03-29T07:42:09.727Z</time></trkpt><trkpt lat="38.1187483" lon="14.842865"><ele>508.99999999999994</ele><time>2026-03-29T07:42:10.726Z</time></trkpt><trkpt lat="38.1186733" lon="14.842845"><ele>508.99999999999994</ele><time>2026-03-29T07:42:11.727Z</time></trkpt><trkpt lat="38.118605" lon="14.8428267"><ele>509.0</ele><time>2026-03-29T07:42:12.727Z</time></trkpt><trkpt lat="38.118535" lon="14.8428133"><ele>509.0</ele><time>2026-03-29T07:42:13.726Z</time></trkpt><trkpt lat="38.1184383" lon="14.8428217"><ele>509.0</ele><time>2026-03-29T07:42:15.726Z</time></trkpt><trkpt lat="38.1183805" lon="14.8427784"><ele>508.99999999999994</ele><time>2026-03-29T07:45:07.727Z</time></trkpt><trkpt lat="38.1184779" lon="14.8428197"><ele>509.0</ele><time>2026-03-29T07:46:37.728Z</time></trkpt><trkpt lat="38.1185621" lon="14.8428391"><ele>508.99999999999994</ele><time>2026-03-29T07:46:40.727Z</time></trkpt><trkpt lat="38.118638" lon="14.8428219"><ele>509.0</ele><time>2026-03-29T07:46:43.728Z</time></trkpt><trkpt lat="38.1187214" lon="14.8428369"><ele>509.0</ele><time>2026-03-29T07:46:46.727Z</time></trkpt><trkpt lat="38.1187854" lon="14.842851"><ele>509.0</ele><time>2026-03-29T07:46:48.728Z</time></trkpt><trkpt lat="38.1188689" lon="14.8428451"><ele>508.99999999999994</ele><time>2026-03-29T07:46:51.728Z</time></trkpt><trkpt lat="38.1189536" lon="14.8428576"><ele>509.0</ele><time>2026-03-29T07:46:54.728Z</time></trkpt><trkpt lat="38.1188605" lon="14.8428524"><ele>508.99999999999994</ele><time>2026-03-29T07:47:26.727Z</time></trkpt><trkpt lat="38.1187964" lon="14.8428436"><ele>509.0</ele><time>2026-03-29T07:47:28.727Z</time></trkpt><trkpt lat="38.1187261" lon="14.8428604"><ele>508.99999999999994</ele><time>2026-03-29T07:47:30.727Z</time></trkpt><trkpt lat="38.118639" lon="14.8428358"><ele>508.99999999999994</ele><time>2026-03-29T07:47:32.728Z</time></trkpt><trkpt lat="38.1185689" lon="14.8428298"><ele>509.0</ele><time>2026-03-29T07:47:34.728Z</time></trkpt><trkpt lat="38.1184971" lon="14.842838"><ele>508.99999999999994</ele><time>2026-03-29T07:47:36.727Z</time></trkpt><trkpt lat="38.118435" lon="14.8428529"><ele>508.99999999999994</ele><time>2026-03-29T07:47:38.728Z</time></trkpt><trkpt lat="38.1184886" lon="14.8429735"><ele>508.99999999999994</ele><time>2026-03-29T07:47:41.727Z</time></trkpt><trkpt lat="38.1185663" lon="14.8430744"><ele>509.0</ele><time>2026-03-29T07:47:43.727Z</time></trkpt><trkpt lat="38.1186087" lon="14.8431604"><ele>509.0</ele><time>2026-03-29T07:47:45.728Z</time></trkpt><trkpt lat="38.1186207" lon="14.8432707"><ele>509.0</ele><time>2026-03-29T07:47:49.728Z</time></trkpt><trkpt lat="38.118634" lon="14.8433723"><ele>508.99999999999994</ele><time>2026-03-29T07:47:52.727Z</time></trkpt><trkpt lat="38.118696" lon="14.8434248"><ele>509.0</ele><time>2026-03-29T07:48:05.728Z</time></trkpt><trkpt lat="38.1187598" lon="14.8434116"><ele>508.99999999999994</ele><time>2026-03-29T07:48:07.727Z</time></trkpt><trkpt lat="38.1188138" lon="14.8433602"><ele>509.0</ele><time>2026-03-29T07:48:11.728Z</time></trkpt><trkpt lat="38.1188" lon="14.8432817"><ele>508.99999999999994</ele><time>2026-03-29T07:48:13.728Z</time></trkpt><trkpt lat="38.1187731" lon="14.8431825"><ele>508.99999999999994</ele><time>2026-03-29T07:48:16.727Z</time></trkpt><trkpt lat="38.1187547" lon="14.8430832"><ele>509.0</ele><time>2026-03-29T07:48:21.728Z</time></trkpt><trkpt lat="38.1187345" lon="14.8429873"><ele>508.99999999999994</ele><time>2026-03-29T07:48:24.728Z</time></trkpt><trkpt lat="38.1187482" lon="14.8428948"><ele>508.99999999999994</ele><time>2026-03-29T07:48:28.728Z</time></trkpt><trkpt lat="38.1186962" lon="14.8428413"><ele>508.99999999999994</ele><time>2026-03-29T07:48:33.727Z</time></trkpt><trkpt lat="38.1186075" lon="14.8428311"><ele>509.0</ele><time>2026-03-29T07:48:35.728Z</time></trkpt><trkpt lat="38.1185262" lon="14.8428258"><ele>509.0</ele><time>2026-03-29T07:48:37.728Z</time></trkpt><trkpt lat="38.1184586" lon="14.8428298"><ele>509.0</ele><time>2026-03-29T07:48:39.728Z</time></trkpt><trkpt lat="38.1183984" lon="14.8428056"><ele>508.99999999999994</ele><time>2026-03-29T07:48:43.728Z</time></trkpt><trkpt lat="38.1184098" lon="14.8427194"><ele>509.0</ele><time>2026-03-29T07:48:50.728Z</time></trkpt><trkpt lat="38.1184433" lon="14.8428133"><ele>508.99999999999994</ele><time>2026-03-29T07:48:59.728Z</time></trkpt><trkpt lat="38.1185083" lon="14.842825"><ele>509.0</ele><time>2026-03-29T07:49:01.727Z</time></trkpt><trkpt lat="38.1185817" lon="14.8428283"><ele>509.0</ele><time>2026-03-29T07:49:03.728Z</time></trkpt><trkpt lat="38.1186667" lon="14.8428367"><ele>509.0</ele><time>2026-03-29T07:49:06.728Z</time></trkpt><trkpt lat="38.1187533" lon="14.8428533"><ele>508.99999999999994</ele><time>2026-03-29T07:49:09.728Z</time></trkpt><trkpt lat="38.1188283" lon="14.8428517"><ele>509.0</ele><time>2026-03-29T07:49:12.728Z</time></trkpt><trkpt lat="38.1189033" lon="14.842865"><ele>508.99999999999994</ele><time>2026-03-29T07:49:14.728Z</time></trkpt><trkpt lat="38.1189683" lon="14.842875"><ele>509.0</ele><time>2026-03-29T07:49:16.728Z</time></trkpt><trkpt lat="38.1189933" lon="14.842795"><ele>508.99999999999994</ele><time>2026-03-29T07:49:19.728Z</time></trkpt><trkpt lat="38.1189533" lon="14.8427217"><ele>508.99999999999994</ele><time>2026-03-29T07:49:21.728Z</time></trkpt><trkpt lat="38.1189333" lon="14.8426333"><ele>509.0</ele><time>2026-03-29T07:49:23.727Z</time></trkpt><trkpt lat="38.11897" lon="14.842565"><ele>508.99999999999994</ele><time>2026-03-29T07:49:25.728Z</time></trkpt><trkpt lat="38.1190267" lon="14.8425083"><ele>508.99999999999994</ele><time>2026-03-29T07:49:27.728Z</time></trkpt><trkpt lat="38.1190683" lon="14.8424433"><ele>503.99999999999994</ele><time>2026-03-29T07:49:29.728Z</time></trkpt><trkpt lat="38.1191467" lon="14.84241"><ele>499.0</ele><time>2026-03-29T07:49:32.728Z</time></trkpt><trkpt lat="38.1191517" lon="14.8424933"><ele>493.99999999999994</ele><time>2026-03-29T07:49:35.728Z</time></trkpt><trkpt lat="38.1191067" lon="14.8425817"><ele>488.99999999999994</ele><time>2026-03-29T07:49:38.727Z</time></trkpt><trkpt lat="38.1191717" lon="14.8426"><ele>484.0</ele><time>2026-03-29T07:49:44.727Z</time></trkpt><trkpt lat="38.1192067" lon="14.8425317"><ele>478.99999999999994</ele><time>2026-03-29T07:49:46.727Z</time></trkpt><trkpt lat="38.1192283" lon="14.842445"><ele>473.99999999999994</ele><time>2026-03-29T07:49:48.727Z</time></trkpt><trkpt lat="38.119225" lon="14.8423417"><ele>474.0</ele><time>2026-03-29T07:49:51.728Z</time></trkpt><trkpt lat="38.1192433" lon="14.8422467"><ele>474.0</ele><time>2026-03-29T07:49:55.728Z</time></trkpt><trkpt lat="38.1192767" lon="14.8421167"><ele>474.0</ele><time>2026-03-29T07:50:04.728Z</time></trkpt><trkpt lat="38.11929" lon="14.8420083"><ele>474.0</ele><time>2026-03-29T07:50:06.728Z</time></trkpt><trkpt lat="38.1193117" lon="14.84192"><ele>474.0</ele><time>2026-03-29T07:50:08.728Z</time></trkpt><trkpt lat="38.1193317" lon="14.8418033"><ele>474.0</ele><time>2026-03-29T07:50:11.727Z</time></trkpt><trkpt lat="38.119335" lon="14.8416933"><ele>473.6</ele><time>2026-03-29T07:50:13.728Z</time></trkpt><trkpt lat="38.1193267" lon="14.84152"><ele>473.2</ele><time>2026-03-29T07:50:15.727Z</time></trkpt><trkpt lat="38.119315" lon="14.841425"><ele>472.80000000000007</ele><time>2026-03-29T07:50:16.727Z</time></trkpt><trkpt lat="38.1193017" lon="14.8413433"><ele>472.40000000000003</ele><time>2026-03-29T07:50:17.727Z</time></trkpt><trkpt lat="38.11924" lon="14.8412567"><ele>472.0</ele><time>2026-03-29T07:50:19.728Z</time></trkpt><trkpt lat="38.1191617" lon="14.8411933"><ele>472.0</ele><time>2026-03-29T07:50:21.728Z</time></trkpt><trkpt lat="38.119085" lon="14.8410417"><ele>472.00000000000006</ele><time>2026-03-29T07:50:23.727Z</time></trkpt><trkpt lat="38.1190383" lon="14.8409367"><ele>472.00000000000006</ele><time>2026-03-29T07:50:24.727Z</time></trkpt><trkpt lat="38.118995" lon="14.8408383"><ele>472.0</ele><time>2026-03-29T07:50:25.727Z</time></trkpt><trkpt lat="38.1189567" lon="14.8407633"><ele>472.0</ele><time>2026-03-29T07:50:26.728Z</time></trkpt><trkpt lat="38.1189217" lon="14.84067"><ele>474.20000000000005</ele><time>2026-03-29T07:50:28.728Z</time></trkpt><trkpt lat="38.1188567" lon="14.8405267"><ele>476.40000000000003</ele><time>2026-03-29T07:50:56.728Z</time></trkpt><trkpt lat="38.1188033" lon="14.8404467"><ele>478.59999999999997</ele><time>2026-03-29T07:50:58.727Z</time></trkpt><trkpt lat="38.11883" lon="14.8405483"><ele>480.79999999999995</ele><time>2026-03-29T07:51:05.728Z</time></trkpt><trkpt lat="38.11887" lon="14.840645"><ele>483.0</ele><time>2026-03-29T07:51:07.727Z</time></trkpt><trkpt lat="38.118895" lon="14.8407767"><ele>483.0</ele><time>2026-03-29T07:51:09.727Z</time></trkpt><trkpt lat="38.1189333" lon="14.8408983"><ele>482.99999999999994</ele><time>2026-03-29T07:51:11.728Z</time></trkpt><trkpt lat="38.1189433" lon="14.840995"><ele>482.99999999999994</ele><time>2026-03-29T07:51:14.728Z</time></trkpt><trkpt lat="38.1189033" lon="14.841085"><ele>483.0</ele><time>2026-03-29T07:51:22.727Z</time></trkpt><trkpt lat="38.11877" lon="14.8411367"><ele>483.0</ele><time>2026-03-29T07:52:08.728Z</time></trkpt><trkpt lat="38.1187033" lon="14.84114"><ele>484.79999999999995</ele><time>2026-03-29T07:52:23.729Z</time></trkpt><trkpt lat="38.1186383" lon="14.84119"><ele>486.59999999999997</ele><time>2026-03-29T07:52:25.728Z</time></trkpt><trkpt lat="38.1185583" lon="14.8412267"><ele>488.40000000000003</ele><time>2026-03-29T07:52:27.729Z</time></trkpt><trkpt lat="38.118485" lon="14.8412783"><ele>490.20000000000005</ele><time>2026-03-29T07:52:29.729Z</time></trkpt><trkpt lat="38.1184117" lon="14.8413217"><ele>492.0</ele><time>2026-03-29T07:52:31.728Z</time></trkpt><trkpt lat="38.1182517" lon="14.8412883"><ele>496.1666666666667</ele><time>2026-03-29T07:52:41.729Z</time></trkpt><trkpt lat="38.1181733" lon="14.8412267"><ele>500.33333333333337</ele><time>2026-03-29T07:52:44.729Z</time></trkpt><trkpt lat="38.1181083" lon="14.8411717"><ele>504.5</ele><time>2026-03-29T07:52:46.728Z</time></trkpt><trkpt lat="38.11807" lon="14.8410633"><ele>508.6666666666667</ele><time>2026-03-29T07:52:48.728Z</time></trkpt><trkpt lat="38.1180367" lon="14.840985"><ele>512.8333333333334</ele><time>2026-03-29T07:52:50.729Z</time></trkpt><trkpt lat="38.117965" lon="14.8409933"><ele>517.0</ele><time>2026-03-29T07:52:53.729Z</time></trkpt><trkpt lat="38.1179133" lon="14.8410467"><ele>517.0</ele><time>2026-03-29T07:52:55.729Z</time></trkpt><trkpt lat="38.1178517" lon="14.8411367"><ele>517.0</ele><time>2026-03-29T07:52:57.729Z</time></trkpt><trkpt lat="38.11779" lon="14.8412717"><ele>517.0</ele><time>2026-03-29T07:52:59.729Z</time></trkpt><trkpt lat="38.1177767" lon="14.84135"><ele>517.0</ele><time>2026-03-29T07:53:00.729Z</time></trkpt><trkpt lat="38.11777" lon="14.84143"><ele>517.0</ele><time>2026-03-29T07:53:01.729Z</time></trkpt><trkpt lat="38.1177517" lon="14.8415117"><ele>517.0</ele><time>2026-03-29T07:53:03.729Z</time></trkpt><trkpt lat="38.1176833" lon="14.84148"><ele>517.0</ele><time>2026-03-29T07:53:14.729Z</time></trkpt><trkpt lat="38.117615" lon="14.8413733"><ele>517.0</ele><time>2026-03-29T07:53:16.728Z</time></trkpt><trkpt lat="38.117575" lon="14.8413083"><ele>517.0</ele><time>2026-03-29T07:53:17.729Z</time></trkpt><trkpt lat="38.11754" lon="14.8412333"><ele>517.0</ele><time>2026-03-29T07:53:18.729Z</time></trkpt><trkpt lat="38.1175033" lon="14.84116"><ele>517.0</ele><time>2026-03-29T07:53:19.729Z</time></trkpt><trkpt lat="38.11743" lon="14.8410383"><ele>517.0</ele><time>2026-03-29T07:53:21.729Z</time></trkpt><trkpt lat="38.1173817" lon="14.84097"><ele>523.2</ele><time>2026-03-29T07:53:22.729Z</time></trkpt><trkpt lat="38.1173383" lon="14.8409017"><ele>529.4000000000001</ele><time>2026-03-29T07:53:23.728Z</time></trkpt><trkpt lat="38.117265" lon="14.8407617"><ele>535.5999999999999</ele><time>2026-03-29T07:53:25.729Z</time></trkpt><trkpt lat="38.117225" lon="14.8406783"><ele>541.8</ele><time>2026-03-29T07:53:26.728Z</time></trkpt><trkpt lat="38.1171733" lon="14.8405983"><ele>548.0</ele><time>2026-03-29T07:53:27.728Z</time></trkpt><trkpt lat="38.11709" lon="14.8405133"><ele>548.0</ele><time>2026-03-29T07:53:29.729Z</time></trkpt><trkpt lat="38.1170233" lon="14.8405717"><ele>548.0</ele><time>2026-03-29T07:53:31.728Z</time></trkpt><trkpt lat="38.1170217" lon="14.8407283"><ele>548.0</ele><time>2026-03-29T07:53:33.729Z</time></trkpt><trkpt lat="38.1170233" lon="14.84085"><ele>548.0</ele><time>2026-03-29T07:53:35.729Z</time></trkpt><trkpt lat="38.1169483" lon="14.8408083"><ele>548.0</ele><time>2026-03-29T07:53:38.729Z</time></trkpt><trkpt lat="38.1168867" lon="14.8407067"><ele>548.0</ele><time>2026-03-29T07:53:40.729Z</time></trkpt><trkpt lat="38.116875" lon="14.840585"><ele>548.0</ele><time>2026-03-29T07:53:42.729Z</time></trkpt><trkpt lat="38.1169067" lon="14.84051"><ele>548.0</ele><time>2026-03-29T07:53:43.729Z</time></trkpt><trkpt lat="38.1169517" lon="14.84044"><ele>548.0</ele><time>2026-03-29T07:53:44.729Z</time></trkpt><trkpt lat="38.116985" lon="14.84027"><ele>548.0</ele><time>2026-03-29T07:53:46.728Z</time></trkpt><trkpt lat="38.1169733" lon="14.8401567"><ele>546.0</ele><time>2026-03-29T07:53:47.729Z</time></trkpt><trkpt lat="38.1169567" lon="14.84005"><ele>544.0</ele><time>2026-03-29T07:53:48.728Z</time></trkpt><trkpt lat="38.1169183" lon="14.8399667"><ele>542.0</ele><time>2026-03-29T07:53:49.729Z</time></trkpt><trkpt lat="38.1168483" lon="14.8398967"><ele>540.0</ele><time>2026-03-29T07:53:50.729Z</time></trkpt><trkpt lat="38.1167817" lon="14.8398317"><ele>538.0</ele><time>2026-03-29T07:53:51.728Z</time></trkpt><trkpt lat="38.1167133" lon="14.83978"><ele>536.0</ele><time>2026-03-29T07:53:52.729Z</time></trkpt><trkpt lat="38.1166417" lon="14.83973"><ele>538.0</ele><time>2026-03-29T07:53:53.728Z</time></trkpt><trkpt lat="38.1165517" lon="14.83968"><ele>540.0</ele><time>2026-03-29T07:53:54.729Z</time></trkpt><trkpt lat="38.11648" lon="14.839635"><ele>542.0</ele><time>2026-03-29T07:53:55.729Z</time></trkpt><trkpt lat="38.1164183" lon="14.8395967"><ele>544.0</ele><time>2026-03-29T07:53:56.729Z</time></trkpt><trkpt lat="38.1163567" lon="14.8395583"><ele>546.0</ele><time>2026-03-29T07:53:58.729Z</time></trkpt><trkpt lat="38.116334" lon="14.8396876"><ele>548.0</ele><time>2026-03-29T07:54:15.729Z</time></trkpt><trkpt lat="38.1163349" lon="14.8397683"><ele>548.0</ele><time>2026-03-29T07:54:16.729Z</time></trkpt><trkpt lat="38.1163382" lon="14.8398646"><ele>548.0</ele><time>2026-03-29T07:54:17.728Z</time></trkpt><trkpt lat="38.11635" lon="14.8399674"><ele>548.0</ele><time>2026-03-29T07:54:18.729Z</time></trkpt><trkpt lat="38.1163616" lon="14.8400839"><ele>548.0</ele><time>2026-03-29T07:54:19.729Z</time></trkpt><trkpt lat="38.1163594" lon="14.8402106"><ele>548.0</ele><time>2026-03-29T07:54:20.729Z</time></trkpt><trkpt lat="38.1163449" lon="14.8403394"><ele>551.6</ele><time>2026-03-29T07:54:21.728Z</time></trkpt><trkpt lat="38.1163204" lon="14.8404655"><ele>555.1999999999999</ele><time>2026-03-29T07:54:22.729Z</time></trkpt><trkpt lat="38.116294" lon="14.8405818"><ele>558.8</ele><time>2026-03-29T07:54:23.729Z</time></trkpt><trkpt lat="38.1162616" lon="14.840704"><ele>562.4</ele><time>2026-03-29T07:54:24.729Z</time></trkpt><trkpt lat="38.1162286" lon="14.8408266"><ele>566.0</ele><time>2026-03-29T07:54:25.728Z</time></trkpt><trkpt lat="38.1161901" lon="14.8409366"><ele>568.3333333333333</ele><time>2026-03-29T07:54:26.729Z</time></trkpt><trkpt lat="38.116147" lon="14.8410247"><ele>570.6666666666666</ele><time>2026-03-29T07:54:27.728Z</time></trkpt><trkpt lat="38.1161067" lon="14.841103"><ele>573.0</ele><time>2026-03-29T07:54:28.728Z</time></trkpt><trkpt lat="38.1160681" lon="14.8411787"><ele>575.3333333333334</ele><time>2026-03-29T07:54:29.729Z</time></trkpt><trkpt lat="38.1160355" lon="14.8412682"><ele>577.6666666666667</ele><time>2026-03-29T07:54:30.729Z</time></trkpt><trkpt lat="38.1160172" lon="14.8413776"><ele>580.0</ele><time>2026-03-29T07:54:31.729Z</time></trkpt><trkpt lat="38.1160127" lon="14.8415115"><ele>580.0</ele><time>2026-03-29T07:54:32.728Z</time></trkpt><trkpt lat="38.1160158" lon="14.8416478"><ele>580.0</ele><time>2026-03-29T07:54:33.729Z</time></trkpt><trkpt lat="38.1160285" lon="14.8417696"><ele>580.0</ele><time>2026-03-29T07:54:34.728Z</time></trkpt><trkpt lat="38.1160554" lon="14.8418691"><ele>580.0</ele><time>2026-03-29T07:54:35.729Z</time></trkpt><trkpt lat="38.116092" lon="14.841962"><ele>580.0</ele><time>2026-03-29T07:54:36.729Z</time></trkpt><trkpt lat="38.1161312" lon="14.8420467"><ele>580.0</ele><time>2026-03-29T07:54:37.729Z</time></trkpt><trkpt lat="38.1161548" lon="14.842131"><ele>582.3333333333334</ele><time>2026-03-29T07:54:38.729Z</time></trkpt><trkpt lat="38.1161644" lon="14.8422218"><ele>584.6666666666667</ele><time>2026-03-29T07:54:39.728Z</time></trkpt><trkpt lat="38.1161529" lon="14.8423194"><ele>587.0</ele><time>2026-03-29T07:54:40.729Z</time></trkpt><trkpt lat="38.1161272" lon="14.8424341"><ele>589.3333333333334</ele><time>2026-03-29T07:54:41.729Z</time></trkpt><trkpt lat="38.1160831" lon="14.8425498"><ele>591.6666666666666</ele><time>2026-03-29T07:54:42.729Z</time></trkpt><trkpt lat="38.1160237" lon="14.8426552"><ele>594.0</ele><time>2026-03-29T07:54:43.729Z</time></trkpt><trkpt lat="38.1159472" lon="14.842737"><ele>594.8333333333334</ele><time>2026-03-29T07:54:44.729Z</time></trkpt><trkpt lat="38.1158613" lon="14.8427912"><ele>595.6666666666666</ele><time>2026-03-29T07:54:45.729Z</time></trkpt><trkpt lat="38.1157746" lon="14.8428346"><ele>596.5</ele><time>2026-03-29T07:54:46.728Z</time></trkpt><trkpt lat="38.1157012" lon="14.8428667"><ele>597.3333333333333</ele><time>2026-03-29T07:54:47.729Z</time></trkpt><trkpt lat="38.115638" lon="14.8428899"><ele>598.1666666666666</ele><time>2026-03-29T07:54:48.729Z</time></trkpt><trkpt lat="38.1155475" lon="14.8429293"><ele>599.0</ele><time>2026-03-29T07:54:50.729Z</time></trkpt><trkpt lat="38.115481" lon="14.8429988"><ele>600.4</ele><time>2026-03-29T07:54:52.728Z</time></trkpt><trkpt lat="38.1154033" lon="14.8431245"><ele>601.8</ele><time>2026-03-29T07:54:54.728Z</time></trkpt><trkpt lat="38.1153601" lon="14.8432149"><ele>603.2</ele><time>2026-03-29T07:54:55.729Z</time></trkpt><trkpt lat="38.1153034" lon="14.843319"><ele>604.6</ele><time>2026-03-29T07:54:56.729Z</time></trkpt><trkpt lat="38.1152457" lon="14.8434403"><ele>606.0</ele><time>2026-03-29T07:54:57.729Z</time></trkpt><trkpt lat="38.1151857" lon="14.8435849"><ele>607.25</ele><time>2026-03-29T07:54:58.729Z</time></trkpt><trkpt lat="38.1151287" lon="14.8437327"><ele>608.5</ele><time>2026-03-29T07:54:59.729Z</time></trkpt><trkpt lat="38.1150734" lon="14.8438956"><ele>609.75</ele><time>2026-03-29T07:55:00.729Z</time></trkpt><trkpt lat="38.1150157" lon="14.8440658"><ele>611.0</ele><time>2026-03-29T07:55:01.729Z</time></trkpt><trkpt lat="38.1149629" lon="14.8442452"><ele>612.8</ele><time>2026-03-29T07:55:02.729Z</time></trkpt><trkpt lat="38.1149103" lon="14.8444037"><ele>614.6</ele><time>2026-03-29T07:55:03.729Z</time></trkpt><trkpt lat="38.1148571" lon="14.8445356"><ele>616.4</ele><time>2026-03-29T07:55:04.729Z</time></trkpt><trkpt lat="38.1147983" lon="14.8446266"><ele>618.2</ele><time>2026-03-29T07:55:05.729Z</time></trkpt><trkpt lat="38.1147346" lon="14.84469"><ele>620.0</ele><time>2026-03-29T07:55:06.728Z</time></trkpt><trkpt lat="38.1146804" lon="14.844732"><ele>623.4</ele><time>2026-03-29T07:55:07.729Z</time></trkpt><trkpt lat="38.1146339" lon="14.8448418"><ele>626.8</ele><time>2026-03-29T07:55:09.729Z</time></trkpt><trkpt lat="38.1146255" lon="14.8449859"><ele>630.2</ele><time>2026-03-29T07:55:11.729Z</time></trkpt><trkpt lat="38.1145454" lon="14.8451141"><ele>633.6</ele><time>2026-03-29T07:55:13.729Z</time></trkpt><trkpt lat="38.1144803" lon="14.8451973"><ele>637.0</ele><time>2026-03-29T07:55:14.729Z</time></trkpt><trkpt lat="38.1144181" lon="14.8452998"><ele>639.0</ele><time>2026-03-29T07:55:15.729Z</time></trkpt><trkpt lat="38.1143669" lon="14.8454255"><ele>641.0</ele><time>2026-03-29T07:55:16.729Z</time></trkpt><trkpt lat="38.1143225" lon="14.8455704"><ele>643.0</ele><time>2026-03-29T07:55:17.728Z</time></trkpt><trkpt lat="38.114283" lon="14.8456978"><ele>645.0</ele><time>2026-03-29T07:55:18.729Z</time></trkpt><trkpt lat="38.1142356" lon="14.8457851"><ele>647.0</ele><time>2026-03-29T07:55:19.729Z</time></trkpt><trkpt lat="38.1141823" lon="14.8458339"><ele>647.0</ele><time>2026-03-29T07:55:20.729Z</time></trkpt><trkpt lat="38.1141182" lon="14.8458615"><ele>647.0</ele><time>2026-03-29T07:55:21.729Z</time></trkpt><trkpt lat="38.1140418" lon="14.8458733"><ele>647.0</ele><time>2026-03-29T07:55:22.729Z</time></trkpt><trkpt lat="38.113949" lon="14.8458871"><ele>647.0</ele><time>2026-03-29T07:55:23.728Z</time></trkpt><trkpt lat="38.1138528" lon="14.8459208"><ele>647.0</ele><time>2026-03-29T07:55:24.729Z</time></trkpt><trkpt lat="38.1137707" lon="14.8459686"><ele>647.0</ele><time>2026-03-29T07:55:25.729Z</time></trkpt><trkpt lat="38.1137017" lon="14.8460343"><ele>650.8</ele><time>2026-03-29T07:55:26.728Z</time></trkpt><trkpt lat="38.1136504" lon="14.8461204"><ele>654.6</ele><time>2026-03-29T07:55:27.729Z</time></trkpt><trkpt lat="38.1136122" lon="14.8462183"><ele>658.4</ele><time>2026-03-29T07:55:28.729Z</time></trkpt><trkpt lat="38.1135772" lon="14.8463284"><ele>662.1999999999999</ele><time>2026-03-29T07:55:29.728Z</time></trkpt><trkpt lat="38.1135357" lon="14.8464439"><ele>666.0</ele><time>2026-03-29T07:55:30.729Z</time></trkpt><trkpt lat="38.1135065" lon="14.8465518"><ele>666.0</ele><time>2026-03-29T07:55:31.729Z</time></trkpt><trkpt lat="38.1134919" lon="14.8466637"><ele>666.0</ele><time>2026-03-29T07:55:32.729Z</time></trkpt><trkpt lat="38.1134882" lon="14.8467813"><ele>666.0</ele><time>2026-03-29T07:55:33.729Z</time></trkpt><trkpt lat="38.1134937" lon="14.8468901"><ele>666.0</ele><time>2026-03-29T07:55:34.729Z</time></trkpt><trkpt lat="38.1134875" lon="14.8470084"><ele>666.0</ele><time>2026-03-29T07:55:35.728Z</time></trkpt><trkpt lat="38.1134506" lon="14.8471375"><ele>669.6666666666666</ele><time>2026-03-29T07:55:36.729Z</time></trkpt><trkpt lat="38.1133929" lon="14.8472984"><ele>673.3333333333333</ele><time>2026-03-29T07:55:37.728Z</time></trkpt><trkpt lat="38.1133251" lon="14.8474713"><ele>677.0</ele><time>2026-03-29T07:55:38.729Z</time></trkpt><trkpt lat="38.1132587" lon="14.8476558"><ele>682.6666666666666</ele><time>2026-03-29T07:55:39.728Z</time></trkpt><trkpt lat="38.1131916" lon="14.847842"><ele>688.3333333333334</ele><time>2026-03-29T07:55:40.729Z</time></trkpt><trkpt lat="38.1131318" lon="14.8480262"><ele>694.0</ele><time>2026-03-29T07:55:41.728Z</time></trkpt><trkpt lat="38.1130813" lon="14.8481919"><ele>694.0</ele><time>2026-03-29T07:55:42.728Z</time></trkpt><trkpt lat="38.1130423" lon="14.848351"><ele>694.0</ele><time>2026-03-29T07:55:43.728Z</time></trkpt><trkpt lat="38.1130062" lon="14.8484864"><ele>694.0</ele><time>2026-03-29T07:55:44.729Z</time></trkpt><trkpt lat="38.1129831" lon="14.8486001"><ele>694.0</ele><time>2026-03-29T07:55:45.729Z</time></trkpt><trkpt lat="38.1129677" lon="14.8486925"><ele>694.0</ele><time>2026-03-29T07:55:46.728Z</time></trkpt><trkpt lat="38.112921" lon="14.8488129"><ele>696.6666666666667</ele><time>2026-03-29T07:55:48.729Z</time></trkpt><trkpt lat="38.1128706" lon="14.8488997"><ele>699.3333333333334</ele><time>2026-03-29T07:55:50.728Z</time></trkpt><trkpt lat="38.11285" lon="14.8489767"><ele>702.0</ele><time>2026-03-29T07:56:05.729Z</time></trkpt><trkpt lat="38.1128233" lon="14.849115"><ele>704.6666666666666</ele><time>2026-03-29T07:56:07.729Z</time></trkpt><trkpt lat="38.112805" lon="14.849245"><ele>707.3333333333333</ele><time>2026-03-29T07:56:09.729Z</time></trkpt><trkpt lat="38.1127817" lon="14.84933"><ele>710.0</ele><time>2026-03-29T07:56:11.729Z</time></trkpt><trkpt lat="38.1127483" lon="14.8494267"><ele>711.6</ele><time>2026-03-29T07:56:13.729Z</time></trkpt><trkpt lat="38.1127283" lon="14.8495433"><ele>713.2</ele><time>2026-03-29T07:56:15.729Z</time></trkpt><trkpt lat="38.11268" lon="14.8497117"><ele>714.8</ele><time>2026-03-29T08:09:24.732Z</time></trkpt><trkpt lat="38.1126517" lon="14.8498333"><ele>716.4</ele><time>2026-03-29T08:09:26.732Z</time></trkpt><trkpt lat="38.1126167" lon="14.8499517"><ele>718.0</ele><time>2026-03-29T08:09:28.731Z</time></trkpt><trkpt lat="38.1125783" lon="14.850065"><ele>720.0</ele><time>2026-03-29T08:09:30.731Z</time></trkpt><trkpt lat="38.11254" lon="14.8501667"><ele>722.0</ele><time>2026-03-29T08:09:32.731Z</time></trkpt><trkpt lat="38.1125117" lon="14.8502983"><ele>724.0</ele><time>2026-03-29T08:09:34.731Z</time></trkpt><trkpt lat="38.11252" lon="14.85047"><ele>726.0</ele><time>2026-03-29T08:09:36.732Z</time></trkpt><trkpt lat="38.112525" lon="14.8505783"><ele>728.0</ele><time>2026-03-29T08:09:37.731Z</time></trkpt><trkpt lat="38.1125333" lon="14.8506883"><ele>728.0</ele><time>2026-03-29T08:09:38.731Z</time></trkpt><trkpt lat="38.1125367" lon="14.8507883"><ele>728.0</ele><time>2026-03-29T08:09:39.732Z</time></trkpt><trkpt lat="38.1125433" lon="14.85088"><ele>728.0</ele><time>2026-03-29T08:09:40.732Z</time></trkpt><trkpt lat="38.112545" lon="14.8509767"><ele>728.0</ele><time>2026-03-29T08:09:41.731Z</time></trkpt><trkpt lat="38.1125217" lon="14.8510617"><ele>728.0</ele><time>2026-03-29T08:09:42.731Z</time></trkpt><trkpt lat="38.1124867" lon="14.8511383"><ele>728.0</ele><time>2026-03-29T08:09:43.732Z</time></trkpt><trkpt lat="38.112465" lon="14.851275"><ele>729.0</ele><time>2026-03-29T08:09:45.732Z</time></trkpt><trkpt lat="38.1124667" lon="14.8513633"><ele>730.0</ele><time>2026-03-29T08:09:46.732Z</time></trkpt><trkpt lat="38.11248" lon="14.85146"><ele>731.0</ele><time>2026-03-29T08:09:47.732Z</time></trkpt><trkpt lat="38.1124967" lon="14.8515833"><ele>732.0</ele><time>2026-03-29T08:09:49.732Z</time></trkpt><trkpt lat="38.1124783" lon="14.851695"><ele>733.0</ele><time>2026-03-29T08:09:51.732Z</time></trkpt><trkpt lat="38.1124767" lon="14.8517983"><ele>734.0</ele><time>2026-03-29T08:09:53.732Z</time></trkpt><trkpt lat="38.1124817" lon="14.8517183"><ele>734.0</ele><time>2026-03-29T08:10:00.732Z</time></trkpt><trkpt lat="38.1124967" lon="14.851625"><ele>734.0</ele><time>2026-03-29T08:10:02.732Z</time></trkpt><trkpt lat="38.112505" lon="14.85152"><ele>734.0</ele><time>2026-03-29T08:10:04.732Z</time></trkpt><trkpt lat="38.1125033" lon="14.8514233"><ele>734.0</ele><time>2026-03-29T08:10:06.732Z</time></trkpt><trkpt lat="38.1124867" lon="14.8513417"><ele>734.0</ele><time>2026-03-29T08:10:08.732Z</time></trkpt><trkpt lat="38.1124733" lon="14.851255"><ele>734.0</ele><time>2026-03-29T08:10:10.731Z</time></trkpt><trkpt lat="38.1124733" lon="14.8511733"><ele>734.0</ele><time>2026-03-29T08:10:13.732Z</time></trkpt><trkpt lat="38.1125017" lon="14.85107"><ele>734.0</ele><time>2026-03-29T08:10:25.732Z</time></trkpt><trkpt lat="38.1125417" lon="14.8510017"><ele>734.0</ele><time>2026-03-29T08:10:28.731Z</time></trkpt><trkpt lat="38.1125683" lon="14.8508733"><ele>734.0</ele><time>2026-03-29T08:10:31.732Z</time></trkpt><trkpt lat="38.11256" lon="14.8507367"><ele>734.0</ele><time>2026-03-29T08:10:33.732Z</time></trkpt><trkpt lat="38.1125417" lon="14.8506583"><ele>734.0</ele><time>2026-03-29T08:10:35.731Z</time></trkpt><trkpt lat="38.1125483" lon="14.8507867"><ele>734.0</ele><time>2026-03-29T08:10:43.731Z</time></trkpt><trkpt lat="38.1125533" lon="14.8508983"><ele>734.0</ele><time>2026-03-29T08:10:45.732Z</time></trkpt><trkpt lat="38.1125467" lon="14.851005"><ele>734.0</ele><time>2026-03-29T08:10:47.732Z</time></trkpt><trkpt lat="38.11251" lon="14.851095"><ele>734.0</ele><time>2026-03-29T08:10:49.731Z</time></trkpt><trkpt lat="38.112445" lon="14.8511667"><ele>734.0</ele><time>2026-03-29T08:10:51.732Z</time></trkpt><trkpt lat="38.1123967" lon="14.85124"><ele>734.0</ele><time>2026-03-29T08:11:36.732Z</time></trkpt><trkpt lat="38.11233" lon="14.85122"><ele>734.0</ele><time>2026-03-29T08:11:38.732Z</time></trkpt><trkpt lat="38.112265" lon="14.851255"><ele>736.6666666666666</ele><time>2026-03-29T08:11:45.731Z</time></trkpt><trkpt lat="38.1122783" lon="14.851335"><ele>739.3333333333333</ele><time>2026-03-29T08:11:52.732Z</time></trkpt><trkpt lat="38.1122917" lon="14.851485"><ele>742.0</ele><time>2026-03-29T08:12:07.732Z</time></trkpt><trkpt lat="38.112305" lon="14.8515783"><ele>744.6666666666666</ele><time>2026-03-29T08:12:10.732Z</time></trkpt><trkpt lat="38.1123183" lon="14.8514983"><ele>747.3333333333334</ele><time>2026-03-29T08:13:25.733Z</time></trkpt><trkpt lat="38.1122883" lon="14.85136"><ele>750.0</ele><time>2026-03-29T08:13:36.733Z</time></trkpt><trkpt lat="38.1122567" lon="14.8512567"><ele>750.0</ele><time>2026-03-29T08:13:40.732Z</time></trkpt><trkpt lat="38.1121983" lon="14.85119"><ele>750.0</ele><time>2026-03-29T08:13:44.732Z</time></trkpt><trkpt lat="38.1121567" lon="14.8510967"><ele>750.0</ele><time>2026-03-29T08:13:47.733Z</time></trkpt><trkpt lat="38.1120933" lon="14.85102"><ele>750.0</ele><time>2026-03-29T08:13:50.733Z</time></trkpt><trkpt lat="38.1120333" lon="14.85096"><ele>750.0</ele><time>2026-03-29T08:13:53.732Z</time></trkpt><trkpt lat="38.1120083" lon="14.85087"><ele>750.0</ele><time>2026-03-29T08:13:59.733Z</time></trkpt><trkpt lat="38.1119517" lon="14.8507533"><ele>748.5</ele><time>2026-03-29T08:14:10.732Z</time></trkpt><trkpt lat="38.1118983" lon="14.8506433"><ele>747.0</ele><time>2026-03-29T08:14:19.732Z</time></trkpt><trkpt lat="38.1118717" lon="14.8505583"><ele>745.5</ele><time>2026-03-29T08:14:31.733Z</time></trkpt><trkpt lat="38.1118517" lon="14.85046"><ele>744.0</ele><time>2026-03-29T08:14:45.733Z</time></trkpt><trkpt lat="38.1117617" lon="14.850435"><ele>742.5</ele><time>2026-03-29T08:14:47.732Z</time></trkpt><trkpt lat="38.1116983" lon="14.8504333"><ele>741.0</ele><time>2026-03-29T08:14:49.733Z</time></trkpt><trkpt lat="38.1116333" lon="14.8504117"><ele>739.8</ele><time>2026-03-29T08:14:51.732Z</time></trkpt><trkpt lat="38.1115617" lon="14.85039"><ele>738.5999999999999</ele><time>2026-03-29T08:14:53.733Z</time></trkpt><trkpt lat="38.111475" lon="14.8503733"><ele>737.4</ele><time>2026-03-29T08:14:55.732Z</time></trkpt><trkpt lat="38.1114" lon="14.850375"><ele>736.2</ele><time>2026-03-29T08:14:57.732Z</time></trkpt><trkpt lat="38.11131" lon="14.8504533"><ele>735.0</ele><time>2026-03-29T08:15:00.733Z</time></trkpt><trkpt lat="38.11124" lon="14.8505817"><ele>735.0</ele><time>2026-03-29T08:15:02.733Z</time></trkpt><trkpt lat="38.111195" lon="14.8506717"><ele>735.0</ele><time>2026-03-29T08:15:03.733Z</time></trkpt><trkpt lat="38.111145" lon="14.850775"><ele>735.0</ele><time>2026-03-29T08:15:04.733Z</time></trkpt><trkpt lat="38.1110967" lon="14.85089"><ele>735.0</ele><time>2026-03-29T08:15:05.732Z</time></trkpt><trkpt lat="38.1110567" lon="14.8509783"><ele>735.0</ele><time>2026-03-29T08:15:06.732Z</time></trkpt><trkpt lat="38.111005" lon="14.8510633"><ele>735.0</ele><time>2026-03-29T08:15:08.733Z</time></trkpt><trkpt lat="38.1109783" lon="14.85117"><ele>737.8</ele><time>2026-03-29T08:15:10.733Z</time></trkpt><trkpt lat="38.110965" lon="14.8513233"><ele>740.6</ele><time>2026-03-29T08:15:12.732Z</time></trkpt><trkpt lat="38.11094" lon="14.85147"><ele>743.4000000000001</ele><time>2026-03-29T08:15:14.733Z</time></trkpt><trkpt lat="38.1109333" lon="14.8515583"><ele>746.2</ele><time>2026-03-29T08:15:16.733Z</time></trkpt><trkpt lat="38.1109167" lon="14.8516583"><ele>749.0</ele><time>2026-03-29T08:15:18.733Z</time></trkpt><trkpt lat="38.1109133" lon="14.8518183"><ele>747.4000000000001</ele><time>2026-03-29T08:15:20.733Z</time></trkpt><trkpt lat="38.1109" lon="14.8519117"><ele>745.8</ele><time>2026-03-29T08:15:21.733Z</time></trkpt><trkpt lat="38.1108683" lon="14.8520067"><ele>744.2</ele><time>2026-03-29T08:15:22.732Z</time></trkpt><trkpt lat="38.1108217" lon="14.8521"><ele>742.5999999999999</ele><time>2026-03-29T08:15:23.733Z</time></trkpt><trkpt lat="38.1107467" lon="14.8522083"><ele>741.0</ele><time>2026-03-29T08:15:24.733Z</time></trkpt><trkpt lat="38.1106833" lon="14.8523083"><ele>741.0</ele><time>2026-03-29T08:15:25.732Z</time></trkpt><trkpt lat="38.110635" lon="14.8523917"><ele>741.0</ele><time>2026-03-29T08:15:26.733Z</time></trkpt><trkpt lat="38.1105967" lon="14.8524667"><ele>741.0</ele><time>2026-03-29T08:15:27.733Z</time></trkpt><trkpt lat="38.1105867" lon="14.852565"><ele>741.0</ele><time>2026-03-29T08:15:29.733Z</time></trkpt><trkpt lat="38.1106483" lon="14.8526083"><ele>741.0</ele><time>2026-03-29T08:15:31.733Z</time></trkpt><trkpt lat="38.1107617" lon="14.852575"><ele>741.0</ele><time>2026-03-29T08:15:33.733Z</time></trkpt><trkpt lat="38.1108283" lon="14.8525633"><ele>743.8333333333334</ele><time>2026-03-29T08:15:34.733Z</time></trkpt><trkpt lat="38.11093" lon="14.8525667"><ele>746.6666666666666</ele><time>2026-03-29T08:15:36.733Z</time></trkpt><trkpt lat="38.1109217" lon="14.852655"><ele>749.5</ele><time>2026-03-29T08:15:38.733Z</time></trkpt><trkpt lat="38.1108817" lon="14.8527417"><ele>752.3333333333333</ele><time>2026-03-29T08:15:39.732Z</time></trkpt><trkpt lat="38.110845" lon="14.8528417"><ele>755.1666666666666</ele><time>2026-03-29T08:15:40.733Z</time></trkpt><trkpt lat="38.1108083" lon="14.8529467"><ele>758.0</ele><time>2026-03-29T08:15:41.732Z</time></trkpt><trkpt lat="38.1107767" lon="14.853065"><ele>760.2</ele><time>2026-03-29T08:15:42.733Z</time></trkpt><trkpt lat="38.1107583" lon="14.8531733"><ele>762.4</ele><time>2026-03-29T08:15:43.732Z</time></trkpt><trkpt lat="38.1107583" lon="14.8532733"><ele>764.6</ele><time>2026-03-29T08:15:44.732Z</time></trkpt><trkpt lat="38.1107717" lon="14.853355"><ele>766.8000000000001</ele><time>2026-03-29T08:15:45.733Z</time></trkpt><trkpt lat="38.1107883" lon="14.8534917"><ele>769.0</ele><time>2026-03-29T08:15:47.732Z</time></trkpt><trkpt lat="38.1108067" lon="14.85365"><ele>769.1666666666666</ele><time>2026-03-29T08:15:49.733Z</time></trkpt><trkpt lat="38.110805" lon="14.8537367"><ele>769.3333333333333</ele><time>2026-03-29T08:15:50.733Z</time></trkpt><trkpt lat="38.1107467" lon="14.853805"><ele>769.5</ele><time>2026-03-29T08:15:53.733Z</time></trkpt><trkpt lat="38.11069" lon="14.8538983"><ele>769.6666666666667</ele><time>2026-03-29T08:15:56.732Z</time></trkpt><trkpt lat="38.1106417" lon="14.8540367"><ele>769.8333333333334</ele><time>2026-03-29T08:15:58.733Z</time></trkpt><trkpt lat="38.1106017" lon="14.854115"><ele>770.0</ele><time>2026-03-29T08:15:59.733Z</time></trkpt><trkpt lat="38.11055" lon="14.8542"><ele>771.4</ele><time>2026-03-29T08:16:00.732Z</time></trkpt><trkpt lat="38.11049" lon="14.85429"><ele>772.8</ele><time>2026-03-29T08:16:01.732Z</time></trkpt><trkpt lat="38.11042" lon="14.85438"><ele>774.2</ele><time>2026-03-29T08:16:02.733Z</time></trkpt><trkpt lat="38.110335" lon="14.854465"><ele>775.6</ele><time>2026-03-29T08:16:03.733Z</time></trkpt><trkpt lat="38.1102617" lon="14.8545517"><ele>777.0</ele><time>2026-03-29T08:16:04.732Z</time></trkpt><trkpt lat="38.110195" lon="14.8546267"><ele>777.0</ele><time>2026-03-29T08:16:05.733Z</time></trkpt><trkpt lat="38.1101433" lon="14.8547067"><ele>777.0</ele><time>2026-03-29T08:16:06.733Z</time></trkpt><trkpt lat="38.1101183" lon="14.8548033"><ele>777.0</ele><time>2026-03-29T08:16:07.733Z</time></trkpt><trkpt lat="38.1101033" lon="14.8549183"><ele>777.0</ele><time>2026-03-29T08:16:08.733Z</time></trkpt><trkpt lat="38.110085" lon="14.8550167"><ele>777.0</ele><time>2026-03-29T08:16:09.733Z</time></trkpt><trkpt lat="38.1100433" lon="14.8551083"><ele>777.0</ele><time>2026-03-29T08:16:10.733Z</time></trkpt><trkpt lat="38.1099817" lon="14.8551817"><ele>778.0</ele><time>2026-03-29T08:16:11.732Z</time></trkpt><trkpt lat="38.10991" lon="14.8552467"><ele>779.0</ele><time>2026-03-29T08:16:12.733Z</time></trkpt><trkpt lat="38.10983" lon="14.8553067"><ele>780.0</ele><time>2026-03-29T08:16:13.733Z</time></trkpt><trkpt lat="38.1097633" lon="14.8553617"><ele>781.0</ele><time>2026-03-29T08:16:14.732Z</time></trkpt><trkpt lat="38.109695" lon="14.8554783"><ele>782.0</ele><time>2026-03-29T08:16:16.733Z</time></trkpt><trkpt lat="38.1096383" lon="14.8556267"><ele>782.8</ele><time>2026-03-29T08:16:18.733Z</time></trkpt><trkpt lat="38.109595" lon="14.8557117"><ele>783.6</ele><time>2026-03-29T08:16:19.732Z</time></trkpt><trkpt lat="38.1095417" lon="14.8558083"><ele>784.4</ele><time>2026-03-29T08:16:20.733Z</time></trkpt><trkpt lat="38.1094867" lon="14.8559117"><ele>785.1999999999999</ele><time>2026-03-29T08:16:21.732Z</time></trkpt><trkpt lat="38.109405" lon="14.8560333"><ele>786.0</ele><time>2026-03-29T08:16:22.733Z</time></trkpt><trkpt lat="38.1093417" lon="14.8561333"><ele>787.1999999999999</ele><time>2026-03-29T08:16:23.733Z</time></trkpt><trkpt lat="38.1092917" lon="14.8562117"><ele>788.4</ele><time>2026-03-29T08:16:24.732Z</time></trkpt><trkpt lat="38.1092483" lon="14.85627"><ele>789.6</ele><time>2026-03-29T08:16:25.732Z</time></trkpt><trkpt lat="38.1092" lon="14.8563867"><ele>790.8</ele><time>2026-03-29T08:16:27.732Z</time></trkpt><trkpt lat="38.1091483" lon="14.8564983"><ele>792.0</ele><time>2026-03-29T08:16:29.733Z</time></trkpt><trkpt lat="38.1090767" lon="14.8565967"><ele>792.2</ele><time>2026-03-29T08:16:31.733Z</time></trkpt><trkpt lat="38.1090233" lon="14.8566483"><ele>792.4000000000001</ele><time>2026-03-29T08:16:32.733Z</time></trkpt><trkpt lat="38.108965" lon="14.8567167"><ele>792.5999999999999</ele><time>2026-03-29T08:16:33.733Z</time></trkpt><trkpt lat="38.1089033" lon="14.8568"><ele>792.8</ele><time>2026-03-29T08:16:34.732Z</time></trkpt><trkpt lat="38.1088333" lon="14.8569017"><ele>793.0</ele><time>2026-03-29T08:16:35.733Z</time></trkpt><trkpt lat="38.1087617" lon="14.8570133"><ele>794.6666666666666</ele><time>2026-03-29T08:16:36.733Z</time></trkpt><trkpt lat="38.108695" lon="14.857105"><ele>796.3333333333333</ele><time>2026-03-29T08:16:37.732Z</time></trkpt><trkpt lat="38.1086417" lon="14.8571733"><ele>798.0</ele><time>2026-03-29T08:16:38.733Z</time></trkpt><trkpt lat="38.1085883" lon="14.857265"><ele>799.6666666666667</ele><time>2026-03-29T08:16:40.733Z</time></trkpt><trkpt lat="38.1085783" lon="14.8573467"><ele>801.3333333333334</ele><time>2026-03-29T08:16:42.732Z</time></trkpt><trkpt lat="38.1084883" lon="14.8573817"><ele>803.0</ele><time>2026-03-29T08:16:45.732Z</time></trkpt><trkpt lat="38.1083617" lon="14.857365"><ele>803.0</ele><time>2026-03-29T08:16:47.733Z</time></trkpt><trkpt lat="38.1082733" lon="14.8573567"><ele>803.0</ele><time>2026-03-29T08:16:48.733Z</time></trkpt><trkpt lat="38.1081783" lon="14.8573617"><ele>803.0</ele><time>2026-03-29T08:16:49.732Z</time></trkpt><trkpt lat="38.1080767" lon="14.8573817"><ele>803.0</ele><time>2026-03-29T08:16:50.733Z</time></trkpt><trkpt lat="38.1079767" lon="14.8574167"><ele>803.0</ele><time>2026-03-29T08:16:51.732Z</time></trkpt><trkpt lat="38.107885" lon="14.8574583"><ele>803.5999999999999</ele><time>2026-03-29T08:16:52.733Z</time></trkpt><trkpt lat="38.1077917" lon="14.857495"><ele>804.1999999999999</ele><time>2026-03-29T08:16:53.733Z</time></trkpt><trkpt lat="38.1076967" lon="14.8575283"><ele>804.8</ele><time>2026-03-29T08:16:54.733Z</time></trkpt><trkpt lat="38.1076067" lon="14.8575417"><ele>805.4</ele><time>2026-03-29T08:16:55.732Z</time></trkpt><trkpt lat="38.1075333" lon="14.8575583"><ele>806.0</ele><time>2026-03-29T08:16:56.733Z</time></trkpt><trkpt lat="38.1074367" lon="14.8576383"><ele>806.5000000000001</ele><time>2026-03-29T08:16:58.733Z</time></trkpt><trkpt lat="38.1074067" lon="14.85771"><ele>807.0</ele><time>2026-03-29T08:16:59.732Z</time></trkpt><trkpt lat="38.10736" lon="14.857775"><ele>807.5</ele><time>2026-03-29T08:17:00.733Z</time></trkpt><trkpt lat="38.1072817" lon="14.8578183"><ele>808.0</ele><time>2026-03-29T08:17:01.732Z</time></trkpt><trkpt lat="38.10718" lon="14.8578633"><ele>808.5000000000001</ele><time>2026-03-29T08:17:02.732Z</time></trkpt><trkpt lat="38.1070717" lon="14.8579367"><ele>809.0</ele><time>2026-03-29T08:17:03.733Z</time></trkpt><trkpt lat="38.1069817" lon="14.8580283"><ele>809.0</ele><time>2026-03-29T08:17:04.733Z</time></trkpt><trkpt lat="38.1068967" lon="14.8581283"><ele>809.0</ele><time>2026-03-29T08:17:05.733Z</time></trkpt><trkpt lat="38.1068217" lon="14.85822"><ele>809.0</ele><time>2026-03-29T08:17:06.732Z</time></trkpt><trkpt lat="38.1067467" lon="14.8583117"><ele>809.0</ele><time>2026-03-29T08:17:07.733Z</time></trkpt><trkpt lat="38.10666" lon="14.8584067"><ele>809.0</ele><time>2026-03-29T08:17:08.733Z</time></trkpt><trkpt lat="38.1065617" lon="14.8585183"><ele>810.6</ele><time>2026-03-29T08:17:09.733Z</time></trkpt><trkpt lat="38.1064733" lon="14.8586183"><ele>812.2</ele><time>2026-03-29T08:17:10.733Z</time></trkpt><trkpt lat="38.1063967" lon="14.8587033"><ele>813.8000000000001</ele><time>2026-03-29T08:17:11.733Z</time></trkpt><trkpt lat="38.1063367" lon="14.85878"><ele>815.4000000000001</ele><time>2026-03-29T08:17:12.733Z</time></trkpt><trkpt lat="38.1062833" lon="14.8588533"><ele>817.0</ele><time>2026-03-29T08:17:13.733Z</time></trkpt><trkpt lat="38.106225" lon="14.8589517"><ele>817.0</ele><time>2026-03-29T08:17:14.732Z</time></trkpt><trkpt lat="38.1061683" lon="14.8590617"><ele>817.0</ele><time>2026-03-29T08:17:15.733Z</time></trkpt><trkpt lat="38.1061067" lon="14.8591833"><ele>817.0</ele><time>2026-03-29T08:17:16.733Z</time></trkpt><trkpt lat="38.10605" lon="14.85929"><ele>817.0</ele><time>2026-03-29T08:17:17.733Z</time></trkpt><trkpt lat="38.1059867" lon="14.8593867"><ele>817.0</ele><time>2026-03-29T08:17:18.733Z</time></trkpt><trkpt lat="38.1059317" lon="14.8595083"><ele>817.0</ele><time>2026-03-29T08:17:19.732Z</time></trkpt><trkpt lat="38.1058783" lon="14.8596383"><ele>817.0</ele><time>2026-03-29T08:17:20.733Z</time></trkpt><trkpt lat="38.1058167" lon="14.8597833"><ele>817.0</ele><time>2026-03-29T08:17:21.732Z</time></trkpt><trkpt lat="38.1057467" lon="14.8599383"><ele>817.0</ele><time>2026-03-29T08:17:22.732Z</time></trkpt><trkpt lat="38.1056733" lon="14.8600917"><ele>818.4000000000001</ele><time>2026-03-29T08:17:23.733Z</time></trkpt><trkpt lat="38.1056183" lon="14.8602267"><ele>819.8000000000001</ele><time>2026-03-29T08:17:24.732Z</time></trkpt><trkpt lat="38.10557" lon="14.8603467"><ele>821.2</ele><time>2026-03-29T08:17:25.732Z</time></trkpt><trkpt lat="38.1055367" lon="14.8604433"><ele>822.6</ele><time>2026-03-29T08:17:26.733Z</time></trkpt><trkpt lat="38.1055067" lon="14.860525"><ele>824.0</ele><time>2026-03-29T08:17:27.733Z</time></trkpt><trkpt lat="38.1054667" lon="14.8606583"><ele>824.0</ele><time>2026-03-29T08:17:29.732Z</time></trkpt><trkpt lat="38.1054233" lon="14.8607883"><ele>824.0</ele><time>2026-03-29T08:17:31.732Z</time></trkpt><trkpt lat="38.1054017" lon="14.8608717"><ele>824.0</ele><time>2026-03-29T08:17:32.732Z</time></trkpt><trkpt lat="38.10538" lon="14.8609667"><ele>824.0</ele><time>2026-03-29T08:17:33.733Z</time></trkpt><trkpt lat="38.1053567" lon="14.8610783"><ele>824.0</ele><time>2026-03-29T08:17:34.733Z</time></trkpt><trkpt lat="38.105325" lon="14.8612033"><ele>825.0</ele><time>2026-03-29T08:17:35.732Z</time></trkpt><trkpt lat="38.1053083" lon="14.8613183"><ele>826.0</ele><time>2026-03-29T08:17:36.733Z</time></trkpt><trkpt lat="38.1052667" lon="14.86144"><ele>827.0</ele><time>2026-03-29T08:17:37.733Z</time></trkpt><trkpt lat="38.1052033" lon="14.86155"><ele>828.0</ele><time>2026-03-29T08:17:38.733Z</time></trkpt><trkpt lat="38.1051217" lon="14.861645"><ele>829.0</ele><time>2026-03-29T08:17:39.733Z</time></trkpt><trkpt lat="38.105015" lon="14.8617567"><ele>829.0</ele><time>2026-03-29T08:17:40.733Z</time></trkpt><trkpt lat="38.10492" lon="14.8618817"><ele>829.0</ele><time>2026-03-29T08:17:41.732Z</time></trkpt><trkpt lat="38.1048217" lon="14.8619983"><ele>829.0</ele><time>2026-03-29T08:17:42.733Z</time></trkpt><trkpt lat="38.1047233" lon="14.8621117"><ele>829.0</ele><time>2026-03-29T08:17:43.733Z</time></trkpt><trkpt lat="38.104625" lon="14.862205"><ele>829.8000000000001</ele><time>2026-03-29T08:17:44.732Z</time></trkpt><trkpt lat="38.1045383" lon="14.8622867"><ele>830.6</ele><time>2026-03-29T08:17:45.733Z</time></trkpt><trkpt lat="38.1044567" lon="14.8623617"><ele>831.4</ele><time>2026-03-29T08:17:46.733Z</time></trkpt><trkpt lat="38.1043667" lon="14.86245"><ele>832.2</ele><time>2026-03-29T08:17:47.732Z</time></trkpt><trkpt lat="38.1042967" lon="14.86255"><ele>833.0</ele><time>2026-03-29T08:17:48.733Z</time></trkpt><trkpt lat="38.1042367" lon="14.8626617"><ele>833.0</ele><time>2026-03-29T08:17:49.732Z</time></trkpt><trkpt lat="38.104175" lon="14.862775"><ele>833.0</ele><time>2026-03-29T08:17:50.732Z</time></trkpt><trkpt lat="38.10411" lon="14.862885"><ele>833.0</ele><time>2026-03-29T08:17:51.732Z</time></trkpt><trkpt lat="38.1040517" lon="14.8629833"><ele>833.0</ele><time>2026-03-29T08:17:52.732Z</time></trkpt><trkpt lat="38.1040017" lon="14.8630717"><ele>833.0</ele><time>2026-03-29T08:17:53.733Z</time></trkpt><trkpt lat="38.1039617" lon="14.86315"><ele>833.8</ele><time>2026-03-29T08:17:54.733Z</time></trkpt><trkpt lat="38.10393" lon="14.8632733"><ele>834.5999999999999</ele><time>2026-03-29T08:17:56.733Z</time></trkpt><trkpt lat="38.10397" lon="14.8633733"><ele>835.4000000000001</ele><time>2026-03-29T08:17:58.732Z</time></trkpt><trkpt lat="38.104015" lon="14.8634367"><ele>836.2</ele><time>2026-03-29T08:17:59.733Z</time></trkpt><trkpt lat="38.1040667" lon="14.863575"><ele>837.0</ele><time>2026-03-29T08:18:01.733Z</time></trkpt><trkpt lat="38.104055" lon="14.8636817"><ele>837.2</ele><time>2026-03-29T08:18:03.733Z</time></trkpt><trkpt lat="38.104005" lon="14.8637733"><ele>837.4000000000001</ele><time>2026-03-29T08:18:05.733Z</time></trkpt><trkpt lat="38.1038867" lon="14.8638617"><ele>837.5999999999999</ele><time>2026-03-29T08:18:07.733Z</time></trkpt><trkpt lat="38.1038" lon="14.8639167"><ele>837.8</ele><time>2026-03-29T08:18:08.733Z</time></trkpt><trkpt lat="38.1036917" lon="14.8639917"><ele>838.0</ele><time>2026-03-29T08:18:09.733Z</time></trkpt><trkpt lat="38.1035667" lon="14.86408"><ele>838.0</ele><time>2026-03-29T08:18:10.733Z</time></trkpt><trkpt lat="38.1034317" lon="14.86419"><ele>838.0</ele><time>2026-03-29T08:18:11.734Z</time></trkpt><trkpt lat="38.103295" lon="14.8642933"><ele>838.0</ele><time>2026-03-29T08:18:12.734Z</time></trkpt><trkpt lat="38.1031717" lon="14.864405"><ele>838.0</ele><time>2026-03-29T08:18:13.734Z</time></trkpt><trkpt lat="38.103065" lon="14.8644983"><ele>838.0</ele><time>2026-03-29T08:18:14.733Z</time></trkpt><trkpt lat="38.1029733" lon="14.86458"><ele>838.0</ele><time>2026-03-29T08:18:15.734Z</time></trkpt><trkpt lat="38.1028917" lon="14.864655"><ele>838.0</ele><time>2026-03-29T08:18:16.734Z</time></trkpt><trkpt lat="38.1028183" lon="14.8647233"><ele>838.0</ele><time>2026-03-29T08:18:17.733Z</time></trkpt><trkpt lat="38.1027517" lon="14.8647867"><ele>838.0</ele><time>2026-03-29T08:18:18.734Z</time></trkpt><trkpt lat="38.1026933" lon="14.8648433"><ele>838.0</ele><time>2026-03-29T08:18:19.734Z</time></trkpt><trkpt lat="38.1026017" lon="14.8649317"><ele>838.0</ele><time>2026-03-29T08:18:21.734Z</time></trkpt><trkpt lat="38.1025333" lon="14.8650217"><ele>838.0</ele><time>2026-03-29T08:18:23.734Z</time></trkpt><trkpt lat="38.1024683" lon="14.86512"><ele>838.0</ele><time>2026-03-29T08:18:25.734Z</time></trkpt><trkpt lat="38.1023967" lon="14.865215"><ele>837.8</ele><time>2026-03-29T08:18:27.733Z</time></trkpt><trkpt lat="38.10231" lon="14.86532"><ele>837.5999999999999</ele><time>2026-03-29T08:18:29.733Z</time></trkpt><trkpt lat="38.1022333" lon="14.865385"><ele>837.4000000000001</ele><time>2026-03-29T08:18:30.734Z</time></trkpt><trkpt lat="38.1021433" lon="14.8654567"><ele>837.2</ele><time>2026-03-29T08:18:31.734Z</time></trkpt><trkpt lat="38.1020483" lon="14.8655283"><ele>837.0</ele><time>2026-03-29T08:18:32.733Z</time></trkpt><trkpt lat="38.1019767" lon="14.8655917"><ele>837.0</ele><time>2026-03-29T08:18:33.734Z</time></trkpt><trkpt lat="38.1019083" lon="14.8656483"><ele>837.0</ele><time>2026-03-29T08:18:34.733Z</time></trkpt><trkpt lat="38.101845" lon="14.8657033"><ele>837.0</ele><time>2026-03-29T08:18:35.734Z</time></trkpt><trkpt lat="38.1017683" lon="14.8657617"><ele>837.0</ele><time>2026-03-29T08:18:36.734Z</time></trkpt><trkpt lat="38.1016667" lon="14.8658317"><ele>837.0</ele><time>2026-03-29T08:18:37.734Z</time></trkpt><trkpt lat="38.1015467" lon="14.8659183"><ele>841.3333333333333</ele><time>2026-03-29T08:18:38.734Z</time></trkpt><trkpt lat="38.1014317" lon="14.8660217"><ele>845.6666666666666</ele><time>2026-03-29T08:18:39.734Z</time></trkpt><trkpt lat="38.101305" lon="14.86613"><ele>850.0</ele><time>2026-03-29T08:18:40.734Z</time></trkpt><trkpt lat="38.10117" lon="14.866255"><ele>850.0</ele><time>2026-03-29T08:18:41.733Z</time></trkpt><trkpt lat="38.10103" lon="14.8663933"><ele>850.0</ele><time>2026-03-29T08:18:42.733Z</time></trkpt><trkpt lat="38.100895" lon="14.8665367"><ele>850.0</ele><time>2026-03-29T08:18:43.734Z</time></trkpt><trkpt lat="38.10078" lon="14.86668"><ele>849.75</ele><time>2026-03-29T08:18:44.734Z</time></trkpt><trkpt lat="38.1006833" lon="14.8668183"><ele>849.5</ele><time>2026-03-29T08:18:45.734Z</time></trkpt><trkpt lat="38.1006067" lon="14.8669417"><ele>849.25</ele><time>2026-03-29T08:18:46.733Z</time></trkpt><trkpt lat="38.10054" lon="14.8670467"><ele>849.0</ele><time>2026-03-29T08:18:47.733Z</time></trkpt><trkpt lat="38.1004817" lon="14.8671333"><ele>849.0</ele><time>2026-03-29T08:18:48.733Z</time></trkpt><trkpt lat="38.100405" lon="14.8672267"><ele>849.0</ele><time>2026-03-29T08:18:50.733Z</time></trkpt><trkpt lat="38.1003383" lon="14.867245"><ele>849.0</ele><time>2026-03-29T08:18:52.733Z</time></trkpt><trkpt lat="38.1002533" lon="14.8671983"><ele>849.0</ele><time>2026-03-29T08:18:54.734Z</time></trkpt><trkpt lat="38.1002" lon="14.867145"><ele>849.0</ele><time>2026-03-29T08:18:55.733Z</time></trkpt><trkpt lat="38.1001467" lon="14.8670867"><ele>849.0</ele><time>2026-03-29T08:18:56.734Z</time></trkpt><trkpt lat="38.1000867" lon="14.867"><ele>849.0</ele><time>2026-03-29T08:18:58.734Z</time></trkpt><trkpt lat="38.10002" lon="14.8669317"><ele>849.0</ele><time>2026-03-29T08:19:00.734Z</time></trkpt><trkpt lat="38.0999567" lon="14.866915"><ele>849.0</ele><time>2026-03-29T08:19:01.734Z</time></trkpt><trkpt lat="38.0998833" lon="14.86692"><ele>849.0</ele><time>2026-03-29T08:19:02.734Z</time></trkpt><trkpt lat="38.0998183" lon="14.866925"><ele>849.0</ele><time>2026-03-29T08:19:03.734Z</time></trkpt><trkpt lat="38.09973" lon="14.86692"><ele>849.0</ele><time>2026-03-29T08:19:05.734Z</time></trkpt><trkpt lat="38.09965" lon="14.866925"><ele>847.3333333333334</ele><time>2026-03-29T08:19:08.734Z</time></trkpt><trkpt lat="38.0995867" lon="14.866945"><ele>845.6666666666667</ele><time>2026-03-29T08:19:11.734Z</time></trkpt><trkpt lat="38.0995067" lon="14.8669867"><ele>844.0</ele><time>2026-03-29T08:19:14.734Z</time></trkpt><trkpt lat="38.0994383" lon="14.8670417"><ele>842.3333333333334</ele><time>2026-03-29T08:19:16.733Z</time></trkpt><trkpt lat="38.099365" lon="14.8670983"><ele>840.6666666666667</ele><time>2026-03-29T08:19:19.733Z</time></trkpt><trkpt lat="38.0993067" lon="14.8671633"><ele>839.0</ele><time>2026-03-29T08:19:23.734Z</time></trkpt><trkpt lat="38.099235" lon="14.8671783"><ele>839.0</ele><time>2026-03-29T08:19:28.734Z</time></trkpt><trkpt lat="38.0991717" lon="14.8671717"><ele>839.0</ele><time>2026-03-29T08:19:33.734Z</time></trkpt><trkpt lat="38.0990933" lon="14.8671967"><ele>839.0</ele><time>2026-03-29T08:19:39.733Z</time></trkpt><trkpt lat="38.09903" lon="14.8672217"><ele>839.0</ele><time>2026-03-29T08:19:44.733Z</time></trkpt><trkpt lat="38.0989567" lon="14.86718"><ele>839.0</ele><time>2026-03-29T08:20:07.733Z</time></trkpt><trkpt lat="38.0988933" lon="14.8671417"><ele>839.0</ele><time>2026-03-29T08:20:12.734Z</time></trkpt><trkpt lat="38.0988417" lon="14.8672017"><ele>839.0</ele><time>2026-03-29T08:20:14.734Z</time></trkpt><trkpt lat="38.09878" lon="14.8672533"><ele>838.8333333333334</ele><time>2026-03-29T08:20:16.734Z</time></trkpt><trkpt lat="38.0986967" lon="14.8673033"><ele>838.6666666666667</ele><time>2026-03-29T08:20:19.734Z</time></trkpt><trkpt lat="38.098645" lon="14.86736"><ele>838.5</ele><time>2026-03-29T08:20:22.733Z</time></trkpt><trkpt lat="38.0986367" lon="14.8674467"><ele>838.3333333333333</ele><time>2026-03-29T08:20:33.734Z</time></trkpt><trkpt lat="38.0986133" lon="14.8675717"><ele>838.1666666666666</ele><time>2026-03-29T08:20:40.734Z</time></trkpt><trkpt lat="38.0985467" lon="14.8676467"><ele>838.0</ele><time>2026-03-29T08:22:50.734Z</time></trkpt><trkpt lat="38.0984667" lon="14.867695"><ele>837.9999999999999</ele><time>2026-03-29T08:22:53.734Z</time></trkpt><trkpt lat="38.0984283" lon="14.86778"><ele>838.0</ele><time>2026-03-29T08:22:56.734Z</time></trkpt><trkpt lat="38.098425" lon="14.8678833"><ele>838.0</ele><time>2026-03-29T08:22:58.734Z</time></trkpt><trkpt lat="38.0984267" lon="14.86799"><ele>838.0</ele><time>2026-03-29T08:23:00.734Z</time></trkpt><trkpt lat="38.0983883" lon="14.8680933"><ele>837.9999999999999</ele><time>2026-03-29T08:23:03.734Z</time></trkpt><trkpt lat="38.09834" lon="14.8681733"><ele>838.0</ele><time>2026-03-29T08:23:05.734Z</time></trkpt><trkpt lat="38.0983017" lon="14.8682383"><ele>838.6666666666666</ele><time>2026-03-29T08:23:07.733Z</time></trkpt><trkpt lat="38.0982333" lon="14.86827"><ele>839.3333333333333</ele><time>2026-03-29T08:23:10.734Z</time></trkpt><trkpt lat="38.0981683" lon="14.8682367"><ele>840.0</ele><time>2026-03-29T08:23:13.734Z</time></trkpt><trkpt lat="38.0981083" lon="14.868185"><ele>840.6666666666667</ele><time>2026-03-29T08:23:15.735Z</time></trkpt><trkpt lat="38.0980133" lon="14.8681433"><ele>841.3333333333334</ele><time>2026-03-29T08:23:17.735Z</time></trkpt><trkpt lat="38.0979183" lon="14.8681067"><ele>842.0</ele><time>2026-03-29T08:23:19.735Z</time></trkpt><trkpt lat="38.0978067" lon="14.8680817"><ele>842.0</ele><time>2026-03-29T08:23:21.734Z</time></trkpt><trkpt lat="38.09772" lon="14.868065"><ele>842.0</ele><time>2026-03-29T08:23:23.735Z</time></trkpt><trkpt lat="38.097615" lon="14.8680767"><ele>842.0</ele><time>2026-03-29T08:23:26.735Z</time></trkpt><trkpt lat="38.0975133" lon="14.8681117"><ele>842.0</ele><time>2026-03-29T08:23:28.734Z</time></trkpt><trkpt lat="38.0974333" lon="14.868135"><ele>842.0</ele><time>2026-03-29T08:23:30.735Z</time></trkpt><trkpt lat="38.097355" lon="14.8681133"><ele>843.1666666666667</ele><time>2026-03-29T08:23:32.735Z</time></trkpt><trkpt lat="38.09724" lon="14.8680467"><ele>844.3333333333334</ele><time>2026-03-29T08:23:34.735Z</time></trkpt><trkpt lat="38.097165" lon="14.86801"><ele>845.5</ele><time>2026-03-29T08:23:35.735Z</time></trkpt><trkpt lat="38.097105" lon="14.867975"><ele>846.6666666666667</ele><time>2026-03-29T08:23:36.735Z</time></trkpt><trkpt lat="38.0970217" lon="14.867945"><ele>847.8333333333334</ele><time>2026-03-29T08:23:38.735Z</time></trkpt><trkpt lat="38.0969817" lon="14.8680083"><ele>849.0</ele><time>2026-03-29T08:23:40.735Z</time></trkpt><trkpt lat="38.09695" lon="14.8681083"><ele>849.0</ele><time>2026-03-29T08:23:42.735Z</time></trkpt><trkpt lat="38.096945" lon="14.8682133"><ele>849.0</ele><time>2026-03-29T08:23:44.735Z</time></trkpt><trkpt lat="38.0969433" lon="14.868355"><ele>849.0</ele><time>2026-03-29T08:23:46.735Z</time></trkpt><trkpt lat="38.0969317" lon="14.8684383"><ele>849.0</ele><time>2026-03-29T08:23:47.735Z</time></trkpt><trkpt lat="38.0969317" lon="14.8685267"><ele>849.0</ele><time>2026-03-29T08:23:48.735Z</time></trkpt><trkpt lat="38.0969683" lon="14.8686317"><ele>849.0</ele><time>2026-03-29T08:23:50.735Z</time></trkpt><trkpt lat="38.09705" lon="14.868665"><ele>850.6666666666666</ele><time>2026-03-29T08:23:52.734Z</time></trkpt><trkpt lat="38.0971117" lon="14.868735"><ele>852.3333333333333</ele><time>2026-03-29T08:23:54.735Z</time></trkpt><trkpt lat="38.09711" lon="14.8688333"><ele>854.0</ele><time>2026-03-29T08:23:56.734Z</time></trkpt><trkpt lat="38.0970467" lon="14.8689133"><ele>855.6666666666666</ele><time>2026-03-29T08:23:58.735Z</time></trkpt><trkpt lat="38.09695" lon="14.8689683"><ele>857.3333333333333</ele><time>2026-03-29T08:24:00.735Z</time></trkpt><trkpt lat="38.0968717" lon="14.8689783"><ele>859.0</ele><time>2026-03-29T08:24:02.734Z</time></trkpt><trkpt lat="38.0967817" lon="14.8689567"><ele>859.0</ele><time>2026-03-29T08:24:04.735Z</time></trkpt><trkpt lat="38.09665" lon="14.8689133"><ele>859.0000000000001</ele><time>2026-03-29T08:24:06.734Z</time></trkpt><trkpt lat="38.09656" lon="14.86889"><ele>859.0000000000001</ele><time>2026-03-29T08:24:07.735Z</time></trkpt><trkpt lat="38.0964733" lon="14.8688633"><ele>859.0</ele><time>2026-03-29T08:24:08.735Z</time></trkpt><trkpt lat="38.0964067" lon="14.8688433"><ele>859.0</ele><time>2026-03-29T08:24:09.734Z</time></trkpt><trkpt lat="38.0963167" lon="14.8688333"><ele>859.2</ele><time>2026-03-29T08:24:11.734Z</time></trkpt><trkpt lat="38.096225" lon="14.8688283"><ele>859.4000000000001</ele><time>2026-03-29T08:24:13.734Z</time></trkpt><trkpt lat="38.0961517" lon="14.868765"><ele>859.6</ele><time>2026-03-29T08:24:16.735Z</time></trkpt><trkpt lat="38.0961133" lon="14.8686617"><ele>859.8</ele><time>2026-03-29T08:24:19.735Z</time></trkpt><trkpt lat="38.0960717" lon="14.8685633"><ele>860.0</ele><time>2026-03-29T08:24:22.735Z</time></trkpt><trkpt lat="38.0960217" lon="14.868465"><ele>858.1666666666667</ele><time>2026-03-29T08:24:25.734Z</time></trkpt><trkpt lat="38.0959767" lon="14.8683633"><ele>856.3333333333334</ele><time>2026-03-29T08:24:28.734Z</time></trkpt><trkpt lat="38.0959417" lon="14.8682617"><ele>854.5</ele><time>2026-03-29T08:24:31.734Z</time></trkpt><trkpt lat="38.0959117" lon="14.868185"><ele>852.6666666666667</ele><time>2026-03-29T08:24:33.735Z</time></trkpt><trkpt lat="38.0958833" lon="14.8681133"><ele>850.8333333333334</ele><time>2026-03-29T08:24:35.735Z</time></trkpt><trkpt lat="38.095855" lon="14.86803"><ele>849.0</ele><time>2026-03-29T08:24:37.734Z</time></trkpt><trkpt lat="38.095815" lon="14.8679483"><ele>849.0</ele><time>2026-03-29T08:24:39.735Z</time></trkpt><trkpt lat="38.0957733" lon="14.8678633"><ele>849.0</ele><time>2026-03-29T08:24:41.734Z</time></trkpt><trkpt lat="38.0957317" lon="14.8677817"><ele>849.0</ele><time>2026-03-29T08:24:43.734Z</time></trkpt><trkpt lat="38.0956983" lon="14.867695"><ele>849.0</ele><time>2026-03-29T08:24:45.734Z</time></trkpt><trkpt lat="38.0956683" lon="14.8676183"><ele>849.0</ele><time>2026-03-29T08:24:47.735Z</time></trkpt><trkpt lat="38.095645" lon="14.8675117"><ele>849.0</ele><time>2026-03-29T08:24:50.734Z</time></trkpt><trkpt lat="38.09561" lon="14.8674133"><ele>846.1666666666666</ele><time>2026-03-29T08:24:53.735Z</time></trkpt><trkpt lat="38.095585" lon="14.867335"><ele>843.3333333333333</ele><time>2026-03-29T08:24:55.734Z</time></trkpt><trkpt lat="38.0955667" lon="14.8672533"><ele>840.5</ele><time>2026-03-29T08:24:58.735Z</time></trkpt><trkpt lat="38.0956083" lon="14.86717"><ele>837.6666666666666</ele><time>2026-03-29T08:25:03.735Z</time></trkpt><trkpt lat="38.09568" lon="14.8671367"><ele>834.8333333333333</ele><time>2026-03-29T08:25:05.735Z</time></trkpt><trkpt lat="38.09575" lon="14.8671317"><ele>832.0</ele><time>2026-03-29T08:25:06.735Z</time></trkpt><trkpt lat="38.095855" lon="14.8671267"><ele>832.0</ele><time>2026-03-29T08:25:07.734Z</time></trkpt><trkpt lat="38.0959717" lon="14.8671267"><ele>832.0</ele><time>2026-03-29T08:25:08.734Z</time></trkpt><trkpt lat="38.0960867" lon="14.8671167"><ele>832.0</ele><time>2026-03-29T08:25:09.735Z</time></trkpt><trkpt lat="38.0961717" lon="14.8670983"><ele>832.0</ele><time>2026-03-29T08:25:10.734Z</time></trkpt><trkpt lat="38.0962517" lon="14.8670833"><ele>832.0</ele><time>2026-03-29T08:25:11.735Z</time></trkpt><trkpt lat="38.0963817" lon="14.86705"><ele>832.0</ele><time>2026-03-29T08:25:13.735Z</time></trkpt><trkpt lat="38.0964833" lon="14.8670333"><ele>832.0</ele><time>2026-03-29T08:25:14.735Z</time></trkpt><trkpt lat="38.09658" lon="14.8670183"><ele>832.0</ele><time>2026-03-29T08:25:15.735Z</time></trkpt><trkpt lat="38.09668" lon="14.8669983"><ele>832.0</ele><time>2026-03-29T08:25:16.735Z</time></trkpt><trkpt lat="38.09676" lon="14.8669683"><ele>832.0</ele><time>2026-03-29T08:25:17.735Z</time></trkpt><trkpt lat="38.0968383" lon="14.866925"><ele>832.6666666666666</ele><time>2026-03-29T08:25:19.735Z</time></trkpt><trkpt lat="38.09686" lon="14.8668433"><ele>833.3333333333333</ele><time>2026-03-29T08:25:33.735Z</time></trkpt><trkpt lat="38.0969" lon="14.866755"><ele>834.0</ele><time>2026-03-29T08:25:34.735Z</time></trkpt><trkpt lat="38.0969433" lon="14.8666483"><ele>834.6666666666667</ele><time>2026-03-29T08:25:35.735Z</time></trkpt><trkpt lat="38.09698" lon="14.8665567"><ele>835.3333333333334</ele><time>2026-03-29T08:25:36.735Z</time></trkpt><trkpt lat="38.0970217" lon="14.866465"><ele>836.0</ele><time>2026-03-29T08:25:37.735Z</time></trkpt><trkpt lat="38.0970683" lon="14.8663617"><ele>832.8</ele><time>2026-03-29T08:25:38.735Z</time></trkpt><trkpt lat="38.0971167" lon="14.866265"><ele>829.5999999999999</ele><time>2026-03-29T08:25:39.735Z</time></trkpt><trkpt lat="38.0971567" lon="14.86618"><ele>826.4</ele><time>2026-03-29T08:25:40.735Z</time></trkpt><trkpt lat="38.0971933" lon="14.8661067"><ele>823.2</ele><time>2026-03-29T08:25:41.734Z</time></trkpt><trkpt lat="38.0972583" lon="14.8659833"><ele>820.0</ele><time>2026-03-29T08:25:43.735Z</time></trkpt><trkpt lat="38.0973133" lon="14.8658667"><ele>818.4</ele><time>2026-03-29T08:25:45.734Z</time></trkpt><trkpt lat="38.0973633" lon="14.8657467"><ele>816.8</ele><time>2026-03-29T08:25:47.735Z</time></trkpt><trkpt lat="38.0974067" lon="14.8656167"><ele>815.2</ele><time>2026-03-29T08:25:49.734Z</time></trkpt><trkpt lat="38.0974667" lon="14.86548"><ele>813.6</ele><time>2026-03-29T08:25:51.735Z</time></trkpt><trkpt lat="38.0975083" lon="14.8653983"><ele>812.0</ele><time>2026-03-29T08:25:52.735Z</time></trkpt><trkpt lat="38.0975567" lon="14.86531"><ele>812.0</ele><time>2026-03-29T08:25:53.734Z</time></trkpt><trkpt lat="38.0975967" lon="14.8652283"><ele>812.0</ele><time>2026-03-29T08:25:54.735Z</time></trkpt><trkpt lat="38.09763" lon="14.86515"><ele>812.0</ele><time>2026-03-29T08:25:55.735Z</time></trkpt><trkpt lat="38.0976517" lon="14.86507"><ele>812.0</ele><time>2026-03-29T08:25:56.734Z</time></trkpt><trkpt lat="38.0976667" lon="14.86499"><ele>812.0</ele><time>2026-03-29T08:25:57.735Z</time></trkpt><trkpt lat="38.097685" lon="14.8648917"><ele>812.0</ele><time>2026-03-29T08:25:58.735Z</time></trkpt><trkpt lat="38.0977233" lon="14.8647883"><ele>812.0</ele><time>2026-03-29T08:25:59.735Z</time></trkpt><trkpt lat="38.0977567" lon="14.864685"><ele>811.5714285714286</ele><time>2026-03-29T08:26:00.735Z</time></trkpt><trkpt lat="38.097785" lon="14.864595"><ele>811.1428571428571</ele><time>2026-03-29T08:26:01.735Z</time></trkpt><trkpt lat="38.0978083" lon="14.8645183"><ele>810.7142857142858</ele><time>2026-03-29T08:26:02.735Z</time></trkpt><trkpt lat="38.0978417" lon="14.8644417"><ele>810.2857142857142</ele><time>2026-03-29T08:26:03.735Z</time></trkpt><trkpt lat="38.09788" lon="14.8643517"><ele>809.8571428571429</ele><time>2026-03-29T08:26:04.734Z</time></trkpt><trkpt lat="38.0979133" lon="14.8642533"><ele>809.4285714285714</ele><time>2026-03-29T08:26:05.735Z</time></trkpt><trkpt lat="38.0979417" lon="14.8641733"><ele>809.0</ele><time>2026-03-29T08:26:06.734Z</time></trkpt><trkpt lat="38.0979817" lon="14.8640283"><ele>808.2</ele><time>2026-03-29T08:26:08.735Z</time></trkpt><trkpt lat="38.0980367" lon="14.86387"><ele>807.4000000000001</ele><time>2026-03-29T08:26:10.734Z</time></trkpt><trkpt lat="38.09807" lon="14.863785"><ele>806.6</ele><time>2026-03-29T08:26:11.735Z</time></trkpt><trkpt lat="38.0981367" lon="14.863645"><ele>805.8</ele><time>2026-03-29T08:26:13.735Z</time></trkpt><trkpt lat="38.0981633" lon="14.8635533"><ele>805.0</ele><time>2026-03-29T08:26:14.735Z</time></trkpt><trkpt lat="38.0981833" lon="14.8634533"><ele>804.8</ele><time>2026-03-29T08:26:15.735Z</time></trkpt><trkpt lat="38.0982" lon="14.8633683"><ele>804.6</ele><time>2026-03-29T08:26:16.735Z</time></trkpt><trkpt lat="38.0982283" lon="14.86323"><ele>804.4000000000001</ele><time>2026-03-29T08:26:18.735Z</time></trkpt><trkpt lat="38.0982583" lon="14.863125"><ele>804.2</ele><time>2026-03-29T08:26:20.735Z</time></trkpt><trkpt lat="38.0983067" lon="14.8630283"><ele>804.0</ele><time>2026-03-29T08:26:22.735Z</time></trkpt><trkpt lat="38.0983817" lon="14.8629033"><ele>804.0</ele><time>2026-03-29T08:26:24.735Z</time></trkpt><trkpt lat="38.0984167" lon="14.8628167"><ele>804.0</ele><time>2026-03-29T08:26:25.734Z</time></trkpt><trkpt lat="38.0984383" lon="14.86271"><ele>804.0</ele><time>2026-03-29T08:26:26.734Z</time></trkpt><trkpt lat="38.0984533" lon="14.8626117"><ele>804.0</ele><time>2026-03-29T08:26:27.735Z</time></trkpt><trkpt lat="38.0984667" lon="14.8625283"><ele>804.0</ele><time>2026-03-29T08:26:28.735Z</time></trkpt><trkpt lat="38.0984817" lon="14.8624283"><ele>804.0</ele><time>2026-03-29T08:26:30.735Z</time></trkpt><trkpt lat="38.09849" lon="14.8623467"><ele>802.4000000000001</ele><time>2026-03-29T08:26:32.735Z</time></trkpt><trkpt lat="38.0985133" lon="14.8622617"><ele>800.8</ele><time>2026-03-29T08:26:34.735Z</time></trkpt><trkpt lat="38.0985433" lon="14.8621717"><ele>799.2</ele><time>2026-03-29T08:26:36.735Z</time></trkpt><trkpt lat="38.0985967" lon="14.8620467"><ele>797.5999999999999</ele><time>2026-03-29T08:26:38.734Z</time></trkpt><trkpt lat="38.0987083" lon="14.8619383"><ele>796.0</ele><time>2026-03-29T08:26:40.735Z</time></trkpt><trkpt lat="38.098785" lon="14.86189"><ele>795.9999999999999</ele><time>2026-03-29T08:26:41.734Z</time></trkpt><trkpt lat="38.098855" lon="14.86183"><ele>796.0</ele><time>2026-03-29T08:26:42.734Z</time></trkpt><trkpt lat="38.0989067" lon="14.86178"><ele>796.0</ele><time>2026-03-29T08:26:43.734Z</time></trkpt><trkpt lat="38.09898" lon="14.8617"><ele>796.0</ele><time>2026-03-29T08:26:45.735Z</time></trkpt><trkpt lat="38.0988817" lon="14.8617833"><ele>795.9999999999999</ele><time>2026-03-29T08:26:52.735Z</time></trkpt><trkpt lat="38.0988167" lon="14.861845"><ele>796.0</ele><time>2026-03-29T08:26:53.735Z</time></trkpt><trkpt lat="38.098745" lon="14.861915"><ele>796.0</ele><time>2026-03-29T08:26:54.734Z</time></trkpt><trkpt lat="38.09867" lon="14.861975"><ele>796.0</ele><time>2026-03-29T08:26:55.734Z</time></trkpt><trkpt lat="38.0986" lon="14.862045"><ele>796.0</ele><time>2026-03-29T08:26:56.735Z</time></trkpt><trkpt lat="38.0985383" lon="14.8621167"><ele>796.0</ele><time>2026-03-29T08:26:57.735Z</time></trkpt><trkpt lat="38.0984917" lon="14.862225"><ele>796.0</ele><time>2026-03-29T08:26:58.734Z</time></trkpt><trkpt lat="38.0984567" lon="14.862355"><ele>796.0</ele><time>2026-03-29T08:26:59.735Z</time></trkpt><trkpt lat="38.0984383" lon="14.8624983"><ele>796.0</ele><time>2026-03-29T08:27:00.734Z</time></trkpt><trkpt lat="38.0984233" lon="14.8626267"><ele>796.0</ele><time>2026-03-29T08:27:01.735Z</time></trkpt><trkpt lat="38.0984133" lon="14.8627367"><ele>796.0</ele><time>2026-03-29T08:27:02.734Z</time></trkpt><trkpt lat="38.0984033" lon="14.8628383"><ele>796.0</ele><time>2026-03-29T08:27:03.735Z</time></trkpt><trkpt lat="38.0983817" lon="14.862925"><ele>796.1999999999999</ele><time>2026-03-29T08:27:04.735Z</time></trkpt><trkpt lat="38.0983133" lon="14.863045"><ele>796.4</ele><time>2026-03-29T08:27:06.734Z</time></trkpt><trkpt lat="38.0982717" lon="14.8631117"><ele>796.6</ele><time>2026-03-29T08:27:07.735Z</time></trkpt><trkpt lat="38.0982333" lon="14.8632267"><ele>796.8</ele><time>2026-03-29T08:27:09.734Z</time></trkpt><trkpt lat="38.0981833" lon="14.8633183"><ele>797.0</ele><time>2026-03-29T08:27:22.735Z</time></trkpt><trkpt lat="38.0981467" lon="14.8634483"><ele>798.6</ele><time>2026-03-29T08:27:24.735Z</time></trkpt><trkpt lat="38.0981167" lon="14.8635417"><ele>800.2</ele><time>2026-03-29T08:27:25.734Z</time></trkpt><trkpt lat="38.098075" lon="14.863655"><ele>801.8</ele><time>2026-03-29T08:27:26.735Z</time></trkpt><trkpt lat="38.0980317" lon="14.8637867"><ele>803.4</ele><time>2026-03-29T08:27:27.735Z</time></trkpt><trkpt lat="38.0979933" lon="14.86392"><ele>805.0</ele><time>2026-03-29T08:27:28.735Z</time></trkpt><trkpt lat="38.0979567" lon="14.864035"><ele>805.0</ele><time>2026-03-29T08:27:29.735Z</time></trkpt><trkpt lat="38.0979167" lon="14.864145"><ele>805.0</ele><time>2026-03-29T08:27:30.735Z</time></trkpt><trkpt lat="38.09788" lon="14.8642533"><ele>805.0</ele><time>2026-03-29T08:27:31.735Z</time></trkpt><trkpt lat="38.0978417" lon="14.8643667"><ele>805.0</ele><time>2026-03-29T08:27:32.735Z</time></trkpt><trkpt lat="38.0977933" lon="14.864495"><ele>805.0</ele><time>2026-03-29T08:27:33.735Z</time></trkpt><trkpt lat="38.0977483" lon="14.8646433"><ele>806.0</ele><time>2026-03-29T08:27:34.734Z</time></trkpt><trkpt lat="38.0977117" lon="14.8648017"><ele>807.0</ele><time>2026-03-29T08:27:35.735Z</time></trkpt><trkpt lat="38.0976717" lon="14.8649467"><ele>808.0</ele><time>2026-03-29T08:27:36.735Z</time></trkpt><trkpt lat="38.0976367" lon="14.8650717"><ele>809.0</ele><time>2026-03-29T08:27:37.735Z</time></trkpt><trkpt lat="38.0975983" lon="14.8651833"><ele>809.6</ele><time>2026-03-29T08:27:38.734Z</time></trkpt><trkpt lat="38.097545" lon="14.86529"><ele>810.2</ele><time>2026-03-29T08:27:39.734Z</time></trkpt><trkpt lat="38.0974917" lon="14.865405"><ele>810.8000000000001</ele><time>2026-03-29T08:27:40.735Z</time></trkpt><trkpt lat="38.097435" lon="14.8655267"><ele>811.4000000000001</ele><time>2026-03-29T08:27:41.735Z</time></trkpt><trkpt lat="38.0973867" lon="14.8656367"><ele>812.0</ele><time>2026-03-29T08:27:42.734Z</time></trkpt><trkpt lat="38.0973383" lon="14.865735"><ele>813.6</ele><time>2026-03-29T08:27:43.735Z</time></trkpt><trkpt lat="38.0972933" lon="14.8658383"><ele>815.2</ele><time>2026-03-29T08:27:44.735Z</time></trkpt><trkpt lat="38.0972417" lon="14.8659467"><ele>816.8</ele><time>2026-03-29T08:27:45.734Z</time></trkpt><trkpt lat="38.0971918" lon="14.8660645"><ele>818.4</ele><time>2026-03-29T08:27:46.734Z</time></trkpt><trkpt lat="38.0971411" lon="14.8661792"><ele>820.0</ele><time>2026-03-29T08:27:47.734Z</time></trkpt><trkpt lat="38.0970874" lon="14.8662862"><ele>820.0</ele><time>2026-03-29T08:27:48.734Z</time></trkpt><trkpt lat="38.0970334" lon="14.8663927"><ele>820.0</ele><time>2026-03-29T08:27:49.734Z</time></trkpt><trkpt lat="38.0969803" lon="14.8664993"><ele>820.0</ele><time>2026-03-29T08:27:50.734Z</time></trkpt><trkpt lat="38.0969366" lon="14.8665957"><ele>820.0</ele><time>2026-03-29T08:27:51.734Z</time></trkpt><trkpt lat="38.0969011" lon="14.8666686"><ele>820.0</ele><time>2026-03-29T08:27:52.734Z</time></trkpt><trkpt lat="38.0968504" lon="14.866793"><ele>822.6666666666666</ele><time>2026-03-29T08:27:54.735Z</time></trkpt><trkpt lat="38.0968148" lon="14.8668846"><ele>825.3333333333333</ele><time>2026-03-29T08:27:56.735Z</time></trkpt><trkpt lat="38.0967626" lon="14.8670061"><ele>828.0</ele><time>2026-03-29T08:28:05.734Z</time></trkpt><trkpt lat="38.0967293" lon="14.8670943"><ele>830.6666666666667</ele><time>2026-03-29T08:28:06.735Z</time></trkpt><trkpt lat="38.0966975" lon="14.8671732"><ele>833.3333333333334</ele><time>2026-03-29T08:28:07.735Z</time></trkpt><trkpt lat="38.0966474" lon="14.8672831"><ele>836.0</ele><time>2026-03-29T08:28:09.736Z</time></trkpt><trkpt lat="38.0966021" lon="14.8673759"><ele>835.3333333333334</ele><time>2026-03-29T08:28:11.736Z</time></trkpt><trkpt lat="38.0965775" lon="14.8674706"><ele>834.6666666666667</ele><time>2026-03-29T08:28:14.736Z</time></trkpt><trkpt lat="38.0965603" lon="14.8675502"><ele>834.0</ele><time>2026-03-29T08:28:16.736Z</time></trkpt><trkpt lat="38.0965342" lon="14.8676517"><ele>833.3333333333333</ele><time>2026-03-29T08:28:19.735Z</time></trkpt><trkpt lat="38.0965057" lon="14.8677349"><ele>832.6666666666666</ele><time>2026-03-29T08:28:21.736Z</time></trkpt><trkpt lat="38.0964999" lon="14.8678307"><ele>832.0</ele><time>2026-03-29T08:28:23.736Z</time></trkpt><trkpt lat="38.0965448" lon="14.8679134"><ele>835.4000000000001</ele><time>2026-03-29T08:28:25.735Z</time></trkpt><trkpt lat="38.0965519" lon="14.8680308"><ele>838.8000000000001</ele><time>2026-03-29T08:28:28.736Z</time></trkpt><trkpt lat="38.0965266" lon="14.8681362"><ele>842.2</ele><time>2026-03-29T08:28:30.736Z</time></trkpt><trkpt lat="38.096465" lon="14.8682016"><ele>845.6</ele><time>2026-03-29T08:28:32.736Z</time></trkpt><trkpt lat="38.0963902" lon="14.8682692"><ele>849.0</ele><time>2026-03-29T08:28:34.736Z</time></trkpt><trkpt lat="38.0962962" lon="14.8683556"><ele>849.0</ele><time>2026-03-29T08:28:36.736Z</time></trkpt><trkpt lat="38.0962332" lon="14.8684276"><ele>849.0</ele><time>2026-03-29T08:28:38.736Z</time></trkpt><trkpt lat="38.0961976" lon="14.8685228"><ele>849.0</ele><time>2026-03-29T08:28:40.736Z</time></trkpt><trkpt lat="38.0961625" lon="14.8686631"><ele>849.0</ele><time>2026-03-29T08:28:42.735Z</time></trkpt><trkpt lat="38.0961606" lon="14.8687861"><ele>849.0</ele><time>2026-03-29T08:28:44.736Z</time></trkpt><trkpt lat="38.0962258" lon="14.8688459"><ele>850.6666666666666</ele><time>2026-03-29T08:28:54.735Z</time></trkpt><trkpt lat="38.0963411" lon="14.8688731"><ele>852.3333333333333</ele><time>2026-03-29T08:28:56.736Z</time></trkpt><trkpt lat="38.0964104" lon="14.8688854"><ele>854.0</ele><time>2026-03-29T08:28:57.735Z</time></trkpt><trkpt lat="38.0964836" lon="14.8689046"><ele>855.6666666666666</ele><time>2026-03-29T08:28:58.736Z</time></trkpt><trkpt lat="38.0965471" lon="14.8689201"><ele>857.3333333333333</ele><time>2026-03-29T08:28:59.736Z</time></trkpt><trkpt lat="38.0966443" lon="14.8689443"><ele>859.0</ele><time>2026-03-29T08:29:01.735Z</time></trkpt><trkpt lat="38.0967108" lon="14.8689685"><ele>858.9999999999999</ele><time>2026-03-29T08:29:03.736Z</time></trkpt><trkpt lat="38.0967797" lon="14.8689893"><ele>859.0</ele><time>2026-03-29T08:29:05.736Z</time></trkpt><trkpt lat="38.0968476" lon="14.8689893"><ele>859.0</ele><time>2026-03-29T08:29:07.736Z</time></trkpt><trkpt lat="38.0968996" lon="14.8690414"><ele>859.0</ele><time>2026-03-29T08:29:09.736Z</time></trkpt><trkpt lat="38.0968768" lon="14.8691564"><ele>858.9999999999999</ele><time>2026-03-29T08:29:31.735Z</time></trkpt><trkpt lat="38.0968271" lon="14.869231"><ele>859.0</ele><time>2026-03-29T08:29:33.735Z</time></trkpt><trkpt lat="38.0967557" lon="14.8693038"><ele>860.0</ele><time>2026-03-29T08:29:35.735Z</time></trkpt><trkpt lat="38.0966775" lon="14.8694007"><ele>861.0000000000001</ele><time>2026-03-29T08:29:37.735Z</time></trkpt><trkpt lat="38.0966223" lon="14.8695148"><ele>862.0000000000001</ele><time>2026-03-29T08:29:39.735Z</time></trkpt><trkpt lat="38.0965599" lon="14.8696319"><ele>863.0</ele><time>2026-03-29T08:29:41.735Z</time></trkpt><trkpt lat="38.0965157" lon="14.8697035"><ele>864.0</ele><time>2026-03-29T08:29:42.736Z</time></trkpt><trkpt lat="38.0964763" lon="14.8697933"><ele>864.5</ele><time>2026-03-29T08:29:43.736Z</time></trkpt><trkpt lat="38.0964373" lon="14.8699041"><ele>865.0</ele><time>2026-03-29T08:29:44.736Z</time></trkpt><trkpt lat="38.0964053" lon="14.8700212"><ele>865.5</ele><time>2026-03-29T08:29:45.735Z</time></trkpt><trkpt lat="38.0963759" lon="14.8701215"><ele>866.0</ele><time>2026-03-29T08:29:46.735Z</time></trkpt><trkpt lat="38.0963504" lon="14.8702008"><ele>866.5</ele><time>2026-03-29T08:29:47.736Z</time></trkpt><trkpt lat="38.0963299" lon="14.8703272"><ele>867.0</ele><time>2026-03-29T08:29:49.736Z</time></trkpt><trkpt lat="38.0963284" lon="14.8704362"><ele>868.0</ele><time>2026-03-29T08:29:51.736Z</time></trkpt><trkpt lat="38.0963" lon="14.8705109"><ele>869.0</ele><time>2026-03-29T08:29:53.736Z</time></trkpt><trkpt lat="38.0962311" lon="14.8705559"><ele>870.0</ele><time>2026-03-29T08:29:56.736Z</time></trkpt><trkpt lat="38.096109" lon="14.870637"><ele>871.0</ele><time>2026-03-29T08:29:58.736Z</time></trkpt><trkpt lat="38.0960189" lon="14.8706965"><ele>872.0</ele><time>2026-03-29T08:29:59.736Z</time></trkpt><trkpt lat="38.0959057" lon="14.8707822"><ele>872.0</ele><time>2026-03-29T08:30:00.736Z</time></trkpt><trkpt lat="38.0957897" lon="14.8708864"><ele>872.0</ele><time>2026-03-29T08:30:01.736Z</time></trkpt><trkpt lat="38.0956911" lon="14.8709887"><ele>872.0</ele><time>2026-03-29T08:30:02.736Z</time></trkpt><trkpt lat="38.0956096" lon="14.8710707"><ele>872.0</ele><time>2026-03-29T08:30:03.736Z</time></trkpt><trkpt lat="38.0955468" lon="14.8711393"><ele>873.0</ele><time>2026-03-29T08:30:04.736Z</time></trkpt><trkpt lat="38.0954616" lon="14.8712411"><ele>874.0</ele><time>2026-03-29T08:30:06.736Z</time></trkpt><trkpt lat="38.09536" lon="14.8713514"><ele>875.0</ele><time>2026-03-29T08:30:08.735Z</time></trkpt><trkpt lat="38.0952983" lon="14.8714567"><ele>876.0</ele><time>2026-03-29T08:30:09.735Z</time></trkpt><trkpt lat="38.0952433" lon="14.8715883"><ele>876.0</ele><time>2026-03-29T08:30:10.736Z</time></trkpt><trkpt lat="38.0952033" lon="14.8717033"><ele>876.0</ele><time>2026-03-29T08:30:11.736Z</time></trkpt><trkpt lat="38.09517" lon="14.8718067"><ele>876.0</ele><time>2026-03-29T08:30:12.735Z</time></trkpt><trkpt lat="38.0951317" lon="14.8719"><ele>876.0</ele><time>2026-03-29T08:30:13.735Z</time></trkpt><trkpt lat="38.09509" lon="14.8719733"><ele>876.0</ele><time>2026-03-29T08:30:14.735Z</time></trkpt><trkpt lat="38.0950367" lon="14.87204"><ele>876.0</ele><time>2026-03-29T08:30:15.736Z</time></trkpt><trkpt lat="38.0949683" lon="14.87211"><ele>875.0</ele><time>2026-03-29T08:30:16.735Z</time></trkpt><trkpt lat="38.0948917" lon="14.872175"><ele>874.0</ele><time>2026-03-29T08:30:17.735Z</time></trkpt><trkpt lat="38.0948217" lon="14.872245"><ele>873.0</ele><time>2026-03-29T08:30:18.735Z</time></trkpt><trkpt lat="38.0947733" lon="14.8722967"><ele>872.0</ele><time>2026-03-29T08:30:19.735Z</time></trkpt><trkpt lat="38.09472" lon="14.8724167"><ele>871.0</ele><time>2026-03-29T08:30:21.736Z</time></trkpt><trkpt lat="38.09475" lon="14.8725183"><ele>870.0</ele><time>2026-03-29T08:30:23.735Z</time></trkpt><trkpt lat="38.0948083" lon="14.8725717"><ele>870.6</ele><time>2026-03-29T08:30:24.736Z</time></trkpt><trkpt lat="38.0948817" lon="14.8726433"><ele>871.2</ele><time>2026-03-29T08:30:25.735Z</time></trkpt><trkpt lat="38.09496" lon="14.8727317"><ele>871.8</ele><time>2026-03-29T08:30:26.736Z</time></trkpt><trkpt lat="38.095025" lon="14.8728117"><ele>872.4</ele><time>2026-03-29T08:30:27.736Z</time></trkpt><trkpt lat="38.095065" lon="14.8729217"><ele>873.0</ele><time>2026-03-29T08:30:29.735Z</time></trkpt><trkpt lat="38.0950767" lon="14.8730667"><ele>874.4</ele><time>2026-03-29T08:30:31.735Z</time></trkpt><trkpt lat="38.09507" lon="14.8731533"><ele>875.8</ele><time>2026-03-29T08:30:32.736Z</time></trkpt><trkpt lat="38.0951183" lon="14.8733083"><ele>877.2</ele><time>2026-03-29T08:30:34.735Z</time></trkpt><trkpt lat="38.0951717" lon="14.8734033"><ele>878.6</ele><time>2026-03-29T08:30:35.736Z</time></trkpt><trkpt lat="38.0952483" lon="14.8735217"><ele>880.0</ele><time>2026-03-29T08:30:36.736Z</time></trkpt><trkpt lat="38.0953167" lon="14.8736367"><ele>879.9999999999999</ele><time>2026-03-29T08:30:37.735Z</time></trkpt><trkpt lat="38.0953633" lon="14.8737067"><ele>880.0</ele><time>2026-03-29T08:30:38.736Z</time></trkpt><trkpt lat="38.0954517" lon="14.8737717"><ele>880.0</ele><time>2026-03-29T08:30:40.736Z</time></trkpt><trkpt lat="38.09554" lon="14.873845"><ele>880.0</ele><time>2026-03-29T08:30:42.735Z</time></trkpt><trkpt lat="38.0955967" lon="14.8738867"><ele>879.9999999999999</ele><time>2026-03-29T08:30:43.735Z</time></trkpt><trkpt lat="38.0956617" lon="14.8739633"><ele>880.0</ele><time>2026-03-29T08:30:45.736Z</time></trkpt><trkpt lat="38.0957033" lon="14.87403"><ele>880.0</ele><time>2026-03-29T08:30:47.735Z</time></trkpt><trkpt lat="38.0957133" lon="14.8741433"><ele>880.0</ele><time>2026-03-29T08:30:50.736Z</time></trkpt><trkpt lat="38.0956833" lon="14.87428"><ele>880.0</ele><time>2026-03-29T08:30:52.736Z</time></trkpt><trkpt lat="38.095665" lon="14.8743583"><ele>880.0</ele><time>2026-03-29T08:30:53.735Z</time></trkpt><trkpt lat="38.0956933" lon="14.87448"><ele>880.0</ele><time>2026-03-29T08:30:55.736Z</time></trkpt><trkpt lat="38.0957917" lon="14.8745033"><ele>878.1666666666666</ele><time>2026-03-29T08:30:58.736Z</time></trkpt><trkpt lat="38.09588" lon="14.8745117"><ele>876.3333333333333</ele><time>2026-03-29T08:31:00.736Z</time></trkpt><trkpt lat="38.0959567" lon="14.8744817"><ele>874.5</ele><time>2026-03-29T08:31:02.736Z</time></trkpt><trkpt lat="38.0960267" lon="14.8744283"><ele>872.6666666666667</ele><time>2026-03-29T08:31:04.735Z</time></trkpt><trkpt lat="38.096125" lon="14.8744"><ele>870.8333333333334</ele><time>2026-03-29T08:31:06.735Z</time></trkpt><trkpt lat="38.09619" lon="14.874395"><ele>869.0</ele><time>2026-03-29T08:31:07.735Z</time></trkpt><trkpt lat="38.096305" lon="14.8743817"><ele>869.0000000000001</ele><time>2026-03-29T08:31:09.736Z</time></trkpt><trkpt lat="38.0964217" lon="14.8743983"><ele>869.0</ele><time>2026-03-29T08:31:11.735Z</time></trkpt><trkpt lat="38.096485" lon="14.8744017"><ele>869.0</ele><time>2026-03-29T08:31:12.736Z</time></trkpt><trkpt lat="38.0965667" lon="14.874415"><ele>869.0</ele><time>2026-03-29T08:31:14.736Z</time></trkpt><trkpt lat="38.0966517" lon="14.8744167"><ele>869.0000000000001</ele><time>2026-03-29T08:31:17.736Z</time></trkpt><trkpt lat="38.0967033" lon="14.87435"><ele>869.0</ele><time>2026-03-29T08:31:19.736Z</time></trkpt><trkpt lat="38.0967317" lon="14.8742783"><ele>864.6666666666667</ele><time>2026-03-29T08:31:21.736Z</time></trkpt><trkpt lat="38.0967917" lon="14.8742483"><ele>860.3333333333334</ele><time>2026-03-29T08:31:24.736Z</time></trkpt><trkpt lat="38.096845" lon="14.8743333"><ele>856.0</ele><time>2026-03-29T08:31:27.736Z</time></trkpt><trkpt lat="38.0968767" lon="14.874435"><ele>851.6666666666667</ele><time>2026-03-29T08:31:30.735Z</time></trkpt><trkpt lat="38.0968933" lon="14.8745367"><ele>847.3333333333334</ele><time>2026-03-29T08:31:33.735Z</time></trkpt><trkpt lat="38.0968967" lon="14.87462"><ele>843.0</ele><time>2026-03-29T08:31:36.736Z</time></trkpt><trkpt lat="38.096905" lon="14.87472"><ele>842.1666666666666</ele><time>2026-03-29T08:31:39.735Z</time></trkpt><trkpt lat="38.096865" lon="14.8748067"><ele>841.3333333333333</ele><time>2026-03-29T08:31:45.736Z</time></trkpt><trkpt lat="38.0968417" lon="14.8749033"><ele>840.5</ele><time>2026-03-29T08:31:48.736Z</time></trkpt><trkpt lat="38.0968617" lon="14.8750083"><ele>839.6666666666666</ele><time>2026-03-29T08:31:51.736Z</time></trkpt><trkpt lat="38.0968667" lon="14.8751333"><ele>838.8333333333333</ele><time>2026-03-29T08:31:54.736Z</time></trkpt><trkpt lat="38.09689" lon="14.875225"><ele>838.0</ele><time>2026-03-29T08:31:56.736Z</time></trkpt><trkpt lat="38.0969317" lon="14.8753083"><ele>835.4999999999999</ele><time>2026-03-29T08:31:58.736Z</time></trkpt><trkpt lat="38.0969683" lon="14.8753883"><ele>833.0</ele><time>2026-03-29T08:32:00.735Z</time></trkpt><trkpt lat="38.0970033" lon="14.8754767"><ele>830.5</ele><time>2026-03-29T08:32:03.736Z</time></trkpt><trkpt lat="38.09696" lon="14.8755633"><ele>828.0</ele><time>2026-03-29T08:32:07.736Z</time></trkpt><trkpt lat="38.0969617" lon="14.8756767"><ele>825.4999999999999</ele><time>2026-03-29T08:32:10.736Z</time></trkpt><trkpt lat="38.0969733" lon="14.8757617"><ele>823.0</ele><time>2026-03-29T08:32:12.736Z</time></trkpt><trkpt lat="38.0970017" lon="14.8758417"><ele>822.9999999999999</ele><time>2026-03-29T08:32:14.736Z</time></trkpt><trkpt lat="38.0970583" lon="14.875915"><ele>823.0</ele><time>2026-03-29T08:32:16.736Z</time></trkpt><trkpt lat="38.0971017" lon="14.8759933"><ele>823.0</ele><time>2026-03-29T08:32:18.735Z</time></trkpt><trkpt lat="38.09714" lon="14.8760617"><ele>823.0</ele><time>2026-03-29T08:32:20.736Z</time></trkpt><trkpt lat="38.0971783" lon="14.8761367"><ele>822.9999999999999</ele><time>2026-03-29T08:32:23.736Z</time></trkpt><trkpt lat="38.0972567" lon="14.8761667"><ele>823.0</ele><time>2026-03-29T08:32:26.735Z</time></trkpt><trkpt lat="38.0973383" lon="14.876155"><ele>820.1428571428571</ele><time>2026-03-29T08:32:29.735Z</time></trkpt><trkpt lat="38.097405" lon="14.8761317"><ele>817.2857142857143</ele><time>2026-03-29T08:32:32.735Z</time></trkpt><trkpt lat="38.097465" lon="14.8761567"><ele>814.4285714285713</ele><time>2026-03-29T08:32:43.736Z</time></trkpt><trkpt lat="38.0974617" lon="14.8762667"><ele>811.5714285714286</ele><time>2026-03-29T08:32:46.736Z</time></trkpt><trkpt lat="38.0974433" lon="14.8763433"><ele>808.7142857142857</ele><time>2026-03-29T08:32:48.736Z</time></trkpt><trkpt lat="38.0974383" lon="14.8764433"><ele>805.8571428571428</ele><time>2026-03-29T08:32:51.737Z</time></trkpt><trkpt lat="38.0974217" lon="14.8765417"><ele>803.0</ele><time>2026-03-29T08:32:54.737Z</time></trkpt><trkpt lat="38.0973967" lon="14.8766433"><ele>803.0000000000001</ele><time>2026-03-29T08:33:12.736Z</time></trkpt><trkpt lat="38.0974017" lon="14.8767317"><ele>803.0</ele><time>2026-03-29T08:33:14.736Z</time></trkpt><trkpt lat="38.0973617" lon="14.87686"><ele>803.0</ele><time>2026-03-29T08:33:16.736Z</time></trkpt><trkpt lat="38.0973267" lon="14.876935"><ele>803.0</ele><time>2026-03-29T08:33:17.737Z</time></trkpt><trkpt lat="38.0972883" lon="14.8770117"><ele>803.0000000000001</ele><time>2026-03-29T08:33:18.737Z</time></trkpt><trkpt lat="38.097245" lon="14.877095"><ele>803.0</ele><time>2026-03-29T08:33:19.737Z</time></trkpt><trkpt lat="38.0971983" lon="14.8771783"><ele>800.6666666666667</ele><time>2026-03-29T08:33:20.737Z</time></trkpt><trkpt lat="38.0971583" lon="14.8772433"><ele>798.3333333333334</ele><time>2026-03-29T08:33:21.736Z</time></trkpt><trkpt lat="38.0971117" lon="14.8773183"><ele>796.0</ele><time>2026-03-29T08:33:23.737Z</time></trkpt><trkpt lat="38.09718" lon="14.8773517"><ele>793.6666666666667</ele><time>2026-03-29T08:33:26.737Z</time></trkpt><trkpt lat="38.0972983" lon="14.8772733"><ele>791.3333333333334</ele><time>2026-03-29T08:33:28.736Z</time></trkpt><trkpt lat="38.0973733" lon="14.8772083"><ele>789.0</ele><time>2026-03-29T08:33:29.737Z</time></trkpt><trkpt lat="38.0974433" lon="14.8771517"><ele>787.6666666666666</ele><time>2026-03-29T08:33:30.736Z</time></trkpt><trkpt lat="38.0974967" lon="14.8770933"><ele>786.3333333333333</ele><time>2026-03-29T08:33:31.737Z</time></trkpt><trkpt lat="38.0975483" lon="14.877045"><ele>785.0</ele><time>2026-03-29T08:33:32.737Z</time></trkpt><trkpt lat="38.0976433" lon="14.8770233"><ele>783.6666666666666</ele><time>2026-03-29T08:33:34.737Z</time></trkpt><trkpt lat="38.097715" lon="14.8771267"><ele>782.3333333333333</ele><time>2026-03-29T08:33:36.737Z</time></trkpt><trkpt lat="38.0977267" lon="14.87722"><ele>781.0</ele><time>2026-03-29T08:33:37.736Z</time></trkpt><trkpt lat="38.0977433" lon="14.8773017"><ele>781.0</ele><time>2026-03-29T08:33:38.736Z</time></trkpt><trkpt lat="38.0977683" lon="14.8773817"><ele>781.0</ele><time>2026-03-29T08:33:39.737Z</time></trkpt><trkpt lat="38.0978467" lon="14.8774917"><ele>781.0</ele><time>2026-03-29T08:33:41.737Z</time></trkpt><trkpt lat="38.0979467" lon="14.8775583"><ele>781.0</ele><time>2026-03-29T08:33:43.737Z</time></trkpt><trkpt lat="38.098035" lon="14.8776267"><ele>781.0</ele><time>2026-03-29T08:33:45.737Z</time></trkpt><trkpt lat="38.0981067" lon="14.877685"><ele>781.0</ele><time>2026-03-29T08:33:48.736Z</time></trkpt><trkpt lat="38.0981567" lon="14.8777417"><ele>781.0</ele><time>2026-03-29T08:33:50.737Z</time></trkpt><trkpt lat="38.0982183" lon="14.8778117"><ele>781.0</ele><time>2026-03-29T08:36:10.737Z</time></trkpt><trkpt lat="38.09815" lon="14.87773"><ele>781.0</ele><time>2026-03-29T08:36:15.736Z</time></trkpt><trkpt lat="38.0980733" lon="14.8776733"><ele>781.0</ele><time>2026-03-29T08:36:17.736Z</time></trkpt><trkpt lat="38.0979683" lon="14.8775983"><ele>780.9999999999999</ele><time>2026-03-29T08:36:19.737Z</time></trkpt><trkpt lat="38.097915" lon="14.877555"><ele>781.0</ele><time>2026-03-29T08:36:20.736Z</time></trkpt><trkpt lat="38.0978617" lon="14.877505"><ele>781.0</ele><time>2026-03-29T08:36:21.737Z</time></trkpt><trkpt lat="38.0977833" lon="14.8773983"><ele>781.0</ele><time>2026-03-29T08:36:23.736Z</time></trkpt><trkpt lat="38.0977617" lon="14.8773167"><ele>780.9999999999999</ele><time>2026-03-29T08:36:24.737Z</time></trkpt><trkpt lat="38.0977467" lon="14.8772033"><ele>781.0</ele><time>2026-03-29T08:36:25.737Z</time></trkpt><trkpt lat="38.0977233" lon="14.8771217"><ele>781.0</ele><time>2026-03-29T08:36:26.737Z</time></trkpt><trkpt lat="38.0976383" lon="14.87704"><ele>781.0</ele><time>2026-03-29T08:36:28.737Z</time></trkpt><trkpt lat="38.0975333" lon="14.8770933"><ele>781.0</ele><time>2026-03-29T08:36:30.737Z</time></trkpt><trkpt lat="38.0974633" lon="14.87716"><ele>781.0</ele><time>2026-03-29T08:36:31.737Z</time></trkpt><trkpt lat="38.0973867" lon="14.877215"><ele>781.0</ele><time>2026-03-29T08:36:32.736Z</time></trkpt><trkpt lat="38.0973017" lon="14.87728"><ele>782.3333333333333</ele><time>2026-03-29T08:36:33.736Z</time></trkpt><trkpt lat="38.0972267" lon="14.8773317"><ele>783.6666666666666</ele><time>2026-03-29T08:36:34.737Z</time></trkpt><trkpt lat="38.0971583" lon="14.8773667"><ele>785.0</ele><time>2026-03-29T08:36:35.737Z</time></trkpt><trkpt lat="38.097095" lon="14.87736"><ele>786.3333333333333</ele><time>2026-03-29T08:36:38.737Z</time></trkpt><trkpt lat="38.097125" lon="14.877285"><ele>787.6666666666666</ele><time>2026-03-29T08:36:40.736Z</time></trkpt><trkpt lat="38.0972117" lon="14.8771383"><ele>789.0</ele><time>2026-03-29T08:36:42.737Z</time></trkpt><trkpt lat="38.097275" lon="14.8770367"><ele>789.0</ele><time>2026-03-29T08:36:43.737Z</time></trkpt><trkpt lat="38.0973367" lon="14.8769417"><ele>789.0</ele><time>2026-03-29T08:36:44.736Z</time></trkpt><trkpt lat="38.0973883" lon="14.87684"><ele>789.0</ele><time>2026-03-29T08:36:45.736Z</time></trkpt><trkpt lat="38.0974233" lon="14.8767217"><ele>789.0</ele><time>2026-03-29T08:36:46.737Z</time></trkpt><trkpt lat="38.0974333" lon="14.876605"><ele>789.0</ele><time>2026-03-29T08:36:47.736Z</time></trkpt><trkpt lat="38.09744" lon="14.8764933"><ele>789.1666666666666</ele><time>2026-03-29T08:36:48.737Z</time></trkpt><trkpt lat="38.0974467" lon="14.8763667"><ele>789.3333333333333</ele><time>2026-03-29T08:36:49.736Z</time></trkpt><trkpt lat="38.09746" lon="14.876255"><ele>789.5</ele><time>2026-03-29T08:36:50.737Z</time></trkpt><trkpt lat="38.0974717" lon="14.87615"><ele>789.6666666666666</ele><time>2026-03-29T08:36:51.737Z</time></trkpt><trkpt lat="38.0974783" lon="14.8760583"><ele>789.8333333333333</ele><time>2026-03-29T08:36:52.736Z</time></trkpt><trkpt lat="38.0974733" lon="14.8759517"><ele>790.0</ele><time>2026-03-29T08:36:53.736Z</time></trkpt><trkpt lat="38.097455" lon="14.8758417"><ele>792.1666666666666</ele><time>2026-03-29T08:36:54.737Z</time></trkpt><trkpt lat="38.0974467" lon="14.8757383"><ele>794.3333333333333</ele><time>2026-03-29T08:36:55.737Z</time></trkpt><trkpt lat="38.0974533" lon="14.8756483"><ele>796.5</ele><time>2026-03-29T08:36:56.737Z</time></trkpt><trkpt lat="38.0974767" lon="14.8755667"><ele>798.6666666666667</ele><time>2026-03-29T08:36:57.737Z</time></trkpt><trkpt lat="38.0975183" lon="14.8754817"><ele>800.8333333333334</ele><time>2026-03-29T08:36:58.737Z</time></trkpt><trkpt lat="38.0975667" lon="14.875415"><ele>803.0</ele><time>2026-03-29T08:36:59.737Z</time></trkpt><trkpt lat="38.0976317" lon="14.8753567"><ele>803.0</ele><time>2026-03-29T08:37:00.737Z</time></trkpt><trkpt lat="38.0977283" lon="14.87531"><ele>803.0</ele><time>2026-03-29T08:37:01.736Z</time></trkpt><trkpt lat="38.097835" lon="14.8752667"><ele>803.0</ele><time>2026-03-29T08:37:02.737Z</time></trkpt><trkpt lat="38.0979183" lon="14.8752233"><ele>803.0</ele><time>2026-03-29T08:37:03.737Z</time></trkpt><trkpt lat="38.0979933" lon="14.8751633"><ele>803.0</ele><time>2026-03-29T08:37:04.737Z</time></trkpt><trkpt lat="38.098045" lon="14.8750767"><ele>800.5999999999999</ele><time>2026-03-29T08:37:05.737Z</time></trkpt><trkpt lat="38.0980967" lon="14.87497"><ele>798.1999999999999</ele><time>2026-03-29T08:37:06.737Z</time></trkpt><trkpt lat="38.0981367" lon="14.874845"><ele>795.8</ele><time>2026-03-29T08:37:07.737Z</time></trkpt><trkpt lat="38.0981767" lon="14.8747083"><ele>793.4</ele><time>2026-03-29T08:37:08.737Z</time></trkpt><trkpt lat="38.098215" lon="14.874575"><ele>791.0</ele><time>2026-03-29T08:37:09.737Z</time></trkpt><trkpt lat="38.0982517" lon="14.8744583"><ele>791.0000000000001</ele><time>2026-03-29T08:37:10.737Z</time></trkpt><trkpt lat="38.0982833" lon="14.87434"><ele>791.0</ele><time>2026-03-29T08:37:11.738Z</time></trkpt><trkpt lat="38.0982967" lon="14.8742417"><ele>791.0</ele><time>2026-03-29T08:37:12.738Z</time></trkpt><trkpt lat="38.0983017" lon="14.8741533"><ele>791.0</ele><time>2026-03-29T08:37:13.738Z</time></trkpt><trkpt lat="38.0983133" lon="14.87407"><ele>791.0000000000001</ele><time>2026-03-29T08:37:14.738Z</time></trkpt><trkpt lat="38.0983283" lon="14.873975"><ele>791.0</ele><time>2026-03-29T08:37:16.738Z</time></trkpt><trkpt lat="38.0983183" lon="14.8740867"><ele>792.0000000000001</ele><time>2026-03-29T08:37:20.738Z</time></trkpt><trkpt lat="38.0983283" lon="14.8741833"><ele>793.0</ele><time>2026-03-29T08:37:22.737Z</time></trkpt><trkpt lat="38.0982383" lon="14.87417"><ele>794.0</ele><time>2026-03-29T08:37:49.738Z</time></trkpt><trkpt lat="38.0981717" lon="14.8741417"><ele>795.0</ele><time>2026-03-29T08:37:51.738Z</time></trkpt><trkpt lat="38.09807" lon="14.8741217"><ele>796.0000000000001</ele><time>2026-03-29T08:37:53.738Z</time></trkpt><trkpt lat="38.0979767" lon="14.87413"><ele>797.0</ele><time>2026-03-29T08:37:55.737Z</time></trkpt><trkpt lat="38.0979017" lon="14.87413"><ele>800.6666666666667</ele><time>2026-03-29T08:37:57.737Z</time></trkpt><trkpt lat="38.097835" lon="14.8741083"><ele>804.3333333333334</ele><time>2026-03-29T08:37:59.737Z</time></trkpt><trkpt lat="38.0977733" lon="14.8740667"><ele>808.0</ele><time>2026-03-29T08:38:01.738Z</time></trkpt><trkpt lat="38.097715" lon="14.8740067"><ele>811.6666666666667</ele><time>2026-03-29T08:38:03.738Z</time></trkpt><trkpt lat="38.0976483" lon="14.873975"><ele>815.3333333333334</ele><time>2026-03-29T08:38:05.737Z</time></trkpt><trkpt lat="38.0975467" lon="14.8739667"><ele>819.0</ele><time>2026-03-29T08:38:07.737Z</time></trkpt><trkpt lat="38.0974317" lon="14.87394"><ele>823.8000000000001</ele><time>2026-03-29T08:38:09.737Z</time></trkpt><trkpt lat="38.0973167" lon="14.8739117"><ele>828.6</ele><time>2026-03-29T08:38:11.738Z</time></trkpt><trkpt lat="38.09722" lon="14.8738433"><ele>833.4</ele><time>2026-03-29T08:38:13.738Z</time></trkpt><trkpt lat="38.0971533" lon="14.8737617"><ele>838.2</ele><time>2026-03-29T08:38:15.738Z</time></trkpt><trkpt lat="38.0971133" lon="14.87366"><ele>843.0</ele><time>2026-03-29T08:38:17.738Z</time></trkpt><trkpt lat="38.0971067" lon="14.873565"><ele>843.0</ele><time>2026-03-29T08:38:19.737Z</time></trkpt><trkpt lat="38.0971083" lon="14.8734667"><ele>843.0</ele><time>2026-03-29T08:38:21.738Z</time></trkpt><trkpt lat="38.0971267" lon="14.8733767"><ele>843.0</ele><time>2026-03-29T08:38:23.738Z</time></trkpt><trkpt lat="38.0972067" lon="14.873275"><ele>843.0</ele><time>2026-03-29T08:38:41.737Z</time></trkpt><trkpt lat="38.0972533" lon="14.8733433"><ele>843.0</ele><time>2026-03-29T08:38:52.737Z</time></trkpt><trkpt lat="38.0971967" lon="14.8734233"><ele>843.0</ele><time>2026-03-29T08:39:27.738Z</time></trkpt><trkpt lat="38.0971283" lon="14.8734367"><ele>843.0</ele><time>2026-03-29T08:39:29.738Z</time></trkpt><trkpt lat="38.09705" lon="14.87348"><ele>843.0</ele><time>2026-03-29T08:39:32.737Z</time></trkpt><trkpt lat="38.0970133" lon="14.8735717"><ele>843.0</ele><time>2026-03-29T08:39:35.738Z</time></trkpt><trkpt lat="38.097035" lon="14.87366"><ele>843.0</ele><time>2026-03-29T08:39:38.737Z</time></trkpt><trkpt lat="38.097015" lon="14.873745"><ele>843.0</ele><time>2026-03-29T08:39:43.738Z</time></trkpt><trkpt lat="38.097025" lon="14.873825"><ele>843.0</ele><time>2026-03-29T08:39:46.738Z</time></trkpt><trkpt lat="38.09699" lon="14.873915"><ele>843.0</ele><time>2026-03-29T08:39:49.737Z</time></trkpt><trkpt lat="38.0969617" lon="14.8740167"><ele>843.0</ele><time>2026-03-29T08:39:51.737Z</time></trkpt><trkpt lat="38.0969383" lon="14.87412"><ele>843.0</ele><time>2026-03-29T08:39:53.738Z</time></trkpt><trkpt lat="38.0969117" lon="14.874205"><ele>843.0</ele><time>2026-03-29T08:39:55.738Z</time></trkpt><trkpt lat="38.096835" lon="14.8742767"><ele>843.0</ele><time>2026-03-29T08:40:02.738Z</time></trkpt><trkpt lat="38.0967583" lon="14.8742567"><ele>843.0</ele><time>2026-03-29T08:40:05.738Z</time></trkpt><trkpt lat="38.096715" lon="14.874365"><ele>842.1666666666666</ele><time>2026-03-29T08:40:08.738Z</time></trkpt><trkpt lat="38.0966667" lon="14.8744233"><ele>841.3333333333333</ele><time>2026-03-29T08:40:10.738Z</time></trkpt><trkpt lat="38.0966033" lon="14.8743983"><ele>840.5</ele><time>2026-03-29T08:40:13.737Z</time></trkpt><trkpt lat="38.0965417" lon="14.8743583"><ele>839.6666666666666</ele><time>2026-03-29T08:40:15.737Z</time></trkpt><trkpt lat="38.0964583" lon="14.8743633"><ele>838.8333333333333</ele><time>2026-03-29T08:40:17.737Z</time></trkpt><trkpt lat="38.0964" lon="14.874395"><ele>838.0</ele><time>2026-03-29T08:40:18.738Z</time></trkpt><trkpt lat="38.0962683" lon="14.8744133"><ele>843.1666666666666</ele><time>2026-03-29T08:40:20.738Z</time></trkpt><trkpt lat="38.0961833" lon="14.8744217"><ele>848.3333333333333</ele><time>2026-03-29T08:40:21.737Z</time></trkpt><trkpt lat="38.096095" lon="14.8744333"><ele>853.5</ele><time>2026-03-29T08:40:22.738Z</time></trkpt><trkpt lat="38.09602" lon="14.8744467"><ele>858.6666666666667</ele><time>2026-03-29T08:40:23.738Z</time></trkpt><trkpt lat="38.095955" lon="14.8744617"><ele>863.8333333333334</ele><time>2026-03-29T08:40:24.738Z</time></trkpt><trkpt lat="38.095855" lon="14.8745283"><ele>869.0</ele><time>2026-03-29T08:40:26.738Z</time></trkpt><trkpt lat="38.0957683" lon="14.8745283"><ele>869.0</ele><time>2026-03-29T08:40:28.737Z</time></trkpt><trkpt lat="38.09568" lon="14.874475"><ele>869.0000000000001</ele><time>2026-03-29T08:40:30.738Z</time></trkpt><trkpt lat="38.095575" lon="14.8744217"><ele>869.0000000000001</ele><time>2026-03-29T08:40:32.737Z</time></trkpt><trkpt lat="38.0954517" lon="14.8744167"><ele>869.0</ele><time>2026-03-29T08:40:34.738Z</time></trkpt><trkpt lat="38.0953783" lon="14.8744383"><ele>869.0</ele><time>2026-03-29T08:40:35.738Z</time></trkpt><trkpt lat="38.0952767" lon="14.8745183"><ele>869.0</ele><time>2026-03-29T08:40:37.737Z</time></trkpt><trkpt lat="38.095225" lon="14.874575"><ele>869.0</ele><time>2026-03-29T08:40:39.738Z</time></trkpt><trkpt lat="38.0952667" lon="14.874665"><ele>869.0</ele><time>2026-03-29T08:40:43.738Z</time></trkpt><trkpt lat="38.0953083" lon="14.8747267"><ele>869.0</ele><time>2026-03-29T08:40:45.738Z</time></trkpt><trkpt lat="38.0953183" lon="14.874815"><ele>869.0</ele><time>2026-03-29T08:40:47.738Z</time></trkpt><trkpt lat="38.095355" lon="14.8749"><ele>869.0</ele><time>2026-03-29T08:40:50.738Z</time></trkpt><trkpt lat="38.0954017" lon="14.874985"><ele>869.0</ele><time>2026-03-29T08:40:53.737Z</time></trkpt><trkpt lat="38.0954817" lon="14.8749867"><ele>869.0000000000001</ele><time>2026-03-29T08:40:56.738Z</time></trkpt><trkpt lat="38.0955533" lon="14.8749567"><ele>869.0</ele><time>2026-03-29T08:40:58.738Z</time></trkpt><trkpt lat="38.09564" lon="14.8749633"><ele>869.0</ele><time>2026-03-29T08:41:00.738Z</time></trkpt><trkpt lat="38.0957133" lon="14.8749783"><ele>869.0</ele><time>2026-03-29T08:41:02.738Z</time></trkpt><trkpt lat="38.0957933" lon="14.8749783"><ele>869.0000000000001</ele><time>2026-03-29T08:41:05.738Z</time></trkpt><trkpt lat="38.0958733" lon="14.8750133"><ele>869.0</ele><time>2026-03-29T08:41:08.738Z</time></trkpt><trkpt lat="38.0959" lon="14.8750917"><ele>866.4285714285714</ele><time>2026-03-29T08:41:10.738Z</time></trkpt><trkpt lat="38.0959083" lon="14.8751867"><ele>863.8571428571428</ele><time>2026-03-29T08:41:12.737Z</time></trkpt><trkpt lat="38.0959133" lon="14.875295"><ele>861.2857142857142</ele><time>2026-03-29T08:41:14.738Z</time></trkpt><trkpt lat="38.0959233" lon="14.8753983"><ele>858.7142857142858</ele><time>2026-03-29T08:41:16.738Z</time></trkpt><trkpt lat="38.09592" lon="14.87549"><ele>856.1428571428571</ele><time>2026-03-29T08:41:18.738Z</time></trkpt><trkpt lat="38.0959017" lon="14.8755717"><ele>853.5714285714286</ele><time>2026-03-29T08:41:20.737Z</time></trkpt><trkpt lat="38.09587" lon="14.8756433"><ele>851.0</ele><time>2026-03-29T08:41:22.738Z</time></trkpt><trkpt lat="38.0958267" lon="14.87573"><ele>851.0000000000001</ele><time>2026-03-29T08:41:25.738Z</time></trkpt><trkpt lat="38.09578" lon="14.8758117"><ele>851.0</ele><time>2026-03-29T08:41:28.737Z</time></trkpt><trkpt lat="38.0957417" lon="14.8759167"><ele>851.0</ele><time>2026-03-29T08:41:31.738Z</time></trkpt><trkpt lat="38.0957083" lon="14.8760117"><ele>851.0</ele><time>2026-03-29T08:41:33.738Z</time></trkpt><trkpt lat="38.0956767" lon="14.8760983"><ele>851.0000000000001</ele><time>2026-03-29T08:41:35.738Z</time></trkpt><trkpt lat="38.0957067" lon="14.8760183"><ele>851.0</ele><time>2026-03-29T08:41:44.739Z</time></trkpt><trkpt lat="38.09573" lon="14.8759233"><ele>851.0</ele><time>2026-03-29T08:41:46.738Z</time></trkpt><trkpt lat="38.0957533" lon="14.8758483"><ele>851.0</ele><time>2026-03-29T08:41:48.739Z</time></trkpt><trkpt lat="38.09579" lon="14.875755"><ele>851.0</ele><time>2026-03-29T08:41:50.739Z</time></trkpt><trkpt lat="38.0958633" lon="14.8756333"><ele>851.0</ele><time>2026-03-29T08:41:52.738Z</time></trkpt><trkpt lat="38.095915" lon="14.875505"><ele>851.0</ele><time>2026-03-29T08:41:54.739Z</time></trkpt><trkpt lat="38.0959217" lon="14.8753483"><ele>851.0000000000001</ele><time>2026-03-29T08:41:56.738Z</time></trkpt><trkpt lat="38.0959133" lon="14.87526"><ele>851.0</ele><time>2026-03-29T08:41:57.738Z</time></trkpt><trkpt lat="38.09591" lon="14.8751683"><ele>851.0</ele><time>2026-03-29T08:41:58.739Z</time></trkpt><trkpt lat="38.0959083" lon="14.8750517"><ele>851.0</ele><time>2026-03-29T08:41:59.739Z</time></trkpt><trkpt lat="38.0959017" lon="14.8749417"><ele>851.0000000000001</ele><time>2026-03-29T08:42:00.739Z</time></trkpt><trkpt lat="38.0958933" lon="14.874835"><ele>851.0</ele><time>2026-03-29T08:42:01.739Z</time></trkpt><trkpt lat="38.0958617" lon="14.8746967"><ele>854.0000000000001</ele><time>2026-03-29T08:42:03.739Z</time></trkpt><trkpt lat="38.0958017" lon="14.874615"><ele>857.0</ele><time>2026-03-29T08:42:05.739Z</time></trkpt><trkpt lat="38.0957367" lon="14.8745817"><ele>860.0</ele><time>2026-03-29T08:42:07.738Z</time></trkpt><trkpt lat="38.0956467" lon="14.87461"><ele>863.0</ele><time>2026-03-29T08:42:09.739Z</time></trkpt><trkpt lat="38.0955267" lon="14.8746017"><ele>866.0000000000001</ele><time>2026-03-29T08:42:11.739Z</time></trkpt><trkpt lat="38.09547" lon="14.8745483"><ele>869.0</ele><time>2026-03-29T08:42:12.738Z</time></trkpt><trkpt lat="38.0954183" lon="14.8744633"><ele>869.0000000000001</ele><time>2026-03-29T08:42:13.739Z</time></trkpt><trkpt lat="38.09539" lon="14.8743433"><ele>869.0</ele><time>2026-03-29T08:42:14.739Z</time></trkpt><trkpt lat="38.09538" lon="14.8742383"><ele>869.0</ele><time>2026-03-29T08:42:15.739Z</time></trkpt><trkpt lat="38.0953617" lon="14.87416"><ele>869.0</ele><time>2026-03-29T08:42:16.739Z</time></trkpt><trkpt lat="38.09532" lon="14.874055"><ele>869.0000000000001</ele><time>2026-03-29T08:42:18.738Z</time></trkpt><trkpt lat="38.09532" lon="14.87394"><ele>869.0</ele><time>2026-03-29T08:42:20.738Z</time></trkpt><trkpt lat="38.0953433" lon="14.8738083"><ele>871.2</ele><time>2026-03-29T08:42:22.739Z</time></trkpt><trkpt lat="38.0953217" lon="14.8736533"><ele>873.4000000000001</ele><time>2026-03-29T08:42:24.739Z</time></trkpt><trkpt lat="38.0952817" lon="14.8735667"><ele>875.6</ele><time>2026-03-29T08:42:25.738Z</time></trkpt><trkpt lat="38.095225" lon="14.8734633"><ele>877.8</ele><time>2026-03-29T08:42:26.738Z</time></trkpt><trkpt lat="38.0951683" lon="14.8733667"><ele>880.0</ele><time>2026-03-29T08:42:27.738Z</time></trkpt><trkpt lat="38.09512" lon="14.87328"><ele>880.1666666666666</ele><time>2026-03-29T08:42:28.739Z</time></trkpt><trkpt lat="38.0950867" lon="14.873195"><ele>880.3333333333333</ele><time>2026-03-29T08:42:29.739Z</time></trkpt><trkpt lat="38.095075" lon="14.8731"><ele>880.5</ele><time>2026-03-29T08:42:30.739Z</time></trkpt><trkpt lat="38.0950717" lon="14.8730083"><ele>880.6666666666667</ele><time>2026-03-29T08:42:31.738Z</time></trkpt><trkpt lat="38.0950633" lon="14.8728917"><ele>880.8333333333334</ele><time>2026-03-29T08:42:33.738Z</time></trkpt><trkpt lat="38.0950067" lon="14.8728067"><ele>881.0</ele><time>2026-03-29T08:42:36.739Z</time></trkpt><trkpt lat="38.09495" lon="14.872725"><ele>879.8571428571428</ele><time>2026-03-29T08:42:39.739Z</time></trkpt><trkpt lat="38.0949033" lon="14.8726533"><ele>878.7142857142858</ele><time>2026-03-29T08:42:41.739Z</time></trkpt><trkpt lat="38.0948417" lon="14.8725883"><ele>877.5714285714286</ele><time>2026-03-29T08:42:43.738Z</time></trkpt><trkpt lat="38.0948" lon="14.8725283"><ele>876.4285714285713</ele><time>2026-03-29T08:42:45.739Z</time></trkpt><trkpt lat="38.0947333" lon="14.8724783"><ele>875.2857142857142</ele><time>2026-03-29T08:42:47.738Z</time></trkpt><trkpt lat="38.0946633" lon="14.8724883"><ele>874.1428571428571</ele><time>2026-03-29T08:42:49.738Z</time></trkpt><trkpt lat="38.0945833" lon="14.87252"><ele>873.0</ele><time>2026-03-29T08:42:52.739Z</time></trkpt><trkpt lat="38.0945533" lon="14.8725917"><ele>873.0</ele><time>2026-03-29T08:42:55.738Z</time></trkpt><trkpt lat="38.0945433" lon="14.8726967"><ele>873.0</ele><time>2026-03-29T08:42:57.739Z</time></trkpt><trkpt lat="38.0945983" lon="14.8727367"><ele>873.0</ele><time>2026-03-29T08:42:59.738Z</time></trkpt><trkpt lat="38.09471" lon="14.8726133"><ele>873.0</ele><time>2026-03-29T08:43:01.739Z</time></trkpt><trkpt lat="38.0947583" lon="14.8725433"><ele>873.0</ele><time>2026-03-29T08:43:02.739Z</time></trkpt><trkpt lat="38.0947783" lon="14.8724483"><ele>873.0</ele><time>2026-03-29T08:43:04.738Z</time></trkpt><trkpt lat="38.0948033" lon="14.8723717"><ele>872.4</ele><time>2026-03-29T08:43:06.739Z</time></trkpt><trkpt lat="38.0947983" lon="14.8722917"><ele>871.8</ele><time>2026-03-29T08:43:08.738Z</time></trkpt><trkpt lat="38.09471" lon="14.8722433"><ele>871.2</ele><time>2026-03-29T08:43:10.739Z</time></trkpt><trkpt lat="38.094615" lon="14.8722433"><ele>870.6</ele><time>2026-03-29T08:43:12.739Z</time></trkpt><trkpt lat="38.0945183" lon="14.8722483"><ele>870.0</ele><time>2026-03-29T08:43:14.739Z</time></trkpt><trkpt lat="38.094415" lon="14.872245"><ele>870.0</ele><time>2026-03-29T08:43:16.738Z</time></trkpt><trkpt lat="38.0942917" lon="14.8722617"><ele>870.0</ele><time>2026-03-29T08:43:18.739Z</time></trkpt><trkpt lat="38.0942083" lon="14.8722767"><ele>870.0</ele><time>2026-03-29T08:43:20.739Z</time></trkpt><trkpt lat="38.0941167" lon="14.87228"><ele>870.0</ele><time>2026-03-29T08:43:23.739Z</time></trkpt><trkpt lat="38.0940383" lon="14.8722583"><ele>870.0</ele><time>2026-03-29T08:43:25.738Z</time></trkpt><trkpt lat="38.0939833" lon="14.872215"><ele>870.0</ele><time>2026-03-29T08:43:27.738Z</time></trkpt><trkpt lat="38.0939033" lon="14.8720767"><ele>866.0</ele><time>2026-03-29T08:44:06.739Z</time></trkpt><trkpt lat="38.0939717" lon="14.8721983"><ele>862.0</ele><time>2026-03-29T08:44:27.739Z</time></trkpt><trkpt lat="38.0939273" lon="14.8721288"><ele>858.0</ele><time>2026-03-29T08:45:26.739Z</time></trkpt><trkpt lat="38.0939807" lon="14.8721754"><ele>854.0</ele><time>2026-03-29T08:46:00.738Z</time></trkpt><trkpt lat="38.093925" lon="14.872104"><ele>850.0</ele><time>2026-03-29T08:46:15.739Z</time></trkpt><trkpt lat="38.0939771" lon="14.8721685"><ele>846.0</ele><time>2026-03-29T08:46:43.739Z</time></trkpt><trkpt lat="38.0939161" lon="14.8720836"><ele>846.0</ele><time>2026-03-29T08:50:11.74Z</time></trkpt><trkpt lat="38.0938402" lon="14.8720375"><ele>846.0</ele><time>2026-03-29T08:50:14.739Z</time></trkpt><trkpt lat="38.0937845" lon="14.8719699"><ele>846.0</ele><time>2026-03-29T08:50:17.74Z</time></trkpt><trkpt lat="38.0937243" lon="14.8718836"><ele>846.0</ele><time>2026-03-29T08:50:20.74Z</time></trkpt><trkpt lat="38.0937244" lon="14.8717923"><ele>846.0</ele><time>2026-03-29T08:50:23.74Z</time></trkpt><trkpt lat="38.0937789" lon="14.8716761"><ele>846.0</ele><time>2026-03-29T08:50:26.739Z</time></trkpt><trkpt lat="38.0938483" lon="14.8715814"><ele>844.8333333333334</ele><time>2026-03-29T08:50:28.739Z</time></trkpt><trkpt lat="38.0938989" lon="14.87152"><ele>843.6666666666667</ele><time>2026-03-29T08:50:29.739Z</time></trkpt><trkpt lat="38.0939592" lon="14.8714605"><ele>842.5</ele><time>2026-03-29T08:50:30.74Z</time></trkpt><trkpt lat="38.0940269" lon="14.8714149"><ele>841.3333333333334</ele><time>2026-03-29T08:50:31.739Z</time></trkpt><trkpt lat="38.0940884" lon="14.8713812"><ele>840.1666666666667</ele><time>2026-03-29T08:50:32.741Z</time></trkpt><trkpt lat="38.0941909" lon="14.8713621"><ele>839.0</ele><time>2026-03-29T08:50:34.74Z</time></trkpt><trkpt lat="38.094255" lon="14.8713433"><ele>839.0</ele><time>2026-03-29T08:50:36.741Z</time></trkpt><trkpt lat="38.09429" lon="14.8712467"><ele>839.0</ele><time>2026-03-29T08:50:39.741Z</time></trkpt><trkpt lat="38.094235" lon="14.8711817"><ele>839.0</ele><time>2026-03-29T08:50:41.741Z</time></trkpt><trkpt lat="38.094135" lon="14.8711167"><ele>839.0</ele><time>2026-03-29T08:50:43.741Z</time></trkpt><trkpt lat="38.0940283" lon="14.871065"><ele>839.0</ele><time>2026-03-29T08:50:45.741Z</time></trkpt><trkpt lat="38.0939367" lon="14.871035"><ele>839.0000000000001</ele><time>2026-03-29T08:50:47.741Z</time></trkpt><trkpt lat="38.0938533" lon="14.871015"><ele>839.0</ele><time>2026-03-29T08:50:49.741Z</time></trkpt><trkpt lat="38.09376" lon="14.871"><ele>839.0</ele><time>2026-03-29T08:50:51.74Z</time></trkpt><trkpt lat="38.093685" lon="14.870995"><ele>839.0</ele><time>2026-03-29T08:50:53.741Z</time></trkpt><trkpt lat="38.0936017" lon="14.8710183"><ele>839.0000000000001</ele><time>2026-03-29T08:50:55.741Z</time></trkpt><trkpt lat="38.0935017" lon="14.8710283"><ele>839.0</ele><time>2026-03-29T08:50:57.741Z</time></trkpt><trkpt lat="38.0934167" lon="14.871045"><ele>839.0000000000001</ele><time>2026-03-29T08:50:59.741Z</time></trkpt><trkpt lat="38.0933483" lon="14.87109"><ele>839.0</ele><time>2026-03-29T08:51:02.74Z</time></trkpt><trkpt lat="38.0932833" lon="14.871165"><ele>839.0</ele><time>2026-03-29T08:51:05.741Z</time></trkpt><trkpt lat="38.093215" lon="14.8712183"><ele>839.0</ele><time>2026-03-29T08:51:08.741Z</time></trkpt><trkpt lat="38.093195" lon="14.8711133"><ele>839.0000000000001</ele><time>2026-03-29T08:51:29.74Z</time></trkpt><trkpt lat="38.09323" lon="14.871015"><ele>839.0</ele><time>2026-03-29T08:51:32.741Z</time></trkpt><trkpt lat="38.093255" lon="14.8709333"><ele>837.2857142857142</ele><time>2026-03-29T08:51:34.741Z</time></trkpt><trkpt lat="38.0933083" lon="14.87088"><ele>835.5714285714287</ele><time>2026-03-29T08:51:36.741Z</time></trkpt><trkpt lat="38.09336" lon="14.8708283"><ele>833.8571428571429</ele><time>2026-03-29T08:51:38.741Z</time></trkpt><trkpt lat="38.09342" lon="14.8707967"><ele>832.1428571428571</ele><time>2026-03-29T08:51:40.741Z</time></trkpt><trkpt lat="38.0934967" lon="14.8707717"><ele>830.4285714285713</ele><time>2026-03-29T08:51:42.741Z</time></trkpt><trkpt lat="38.0935717" lon="14.870745"><ele>828.7142857142858</ele><time>2026-03-29T08:51:44.741Z</time></trkpt><trkpt lat="38.0936383" lon="14.8706683"><ele>827.0</ele><time>2026-03-29T08:51:47.741Z</time></trkpt><trkpt lat="38.0936817" lon="14.8705967"><ele>827.0000000000001</ele><time>2026-03-29T08:51:49.741Z</time></trkpt><trkpt lat="38.0937417" lon="14.8705283"><ele>827.0</ele><time>2026-03-29T08:51:52.741Z</time></trkpt><trkpt lat="38.0938133" lon="14.87046"><ele>827.0</ele><time>2026-03-29T08:51:55.741Z</time></trkpt><trkpt lat="38.0938617" lon="14.8703733"><ele>827.0</ele><time>2026-03-29T08:52:05.741Z</time></trkpt><trkpt lat="38.0938783" lon="14.8702833"><ele>827.0000000000001</ele><time>2026-03-29T08:52:08.741Z</time></trkpt><trkpt lat="38.0938767" lon="14.87019"><ele>827.0</ele><time>2026-03-29T08:52:11.741Z</time></trkpt><trkpt lat="38.0939033" lon="14.87011"><ele>822.2</ele><time>2026-03-29T08:52:14.74Z</time></trkpt><trkpt lat="38.0939217" lon="14.870005"><ele>817.4000000000001</ele><time>2026-03-29T08:52:18.741Z</time></trkpt><trkpt lat="38.0939433" lon="14.8699017"><ele>812.5999999999999</ele><time>2026-03-29T08:52:21.74Z</time></trkpt><trkpt lat="38.0939683" lon="14.8697917"><ele>807.8</ele><time>2026-03-29T08:52:24.74Z</time></trkpt><trkpt lat="38.094" lon="14.869685"><ele>803.0</ele><time>2026-03-29T08:52:26.741Z</time></trkpt><trkpt lat="38.094045" lon="14.86957"><ele>803.0000000000001</ele><time>2026-03-29T08:52:28.74Z</time></trkpt><trkpt lat="38.094085" lon="14.8694783"><ele>803.0</ele><time>2026-03-29T08:52:30.741Z</time></trkpt><trkpt lat="38.0941283" lon="14.869395"><ele>803.0</ele><time>2026-03-29T08:52:32.741Z</time></trkpt><trkpt lat="38.0941567" lon="14.8693183"><ele>803.0</ele><time>2026-03-29T08:52:34.74Z</time></trkpt><trkpt lat="38.0941483" lon="14.8692383"><ele>803.0000000000001</ele><time>2026-03-29T08:52:36.741Z</time></trkpt><trkpt lat="38.0941317" lon="14.8691483"><ele>803.0</ele><time>2026-03-29T08:52:40.741Z</time></trkpt><trkpt lat="38.0941533" lon="14.8692567"><ele>803.0000000000001</ele><time>2026-03-29T08:52:59.74Z</time></trkpt><trkpt lat="38.0941467" lon="14.8693517"><ele>803.0</ele><time>2026-03-29T08:53:01.741Z</time></trkpt><trkpt lat="38.0940933" lon="14.8694417"><ele>803.0</ele><time>2026-03-29T08:53:04.741Z</time></trkpt><trkpt lat="38.094045" lon="14.8695433"><ele>803.0</ele><time>2026-03-29T08:53:07.741Z</time></trkpt><trkpt lat="38.09401" lon="14.8696333"><ele>803.0000000000001</ele><time>2026-03-29T08:53:10.74Z</time></trkpt><trkpt lat="38.0939833" lon="14.86974"><ele>803.0</ele><time>2026-03-29T08:53:13.741Z</time></trkpt><trkpt lat="38.0939683" lon="14.86983"><ele>802.9999999999999</ele><time>2026-03-29T08:53:16.741Z</time></trkpt><trkpt lat="38.0939383" lon="14.8699067"><ele>803.0</ele><time>2026-03-29T08:53:19.741Z</time></trkpt><trkpt lat="38.0939133" lon="14.8699817"><ele>803.0</ele><time>2026-03-29T08:53:22.741Z</time></trkpt><trkpt lat="38.0938883" lon="14.8700567"><ele>803.0</ele><time>2026-03-29T08:53:26.741Z</time></trkpt><trkpt lat="38.0938233" lon="14.8700667"><ele>803.0</ele><time>2026-03-29T08:53:29.741Z</time></trkpt><trkpt lat="38.0937683" lon="14.8700233"><ele>802.9999999999999</ele><time>2026-03-29T08:53:31.741Z</time></trkpt><trkpt lat="38.0937017" lon="14.8700083"><ele>803.0</ele><time>2026-03-29T08:53:34.741Z</time></trkpt><trkpt lat="38.0936667" lon="14.8700867"><ele>803.0000000000001</ele><time>2026-03-29T08:53:38.741Z</time></trkpt><trkpt lat="38.0937233" lon="14.8700433"><ele>803.0</ele><time>2026-03-29T09:12:11.745Z</time></trkpt><trkpt lat="38.0938033" lon="14.8700783"><ele>803.0</ele><time>2026-03-29T09:12:14.745Z</time></trkpt><trkpt lat="38.093865" lon="14.870125"><ele>803.0</ele><time>2026-03-29T09:12:16.744Z</time></trkpt><trkpt lat="38.0939167" lon="14.870175"><ele>803.0000000000001</ele><time>2026-03-29T09:12:18.745Z</time></trkpt><trkpt lat="38.09397" lon="14.8702583"><ele>803.0</ele><time>2026-03-29T09:12:20.745Z</time></trkpt><trkpt lat="38.0940133" lon="14.870355"><ele>807.0000000000001</ele><time>2026-03-29T09:12:22.744Z</time></trkpt><trkpt lat="38.09405" lon="14.87042"><ele>811.0</ele><time>2026-03-29T09:12:24.745Z</time></trkpt><trkpt lat="38.0939817" lon="14.870285"><ele>815.0</ele><time>2026-03-29T09:12:45.745Z</time></trkpt><trkpt lat="38.0939483" lon="14.87021"><ele>819.0</ele><time>2026-03-29T09:12:48.744Z</time></trkpt><trkpt lat="38.0938933" lon="14.870135"><ele>823.0000000000001</ele><time>2026-03-29T09:12:52.745Z</time></trkpt><trkpt lat="38.0938517" lon="14.8702"><ele>827.0</ele><time>2026-03-29T09:12:55.745Z</time></trkpt><trkpt lat="38.0938633" lon="14.8702867"><ele>827.0000000000001</ele><time>2026-03-29T09:13:03.745Z</time></trkpt><trkpt lat="38.09388" lon="14.87038"><ele>827.0</ele><time>2026-03-29T09:13:05.745Z</time></trkpt><trkpt lat="38.0938333" lon="14.8704783"><ele>827.0</ele><time>2026-03-29T09:13:08.745Z</time></trkpt><trkpt lat="38.093785" lon="14.8705333"><ele>827.0</ele><time>2026-03-29T09:13:10.745Z</time></trkpt><trkpt lat="38.0937217" lon="14.870605"><ele>827.0000000000001</ele><time>2026-03-29T09:13:12.744Z</time></trkpt><trkpt lat="38.0936333" lon="14.8707017"><ele>827.0</ele><time>2026-03-29T09:13:14.744Z</time></trkpt><trkpt lat="38.09355" lon="14.8707517"><ele>827.0000000000001</ele><time>2026-03-29T09:13:16.745Z</time></trkpt><trkpt lat="38.0934667" lon="14.87077"><ele>827.0</ele><time>2026-03-29T09:13:18.744Z</time></trkpt><trkpt lat="38.0934" lon="14.870765"><ele>827.0</ele><time>2026-03-29T09:13:20.745Z</time></trkpt><trkpt lat="38.0933167" lon="14.870765"><ele>827.0</ele><time>2026-03-29T09:14:09.745Z</time></trkpt><trkpt lat="38.0933067" lon="14.8708517"><ele>827.0000000000001</ele><time>2026-03-29T09:14:26.746Z</time></trkpt><trkpt lat="38.0932383" lon="14.8708917"><ele>827.0</ele><time>2026-03-29T09:14:30.746Z</time></trkpt><trkpt lat="38.0931567" lon="14.8708833"><ele>822.6666666666667</ele><time>2026-03-29T09:14:33.746Z</time></trkpt><trkpt lat="38.0930917" lon="14.8709383"><ele>818.3333333333334</ele><time>2026-03-29T09:14:36.745Z</time></trkpt><trkpt lat="38.09306" lon="14.8710417"><ele>814.0</ele><time>2026-03-29T09:14:47.746Z</time></trkpt><trkpt lat="38.0931283" lon="14.8710833"><ele>809.6666666666667</ele><time>2026-03-29T09:14:51.745Z</time></trkpt><trkpt lat="38.0931367" lon="14.8711733"><ele>805.3333333333334</ele><time>2026-03-29T09:14:54.745Z</time></trkpt><trkpt lat="38.0931567" lon="14.8712633"><ele>801.0</ele><time>2026-03-29T09:14:56.746Z</time></trkpt><trkpt lat="38.0932067" lon="14.8713583"><ele>808.5999999999999</ele><time>2026-03-29T09:14:58.746Z</time></trkpt><trkpt lat="38.0932667" lon="14.871445"><ele>816.2</ele><time>2026-03-29T09:15:00.746Z</time></trkpt><trkpt lat="38.0933133" lon="14.871515"><ele>823.8</ele><time>2026-03-29T09:15:02.746Z</time></trkpt><trkpt lat="38.0933917" lon="14.8715867"><ele>831.4000000000001</ele><time>2026-03-29T09:15:04.745Z</time></trkpt><trkpt lat="38.0934833" lon="14.871655"><ele>839.0</ele><time>2026-03-29T09:15:06.745Z</time></trkpt><trkpt lat="38.093585" lon="14.871725"><ele>840.4000000000001</ele><time>2026-03-29T09:15:08.746Z</time></trkpt><trkpt lat="38.0936667" lon="14.87181"><ele>841.8</ele><time>2026-03-29T09:15:10.746Z</time></trkpt><trkpt lat="38.0937567" lon="14.8719133"><ele>843.2</ele><time>2026-03-29T09:15:12.746Z</time></trkpt><trkpt lat="38.09385" lon="14.87201"><ele>844.5999999999999</ele><time>2026-03-29T09:15:14.746Z</time></trkpt><trkpt lat="38.0939083" lon="14.8720717"><ele>846.0</ele><time>2026-03-29T09:15:15.746Z</time></trkpt><trkpt lat="38.0939617" lon="14.872135"><ele>846.0</ele><time>2026-03-29T09:15:16.746Z</time></trkpt><trkpt lat="38.0940183" lon="14.8721867"><ele>846.0</ele><time>2026-03-29T09:15:17.745Z</time></trkpt><trkpt lat="38.0940717" lon="14.8722333"><ele>846.0</ele><time>2026-03-29T09:15:18.746Z</time></trkpt><trkpt lat="38.094165" lon="14.8722617"><ele>846.0</ele><time>2026-03-29T09:15:20.745Z</time></trkpt><trkpt lat="38.0942583" lon="14.8722317"><ele>846.0</ele><time>2026-03-29T09:15:22.746Z</time></trkpt><trkpt lat="38.0943217" lon="14.8722217"><ele>846.0</ele><time>2026-03-29T09:15:23.745Z</time></trkpt><trkpt lat="38.094385" lon="14.8722167"><ele>850.0</ele><time>2026-03-29T09:15:24.745Z</time></trkpt><trkpt lat="38.09448" lon="14.872205"><ele>854.0</ele><time>2026-03-29T09:15:26.746Z</time></trkpt><trkpt lat="38.094565" lon="14.8722233"><ele>858.0</ele><time>2026-03-29T09:15:28.746Z</time></trkpt><trkpt lat="38.0946367" lon="14.87223"><ele>862.0</ele><time>2026-03-29T09:15:30.746Z</time></trkpt><trkpt lat="38.094715" lon="14.8722333"><ele>866.0</ele><time>2026-03-29T09:15:32.745Z</time></trkpt><trkpt lat="38.0947917" lon="14.8722517"><ele>870.0</ele><time>2026-03-29T09:15:34.746Z</time></trkpt><trkpt lat="38.094885" lon="14.87223"><ele>871.2</ele><time>2026-03-29T09:15:36.745Z</time></trkpt><trkpt lat="38.094975" lon="14.8721733"><ele>872.4</ele><time>2026-03-29T09:15:38.746Z</time></trkpt><trkpt lat="38.0950333" lon="14.8721017"><ele>873.5999999999999</ele><time>2026-03-29T09:15:39.746Z</time></trkpt><trkpt lat="38.0951" lon="14.8719917"><ele>874.8</ele><time>2026-03-29T09:15:40.746Z</time></trkpt><trkpt lat="38.09517" lon="14.87185"><ele>876.0</ele><time>2026-03-29T09:15:41.746Z</time></trkpt><trkpt lat="38.0952433" lon="14.8716983"><ele>876.0</ele><time>2026-03-29T09:15:42.745Z</time></trkpt><trkpt lat="38.0953117" lon="14.87157"><ele>875.9999999999999</ele><time>2026-03-29T09:15:43.746Z</time></trkpt><trkpt lat="38.0953817" lon="14.8714767"><ele>875.9999999999999</ele><time>2026-03-29T09:15:44.746Z</time></trkpt><trkpt lat="38.0954417" lon="14.87138"><ele>876.0</ele><time>2026-03-29T09:15:45.745Z</time></trkpt><trkpt lat="38.0955033" lon="14.8712933"><ele>876.0</ele><time>2026-03-29T09:15:46.746Z</time></trkpt><trkpt lat="38.09557" lon="14.87122"><ele>876.0</ele><time>2026-03-29T09:15:47.745Z</time></trkpt><trkpt lat="38.0956433" lon="14.8711383"><ele>875.9999999999999</ele><time>2026-03-29T09:15:48.745Z</time></trkpt><trkpt lat="38.095725" lon="14.8710633"><ele>875.9999999999999</ele><time>2026-03-29T09:15:49.745Z</time></trkpt><trkpt lat="38.0958017" lon="14.8709883"><ele>876.0</ele><time>2026-03-29T09:15:50.746Z</time></trkpt><trkpt lat="38.0958683" lon="14.870905"><ele>876.0</ele><time>2026-03-29T09:15:51.746Z</time></trkpt><trkpt lat="38.095935" lon="14.870835"><ele>875.1999999999999</ele><time>2026-03-29T09:15:52.745Z</time></trkpt><trkpt lat="38.0960017" lon="14.87077"><ele>874.3999999999999</ele><time>2026-03-29T09:15:53.746Z</time></trkpt><trkpt lat="38.0960867" lon="14.8707067"><ele>873.6</ele><time>2026-03-29T09:15:54.745Z</time></trkpt><trkpt lat="38.0961883" lon="14.8706467"><ele>872.8</ele><time>2026-03-29T09:15:55.746Z</time></trkpt><trkpt lat="38.0962983" lon="14.8705883"><ele>872.0</ele><time>2026-03-29T09:15:56.746Z</time></trkpt><trkpt lat="38.0964083" lon="14.8705417"><ele>872.0</ele><time>2026-03-29T09:15:57.746Z</time></trkpt><trkpt lat="38.09651" lon="14.870515"><ele>872.0</ele><time>2026-03-29T09:15:58.745Z</time></trkpt><trkpt lat="38.0966133" lon="14.8705"><ele>872.0</ele><time>2026-03-29T09:15:59.745Z</time></trkpt><trkpt lat="38.0967083" lon="14.87048"><ele>872.0</ele><time>2026-03-29T09:16:00.746Z</time></trkpt><trkpt lat="38.0968017" lon="14.870465"><ele>872.0</ele><time>2026-03-29T09:16:01.746Z</time></trkpt><trkpt lat="38.0969017" lon="14.870455"><ele>871.1666666666667</ele><time>2026-03-29T09:16:02.745Z</time></trkpt><trkpt lat="38.09699" lon="14.8704467"><ele>870.3333333333334</ele><time>2026-03-29T09:16:03.746Z</time></trkpt><trkpt lat="38.0970833" lon="14.8704383"><ele>869.5</ele><time>2026-03-29T09:16:04.746Z</time></trkpt><trkpt lat="38.0971667" lon="14.8704283"><ele>868.6666666666667</ele><time>2026-03-29T09:16:05.746Z</time></trkpt><trkpt lat="38.0972467" lon="14.8704233"><ele>867.8333333333334</ele><time>2026-03-29T09:16:06.745Z</time></trkpt><trkpt lat="38.0973283" lon="14.8704217"><ele>867.0</ele><time>2026-03-29T09:16:07.745Z</time></trkpt><trkpt lat="38.0974117" lon="14.8704217"><ele>865.5</ele><time>2026-03-29T09:16:08.745Z</time></trkpt><trkpt lat="38.0974933" lon="14.870415"><ele>864.0</ele><time>2026-03-29T09:16:09.746Z</time></trkpt><trkpt lat="38.097585" lon="14.8704117"><ele>862.5</ele><time>2026-03-29T09:16:10.746Z</time></trkpt><trkpt lat="38.0976767" lon="14.8704117"><ele>861.0</ele><time>2026-03-29T09:16:11.745Z</time></trkpt><trkpt lat="38.097765" lon="14.8704033"><ele>859.5</ele><time>2026-03-29T09:16:12.746Z</time></trkpt><trkpt lat="38.09786" lon="14.8703933"><ele>858.0</ele><time>2026-03-29T09:16:13.746Z</time></trkpt><trkpt lat="38.097945" lon="14.8703733"><ele>858.0</ele><time>2026-03-29T09:16:14.745Z</time></trkpt><trkpt lat="38.0980367" lon="14.8703367"><ele>858.0</ele><time>2026-03-29T09:16:15.745Z</time></trkpt><trkpt lat="38.098135" lon="14.8702767"><ele>858.0</ele><time>2026-03-29T09:16:16.746Z</time></trkpt><trkpt lat="38.0982417" lon="14.87019"><ele>858.0</ele><time>2026-03-29T09:16:17.745Z</time></trkpt><trkpt lat="38.0983583" lon="14.8701"><ele>855.0</ele><time>2026-03-29T09:16:18.746Z</time></trkpt><trkpt lat="38.09848" lon="14.8700033"><ele>852.0</ele><time>2026-03-29T09:16:19.745Z</time></trkpt><trkpt lat="38.098605" lon="14.869885"><ele>849.0</ele><time>2026-03-29T09:16:20.746Z</time></trkpt><trkpt lat="38.0987433" lon="14.8697583"><ele>849.0</ele><time>2026-03-29T09:16:21.746Z</time></trkpt><trkpt lat="38.0988917" lon="14.8696183"><ele>849.0</ele><time>2026-03-29T09:16:22.746Z</time></trkpt><trkpt lat="38.099035" lon="14.86947"><ele>849.0</ele><time>2026-03-29T09:16:23.745Z</time></trkpt><trkpt lat="38.0991617" lon="14.8693433"><ele>848.75</ele><time>2026-03-29T09:16:24.745Z</time></trkpt><trkpt lat="38.0992733" lon="14.8692317"><ele>848.5</ele><time>2026-03-29T09:16:25.745Z</time></trkpt><trkpt lat="38.09937" lon="14.8691217"><ele>848.25</ele><time>2026-03-29T09:16:26.746Z</time></trkpt><trkpt lat="38.0994567" lon="14.8690233"><ele>848.0</ele><time>2026-03-29T09:16:27.745Z</time></trkpt><trkpt lat="38.0995317" lon="14.868935"><ele>848.0</ele><time>2026-03-29T09:16:28.746Z</time></trkpt><trkpt lat="38.0996083" lon="14.8688533"><ele>848.0</ele><time>2026-03-29T09:16:29.746Z</time></trkpt><trkpt lat="38.0996783" lon="14.86878"><ele>848.0</ele><time>2026-03-29T09:16:30.746Z</time></trkpt><trkpt lat="38.0997383" lon="14.8687117"><ele>848.0</ele><time>2026-03-29T09:16:31.746Z</time></trkpt><trkpt lat="38.099805" lon="14.8686183"><ele>848.0</ele><time>2026-03-29T09:16:32.745Z</time></trkpt><trkpt lat="38.09988" lon="14.8685033"><ele>847.75</ele><time>2026-03-29T09:16:33.746Z</time></trkpt><trkpt lat="38.0999533" lon="14.8683717"><ele>847.5</ele><time>2026-03-29T09:16:34.746Z</time></trkpt><trkpt lat="38.100025" lon="14.8682383"><ele>847.25</ele><time>2026-03-29T09:16:35.745Z</time></trkpt><trkpt lat="38.1000833" lon="14.8681217"><ele>847.0</ele><time>2026-03-29T09:16:36.746Z</time></trkpt><trkpt lat="38.100135" lon="14.868025"><ele>846.9999999999999</ele><time>2026-03-29T09:16:37.746Z</time></trkpt><trkpt lat="38.1001733" lon="14.8679367"><ele>847.0</ele><time>2026-03-29T09:16:38.745Z</time></trkpt><trkpt lat="38.10021" lon="14.8678517"><ele>847.0</ele><time>2026-03-29T09:16:39.745Z</time></trkpt><trkpt lat="38.1002467" lon="14.8677567"><ele>847.0</ele><time>2026-03-29T09:16:40.746Z</time></trkpt><trkpt lat="38.1002933" lon="14.8676567"><ele>846.9999999999999</ele><time>2026-03-29T09:16:41.746Z</time></trkpt><trkpt lat="38.100335" lon="14.867555"><ele>847.0</ele><time>2026-03-29T09:16:42.745Z</time></trkpt><trkpt lat="38.10037" lon="14.8674617"><ele>847.2857142857143</ele><time>2026-03-29T09:16:43.745Z</time></trkpt><trkpt lat="38.1003983" lon="14.8673767"><ele>847.5714285714286</ele><time>2026-03-29T09:16:44.746Z</time></trkpt><trkpt lat="38.100435" lon="14.8673017"><ele>847.8571428571429</ele><time>2026-03-29T09:16:45.746Z</time></trkpt><trkpt lat="38.1004683" lon="14.8672333"><ele>848.1428571428571</ele><time>2026-03-29T09:16:46.745Z</time></trkpt><trkpt lat="38.1005033" lon="14.8671667"><ele>848.4285714285714</ele><time>2026-03-29T09:16:47.745Z</time></trkpt><trkpt lat="38.1005733" lon="14.86709"><ele>848.7142857142858</ele><time>2026-03-29T09:16:49.745Z</time></trkpt><trkpt lat="38.1005867" lon="14.8670083"><ele>849.0</ele><time>2026-03-29T09:16:53.745Z</time></trkpt><trkpt lat="38.1005133" lon="14.86706"><ele>849.0</ele><time>2026-03-29T09:16:55.746Z</time></trkpt><trkpt lat="38.1004467" lon="14.8671867"><ele>849.0</ele><time>2026-03-29T09:16:57.746Z</time></trkpt><trkpt lat="38.100375" lon="14.8672417"><ele>849.0</ele><time>2026-03-29T09:16:59.746Z</time></trkpt><trkpt lat="38.1002767" lon="14.867225"><ele>849.0</ele><time>2026-03-29T09:17:01.746Z</time></trkpt><trkpt lat="38.1001783" lon="14.86713"><ele>849.0</ele><time>2026-03-29T09:17:03.745Z</time></trkpt><trkpt lat="38.1001217" lon="14.8670617"><ele>849.0</ele><time>2026-03-29T09:17:04.746Z</time></trkpt><trkpt lat="38.1000717" lon="14.8670017"><ele>849.0</ele><time>2026-03-29T09:17:05.746Z</time></trkpt><trkpt lat="38.0999833" lon="14.8669"><ele>849.0</ele><time>2026-03-29T09:17:07.746Z</time></trkpt><trkpt lat="38.0999233" lon="14.8668183"><ele>849.0</ele><time>2026-03-29T09:17:09.746Z</time></trkpt><trkpt lat="38.0998767" lon="14.866735"><ele>849.0</ele><time>2026-03-29T09:17:11.746Z</time></trkpt><trkpt lat="38.099825" lon="14.86668"><ele>849.0</ele><time>2026-03-29T09:17:12.745Z</time></trkpt><trkpt lat="38.099775" lon="14.86662"><ele>847.3333333333334</ele><time>2026-03-29T09:17:13.746Z</time></trkpt><trkpt lat="38.0996833" lon="14.8665383"><ele>845.6666666666667</ele><time>2026-03-29T09:17:15.746Z</time></trkpt><trkpt lat="38.099645" lon="14.866455"><ele>844.0</ele><time>2026-03-29T09:17:17.745Z</time></trkpt><trkpt lat="38.0996433" lon="14.8663517"><ele>842.3333333333334</ele><time>2026-03-29T09:17:19.745Z</time></trkpt><trkpt lat="38.0996333" lon="14.86625"><ele>840.6666666666667</ele><time>2026-03-29T09:17:21.746Z</time></trkpt><trkpt lat="38.09962" lon="14.8661517"><ele>839.0</ele><time>2026-03-29T09:17:23.746Z</time></trkpt><trkpt lat="38.0996067" lon="14.8660517"><ele>839.0000000000001</ele><time>2026-03-29T09:17:25.745Z</time></trkpt><trkpt lat="38.0995833" lon="14.8659533"><ele>839.0</ele><time>2026-03-29T09:17:27.746Z</time></trkpt><trkpt lat="38.0995483" lon="14.8658467"><ele>839.0</ele><time>2026-03-29T09:17:29.746Z</time></trkpt><trkpt lat="38.0995167" lon="14.8657567"><ele>839.0</ele><time>2026-03-29T09:17:31.746Z</time></trkpt><trkpt lat="38.0994833" lon="14.86566"><ele>839.0000000000001</ele><time>2026-03-29T09:17:33.746Z</time></trkpt><trkpt lat="38.0994283" lon="14.8655733"><ele>839.0</ele><time>2026-03-29T09:17:35.746Z</time></trkpt><trkpt lat="38.0993617" lon="14.8655283"><ele>838.2857142857142</ele><time>2026-03-29T09:17:37.745Z</time></trkpt><trkpt lat="38.099305" lon="14.86548"><ele>837.5714285714287</ele><time>2026-03-29T09:17:39.746Z</time></trkpt><trkpt lat="38.0992433" lon="14.86542"><ele>836.8571428571429</ele><time>2026-03-29T09:17:42.746Z</time></trkpt><trkpt lat="38.099185" lon="14.86538"><ele>836.1428571428571</ele><time>2026-03-29T09:17:44.746Z</time></trkpt><trkpt lat="38.0991267" lon="14.86534"><ele>835.4285714285713</ele><time>2026-03-29T09:17:46.747Z</time></trkpt><trkpt lat="38.09906" lon="14.8652983"><ele>834.7142857142858</ele><time>2026-03-29T09:17:48.747Z</time></trkpt><trkpt lat="38.0990067" lon="14.86524"><ele>834.0</ele><time>2026-03-29T09:17:50.747Z</time></trkpt><trkpt lat="38.0989383" lon="14.8651533"><ele>830.5</ele><time>2026-03-29T09:17:52.746Z</time></trkpt><trkpt lat="38.0988767" lon="14.8650833"><ele>827.0</ele><time>2026-03-29T09:17:54.746Z</time></trkpt><trkpt lat="38.0988167" lon="14.8650083"><ele>823.5</ele><time>2026-03-29T09:17:56.746Z</time></trkpt><trkpt lat="38.09876" lon="14.86495"><ele>820.0</ele><time>2026-03-29T09:17:58.746Z</time></trkpt><trkpt lat="38.098695" lon="14.8648733"><ele>816.5</ele><time>2026-03-29T09:18:01.746Z</time></trkpt><trkpt lat="38.09864" lon="14.8648017"><ele>813.0</ele><time>2026-03-29T09:18:04.746Z</time></trkpt><trkpt lat="38.09857" lon="14.86482"><ele>813.0</ele><time>2026-03-29T09:18:08.746Z</time></trkpt><trkpt lat="38.0985117" lon="14.8648883"><ele>813.0</ele><time>2026-03-29T09:18:10.746Z</time></trkpt><trkpt lat="38.09844" lon="14.86497"><ele>813.0</ele><time>2026-03-29T09:18:12.746Z</time></trkpt><trkpt lat="38.0983767" lon="14.8650467"><ele>813.0</ele><time>2026-03-29T09:18:15.746Z</time></trkpt><trkpt lat="38.0983167" lon="14.86511"><ele>813.0</ele><time>2026-03-29T09:18:18.747Z</time></trkpt><trkpt lat="38.0983767" lon="14.86508"><ele>813.0</ele><time>2026-03-29T09:18:32.746Z</time></trkpt><trkpt lat="38.098445" lon="14.8651583"><ele>813.8</ele><time>2026-03-29T09:18:34.747Z</time></trkpt><trkpt lat="38.0985233" lon="14.8652783"><ele>814.5999999999999</ele><time>2026-03-29T09:18:36.747Z</time></trkpt><trkpt lat="38.09857" lon="14.8653383"><ele>815.4000000000001</ele><time>2026-03-29T09:18:37.747Z</time></trkpt><trkpt lat="38.0986567" lon="14.8654317"><ele>816.2</ele><time>2026-03-29T09:18:39.747Z</time></trkpt><trkpt lat="38.0987517" lon="14.8655183"><ele>817.0</ele><time>2026-03-29T09:18:41.746Z</time></trkpt><trkpt lat="38.0988183" lon="14.8655567"><ele>816.9999999999999</ele><time>2026-03-29T09:18:42.747Z</time></trkpt><trkpt lat="38.0988783" lon="14.86559"><ele>817.0</ele><time>2026-03-29T09:18:43.746Z</time></trkpt><trkpt lat="38.09897" lon="14.8656233"><ele>817.0</ele><time>2026-03-29T09:18:45.746Z</time></trkpt><trkpt lat="38.099015" lon="14.86556"><ele>817.0</ele><time>2026-03-29T09:18:47.747Z</time></trkpt><trkpt lat="38.0990167" lon="14.8654617"><ele>816.9999999999999</ele><time>2026-03-29T09:18:49.747Z</time></trkpt><trkpt lat="38.0989667" lon="14.8653867"><ele>817.0</ele><time>2026-03-29T09:18:51.746Z</time></trkpt><trkpt lat="38.0989067" lon="14.8653233"><ele>816.9999999999999</ele><time>2026-03-29T09:18:53.747Z</time></trkpt><trkpt lat="38.0988383" lon="14.8652533"><ele>817.0</ele><time>2026-03-29T09:18:55.747Z</time></trkpt><trkpt lat="38.0987783" lon="14.86518"><ele>817.0</ele><time>2026-03-29T09:18:57.747Z</time></trkpt><trkpt lat="38.0987083" lon="14.865105"><ele>817.0</ele><time>2026-03-29T09:18:59.747Z</time></trkpt><trkpt lat="38.0986517" lon="14.8650417"><ele>816.9999999999999</ele><time>2026-03-29T09:19:01.746Z</time></trkpt><trkpt lat="38.098595" lon="14.864965"><ele>817.0</ele><time>2026-03-29T09:19:03.747Z</time></trkpt><trkpt lat="38.0985267" lon="14.8649433"><ele>816.3333333333333</ele><time>2026-03-29T09:19:05.746Z</time></trkpt><trkpt lat="38.098445" lon="14.8649667"><ele>815.6666666666666</ele><time>2026-03-29T09:19:08.747Z</time></trkpt><trkpt lat="38.0983867" lon="14.865025"><ele>815.0</ele><time>2026-03-29T09:19:10.747Z</time></trkpt><trkpt lat="38.09832" lon="14.8651033"><ele>814.3333333333333</ele><time>2026-03-29T09:19:12.746Z</time></trkpt><trkpt lat="38.0983983" lon="14.8650467"><ele>813.6666666666666</ele><time>2026-03-29T09:19:34.747Z</time></trkpt><trkpt lat="38.09845" lon="14.8649583"><ele>813.0</ele><time>2026-03-29T09:19:36.747Z</time></trkpt><trkpt lat="38.098505" lon="14.8649017"><ele>813.0</ele><time>2026-03-29T09:19:38.747Z</time></trkpt><trkpt lat="38.0985583" lon="14.8648383"><ele>813.0</ele><time>2026-03-29T09:19:40.747Z</time></trkpt><trkpt lat="38.0986267" lon="14.8648117"><ele>813.0</ele><time>2026-03-29T09:19:42.746Z</time></trkpt><trkpt lat="38.0986833" lon="14.8648567"><ele>813.0</ele><time>2026-03-29T09:19:44.747Z</time></trkpt><trkpt lat="38.0987467" lon="14.8649417"><ele>813.0</ele><time>2026-03-29T09:19:46.747Z</time></trkpt><trkpt lat="38.0988217" lon="14.865015"><ele>813.0</ele><time>2026-03-29T09:19:48.747Z</time></trkpt><trkpt lat="38.0989017" lon="14.865085"><ele>813.8</ele><time>2026-03-29T09:19:50.747Z</time></trkpt><trkpt lat="38.0989933" lon="14.8652033"><ele>814.5999999999999</ele><time>2026-03-29T09:19:52.747Z</time></trkpt><trkpt lat="38.0990433" lon="14.8652633"><ele>815.4000000000001</ele><time>2026-03-29T09:19:53.747Z</time></trkpt><trkpt lat="38.0991467" lon="14.86534"><ele>816.2</ele><time>2026-03-29T09:19:55.747Z</time></trkpt><trkpt lat="38.0992533" lon="14.8654"><ele>817.0</ele><time>2026-03-29T09:19:57.746Z</time></trkpt><trkpt lat="38.0993067" lon="14.865455"><ele>820.4000000000001</ele><time>2026-03-29T09:19:58.747Z</time></trkpt><trkpt lat="38.0993733" lon="14.8655117"><ele>823.8000000000001</ele><time>2026-03-29T09:19:59.746Z</time></trkpt><trkpt lat="38.0994333" lon="14.8655617"><ele>827.2</ele><time>2026-03-29T09:20:00.747Z</time></trkpt><trkpt lat="38.0995067" lon="14.8656783"><ele>830.6</ele><time>2026-03-29T09:20:02.747Z</time></trkpt><trkpt lat="38.0995567" lon="14.8658333"><ele>834.0</ele><time>2026-03-29T09:20:04.747Z</time></trkpt><trkpt lat="38.0995783" lon="14.865925"><ele>834.8333333333334</ele><time>2026-03-29T09:20:05.746Z</time></trkpt><trkpt lat="38.0995983" lon="14.8660067"><ele>835.6666666666667</ele><time>2026-03-29T09:20:06.746Z</time></trkpt><trkpt lat="38.0996283" lon="14.8661583"><ele>836.5</ele><time>2026-03-29T09:20:08.747Z</time></trkpt><trkpt lat="38.0996433" lon="14.86625"><ele>837.3333333333334</ele><time>2026-03-29T09:20:09.746Z</time></trkpt><trkpt lat="38.0996533" lon="14.8663467"><ele>838.1666666666667</ele><time>2026-03-29T09:20:10.746Z</time></trkpt><trkpt lat="38.0996633" lon="14.8664817"><ele>839.0</ele><time>2026-03-29T09:20:12.747Z</time></trkpt><trkpt lat="38.09971" lon="14.86656"><ele>839.0000000000001</ele><time>2026-03-29T09:20:14.747Z</time></trkpt><trkpt lat="38.0997967" lon="14.86665"><ele>839.0</ele><time>2026-03-29T09:20:16.746Z</time></trkpt><trkpt lat="38.0998483" lon="14.866705"><ele>839.0</ele><time>2026-03-29T09:20:17.747Z</time></trkpt><trkpt lat="38.0999" lon="14.86676"><ele>839.0</ele><time>2026-03-29T09:20:18.747Z</time></trkpt><trkpt lat="38.0999833" lon="14.8668117"><ele>839.0000000000001</ele><time>2026-03-29T09:20:20.746Z</time></trkpt><trkpt lat="38.1000667" lon="14.86683"><ele>839.0</ele><time>2026-03-29T09:20:22.747Z</time></trkpt><trkpt lat="38.1001467" lon="14.866895"><ele>841.0</ele><time>2026-03-29T09:20:24.747Z</time></trkpt><trkpt lat="38.1001833" lon="14.8669767"><ele>843.0</ele><time>2026-03-29T09:20:26.747Z</time></trkpt><trkpt lat="38.1002083" lon="14.8670917"><ele>845.0</ele><time>2026-03-29T09:20:28.746Z</time></trkpt><trkpt lat="38.10026" lon="14.86719"><ele>847.0</ele><time>2026-03-29T09:20:30.747Z</time></trkpt><trkpt lat="38.10035" lon="14.86721"><ele>849.0</ele><time>2026-03-29T09:20:32.747Z</time></trkpt><trkpt lat="38.1004483" lon="14.8671867"><ele>849.0</ele><time>2026-03-29T09:20:34.747Z</time></trkpt><trkpt lat="38.1004967" lon="14.867135"><ele>849.0</ele><time>2026-03-29T09:20:35.747Z</time></trkpt><trkpt lat="38.1005483" lon="14.867055"><ele>849.0</ele><time>2026-03-29T09:20:36.747Z</time></trkpt><trkpt lat="38.1006133" lon="14.8669433"><ele>849.0</ele><time>2026-03-29T09:20:37.747Z</time></trkpt><trkpt lat="38.1006867" lon="14.8668233"><ele>849.0</ele><time>2026-03-29T09:20:38.746Z</time></trkpt><trkpt lat="38.1007783" lon="14.8667033"><ele>849.2</ele><time>2026-03-29T09:20:39.747Z</time></trkpt><trkpt lat="38.10087" lon="14.8665933"><ele>849.4000000000001</ele><time>2026-03-29T09:20:40.747Z</time></trkpt><trkpt lat="38.10095" lon="14.8665"><ele>849.6</ele><time>2026-03-29T09:20:41.747Z</time></trkpt><trkpt lat="38.101025" lon="14.8664183"><ele>849.8</ele><time>2026-03-29T09:20:42.747Z</time></trkpt><trkpt lat="38.1010967" lon="14.8663433"><ele>850.0</ele><time>2026-03-29T09:20:43.746Z</time></trkpt><trkpt lat="38.10116" lon="14.8662783"><ele>849.9999999999999</ele><time>2026-03-29T09:20:44.746Z</time></trkpt><trkpt lat="38.1012183" lon="14.8662167"><ele>850.0</ele><time>2026-03-29T09:20:45.747Z</time></trkpt><trkpt lat="38.101275" lon="14.866165"><ele>850.0</ele><time>2026-03-29T09:20:46.746Z</time></trkpt><trkpt lat="38.10133" lon="14.8661117"><ele>850.0</ele><time>2026-03-29T09:20:47.746Z</time></trkpt><trkpt lat="38.10143" lon="14.8660267"><ele>849.9999999999999</ele><time>2026-03-29T09:20:49.747Z</time></trkpt><trkpt lat="38.1015167" lon="14.8659467"><ele>850.0</ele><time>2026-03-29T09:20:51.746Z</time></trkpt><trkpt lat="38.1016017" lon="14.8658767"><ele>847.8333333333333</ele><time>2026-03-29T09:20:53.747Z</time></trkpt><trkpt lat="38.1016833" lon="14.8658167"><ele>845.6666666666666</ele><time>2026-03-29T09:20:55.746Z</time></trkpt><trkpt lat="38.1017817" lon="14.8657567"><ele>843.5</ele><time>2026-03-29T09:20:57.747Z</time></trkpt><trkpt lat="38.1018383" lon="14.86572"><ele>841.3333333333333</ele><time>2026-03-29T09:20:58.747Z</time></trkpt><trkpt lat="38.1019" lon="14.865675"><ele>839.1666666666666</ele><time>2026-03-29T09:20:59.746Z</time></trkpt><trkpt lat="38.10197" lon="14.865625"><ele>837.0</ele><time>2026-03-29T09:21:00.747Z</time></trkpt><trkpt lat="38.1020433" lon="14.8655683"><ele>837.0</ele><time>2026-03-29T09:21:01.747Z</time></trkpt><trkpt lat="38.1021133" lon="14.8655"><ele>837.0</ele><time>2026-03-29T09:21:02.747Z</time></trkpt><trkpt lat="38.1021817" lon="14.8654317"><ele>837.0</ele><time>2026-03-29T09:21:03.747Z</time></trkpt><trkpt lat="38.1022567" lon="14.8653717"><ele>837.0</ele><time>2026-03-29T09:21:04.746Z</time></trkpt><trkpt lat="38.1023217" lon="14.8653"><ele>837.0</ele><time>2026-03-29T09:21:05.746Z</time></trkpt><trkpt lat="38.1023867" lon="14.8652317"><ele>837.0</ele><time>2026-03-29T09:21:06.747Z</time></trkpt><trkpt lat="38.1024467" lon="14.86515"><ele>837.2</ele><time>2026-03-29T09:21:07.747Z</time></trkpt><trkpt lat="38.102515" lon="14.865065"><ele>837.4000000000001</ele><time>2026-03-29T09:21:08.747Z</time></trkpt><trkpt lat="38.10258" lon="14.8649917"><ele>837.5999999999999</ele><time>2026-03-29T09:21:09.746Z</time></trkpt><trkpt lat="38.102635" lon="14.8649267"><ele>837.8</ele><time>2026-03-29T09:21:10.747Z</time></trkpt><trkpt lat="38.1027317" lon="14.864825"><ele>838.0</ele><time>2026-03-29T09:21:12.746Z</time></trkpt><trkpt lat="38.102825" lon="14.8647267"><ele>838.0</ele><time>2026-03-29T09:21:14.747Z</time></trkpt><trkpt lat="38.1028933" lon="14.8646733"><ele>838.0</ele><time>2026-03-29T09:21:15.747Z</time></trkpt><trkpt lat="38.10296" lon="14.8646183"><ele>838.0</ele><time>2026-03-29T09:21:16.747Z</time></trkpt><trkpt lat="38.1030283" lon="14.8645517"><ele>838.0</ele><time>2026-03-29T09:21:17.747Z</time></trkpt><trkpt lat="38.1031133" lon="14.8644767"><ele>838.0</ele><time>2026-03-29T09:21:18.747Z</time></trkpt><trkpt lat="38.10321" lon="14.8643967"><ele>838.0</ele><time>2026-03-29T09:21:19.747Z</time></trkpt><trkpt lat="38.1033183" lon="14.8643033"><ele>838.0</ele><time>2026-03-29T09:21:20.747Z</time></trkpt><trkpt lat="38.1034367" lon="14.8642117"><ele>838.0</ele><time>2026-03-29T09:21:21.747Z</time></trkpt><trkpt lat="38.1035483" lon="14.86412"><ele>838.0</ele><time>2026-03-29T09:21:22.746Z</time></trkpt><trkpt lat="38.1036517" lon="14.8640417"><ele>838.0</ele><time>2026-03-29T09:21:23.747Z</time></trkpt><trkpt lat="38.103745" lon="14.8639683"><ele>838.0</ele><time>2026-03-29T09:21:24.746Z</time></trkpt><trkpt lat="38.1038283" lon="14.863905"><ele>838.0</ele><time>2026-03-29T09:21:25.747Z</time></trkpt><trkpt lat="38.1039067" lon="14.8638433"><ele>838.0</ele><time>2026-03-29T09:21:26.747Z</time></trkpt><trkpt lat="38.103985" lon="14.8637983"><ele>838.0</ele><time>2026-03-29T09:21:27.747Z</time></trkpt><trkpt lat="38.1040533" lon="14.863765"><ele>837.4285714285713</ele><time>2026-03-29T09:21:28.747Z</time></trkpt><trkpt lat="38.1041283" lon="14.8637417"><ele>836.8571428571429</ele><time>2026-03-29T09:21:29.747Z</time></trkpt><trkpt lat="38.1041933" lon="14.8637317"><ele>836.2857142857142</ele><time>2026-03-29T09:21:30.747Z</time></trkpt><trkpt lat="38.10426" lon="14.8637233"><ele>835.7142857142857</ele><time>2026-03-29T09:21:31.747Z</time></trkpt><trkpt lat="38.1043283" lon="14.86373"><ele>835.1428571428571</ele><time>2026-03-29T09:21:32.746Z</time></trkpt><trkpt lat="38.1044067" lon="14.86374"><ele>834.5714285714286</ele><time>2026-03-29T09:21:33.747Z</time></trkpt><trkpt lat="38.104485" lon="14.8637367"><ele>834.0</ele><time>2026-03-29T09:21:34.746Z</time></trkpt><trkpt lat="38.1045583" lon="14.8637267"><ele>834.0</ele><time>2026-03-29T09:21:35.747Z</time></trkpt><trkpt lat="38.1046267" lon="14.8637"><ele>834.0</ele><time>2026-03-29T09:21:36.747Z</time></trkpt><trkpt lat="38.1046933" lon="14.8636633"><ele>834.0</ele><time>2026-03-29T09:21:37.747Z</time></trkpt><trkpt lat="38.1047567" lon="14.8636283"><ele>834.0</ele><time>2026-03-29T09:21:38.747Z</time></trkpt><trkpt lat="38.1048283" lon="14.8635967"><ele>834.0</ele><time>2026-03-29T09:21:39.746Z</time></trkpt><trkpt lat="38.104905" lon="14.86357"><ele>834.0</ele><time>2026-03-29T09:21:40.746Z</time></trkpt><trkpt lat="38.1049833" lon="14.8635417"><ele>832.6666666666666</ele><time>2026-03-29T09:21:41.746Z</time></trkpt><trkpt lat="38.1050617" lon="14.8635083"><ele>831.3333333333333</ele><time>2026-03-29T09:21:42.747Z</time></trkpt><trkpt lat="38.1051467" lon="14.8634733"><ele>830.0</ele><time>2026-03-29T09:21:43.747Z</time></trkpt><trkpt lat="38.1052233" lon="14.86344"><ele>828.6666666666666</ele><time>2026-03-29T09:21:44.746Z</time></trkpt><trkpt lat="38.1053" lon="14.8634167"><ele>827.3333333333333</ele><time>2026-03-29T09:21:45.746Z</time></trkpt><trkpt lat="38.10538" lon="14.8634"><ele>826.0</ele><time>2026-03-29T09:21:46.746Z</time></trkpt><trkpt lat="38.1054533" lon="14.8633867"><ele>825.9999999999999</ele><time>2026-03-29T09:21:47.746Z</time></trkpt><trkpt lat="38.1055267" lon="14.863375"><ele>826.0</ele><time>2026-03-29T09:21:48.747Z</time></trkpt><trkpt lat="38.1055917" lon="14.8633767"><ele>826.0</ele><time>2026-03-29T09:21:49.748Z</time></trkpt><trkpt lat="38.105655" lon="14.86337"><ele>826.0</ele><time>2026-03-29T09:21:50.747Z</time></trkpt><trkpt lat="38.1057733" lon="14.8633717"><ele>825.9999999999999</ele><time>2026-03-29T09:21:52.748Z</time></trkpt><trkpt lat="38.10589" lon="14.8633617"><ele>826.0</ele><time>2026-03-29T09:21:54.747Z</time></trkpt><trkpt lat="38.105955" lon="14.86335"><ele>826.0</ele><time>2026-03-29T09:21:55.748Z</time></trkpt><trkpt lat="38.1060283" lon="14.863335"><ele>826.0</ele><time>2026-03-29T09:21:56.748Z</time></trkpt><trkpt lat="38.1061217" lon="14.8633117"><ele>826.0</ele><time>2026-03-29T09:21:57.748Z</time></trkpt><trkpt lat="38.1062433" lon="14.86328"><ele>826.0</ele><time>2026-03-29T09:21:58.747Z</time></trkpt><trkpt lat="38.1063817" lon="14.8632367"><ele>826.0</ele><time>2026-03-29T09:21:59.748Z</time></trkpt><trkpt lat="38.1065383" lon="14.8631967"><ele>824.5</ele><time>2026-03-29T09:22:00.747Z</time></trkpt><trkpt lat="38.106685" lon="14.8631517"><ele>823.0</ele><time>2026-03-29T09:22:01.748Z</time></trkpt><trkpt lat="38.1068117" lon="14.863125"><ele>821.5</ele><time>2026-03-29T09:22:02.748Z</time></trkpt><trkpt lat="38.1069217" lon="14.8631133"><ele>820.0</ele><time>2026-03-29T09:22:03.748Z</time></trkpt><trkpt lat="38.107035" lon="14.86311"><ele>820.0</ele><time>2026-03-29T09:22:04.748Z</time></trkpt><trkpt lat="38.1071383" lon="14.8631067"><ele>820.0</ele><time>2026-03-29T09:22:05.748Z</time></trkpt><trkpt lat="38.1072417" lon="14.8631133"><ele>820.0</ele><time>2026-03-29T09:22:06.748Z</time></trkpt><trkpt lat="38.1073433" lon="14.8631217"><ele>820.0</ele><time>2026-03-29T09:22:07.748Z</time></trkpt><trkpt lat="38.1074367" lon="14.8631283"><ele>820.0</ele><time>2026-03-29T09:22:08.747Z</time></trkpt><trkpt lat="38.1075333" lon="14.863135"><ele>818.3333333333333</ele><time>2026-03-29T09:22:09.747Z</time></trkpt><trkpt lat="38.1076267" lon="14.86314"><ele>816.6666666666666</ele><time>2026-03-29T09:22:10.748Z</time></trkpt><trkpt lat="38.1077217" lon="14.8631383"><ele>815.0</ele><time>2026-03-29T09:22:11.747Z</time></trkpt><trkpt lat="38.1078083" lon="14.8631333"><ele>813.3333333333333</ele><time>2026-03-29T09:22:12.747Z</time></trkpt><trkpt lat="38.107895" lon="14.86313"><ele>811.6666666666666</ele><time>2026-03-29T09:22:13.747Z</time></trkpt><trkpt lat="38.1079767" lon="14.86313"><ele>810.0</ele><time>2026-03-29T09:22:14.747Z</time></trkpt><trkpt lat="38.10805" lon="14.8631283"><ele>809.9999999999999</ele><time>2026-03-29T09:22:15.748Z</time></trkpt><trkpt lat="38.1081217" lon="14.863125"><ele>810.0</ele><time>2026-03-29T09:22:16.747Z</time></trkpt><trkpt lat="38.108195" lon="14.863125"><ele>810.0</ele><time>2026-03-29T09:22:17.747Z</time></trkpt><trkpt lat="38.1082717" lon="14.863125"><ele>810.0</ele><time>2026-03-29T09:22:18.748Z</time></trkpt><trkpt lat="38.1083367" lon="14.863125"><ele>810.0</ele><time>2026-03-29T09:22:19.748Z</time></trkpt><trkpt lat="38.1084" lon="14.8631283"><ele>809.9999999999999</ele><time>2026-03-29T09:22:20.748Z</time></trkpt><trkpt lat="38.108465" lon="14.8631333"><ele>810.0</ele><time>2026-03-29T09:22:21.748Z</time></trkpt><trkpt lat="38.1085333" lon="14.8631333"><ele>808.2</ele><time>2026-03-29T09:22:22.747Z</time></trkpt><trkpt lat="38.1086017" lon="14.86313"><ele>806.4</ele><time>2026-03-29T09:22:23.748Z</time></trkpt><trkpt lat="38.1087267" lon="14.86313"><ele>804.5999999999999</ele><time>2026-03-29T09:22:25.747Z</time></trkpt><trkpt lat="38.1087967" lon="14.8631267"><ele>802.8</ele><time>2026-03-29T09:22:26.747Z</time></trkpt><trkpt lat="38.1089033" lon="14.8631133"><ele>801.0</ele><time>2026-03-29T09:22:28.748Z</time></trkpt><trkpt lat="38.1089867" lon="14.8631417"><ele>801.0</ele><time>2026-03-29T09:22:47.748Z</time></trkpt><trkpt lat="38.10906" lon="14.86315"><ele>801.0</ele><time>2026-03-29T09:22:51.747Z</time></trkpt><trkpt lat="38.1091517" lon="14.86315"><ele>801.0</ele><time>2026-03-29T09:22:54.747Z</time></trkpt><trkpt lat="38.109225" lon="14.8631633"><ele>801.0</ele><time>2026-03-29T09:22:56.748Z</time></trkpt><trkpt lat="38.1093083" lon="14.86317"><ele>801.0</ele><time>2026-03-29T09:22:58.747Z</time></trkpt><trkpt lat="38.1093983" lon="14.8631717"><ele>801.0</ele><time>2026-03-29T09:23:00.748Z</time></trkpt><trkpt lat="38.1094767" lon="14.8631733"><ele>799.5</ele><time>2026-03-29T09:23:02.748Z</time></trkpt><trkpt lat="38.1095617" lon="14.8631483"><ele>798.0</ele><time>2026-03-29T09:23:04.748Z</time></trkpt><trkpt lat="38.1096417" lon="14.863125"><ele>796.5</ele><time>2026-03-29T09:23:06.748Z</time></trkpt><trkpt lat="38.1097117" lon="14.8631"><ele>795.0</ele><time>2026-03-29T09:23:08.747Z</time></trkpt><trkpt lat="38.1097717" lon="14.8630667"><ele>793.5</ele><time>2026-03-29T09:23:10.748Z</time></trkpt><trkpt lat="38.109845" lon="14.8630217"><ele>792.0</ele><time>2026-03-29T09:23:13.747Z</time></trkpt><trkpt lat="38.109915" lon="14.8629717"><ele>791.0</ele><time>2026-03-29T09:23:15.748Z</time></trkpt><trkpt lat="38.109995" lon="14.8629333"><ele>790.0</ele><time>2026-03-29T09:23:17.748Z</time></trkpt><trkpt lat="38.110055" lon="14.8628967"><ele>789.0</ele><time>2026-03-29T09:23:18.748Z</time></trkpt><trkpt lat="38.11013" lon="14.8628567"><ele>788.0</ele><time>2026-03-29T09:23:19.748Z</time></trkpt><trkpt lat="38.110205" lon="14.8628133"><ele>787.0</ele><time>2026-03-29T09:23:20.748Z</time></trkpt><trkpt lat="38.1102733" lon="14.8627683"><ele>786.0</ele><time>2026-03-29T09:23:21.747Z</time></trkpt><trkpt lat="38.1103367" lon="14.8627317"><ele>786.0</ele><time>2026-03-29T09:23:22.747Z</time></trkpt><trkpt lat="38.1104567" lon="14.862685"><ele>786.0</ele><time>2026-03-29T09:23:24.747Z</time></trkpt><trkpt lat="38.110515" lon="14.8626533"><ele>786.0</ele><time>2026-03-29T09:23:25.748Z</time></trkpt><trkpt lat="38.110625" lon="14.862595"><ele>786.0</ele><time>2026-03-29T09:23:27.748Z</time></trkpt><trkpt lat="38.1107267" lon="14.8625267"><ele>786.0</ele><time>2026-03-29T09:23:29.748Z</time></trkpt><trkpt lat="38.110825" lon="14.8624617"><ele>785.8</ele><time>2026-03-29T09:23:31.747Z</time></trkpt><trkpt lat="38.1109233" lon="14.8624067"><ele>785.5999999999999</ele><time>2026-03-29T09:23:33.748Z</time></trkpt><trkpt lat="38.1110033" lon="14.862435"><ele>785.4</ele><time>2026-03-29T09:23:36.748Z</time></trkpt><trkpt lat="38.1110617" lon="14.862565"><ele>785.2</ele><time>2026-03-29T09:23:38.748Z</time></trkpt><trkpt lat="38.1111067" lon="14.8626367"><ele>785.0</ele><time>2026-03-29T09:23:39.748Z</time></trkpt><trkpt lat="38.11116" lon="14.8627033"><ele>783.1666666666667</ele><time>2026-03-29T09:23:40.747Z</time></trkpt><trkpt lat="38.111235" lon="14.8628033"><ele>781.3333333333334</ele><time>2026-03-29T09:23:42.747Z</time></trkpt><trkpt lat="38.1113083" lon="14.8628567"><ele>779.5</ele><time>2026-03-29T09:23:49.747Z</time></trkpt><trkpt lat="38.1113483" lon="14.86292"><ele>777.6666666666667</ele><time>2026-03-29T09:23:57.747Z</time></trkpt><trkpt lat="38.11131" lon="14.8630233"><ele>775.8333333333334</ele><time>2026-03-29T09:24:07.748Z</time></trkpt><trkpt lat="38.11133" lon="14.8631"><ele>774.0</ele><time>2026-03-29T09:24:10.748Z</time></trkpt><trkpt lat="38.1114083" lon="14.863095"><ele>774.0</ele><time>2026-03-29T09:24:13.748Z</time></trkpt><trkpt lat="38.1114683" lon="14.8631567"><ele>774.0</ele><time>2026-03-29T09:24:16.748Z</time></trkpt><trkpt lat="38.1115017" lon="14.8632617"><ele>774.0</ele><time>2026-03-29T09:24:19.748Z</time></trkpt><trkpt lat="38.1114517" lon="14.8631467"><ele>774.0</ele><time>2026-03-29T09:24:25.747Z</time></trkpt><trkpt lat="38.1113967" lon="14.863065"><ele>774.0</ele><time>2026-03-29T09:24:27.748Z</time></trkpt><trkpt lat="38.1113367" lon="14.8630967"><ele>774.0</ele><time>2026-03-29T09:24:29.748Z</time></trkpt><trkpt lat="38.11128" lon="14.86314"><ele>774.0</ele><time>2026-03-29T09:24:32.747Z</time></trkpt><trkpt lat="38.1113033" lon="14.8630383"><ele>774.0</ele><time>2026-03-29T09:24:35.748Z</time></trkpt><trkpt lat="38.1113417" lon="14.862955"><ele>774.0</ele><time>2026-03-29T09:24:37.748Z</time></trkpt><trkpt lat="38.1112683" lon="14.862915"><ele>774.0</ele><time>2026-03-29T09:24:41.748Z</time></trkpt><trkpt lat="38.1112283" lon="14.86283"><ele>774.0</ele><time>2026-03-29T09:24:44.747Z</time></trkpt><trkpt lat="38.1111533" lon="14.86274"><ele>774.0</ele><time>2026-03-29T09:24:47.748Z</time></trkpt><trkpt lat="38.111085" lon="14.8626467"><ele>776.2</ele><time>2026-03-29T09:24:49.748Z</time></trkpt><trkpt lat="38.111015" lon="14.8625367"><ele>778.4000000000001</ele><time>2026-03-29T09:24:51.748Z</time></trkpt><trkpt lat="38.110975" lon="14.8624667"><ele>780.6</ele><time>2026-03-29T09:24:53.748Z</time></trkpt><trkpt lat="38.1110117" lon="14.8623483"><ele>782.8</ele><time>2026-03-29T09:24:56.747Z</time></trkpt><trkpt lat="38.1110717" lon="14.8622783"><ele>785.0</ele><time>2026-03-29T09:24:57.748Z</time></trkpt><trkpt lat="38.1111483" lon="14.8622083"><ele>785.0000000000001</ele><time>2026-03-29T09:24:58.748Z</time></trkpt><trkpt lat="38.1112133" lon="14.8621533"><ele>785.0</ele><time>2026-03-29T09:24:59.747Z</time></trkpt><trkpt lat="38.1112867" lon="14.8620483"><ele>785.0</ele><time>2026-03-29T09:25:01.747Z</time></trkpt><trkpt lat="38.1113083" lon="14.8619683"><ele>785.0</ele><time>2026-03-29T09:25:03.748Z</time></trkpt><trkpt lat="38.1112717" lon="14.8618817"><ele>785.0000000000001</ele><time>2026-03-29T09:25:06.748Z</time></trkpt><trkpt lat="38.111215" lon="14.861815"><ele>785.0</ele><time>2026-03-29T09:25:09.747Z</time></trkpt><trkpt lat="38.11114" lon="14.86179"><ele>785.0000000000001</ele><time>2026-03-29T09:25:12.748Z</time></trkpt><trkpt lat="38.1110667" lon="14.8617833"><ele>785.0</ele><time>2026-03-29T09:25:15.748Z</time></trkpt><trkpt lat="38.110985" lon="14.86175"><ele>785.0</ele><time>2026-03-29T09:25:18.748Z</time></trkpt><trkpt lat="38.1108983" lon="14.8617467"><ele>785.0</ele><time>2026-03-29T09:25:21.747Z</time></trkpt><trkpt lat="38.1108167" lon="14.8617267"><ele>785.0000000000001</ele><time>2026-03-29T09:25:23.748Z</time></trkpt><trkpt lat="38.1107517" lon="14.8617233"><ele>785.0</ele><time>2026-03-29T09:25:24.748Z</time></trkpt><trkpt lat="38.1106517" lon="14.8617017"><ele>783.8</ele><time>2026-03-29T09:25:26.748Z</time></trkpt><trkpt lat="38.1105633" lon="14.8616633"><ele>782.6</ele><time>2026-03-29T09:25:28.748Z</time></trkpt><trkpt lat="38.11047" lon="14.8616517"><ele>781.4000000000001</ele><time>2026-03-29T09:25:30.748Z</time></trkpt><trkpt lat="38.110365" lon="14.8616283"><ele>780.2</ele><time>2026-03-29T09:25:32.747Z</time></trkpt><trkpt lat="38.1102517" lon="14.8615967"><ele>779.0</ele><time>2026-03-29T09:25:34.748Z</time></trkpt><trkpt lat="38.1101717" lon="14.8615383"><ele>779.0000000000001</ele><time>2026-03-29T09:25:36.748Z</time></trkpt><trkpt lat="38.1101467" lon="14.8614483"><ele>779.0</ele><time>2026-03-29T09:25:38.748Z</time></trkpt><trkpt lat="38.1101917" lon="14.8613533"><ele>779.0</ele><time>2026-03-29T09:25:40.748Z</time></trkpt><trkpt lat="38.1103067" lon="14.8612817"><ele>779.0</ele><time>2026-03-29T09:25:42.747Z</time></trkpt><trkpt lat="38.1103783" lon="14.86126"><ele>779.0000000000001</ele><time>2026-03-29T09:25:43.747Z</time></trkpt><trkpt lat="38.11046" lon="14.86123"><ele>779.0</ele><time>2026-03-29T09:25:44.747Z</time></trkpt><trkpt lat="38.1105483" lon="14.861195"><ele>779.0000000000001</ele><time>2026-03-29T09:25:45.747Z</time></trkpt><trkpt lat="38.1106267" lon="14.8611567"><ele>779.0</ele><time>2026-03-29T09:25:46.748Z</time></trkpt><trkpt lat="38.1107" lon="14.8611233"><ele>779.0</ele><time>2026-03-29T09:25:47.748Z</time></trkpt><trkpt lat="38.1107717" lon="14.8610883"><ele>779.0</ele><time>2026-03-29T09:25:48.747Z</time></trkpt><trkpt lat="38.1108417" lon="14.8610583"><ele>779.0000000000001</ele><time>2026-03-29T09:25:49.747Z</time></trkpt><trkpt lat="38.11091" lon="14.8610383"><ele>779.0</ele><time>2026-03-29T09:25:50.747Z</time></trkpt><trkpt lat="38.1109833" lon="14.861025"><ele>778.8333333333334</ele><time>2026-03-29T09:25:51.748Z</time></trkpt><trkpt lat="38.1110583" lon="14.8610083"><ele>778.6666666666667</ele><time>2026-03-29T09:25:52.748Z</time></trkpt><trkpt lat="38.1111367" lon="14.8609917"><ele>778.5</ele><time>2026-03-29T09:25:53.748Z</time></trkpt><trkpt lat="38.1112133" lon="14.8609717"><ele>778.3333333333333</ele><time>2026-03-29T09:25:54.748Z</time></trkpt><trkpt lat="38.1112917" lon="14.860945"><ele>778.1666666666666</ele><time>2026-03-29T09:25:55.748Z</time></trkpt><trkpt lat="38.1113733" lon="14.8609267"><ele>778.0</ele><time>2026-03-29T09:25:56.748Z</time></trkpt><trkpt lat="38.1114433" lon="14.8609217"><ele>776.4999999999999</ele><time>2026-03-29T09:25:57.749Z</time></trkpt><trkpt lat="38.11151" lon="14.860925"><ele>775.0</ele><time>2026-03-29T09:25:58.748Z</time></trkpt><trkpt lat="38.111575" lon="14.8609383"><ele>773.5</ele><time>2026-03-29T09:25:59.749Z</time></trkpt><trkpt lat="38.11169" lon="14.8609933"><ele>772.0</ele><time>2026-03-29T09:26:01.749Z</time></trkpt><trkpt lat="38.1117517" lon="14.86103"><ele>770.4999999999999</ele><time>2026-03-29T09:26:02.748Z</time></trkpt><trkpt lat="38.1118167" lon="14.86106"><ele>769.0</ele><time>2026-03-29T09:26:03.749Z</time></trkpt><trkpt lat="38.11188" lon="14.861085"><ele>768.8333333333333</ele><time>2026-03-29T09:26:04.749Z</time></trkpt><trkpt lat="38.1119433" lon="14.86111"><ele>768.6666666666666</ele><time>2026-03-29T09:26:05.749Z</time></trkpt><trkpt lat="38.1120117" lon="14.86112"><ele>768.5</ele><time>2026-03-29T09:26:06.748Z</time></trkpt><trkpt lat="38.112125" lon="14.8610883"><ele>768.3333333333333</ele><time>2026-03-29T09:26:08.749Z</time></trkpt><trkpt lat="38.1122117" lon="14.860965"><ele>768.1666666666666</ele><time>2026-03-29T09:26:10.749Z</time></trkpt><trkpt lat="38.1122417" lon="14.8608883"><ele>768.0</ele><time>2026-03-29T09:26:11.749Z</time></trkpt><trkpt lat="38.11227" lon="14.860745"><ele>766.0</ele><time>2026-03-29T09:26:13.749Z</time></trkpt><trkpt lat="38.1122967" lon="14.8606283"><ele>764.0</ele><time>2026-03-29T09:26:15.749Z</time></trkpt><trkpt lat="38.112335" lon="14.86056"><ele>762.0</ele><time>2026-03-29T09:26:17.749Z</time></trkpt><trkpt lat="38.1124017" lon="14.8605533"><ele>760.0</ele><time>2026-03-29T09:26:19.749Z</time></trkpt><trkpt lat="38.1125" lon="14.8606317"><ele>758.0</ele><time>2026-03-29T09:26:21.749Z</time></trkpt><trkpt lat="38.1125667" lon="14.860705"><ele>756.0</ele><time>2026-03-29T09:26:22.749Z</time></trkpt><trkpt lat="38.11265" lon="14.8607783"><ele>753.8333333333334</ele><time>2026-03-29T09:26:23.749Z</time></trkpt><trkpt lat="38.1127233" lon="14.8608367"><ele>751.6666666666666</ele><time>2026-03-29T09:26:24.749Z</time></trkpt><trkpt lat="38.1127833" lon="14.8608983"><ele>749.5</ele><time>2026-03-29T09:26:25.749Z</time></trkpt><trkpt lat="38.11285" lon="14.8609617"><ele>747.3333333333333</ele><time>2026-03-29T09:26:26.748Z</time></trkpt><trkpt lat="38.1129033" lon="14.861025"><ele>745.1666666666666</ele><time>2026-03-29T09:26:27.749Z</time></trkpt><trkpt lat="38.11296" lon="14.8610817"><ele>743.0</ele><time>2026-03-29T09:26:28.749Z</time></trkpt><trkpt lat="38.1130417" lon="14.86114"><ele>743.0</ele><time>2026-03-29T09:26:30.749Z</time></trkpt><trkpt lat="38.1131283" lon="14.861115"><ele>743.0</ele><time>2026-03-29T09:26:32.748Z</time></trkpt><trkpt lat="38.11318" lon="14.8609817"><ele>743.0</ele><time>2026-03-29T09:26:34.749Z</time></trkpt><trkpt lat="38.1132033" lon="14.8608367"><ele>743.0</ele><time>2026-03-29T09:26:36.749Z</time></trkpt><trkpt lat="38.1132167" lon="14.8607583"><ele>743.0</ele><time>2026-03-29T09:26:37.748Z</time></trkpt><trkpt lat="38.1132333" lon="14.8605983"><ele>743.0</ele><time>2026-03-29T09:26:39.749Z</time></trkpt><trkpt lat="38.113235" lon="14.860505"><ele>743.0</ele><time>2026-03-29T09:26:40.748Z</time></trkpt><trkpt lat="38.1132317" lon="14.8604167"><ele>743.0</ele><time>2026-03-29T09:26:41.748Z</time></trkpt><trkpt lat="38.1132417" lon="14.8602683"><ele>743.0</ele><time>2026-03-29T09:26:43.748Z</time></trkpt><trkpt lat="38.1132517" lon="14.860145"><ele>743.0</ele><time>2026-03-29T09:26:45.748Z</time></trkpt><trkpt lat="38.1132817" lon="14.8600483"><ele>743.0</ele><time>2026-03-29T09:26:47.748Z</time></trkpt><trkpt lat="38.1133667" lon="14.8599917"><ele>739.5</ele><time>2026-03-29T09:26:49.749Z</time></trkpt><trkpt lat="38.1134483" lon="14.859965"><ele>736.0</ele><time>2026-03-29T09:26:51.749Z</time></trkpt><trkpt lat="38.1135283" lon="14.8600133"><ele>732.5</ele><time>2026-03-29T09:26:53.749Z</time></trkpt><trkpt lat="38.1135933" lon="14.860055"><ele>729.0</ele><time>2026-03-29T09:26:54.749Z</time></trkpt><trkpt lat="38.113665" lon="14.860095"><ele>725.5</ele><time>2026-03-29T09:26:55.749Z</time></trkpt><trkpt lat="38.1137383" lon="14.8601133"><ele>722.0</ele><time>2026-03-29T09:26:56.749Z</time></trkpt><trkpt lat="38.1138183" lon="14.8601267"><ele>722.0</ele><time>2026-03-29T09:26:57.749Z</time></trkpt><trkpt lat="38.113895" lon="14.8601367"><ele>722.0</ele><time>2026-03-29T09:26:58.749Z</time></trkpt><trkpt lat="38.113965" lon="14.860145"><ele>722.0</ele><time>2026-03-29T09:26:59.748Z</time></trkpt><trkpt lat="38.1140367" lon="14.8601533"><ele>722.0</ele><time>2026-03-29T09:27:00.748Z</time></trkpt><trkpt lat="38.11415" lon="14.8601617"><ele>722.0</ele><time>2026-03-29T09:27:02.748Z</time></trkpt><trkpt lat="38.114255" lon="14.8601667"><ele>722.0</ele><time>2026-03-29T09:27:04.749Z</time></trkpt><trkpt lat="38.1143217" lon="14.8601567"><ele>718.6666666666666</ele><time>2026-03-29T09:27:05.749Z</time></trkpt><trkpt lat="38.1144033" lon="14.8601433"><ele>715.3333333333333</ele><time>2026-03-29T09:27:06.749Z</time></trkpt><trkpt lat="38.1144883" lon="14.8601233"><ele>712.0</ele><time>2026-03-29T09:27:07.749Z</time></trkpt><trkpt lat="38.1145933" lon="14.860105"><ele>708.6666666666666</ele><time>2026-03-29T09:27:09.749Z</time></trkpt><trkpt lat="38.1146583" lon="14.8600967"><ele>705.3333333333334</ele><time>2026-03-29T09:27:12.749Z</time></trkpt><trkpt lat="38.114725" lon="14.8600717"><ele>702.0</ele><time>2026-03-29T09:27:16.749Z</time></trkpt><trkpt lat="38.1148283" lon="14.860085"><ele>701.5714285714287</ele><time>2026-03-29T09:27:18.749Z</time></trkpt><trkpt lat="38.1149117" lon="14.8600817"><ele>701.1428571428571</ele><time>2026-03-29T09:27:19.749Z</time></trkpt><trkpt lat="38.1149867" lon="14.86008"><ele>700.7142857142858</ele><time>2026-03-29T09:27:20.749Z</time></trkpt><trkpt lat="38.1150633" lon="14.8600817"><ele>700.2857142857143</ele><time>2026-03-29T09:27:21.749Z</time></trkpt><trkpt lat="38.1151333" lon="14.86008"><ele>699.8571428571429</ele><time>2026-03-29T09:27:22.749Z</time></trkpt><trkpt lat="38.1152067" lon="14.8600733"><ele>699.4285714285714</ele><time>2026-03-29T09:27:23.749Z</time></trkpt><trkpt lat="38.1152767" lon="14.8600683"><ele>699.0</ele><time>2026-03-29T09:27:24.748Z</time></trkpt><trkpt lat="38.1153417" lon="14.860065"><ele>699.0</ele><time>2026-03-29T09:27:25.749Z</time></trkpt><trkpt lat="38.1154683" lon="14.8600583"><ele>699.0</ele><time>2026-03-29T09:27:27.749Z</time></trkpt><trkpt lat="38.1155333" lon="14.8600667"><ele>699.0</ele><time>2026-03-29T09:27:28.749Z</time></trkpt><trkpt lat="38.1156533" lon="14.86009"><ele>699.0</ele><time>2026-03-29T09:27:30.748Z</time></trkpt><trkpt lat="38.115765" lon="14.86009"><ele>699.0</ele><time>2026-03-29T09:27:32.749Z</time></trkpt><trkpt lat="38.1158633" lon="14.8600917"><ele>698.2857142857142</ele><time>2026-03-29T09:27:34.748Z</time></trkpt><trkpt lat="38.115955" lon="14.8601017"><ele>697.5714285714287</ele><time>2026-03-29T09:27:36.748Z</time></trkpt><trkpt lat="38.116025" lon="14.8601"><ele>696.8571428571429</ele><time>2026-03-29T09:27:38.749Z</time></trkpt><trkpt lat="38.1160917" lon="14.8601017"><ele>696.1428571428571</ele><time>2026-03-29T09:27:40.749Z</time></trkpt><trkpt lat="38.11616" lon="14.860105"><ele>695.4285714285713</ele><time>2026-03-29T09:27:42.748Z</time></trkpt><trkpt lat="38.1162433" lon="14.8600917"><ele>694.7142857142858</ele><time>2026-03-29T09:27:44.748Z</time></trkpt><trkpt lat="38.11631" lon="14.8600933"><ele>694.0</ele><time>2026-03-29T09:27:46.749Z</time></trkpt><trkpt lat="38.1163783" lon="14.8601033"><ele>693.8333333333334</ele><time>2026-03-29T09:27:48.748Z</time></trkpt><trkpt lat="38.11644" lon="14.86013"><ele>693.6666666666667</ele><time>2026-03-29T09:27:50.749Z</time></trkpt><trkpt lat="38.1165017" lon="14.86018"><ele>693.5</ele><time>2026-03-29T09:27:52.748Z</time></trkpt><trkpt lat="38.1165683" lon="14.86021"><ele>693.3333333333334</ele><time>2026-03-29T09:27:54.748Z</time></trkpt><trkpt lat="38.1166533" lon="14.8602383"><ele>693.1666666666666</ele><time>2026-03-29T09:27:56.748Z</time></trkpt><trkpt lat="38.1167367" lon="14.8602883"><ele>693.0</ele><time>2026-03-29T09:27:58.749Z</time></trkpt><trkpt lat="38.116815" lon="14.8603483"><ele>691.8333333333334</ele><time>2026-03-29T09:28:00.749Z</time></trkpt><trkpt lat="38.1168883" lon="14.8603983"><ele>690.6666666666666</ele><time>2026-03-29T09:28:02.749Z</time></trkpt><trkpt lat="38.11695" lon="14.86046"><ele>689.5</ele><time>2026-03-29T09:28:04.749Z</time></trkpt><trkpt lat="38.1170133" lon="14.86051"><ele>688.3333333333333</ele><time>2026-03-29T09:28:06.749Z</time></trkpt><trkpt lat="38.1170717" lon="14.8605433"><ele>687.1666666666666</ele><time>2026-03-29T09:28:08.748Z</time></trkpt><trkpt lat="38.117135" lon="14.860585"><ele>686.0</ele><time>2026-03-29T09:28:10.749Z</time></trkpt><trkpt lat="38.1172117" lon="14.860635"><ele>686.0</ele><time>2026-03-29T09:28:12.749Z</time></trkpt><trkpt lat="38.1172733" lon="14.8606633"><ele>686.0</ele><time>2026-03-29T09:28:14.748Z</time></trkpt><trkpt lat="38.117335" lon="14.8606867"><ele>686.0</ele><time>2026-03-29T09:28:16.748Z</time></trkpt><trkpt lat="38.1174217" lon="14.8606917"><ele>686.0</ele><time>2026-03-29T09:28:19.748Z</time></trkpt><trkpt lat="38.1175183" lon="14.8607033"><ele>686.0</ele><time>2026-03-29T09:28:21.749Z</time></trkpt><trkpt lat="38.1176533" lon="14.8606867"><ele>686.0</ele><time>2026-03-29T09:28:23.749Z</time></trkpt><trkpt lat="38.1177417" lon="14.86068"><ele>686.3333333333333</ele><time>2026-03-29T09:28:24.749Z</time></trkpt><trkpt lat="38.1178283" lon="14.86066"><ele>686.6666666666666</ele><time>2026-03-29T09:28:25.749Z</time></trkpt><trkpt lat="38.1179083" lon="14.86063"><ele>687.0</ele><time>2026-03-29T09:28:26.749Z</time></trkpt><trkpt lat="38.1179717" lon="14.860595"><ele>687.3333333333334</ele><time>2026-03-29T09:28:27.748Z</time></trkpt><trkpt lat="38.1180533" lon="14.86057"><ele>687.6666666666667</ele><time>2026-03-29T09:28:28.749Z</time></trkpt><trkpt lat="38.1181667" lon="14.86055"><ele>688.0</ele><time>2026-03-29T09:28:29.748Z</time></trkpt><trkpt lat="38.1182933" lon="14.86052"><ele>688.75</ele><time>2026-03-29T09:28:30.748Z</time></trkpt><trkpt lat="38.1184217" lon="14.8604733"><ele>689.5</ele><time>2026-03-29T09:28:31.749Z</time></trkpt><trkpt lat="38.118545" lon="14.860415"><ele>690.25</ele><time>2026-03-29T09:28:32.749Z</time></trkpt><trkpt lat="38.11862" lon="14.8603333"><ele>691.0</ele><time>2026-03-29T09:28:33.749Z</time></trkpt><trkpt lat="38.1186733" lon="14.8602467"><ele>691.0</ele><time>2026-03-29T09:28:34.749Z</time></trkpt><trkpt lat="38.1187017" lon="14.860145"><ele>691.0</ele><time>2026-03-29T09:28:35.748Z</time></trkpt><trkpt lat="38.1187433" lon="14.8600433"><ele>691.0</ele><time>2026-03-29T09:28:36.749Z</time></trkpt><trkpt lat="38.1188017" lon="14.859945"><ele>691.0</ele><time>2026-03-29T09:28:37.749Z</time></trkpt><trkpt lat="38.1188617" lon="14.8598517"><ele>691.0</ele><time>2026-03-29T09:28:38.749Z</time></trkpt><trkpt lat="38.1189217" lon="14.85976"><ele>690.5</ele><time>2026-03-29T09:28:39.749Z</time></trkpt><trkpt lat="38.1189767" lon="14.8596783"><ele>690.0</ele><time>2026-03-29T09:28:40.749Z</time></trkpt><trkpt lat="38.1190283" lon="14.8595717"><ele>689.5</ele><time>2026-03-29T09:28:42.749Z</time></trkpt><trkpt lat="38.1190217" lon="14.8594883"><ele>689.0</ele><time>2026-03-29T09:28:44.748Z</time></trkpt><trkpt lat="38.11903" lon="14.8593517"><ele>688.5</ele><time>2026-03-29T09:28:46.749Z</time></trkpt><trkpt lat="38.11905" lon="14.8592683"><ele>688.0</ele><time>2026-03-29T09:28:47.749Z</time></trkpt><trkpt lat="38.1190817" lon="14.85919"><ele>690.5</ele><time>2026-03-29T09:28:48.749Z</time></trkpt><trkpt lat="38.1191183" lon="14.85912"><ele>693.0</ele><time>2026-03-29T09:28:49.748Z</time></trkpt><trkpt lat="38.1191533" lon="14.85905"><ele>695.5</ele><time>2026-03-29T09:28:50.748Z</time></trkpt><trkpt lat="38.1191917" lon="14.858985"><ele>698.0</ele><time>2026-03-29T09:28:51.748Z</time></trkpt><trkpt lat="38.1192767" lon="14.85888"><ele>700.5</ele><time>2026-03-29T09:28:53.749Z</time></trkpt><trkpt lat="38.1193267" lon="14.85883"><ele>703.0</ele><time>2026-03-29T09:28:54.748Z</time></trkpt><trkpt lat="38.1194333" lon="14.85876"><ele>703.0</ele><time>2026-03-29T09:28:56.749Z</time></trkpt><trkpt lat="38.119535" lon="14.8586883"><ele>703.0</ele><time>2026-03-29T09:28:58.749Z</time></trkpt><trkpt lat="38.1195967" lon="14.858595"><ele>703.0</ele><time>2026-03-29T09:29:00.749Z</time></trkpt><trkpt lat="38.1196167" lon="14.85847"><ele>703.0</ele><time>2026-03-29T09:29:02.749Z</time></trkpt><trkpt lat="38.119665" lon="14.8583917"><ele>703.0</ele><time>2026-03-29T09:29:05.749Z</time></trkpt><trkpt lat="38.1197133" lon="14.85834"><ele>700.1666666666667</ele><time>2026-03-29T09:29:07.749Z</time></trkpt><trkpt lat="38.119775" lon="14.8582817"><ele>697.3333333333334</ele><time>2026-03-29T09:29:09.749Z</time></trkpt><trkpt lat="38.119865" lon="14.8582433"><ele>694.5</ele><time>2026-03-29T09:29:11.749Z</time></trkpt><trkpt lat="38.1199483" lon="14.8582417"><ele>691.6666666666666</ele><time>2026-03-29T09:29:13.749Z</time></trkpt><trkpt lat="38.1200283" lon="14.8582217"><ele>688.8333333333333</ele><time>2026-03-29T09:29:15.749Z</time></trkpt><trkpt lat="38.1201083" lon="14.8582017"><ele>686.0</ele><time>2026-03-29T09:29:17.749Z</time></trkpt><trkpt lat="38.1202083" lon="14.8581283"><ele>686.0</ele><time>2026-03-29T09:29:19.748Z</time></trkpt><trkpt lat="38.120275" lon="14.858065"><ele>686.0</ele><time>2026-03-29T09:29:20.749Z</time></trkpt><trkpt lat="38.1203517" lon="14.8579783"><ele>686.0</ele><time>2026-03-29T09:29:21.748Z</time></trkpt><trkpt lat="38.1204217" lon="14.8578983"><ele>686.0</ele><time>2026-03-29T09:29:22.749Z</time></trkpt><trkpt lat="38.1204817" lon="14.8578417"><ele>686.0</ele><time>2026-03-29T09:29:23.749Z</time></trkpt><trkpt lat="38.12055" lon="14.8577917"><ele>686.0</ele><time>2026-03-29T09:29:24.749Z</time></trkpt><trkpt lat="38.1206067" lon="14.8577517"><ele>686.0</ele><time>2026-03-29T09:29:25.749Z</time></trkpt><trkpt lat="38.1206933" lon="14.857705"><ele>686.0</ele><time>2026-03-29T09:29:27.748Z</time></trkpt><trkpt lat="38.12077" lon="14.8576917"><ele>686.0</ele><time>2026-03-29T09:29:29.749Z</time></trkpt><trkpt lat="38.1208417" lon="14.8576933"><ele>686.0</ele><time>2026-03-29T09:29:31.748Z</time></trkpt><trkpt lat="38.12092" lon="14.8577283"><ele>686.0</ele><time>2026-03-29T09:29:33.748Z</time></trkpt><trkpt lat="38.12102" lon="14.857765"><ele>686.0</ele><time>2026-03-29T09:29:35.748Z</time></trkpt><trkpt lat="38.1211283" lon="14.8577483"><ele>687.6666666666666</ele><time>2026-03-29T09:29:37.749Z</time></trkpt><trkpt lat="38.1211883" lon="14.8577817"><ele>689.3333333333333</ele><time>2026-03-29T09:29:39.749Z</time></trkpt><trkpt lat="38.1211217" lon="14.8578683"><ele>691.0</ele><time>2026-03-29T09:29:42.749Z</time></trkpt><trkpt lat="38.1210767" lon="14.8579267"><ele>692.6666666666666</ele><time>2026-03-29T09:29:43.748Z</time></trkpt><trkpt lat="38.121" lon="14.8580067"><ele>694.3333333333334</ele><time>2026-03-29T09:29:45.749Z</time></trkpt><trkpt lat="38.12091" lon="14.8580633"><ele>696.0</ele><time>2026-03-29T09:29:47.749Z</time></trkpt><trkpt lat="38.12078" lon="14.85812"><ele>694.0</ele><time>2026-03-29T09:29:49.748Z</time></trkpt><trkpt lat="38.1207217" lon="14.8581583"><ele>692.0</ele><time>2026-03-29T09:29:50.748Z</time></trkpt><trkpt lat="38.1206467" lon="14.858225"><ele>690.0</ele><time>2026-03-29T09:29:52.749Z</time></trkpt><trkpt lat="38.120605" lon="14.858355"><ele>688.0</ele><time>2026-03-29T09:29:54.749Z</time></trkpt><trkpt lat="38.1205783" lon="14.8584783"><ele>686.0</ele><time>2026-03-29T09:29:56.749Z</time></trkpt><trkpt lat="38.1205967" lon="14.8583717"><ele>686.0</ele><time>2026-03-29T09:30:07.75Z</time></trkpt><trkpt lat="38.1206283" lon="14.85827"><ele>686.0</ele><time>2026-03-29T09:30:09.749Z</time></trkpt><trkpt lat="38.1206867" lon="14.85822"><ele>686.0</ele><time>2026-03-29T09:30:11.75Z</time></trkpt><trkpt lat="38.1207983" lon="14.858225"><ele>686.0</ele><time>2026-03-29T09:30:13.75Z</time></trkpt><trkpt lat="38.1208683" lon="14.8582467"><ele>686.0</ele><time>2026-03-29T09:30:14.75Z</time></trkpt><trkpt lat="38.120955" lon="14.8582933"><ele>686.0</ele><time>2026-03-29T09:30:15.75Z</time></trkpt><trkpt lat="38.1210467" lon="14.8583433"><ele>688.0</ele><time>2026-03-29T09:30:16.749Z</time></trkpt><trkpt lat="38.1211383" lon="14.8584"><ele>690.0</ele><time>2026-03-29T09:30:17.749Z</time></trkpt><trkpt lat="38.12123" lon="14.8584533"><ele>692.0</ele><time>2026-03-29T09:30:18.749Z</time></trkpt><trkpt lat="38.1213083" lon="14.8585167"><ele>694.0</ele><time>2026-03-29T09:30:19.749Z</time></trkpt><trkpt lat="38.1213983" lon="14.858595"><ele>696.0</ele><time>2026-03-29T09:30:21.749Z</time></trkpt><trkpt lat="38.12148" lon="14.85864"><ele>698.6666666666666</ele><time>2026-03-29T09:30:23.75Z</time></trkpt><trkpt lat="38.121565" lon="14.8586683"><ele>701.3333333333334</ele><time>2026-03-29T09:30:25.75Z</time></trkpt><trkpt lat="38.1216467" lon="14.8586817"><ele>704.0</ele><time>2026-03-29T09:30:27.749Z</time></trkpt><trkpt lat="38.1217367" lon="14.8586967"><ele>706.6666666666667</ele><time>2026-03-29T09:30:29.75Z</time></trkpt><trkpt lat="38.1218067" lon="14.8587367"><ele>709.3333333333334</ele><time>2026-03-29T09:30:31.75Z</time></trkpt><trkpt lat="38.1218667" lon="14.85878"><ele>712.0</ele><time>2026-03-29T09:30:33.75Z</time></trkpt><trkpt lat="38.121945" lon="14.8588733"><ele>712.0</ele><time>2026-03-29T09:30:35.75Z</time></trkpt><trkpt lat="38.121995" lon="14.8589517"><ele>712.0</ele><time>2026-03-29T09:30:36.749Z</time></trkpt><trkpt lat="38.1220517" lon="14.8590483"><ele>712.0</ele><time>2026-03-29T09:30:37.75Z</time></trkpt><trkpt lat="38.12212" lon="14.8591267"><ele>712.0</ele><time>2026-03-29T09:30:38.75Z</time></trkpt><trkpt lat="38.122185" lon="14.8591833"><ele>712.0</ele><time>2026-03-29T09:30:39.75Z</time></trkpt><trkpt lat="38.122255" lon="14.85922"><ele>712.0</ele><time>2026-03-29T09:30:40.75Z</time></trkpt><trkpt lat="38.122325" lon="14.8592467"><ele>711.9999999999999</ele><time>2026-03-29T09:30:41.75Z</time></trkpt><trkpt lat="38.12239" lon="14.8592683"><ele>712.0</ele><time>2026-03-29T09:30:42.75Z</time></trkpt><trkpt lat="38.1224567" lon="14.85929"><ele>712.0</ele><time>2026-03-29T09:30:43.75Z</time></trkpt><trkpt lat="38.1225267" lon="14.85932"><ele>712.0</ele><time>2026-03-29T09:30:44.75Z</time></trkpt><trkpt lat="38.1225917" lon="14.8593483"><ele>712.0</ele><time>2026-03-29T09:30:45.75Z</time></trkpt><trkpt lat="38.1226517" lon="14.8593833"><ele>711.9999999999999</ele><time>2026-03-29T09:30:46.75Z</time></trkpt><trkpt lat="38.1227083" lon="14.859425"><ele>712.0</ele><time>2026-03-29T09:30:47.75Z</time></trkpt><trkpt lat="38.1227683" lon="14.8594783"><ele>707.8333333333334</ele><time>2026-03-29T09:30:48.75Z</time></trkpt><trkpt lat="38.1228283" lon="14.8595167"><ele>703.6666666666667</ele><time>2026-03-29T09:30:49.749Z</time></trkpt><trkpt lat="38.1228933" lon="14.8595533"><ele>699.5</ele><time>2026-03-29T09:30:50.75Z</time></trkpt><trkpt lat="38.1229717" lon="14.8595867"><ele>695.3333333333334</ele><time>2026-03-29T09:30:51.749Z</time></trkpt><trkpt lat="38.1230667" lon="14.8596333"><ele>691.1666666666666</ele><time>2026-03-29T09:30:52.75Z</time></trkpt><trkpt lat="38.12317" lon="14.859685"><ele>687.0</ele><time>2026-03-29T09:30:53.749Z</time></trkpt><trkpt lat="38.1232983" lon="14.8597383"><ele>685.75</ele><time>2026-03-29T09:30:54.749Z</time></trkpt><trkpt lat="38.1234483" lon="14.859805"><ele>684.5</ele><time>2026-03-29T09:30:55.75Z</time></trkpt><trkpt lat="38.1235783" lon="14.8598617"><ele>683.25</ele><time>2026-03-29T09:30:56.749Z</time></trkpt><trkpt lat="38.1236933" lon="14.8599033"><ele>682.0</ele><time>2026-03-29T09:30:57.749Z</time></trkpt><trkpt lat="38.1237967" lon="14.8599067"><ele>682.0</ele><time>2026-03-29T09:30:58.75Z</time></trkpt><trkpt lat="38.1238933" lon="14.859865"><ele>682.0</ele><time>2026-03-29T09:30:59.749Z</time></trkpt><trkpt lat="38.1239783" lon="14.8598033"><ele>682.0</ele><time>2026-03-29T09:31:00.75Z</time></trkpt><trkpt lat="38.124055" lon="14.8597167"><ele>682.0</ele><time>2026-03-29T09:31:01.75Z</time></trkpt><trkpt lat="38.12412" lon="14.8596067"><ele>682.0</ele><time>2026-03-29T09:31:02.75Z</time></trkpt><trkpt lat="38.1241783" lon="14.8594833"><ele>682.0</ele><time>2026-03-29T09:31:03.75Z</time></trkpt><trkpt lat="38.12423" lon="14.8593667"><ele>682.0</ele><time>2026-03-29T09:31:04.75Z</time></trkpt><trkpt lat="38.12428" lon="14.8592783"><ele>682.0</ele><time>2026-03-29T09:31:05.75Z</time></trkpt><trkpt lat="38.1243333" lon="14.8592317"><ele>682.0</ele><time>2026-03-29T09:31:06.75Z</time></trkpt><trkpt lat="38.1243933" lon="14.8592067"><ele>682.0</ele><time>2026-03-29T09:31:07.75Z</time></trkpt><trkpt lat="38.1244617" lon="14.8591933"><ele>682.0</ele><time>2026-03-29T09:31:08.75Z</time></trkpt><trkpt lat="38.12453" lon="14.8591917"><ele>682.5714285714286</ele><time>2026-03-29T09:31:09.75Z</time></trkpt><trkpt lat="38.1246083" lon="14.8591967"><ele>683.1428571428571</ele><time>2026-03-29T09:31:10.749Z</time></trkpt><trkpt lat="38.1246833" lon="14.859195"><ele>683.7142857142858</ele><time>2026-03-29T09:31:11.749Z</time></trkpt><trkpt lat="38.1247533" lon="14.85919"><ele>684.2857142857142</ele><time>2026-03-29T09:31:12.75Z</time></trkpt><trkpt lat="38.1248233" lon="14.8591767"><ele>684.8571428571429</ele><time>2026-03-29T09:31:13.75Z</time></trkpt><trkpt lat="38.1248883" lon="14.85915"><ele>685.4285714285714</ele><time>2026-03-29T09:31:14.75Z</time></trkpt><trkpt lat="38.1249567" lon="14.85911"><ele>686.0</ele><time>2026-03-29T09:31:15.749Z</time></trkpt><trkpt lat="38.1250267" lon="14.859055"><ele>686.0</ele><time>2026-03-29T09:31:16.75Z</time></trkpt><trkpt lat="38.1251017" lon="14.858995"><ele>686.0</ele><time>2026-03-29T09:31:17.75Z</time></trkpt><trkpt lat="38.1251783" lon="14.8589383"><ele>686.0</ele><time>2026-03-29T09:31:18.75Z</time></trkpt><trkpt lat="38.1252467" lon="14.858885"><ele>686.0</ele><time>2026-03-29T09:31:19.75Z</time></trkpt><trkpt lat="38.12531" lon="14.8588333"><ele>686.0</ele><time>2026-03-29T09:31:20.749Z</time></trkpt><trkpt lat="38.12537" lon="14.85878"><ele>686.0</ele><time>2026-03-29T09:31:21.749Z</time></trkpt><trkpt lat="38.1254283" lon="14.85873"><ele>686.0</ele><time>2026-03-29T09:31:22.749Z</time></trkpt><trkpt lat="38.1254917" lon="14.858685"><ele>686.0</ele><time>2026-03-29T09:31:23.749Z</time></trkpt><trkpt lat="38.12557" lon="14.8586333"><ele>686.0</ele><time>2026-03-29T09:31:24.75Z</time></trkpt><trkpt lat="38.1256667" lon="14.858565"><ele>686.0</ele><time>2026-03-29T09:31:25.75Z</time></trkpt><trkpt lat="38.1257667" lon="14.858505"><ele>686.0</ele><time>2026-03-29T09:31:26.75Z</time></trkpt><trkpt lat="38.12586" lon="14.8584517"><ele>685.5</ele><time>2026-03-29T09:31:27.75Z</time></trkpt><trkpt lat="38.1259483" lon="14.8584"><ele>685.0</ele><time>2026-03-29T09:31:28.749Z</time></trkpt><trkpt lat="38.1260317" lon="14.8583517"><ele>684.5</ele><time>2026-03-29T09:31:29.75Z</time></trkpt><trkpt lat="38.1261033" lon="14.8583"><ele>684.0</ele><time>2026-03-29T09:31:30.75Z</time></trkpt><trkpt lat="38.1261767" lon="14.8582583"><ele>683.5</ele><time>2026-03-29T09:31:31.75Z</time></trkpt><trkpt lat="38.12625" lon="14.8582217"><ele>683.0</ele><time>2026-03-29T09:31:32.75Z</time></trkpt><trkpt lat="38.1263133" lon="14.85819"><ele>683.0</ele><time>2026-03-29T09:31:33.75Z</time></trkpt><trkpt lat="38.1264117" lon="14.85813"><ele>683.0</ele><time>2026-03-29T09:31:35.75Z</time></trkpt><trkpt lat="38.1265133" lon="14.8580633"><ele>683.0</ele><time>2026-03-29T09:31:37.75Z</time></trkpt><trkpt lat="38.12658" lon="14.8580517"><ele>683.0</ele><time>2026-03-29T09:31:38.75Z</time></trkpt><trkpt lat="38.1266567" lon="14.858055"><ele>683.0</ele><time>2026-03-29T09:31:39.75Z</time></trkpt><trkpt lat="38.1267433" lon="14.8580467"><ele>682.3333333333333</ele><time>2026-03-29T09:31:40.75Z</time></trkpt><trkpt lat="38.12683" lon="14.858045"><ele>681.6666666666666</ele><time>2026-03-29T09:31:41.75Z</time></trkpt><trkpt lat="38.12692" lon="14.8580483"><ele>681.0</ele><time>2026-03-29T09:31:42.749Z</time></trkpt><trkpt lat="38.127005" lon="14.8580583"><ele>680.3333333333334</ele><time>2026-03-29T09:31:43.749Z</time></trkpt><trkpt lat="38.1270917" lon="14.8580767"><ele>679.6666666666667</ele><time>2026-03-29T09:31:44.749Z</time></trkpt><trkpt lat="38.1271783" lon="14.8580917"><ele>679.0</ele><time>2026-03-29T09:31:45.749Z</time></trkpt><trkpt lat="38.1272633" lon="14.858095"><ele>679.0</ele><time>2026-03-29T09:31:46.749Z</time></trkpt><trkpt lat="38.12735" lon="14.8581083"><ele>679.0</ele><time>2026-03-29T09:31:47.75Z</time></trkpt><trkpt lat="38.1274333" lon="14.8581367"><ele>679.0</ele><time>2026-03-29T09:31:48.75Z</time></trkpt><trkpt lat="38.127505" lon="14.8581467"><ele>679.0</ele><time>2026-03-29T09:31:49.75Z</time></trkpt><trkpt lat="38.1275767" lon="14.85816"><ele>679.0</ele><time>2026-03-29T09:31:50.749Z</time></trkpt><trkpt lat="38.12765" lon="14.8581833"><ele>679.0</ele><time>2026-03-29T09:31:51.749Z</time></trkpt><trkpt lat="38.1277167" lon="14.8582017"><ele>679.2857142857143</ele><time>2026-03-29T09:31:52.75Z</time></trkpt><trkpt lat="38.127785" lon="14.8582283"><ele>679.5714285714286</ele><time>2026-03-29T09:31:53.75Z</time></trkpt><trkpt lat="38.127855" lon="14.858255"><ele>679.8571428571429</ele><time>2026-03-29T09:31:54.75Z</time></trkpt><trkpt lat="38.1279167" lon="14.858275"><ele>680.1428571428571</ele><time>2026-03-29T09:31:55.749Z</time></trkpt><trkpt lat="38.1279833" lon="14.8582967"><ele>680.4285714285714</ele><time>2026-03-29T09:31:56.75Z</time></trkpt><trkpt lat="38.1280483" lon="14.8583233"><ele>680.7142857142858</ele><time>2026-03-29T09:31:57.749Z</time></trkpt><trkpt lat="38.1281133" lon="14.8583533"><ele>681.0</ele><time>2026-03-29T09:31:58.75Z</time></trkpt><trkpt lat="38.1281733" lon="14.8583933"><ele>678.5</ele><time>2026-03-29T09:31:59.75Z</time></trkpt><trkpt lat="38.128275" lon="14.85846"><ele>676.0</ele><time>2026-03-29T09:32:01.75Z</time></trkpt><trkpt lat="38.1283733" lon="14.8585183"><ele>673.5</ele><time>2026-03-29T09:32:03.75Z</time></trkpt><trkpt lat="38.1284317" lon="14.85855"><ele>671.0</ele><time>2026-03-29T09:32:04.75Z</time></trkpt><trkpt lat="38.1284983" lon="14.8585867"><ele>668.5</ele><time>2026-03-29T09:32:05.749Z</time></trkpt><trkpt lat="38.1285667" lon="14.8586333"><ele>666.0</ele><time>2026-03-29T09:32:06.75Z</time></trkpt><trkpt lat="38.1286383" lon="14.858675"><ele>666.0</ele><time>2026-03-29T09:32:07.75Z</time></trkpt><trkpt lat="38.128725" lon="14.858685"><ele>666.0</ele><time>2026-03-29T09:32:08.749Z</time></trkpt><trkpt lat="38.1287917" lon="14.8586717"><ele>666.0</ele><time>2026-03-29T09:32:09.75Z</time></trkpt><trkpt lat="38.128905" lon="14.8586683"><ele>666.0</ele><time>2026-03-29T09:32:11.749Z</time></trkpt><trkpt lat="38.1289767" lon="14.85867"><ele>666.0</ele><time>2026-03-29T09:32:13.749Z</time></trkpt><trkpt lat="38.12901" lon="14.8585617"><ele>666.0</ele><time>2026-03-29T09:32:16.749Z</time></trkpt><trkpt lat="38.1290417" lon="14.858385"><ele>666.6666666666666</ele><time>2026-03-29T09:32:18.75Z</time></trkpt><trkpt lat="38.12906" lon="14.8582917"><ele>667.3333333333334</ele><time>2026-03-29T09:32:19.749Z</time></trkpt><trkpt lat="38.129075" lon="14.85821"><ele>668.0</ele><time>2026-03-29T09:32:20.75Z</time></trkpt><trkpt lat="38.1290983" lon="14.8581333"><ele>668.6666666666667</ele><time>2026-03-29T09:32:21.75Z</time></trkpt><trkpt lat="38.1291167" lon="14.8579967"><ele>669.3333333333334</ele><time>2026-03-29T09:32:23.75Z</time></trkpt><trkpt lat="38.129175" lon="14.8579033"><ele>670.0</ele><time>2026-03-29T09:32:25.75Z</time></trkpt><trkpt lat="38.1292333" lon="14.8578517"><ele>670.0</ele><time>2026-03-29T09:32:27.749Z</time></trkpt><trkpt lat="38.12926" lon="14.8577667"><ele>670.0</ele><time>2026-03-29T09:32:29.749Z</time></trkpt><trkpt lat="38.1292733" lon="14.85765"><ele>670.0</ele><time>2026-03-29T09:32:31.749Z</time></trkpt><trkpt lat="38.1292967" lon="14.8575467"><ele>670.0</ele><time>2026-03-29T09:32:33.75Z</time></trkpt><trkpt lat="38.1293117" lon="14.857445"><ele>670.0</ele><time>2026-03-29T09:32:35.75Z</time></trkpt><trkpt lat="38.1293267" lon="14.8573483"><ele>670.0</ele><time>2026-03-29T09:32:37.749Z</time></trkpt><trkpt lat="38.129355" lon="14.85725"><ele>668.8333333333334</ele><time>2026-03-29T09:32:39.75Z</time></trkpt><trkpt lat="38.1293733" lon="14.8571467"><ele>667.6666666666667</ele><time>2026-03-29T09:32:41.75Z</time></trkpt><trkpt lat="38.1293867" lon="14.8570533"><ele>666.5</ele><time>2026-03-29T09:32:43.75Z</time></trkpt><trkpt lat="38.1294267" lon="14.856945"><ele>665.3333333333334</ele><time>2026-03-29T09:32:46.749Z</time></trkpt><trkpt lat="38.129435" lon="14.8568433"><ele>664.1666666666666</ele><time>2026-03-29T09:32:49.749Z</time></trkpt><trkpt lat="38.1293517" lon="14.85681"><ele>663.0</ele><time>2026-03-29T09:32:51.749Z</time></trkpt><trkpt lat="38.1292817" lon="14.8568067"><ele>663.0</ele><time>2026-03-29T09:32:52.75Z</time></trkpt><trkpt lat="38.12917" lon="14.8567967"><ele>663.0</ele><time>2026-03-29T09:32:54.75Z</time></trkpt><trkpt lat="38.1290767" lon="14.8567633"><ele>663.0</ele><time>2026-03-29T09:32:56.75Z</time></trkpt><trkpt lat="38.128995" lon="14.856695"><ele>663.0</ele><time>2026-03-29T09:32:58.75Z</time></trkpt><trkpt lat="38.1289267" lon="14.8565717"><ele>663.0</ele><time>2026-03-29T09:33:00.75Z</time></trkpt><trkpt lat="38.12887" lon="14.8565"><ele>662.8333333333334</ele><time>2026-03-29T09:33:01.75Z</time></trkpt><trkpt lat="38.1288233" lon="14.8564183"><ele>662.6666666666666</ele><time>2026-03-29T09:33:02.75Z</time></trkpt><trkpt lat="38.1287883" lon="14.8563433"><ele>662.5</ele><time>2026-03-29T09:33:03.749Z</time></trkpt><trkpt lat="38.128755" lon="14.856265"><ele>662.3333333333333</ele><time>2026-03-29T09:33:04.75Z</time></trkpt><trkpt lat="38.1287133" lon="14.8561083"><ele>662.1666666666666</ele><time>2026-03-29T09:33:06.749Z</time></trkpt><trkpt lat="38.128705" lon="14.8560183"><ele>662.0</ele><time>2026-03-29T09:33:07.75Z</time></trkpt><trkpt lat="38.1286833" lon="14.855925"><ele>660.1666666666666</ele><time>2026-03-29T09:33:08.75Z</time></trkpt><trkpt lat="38.12866" lon="14.8558433"><ele>658.3333333333333</ele><time>2026-03-29T09:33:09.75Z</time></trkpt><trkpt lat="38.12864" lon="14.8557617"><ele>656.5</ele><time>2026-03-29T09:33:10.75Z</time></trkpt><trkpt lat="38.1286267" lon="14.85563"><ele>654.6666666666666</ele><time>2026-03-29T09:33:12.75Z</time></trkpt><trkpt lat="38.12865" lon="14.8555267"><ele>652.8333333333334</ele><time>2026-03-29T09:33:14.749Z</time></trkpt><trkpt lat="38.1286567" lon="14.855425"><ele>651.0</ele><time>2026-03-29T09:33:16.75Z</time></trkpt><trkpt lat="38.1285983" lon="14.8553533"><ele>651.0</ele><time>2026-03-29T09:33:18.749Z</time></trkpt><trkpt lat="38.1285233" lon="14.8553133"><ele>651.0</ele><time>2026-03-29T09:33:20.75Z</time></trkpt><trkpt lat="38.128445" lon="14.8552683"><ele>651.0</ele><time>2026-03-29T09:33:22.75Z</time></trkpt><trkpt lat="38.1283667" lon="14.8552367"><ele>651.0</ele><time>2026-03-29T09:33:24.75Z</time></trkpt><trkpt lat="38.12828" lon="14.8551717"><ele>651.0</ele><time>2026-03-29T09:33:26.749Z</time></trkpt><trkpt lat="38.1282167" lon="14.8550867"><ele>651.0</ele><time>2026-03-29T09:33:28.75Z</time></trkpt><trkpt lat="38.1281633" lon="14.8549867"><ele>650.4</ele><time>2026-03-29T09:33:30.75Z</time></trkpt><trkpt lat="38.12811" lon="14.8548867"><ele>649.8</ele><time>2026-03-29T09:33:32.75Z</time></trkpt><trkpt lat="38.1280817" lon="14.8547833"><ele>649.1999999999999</ele><time>2026-03-29T09:33:34.75Z</time></trkpt><trkpt lat="38.1280433" lon="14.8546467"><ele>648.5999999999999</ele><time>2026-03-29T09:33:36.75Z</time></trkpt><trkpt lat="38.1280167" lon="14.8545733"><ele>648.0</ele><time>2026-03-29T09:33:37.75Z</time></trkpt><trkpt lat="38.127965" lon="14.8544483"><ele>648.0</ele><time>2026-03-29T09:33:39.749Z</time></trkpt><trkpt lat="38.12793" lon="14.854325"><ele>648.0</ele><time>2026-03-29T09:33:41.75Z</time></trkpt><trkpt lat="38.1279267" lon="14.8541817"><ele>648.0</ele><time>2026-03-29T09:33:43.75Z</time></trkpt><trkpt lat="38.1279133" lon="14.8540583"><ele>648.0</ele><time>2026-03-29T09:33:45.75Z</time></trkpt><trkpt lat="38.1278467" lon="14.8539517"><ele>648.0</ele><time>2026-03-29T09:33:47.75Z</time></trkpt><trkpt lat="38.1277767" lon="14.8538633"><ele>645.8333333333334</ele><time>2026-03-29T09:33:49.75Z</time></trkpt><trkpt lat="38.1277417" lon="14.8537717"><ele>643.6666666666666</ele><time>2026-03-29T09:33:51.75Z</time></trkpt><trkpt lat="38.1277617" lon="14.8536417"><ele>641.5</ele><time>2026-03-29T09:33:53.749Z</time></trkpt><trkpt lat="38.127795" lon="14.8535183"><ele>639.3333333333333</ele><time>2026-03-29T09:33:55.749Z</time></trkpt><trkpt lat="38.127815" lon="14.853425"><ele>637.1666666666666</ele><time>2026-03-29T09:33:58.749Z</time></trkpt><trkpt lat="38.1278133" lon="14.8533367"><ele>635.0</ele><time>2026-03-29T09:48:43.754Z</time></trkpt><trkpt lat="38.1277667" lon="14.8532333"><ele>634.5</ele><time>2026-03-29T09:48:45.754Z</time></trkpt><trkpt lat="38.1277383" lon="14.8531583"><ele>634.0</ele><time>2026-03-29T09:48:46.753Z</time></trkpt><trkpt lat="38.12771" lon="14.8530617"><ele>633.5</ele><time>2026-03-29T09:48:47.754Z</time></trkpt><trkpt lat="38.1276933" lon="14.85295"><ele>633.0</ele><time>2026-03-29T09:48:48.754Z</time></trkpt><trkpt lat="38.1276867" lon="14.8528417"><ele>632.5</ele><time>2026-03-29T09:48:49.753Z</time></trkpt><trkpt lat="38.12771" lon="14.8527317"><ele>632.0</ele><time>2026-03-29T09:48:50.754Z</time></trkpt><trkpt lat="38.1277417" lon="14.852625"><ele>634.6</ele><time>2026-03-29T09:48:51.754Z</time></trkpt><trkpt lat="38.1277767" lon="14.852515"><ele>637.2</ele><time>2026-03-29T09:48:52.754Z</time></trkpt><trkpt lat="38.1278383" lon="14.85241"><ele>639.8</ele><time>2026-03-29T09:48:53.753Z</time></trkpt><trkpt lat="38.1279133" lon="14.8523133"><ele>642.4</ele><time>2026-03-29T09:48:54.754Z</time></trkpt><trkpt lat="38.1279817" lon="14.8522183"><ele>645.0</ele><time>2026-03-29T09:48:55.753Z</time></trkpt><trkpt lat="38.12804" lon="14.8521367"><ele>645.0</ele><time>2026-03-29T09:48:56.754Z</time></trkpt><trkpt lat="38.128105" lon="14.852055"><ele>645.0</ele><time>2026-03-29T09:48:57.754Z</time></trkpt><trkpt lat="38.1281683" lon="14.8519717"><ele>645.0</ele><time>2026-03-29T09:48:58.753Z</time></trkpt><trkpt lat="38.128235" lon="14.8518883"><ele>645.0</ele><time>2026-03-29T09:48:59.754Z</time></trkpt><trkpt lat="38.1282883" lon="14.8517983"><ele>645.0</ele><time>2026-03-29T09:49:00.753Z</time></trkpt><trkpt lat="38.128325" lon="14.85172"><ele>645.0</ele><time>2026-03-29T09:49:01.754Z</time></trkpt><trkpt lat="38.128325" lon="14.8515917"><ele>645.8</ele><time>2026-03-29T09:49:03.754Z</time></trkpt><trkpt lat="38.1282183" lon="14.85147"><ele>646.6</ele><time>2026-03-29T09:49:05.754Z</time></trkpt><trkpt lat="38.1281383" lon="14.8514"><ele>647.4000000000001</ele><time>2026-03-29T09:49:06.753Z</time></trkpt><trkpt lat="38.1280767" lon="14.8513333"><ele>648.2</ele><time>2026-03-29T09:49:07.754Z</time></trkpt><trkpt lat="38.1280267" lon="14.851205"><ele>649.0</ele><time>2026-03-29T09:49:09.754Z</time></trkpt><trkpt lat="38.1280317" lon="14.8511217"><ele>649.0</ele><time>2026-03-29T09:49:10.754Z</time></trkpt><trkpt lat="38.128065" lon="14.8510067"><ele>649.0</ele><time>2026-03-29T09:49:11.754Z</time></trkpt><trkpt lat="38.1281367" lon="14.8508533"><ele>649.0</ele><time>2026-03-29T09:49:12.754Z</time></trkpt><trkpt lat="38.1282483" lon="14.8506617"><ele>649.0</ele><time>2026-03-29T09:49:13.754Z</time></trkpt><trkpt lat="38.12836" lon="14.85048"><ele>646.0</ele><time>2026-03-29T09:49:14.753Z</time></trkpt><trkpt lat="38.1284467" lon="14.8503233"><ele>643.0</ele><time>2026-03-29T09:49:15.754Z</time></trkpt><trkpt lat="38.128505" lon="14.8502083"><ele>640.0</ele><time>2026-03-29T09:49:16.753Z</time></trkpt><trkpt lat="38.128545" lon="14.8501"><ele>637.0</ele><time>2026-03-29T09:49:17.754Z</time></trkpt><trkpt lat="38.1285683" lon="14.84999"><ele>634.0</ele><time>2026-03-29T09:49:18.754Z</time></trkpt><trkpt lat="38.1285717" lon="14.8498883"><ele>634.0</ele><time>2026-03-29T09:49:19.754Z</time></trkpt><trkpt lat="38.128575" lon="14.8498"><ele>634.0</ele><time>2026-03-29T09:49:20.754Z</time></trkpt><trkpt lat="38.1285683" lon="14.849675"><ele>634.0</ele><time>2026-03-29T09:49:22.754Z</time></trkpt><trkpt lat="38.12857" lon="14.8495717"><ele>634.0</ele><time>2026-03-29T09:49:25.753Z</time></trkpt><trkpt lat="38.1286083" lon="14.8494733"><ele>634.0</ele><time>2026-03-29T09:49:29.754Z</time></trkpt><trkpt lat="38.1286617" lon="14.8494"><ele>634.0</ele><time>2026-03-29T09:49:32.754Z</time></trkpt><trkpt lat="38.1286983" lon="14.8493333"><ele>632.4285714285714</ele><time>2026-03-29T09:49:34.754Z</time></trkpt><trkpt lat="38.1287383" lon="14.84927"><ele>630.8571428571429</ele><time>2026-03-29T09:49:36.754Z</time></trkpt><trkpt lat="38.128775" lon="14.8492033"><ele>629.2857142857142</ele><time>2026-03-29T09:49:38.753Z</time></trkpt><trkpt lat="38.1288167" lon="14.8491183"><ele>627.7142857142858</ele><time>2026-03-29T09:49:40.754Z</time></trkpt><trkpt lat="38.1288783" lon="14.84903"><ele>626.1428571428571</ele><time>2026-03-29T09:49:43.754Z</time></trkpt><trkpt lat="38.1289317" lon="14.8489667"><ele>624.5714285714286</ele><time>2026-03-29T09:49:45.754Z</time></trkpt><trkpt lat="38.1289833" lon="14.848915"><ele>623.0</ele><time>2026-03-29T09:49:47.753Z</time></trkpt><trkpt lat="38.1290367" lon="14.8488633"><ele>621.3333333333333</ele><time>2026-03-29T09:49:49.754Z</time></trkpt><trkpt lat="38.1290917" lon="14.84879"><ele>619.6666666666666</ele><time>2026-03-29T09:49:51.753Z</time></trkpt><trkpt lat="38.1291483" lon="14.84871"><ele>618.0</ele><time>2026-03-29T09:49:53.754Z</time></trkpt><trkpt lat="38.1291883" lon="14.8486417"><ele>616.3333333333334</ele><time>2026-03-29T09:49:55.753Z</time></trkpt><trkpt lat="38.1291983" lon="14.84855"><ele>614.6666666666667</ele><time>2026-03-29T09:49:57.754Z</time></trkpt><trkpt lat="38.1292033" lon="14.8484617"><ele>613.0</ele><time>2026-03-29T09:49:59.754Z</time></trkpt><trkpt lat="38.129215" lon="14.8483633"><ele>613.0</ele><time>2026-03-29T09:50:01.753Z</time></trkpt><trkpt lat="38.1292183" lon="14.848255"><ele>613.0</ele><time>2026-03-29T09:50:03.754Z</time></trkpt><trkpt lat="38.1292267" lon="14.8481467"><ele>613.0</ele><time>2026-03-29T09:50:05.753Z</time></trkpt><trkpt lat="38.1292417" lon="14.84801"><ele>613.0</ele><time>2026-03-29T09:50:07.754Z</time></trkpt><trkpt lat="38.129245" lon="14.8478983"><ele>613.0</ele><time>2026-03-29T09:50:08.754Z</time></trkpt><trkpt lat="38.1292483" lon="14.8478"><ele>613.0</ele><time>2026-03-29T09:50:09.754Z</time></trkpt><trkpt lat="38.1292667" lon="14.847705"><ele>612.0</ele><time>2026-03-29T09:50:11.754Z</time></trkpt><trkpt lat="38.1293" lon="14.847555"><ele>611.0</ele><time>2026-03-29T09:50:14.753Z</time></trkpt><trkpt lat="38.1293167" lon="14.8474483"><ele>610.0</ele><time>2026-03-29T09:50:15.753Z</time></trkpt><trkpt lat="38.1293333" lon="14.847355"><ele>609.0</ele><time>2026-03-29T09:50:16.754Z</time></trkpt><trkpt lat="38.1294017" lon="14.8472117"><ele>608.0</ele><time>2026-03-29T09:50:18.753Z</time></trkpt><trkpt lat="38.1294733" lon="14.847135"><ele>608.0</ele><time>2026-03-29T09:50:19.754Z</time></trkpt><trkpt lat="38.1295483" lon="14.847045"><ele>608.0</ele><time>2026-03-29T09:50:20.754Z</time></trkpt><trkpt lat="38.1296267" lon="14.8469433"><ele>608.0</ele><time>2026-03-29T09:50:21.753Z</time></trkpt><trkpt lat="38.1297" lon="14.8468483"><ele>608.0</ele><time>2026-03-29T09:50:22.754Z</time></trkpt><trkpt lat="38.1297533" lon="14.846755"><ele>608.0</ele><time>2026-03-29T09:50:23.754Z</time></trkpt><trkpt lat="38.129775" lon="14.8466667"><ele>607.0</ele><time>2026-03-29T09:50:24.754Z</time></trkpt><trkpt lat="38.1297983" lon="14.8465733"><ele>606.0</ele><time>2026-03-29T09:50:25.754Z</time></trkpt><trkpt lat="38.1298267" lon="14.8464783"><ele>605.0</ele><time>2026-03-29T09:50:26.754Z</time></trkpt><trkpt lat="38.1298533" lon="14.84637"><ele>604.0</ele><time>2026-03-29T09:50:27.754Z</time></trkpt><trkpt lat="38.1298817" lon="14.8462717"><ele>603.0</ele><time>2026-03-29T09:50:28.754Z</time></trkpt><trkpt lat="38.1299233" lon="14.84618"><ele>602.0</ele><time>2026-03-29T09:50:29.753Z</time></trkpt><trkpt lat="38.12996" lon="14.8461017"><ele>602.0</ele><time>2026-03-29T09:50:30.753Z</time></trkpt><trkpt lat="38.1300067" lon="14.8460367"><ele>602.0</ele><time>2026-03-29T09:50:31.753Z</time></trkpt><trkpt lat="38.1301067" lon="14.8460167"><ele>602.0</ele><time>2026-03-29T09:50:33.755Z</time></trkpt><trkpt lat="38.13018" lon="14.8460433"><ele>602.0</ele><time>2026-03-29T09:50:34.754Z</time></trkpt><trkpt lat="38.1302733" lon="14.8460433"><ele>602.0</ele><time>2026-03-29T09:50:35.755Z</time></trkpt><trkpt lat="38.1303517" lon="14.8460167"><ele>602.0</ele><time>2026-03-29T09:50:36.755Z</time></trkpt><trkpt lat="38.1304233" lon="14.8459667"><ele>600.2</ele><time>2026-03-29T09:50:37.755Z</time></trkpt><trkpt lat="38.1304817" lon="14.8459167"><ele>598.4000000000001</ele><time>2026-03-29T09:50:38.755Z</time></trkpt><trkpt lat="38.130545" lon="14.8458283"><ele>596.5999999999999</ele><time>2026-03-29T09:50:40.754Z</time></trkpt><trkpt lat="38.1305917" lon="14.845665"><ele>594.8</ele><time>2026-03-29T09:50:42.755Z</time></trkpt><trkpt lat="38.1306167" lon="14.8455617"><ele>593.0</ele><time>2026-03-29T09:50:43.754Z</time></trkpt><trkpt lat="38.1306583" lon="14.845455"><ele>593.0</ele><time>2026-03-29T09:50:44.754Z</time></trkpt><trkpt lat="38.1307133" lon="14.8453367"><ele>593.0</ele><time>2026-03-29T09:50:45.755Z</time></trkpt><trkpt lat="38.1307817" lon="14.8452"><ele>593.0</ele><time>2026-03-29T09:50:46.755Z</time></trkpt><trkpt lat="38.1308583" lon="14.8450817"><ele>593.0</ele><time>2026-03-29T09:50:47.754Z</time></trkpt><trkpt lat="38.1309183" lon="14.8449817"><ele>593.1999999999999</ele><time>2026-03-29T09:50:48.755Z</time></trkpt><trkpt lat="38.1309917" lon="14.8448783"><ele>593.4</ele><time>2026-03-29T09:50:49.754Z</time></trkpt><trkpt lat="38.1310683" lon="14.8447817"><ele>593.5999999999999</ele><time>2026-03-29T09:50:50.755Z</time></trkpt><trkpt lat="38.1311417" lon="14.8446867"><ele>593.8</ele><time>2026-03-29T09:50:51.755Z</time></trkpt><trkpt lat="38.13121" lon="14.8446"><ele>594.0</ele><time>2026-03-29T09:50:52.754Z</time></trkpt><trkpt lat="38.1312633" lon="14.84452"><ele>594.0</ele><time>2026-03-29T09:50:53.754Z</time></trkpt><trkpt lat="38.13132" lon="14.8444483"><ele>594.0</ele><time>2026-03-29T09:50:54.755Z</time></trkpt><trkpt lat="38.1313617" lon="14.8443717"><ele>594.0</ele><time>2026-03-29T09:50:55.755Z</time></trkpt><trkpt lat="38.1314017" lon="14.8442983"><ele>594.0</ele><time>2026-03-29T09:50:56.755Z</time></trkpt><trkpt lat="38.1314867" lon="14.8441783"><ele>594.0</ele><time>2026-03-29T09:50:58.755Z</time></trkpt><trkpt lat="38.1315383" lon="14.84412"><ele>594.0</ele><time>2026-03-29T09:50:59.754Z</time></trkpt><trkpt lat="38.1315917" lon="14.8440717"><ele>593.1428571428571</ele><time>2026-03-29T09:51:00.755Z</time></trkpt><trkpt lat="38.1316567" lon="14.8440317"><ele>592.2857142857143</ele><time>2026-03-29T09:51:01.754Z</time></trkpt><trkpt lat="38.13172" lon="14.8439917"><ele>591.4285714285714</ele><time>2026-03-29T09:51:02.755Z</time></trkpt><trkpt lat="38.131785" lon="14.84394"><ele>590.5714285714286</ele><time>2026-03-29T09:51:03.755Z</time></trkpt><trkpt lat="38.13185" lon="14.843885"><ele>589.7142857142858</ele><time>2026-03-29T09:51:04.755Z</time></trkpt><trkpt lat="38.1319067" lon="14.843825"><ele>588.8571428571429</ele><time>2026-03-29T09:51:05.754Z</time></trkpt><trkpt lat="38.1319633" lon="14.8437633"><ele>588.0</ele><time>2026-03-29T09:51:06.755Z</time></trkpt><trkpt lat="38.13202" lon="14.8437"><ele>588.0</ele><time>2026-03-29T09:51:07.754Z</time></trkpt><trkpt lat="38.1320833" lon="14.8436333"><ele>588.0</ele><time>2026-03-29T09:51:08.755Z</time></trkpt><trkpt lat="38.1321433" lon="14.8435583"><ele>588.0</ele><time>2026-03-29T09:51:09.755Z</time></trkpt><trkpt lat="38.132205" lon="14.84348"><ele>588.0</ele><time>2026-03-29T09:51:10.755Z</time></trkpt><trkpt lat="38.132265" lon="14.8434083"><ele>588.0</ele><time>2026-03-29T09:51:11.754Z</time></trkpt><trkpt lat="38.1323283" lon="14.843345"><ele>588.0</ele><time>2026-03-29T09:51:12.755Z</time></trkpt><trkpt lat="38.1323967" lon="14.8432917"><ele>585.1666666666666</ele><time>2026-03-29T09:51:13.754Z</time></trkpt><trkpt lat="38.13246" lon="14.8432367"><ele>582.3333333333334</ele><time>2026-03-29T09:51:14.755Z</time></trkpt><trkpt lat="38.1325267" lon="14.84318"><ele>579.5</ele><time>2026-03-29T09:51:15.754Z</time></trkpt><trkpt lat="38.1325883" lon="14.8431333"><ele>576.6666666666667</ele><time>2026-03-29T09:51:16.754Z</time></trkpt><trkpt lat="38.1326467" lon="14.8430917"><ele>573.8333333333334</ele><time>2026-03-29T09:51:17.754Z</time></trkpt><trkpt lat="38.1327067" lon="14.8430533"><ele>571.0</ele><time>2026-03-29T09:51:18.755Z</time></trkpt><trkpt lat="38.132815" lon="14.8429583"><ele>571.0</ele><time>2026-03-29T09:51:20.755Z</time></trkpt><trkpt lat="38.13291" lon="14.8428533"><ele>571.0</ele><time>2026-03-29T09:51:22.755Z</time></trkpt><trkpt lat="38.1329533" lon="14.842795"><ele>571.0</ele><time>2026-03-29T09:51:23.755Z</time></trkpt><trkpt lat="38.13301" lon="14.842655"><ele>571.0</ele><time>2026-03-29T09:51:25.755Z</time></trkpt><trkpt lat="38.133055" lon="14.842505"><ele>571.0</ele><time>2026-03-29T09:51:27.754Z</time></trkpt><trkpt lat="38.1330933" lon="14.8424333"><ele>567.5</ele><time>2026-03-29T09:51:28.755Z</time></trkpt><trkpt lat="38.1331417" lon="14.8423233"><ele>564.0</ele><time>2026-03-29T09:51:30.755Z</time></trkpt><trkpt lat="38.133205" lon="14.8422567"><ele>560.5</ele><time>2026-03-29T09:51:32.755Z</time></trkpt><trkpt lat="38.1332883" lon="14.84219"><ele>557.0</ele><time>2026-03-29T09:51:34.754Z</time></trkpt><trkpt lat="38.1333533" lon="14.8421217"><ele>553.5</ele><time>2026-03-29T09:51:36.755Z</time></trkpt><trkpt lat="38.1334083" lon="14.8420717"><ele>550.0</ele><time>2026-03-29T09:51:38.755Z</time></trkpt><trkpt lat="38.1334933" lon="14.8420883"><ele>548.6666666666667</ele><time>2026-03-29T09:51:41.755Z</time></trkpt><trkpt lat="38.1335733" lon="14.8420867"><ele>547.3333333333334</ele><time>2026-03-29T09:51:43.755Z</time></trkpt><trkpt lat="38.1336333" lon="14.842035"><ele>546.0</ele><time>2026-03-29T09:51:45.754Z</time></trkpt><trkpt lat="38.13365" lon="14.84195"><ele>544.6666666666666</ele><time>2026-03-29T09:51:47.755Z</time></trkpt><trkpt lat="38.13366" lon="14.8418533"><ele>543.3333333333333</ele><time>2026-03-29T09:51:49.755Z</time></trkpt><trkpt lat="38.13369" lon="14.8417533"><ele>542.0</ele><time>2026-03-29T09:51:51.754Z</time></trkpt><trkpt lat="38.1337533" lon="14.8416433"><ele>537.0</ele><time>2026-03-29T09:51:53.755Z</time></trkpt><trkpt lat="38.1338233" lon="14.841495"><ele>532.0</ele><time>2026-03-29T09:51:55.755Z</time></trkpt><trkpt lat="38.1338733" lon="14.841375"><ele>527.0</ele><time>2026-03-29T09:51:56.754Z</time></trkpt><trkpt lat="38.1339283" lon="14.841225"><ele>522.0</ele><time>2026-03-29T09:51:57.754Z</time></trkpt><trkpt lat="38.1339683" lon="14.8410917"><ele>522.0</ele><time>2026-03-29T09:51:58.755Z</time></trkpt><trkpt lat="38.134015" lon="14.84099"><ele>522.0</ele><time>2026-03-29T09:51:59.755Z</time></trkpt><trkpt lat="38.13406" lon="14.84092"><ele>522.0</ele><time>2026-03-29T09:52:00.754Z</time></trkpt><trkpt lat="38.1341083" lon="14.84082"><ele>522.0</ele><time>2026-03-29T09:52:02.755Z</time></trkpt><trkpt lat="38.13413" lon="14.84071"><ele>522.0</ele><time>2026-03-29T09:52:04.754Z</time></trkpt><trkpt lat="38.13417" lon="14.840615"><ele>522.0</ele><time>2026-03-29T09:52:06.755Z</time></trkpt><trkpt lat="38.1342283" lon="14.8405317"><ele>521.5</ele><time>2026-03-29T09:52:08.755Z</time></trkpt><trkpt lat="38.1342817" lon="14.84048"><ele>521.0</ele><time>2026-03-29T09:52:11.754Z</time></trkpt><trkpt lat="38.1343417" lon="14.8404433"><ele>520.5</ele><time>2026-03-29T09:52:13.754Z</time></trkpt><trkpt lat="38.1344383" lon="14.8403833"><ele>520.0</ele><time>2026-03-29T09:52:15.755Z</time></trkpt><trkpt lat="38.13448" lon="14.8403"><ele>519.5</ele><time>2026-03-29T09:52:16.754Z</time></trkpt><trkpt lat="38.1345317" lon="14.840185"><ele>519.0</ele><time>2026-03-29T09:52:17.754Z</time></trkpt><trkpt lat="38.1345883" lon="14.84005"><ele>517.4</ele><time>2026-03-29T09:52:18.754Z</time></trkpt><trkpt lat="38.1346617" lon="14.83991"><ele>515.8</ele><time>2026-03-29T09:52:19.755Z</time></trkpt><trkpt lat="38.13473" lon="14.8397917"><ele>514.2</ele><time>2026-03-29T09:52:20.755Z</time></trkpt><trkpt lat="38.1347833" lon="14.8397"><ele>512.6</ele><time>2026-03-29T09:52:21.754Z</time></trkpt><trkpt lat="38.1348133" lon="14.839605"><ele>511.0</ele><time>2026-03-29T09:52:22.754Z</time></trkpt><trkpt lat="38.13484" lon="14.839525"><ele>511.00000000000006</ele><time>2026-03-29T09:52:23.755Z</time></trkpt><trkpt lat="38.1348533" lon="14.8394333"><ele>511.0</ele><time>2026-03-29T09:52:24.755Z</time></trkpt><trkpt lat="38.1348767" lon="14.8393317"><ele>511.0</ele><time>2026-03-29T09:52:25.754Z</time></trkpt><trkpt lat="38.134895" lon="14.8392417"><ele>511.0</ele><time>2026-03-29T09:52:26.754Z</time></trkpt><trkpt lat="38.1349117" lon="14.83913"><ele>511.00000000000006</ele><time>2026-03-29T09:52:28.755Z</time></trkpt><trkpt lat="38.1348867" lon="14.83904"><ele>511.0</ele><time>2026-03-29T09:52:35.755Z</time></trkpt><trkpt lat="38.1348617" lon="14.8389267"><ele>510.1666666666667</ele><time>2026-03-29T09:52:37.754Z</time></trkpt><trkpt lat="38.1348283" lon="14.8388217"><ele>509.33333333333337</ele><time>2026-03-29T09:52:39.755Z</time></trkpt><trkpt lat="38.134775" lon="14.8387167"><ele>508.5</ele><time>2026-03-29T09:52:41.755Z</time></trkpt><trkpt lat="38.1347183" lon="14.8386133"><ele>507.66666666666663</ele><time>2026-03-29T09:52:43.754Z</time></trkpt><trkpt lat="38.1346717" lon="14.8385433"><ele>506.8333333333333</ele><time>2026-03-29T09:52:45.755Z</time></trkpt><trkpt lat="38.1346217" lon="14.8384483"><ele>506.0</ele><time>2026-03-29T09:52:48.754Z</time></trkpt><trkpt lat="38.1345967" lon="14.83836"><ele>506.00000000000006</ele><time>2026-03-29T09:52:51.754Z</time></trkpt><trkpt lat="38.1345317" lon="14.8383383"><ele>506.0</ele><time>2026-03-29T09:52:56.755Z</time></trkpt><trkpt lat="38.1345333" lon="14.8384433"><ele>506.00000000000006</ele><time>2026-03-29T09:53:01.755Z</time></trkpt><trkpt lat="38.1345883" lon="14.838505"><ele>506.00000000000006</ele><time>2026-03-29T09:53:03.755Z</time></trkpt><trkpt lat="38.1346467" lon="14.838545"><ele>506.0</ele><time>2026-03-29T09:53:05.754Z</time></trkpt><trkpt lat="38.1346867" lon="14.83861"><ele>506.00000000000006</ele><time>2026-03-29T09:53:08.754Z</time></trkpt><trkpt lat="38.134735" lon="14.8386917"><ele>506.00000000000006</ele><time>2026-03-29T09:53:11.754Z</time></trkpt><trkpt lat="38.13477" lon="14.8387633"><ele>505.3333333333333</ele><time>2026-03-29T09:53:14.754Z</time></trkpt><trkpt lat="38.1348167" lon="14.8388483"><ele>504.66666666666663</ele><time>2026-03-29T09:53:18.755Z</time></trkpt><trkpt lat="38.134845" lon="14.8389517"><ele>504.0</ele><time>2026-03-29T09:53:21.754Z</time></trkpt><trkpt lat="38.1348683" lon="14.8390583"><ele>503.33333333333337</ele><time>2026-03-29T09:53:24.754Z</time></trkpt><trkpt lat="38.134875" lon="14.839145"><ele>502.6666666666667</ele><time>2026-03-29T09:53:26.755Z</time></trkpt><trkpt lat="38.134935" lon="14.839175"><ele>502.0</ele><time>2026-03-29T09:53:29.755Z</time></trkpt><trkpt lat="38.135035" lon="14.8390833"><ele>506.00000000000006</ele><time>2026-03-29T09:53:31.754Z</time></trkpt><trkpt lat="38.1350917" lon="14.838995"><ele>510.0</ele><time>2026-03-29T09:53:32.755Z</time></trkpt><trkpt lat="38.1351617" lon="14.838895"><ele>514.0</ele><time>2026-03-29T09:53:33.755Z</time></trkpt><trkpt lat="38.13523" lon="14.838835"><ele>518.0</ele><time>2026-03-29T09:53:34.755Z</time></trkpt><trkpt lat="38.1352933" lon="14.838795"><ele>522.0</ele><time>2026-03-29T09:53:35.755Z</time></trkpt><trkpt lat="38.1352333" lon="14.8388483"><ele>526.0</ele><time>2026-03-29T09:54:18.755Z</time></trkpt><trkpt lat="38.135305" lon="14.8388167"><ele>526.0</ele><time>2026-03-29T09:54:54.755Z</time></trkpt><trkpt lat="38.13523" lon="14.8388317"><ele>526.0</ele><time>2026-03-29T09:57:16.756Z</time></trkpt><trkpt lat="38.135325" lon="14.83881"><ele>526.0</ele><time>2026-03-29T09:58:47.756Z</time></trkpt><trkpt lat="38.1354033" lon="14.8387867"><ele>526.0</ele><time>2026-03-29T09:58:49.755Z</time></trkpt><trkpt lat="38.135485" lon="14.8387517"><ele>526.0</ele><time>2026-03-29T09:58:50.756Z</time></trkpt><trkpt lat="38.13558" lon="14.8386933"><ele>526.0</ele><time>2026-03-29T09:58:51.755Z</time></trkpt><trkpt lat="38.135665" lon="14.838615"><ele>526.6</ele><time>2026-03-29T09:58:52.756Z</time></trkpt><trkpt lat="38.1357267" lon="14.83851"><ele>527.2</ele><time>2026-03-29T09:58:53.756Z</time></trkpt><trkpt lat="38.1357733" lon="14.8384133"><ele>527.8</ele><time>2026-03-29T09:58:54.756Z</time></trkpt><trkpt lat="38.1358033" lon="14.8383233"><ele>528.4</ele><time>2026-03-29T09:58:55.756Z</time></trkpt><trkpt lat="38.135815" lon="14.8381917"><ele>529.0</ele><time>2026-03-29T09:58:57.756Z</time></trkpt><trkpt lat="38.1357983" lon="14.8380967"><ele>529.0</ele><time>2026-03-29T09:58:59.756Z</time></trkpt><trkpt lat="38.1358283" lon="14.837995"><ele>529.0</ele><time>2026-03-29T09:59:01.756Z</time></trkpt><trkpt lat="38.135905" lon="14.8379333"><ele>529.0</ele><time>2026-03-29T09:59:03.756Z</time></trkpt><trkpt lat="38.1359983" lon="14.8379117"><ele>529.0</ele><time>2026-03-29T09:59:05.755Z</time></trkpt><trkpt lat="38.136065" lon="14.8379083"><ele>529.0</ele><time>2026-03-29T09:59:06.756Z</time></trkpt><trkpt lat="38.136155" lon="14.8379033"><ele>529.0</ele><time>2026-03-29T09:59:07.756Z</time></trkpt><trkpt lat="38.1362483" lon="14.83791"><ele>529.0</ele><time>2026-03-29T09:59:08.755Z</time></trkpt><trkpt lat="38.136325" lon="14.8379267"><ele>529.0</ele><time>2026-03-29T09:59:09.756Z</time></trkpt><trkpt lat="38.1364433" lon="14.8379617"><ele>529.0</ele><time>2026-03-29T09:59:11.756Z</time></trkpt><trkpt lat="38.13655" lon="14.8379233"><ele>529.0</ele><time>2026-03-29T09:59:13.756Z</time></trkpt><trkpt lat="38.1366317" lon="14.8377917"><ele>529.0</ele><time>2026-03-29T09:59:15.755Z</time></trkpt><trkpt lat="38.136675" lon="14.83767"><ele>526.1666666666667</ele><time>2026-03-29T09:59:16.756Z</time></trkpt><trkpt lat="38.136705" lon="14.83753"><ele>523.3333333333334</ele><time>2026-03-29T09:59:17.756Z</time></trkpt><trkpt lat="38.1367383" lon="14.8374167"><ele>520.5</ele><time>2026-03-29T09:59:18.755Z</time></trkpt><trkpt lat="38.1367767" lon="14.8373267"><ele>517.6666666666666</ele><time>2026-03-29T09:59:19.756Z</time></trkpt><trkpt lat="38.1368267" lon="14.8372667"><ele>514.8333333333333</ele><time>2026-03-29T09:59:20.756Z</time></trkpt><trkpt lat="38.13688" lon="14.8372217"><ele>512.0</ele><time>2026-03-29T09:59:21.757Z</time></trkpt><trkpt lat="38.1369933" lon="14.8371933"><ele>511.99999999999994</ele><time>2026-03-29T09:59:23.756Z</time></trkpt><trkpt lat="38.1371017" lon="14.8372267"><ele>512.0</ele><time>2026-03-29T09:59:25.757Z</time></trkpt><trkpt lat="38.137175" lon="14.837295"><ele>512.0</ele><time>2026-03-29T09:59:27.757Z</time></trkpt><trkpt lat="38.137175" lon="14.837205"><ele>512.0</ele><time>2026-03-29T09:59:30.757Z</time></trkpt><trkpt lat="38.1371083" lon="14.8371467"><ele>511.99999999999994</ele><time>2026-03-29T09:59:31.757Z</time></trkpt><trkpt lat="38.1370283" lon="14.8370917"><ele>512.0</ele><time>2026-03-29T09:59:32.756Z</time></trkpt><trkpt lat="38.13696" lon="14.8370533"><ele>511.99999999999994</ele><time>2026-03-29T09:59:33.757Z</time></trkpt><trkpt lat="38.1368967" lon="14.8370367"><ele>512.0</ele><time>2026-03-29T09:59:34.757Z</time></trkpt><trkpt lat="38.13677" lon="14.83706"><ele>512.0</ele><time>2026-03-29T09:59:36.757Z</time></trkpt><trkpt lat="38.1367" lon="14.8371067"><ele>512.0</ele><time>2026-03-29T09:59:37.757Z</time></trkpt><trkpt lat="38.1366367" lon="14.8371667"><ele>511.99999999999994</ele><time>2026-03-29T09:59:38.757Z</time></trkpt><trkpt lat="38.136585" lon="14.8372217"><ele>512.0</ele><time>2026-03-29T09:59:39.756Z</time></trkpt><trkpt lat="38.1365117" lon="14.8373167"><ele>511.0</ele><time>2026-03-29T09:59:41.757Z</time></trkpt><trkpt lat="38.1364283" lon="14.83738"><ele>510.00000000000006</ele><time>2026-03-29T09:59:43.757Z</time></trkpt><trkpt lat="38.1363183" lon="14.8373667"><ele>509.00000000000006</ele><time>2026-03-29T09:59:45.757Z</time></trkpt><trkpt lat="38.1362333" lon="14.83731"><ele>508.0</ele><time>2026-03-29T09:59:46.757Z</time></trkpt><trkpt lat="38.1361233" lon="14.8372317"><ele>507.0</ele><time>2026-03-29T09:59:47.757Z</time></trkpt><trkpt lat="38.1360117" lon="14.8371533"><ele>507.0</ele><time>2026-03-29T09:59:48.757Z</time></trkpt><trkpt lat="38.1359083" lon="14.8370883"><ele>507.00000000000006</ele><time>2026-03-29T09:59:49.757Z</time></trkpt><trkpt lat="38.135815" lon="14.8370483"><ele>507.00000000000006</ele><time>2026-03-29T09:59:50.757Z</time></trkpt><trkpt lat="38.1357367" lon="14.8370283"><ele>507.0</ele><time>2026-03-29T09:59:51.757Z</time></trkpt><trkpt lat="38.1356717" lon="14.8370283"><ele>507.0</ele><time>2026-03-29T09:59:52.757Z</time></trkpt><trkpt lat="38.135585" lon="14.8369933"><ele>506.8</ele><time>2026-03-29T09:59:54.757Z</time></trkpt><trkpt lat="38.135535" lon="14.8369017"><ele>506.6</ele><time>2026-03-29T09:59:56.756Z</time></trkpt><trkpt lat="38.1355183" lon="14.8368233"><ele>506.40000000000003</ele><time>2026-03-29T09:59:57.757Z</time></trkpt><trkpt lat="38.13551" lon="14.836715"><ele>506.20000000000005</ele><time>2026-03-29T09:59:58.757Z</time></trkpt><trkpt lat="38.1355017" lon="14.8365683"><ele>506.0</ele><time>2026-03-29T09:59:59.756Z</time></trkpt><trkpt lat="38.1354883" lon="14.8363883"><ele>506.0</ele><time>2026-03-29T10:00:00.757Z</time></trkpt><trkpt lat="38.1354817" lon="14.8362183"><ele>506.0</ele><time>2026-03-29T10:00:01.756Z</time></trkpt><trkpt lat="38.1355017" lon="14.8360467"><ele>506.0</ele><time>2026-03-29T10:00:02.756Z</time></trkpt><trkpt lat="38.1355317" lon="14.835895"><ele>506.0</ele><time>2026-03-29T10:00:03.757Z</time></trkpt><trkpt lat="38.1355483" lon="14.83579"><ele>501.4</ele><time>2026-03-29T10:00:04.757Z</time></trkpt><trkpt lat="38.1355583" lon="14.83567"><ele>496.8</ele><time>2026-03-29T10:00:05.756Z</time></trkpt><trkpt lat="38.1355583" lon="14.8355583"><ele>492.19999999999993</ele><time>2026-03-29T10:00:06.756Z</time></trkpt><trkpt lat="38.1355383" lon="14.835455"><ele>487.59999999999997</ele><time>2026-03-29T10:00:07.757Z</time></trkpt><trkpt lat="38.1354283" lon="14.8353867"><ele>483.0</ele><time>2026-03-29T10:00:09.757Z</time></trkpt><trkpt lat="38.1353267" lon="14.8353733"><ele>483.0</ele><time>2026-03-29T10:00:10.757Z</time></trkpt><trkpt lat="38.1352083" lon="14.83536"><ele>482.99999999999994</ele><time>2026-03-29T10:00:11.757Z</time></trkpt><trkpt lat="38.135115" lon="14.835335"><ele>482.99999999999994</ele><time>2026-03-29T10:00:12.756Z</time></trkpt><trkpt lat="38.135045" lon="14.8353033"><ele>483.0</ele><time>2026-03-29T10:00:13.756Z</time></trkpt><trkpt lat="38.1349833" lon="14.8352383"><ele>483.0</ele><time>2026-03-29T10:00:14.757Z</time></trkpt><trkpt lat="38.1349183" lon="14.83516"><ele>479.2</ele><time>2026-03-29T10:00:15.757Z</time></trkpt><trkpt lat="38.134855" lon="14.8350767"><ele>475.4</ele><time>2026-03-29T10:00:16.757Z</time></trkpt><trkpt lat="38.1348033" lon="14.83501"><ele>471.59999999999997</ele><time>2026-03-29T10:00:17.757Z</time></trkpt><trkpt lat="38.1347717" lon="14.83494"><ele>467.79999999999995</ele><time>2026-03-29T10:00:18.756Z</time></trkpt><trkpt lat="38.1347567" lon="14.8347917"><ele>464.0</ele><time>2026-03-29T10:00:20.757Z</time></trkpt><trkpt lat="38.1347917" lon="14.834645"><ele>464.0</ele><time>2026-03-29T10:00:22.757Z</time></trkpt><trkpt lat="38.1348317" lon="14.83454"><ele>464.0</ele><time>2026-03-29T10:00:24.757Z</time></trkpt><trkpt lat="38.1348933" lon="14.8345683"><ele>464.0</ele><time>2026-03-29T10:00:26.757Z</time></trkpt><trkpt lat="38.1349517" lon="14.8347167"><ele>464.0</ele><time>2026-03-29T10:00:28.757Z</time></trkpt><trkpt lat="38.1349883" lon="14.8348267"><ele>464.0</ele><time>2026-03-29T10:00:29.757Z</time></trkpt><trkpt lat="38.1350333" lon="14.8349167"><ele>463.79999999999995</ele><time>2026-03-29T10:00:30.756Z</time></trkpt><trkpt lat="38.1350767" lon="14.8349883"><ele>463.59999999999997</ele><time>2026-03-29T10:00:31.756Z</time></trkpt><trkpt lat="38.1351567" lon="14.835035"><ele>463.4</ele><time>2026-03-29T10:00:32.757Z</time></trkpt><trkpt lat="38.1352617" lon="14.8350583"><ele>463.2</ele><time>2026-03-29T10:00:33.757Z</time></trkpt><trkpt lat="38.1353717" lon="14.8350567"><ele>463.0</ele><time>2026-03-29T10:00:34.757Z</time></trkpt><trkpt lat="38.1354817" lon="14.8350267"><ele>463.00000000000006</ele><time>2026-03-29T10:00:35.756Z</time></trkpt><trkpt lat="38.1355733" lon="14.834985"><ele>463.0</ele><time>2026-03-29T10:00:36.757Z</time></trkpt><trkpt lat="38.1356467" lon="14.834955"><ele>463.0</ele><time>2026-03-29T10:00:37.756Z</time></trkpt><trkpt lat="38.1357017" lon="14.8349017"><ele>463.0</ele><time>2026-03-29T10:00:39.757Z</time></trkpt><trkpt lat="38.1356533" lon="14.83484"><ele>463.00000000000006</ele><time>2026-03-29T10:00:41.757Z</time></trkpt><trkpt lat="38.135585" lon="14.8348283"><ele>463.0</ele><time>2026-03-29T10:00:42.757Z</time></trkpt><trkpt lat="38.1355033" lon="14.8348383"><ele>463.0</ele><time>2026-03-29T10:00:43.757Z</time></trkpt><trkpt lat="38.13543" lon="14.834835"><ele>462.99999999999994</ele><time>2026-03-29T10:00:44.756Z</time></trkpt><trkpt lat="38.1353633" lon="14.83483"><ele>462.99999999999994</ele><time>2026-03-29T10:00:45.757Z</time></trkpt><trkpt lat="38.1352983" lon="14.8348133"><ele>463.0</ele><time>2026-03-29T10:00:46.757Z</time></trkpt><trkpt lat="38.1351983" lon="14.83472"><ele>463.0</ele><time>2026-03-29T10:00:48.757Z</time></trkpt><trkpt lat="38.135125" lon="14.8345817"><ele>463.00000000000006</ele><time>2026-03-29T10:00:50.757Z</time></trkpt><trkpt lat="38.13512" lon="14.83447"><ele>463.0</ele><time>2026-03-29T10:00:51.757Z</time></trkpt><trkpt lat="38.135125" lon="14.834355"><ele>463.0</ele><time>2026-03-29T10:00:52.756Z</time></trkpt><trkpt lat="38.13512" lon="14.8342483"><ele>463.0</ele><time>2026-03-29T10:00:53.757Z</time></trkpt><trkpt lat="38.13511" lon="14.8341483"><ele>463.00000000000006</ele><time>2026-03-29T10:00:54.757Z</time></trkpt><trkpt lat="38.1351083" lon="14.83405"><ele>463.0</ele><time>2026-03-29T10:00:55.757Z</time></trkpt><trkpt lat="38.1351233" lon="14.83396"><ele>460.4</ele><time>2026-03-29T10:00:56.757Z</time></trkpt><trkpt lat="38.1351717" lon="14.8338683"><ele>457.79999999999995</ele><time>2026-03-29T10:00:57.757Z</time></trkpt><trkpt lat="38.1352417" lon="14.8337667"><ele>455.2</ele><time>2026-03-29T10:00:58.757Z</time></trkpt><trkpt lat="38.1353167" lon="14.8336583"><ele>452.6</ele><time>2026-03-29T10:00:59.756Z</time></trkpt><trkpt lat="38.1353917" lon="14.8335533"><ele>450.0</ele><time>2026-03-29T10:01:00.757Z</time></trkpt><trkpt lat="38.13545" lon="14.8334533"><ele>449.8333333333333</ele><time>2026-03-29T10:01:01.757Z</time></trkpt><trkpt lat="38.1355083" lon="14.83336"><ele>449.66666666666663</ele><time>2026-03-29T10:01:02.757Z</time></trkpt><trkpt lat="38.1355633" lon="14.8332767"><ele>449.5</ele><time>2026-03-29T10:01:03.757Z</time></trkpt><trkpt lat="38.1356133" lon="14.8332"><ele>449.3333333333333</ele><time>2026-03-29T10:01:04.757Z</time></trkpt><trkpt lat="38.1356533" lon="14.8331133"><ele>449.16666666666663</ele><time>2026-03-29T10:01:05.757Z</time></trkpt><trkpt lat="38.1356867" lon="14.8330083"><ele>449.0</ele><time>2026-03-29T10:01:06.757Z</time></trkpt><trkpt lat="38.13571" lon="14.8329117"><ele>444.8333333333333</ele><time>2026-03-29T10:01:07.756Z</time></trkpt><trkpt lat="38.1357417" lon="14.8328167"><ele>440.66666666666663</ele><time>2026-03-29T10:01:08.757Z</time></trkpt><trkpt lat="38.1357767" lon="14.8327217"><ele>436.5</ele><time>2026-03-29T10:01:09.757Z</time></trkpt><trkpt lat="38.1358167" lon="14.8326317"><ele>432.33333333333337</ele><time>2026-03-29T10:01:10.756Z</time></trkpt><trkpt lat="38.1358583" lon="14.8325567"><ele>428.1666666666667</ele><time>2026-03-29T10:01:11.757Z</time></trkpt><trkpt lat="38.1359083" lon="14.832485"><ele>424.0</ele><time>2026-03-29T10:01:12.757Z</time></trkpt><trkpt lat="38.135955" lon="14.8324117"><ele>424.0</ele><time>2026-03-29T10:01:13.757Z</time></trkpt><trkpt lat="38.1360183" lon="14.8322683"><ele>424.0</ele><time>2026-03-29T10:01:15.757Z</time></trkpt><trkpt lat="38.1360517" lon="14.8321583"><ele>424.0</ele><time>2026-03-29T10:01:16.757Z</time></trkpt><trkpt lat="38.1360783" lon="14.8320317"><ele>424.0</ele><time>2026-03-29T10:01:17.757Z</time></trkpt><trkpt lat="38.136095" lon="14.83192"><ele>424.0</ele><time>2026-03-29T10:01:18.757Z</time></trkpt><trkpt lat="38.1361067" lon="14.831815"><ele>422.6666666666667</ele><time>2026-03-29T10:01:19.756Z</time></trkpt><trkpt lat="38.1360967" lon="14.831715"><ele>421.33333333333337</ele><time>2026-03-29T10:01:20.757Z</time></trkpt><trkpt lat="38.1360633" lon="14.831625"><ele>420.0</ele><time>2026-03-29T10:01:21.757Z</time></trkpt><trkpt lat="38.1360233" lon="14.8315417"><ele>418.66666666666663</ele><time>2026-03-29T10:01:22.757Z</time></trkpt><trkpt lat="38.1359833" lon="14.83146"><ele>417.3333333333333</ele><time>2026-03-29T10:01:23.756Z</time></trkpt><trkpt lat="38.1359333" lon="14.8313933"><ele>416.0</ele><time>2026-03-29T10:01:24.756Z</time></trkpt><trkpt lat="38.1358817" lon="14.831335"><ele>415.99999999999994</ele><time>2026-03-29T10:01:25.757Z</time></trkpt><trkpt lat="38.1358233" lon="14.8312917"><ele>416.0</ele><time>2026-03-29T10:01:26.757Z</time></trkpt><trkpt lat="38.1357033" lon="14.8312617"><ele>416.0</ele><time>2026-03-29T10:01:28.757Z</time></trkpt><trkpt lat="38.135685" lon="14.83118"><ele>416.0</ele><time>2026-03-29T10:01:31.757Z</time></trkpt><trkpt lat="38.1357767" lon="14.831175"><ele>415.99999999999994</ele><time>2026-03-29T10:01:33.756Z</time></trkpt><trkpt lat="38.13585" lon="14.8311967"><ele>416.0</ele><time>2026-03-29T10:01:34.756Z</time></trkpt><trkpt lat="38.135945" lon="14.8312483"><ele>416.0</ele><time>2026-03-29T10:01:35.757Z</time></trkpt><trkpt lat="38.1360483" lon="14.8313333"><ele>416.0</ele><time>2026-03-29T10:01:36.757Z</time></trkpt><trkpt lat="38.1361683" lon="14.8314483"><ele>416.0</ele><time>2026-03-29T10:01:37.757Z</time></trkpt><trkpt lat="38.1362733" lon="14.8315633"><ele>416.0</ele><time>2026-03-29T10:01:38.756Z</time></trkpt><trkpt lat="38.1363533" lon="14.831655"><ele>415.99999999999994</ele><time>2026-03-29T10:01:39.756Z</time></trkpt><trkpt lat="38.1364183" lon="14.8317383"><ele>416.0</ele><time>2026-03-29T10:01:40.757Z</time></trkpt><trkpt lat="38.1364617" lon="14.831815"><ele>416.0</ele><time>2026-03-29T10:01:41.757Z</time></trkpt><trkpt lat="38.1364983" lon="14.83194"><ele>416.0</ele><time>2026-03-29T10:01:43.756Z</time></trkpt><trkpt lat="38.1365767" lon="14.8318967"><ele>415.99999999999994</ele><time>2026-03-29T10:01:46.756Z</time></trkpt><trkpt lat="38.1365733" lon="14.831815"><ele>416.0</ele><time>2026-03-29T10:01:47.757Z</time></trkpt><trkpt lat="38.1365433" lon="14.8317067"><ele>416.0</ele><time>2026-03-29T10:01:48.756Z</time></trkpt><trkpt lat="38.1364833" lon="14.8315733"><ele>416.0</ele><time>2026-03-29T10:01:49.757Z</time></trkpt><trkpt lat="38.1364083" lon="14.8314483"><ele>416.0</ele><time>2026-03-29T10:01:50.757Z</time></trkpt><trkpt lat="38.136355" lon="14.8313333"><ele>416.0</ele><time>2026-03-29T10:01:51.756Z</time></trkpt><trkpt lat="38.13632" lon="14.8312233"><ele>416.0</ele><time>2026-03-29T10:01:52.756Z</time></trkpt><trkpt lat="38.136275" lon="14.83111"><ele>415.99999999999994</ele><time>2026-03-29T10:01:53.757Z</time></trkpt><trkpt lat="38.1362417" lon="14.83101"><ele>416.0</ele><time>2026-03-29T10:01:54.757Z</time></trkpt><trkpt lat="38.1362017" lon="14.83092"><ele>416.0</ele><time>2026-03-29T10:01:55.756Z</time></trkpt><trkpt lat="38.1361533" lon="14.8308433"><ele>416.0</ele><time>2026-03-29T10:01:56.756Z</time></trkpt><trkpt lat="38.1360833" lon="14.8307767"><ele>415.99999999999994</ele><time>2026-03-29T10:01:57.757Z</time></trkpt><trkpt lat="38.13598" lon="14.83071"><ele>416.0</ele><time>2026-03-29T10:01:58.756Z</time></trkpt><trkpt lat="38.1358767" lon="14.8306417"><ele>410.16666666666663</ele><time>2026-03-29T10:01:59.756Z</time></trkpt><trkpt lat="38.1357817" lon="14.8305883"><ele>404.3333333333333</ele><time>2026-03-29T10:02:00.757Z</time></trkpt><trkpt lat="38.135705" lon="14.8305533"><ele>398.5</ele><time>2026-03-29T10:02:01.757Z</time></trkpt><trkpt lat="38.1356483" lon="14.8305183"><ele>392.66666666666663</ele><time>2026-03-29T10:02:02.757Z</time></trkpt><trkpt lat="38.13559" lon="14.83045"><ele>386.8333333333333</ele><time>2026-03-29T10:02:04.756Z</time></trkpt><trkpt lat="38.1356983" lon="14.8304"><ele>381.0</ele><time>2026-03-29T10:02:07.757Z</time></trkpt><trkpt lat="38.135785" lon="14.8304367"><ele>381.0</ele><time>2026-03-29T10:02:08.757Z</time></trkpt><trkpt lat="38.1359017" lon="14.830495"><ele>381.0</ele><time>2026-03-29T10:02:09.757Z</time></trkpt><trkpt lat="38.1360417" lon="14.8305467"><ele>381.0</ele><time>2026-03-29T10:02:10.756Z</time></trkpt><trkpt lat="38.136175" lon="14.8305767"><ele>381.0</ele><time>2026-03-29T10:02:11.757Z</time></trkpt><trkpt lat="38.136275" lon="14.8306117"><ele>381.0</ele><time>2026-03-29T10:02:12.757Z</time></trkpt><trkpt lat="38.1363583" lon="14.830675"><ele>381.0</ele><time>2026-03-29T10:02:13.757Z</time></trkpt><trkpt lat="38.13642" lon="14.8307567"><ele>381.0</ele><time>2026-03-29T10:02:14.756Z</time></trkpt><trkpt lat="38.1364767" lon="14.830865"><ele>381.0</ele><time>2026-03-29T10:02:15.757Z</time></trkpt><trkpt lat="38.136535" lon="14.8310033"><ele>381.0</ele><time>2026-03-29T10:02:16.757Z</time></trkpt><trkpt lat="38.1366067" lon="14.8311317"><ele>377.8</ele><time>2026-03-29T10:02:17.756Z</time></trkpt><trkpt lat="38.136675" lon="14.831235"><ele>374.6</ele><time>2026-03-29T10:02:18.757Z</time></trkpt><trkpt lat="38.1367667" lon="14.8313217"><ele>371.4</ele><time>2026-03-29T10:02:19.756Z</time></trkpt><trkpt lat="38.136855" lon="14.8314033"><ele>368.2</ele><time>2026-03-29T10:02:20.756Z</time></trkpt><trkpt lat="38.1369417" lon="14.8314867"><ele>365.0</ele><time>2026-03-29T10:02:21.756Z</time></trkpt><trkpt lat="38.1370217" lon="14.83157"><ele>365.0</ele><time>2026-03-29T10:02:22.757Z</time></trkpt><trkpt lat="38.1370867" lon="14.831645"><ele>365.0</ele><time>2026-03-29T10:02:23.756Z</time></trkpt><trkpt lat="38.1371367" lon="14.831725"><ele>365.0</ele><time>2026-03-29T10:02:24.757Z</time></trkpt><trkpt lat="38.137175" lon="14.8318133"><ele>365.0</ele><time>2026-03-29T10:02:25.756Z</time></trkpt><trkpt lat="38.1372033" lon="14.8319117"><ele>365.0</ele><time>2026-03-29T10:02:26.757Z</time></trkpt><trkpt lat="38.13721" lon="14.8320333"><ele>365.0</ele><time>2026-03-29T10:02:27.756Z</time></trkpt><trkpt lat="38.1372033" lon="14.832155"><ele>367.0</ele><time>2026-03-29T10:02:28.757Z</time></trkpt><trkpt lat="38.1371883" lon="14.8322683"><ele>369.0</ele><time>2026-03-29T10:02:29.757Z</time></trkpt><trkpt lat="38.1371867" lon="14.8323633"><ele>371.0</ele><time>2026-03-29T10:02:30.756Z</time></trkpt><trkpt lat="38.1371733" lon="14.8325083"><ele>373.0</ele><time>2026-03-29T10:02:32.757Z</time></trkpt><trkpt lat="38.1372067" lon="14.832595"><ele>375.0</ele><time>2026-03-29T10:02:34.757Z</time></trkpt><trkpt lat="38.137285" lon="14.832555"><ele>377.0</ele><time>2026-03-29T10:02:37.757Z</time></trkpt><trkpt lat="38.1372717" lon="14.832455"><ele>377.0</ele><time>2026-03-29T10:03:31.757Z</time></trkpt><trkpt lat="38.1372883" lon="14.8323317"><ele>377.0</ele><time>2026-03-29T10:03:33.756Z</time></trkpt><trkpt lat="38.1373" lon="14.8322183"><ele>377.0</ele><time>2026-03-29T10:03:34.756Z</time></trkpt><trkpt lat="38.13732" lon="14.832075"><ele>377.0</ele><time>2026-03-29T10:03:35.757Z</time></trkpt><trkpt lat="38.137345" lon="14.83192"><ele>377.0</ele><time>2026-03-29T10:03:36.757Z</time></trkpt><trkpt lat="38.1373483" lon="14.83179"><ele>374.6</ele><time>2026-03-29T10:03:37.756Z</time></trkpt><trkpt lat="38.137345" lon="14.8316767"><ele>372.20000000000005</ele><time>2026-03-29T10:03:38.756Z</time></trkpt><trkpt lat="38.1373133" lon="14.8315733"><ele>369.8</ele><time>2026-03-29T10:03:39.757Z</time></trkpt><trkpt lat="38.137265" lon="14.8314583"><ele>367.4</ele><time>2026-03-29T10:03:40.756Z</time></trkpt><trkpt lat="38.13721" lon="14.831345"><ele>365.0</ele><time>2026-03-29T10:03:41.757Z</time></trkpt><trkpt lat="38.13716" lon="14.8312367"><ele>365.0</ele><time>2026-03-29T10:03:42.756Z</time></trkpt><trkpt lat="38.13712" lon="14.8311383"><ele>365.0</ele><time>2026-03-29T10:03:43.757Z</time></trkpt><trkpt lat="38.1370867" lon="14.8310367"><ele>365.0</ele><time>2026-03-29T10:03:44.756Z</time></trkpt><trkpt lat="38.1370517" lon="14.8309367"><ele>365.0</ele><time>2026-03-29T10:03:45.756Z</time></trkpt><trkpt lat="38.137015" lon="14.8308433"><ele>365.0</ele><time>2026-03-29T10:03:46.757Z</time></trkpt><trkpt lat="38.13698" lon="14.8307517"><ele>365.0</ele><time>2026-03-29T10:03:47.757Z</time></trkpt><trkpt lat="38.1369483" lon="14.83066"><ele>360.42857142857144</ele><time>2026-03-29T10:03:48.757Z</time></trkpt><trkpt lat="38.13692" lon="14.830575"><ele>355.8571428571429</ele><time>2026-03-29T10:03:49.757Z</time></trkpt><trkpt lat="38.1369" lon="14.8304883"><ele>351.28571428571433</ele><time>2026-03-29T10:03:50.756Z</time></trkpt><trkpt lat="38.13688" lon="14.8304067"><ele>346.7142857142857</ele><time>2026-03-29T10:03:51.756Z</time></trkpt><trkpt lat="38.13686" lon="14.8303267"><ele>342.1428571428571</ele><time>2026-03-29T10:03:52.757Z</time></trkpt><trkpt lat="38.1368433" lon="14.8302417"><ele>337.5714285714286</ele><time>2026-03-29T10:03:53.757Z</time></trkpt><trkpt lat="38.13682" lon="14.8301583"><ele>333.0</ele><time>2026-03-29T10:03:54.757Z</time></trkpt><trkpt lat="38.1367867" lon="14.83008"><ele>333.42857142857144</ele><time>2026-03-29T10:03:55.757Z</time></trkpt><trkpt lat="38.1367467" lon="14.83001"><ele>333.85714285714283</ele><time>2026-03-29T10:03:56.758Z</time></trkpt><trkpt lat="38.1366983" lon="14.8299417"><ele>334.2857142857143</ele><time>2026-03-29T10:03:57.758Z</time></trkpt><trkpt lat="38.1366467" lon="14.8298783"><ele>334.7142857142857</ele><time>2026-03-29T10:03:58.758Z</time></trkpt><trkpt lat="38.1365883" lon="14.8298133"><ele>335.1428571428571</ele><time>2026-03-29T10:03:59.758Z</time></trkpt><trkpt lat="38.13653" lon="14.8297467"><ele>335.57142857142856</ele><time>2026-03-29T10:04:00.758Z</time></trkpt><trkpt lat="38.1364883" lon="14.82968"><ele>336.0</ele><time>2026-03-29T10:04:01.757Z</time></trkpt><trkpt lat="38.1364417" lon="14.829625"><ele>336.0</ele><time>2026-03-29T10:04:02.758Z</time></trkpt><trkpt lat="38.1363567" lon="14.8295233"><ele>336.0</ele><time>2026-03-29T10:04:04.758Z</time></trkpt><trkpt lat="38.1362883" lon="14.8294033"><ele>336.0</ele><time>2026-03-29T10:04:06.758Z</time></trkpt><trkpt lat="38.1362533" lon="14.8293367"><ele>336.0</ele><time>2026-03-29T10:04:07.757Z</time></trkpt><trkpt lat="38.1362183" lon="14.8292683"><ele>336.0</ele><time>2026-03-29T10:04:08.758Z</time></trkpt><trkpt lat="38.1361833" lon="14.8291983"><ele>336.0</ele><time>2026-03-29T10:04:09.758Z</time></trkpt><trkpt lat="38.1360933" lon="14.8290983"><ele>330.0</ele><time>2026-03-29T10:04:11.757Z</time></trkpt><trkpt lat="38.13601" lon="14.8290333"><ele>324.0</ele><time>2026-03-29T10:04:13.757Z</time></trkpt><trkpt lat="38.1359983" lon="14.8289417"><ele>318.0</ele><time>2026-03-29T10:04:15.758Z</time></trkpt><trkpt lat="38.1360567" lon="14.82884"><ele>312.0</ele><time>2026-03-29T10:04:17.758Z</time></trkpt><trkpt lat="38.1361283" lon="14.8288133"><ele>306.0</ele><time>2026-03-29T10:04:19.757Z</time></trkpt><trkpt lat="38.136215" lon="14.8288367"><ele>300.0</ele><time>2026-03-29T10:04:21.757Z</time></trkpt><trkpt lat="38.136275" lon="14.8288883"><ele>300.0</ele><time>2026-03-29T10:04:23.758Z</time></trkpt><trkpt lat="38.1363133" lon="14.828965"><ele>300.0</ele><time>2026-03-29T10:04:25.757Z</time></trkpt><trkpt lat="38.1363517" lon="14.8290383"><ele>300.0</ele><time>2026-03-29T10:04:27.757Z</time></trkpt><trkpt lat="38.1363983" lon="14.8291333"><ele>300.0</ele><time>2026-03-29T10:04:29.758Z</time></trkpt><trkpt lat="38.13646" lon="14.82923"><ele>300.0</ele><time>2026-03-29T10:04:31.757Z</time></trkpt><trkpt lat="38.13654" lon="14.8292883"><ele>300.0</ele><time>2026-03-29T10:04:33.758Z</time></trkpt><trkpt lat="38.1366283" lon="14.8293483"><ele>302.4</ele><time>2026-03-29T10:04:35.757Z</time></trkpt><trkpt lat="38.136765" lon="14.8294267"><ele>304.8</ele><time>2026-03-29T10:04:37.758Z</time></trkpt><trkpt lat="38.136875" lon="14.8294483"><ele>307.2</ele><time>2026-03-29T10:04:38.758Z</time></trkpt><trkpt lat="38.1369733" lon="14.829455"><ele>309.6</ele><time>2026-03-29T10:04:39.757Z</time></trkpt><trkpt lat="38.1370517" lon="14.8294567"><ele>312.0</ele><time>2026-03-29T10:04:40.758Z</time></trkpt><trkpt lat="38.1371167" lon="14.8294533"><ele>312.0</ele><time>2026-03-29T10:04:41.757Z</time></trkpt><trkpt lat="38.1371817" lon="14.8294483"><ele>312.0</ele><time>2026-03-29T10:04:42.757Z</time></trkpt><trkpt lat="38.1372783" lon="14.8294917"><ele>312.0</ele><time>2026-03-29T10:04:44.758Z</time></trkpt><trkpt lat="38.1373333" lon="14.8296067"><ele>312.0</ele><time>2026-03-29T10:04:46.758Z</time></trkpt><trkpt lat="38.1373817" lon="14.829745"><ele>312.0</ele><time>2026-03-29T10:04:48.758Z</time></trkpt><trkpt lat="38.13744" lon="14.82987"><ele>308.8333333333333</ele><time>2026-03-29T10:04:50.758Z</time></trkpt><trkpt lat="38.1375117" lon="14.8299783"><ele>305.6666666666667</ele><time>2026-03-29T10:04:52.758Z</time></trkpt><trkpt lat="38.1375767" lon="14.8300617"><ele>302.5</ele><time>2026-03-29T10:04:54.757Z</time></trkpt><trkpt lat="38.13764" lon="14.8301433"><ele>299.33333333333337</ele><time>2026-03-29T10:04:56.758Z</time></trkpt><trkpt lat="38.1377" lon="14.8302033"><ele>296.1666666666667</ele><time>2026-03-29T10:04:58.758Z</time></trkpt><trkpt lat="38.1377517" lon="14.8302517"><ele>293.0</ele><time>2026-03-29T10:05:00.758Z</time></trkpt><trkpt lat="38.137805" lon="14.8303267"><ele>293.0</ele><time>2026-03-29T10:05:02.757Z</time></trkpt><trkpt lat="38.1378683" lon="14.83044"><ele>293.0</ele><time>2026-03-29T10:05:04.758Z</time></trkpt><trkpt lat="38.1379067" lon="14.8305283"><ele>293.0</ele><time>2026-03-29T10:05:05.758Z</time></trkpt><trkpt lat="38.1379383" lon="14.8306267"><ele>293.0</ele><time>2026-03-29T10:05:06.758Z</time></trkpt><trkpt lat="38.1379633" lon="14.8307133"><ele>293.0</ele><time>2026-03-29T10:05:07.757Z</time></trkpt><trkpt lat="38.1379817" lon="14.8308717"><ele>290.2</ele><time>2026-03-29T10:05:09.758Z</time></trkpt><trkpt lat="38.1379833" lon="14.83102"><ele>287.4</ele><time>2026-03-29T10:05:11.758Z</time></trkpt><trkpt lat="38.1379983" lon="14.8311567"><ele>284.59999999999997</ele><time>2026-03-29T10:05:13.758Z</time></trkpt><trkpt lat="38.13805" lon="14.83128"><ele>281.8</ele><time>2026-03-29T10:05:15.757Z</time></trkpt><trkpt lat="38.1381433" lon="14.8313617"><ele>279.0</ele><time>2026-03-29T10:05:17.758Z</time></trkpt><trkpt lat="38.138255" lon="14.831395"><ele>278.99999999999994</ele><time>2026-03-29T10:05:19.758Z</time></trkpt><trkpt lat="38.13832" lon="14.831395"><ele>279.0</ele><time>2026-03-29T10:05:20.757Z</time></trkpt><trkpt lat="38.1383983" lon="14.8314"><ele>279.0</ele><time>2026-03-29T10:05:21.758Z</time></trkpt><trkpt lat="38.1384717" lon="14.8314"><ele>279.0</ele><time>2026-03-29T10:05:22.757Z</time></trkpt><trkpt lat="38.1385433" lon="14.831415"><ele>279.0</ele><time>2026-03-29T10:05:23.758Z</time></trkpt><trkpt lat="38.13861" lon="14.8314233"><ele>278.99999999999994</ele><time>2026-03-29T10:05:24.758Z</time></trkpt><trkpt lat="38.1386783" lon="14.8314233"><ele>279.0</ele><time>2026-03-29T10:05:25.758Z</time></trkpt><trkpt lat="38.1387517" lon="14.8314283"><ele>279.0</ele><time>2026-03-29T10:05:26.757Z</time></trkpt><trkpt lat="38.13883" lon="14.831425"><ele>279.0</ele><time>2026-03-29T10:05:27.758Z</time></trkpt><trkpt lat="38.1389033" lon="14.8314267"><ele>279.0</ele><time>2026-03-29T10:05:28.758Z</time></trkpt><trkpt lat="38.1389667" lon="14.831415"><ele>279.0</ele><time>2026-03-29T10:05:29.758Z</time></trkpt><trkpt lat="38.1390767" lon="14.8313483"><ele>279.0</ele><time>2026-03-29T10:05:31.758Z</time></trkpt><trkpt lat="38.1391367" lon="14.831265"><ele>279.0</ele><time>2026-03-29T10:05:32.758Z</time></trkpt><trkpt lat="38.13922" lon="14.8311367"><ele>274.2</ele><time>2026-03-29T10:05:33.757Z</time></trkpt><trkpt lat="38.1393033" lon="14.831005"><ele>269.4</ele><time>2026-03-29T10:05:34.758Z</time></trkpt><trkpt lat="38.1393733" lon="14.830895"><ele>264.6</ele><time>2026-03-29T10:05:35.758Z</time></trkpt><trkpt lat="38.139435" lon="14.8307967"><ele>259.8</ele><time>2026-03-29T10:05:36.757Z</time></trkpt><trkpt lat="38.1394983" lon="14.8307167"><ele>255.0</ele><time>2026-03-29T10:05:37.758Z</time></trkpt><trkpt lat="38.1395617" lon="14.83065"><ele>253.2</ele><time>2026-03-29T10:05:38.758Z</time></trkpt><trkpt lat="38.13963" lon="14.8305933"><ele>251.4</ele><time>2026-03-29T10:05:39.757Z</time></trkpt><trkpt lat="38.1396933" lon="14.8305483"><ele>249.60000000000002</ele><time>2026-03-29T10:05:40.758Z</time></trkpt><trkpt lat="38.1397983" lon="14.8305217"><ele>247.8</ele><time>2026-03-29T10:05:42.758Z</time></trkpt><trkpt lat="38.139885" lon="14.8305683"><ele>246.0</ele><time>2026-03-29T10:05:44.758Z</time></trkpt><trkpt lat="38.1399733" lon="14.8305233"><ele>246.0</ele><time>2026-03-29T10:05:46.757Z</time></trkpt><trkpt lat="38.1399383" lon="14.83041"><ele>246.00000000000003</ele><time>2026-03-29T10:05:48.758Z</time></trkpt><trkpt lat="38.1398517" lon="14.830355"><ele>246.00000000000003</ele><time>2026-03-29T10:05:49.757Z</time></trkpt><trkpt lat="38.1397267" lon="14.8303183"><ele>246.0</ele><time>2026-03-29T10:05:50.757Z</time></trkpt><trkpt lat="38.1396083" lon="14.8303067"><ele>246.0</ele><time>2026-03-29T10:05:51.758Z</time></trkpt><trkpt lat="38.1395183" lon="14.8303367"><ele>246.0</ele><time>2026-03-29T10:05:52.758Z</time></trkpt><trkpt lat="38.1394383" lon="14.8303683"><ele>246.00000000000003</ele><time>2026-03-29T10:05:53.757Z</time></trkpt><trkpt lat="38.1393367" lon="14.83041"><ele>246.00000000000003</ele><time>2026-03-29T10:05:55.758Z</time></trkpt><trkpt lat="38.1392617" lon="14.8303267"><ele>246.0</ele><time>2026-03-29T10:05:57.758Z</time></trkpt><trkpt lat="38.1392033" lon="14.8302217"><ele>246.0</ele><time>2026-03-29T10:05:58.757Z</time></trkpt><trkpt lat="38.1391283" lon="14.8301167"><ele>245.60000000000002</ele><time>2026-03-29T10:05:59.758Z</time></trkpt><trkpt lat="38.1390683" lon="14.8300333"><ele>245.20000000000002</ele><time>2026-03-29T10:06:00.758Z</time></trkpt><trkpt lat="38.1390433" lon="14.8299567"><ele>244.79999999999998</ele><time>2026-03-29T10:06:01.757Z</time></trkpt><trkpt lat="38.13908" lon="14.8298317"><ele>244.39999999999998</ele><time>2026-03-29T10:06:03.758Z</time></trkpt><trkpt lat="38.1391383" lon="14.829765"><ele>244.0</ele><time>2026-03-29T10:06:04.758Z</time></trkpt><trkpt lat="38.13924" lon="14.8296783"><ele>242.0</ele><time>2026-03-29T10:06:05.758Z</time></trkpt><trkpt lat="38.1393467" lon="14.8295867"><ele>239.99999999999997</ele><time>2026-03-29T10:06:06.758Z</time></trkpt><trkpt lat="38.13943" lon="14.82952"><ele>237.99999999999997</ele><time>2026-03-29T10:06:07.758Z</time></trkpt><trkpt lat="38.1395033" lon="14.8294817"><ele>236.0</ele><time>2026-03-29T10:06:08.758Z</time></trkpt><trkpt lat="38.13958" lon="14.8294767"><ele>234.0</ele><time>2026-03-29T10:06:09.758Z</time></trkpt><trkpt lat="38.1396783" lon="14.829515"><ele>234.0</ele><time>2026-03-29T10:06:10.758Z</time></trkpt><trkpt lat="38.1397667" lon="14.8295633"><ele>233.99999999999997</ele><time>2026-03-29T10:06:11.758Z</time></trkpt><trkpt lat="38.13984" lon="14.8295983"><ele>233.99999999999997</ele><time>2026-03-29T10:06:12.758Z</time></trkpt><trkpt lat="38.139965" lon="14.8295533"><ele>234.0</ele><time>2026-03-29T10:06:14.758Z</time></trkpt><trkpt lat="38.1400217" lon="14.829465"><ele>234.0</ele><time>2026-03-29T10:06:15.757Z</time></trkpt><trkpt lat="38.1400583" lon="14.8293417"><ele>230.66666666666666</ele><time>2026-03-29T10:06:16.758Z</time></trkpt><trkpt lat="38.1400767" lon="14.8292217"><ele>227.33333333333331</ele><time>2026-03-29T10:06:17.758Z</time></trkpt><trkpt lat="38.1400633" lon="14.8291283"><ele>224.0</ele><time>2026-03-29T10:06:18.758Z</time></trkpt><trkpt lat="38.14001" lon="14.8290083"><ele>220.66666666666666</ele><time>2026-03-29T10:06:20.757Z</time></trkpt><trkpt lat="38.1400983" lon="14.8290167"><ele>217.33333333333331</ele><time>2026-03-29T10:06:23.758Z</time></trkpt><trkpt lat="38.1401417" lon="14.8290917"><ele>214.0</ele><time>2026-03-29T10:06:24.757Z</time></trkpt><trkpt lat="38.14016" lon="14.8291717"><ele>213.99999999999997</ele><time>2026-03-29T10:06:25.757Z</time></trkpt><trkpt lat="38.1402" lon="14.8292667"><ele>214.0</ele><time>2026-03-29T10:06:27.757Z</time></trkpt><trkpt lat="38.14026" lon="14.82923"><ele>214.0</ele><time>2026-03-29T10:06:29.757Z</time></trkpt><trkpt lat="38.1402917" lon="14.8291533"><ele>214.0</ele><time>2026-03-29T10:06:30.758Z</time></trkpt><trkpt lat="38.1402967" lon="14.829045"><ele>213.99999999999997</ele><time>2026-03-29T10:06:31.758Z</time></trkpt><trkpt lat="38.1402667" lon="14.8289233"><ele>214.0</ele><time>2026-03-29T10:06:32.758Z</time></trkpt><trkpt lat="38.14022" lon="14.82881"><ele>214.0</ele><time>2026-03-29T10:06:33.757Z</time></trkpt><trkpt lat="38.1401917" lon="14.8287233"><ele>213.99999999999997</ele><time>2026-03-29T10:06:34.758Z</time></trkpt><trkpt lat="38.1401867" lon="14.8285817"><ele>213.99999999999997</ele><time>2026-03-29T10:06:36.757Z</time></trkpt><trkpt lat="38.14024" lon="14.828455"><ele>214.0</ele><time>2026-03-29T10:06:38.758Z</time></trkpt><trkpt lat="38.1403" lon="14.8284033"><ele>214.0</ele><time>2026-03-29T10:06:39.758Z</time></trkpt><trkpt lat="38.1404017" lon="14.8283517"><ele>210.66666666666666</ele><time>2026-03-29T10:06:41.757Z</time></trkpt><trkpt lat="38.1404783" lon="14.8283067"><ele>207.33333333333331</ele><time>2026-03-29T10:06:43.757Z</time></trkpt><trkpt lat="38.1404333" lon="14.8282233"><ele>204.0</ele><time>2026-03-29T10:06:46.758Z</time></trkpt><trkpt lat="38.1403683" lon="14.8282183"><ele>200.66666666666669</ele><time>2026-03-29T10:06:47.758Z</time></trkpt><trkpt lat="38.140285" lon="14.8282383"><ele>197.33333333333334</ele><time>2026-03-29T10:06:48.757Z</time></trkpt><trkpt lat="38.1402083" lon="14.8282833"><ele>194.0</ele><time>2026-03-29T10:06:49.758Z</time></trkpt><trkpt lat="38.1401467" lon="14.82832"><ele>194.00000000000003</ele><time>2026-03-29T10:06:50.758Z</time></trkpt><trkpt lat="38.1400817" lon="14.8283133"><ele>194.0</ele><time>2026-03-29T10:06:52.757Z</time></trkpt><trkpt lat="38.1401283" lon="14.8282067"><ele>194.0</ele><time>2026-03-29T10:06:54.758Z</time></trkpt><trkpt lat="38.1402033" lon="14.82815"><ele>194.0</ele><time>2026-03-29T10:06:55.758Z</time></trkpt><trkpt lat="38.1402767" lon="14.8281067"><ele>194.00000000000003</ele><time>2026-03-29T10:06:56.758Z</time></trkpt><trkpt lat="38.1403433" lon="14.828085"><ele>194.0</ele><time>2026-03-29T10:06:57.758Z</time></trkpt><trkpt lat="38.1403867" lon="14.828015"><ele>194.0</ele><time>2026-03-29T10:06:59.758Z</time></trkpt><trkpt lat="38.1403133" lon="14.827995"><ele>194.0</ele><time>2026-03-29T10:07:01.758Z</time></trkpt><trkpt lat="38.1402433" lon="14.8280183"><ele>194.0</ele><time>2026-03-29T10:07:02.758Z</time></trkpt><trkpt lat="38.1401383" lon="14.8280717"><ele>194.0</ele><time>2026-03-29T10:07:03.758Z</time></trkpt><trkpt lat="38.1400233" lon="14.8281233"><ele>194.0</ele><time>2026-03-29T10:07:04.757Z</time></trkpt><trkpt lat="38.1399217" lon="14.8281617"><ele>195.16666666666669</ele><time>2026-03-29T10:07:05.757Z</time></trkpt><trkpt lat="38.1398267" lon="14.8281767"><ele>196.33333333333334</ele><time>2026-03-29T10:07:06.758Z</time></trkpt><trkpt lat="38.1397333" lon="14.8281717"><ele>197.5</ele><time>2026-03-29T10:07:07.758Z</time></trkpt><trkpt lat="38.13965" lon="14.82813"><ele>198.66666666666669</ele><time>2026-03-29T10:07:08.758Z</time></trkpt><trkpt lat="38.1395767" lon="14.828105"><ele>199.83333333333334</ele><time>2026-03-29T10:07:09.758Z</time></trkpt><trkpt lat="38.1395133" lon="14.828085"><ele>201.0</ele><time>2026-03-29T10:07:10.757Z</time></trkpt><trkpt lat="38.1393983" lon="14.828105"><ele>201.0</ele><time>2026-03-29T10:07:12.757Z</time></trkpt><trkpt lat="38.1393233" lon="14.8280683"><ele>201.0</ele><time>2026-03-29T10:07:14.758Z</time></trkpt><trkpt lat="38.13928" lon="14.8279167"><ele>201.0</ele><time>2026-03-29T10:07:16.757Z</time></trkpt><trkpt lat="38.1392867" lon="14.827805"><ele>201.0</ele><time>2026-03-29T10:07:17.758Z</time></trkpt><trkpt lat="38.13928" lon="14.8276567"><ele>201.0</ele><time>2026-03-29T10:07:18.758Z</time></trkpt><trkpt lat="38.1392683" lon="14.8274767"><ele>198.75</ele><time>2026-03-29T10:07:19.757Z</time></trkpt><trkpt lat="38.1392467" lon="14.8272783"><ele>196.5</ele><time>2026-03-29T10:07:20.758Z</time></trkpt><trkpt lat="38.1392367" lon="14.8270983"><ele>194.25</ele><time>2026-03-29T10:07:21.758Z</time></trkpt><trkpt lat="38.1392583" lon="14.8269417"><ele>192.0</ele><time>2026-03-29T10:07:22.757Z</time></trkpt><trkpt lat="38.1392617" lon="14.8268283"><ele>193.39999999999998</ele><time>2026-03-29T10:07:23.757Z</time></trkpt><trkpt lat="38.13923" lon="14.826745"><ele>194.79999999999998</ele><time>2026-03-29T10:07:24.758Z</time></trkpt><trkpt lat="38.1391633" lon="14.826665"><ele>196.2</ele><time>2026-03-29T10:07:25.758Z</time></trkpt><trkpt lat="38.1390667" lon="14.8265983"><ele>197.6</ele><time>2026-03-29T10:07:26.758Z</time></trkpt><trkpt lat="38.1389517" lon="14.826525"><ele>199.0</ele><time>2026-03-29T10:07:27.758Z</time></trkpt><trkpt lat="38.1388383" lon="14.82645"><ele>199.0</ele><time>2026-03-29T10:07:28.758Z</time></trkpt><trkpt lat="38.138735" lon="14.82636"><ele>199.0</ele><time>2026-03-29T10:07:29.757Z</time></trkpt><trkpt lat="38.1386333" lon="14.8262683"><ele>199.0</ele><time>2026-03-29T10:07:30.757Z</time></trkpt><trkpt lat="38.1385267" lon="14.8261967"><ele>199.0</ele><time>2026-03-29T10:07:31.757Z</time></trkpt><trkpt lat="38.138435" lon="14.826145"><ele>198.99999999999997</ele><time>2026-03-29T10:07:32.757Z</time></trkpt><trkpt lat="38.1383417" lon="14.8261233"><ele>199.0</ele><time>2026-03-29T10:07:33.758Z</time></trkpt><trkpt lat="38.1382617" lon="14.8261233"><ele>199.0</ele><time>2026-03-29T10:07:34.757Z</time></trkpt><trkpt lat="38.1381883" lon="14.8261233"><ele>199.0</ele><time>2026-03-29T10:07:35.758Z</time></trkpt><trkpt lat="38.1381317" lon="14.82608"><ele>198.99999999999997</ele><time>2026-03-29T10:07:36.757Z</time></trkpt><trkpt lat="38.1380967" lon="14.82601"><ele>199.0</ele><time>2026-03-29T10:07:37.758Z</time></trkpt><trkpt lat="38.1380917" lon="14.8259117"><ele>198.75</ele><time>2026-03-29T10:07:38.758Z</time></trkpt><trkpt lat="38.1381167" lon="14.8257717"><ele>198.5</ele><time>2026-03-29T10:07:39.757Z</time></trkpt><trkpt lat="38.138165" lon="14.8255867"><ele>198.25</ele><time>2026-03-29T10:07:40.758Z</time></trkpt><trkpt lat="38.1382067" lon="14.8254067"><ele>198.0</ele><time>2026-03-29T10:07:41.758Z</time></trkpt><trkpt lat="38.1382183" lon="14.82525"><ele>197.2</ele><time>2026-03-29T10:07:42.757Z</time></trkpt><trkpt lat="38.13821" lon="14.82512"><ele>196.4</ele><time>2026-03-29T10:07:43.758Z</time></trkpt><trkpt lat="38.1382083" lon="14.8249933"><ele>195.6</ele><time>2026-03-29T10:07:44.758Z</time></trkpt><trkpt lat="38.1382333" lon="14.8248633"><ele>194.79999999999998</ele><time>2026-03-29T10:07:45.758Z</time></trkpt><trkpt lat="38.138265" lon="14.8247083"><ele>194.0</ele><time>2026-03-29T10:07:46.758Z</time></trkpt><trkpt lat="38.1382883" lon="14.8245633"><ele>187.0</ele><time>2026-03-29T10:07:47.757Z</time></trkpt><trkpt lat="38.13831" lon="14.8244117"><ele>180.0</ele><time>2026-03-29T10:07:48.758Z</time></trkpt><trkpt lat="38.1383567" lon="14.8242733"><ele>173.0</ele><time>2026-03-29T10:07:49.757Z</time></trkpt><trkpt lat="38.1384" lon="14.824145"><ele>166.0</ele><time>2026-03-29T10:07:50.758Z</time></trkpt><trkpt lat="38.1384333" lon="14.8240067"><ele>165.20000000000002</ele><time>2026-03-29T10:07:51.758Z</time></trkpt><trkpt lat="38.1384483" lon="14.82388"><ele>164.4</ele><time>2026-03-29T10:07:52.758Z</time></trkpt><trkpt lat="38.1384433" lon="14.8237767"><ele>163.6</ele><time>2026-03-29T10:07:53.758Z</time></trkpt><trkpt lat="38.1384133" lon="14.8236783"><ele>162.8</ele><time>2026-03-29T10:07:54.758Z</time></trkpt><trkpt lat="38.1383483" lon="14.8235767"><ele>162.0</ele><time>2026-03-29T10:07:55.758Z</time></trkpt><trkpt lat="38.1382733" lon="14.8234533"><ele>163.8</ele><time>2026-03-29T10:07:56.758Z</time></trkpt><trkpt lat="38.1382017" lon="14.823315"><ele>165.6</ele><time>2026-03-29T10:07:57.757Z</time></trkpt><trkpt lat="38.1381467" lon="14.82319"><ele>167.4</ele><time>2026-03-29T10:07:58.758Z</time></trkpt><trkpt lat="38.1380967" lon="14.823085"><ele>169.20000000000002</ele><time>2026-03-29T10:07:59.758Z</time></trkpt><trkpt lat="38.1380367" lon="14.8229933"><ele>171.0</ele><time>2026-03-29T10:08:00.757Z</time></trkpt><trkpt lat="38.1379717" lon="14.8229233"><ele>171.0</ele><time>2026-03-29T10:08:01.758Z</time></trkpt><trkpt lat="38.1379117" lon="14.8228433"><ele>171.0</ele><time>2026-03-29T10:08:02.758Z</time></trkpt><trkpt lat="38.1378517" lon="14.8227367"><ele>171.0</ele><time>2026-03-29T10:08:03.758Z</time></trkpt><trkpt lat="38.1377833" lon="14.8226383"><ele>171.0</ele><time>2026-03-29T10:08:04.757Z</time></trkpt><trkpt lat="38.1377167" lon="14.8225467"><ele>171.0</ele><time>2026-03-29T10:08:05.758Z</time></trkpt><trkpt lat="38.1376517" lon="14.822475"><ele>166.8</ele><time>2026-03-29T10:08:06.758Z</time></trkpt><trkpt lat="38.1376017" lon="14.8224183"><ele>162.60000000000002</ele><time>2026-03-29T10:08:07.758Z</time></trkpt><trkpt lat="38.1375567" lon="14.8223117"><ele>158.4</ele><time>2026-03-29T10:08:09.757Z</time></trkpt><trkpt lat="38.1375283" lon="14.8221767"><ele>154.2</ele><time>2026-03-29T10:08:11.758Z</time></trkpt><trkpt lat="38.1375033" lon="14.8220117"><ele>150.0</ele><time>2026-03-29T10:08:13.758Z</time></trkpt><trkpt lat="38.1375033" lon="14.8219083"><ele>148.0</ele><time>2026-03-29T10:08:14.758Z</time></trkpt><trkpt lat="38.1374917" lon="14.8217883"><ele>146.0</ele><time>2026-03-29T10:08:15.758Z</time></trkpt><trkpt lat="38.1374683" lon="14.8216733"><ele>144.0</ele><time>2026-03-29T10:08:16.757Z</time></trkpt><trkpt lat="38.1374383" lon="14.821575"><ele>142.0</ele><time>2026-03-29T10:08:17.758Z</time></trkpt><trkpt lat="38.137375" lon="14.82153"><ele>140.0</ele><time>2026-03-29T10:08:19.758Z</time></trkpt><trkpt lat="38.1373767" lon="14.8216483"><ele>138.0</ele><time>2026-03-29T10:08:21.757Z</time></trkpt><trkpt lat="38.1373883" lon="14.8217467"><ele>138.6</ele><time>2026-03-29T10:08:22.758Z</time></trkpt><trkpt lat="38.137395" lon="14.8218583"><ele>139.20000000000002</ele><time>2026-03-29T10:08:23.757Z</time></trkpt><trkpt lat="38.1373817" lon="14.8219717"><ele>139.8</ele><time>2026-03-29T10:08:24.758Z</time></trkpt><trkpt lat="38.1373533" lon="14.8220933"><ele>140.4</ele><time>2026-03-29T10:08:25.758Z</time></trkpt><trkpt lat="38.1373183" lon="14.8222367"><ele>141.0</ele><time>2026-03-29T10:08:26.758Z</time></trkpt><trkpt lat="38.1373" lon="14.8223867"><ele>141.0</ele><time>2026-03-29T10:08:27.757Z</time></trkpt><trkpt lat="38.1372967" lon="14.82254"><ele>141.0</ele><time>2026-03-29T10:08:28.758Z</time></trkpt><trkpt lat="38.137295" lon="14.8226783"><ele>141.0</ele><time>2026-03-29T10:08:29.758Z</time></trkpt><trkpt lat="38.1373" lon="14.822795"><ele>141.0</ele><time>2026-03-29T10:08:30.758Z</time></trkpt><trkpt lat="38.13732" lon="14.8228933"><ele>141.0</ele><time>2026-03-29T10:08:31.758Z</time></trkpt><trkpt lat="38.1373517" lon="14.822985"><ele>143.83333333333334</ele><time>2026-03-29T10:08:32.758Z</time></trkpt><trkpt lat="38.13738" lon="14.82308"><ele>146.66666666666666</ele><time>2026-03-29T10:08:33.758Z</time></trkpt><trkpt lat="38.1374067" lon="14.8231767"><ele>149.5</ele><time>2026-03-29T10:08:34.758Z</time></trkpt><trkpt lat="38.137435" lon="14.82327"><ele>152.33333333333331</ele><time>2026-03-29T10:08:35.758Z</time></trkpt><trkpt lat="38.1374517" lon="14.82337"><ele>155.16666666666666</ele><time>2026-03-29T10:08:36.757Z</time></trkpt><trkpt lat="38.13746" lon="14.8234667"><ele>158.0</ele><time>2026-03-29T10:08:37.758Z</time></trkpt><trkpt lat="38.1374617" lon="14.8235533"><ele>164.2</ele><time>2026-03-29T10:08:38.757Z</time></trkpt><trkpt lat="38.13747" lon="14.82368"><ele>170.4</ele><time>2026-03-29T10:08:40.757Z</time></trkpt><trkpt lat="38.1375" lon="14.823805"><ele>176.6</ele><time>2026-03-29T10:08:42.759Z</time></trkpt><trkpt lat="38.1374667" lon="14.8239867"><ele>182.79999999999998</ele><time>2026-03-29T10:08:44.758Z</time></trkpt><trkpt lat="38.1374383" lon="14.8241"><ele>189.0</ele><time>2026-03-29T10:08:45.759Z</time></trkpt><trkpt lat="38.137395" lon="14.8242283"><ele>188.33333333333334</ele><time>2026-03-29T10:08:46.758Z</time></trkpt><trkpt lat="38.1373667" lon="14.8243567"><ele>187.66666666666666</ele><time>2026-03-29T10:08:47.759Z</time></trkpt><trkpt lat="38.13736" lon="14.8244683"><ele>187.0</ele><time>2026-03-29T10:08:48.759Z</time></trkpt><trkpt lat="38.137375" lon="14.8245667"><ele>186.33333333333331</ele><time>2026-03-29T10:08:49.759Z</time></trkpt><trkpt lat="38.137415" lon="14.8246617"><ele>185.66666666666666</ele><time>2026-03-29T10:08:50.759Z</time></trkpt><trkpt lat="38.1374483" lon="14.8247417"><ele>185.0</ele><time>2026-03-29T10:08:51.759Z</time></trkpt><trkpt lat="38.1374383" lon="14.8248867"><ele>185.0</ele><time>2026-03-29T10:08:53.759Z</time></trkpt><trkpt lat="38.1373883" lon="14.8249833"><ele>185.0</ele><time>2026-03-29T10:08:54.759Z</time></trkpt><trkpt lat="38.1373183" lon="14.8250967"><ele>185.0</ele><time>2026-03-29T10:08:55.758Z</time></trkpt><trkpt lat="38.1372467" lon="14.825225"><ele>185.0</ele><time>2026-03-29T10:08:56.758Z</time></trkpt><trkpt lat="38.1371833" lon="14.825355"><ele>185.0</ele><time>2026-03-29T10:08:57.759Z</time></trkpt><trkpt lat="38.137125" lon="14.8254733"><ele>188.2</ele><time>2026-03-29T10:08:58.759Z</time></trkpt><trkpt lat="38.1370717" lon="14.8255717"><ele>191.4</ele><time>2026-03-29T10:08:59.758Z</time></trkpt><trkpt lat="38.137025" lon="14.8256733"><ele>194.60000000000002</ele><time>2026-03-29T10:09:00.759Z</time></trkpt><trkpt lat="38.1369883" lon="14.8257783"><ele>197.8</ele><time>2026-03-29T10:09:01.759Z</time></trkpt><trkpt lat="38.1369433" lon="14.8258833"><ele>201.0</ele><time>2026-03-29T10:09:02.759Z</time></trkpt><trkpt lat="38.1369083" lon="14.8259917"><ele>204.16666666666666</ele><time>2026-03-29T10:09:03.759Z</time></trkpt><trkpt lat="38.136885" lon="14.8261"><ele>207.33333333333331</ele><time>2026-03-29T10:09:04.759Z</time></trkpt><trkpt lat="38.1368717" lon="14.8262033"><ele>210.5</ele><time>2026-03-29T10:09:05.758Z</time></trkpt><trkpt lat="38.13686" lon="14.8263033"><ele>213.66666666666666</ele><time>2026-03-29T10:09:06.758Z</time></trkpt><trkpt lat="38.1368483" lon="14.8263967"><ele>216.83333333333331</ele><time>2026-03-29T10:09:07.759Z</time></trkpt><trkpt lat="38.1368283" lon="14.8264767"><ele>220.0</ele><time>2026-03-29T10:09:08.759Z</time></trkpt><trkpt lat="38.1367883" lon="14.8265517"><ele>220.0</ele><time>2026-03-29T10:09:09.759Z</time></trkpt><trkpt lat="38.136745" lon="14.8266883"><ele>220.0</ele><time>2026-03-29T10:09:11.759Z</time></trkpt><trkpt lat="38.1367667" lon="14.82681"><ele>220.0</ele><time>2026-03-29T10:09:13.759Z</time></trkpt><trkpt lat="38.136815" lon="14.8269317"><ele>220.0</ele><time>2026-03-29T10:09:15.758Z</time></trkpt><trkpt lat="38.1367267" lon="14.8269867"><ele>220.0</ele><time>2026-03-29T10:09:18.758Z</time></trkpt><trkpt lat="38.1366617" lon="14.827"><ele>222.83333333333331</ele><time>2026-03-29T10:09:19.759Z</time></trkpt><trkpt lat="38.1366017" lon="14.82704"><ele>225.66666666666666</ele><time>2026-03-29T10:09:20.759Z</time></trkpt><trkpt lat="38.1365467" lon="14.827095"><ele>228.5</ele><time>2026-03-29T10:09:21.759Z</time></trkpt><trkpt lat="38.1365033" lon="14.8271567"><ele>231.33333333333331</ele><time>2026-03-29T10:09:22.758Z</time></trkpt><trkpt lat="38.1364667" lon="14.8272283"><ele>234.16666666666666</ele><time>2026-03-29T10:09:23.759Z</time></trkpt><trkpt lat="38.1364383" lon="14.8273067"><ele>237.0</ele><time>2026-03-29T10:09:24.759Z</time></trkpt><trkpt lat="38.1364183" lon="14.8274633"><ele>237.0</ele><time>2026-03-29T10:09:26.759Z</time></trkpt><trkpt lat="38.1364117" lon="14.827545"><ele>237.0</ele><time>2026-03-29T10:09:27.758Z</time></trkpt><trkpt lat="38.1363917" lon="14.8276667"><ele>237.0</ele><time>2026-03-29T10:09:29.758Z</time></trkpt><trkpt lat="38.1364433" lon="14.8277617"><ele>237.0</ele><time>2026-03-29T10:09:31.758Z</time></trkpt><trkpt lat="38.1364883" lon="14.8278283"><ele>237.0</ele><time>2026-03-29T10:09:32.759Z</time></trkpt><trkpt lat="38.1365317" lon="14.82792"><ele>237.0</ele><time>2026-03-29T10:09:33.759Z</time></trkpt><trkpt lat="38.1365567" lon="14.8280367"><ele>241.33333333333334</ele><time>2026-03-29T10:09:34.758Z</time></trkpt><trkpt lat="38.1365783" lon="14.82815"><ele>245.66666666666669</ele><time>2026-03-29T10:09:35.758Z</time></trkpt><trkpt lat="38.136585" lon="14.82825"><ele>250.0</ele><time>2026-03-29T10:09:36.759Z</time></trkpt><trkpt lat="38.1366017" lon="14.82836"><ele>254.33333333333334</ele><time>2026-03-29T10:09:37.759Z</time></trkpt><trkpt lat="38.13663" lon="14.8284617"><ele>258.6666666666667</ele><time>2026-03-29T10:09:38.759Z</time></trkpt><trkpt lat="38.1366717" lon="14.8285533"><ele>263.0</ele><time>2026-03-29T10:09:39.759Z</time></trkpt><trkpt lat="38.1367233" lon="14.8286333"><ele>267.0</ele><time>2026-03-29T10:09:40.759Z</time></trkpt><trkpt lat="38.1367717" lon="14.8287017"><ele>271.0</ele><time>2026-03-29T10:09:41.759Z</time></trkpt><trkpt lat="38.13685" lon="14.8287983"><ele>275.0</ele><time>2026-03-29T10:09:43.759Z</time></trkpt><trkpt lat="38.13691" lon="14.8288917"><ele>279.0</ele><time>2026-03-29T10:09:45.759Z</time></trkpt><trkpt lat="38.1370017" lon="14.8289717"><ele>283.0</ele><time>2026-03-29T10:09:47.759Z</time></trkpt><trkpt lat="38.1370017" lon="14.829055"><ele>283.0</ele><time>2026-03-29T10:09:50.758Z</time></trkpt><trkpt lat="38.136905" lon="14.8290883"><ele>283.0</ele><time>2026-03-29T10:09:52.759Z</time></trkpt><trkpt lat="38.13681" lon="14.8290633"><ele>283.0</ele><time>2026-03-29T10:09:54.758Z</time></trkpt><trkpt lat="38.13681" lon="14.8291933"><ele>283.0</ele><time>2026-03-29T10:09:57.759Z</time></trkpt><trkpt lat="38.1368583" lon="14.829255"><ele>283.0</ele><time>2026-03-29T10:09:58.759Z</time></trkpt><trkpt lat="38.1369183" lon="14.82931"><ele>283.0</ele><time>2026-03-29T10:09:59.758Z</time></trkpt><trkpt lat="38.1369917" lon="14.8293483"><ele>287.8333333333333</ele><time>2026-03-29T10:10:00.758Z</time></trkpt><trkpt lat="38.1370767" lon="14.82936"><ele>292.66666666666663</ele><time>2026-03-29T10:10:01.759Z</time></trkpt><trkpt lat="38.1371583" lon="14.82936"><ele>297.5</ele><time>2026-03-29T10:10:02.759Z</time></trkpt><trkpt lat="38.137225" lon="14.8293667"><ele>302.3333333333333</ele><time>2026-03-29T10:10:03.759Z</time></trkpt><trkpt lat="38.137305" lon="14.8294083"><ele>307.1666666666667</ele><time>2026-03-29T10:10:05.758Z</time></trkpt><trkpt lat="38.1372317" lon="14.8294983"><ele>312.0</ele><time>2026-03-29T10:10:08.758Z</time></trkpt><trkpt lat="38.13714" lon="14.8294917"><ele>312.0</ele><time>2026-03-29T10:10:09.758Z</time></trkpt><trkpt lat="38.1370033" lon="14.8294817"><ele>312.0</ele><time>2026-03-29T10:10:10.759Z</time></trkpt><trkpt lat="38.1368567" lon="14.8294467"><ele>312.0</ele><time>2026-03-29T10:10:11.759Z</time></trkpt><trkpt lat="38.1367283" lon="14.8294067"><ele>312.0</ele><time>2026-03-29T10:10:12.758Z</time></trkpt><trkpt lat="38.1366167" lon="14.8293317"><ele>309.6</ele><time>2026-03-29T10:10:13.758Z</time></trkpt><trkpt lat="38.136515" lon="14.8292383"><ele>307.2</ele><time>2026-03-29T10:10:14.758Z</time></trkpt><trkpt lat="38.13643" lon="14.8291333"><ele>304.8</ele><time>2026-03-29T10:10:15.759Z</time></trkpt><trkpt lat="38.1363667" lon="14.8290367"><ele>302.4</ele><time>2026-03-29T10:10:16.759Z</time></trkpt><trkpt lat="38.136325" lon="14.828955"><ele>300.0</ele><time>2026-03-29T10:10:17.759Z</time></trkpt><trkpt lat="38.1362817" lon="14.8288783"><ele>299.99999999999994</ele><time>2026-03-29T10:10:18.758Z</time></trkpt><trkpt lat="38.1362283" lon="14.8288133"><ele>300.0</ele><time>2026-03-29T10:10:19.759Z</time></trkpt><trkpt lat="38.1361633" lon="14.8287867"><ele>300.0</ele><time>2026-03-29T10:10:20.758Z</time></trkpt><trkpt lat="38.1360817" lon="14.828805"><ele>300.0</ele><time>2026-03-29T10:10:21.759Z</time></trkpt><trkpt lat="38.1360133" lon="14.8288283"><ele>300.0</ele><time>2026-03-29T10:10:22.759Z</time></trkpt><trkpt lat="38.13595" lon="14.828855"><ele>299.99999999999994</ele><time>2026-03-29T10:10:24.758Z</time></trkpt><trkpt lat="38.135985" lon="14.8289267"><ele>300.0</ele><time>2026-03-29T10:10:29.758Z</time></trkpt><trkpt lat="38.13604" lon="14.8289667"><ele>300.0</ele><time>2026-03-29T10:10:30.758Z</time></trkpt><trkpt lat="38.1360983" lon="14.8290267"><ele>300.0</ele><time>2026-03-29T10:10:31.758Z</time></trkpt><trkpt lat="38.136165" lon="14.8291083"><ele>300.0</ele><time>2026-03-29T10:10:32.759Z</time></trkpt><trkpt lat="38.13623" lon="14.829215"><ele>300.0</ele><time>2026-03-29T10:10:33.759Z</time></trkpt><trkpt lat="38.1363067" lon="14.8293467"><ele>300.0</ele><time>2026-03-29T10:10:34.759Z</time></trkpt><trkpt lat="38.1363867" lon="14.8294833"><ele>303.0</ele><time>2026-03-29T10:10:35.759Z</time></trkpt><trkpt lat="38.1364717" lon="14.8296083"><ele>306.0</ele><time>2026-03-29T10:10:36.759Z</time></trkpt><trkpt lat="38.1365583" lon="14.8297333"><ele>309.0</ele><time>2026-03-29T10:10:37.758Z</time></trkpt><trkpt lat="38.136635" lon="14.82983"><ele>312.0</ele><time>2026-03-29T10:10:38.759Z</time></trkpt><trkpt lat="38.136715" lon="14.8299167"><ele>312.0</ele><time>2026-03-29T10:10:39.759Z</time></trkpt><trkpt lat="38.1367767" lon="14.8300033"><ele>312.0</ele><time>2026-03-29T10:10:40.758Z</time></trkpt><trkpt lat="38.1368217" lon="14.83011"><ele>312.0</ele><time>2026-03-29T10:10:41.759Z</time></trkpt><trkpt lat="38.1368533" lon="14.8302433"><ele>312.0</ele><time>2026-03-29T10:10:42.758Z</time></trkpt><trkpt lat="38.1368833" lon="14.8303867"><ele>312.0</ele><time>2026-03-29T10:10:43.758Z</time></trkpt><trkpt lat="38.136925" lon="14.8305467"><ele>317.25</ele><time>2026-03-29T10:10:44.759Z</time></trkpt><trkpt lat="38.13697" lon="14.8307033"><ele>322.5</ele><time>2026-03-29T10:10:45.758Z</time></trkpt><trkpt lat="38.1370233" lon="14.8308617"><ele>327.75</ele><time>2026-03-29T10:10:46.759Z</time></trkpt><trkpt lat="38.1370683" lon="14.831005"><ele>333.0</ele><time>2026-03-29T10:10:47.758Z</time></trkpt><trkpt lat="38.1371217" lon="14.831145"><ele>339.4</ele><time>2026-03-29T10:10:48.759Z</time></trkpt><trkpt lat="38.13718" lon="14.8312817"><ele>345.79999999999995</ele><time>2026-03-29T10:10:49.759Z</time></trkpt><trkpt lat="38.1372417" lon="14.83141"><ele>352.2</ele><time>2026-03-29T10:10:50.759Z</time></trkpt><trkpt lat="38.137295" lon="14.831535"><ele>358.6</ele><time>2026-03-29T10:10:51.759Z</time></trkpt><trkpt lat="38.137335" lon="14.8316383"><ele>365.0</ele><time>2026-03-29T10:10:52.759Z</time></trkpt><trkpt lat="38.1373567" lon="14.8317383"><ele>367.4</ele><time>2026-03-29T10:10:53.759Z</time></trkpt><trkpt lat="38.137365" lon="14.8318517"><ele>369.8</ele><time>2026-03-29T10:10:54.758Z</time></trkpt><trkpt lat="38.13736" lon="14.8319833"><ele>372.20000000000005</ele><time>2026-03-29T10:10:55.759Z</time></trkpt><trkpt lat="38.1373383" lon="14.8321367"><ele>374.6</ele><time>2026-03-29T10:10:56.759Z</time></trkpt><trkpt lat="38.1373167" lon="14.8322817"><ele>377.0</ele><time>2026-03-29T10:10:57.758Z</time></trkpt><trkpt lat="38.1373017" lon="14.8323933"><ele>377.0</ele><time>2026-03-29T10:10:58.759Z</time></trkpt><trkpt lat="38.1372983" lon="14.83249"><ele>377.0</ele><time>2026-03-29T10:10:59.759Z</time></trkpt><trkpt lat="38.1372967" lon="14.8325733"><ele>377.0</ele><time>2026-03-29T10:11:00.758Z</time></trkpt><trkpt lat="38.1372567" lon="14.8326383"><ele>377.0</ele><time>2026-03-29T10:11:02.759Z</time></trkpt><trkpt lat="38.1372033" lon="14.8325367"><ele>377.0</ele><time>2026-03-29T10:11:04.759Z</time></trkpt><trkpt lat="38.1371833" lon="14.8324283"><ele>377.0</ele><time>2026-03-29T10:11:05.759Z</time></trkpt><trkpt lat="38.1371667" lon="14.832275"><ele>377.0</ele><time>2026-03-29T10:11:06.759Z</time></trkpt><trkpt lat="38.13716" lon="14.8321017"><ele>377.0</ele><time>2026-03-29T10:11:07.759Z</time></trkpt><trkpt lat="38.1371533" lon="14.8319283"><ele>377.0</ele><time>2026-03-29T10:11:08.758Z</time></trkpt><trkpt lat="38.1371283" lon="14.8317767"><ele>377.0</ele><time>2026-03-29T10:11:09.758Z</time></trkpt><trkpt lat="38.13708" lon="14.831675"><ele>374.6</ele><time>2026-03-29T10:11:10.759Z</time></trkpt><trkpt lat="38.1370167" lon="14.831605"><ele>372.20000000000005</ele><time>2026-03-29T10:11:11.759Z</time></trkpt><trkpt lat="38.1369467" lon="14.83153"><ele>369.8</ele><time>2026-03-29T10:11:12.758Z</time></trkpt><trkpt lat="38.1368617" lon="14.8314433"><ele>367.4</ele><time>2026-03-29T10:11:13.759Z</time></trkpt><trkpt lat="38.1367733" lon="14.831335"><ele>365.0</ele><time>2026-03-29T10:11:14.759Z</time></trkpt><trkpt lat="38.1366783" lon="14.8312233"><ele>365.0</ele><time>2026-03-29T10:11:15.759Z</time></trkpt><trkpt lat="38.1365917" lon="14.8311267"><ele>365.0</ele><time>2026-03-29T10:11:16.758Z</time></trkpt><trkpt lat="38.136515" lon="14.83102"><ele>365.0</ele><time>2026-03-29T10:11:17.759Z</time></trkpt><trkpt lat="38.136455" lon="14.83088"><ele>365.0</ele><time>2026-03-29T10:11:18.759Z</time></trkpt><trkpt lat="38.13639" lon="14.8307417"><ele>367.6666666666667</ele><time>2026-03-29T10:11:19.758Z</time></trkpt><trkpt lat="38.1363317" lon="14.8306383"><ele>370.33333333333337</ele><time>2026-03-29T10:11:20.759Z</time></trkpt><trkpt lat="38.1362783" lon="14.8305817"><ele>373.0</ele><time>2026-03-29T10:11:21.759Z</time></trkpt><trkpt lat="38.1362183" lon="14.8305533"><ele>375.6666666666667</ele><time>2026-03-29T10:11:22.759Z</time></trkpt><trkpt lat="38.1361483" lon="14.830545"><ele>378.3333333333333</ele><time>2026-03-29T10:11:23.759Z</time></trkpt><trkpt lat="38.13605" lon="14.83054"><ele>381.0</ele><time>2026-03-29T10:11:24.758Z</time></trkpt><trkpt lat="38.13594" lon="14.83052"><ele>381.0</ele><time>2026-03-29T10:11:25.759Z</time></trkpt><trkpt lat="38.1358283" lon="14.8304933"><ele>381.0</ele><time>2026-03-29T10:11:26.759Z</time></trkpt><trkpt lat="38.135735" lon="14.83045"><ele>381.0</ele><time>2026-03-29T10:11:27.758Z</time></trkpt><trkpt lat="38.135665" lon="14.8304033"><ele>381.0</ele><time>2026-03-29T10:11:28.759Z</time></trkpt><trkpt lat="38.135575" lon="14.830365"><ele>381.0</ele><time>2026-03-29T10:11:30.759Z</time></trkpt><trkpt lat="38.1356933" lon="14.830405"><ele>381.0</ele><time>2026-03-29T10:11:47.759Z</time></trkpt><trkpt lat="38.1357933" lon="14.830445"><ele>381.0</ele><time>2026-03-29T10:11:48.758Z</time></trkpt><trkpt lat="38.13592" lon="14.8305067"><ele>381.0</ele><time>2026-03-29T10:11:49.758Z</time></trkpt><trkpt lat="38.1360517" lon="14.8305533"><ele>381.0</ele><time>2026-03-29T10:11:50.759Z</time></trkpt><trkpt lat="38.1361683" lon="14.8305933"><ele>381.0</ele><time>2026-03-29T10:11:51.759Z</time></trkpt><trkpt lat="38.13627" lon="14.8306167"><ele>381.0</ele><time>2026-03-29T10:11:52.758Z</time></trkpt><trkpt lat="38.1363433" lon="14.830645"><ele>381.0</ele><time>2026-03-29T10:11:53.759Z</time></trkpt><trkpt lat="38.136415" lon="14.8307"><ele>381.0</ele><time>2026-03-29T10:11:54.758Z</time></trkpt><trkpt lat="38.136475" lon="14.8308183"><ele>381.0</ele><time>2026-03-29T10:11:55.759Z</time></trkpt><trkpt lat="38.1365333" lon="14.8309483"><ele>377.8</ele><time>2026-03-29T10:11:56.759Z</time></trkpt><trkpt lat="38.136585" lon="14.8310733"><ele>374.6</ele><time>2026-03-29T10:11:57.759Z</time></trkpt><trkpt lat="38.1366417" lon="14.8311867"><ele>371.4</ele><time>2026-03-29T10:11:58.759Z</time></trkpt><trkpt lat="38.1367217" lon="14.83129"><ele>368.2</ele><time>2026-03-29T10:11:59.758Z</time></trkpt><trkpt lat="38.13681" lon="14.8313883"><ele>365.0</ele><time>2026-03-29T10:12:00.759Z</time></trkpt><trkpt lat="38.1368917" lon="14.8314967"><ele>365.0</ele><time>2026-03-29T10:12:01.758Z</time></trkpt><trkpt lat="38.13697" lon="14.831575"><ele>365.0</ele><time>2026-03-29T10:12:02.758Z</time></trkpt><trkpt lat="38.137045" lon="14.83164"><ele>365.0</ele><time>2026-03-29T10:12:03.759Z</time></trkpt><trkpt lat="38.1371017" lon="14.8317"><ele>365.0</ele><time>2026-03-29T10:12:04.758Z</time></trkpt><trkpt lat="38.137155" lon="14.831835"><ele>365.0</ele><time>2026-03-29T10:12:06.759Z</time></trkpt><trkpt lat="38.137165" lon="14.8319267"><ele>367.0</ele><time>2026-03-29T10:12:07.759Z</time></trkpt><trkpt lat="38.137165" lon="14.8320167"><ele>369.0</ele><time>2026-03-29T10:12:08.759Z</time></trkpt><trkpt lat="38.1371667" lon="14.83211"><ele>371.0</ele><time>2026-03-29T10:12:09.759Z</time></trkpt><trkpt lat="38.1371667" lon="14.8322133"><ele>373.0</ele><time>2026-03-29T10:12:10.758Z</time></trkpt><trkpt lat="38.1371633" lon="14.8323133"><ele>375.0</ele><time>2026-03-29T10:12:11.758Z</time></trkpt><trkpt lat="38.1371583" lon="14.8324033"><ele>377.0</ele><time>2026-03-29T10:12:12.759Z</time></trkpt><trkpt lat="38.1371667" lon="14.8325433"><ele>377.0</ele><time>2026-03-29T10:12:14.759Z</time></trkpt><trkpt lat="38.1371983" lon="14.8326217"><ele>377.0</ele><time>2026-03-29T10:12:16.758Z</time></trkpt><trkpt lat="38.137255" lon="14.832515"><ele>377.0</ele><time>2026-03-29T10:12:19.759Z</time></trkpt><trkpt lat="38.13727" lon="14.8324167"><ele>377.0</ele><time>2026-03-29T10:12:20.759Z</time></trkpt><trkpt lat="38.1372867" lon="14.832295"><ele>377.0</ele><time>2026-03-29T10:12:22.758Z</time></trkpt><trkpt lat="38.13732" lon="14.832415"><ele>377.0</ele><time>2026-03-29T10:12:26.759Z</time></trkpt><trkpt lat="38.1373833" lon="14.8325233"><ele>368.0</ele><time>2026-03-29T10:12:28.758Z</time></trkpt><trkpt lat="38.13747" lon="14.8325833"><ele>359.0</ele><time>2026-03-29T10:12:30.758Z</time></trkpt><trkpt lat="38.1375383" lon="14.8326417"><ele>350.0</ele><time>2026-03-29T10:12:32.759Z</time></trkpt><trkpt lat="38.13762" lon="14.8326083"><ele>341.0</ele><time>2026-03-29T10:12:35.759Z</time></trkpt><trkpt lat="38.1376583" lon="14.8325167"><ele>332.0</ele><time>2026-03-29T10:12:37.759Z</time></trkpt><trkpt lat="38.1376933" lon="14.832405"><ele>323.0</ele><time>2026-03-29T10:12:40.759Z</time></trkpt><trkpt lat="38.1377517" lon="14.8323317"><ele>323.0</ele><time>2026-03-29T10:12:42.758Z</time></trkpt><trkpt lat="38.1378217" lon="14.832285"><ele>323.0</ele><time>2026-03-29T10:12:44.759Z</time></trkpt><trkpt lat="38.1377767" lon="14.8322233"><ele>323.0</ele><time>2026-03-29T10:12:48.759Z</time></trkpt><trkpt lat="38.1377017" lon="14.832175"><ele>323.0</ele><time>2026-03-29T10:12:50.758Z</time></trkpt><trkpt lat="38.1377883" lon="14.832085"><ele>323.0</ele><time>2026-03-29T10:12:54.759Z</time></trkpt><trkpt lat="38.1378517" lon="14.8320533"><ele>323.0</ele><time>2026-03-29T10:12:55.759Z</time></trkpt><trkpt lat="38.137945" lon="14.8319983"><ele>323.0</ele><time>2026-03-29T10:12:57.758Z</time></trkpt><trkpt lat="38.1378317" lon="14.831945"><ele>323.0</ele><time>2026-03-29T10:13:00.758Z</time></trkpt><trkpt lat="38.1377767" lon="14.8318983"><ele>323.0</ele><time>2026-03-29T10:13:01.759Z</time></trkpt><trkpt lat="38.137715" lon="14.8317883"><ele>323.0</ele><time>2026-03-29T10:13:03.758Z</time></trkpt><trkpt lat="38.1376767" lon="14.8316633"><ele>323.0</ele><time>2026-03-29T10:13:05.759Z</time></trkpt><trkpt lat="38.13765" lon="14.83158"><ele>320.83333333333337</ele><time>2026-03-29T10:13:06.759Z</time></trkpt><trkpt lat="38.1376117" lon="14.8314833"><ele>318.6666666666667</ele><time>2026-03-29T10:13:07.759Z</time></trkpt><trkpt lat="38.13757" lon="14.831395"><ele>316.5</ele><time>2026-03-29T10:13:08.759Z</time></trkpt><trkpt lat="38.1375383" lon="14.8313217"><ele>314.3333333333333</ele><time>2026-03-29T10:13:09.759Z</time></trkpt><trkpt lat="38.1375067" lon="14.8312417"><ele>312.16666666666663</ele><time>2026-03-29T10:13:10.759Z</time></trkpt><trkpt lat="38.137475" lon="14.8311367"><ele>310.0</ele><time>2026-03-29T10:13:11.759Z</time></trkpt><trkpt lat="38.1374567" lon="14.831015"><ele>305.75</ele><time>2026-03-29T10:13:12.759Z</time></trkpt><trkpt lat="38.1374317" lon="14.830895"><ele>301.5</ele><time>2026-03-29T10:13:13.759Z</time></trkpt><trkpt lat="38.1373883" lon="14.8307517"><ele>297.25</ele><time>2026-03-29T10:13:14.758Z</time></trkpt><trkpt lat="38.1373383" lon="14.830605"><ele>293.0</ele><time>2026-03-29T10:13:15.758Z</time></trkpt><trkpt lat="38.1372917" lon="14.8304733"><ele>296.1666666666667</ele><time>2026-03-29T10:13:16.759Z</time></trkpt><trkpt lat="38.1372567" lon="14.830365"><ele>299.33333333333337</ele><time>2026-03-29T10:13:17.759Z</time></trkpt><trkpt lat="38.1372167" lon="14.8302733"><ele>302.5</ele><time>2026-03-29T10:13:18.758Z</time></trkpt><trkpt lat="38.1371817" lon="14.8301967"><ele>305.6666666666667</ele><time>2026-03-29T10:13:19.759Z</time></trkpt><trkpt lat="38.137145" lon="14.83012"><ele>308.8333333333333</ele><time>2026-03-29T10:13:21.759Z</time></trkpt><trkpt lat="38.1370983" lon="14.8300433"><ele>312.0</ele><time>2026-03-29T10:13:24.76Z</time></trkpt><trkpt lat="38.1370517" lon="14.8299567"><ele>312.0</ele><time>2026-03-29T10:13:26.76Z</time></trkpt><trkpt lat="38.1370083" lon="14.82987"><ele>312.0</ele><time>2026-03-29T10:13:28.76Z</time></trkpt><trkpt lat="38.1369467" lon="14.82977"><ele>312.0</ele><time>2026-03-29T10:13:30.76Z</time></trkpt><trkpt lat="38.1368833" lon="14.8297033"><ele>312.0</ele><time>2026-03-29T10:13:32.76Z</time></trkpt><trkpt lat="38.1368183" lon="14.8296783"><ele>312.0</ele><time>2026-03-29T10:13:33.76Z</time></trkpt><trkpt lat="38.136735" lon="14.8296517"><ele>312.0</ele><time>2026-03-29T10:13:34.76Z</time></trkpt><trkpt lat="38.1366617" lon="14.82962"><ele>312.0</ele><time>2026-03-29T10:13:35.759Z</time></trkpt><trkpt lat="38.1366017" lon="14.8295767"><ele>312.0</ele><time>2026-03-29T10:13:36.76Z</time></trkpt><trkpt lat="38.136545" lon="14.82951"><ele>312.0</ele><time>2026-03-29T10:13:37.76Z</time></trkpt><trkpt lat="38.1364917" lon="14.8294183"><ele>312.0</ele><time>2026-03-29T10:13:38.759Z</time></trkpt><trkpt lat="38.1364283" lon="14.82929"><ele>312.0</ele><time>2026-03-29T10:13:39.759Z</time></trkpt><trkpt lat="38.13637" lon="14.8291717"><ele>309.6</ele><time>2026-03-29T10:13:40.759Z</time></trkpt><trkpt lat="38.1363117" lon="14.8290517"><ele>307.2</ele><time>2026-03-29T10:13:41.759Z</time></trkpt><trkpt lat="38.1362583" lon="14.8289683"><ele>304.8</ele><time>2026-03-29T10:13:42.759Z</time></trkpt><trkpt lat="38.13621" lon="14.8289117"><ele>302.4</ele><time>2026-03-29T10:13:43.76Z</time></trkpt><trkpt lat="38.13617" lon="14.8288483"><ele>300.0</ele><time>2026-03-29T10:13:45.76Z</time></trkpt><trkpt lat="38.1362867" lon="14.8289417"><ele>300.0</ele><time>2026-03-29T10:13:48.76Z</time></trkpt><trkpt lat="38.1363517" lon="14.8290383"><ele>300.0</ele><time>2026-03-29T10:13:49.759Z</time></trkpt><trkpt lat="38.136415" lon="14.8291417"><ele>300.0</ele><time>2026-03-29T10:13:50.76Z</time></trkpt><trkpt lat="38.136495" lon="14.8292383"><ele>300.0</ele><time>2026-03-29T10:13:51.76Z</time></trkpt><trkpt lat="38.136615" lon="14.8293483"><ele>303.0</ele><time>2026-03-29T10:13:52.759Z</time></trkpt><trkpt lat="38.1367467" lon="14.8294233"><ele>306.0</ele><time>2026-03-29T10:13:53.76Z</time></trkpt><trkpt lat="38.1368617" lon="14.829465"><ele>309.0</ele><time>2026-03-29T10:13:54.76Z</time></trkpt><trkpt lat="38.1369633" lon="14.829475"><ele>312.0</ele><time>2026-03-29T10:13:55.76Z</time></trkpt><trkpt lat="38.1370533" lon="14.8294783"><ele>312.0</ele><time>2026-03-29T10:13:56.759Z</time></trkpt><trkpt lat="38.1371317" lon="14.829475"><ele>312.0</ele><time>2026-03-29T10:13:57.76Z</time></trkpt><trkpt lat="38.1372017" lon="14.8294767"><ele>312.0</ele><time>2026-03-29T10:13:58.76Z</time></trkpt><trkpt lat="38.1373083" lon="14.8295533"><ele>312.0</ele><time>2026-03-29T10:14:00.76Z</time></trkpt><trkpt lat="38.1373517" lon="14.8296567"><ele>312.0</ele><time>2026-03-29T10:14:01.76Z</time></trkpt><trkpt lat="38.1374067" lon="14.8297883"><ele>307.25</ele><time>2026-03-29T10:14:02.76Z</time></trkpt><trkpt lat="38.1374967" lon="14.8299333"><ele>302.5</ele><time>2026-03-29T10:14:03.76Z</time></trkpt><trkpt lat="38.1376033" lon="14.8300833"><ele>297.75</ele><time>2026-03-29T10:14:04.76Z</time></trkpt><trkpt lat="38.1377017" lon="14.8302083"><ele>293.0</ele><time>2026-03-29T10:14:05.76Z</time></trkpt><trkpt lat="38.1377817" lon="14.8303033"><ele>293.0</ele><time>2026-03-29T10:14:06.76Z</time></trkpt><trkpt lat="38.1378517" lon="14.8304117"><ele>293.0</ele><time>2026-03-29T10:14:07.76Z</time></trkpt><trkpt lat="38.1379017" lon="14.830525"><ele>293.0</ele><time>2026-03-29T10:14:08.759Z</time></trkpt><trkpt lat="38.13794" lon="14.8306433"><ele>293.0</ele><time>2026-03-29T10:14:09.76Z</time></trkpt><trkpt lat="38.1379733" lon="14.8307533"><ele>293.0</ele><time>2026-03-29T10:14:10.76Z</time></trkpt><trkpt lat="38.1379833" lon="14.83087"><ele>295.83333333333337</ele><time>2026-03-29T10:14:11.76Z</time></trkpt><trkpt lat="38.137995" lon="14.8309933"><ele>298.6666666666667</ele><time>2026-03-29T10:14:12.76Z</time></trkpt><trkpt lat="38.1380083" lon="14.8311067"><ele>301.5</ele><time>2026-03-29T10:14:13.76Z</time></trkpt><trkpt lat="38.1380317" lon="14.8312"><ele>304.3333333333333</ele><time>2026-03-29T10:14:14.76Z</time></trkpt><trkpt lat="38.1380683" lon="14.831285"><ele>307.16666666666663</ele><time>2026-03-29T10:14:15.76Z</time></trkpt><trkpt lat="38.1381267" lon="14.8313483"><ele>310.0</ele><time>2026-03-29T10:14:16.76Z</time></trkpt><trkpt lat="38.1381967" lon="14.8313933"><ele>303.8</ele><time>2026-03-29T10:14:17.76Z</time></trkpt><trkpt lat="38.138285" lon="14.83143"><ele>297.6</ele><time>2026-03-29T10:14:18.76Z</time></trkpt><trkpt lat="38.1383817" lon="14.831435"><ele>291.4</ele><time>2026-03-29T10:14:19.76Z</time></trkpt><trkpt lat="38.138485" lon="14.8314367"><ele>285.2</ele><time>2026-03-29T10:14:20.76Z</time></trkpt><trkpt lat="38.13858" lon="14.8314317"><ele>279.0</ele><time>2026-03-29T10:14:21.759Z</time></trkpt><trkpt lat="38.1386717" lon="14.831435"><ele>279.0</ele><time>2026-03-29T10:14:22.76Z</time></trkpt><trkpt lat="38.1387567" lon="14.8314367"><ele>279.0</ele><time>2026-03-29T10:14:23.76Z</time></trkpt><trkpt lat="38.1388383" lon="14.8314433"><ele>279.0</ele><time>2026-03-29T10:14:24.76Z</time></trkpt><trkpt lat="38.138915" lon="14.831435"><ele>279.0</ele><time>2026-03-29T10:14:25.76Z</time></trkpt><trkpt lat="38.1389783" lon="14.83142"><ele>279.0</ele><time>2026-03-29T10:14:26.76Z</time></trkpt><trkpt lat="38.13904" lon="14.8313833"><ele>279.0</ele><time>2026-03-29T10:14:27.76Z</time></trkpt><trkpt lat="38.1391067" lon="14.8313133"><ele>273.0</ele><time>2026-03-29T10:14:28.76Z</time></trkpt><trkpt lat="38.1391767" lon="14.831215"><ele>267.0</ele><time>2026-03-29T10:14:29.76Z</time></trkpt><trkpt lat="38.13926" lon="14.8310783"><ele>261.0</ele><time>2026-03-29T10:14:30.76Z</time></trkpt><trkpt lat="38.1393417" lon="14.830945"><ele>255.0</ele><time>2026-03-29T10:14:31.76Z</time></trkpt><trkpt lat="38.1394117" lon="14.8308367"><ele>253.2</ele><time>2026-03-29T10:14:32.76Z</time></trkpt><trkpt lat="38.13948" lon="14.8307483"><ele>251.4</ele><time>2026-03-29T10:14:33.76Z</time></trkpt><trkpt lat="38.13954" lon="14.83067"><ele>249.60000000000002</ele><time>2026-03-29T10:14:34.76Z</time></trkpt><trkpt lat="38.1396233" lon="14.8305917"><ele>247.8</ele><time>2026-03-29T10:14:35.759Z</time></trkpt><trkpt lat="38.1397017" lon="14.83053"><ele>246.0</ele><time>2026-03-29T10:14:36.759Z</time></trkpt><trkpt lat="38.13978" lon="14.8305117"><ele>246.0</ele><time>2026-03-29T10:14:37.76Z</time></trkpt><trkpt lat="38.1398833" lon="14.8305483"><ele>246.00000000000003</ele><time>2026-03-29T10:14:39.76Z</time></trkpt><trkpt lat="38.1399733" lon="14.8305133"><ele>246.00000000000003</ele><time>2026-03-29T10:14:41.76Z</time></trkpt><trkpt lat="38.1399533" lon="14.8304017"><ele>246.0</ele><time>2026-03-29T10:14:43.759Z</time></trkpt><trkpt lat="38.1398833" lon="14.83036"><ele>246.0</ele><time>2026-03-29T10:14:44.76Z</time></trkpt><trkpt lat="38.1397767" lon="14.8303283"><ele>246.0</ele><time>2026-03-29T10:14:45.759Z</time></trkpt><trkpt lat="38.1396617" lon="14.830315"><ele>246.0</ele><time>2026-03-29T10:14:46.76Z</time></trkpt><trkpt lat="38.13957" lon="14.8303217"><ele>246.0</ele><time>2026-03-29T10:14:47.76Z</time></trkpt><trkpt lat="38.1394983" lon="14.8303533"><ele>246.0</ele><time>2026-03-29T10:14:48.759Z</time></trkpt><trkpt lat="38.13944" lon="14.830385"><ele>246.0</ele><time>2026-03-29T10:14:49.759Z</time></trkpt><trkpt lat="38.1393417" lon="14.8303917"><ele>246.0</ele><time>2026-03-29T10:14:51.76Z</time></trkpt><trkpt lat="38.13924" lon="14.8302867"><ele>246.0</ele><time>2026-03-29T10:14:53.76Z</time></trkpt><trkpt lat="38.1391767" lon="14.8301817"><ele>246.00000000000003</ele><time>2026-03-29T10:14:54.76Z</time></trkpt><trkpt lat="38.1391167" lon="14.8300833"><ele>246.00000000000003</ele><time>2026-03-29T10:14:55.76Z</time></trkpt><trkpt lat="38.139065" lon="14.8300033"><ele>246.0</ele><time>2026-03-29T10:14:56.76Z</time></trkpt><trkpt lat="38.1390467" lon="14.8299267"><ele>246.0</ele><time>2026-03-29T10:14:57.76Z</time></trkpt><trkpt lat="38.1391033" lon="14.829805"><ele>243.60000000000002</ele><time>2026-03-29T10:14:59.759Z</time></trkpt><trkpt lat="38.1391833" lon="14.8297283"><ele>241.20000000000002</ele><time>2026-03-29T10:15:00.759Z</time></trkpt><trkpt lat="38.13929" lon="14.82964"><ele>238.79999999999998</ele><time>2026-03-29T10:15:01.76Z</time></trkpt><trkpt lat="38.1393883" lon="14.82956"><ele>236.39999999999998</ele><time>2026-03-29T10:15:02.76Z</time></trkpt><trkpt lat="38.1394733" lon="14.829505"><ele>234.0</ele><time>2026-03-29T10:15:03.759Z</time></trkpt><trkpt lat="38.1395533" lon="14.8294867"><ele>234.0</ele><time>2026-03-29T10:15:04.76Z</time></trkpt><trkpt lat="38.139635" lon="14.8294933"><ele>234.0</ele><time>2026-03-29T10:15:05.76Z</time></trkpt><trkpt lat="38.1397233" lon="14.829525"><ele>234.0</ele><time>2026-03-29T10:15:06.76Z</time></trkpt><trkpt lat="38.1397917" lon="14.829565"><ele>234.0</ele><time>2026-03-29T10:15:07.76Z</time></trkpt><trkpt lat="38.1398533" lon="14.8295867"><ele>234.0</ele><time>2026-03-29T10:15:08.76Z</time></trkpt><trkpt lat="38.139965" lon="14.8295117"><ele>234.0</ele><time>2026-03-29T10:15:10.76Z</time></trkpt><trkpt lat="38.1400117" lon="14.8294067"><ele>230.66666666666666</ele><time>2026-03-29T10:15:11.76Z</time></trkpt><trkpt lat="38.1400433" lon="14.82929"><ele>227.33333333333331</ele><time>2026-03-29T10:15:12.759Z</time></trkpt><trkpt lat="38.1400417" lon="14.8291833"><ele>224.0</ele><time>2026-03-29T10:15:13.76Z</time></trkpt><trkpt lat="38.1400267" lon="14.829095"><ele>220.66666666666666</ele><time>2026-03-29T10:15:14.76Z</time></trkpt><trkpt lat="38.1400117" lon="14.82899"><ele>217.33333333333331</ele><time>2026-03-29T10:15:16.76Z</time></trkpt><trkpt lat="38.1400867" lon="14.8289983"><ele>214.0</ele><time>2026-03-29T10:15:18.759Z</time></trkpt><trkpt lat="38.1401383" lon="14.829065"><ele>213.99999999999997</ele><time>2026-03-29T10:15:19.759Z</time></trkpt><trkpt lat="38.1401633" lon="14.8291483"><ele>214.0</ele><time>2026-03-29T10:15:20.76Z</time></trkpt><trkpt lat="38.1401917" lon="14.82926"><ele>214.0</ele><time>2026-03-29T10:15:22.76Z</time></trkpt><trkpt lat="38.1402583" lon="14.829205"><ele>214.0</ele><time>2026-03-29T10:15:24.76Z</time></trkpt><trkpt lat="38.1402867" lon="14.8291167"><ele>213.99999999999997</ele><time>2026-03-29T10:15:25.76Z</time></trkpt><trkpt lat="38.1402817" lon="14.8289983"><ele>214.0</ele><time>2026-03-29T10:15:26.759Z</time></trkpt><trkpt lat="38.1402467" lon="14.828885"><ele>214.0</ele><time>2026-03-29T10:15:27.76Z</time></trkpt><trkpt lat="38.1402083" lon="14.8287917"><ele>213.99999999999997</ele><time>2026-03-29T10:15:28.76Z</time></trkpt><trkpt lat="38.1401867" lon="14.8287083"><ele>213.99999999999997</ele><time>2026-03-29T10:15:29.76Z</time></trkpt><trkpt lat="38.1402" lon="14.8285683"><ele>214.0</ele><time>2026-03-29T10:15:31.76Z</time></trkpt><trkpt lat="38.140275" lon="14.8284367"><ele>214.0</ele><time>2026-03-29T10:15:33.76Z</time></trkpt><trkpt lat="38.14035" lon="14.8283717"><ele>209.0</ele><time>2026-03-29T10:15:34.76Z</time></trkpt><trkpt lat="38.1404583" lon="14.8283"><ele>204.0</ele><time>2026-03-29T10:15:35.76Z</time></trkpt><trkpt lat="38.1405767" lon="14.8282133"><ele>199.0</ele><time>2026-03-29T10:15:36.759Z</time></trkpt><trkpt lat="38.1406867" lon="14.828125"><ele>194.0</ele><time>2026-03-29T10:15:37.76Z</time></trkpt><trkpt lat="38.1407717" lon="14.8280433"><ele>193.79999999999998</ele><time>2026-03-29T10:15:38.76Z</time></trkpt><trkpt lat="38.14084" lon="14.8279583"><ele>193.6</ele><time>2026-03-29T10:15:39.759Z</time></trkpt><trkpt lat="38.14089" lon="14.8278633"><ele>193.4</ele><time>2026-03-29T10:15:40.76Z</time></trkpt><trkpt lat="38.1409233" lon="14.8277517"><ele>193.2</ele><time>2026-03-29T10:15:41.759Z</time></trkpt><trkpt lat="38.14096" lon="14.82762"><ele>193.0</ele><time>2026-03-29T10:15:42.76Z</time></trkpt><trkpt lat="38.1409983" lon="14.827485"><ele>193.8</ele><time>2026-03-29T10:15:43.76Z</time></trkpt><trkpt lat="38.1410217" lon="14.82736"><ele>194.60000000000002</ele><time>2026-03-29T10:15:44.76Z</time></trkpt><trkpt lat="38.1410483" lon="14.827265"><ele>195.39999999999998</ele><time>2026-03-29T10:15:45.76Z</time></trkpt><trkpt lat="38.1411217" lon="14.8271733"><ele>196.2</ele><time>2026-03-29T10:15:47.76Z</time></trkpt><trkpt lat="38.141225" lon="14.8271933"><ele>197.0</ele><time>2026-03-29T10:15:49.76Z</time></trkpt><trkpt lat="38.1413367" lon="14.8272583"><ele>197.00000000000003</ele><time>2026-03-29T10:15:51.759Z</time></trkpt><trkpt lat="38.1414217" lon="14.8272483"><ele>197.0</ele><time>2026-03-29T10:15:52.76Z</time></trkpt><trkpt lat="38.14149" lon="14.8272083"><ele>197.0</ele><time>2026-03-29T10:15:53.76Z</time></trkpt><trkpt lat="38.1415283" lon="14.8271433"><ele>197.0</ele><time>2026-03-29T10:15:54.76Z</time></trkpt><trkpt lat="38.1415467" lon="14.8270667"><ele>197.00000000000003</ele><time>2026-03-29T10:15:55.759Z</time></trkpt><trkpt lat="38.14155" lon="14.8269617"><ele>197.0</ele><time>2026-03-29T10:15:56.76Z</time></trkpt><trkpt lat="38.1415483" lon="14.82683"><ele>199.6</ele><time>2026-03-29T10:15:57.76Z</time></trkpt><trkpt lat="38.1415567" lon="14.8267033"><ele>202.2</ele><time>2026-03-29T10:15:58.759Z</time></trkpt><trkpt lat="38.1415717" lon="14.8266017"><ele>204.8</ele><time>2026-03-29T10:15:59.76Z</time></trkpt><trkpt lat="38.1416017" lon="14.8264717"><ele>207.4</ele><time>2026-03-29T10:16:01.76Z</time></trkpt><trkpt lat="38.14162" lon="14.826345"><ele>210.0</ele><time>2026-03-29T10:16:03.76Z</time></trkpt><trkpt lat="38.1416583" lon="14.82622"><ele>210.0</ele><time>2026-03-29T10:16:05.759Z</time></trkpt><trkpt lat="38.141715" lon="14.826145"><ele>210.0</ele><time>2026-03-29T10:16:07.76Z</time></trkpt><trkpt lat="38.1417867" lon="14.826115"><ele>210.0</ele><time>2026-03-29T10:16:09.76Z</time></trkpt><trkpt lat="38.1418117" lon="14.826035"><ele>210.0</ele><time>2026-03-29T10:16:12.76Z</time></trkpt><trkpt lat="38.1417733" lon="14.8261067"><ele>210.0</ele><time>2026-03-29T10:16:33.76Z</time></trkpt><trkpt lat="38.1416933" lon="14.8261583"><ele>210.0</ele><time>2026-03-29T10:16:35.759Z</time></trkpt><trkpt lat="38.1416467" lon="14.8262617"><ele>210.0</ele><time>2026-03-29T10:16:37.76Z</time></trkpt><trkpt lat="38.1416233" lon="14.82634"><ele>210.0</ele><time>2026-03-29T10:16:38.76Z</time></trkpt><trkpt lat="38.1415883" lon="14.82649"><ele>210.0</ele><time>2026-03-29T10:16:40.759Z</time></trkpt><trkpt lat="38.1415683" lon="14.8266167"><ele>210.0</ele><time>2026-03-29T10:16:42.759Z</time></trkpt><trkpt lat="38.141535" lon="14.8267467"><ele>210.0</ele><time>2026-03-29T10:16:44.759Z</time></trkpt><trkpt lat="38.1415217" lon="14.82688"><ele>207.4</ele><time>2026-03-29T10:16:46.76Z</time></trkpt><trkpt lat="38.1415133" lon="14.8270083"><ele>204.8</ele><time>2026-03-29T10:16:48.759Z</time></trkpt><trkpt lat="38.1415" lon="14.8271317"><ele>202.2</ele><time>2026-03-29T10:16:50.76Z</time></trkpt><trkpt lat="38.1414433" lon="14.8272267"><ele>199.6</ele><time>2026-03-29T10:16:52.759Z</time></trkpt><trkpt lat="38.14134" lon="14.8272567"><ele>197.0</ele><time>2026-03-29T10:16:54.76Z</time></trkpt><trkpt lat="38.1412267" lon="14.82725"><ele>197.00000000000003</ele><time>2026-03-29T10:16:56.76Z</time></trkpt><trkpt lat="38.1411583" lon="14.827225"><ele>197.0</ele><time>2026-03-29T10:16:58.76Z</time></trkpt><trkpt lat="38.141105" lon="14.8271667"><ele>197.0</ele><time>2026-03-29T10:17:01.759Z</time></trkpt><trkpt lat="38.1411783" lon="14.8272283"><ele>197.0</ele><time>2026-03-29T10:17:07.76Z</time></trkpt><trkpt lat="38.14129" lon="14.827265"><ele>197.00000000000003</ele><time>2026-03-29T10:17:09.759Z</time></trkpt><trkpt lat="38.1413583" lon="14.827275"><ele>197.0</ele><time>2026-03-29T10:17:10.759Z</time></trkpt><trkpt lat="38.1414317" lon="14.827205"><ele>197.00000000000003</ele><time>2026-03-29T10:17:12.759Z</time></trkpt><trkpt lat="38.1414117" lon="14.82705"><ele>197.0</ele><time>2026-03-29T10:17:14.76Z</time></trkpt><trkpt lat="38.1413833" lon="14.82697"><ele>197.0</ele><time>2026-03-29T10:17:15.759Z</time></trkpt><trkpt lat="38.1413683" lon="14.82688"><ele>197.0</ele><time>2026-03-29T10:17:16.759Z</time></trkpt><trkpt lat="38.1413767" lon="14.8267783"><ele>197.00000000000003</ele><time>2026-03-29T10:17:17.759Z</time></trkpt><trkpt lat="38.1413817" lon="14.8266817"><ele>197.0</ele><time>2026-03-29T10:17:18.76Z</time></trkpt><trkpt lat="38.14139" lon="14.826595"><ele>195.16666666666669</ele><time>2026-03-29T10:17:19.759Z</time></trkpt><trkpt lat="38.141395" lon="14.82646"><ele>193.33333333333334</ele><time>2026-03-29T10:17:21.76Z</time></trkpt><trkpt lat="38.1414067" lon="14.8263467"><ele>191.5</ele><time>2026-03-29T10:17:23.76Z</time></trkpt><trkpt lat="38.1414083" lon="14.826255"><ele>189.66666666666669</ele><time>2026-03-29T10:17:24.76Z</time></trkpt><trkpt lat="38.1414117" lon="14.82616"><ele>187.83333333333334</ele><time>2026-03-29T10:17:25.759Z</time></trkpt><trkpt lat="38.1414017" lon="14.8260633"><ele>186.0</ele><time>2026-03-29T10:17:26.76Z</time></trkpt><trkpt lat="38.1414083" lon="14.82598"><ele>183.66666666666666</ele><time>2026-03-29T10:17:27.76Z</time></trkpt><trkpt lat="38.1414417" lon="14.825835"><ele>181.33333333333334</ele><time>2026-03-29T10:17:29.76Z</time></trkpt><trkpt lat="38.1414483" lon="14.825685"><ele>179.0</ele><time>2026-03-29T10:17:31.76Z</time></trkpt><trkpt lat="38.1414383" lon="14.8256017"><ele>176.66666666666669</ele><time>2026-03-29T10:17:32.76Z</time></trkpt><trkpt lat="38.14143" lon="14.8255083"><ele>174.33333333333334</ele><time>2026-03-29T10:17:33.76Z</time></trkpt><trkpt lat="38.1414267" lon="14.8254217"><ele>172.0</ele><time>2026-03-29T10:17:34.759Z</time></trkpt><trkpt lat="38.141435" lon="14.8253417"><ele>172.0</ele><time>2026-03-29T10:17:35.76Z</time></trkpt><trkpt lat="38.1414567" lon="14.825235"><ele>172.0</ele><time>2026-03-29T10:17:37.76Z</time></trkpt><trkpt lat="38.1415083" lon="14.82515"><ele>172.0</ele><time>2026-03-29T10:17:39.76Z</time></trkpt><trkpt lat="38.141585" lon="14.82506"><ele>172.0</ele><time>2026-03-29T10:17:41.76Z</time></trkpt><trkpt lat="38.141665" lon="14.8249667"><ele>172.0</ele><time>2026-03-29T10:17:43.759Z</time></trkpt><trkpt lat="38.1417233" lon="14.82486"><ele>174.2</ele><time>2026-03-29T10:17:45.76Z</time></trkpt><trkpt lat="38.141765" lon="14.82476"><ele>176.39999999999998</ele><time>2026-03-29T10:17:47.76Z</time></trkpt><trkpt lat="38.1418533" lon="14.8246917"><ele>178.60000000000002</ele><time>2026-03-29T10:17:49.76Z</time></trkpt><trkpt lat="38.1419483" lon="14.82463"><ele>180.8</ele><time>2026-03-29T10:17:51.759Z</time></trkpt><trkpt lat="38.1420483" lon="14.824565"><ele>183.0</ele><time>2026-03-29T10:17:53.76Z</time></trkpt><trkpt lat="38.14213" lon="14.824505"><ele>183.0</ele><time>2026-03-29T10:17:55.759Z</time></trkpt><trkpt lat="38.1422067" lon="14.8244833"><ele>183.0</ele><time>2026-03-29T10:17:57.76Z</time></trkpt><trkpt lat="38.1422883" lon="14.8244667"><ele>183.0</ele><time>2026-03-29T10:17:59.759Z</time></trkpt><trkpt lat="38.142375" lon="14.8244383"><ele>183.0</ele><time>2026-03-29T10:18:01.76Z</time></trkpt><trkpt lat="38.1424683" lon="14.8244017"><ele>183.0</ele><time>2026-03-29T10:18:03.759Z</time></trkpt><trkpt lat="38.142545" lon="14.8244"><ele>183.0</ele><time>2026-03-29T10:18:05.759Z</time></trkpt><trkpt lat="38.1425733" lon="14.8244867"><ele>181.2</ele><time>2026-03-29T10:18:08.76Z</time></trkpt><trkpt lat="38.1425367" lon="14.8246183"><ele>179.4</ele><time>2026-03-29T10:18:11.761Z</time></trkpt><trkpt lat="38.1425183" lon="14.824705"><ele>177.6</ele><time>2026-03-29T10:18:12.761Z</time></trkpt><trkpt lat="38.142505" lon="14.824845"><ele>175.79999999999998</ele><time>2026-03-29T10:18:13.761Z</time></trkpt><trkpt lat="38.1425067" lon="14.8250167"><ele>174.0</ele><time>2026-03-29T10:18:14.761Z</time></trkpt><trkpt lat="38.142525" lon="14.8252267"><ele>174.0</ele><time>2026-03-29T10:18:15.761Z</time></trkpt><trkpt lat="38.1425533" lon="14.8254217"><ele>174.0</ele><time>2026-03-29T10:18:16.761Z</time></trkpt><trkpt lat="38.1425833" lon="14.8255983"><ele>174.0</ele><time>2026-03-29T10:18:17.761Z</time></trkpt><trkpt lat="38.142615" lon="14.8257667"><ele>174.0</ele><time>2026-03-29T10:18:18.76Z</time></trkpt><trkpt lat="38.1426433" lon="14.82592"><ele>175.75</ele><time>2026-03-29T10:18:19.761Z</time></trkpt><trkpt lat="38.1426783" lon="14.8260533"><ele>177.5</ele><time>2026-03-29T10:18:20.761Z</time></trkpt><trkpt lat="38.142725" lon="14.8261917"><ele>179.25</ele><time>2026-03-29T10:18:21.761Z</time></trkpt><trkpt lat="38.1427733" lon="14.82634"><ele>181.0</ele><time>2026-03-29T10:18:22.761Z</time></trkpt><trkpt lat="38.1428117" lon="14.8264933"><ele>181.0</ele><time>2026-03-29T10:18:23.761Z</time></trkpt><trkpt lat="38.1428567" lon="14.8266633"><ele>181.0</ele><time>2026-03-29T10:18:24.761Z</time></trkpt><trkpt lat="38.14291" lon="14.8268167"><ele>181.0</ele><time>2026-03-29T10:18:25.761Z</time></trkpt><trkpt lat="38.1429567" lon="14.82696"><ele>181.0</ele><time>2026-03-29T10:18:26.76Z</time></trkpt><trkpt lat="38.1429867" lon="14.8270983"><ele>180.66666666666669</ele><time>2026-03-29T10:18:27.761Z</time></trkpt><trkpt lat="38.1430133" lon="14.82722"><ele>180.33333333333334</ele><time>2026-03-29T10:18:28.761Z</time></trkpt><trkpt lat="38.1430317" lon="14.82732"><ele>180.0</ele><time>2026-03-29T10:18:29.761Z</time></trkpt><trkpt lat="38.1430333" lon="14.8274067"><ele>179.66666666666666</ele><time>2026-03-29T10:18:30.76Z</time></trkpt><trkpt lat="38.143015" lon="14.827485"><ele>179.33333333333331</ele><time>2026-03-29T10:18:31.76Z</time></trkpt><trkpt lat="38.142975" lon="14.8275667"><ele>179.0</ele><time>2026-03-29T10:18:32.76Z</time></trkpt><trkpt lat="38.1429283" lon="14.82765"><ele>176.6</ele><time>2026-03-29T10:18:33.761Z</time></trkpt><trkpt lat="38.1428767" lon="14.8277233"><ele>174.2</ele><time>2026-03-29T10:18:34.76Z</time></trkpt><trkpt lat="38.142825" lon="14.827775"><ele>171.79999999999998</ele><time>2026-03-29T10:18:35.761Z</time></trkpt><trkpt lat="38.1426967" lon="14.8278467"><ele>169.39999999999998</ele><time>2026-03-29T10:18:37.761Z</time></trkpt><trkpt lat="38.1426217" lon="14.8278867"><ele>167.0</ele><time>2026-03-29T10:18:38.761Z</time></trkpt><trkpt lat="38.1425417" lon="14.8279367"><ele>167.0</ele><time>2026-03-29T10:18:39.76Z</time></trkpt><trkpt lat="38.1424683" lon="14.8279983"><ele>167.0</ele><time>2026-03-29T10:18:40.761Z</time></trkpt><trkpt lat="38.1424117" lon="14.8280717"><ele>167.0</ele><time>2026-03-29T10:18:41.76Z</time></trkpt><trkpt lat="38.142365" lon="14.82814"><ele>167.0</ele><time>2026-03-29T10:18:42.761Z</time></trkpt><trkpt lat="38.1423333" lon="14.8282133"><ele>167.0</ele><time>2026-03-29T10:18:43.761Z</time></trkpt><trkpt lat="38.1422933" lon="14.82828"><ele>167.0</ele><time>2026-03-29T10:18:44.761Z</time></trkpt><trkpt lat="38.1421917" lon="14.8283767"><ele>167.8</ele><time>2026-03-29T10:18:46.761Z</time></trkpt><trkpt lat="38.1421133" lon="14.8284233"><ele>168.6</ele><time>2026-03-29T10:18:47.761Z</time></trkpt><trkpt lat="38.14202" lon="14.8284717"><ele>169.4</ele><time>2026-03-29T10:18:48.76Z</time></trkpt><trkpt lat="38.14193" lon="14.8285033"><ele>170.20000000000002</ele><time>2026-03-29T10:18:49.76Z</time></trkpt><trkpt lat="38.1418467" lon="14.828545"><ele>171.0</ele><time>2026-03-29T10:18:50.761Z</time></trkpt><trkpt lat="38.14177" lon="14.8285983"><ele>171.0</ele><time>2026-03-29T10:18:51.76Z</time></trkpt><trkpt lat="38.1417067" lon="14.8286767"><ele>171.0</ele><time>2026-03-29T10:18:52.761Z</time></trkpt><trkpt lat="38.1416367" lon="14.8287717"><ele>171.0</ele><time>2026-03-29T10:18:53.761Z</time></trkpt><trkpt lat="38.14157" lon="14.828865"><ele>171.0</ele><time>2026-03-29T10:18:54.761Z</time></trkpt><trkpt lat="38.1415033" lon="14.82897"><ele>171.0</ele><time>2026-03-29T10:18:55.761Z</time></trkpt><trkpt lat="38.1414417" lon="14.8290367"><ele>171.0</ele><time>2026-03-29T10:18:56.761Z</time></trkpt><trkpt lat="38.1413783" lon="14.8290567"><ele>171.0</ele><time>2026-03-29T10:18:58.76Z</time></trkpt><trkpt lat="38.14146" lon="14.8289583"><ele>171.0</ele><time>2026-03-29T10:19:02.76Z</time></trkpt><trkpt lat="38.1415433" lon="14.8288133"><ele>171.0</ele><time>2026-03-29T10:19:04.76Z</time></trkpt><trkpt lat="38.1415733" lon="14.8286917"><ele>171.0</ele><time>2026-03-29T10:19:05.76Z</time></trkpt><trkpt lat="38.1415817" lon="14.8285583"><ele>173.0</ele><time>2026-03-29T10:19:06.761Z</time></trkpt><trkpt lat="38.1415883" lon="14.8284583"><ele>175.0</ele><time>2026-03-29T10:19:07.76Z</time></trkpt><trkpt lat="38.1416233" lon="14.82838"><ele>177.0</ele><time>2026-03-29T10:19:08.761Z</time></trkpt><trkpt lat="38.1416933" lon="14.8283517"><ele>179.0</ele><time>2026-03-29T10:19:09.761Z</time></trkpt><trkpt lat="38.1417983" lon="14.8283433"><ele>181.0</ele><time>2026-03-29T10:19:10.76Z</time></trkpt><trkpt lat="38.1418933" lon="14.8283167"><ele>183.0</ele><time>2026-03-29T10:19:11.761Z</time></trkpt><trkpt lat="38.1419817" lon="14.8282367"><ele>183.0</ele><time>2026-03-29T10:19:12.761Z</time></trkpt><trkpt lat="38.142045" lon="14.82814"><ele>183.0</ele><time>2026-03-29T10:19:13.761Z</time></trkpt><trkpt lat="38.142075" lon="14.82805"><ele>183.0</ele><time>2026-03-29T10:19:14.76Z</time></trkpt><trkpt lat="38.1420683" lon="14.82797"><ele>183.0</ele><time>2026-03-29T10:19:16.761Z</time></trkpt><trkpt lat="38.1419832" lon="14.8280267"><ele>183.0</ele><time>2026-03-29T10:19:36.76Z</time></trkpt><trkpt lat="38.1418589" lon="14.8281086"><ele>183.0</ele><time>2026-03-29T10:19:38.76Z</time></trkpt><trkpt lat="38.1417717" lon="14.8281434"><ele>183.0</ele><time>2026-03-29T10:19:39.761Z</time></trkpt><trkpt lat="38.1416694" lon="14.8281596"><ele>183.0</ele><time>2026-03-29T10:19:40.761Z</time></trkpt><trkpt lat="38.1415575" lon="14.8281497"><ele>183.0</ele><time>2026-03-29T10:19:41.761Z</time></trkpt><trkpt lat="38.141439" lon="14.8281202"><ele>183.0</ele><time>2026-03-29T10:19:42.761Z</time></trkpt><trkpt lat="38.1413267" lon="14.8280831"><ele>185.0</ele><time>2026-03-29T10:19:43.761Z</time></trkpt><trkpt lat="38.1412181" lon="14.8280425"><ele>187.0</ele><time>2026-03-29T10:19:44.761Z</time></trkpt><trkpt lat="38.1411198" lon="14.8280001"><ele>189.0</ele><time>2026-03-29T10:19:45.761Z</time></trkpt><trkpt lat="38.1410335" lon="14.8279775"><ele>191.0</ele><time>2026-03-29T10:19:46.761Z</time></trkpt><trkpt lat="38.1409653" lon="14.8279772"><ele>193.0</ele><time>2026-03-29T10:19:47.76Z</time></trkpt><trkpt lat="38.140874" lon="14.8279837"><ele>193.0</ele><time>2026-03-29T10:19:49.761Z</time></trkpt><trkpt lat="38.1408352" lon="14.8278969"><ele>193.0</ele><time>2026-03-29T10:19:52.761Z</time></trkpt><trkpt lat="38.1408872" lon="14.8277313"><ele>193.0</ele><time>2026-03-29T10:19:54.76Z</time></trkpt><trkpt lat="38.1409297" lon="14.8276083"><ele>193.0</ele><time>2026-03-29T10:19:55.761Z</time></trkpt><trkpt lat="38.1409752" lon="14.8274779"><ele>193.0</ele><time>2026-03-29T10:19:56.761Z</time></trkpt><trkpt lat="38.1410147" lon="14.827361"><ele>193.66666666666666</ele><time>2026-03-29T10:19:57.761Z</time></trkpt><trkpt lat="38.141054" lon="14.8272714"><ele>194.33333333333331</ele><time>2026-03-29T10:19:58.761Z</time></trkpt><trkpt lat="38.1410991" lon="14.8272114"><ele>195.0</ele><time>2026-03-29T10:19:59.761Z</time></trkpt><trkpt lat="38.1411724" lon="14.8271603"><ele>195.66666666666669</ele><time>2026-03-29T10:20:01.76Z</time></trkpt><trkpt lat="38.141254" lon="14.827227"><ele>196.33333333333334</ele><time>2026-03-29T10:20:03.761Z</time></trkpt><trkpt lat="38.1413621" lon="14.8272625"><ele>197.0</ele><time>2026-03-29T10:20:05.761Z</time></trkpt><trkpt lat="38.1414326" lon="14.8271788"><ele>197.00000000000003</ele><time>2026-03-29T10:20:07.761Z</time></trkpt><trkpt lat="38.1414315" lon="14.827093"><ele>197.0</ele><time>2026-03-29T10:20:08.76Z</time></trkpt><trkpt lat="38.1414089" lon="14.8269846"><ele>197.0</ele><time>2026-03-29T10:20:09.761Z</time></trkpt><trkpt lat="38.1413909" lon="14.826871"><ele>197.0</ele><time>2026-03-29T10:20:10.761Z</time></trkpt><trkpt lat="38.141387" lon="14.8267548"><ele>197.00000000000003</ele><time>2026-03-29T10:20:11.761Z</time></trkpt><trkpt lat="38.1413879" lon="14.8266524"><ele>197.0</ele><time>2026-03-29T10:20:12.76Z</time></trkpt><trkpt lat="38.1413846" lon="14.8265632"><ele>194.25</ele><time>2026-03-29T10:20:13.761Z</time></trkpt><trkpt lat="38.1413863" lon="14.8264127"><ele>191.5</ele><time>2026-03-29T10:20:15.761Z</time></trkpt><trkpt lat="38.1413975" lon="14.8262702"><ele>188.75</ele><time>2026-03-29T10:20:17.761Z</time></trkpt><trkpt lat="38.1414096" lon="14.8261256"><ele>186.0</ele><time>2026-03-29T10:20:19.761Z</time></trkpt><trkpt lat="38.1414062" lon="14.8259668"><ele>183.66666666666666</ele><time>2026-03-29T10:20:21.761Z</time></trkpt><trkpt lat="38.141422" lon="14.8258837"><ele>181.33333333333334</ele><time>2026-03-29T10:20:22.761Z</time></trkpt><trkpt lat="38.1414435" lon="14.8258031"><ele>179.0</ele><time>2026-03-29T10:20:23.761Z</time></trkpt><trkpt lat="38.1414643" lon="14.8256477"><ele>176.66666666666669</ele><time>2026-03-29T10:20:25.761Z</time></trkpt><trkpt lat="38.1414539" lon="14.8255557"><ele>174.33333333333334</ele><time>2026-03-29T10:20:26.761Z</time></trkpt><trkpt lat="38.1414485" lon="14.8254575"><ele>172.0</ele><time>2026-03-29T10:20:27.761Z</time></trkpt><trkpt lat="38.1414464" lon="14.8253629"><ele>172.0</ele><time>2026-03-29T10:20:28.76Z</time></trkpt><trkpt lat="38.1414658" lon="14.8252273"><ele>172.0</ele><time>2026-03-29T10:20:30.761Z</time></trkpt><trkpt lat="38.141522" lon="14.8251182"><ele>172.0</ele><time>2026-03-29T10:20:32.761Z</time></trkpt><trkpt lat="38.1416032" lon="14.8250307"><ele>172.0</ele><time>2026-03-29T10:20:34.761Z</time></trkpt><trkpt lat="38.1416806" lon="14.8249444"><ele>172.0</ele><time>2026-03-29T10:20:36.761Z</time></trkpt><trkpt lat="38.1417333" lon="14.82484"><ele>174.2</ele><time>2026-03-29T10:20:38.761Z</time></trkpt><trkpt lat="38.141785" lon="14.8247483"><ele>176.39999999999998</ele><time>2026-03-29T10:20:40.76Z</time></trkpt><trkpt lat="38.1418717" lon="14.8246783"><ele>178.60000000000002</ele><time>2026-03-29T10:20:42.761Z</time></trkpt><trkpt lat="38.1419767" lon="14.8246083"><ele>180.8</ele><time>2026-03-29T10:20:44.76Z</time></trkpt><trkpt lat="38.1420317" lon="14.8245667"><ele>183.0</ele><time>2026-03-29T10:20:45.761Z</time></trkpt><trkpt lat="38.1421217" lon="14.8245117"><ele>183.0</ele><time>2026-03-29T10:20:47.76Z</time></trkpt><trkpt lat="38.142195" lon="14.82448"><ele>183.0</ele><time>2026-03-29T10:20:49.76Z</time></trkpt><trkpt lat="38.14226" lon="14.8244717"><ele>183.0</ele><time>2026-03-29T10:20:51.761Z</time></trkpt><trkpt lat="38.1423317" lon="14.8244483"><ele>183.0</ele><time>2026-03-29T10:20:54.761Z</time></trkpt><trkpt lat="38.1424033" lon="14.824435"><ele>183.0</ele><time>2026-03-29T10:20:57.761Z</time></trkpt><trkpt lat="38.1424633" lon="14.8244067"><ele>183.0</ele><time>2026-03-29T10:21:00.76Z</time></trkpt><trkpt lat="38.14253" lon="14.824385"><ele>183.0</ele><time>2026-03-29T10:21:03.761Z</time></trkpt><trkpt lat="38.1426083" lon="14.8244183"><ele>180.33333333333334</ele><time>2026-03-29T10:21:05.761Z</time></trkpt><trkpt lat="38.1425517" lon="14.82436"><ele>177.66666666666666</ele><time>2026-03-29T10:21:10.761Z</time></trkpt><trkpt lat="38.1424833" lon="14.8243617"><ele>175.0</ele><time>2026-03-29T10:21:11.761Z</time></trkpt><trkpt lat="38.1424183" lon="14.8243567"><ele>172.33333333333331</ele><time>2026-03-29T10:21:12.761Z</time></trkpt><trkpt lat="38.142305" lon="14.8243083"><ele>169.66666666666666</ele><time>2026-03-29T10:21:14.761Z</time></trkpt><trkpt lat="38.1422" lon="14.8242733"><ele>167.0</ele><time>2026-03-29T10:21:16.76Z</time></trkpt><trkpt lat="38.1420867" lon="14.8242817"><ele>170.2</ele><time>2026-03-29T10:21:18.761Z</time></trkpt><trkpt lat="38.1420217" lon="14.82429"><ele>173.39999999999998</ele><time>2026-03-29T10:21:19.761Z</time></trkpt><trkpt lat="38.1419133" lon="14.8242833"><ele>176.60000000000002</ele><time>2026-03-29T10:21:21.76Z</time></trkpt><trkpt lat="38.1417933" lon="14.82428"><ele>179.8</ele><time>2026-03-29T10:21:23.761Z</time></trkpt><trkpt lat="38.141685" lon="14.8242867"><ele>183.0</ele><time>2026-03-29T10:21:25.761Z</time></trkpt><trkpt lat="38.1416" lon="14.8243133"><ele>178.0</ele><time>2026-03-29T10:21:27.761Z</time></trkpt><trkpt lat="38.1414967" lon="14.8243483"><ele>173.0</ele><time>2026-03-29T10:21:29.761Z</time></trkpt><trkpt lat="38.141405" lon="14.8244033"><ele>168.0</ele><time>2026-03-29T10:21:31.761Z</time></trkpt><trkpt lat="38.14132" lon="14.8244317"><ele>163.0</ele><time>2026-03-29T10:21:33.761Z</time></trkpt><trkpt lat="38.14122" lon="14.8244683"><ele>158.0</ele><time>2026-03-29T10:21:35.761Z</time></trkpt><trkpt lat="38.1411283" lon="14.8244867"><ele>158.0</ele><time>2026-03-29T10:21:37.76Z</time></trkpt><trkpt lat="38.1410417" lon="14.8244917"><ele>158.0</ele><time>2026-03-29T10:21:40.76Z</time></trkpt><trkpt lat="38.1409683" lon="14.8244767"><ele>158.0</ele><time>2026-03-29T10:21:42.76Z</time></trkpt><trkpt lat="38.1408867" lon="14.8244683"><ele>158.0</ele><time>2026-03-29T10:21:45.761Z</time></trkpt><trkpt lat="38.140805" lon="14.82449"><ele>158.0</ele><time>2026-03-29T10:21:49.761Z</time></trkpt><trkpt lat="38.1407433" lon="14.824515"><ele>158.0</ele><time>2026-03-29T10:21:51.761Z</time></trkpt><trkpt lat="38.1406633" lon="14.8245617"><ele>154.00000000000003</ele><time>2026-03-29T10:21:54.761Z</time></trkpt><trkpt lat="38.1405967" lon="14.8246067"><ele>150.0</ele><time>2026-03-29T10:21:56.76Z</time></trkpt><trkpt lat="38.1405367" lon="14.82465"><ele>146.0</ele><time>2026-03-29T10:21:58.761Z</time></trkpt><trkpt lat="38.140485" lon="14.8247"><ele>142.0</ele><time>2026-03-29T10:22:00.761Z</time></trkpt><trkpt lat="38.140425" lon="14.8247483"><ele>138.0</ele><time>2026-03-29T10:22:02.761Z</time></trkpt><trkpt lat="38.1404383" lon="14.8246683"><ele>134.00000000000003</ele><time>2026-03-29T10:22:08.761Z</time></trkpt><trkpt lat="38.140485" lon="14.8245867"><ele>130.0</ele><time>2026-03-29T10:22:11.761Z</time></trkpt><trkpt lat="38.1405117" lon="14.8245017"><ele>130.0</ele><time>2026-03-29T10:22:15.761Z</time></trkpt><trkpt lat="38.1405517" lon="14.824415"><ele>130.0</ele><time>2026-03-29T10:22:17.761Z</time></trkpt><trkpt lat="38.1405967" lon="14.8243167"><ele>130.0</ele><time>2026-03-29T10:22:19.761Z</time></trkpt><trkpt lat="38.1406217" lon="14.82419"><ele>130.0</ele><time>2026-03-29T10:22:21.761Z</time></trkpt><trkpt lat="38.140635" lon="14.8240883"><ele>130.0</ele><time>2026-03-29T10:22:23.761Z</time></trkpt><trkpt lat="38.14065" lon="14.8239917"><ele>130.0</ele><time>2026-03-29T10:22:25.76Z</time></trkpt><trkpt lat="38.1406583" lon="14.8239017"><ele>130.0</ele><time>2026-03-29T10:22:27.76Z</time></trkpt><trkpt lat="38.1406983" lon="14.8238117"><ele>130.0</ele><time>2026-03-29T10:22:31.76Z</time></trkpt><trkpt lat="38.1407683" lon="14.8237783"><ele>130.0</ele><time>2026-03-29T10:22:35.761Z</time></trkpt><trkpt lat="38.1408383" lon="14.823785"><ele>130.0</ele><time>2026-03-29T10:22:37.76Z</time></trkpt><trkpt lat="38.1409017" lon="14.8238217"><ele>130.0</ele><time>2026-03-29T10:22:39.76Z</time></trkpt><trkpt lat="38.140975" lon="14.8238017"><ele>130.0</ele><time>2026-03-29T10:22:41.761Z</time></trkpt><trkpt lat="38.1410617" lon="14.8237567"><ele>130.0</ele><time>2026-03-29T10:22:43.761Z</time></trkpt><trkpt lat="38.1409583" lon="14.8237933"><ele>130.0</ele><time>2026-03-29T10:23:02.761Z</time></trkpt><trkpt lat="38.140865" lon="14.8237717"><ele>130.0</ele><time>2026-03-29T10:23:04.762Z</time></trkpt><trkpt lat="38.1407833" lon="14.8237367"><ele>130.0</ele><time>2026-03-29T10:23:06.761Z</time></trkpt><trkpt lat="38.1406917" lon="14.82373"><ele>130.0</ele><time>2026-03-29T10:23:09.762Z</time></trkpt><trkpt lat="38.1406133" lon="14.823745"><ele>127.66666666666667</ele><time>2026-03-29T10:23:11.762Z</time></trkpt><trkpt lat="38.14054" lon="14.8237267"><ele>125.33333333333334</ele><time>2026-03-29T10:23:15.762Z</time></trkpt><trkpt lat="38.1405333" lon="14.823645"><ele>123.0</ele><time>2026-03-29T10:23:17.762Z</time></trkpt><trkpt lat="38.14055" lon="14.8235383"><ele>120.66666666666666</ele><time>2026-03-29T10:23:20.762Z</time></trkpt><trkpt lat="38.14061" lon="14.8234733"><ele>118.33333333333333</ele><time>2026-03-29T10:23:23.762Z</time></trkpt><trkpt lat="38.1406848" lon="14.8234431"><ele>116.0</ele><time>2026-03-29T10:23:25.762Z</time></trkpt><trkpt lat="38.1407527" lon="14.8234019"><ele>114.00000000000001</ele><time>2026-03-29T10:23:27.762Z</time></trkpt><trkpt lat="38.1408194" lon="14.8233769"><ele>112.0</ele><time>2026-03-29T10:23:29.761Z</time></trkpt><trkpt lat="38.140888" lon="14.8233308"><ele>110.0</ele><time>2026-03-29T10:23:32.762Z</time></trkpt><trkpt lat="38.1408155" lon="14.8232634"><ele>108.0</ele><time>2026-03-29T10:23:36.762Z</time></trkpt><trkpt lat="38.140745" lon="14.8232442"><ele>106.0</ele><time>2026-03-29T10:23:38.762Z</time></trkpt><trkpt lat="38.1406816" lon="14.8232824"><ele>104.0</ele><time>2026-03-29T10:23:40.762Z</time></trkpt><trkpt lat="38.1407" lon="14.8231983"><ele>102.0</ele><time>2026-03-29T10:23:46.762Z</time></trkpt><trkpt lat="38.14077" lon="14.8231467"><ele>102.0</ele><time>2026-03-29T10:23:48.761Z</time></trkpt><trkpt lat="38.1406883" lon="14.8231383"><ele>102.0</ele><time>2026-03-29T10:23:53.762Z</time></trkpt><trkpt lat="38.1406167" lon="14.82317"><ele>102.0</ele><time>2026-03-29T10:23:55.761Z</time></trkpt><trkpt lat="38.140555" lon="14.8231967"><ele>102.0</ele><time>2026-03-29T10:23:57.761Z</time></trkpt><trkpt lat="38.1404733" lon="14.8232483"><ele>102.0</ele><time>2026-03-29T10:24:00.762Z</time></trkpt><trkpt lat="38.14042" lon="14.8233233"><ele>102.0</ele><time>2026-03-29T10:24:02.762Z</time></trkpt><trkpt lat="38.1403717" lon="14.8233933"><ele>102.0</ele><time>2026-03-29T10:24:04.762Z</time></trkpt><trkpt lat="38.1403167" lon="14.8234433"><ele>102.0</ele><time>2026-03-29T10:24:06.762Z</time></trkpt><trkpt lat="38.1402617" lon="14.8234917"><ele>102.0</ele><time>2026-03-29T10:24:08.762Z</time></trkpt><trkpt lat="38.1402117" lon="14.8235483"><ele>102.0</ele><time>2026-03-29T10:24:11.761Z</time></trkpt><trkpt lat="38.14018" lon="14.8236217"><ele>102.0</ele><time>2026-03-29T10:24:15.762Z</time></trkpt><trkpt lat="38.1401667" lon="14.8235317"><ele>102.0</ele><time>2026-03-29T10:24:27.762Z</time></trkpt><trkpt lat="38.140185" lon="14.82345"><ele>102.0</ele><time>2026-03-29T10:24:29.762Z</time></trkpt><trkpt lat="38.14021" lon="14.82336"><ele>102.0</ele><time>2026-03-29T10:24:31.762Z</time></trkpt><trkpt lat="38.1402433" lon="14.8232717"><ele>102.0</ele><time>2026-03-29T10:24:33.761Z</time></trkpt><trkpt lat="38.1402967" lon="14.8231667"><ele>102.0</ele><time>2026-03-29T10:24:36.761Z</time></trkpt><trkpt lat="38.1403333" lon="14.8230767"><ele>102.0</ele><time>2026-03-29T10:24:38.762Z</time></trkpt><trkpt lat="38.1403733" lon="14.82299"><ele>102.0</ele><time>2026-03-29T10:24:40.762Z</time></trkpt><trkpt lat="38.1403767" lon="14.8228867"><ele>102.0</ele><time>2026-03-29T10:24:43.762Z</time></trkpt><trkpt lat="38.1403633" lon="14.8227883"><ele>102.0</ele><time>2026-03-29T10:24:45.762Z</time></trkpt><trkpt lat="38.1403683" lon="14.822675"><ele>102.0</ele><time>2026-03-29T10:24:48.761Z</time></trkpt><trkpt lat="38.140385" lon="14.8225933"><ele>102.0</ele><time>2026-03-29T10:24:50.762Z</time></trkpt><trkpt lat="38.1404133" lon="14.8224833"><ele>102.0</ele><time>2026-03-29T10:24:53.762Z</time></trkpt><trkpt lat="38.1404017" lon="14.8225667"><ele>102.0</ele><time>2026-03-29T10:25:21.762Z</time></trkpt><trkpt lat="38.1403767" lon="14.8226483"><ele>102.0</ele><time>2026-03-29T10:25:23.761Z</time></trkpt><trkpt lat="38.1403483" lon="14.8227617"><ele>102.0</ele><time>2026-03-29T10:25:25.761Z</time></trkpt><trkpt lat="38.1403567" lon="14.8228883"><ele>102.0</ele><time>2026-03-29T10:25:27.762Z</time></trkpt><trkpt lat="38.1403667" lon="14.8229767"><ele>102.0</ele><time>2026-03-29T10:25:29.761Z</time></trkpt><trkpt lat="38.1403417" lon="14.8230783"><ele>102.0</ele><time>2026-03-29T10:25:31.761Z</time></trkpt><trkpt lat="38.1403017" lon="14.8231833"><ele>102.0</ele><time>2026-03-29T10:25:33.762Z</time></trkpt><trkpt lat="38.140265" lon="14.82329"><ele>102.0</ele><time>2026-03-29T10:25:35.761Z</time></trkpt><trkpt lat="38.1402333" lon="14.82341"><ele>102.0</ele><time>2026-03-29T10:25:37.762Z</time></trkpt><trkpt lat="38.1402017" lon="14.82353"><ele>102.0</ele><time>2026-03-29T10:25:39.762Z</time></trkpt><trkpt lat="38.1401783" lon="14.8236167"><ele>102.0</ele><time>2026-03-29T10:25:42.761Z</time></trkpt><trkpt lat="38.1402317" lon="14.8235383"><ele>102.0</ele><time>2026-03-29T10:25:52.762Z</time></trkpt><trkpt lat="38.1403117" lon="14.8234633"><ele>102.0</ele><time>2026-03-29T10:25:54.761Z</time></trkpt><trkpt lat="38.1403683" lon="14.82341"><ele>102.0</ele><time>2026-03-29T10:25:55.761Z</time></trkpt><trkpt lat="38.1404267" lon="14.8233383"><ele>102.0</ele><time>2026-03-29T10:25:56.761Z</time></trkpt><trkpt lat="38.14048" lon="14.8232633"><ele>102.0</ele><time>2026-03-29T10:25:57.762Z</time></trkpt><trkpt lat="38.1405467" lon="14.8232083"><ele>102.0</ele><time>2026-03-29T10:25:58.762Z</time></trkpt><trkpt lat="38.1406167" lon="14.8231683"><ele>102.0</ele><time>2026-03-29T10:25:59.762Z</time></trkpt><trkpt lat="38.14072" lon="14.8231283"><ele>102.0</ele><time>2026-03-29T10:26:01.762Z</time></trkpt><trkpt lat="38.1407883" lon="14.823115"><ele>102.0</ele><time>2026-03-29T10:26:03.762Z</time></trkpt><trkpt lat="38.1407567" lon="14.8232"><ele>102.0</ele><time>2026-03-29T10:26:06.762Z</time></trkpt><trkpt lat="38.14067" lon="14.823275"><ele>102.0</ele><time>2026-03-29T10:26:08.762Z</time></trkpt><trkpt lat="38.140775" lon="14.8232767"><ele>102.0</ele><time>2026-03-29T10:26:19.762Z</time></trkpt><trkpt lat="38.1408667" lon="14.8233067"><ele>102.0</ele><time>2026-03-29T10:26:21.762Z</time></trkpt><trkpt lat="38.1408333" lon="14.8233867"><ele>102.0</ele><time>2026-03-29T10:26:25.762Z</time></trkpt><trkpt lat="38.1407167" lon="14.8234267"><ele>102.0</ele><time>2026-03-29T10:26:27.762Z</time></trkpt><trkpt lat="38.1406567" lon="14.8234583"><ele>102.0</ele><time>2026-03-29T10:26:28.762Z</time></trkpt><trkpt lat="38.1405967" lon="14.8234933"><ele>102.0</ele><time>2026-03-29T10:26:29.761Z</time></trkpt><trkpt lat="38.14054" lon="14.8235883"><ele>102.0</ele><time>2026-03-29T10:26:31.762Z</time></trkpt><trkpt lat="38.1405417" lon="14.8237267"><ele>102.0</ele><time>2026-03-29T10:26:33.761Z</time></trkpt><trkpt lat="38.1405883" lon="14.8237833"><ele>102.0</ele><time>2026-03-29T10:26:35.762Z</time></trkpt><trkpt lat="38.140685" lon="14.8237633"><ele>104.33333333333333</ele><time>2026-03-29T10:26:37.761Z</time></trkpt><trkpt lat="38.140765" lon="14.8237483"><ele>106.66666666666666</ele><time>2026-03-29T10:26:39.762Z</time></trkpt><trkpt lat="38.1407183" lon="14.8238267"><ele>109.0</ele><time>2026-03-29T10:26:42.762Z</time></trkpt><trkpt lat="38.1406767" lon="14.8239433"><ele>111.33333333333333</ele><time>2026-03-29T10:26:44.761Z</time></trkpt><trkpt lat="38.1406567" lon="14.8240233"><ele>113.66666666666666</ele><time>2026-03-29T10:26:45.762Z</time></trkpt><trkpt lat="38.140645" lon="14.8241133"><ele>116.0</ele><time>2026-03-29T10:26:46.762Z</time></trkpt><trkpt lat="38.1406317" lon="14.8242067"><ele>116.00000000000001</ele><time>2026-03-29T10:26:47.761Z</time></trkpt><trkpt lat="38.1406183" lon="14.8242983"><ele>116.0</ele><time>2026-03-29T10:26:48.761Z</time></trkpt><trkpt lat="38.1405917" lon="14.8243733"><ele>116.00000000000001</ele><time>2026-03-29T10:26:49.762Z</time></trkpt><trkpt lat="38.14055" lon="14.8244367"><ele>116.00000000000001</ele><time>2026-03-29T10:26:50.762Z</time></trkpt><trkpt lat="38.1405133" lon="14.8245083"><ele>116.0</ele><time>2026-03-29T10:26:51.762Z</time></trkpt><trkpt lat="38.14048" lon="14.8245767"><ele>116.00000000000001</ele><time>2026-03-29T10:26:52.762Z</time></trkpt><trkpt lat="38.1404267" lon="14.8247067"><ele>116.00000000000001</ele><time>2026-03-29T10:26:54.762Z</time></trkpt><trkpt lat="38.140385" lon="14.824775"><ele>118.8</ele><time>2026-03-29T10:26:56.762Z</time></trkpt><trkpt lat="38.14048" lon="14.8247183"><ele>121.6</ele><time>2026-03-29T10:27:00.761Z</time></trkpt><trkpt lat="38.1405667" lon="14.8246483"><ele>124.4</ele><time>2026-03-29T10:27:02.762Z</time></trkpt><trkpt lat="38.14063" lon="14.8245983"><ele>127.2</ele><time>2026-03-29T10:27:03.761Z</time></trkpt><trkpt lat="38.1407067" lon="14.82456"><ele>130.0</ele><time>2026-03-29T10:27:04.762Z</time></trkpt><trkpt lat="38.1407883" lon="14.82452"><ele>135.6</ele><time>2026-03-29T10:27:05.762Z</time></trkpt><trkpt lat="38.140865" lon="14.8244967"><ele>141.2</ele><time>2026-03-29T10:27:06.761Z</time></trkpt><trkpt lat="38.1409867" lon="14.8244867"><ele>146.8</ele><time>2026-03-29T10:27:08.762Z</time></trkpt><trkpt lat="38.1411" lon="14.824505"><ele>152.4</ele><time>2026-03-29T10:27:10.761Z</time></trkpt><trkpt lat="38.141205" lon="14.8244867"><ele>158.0</ele><time>2026-03-29T10:27:12.761Z</time></trkpt><trkpt lat="38.14127" lon="14.8244617"><ele>158.0</ele><time>2026-03-29T10:27:13.762Z</time></trkpt><trkpt lat="38.1413467" lon="14.8244317"><ele>158.0</ele><time>2026-03-29T10:27:14.761Z</time></trkpt><trkpt lat="38.14143" lon="14.8244083"><ele>158.0</ele><time>2026-03-29T10:27:15.762Z</time></trkpt><trkpt lat="38.141515" lon="14.8243733"><ele>158.0</ele><time>2026-03-29T10:27:16.762Z</time></trkpt><trkpt lat="38.1415933" lon="14.8243333"><ele>158.0</ele><time>2026-03-29T10:27:17.762Z</time></trkpt><trkpt lat="38.1416617" lon="14.824315"><ele>158.0</ele><time>2026-03-29T10:27:18.762Z</time></trkpt><trkpt lat="38.1417283" lon="14.8243033"><ele>156.5</ele><time>2026-03-29T10:27:19.762Z</time></trkpt><trkpt lat="38.1417983" lon="14.8243"><ele>155.0</ele><time>2026-03-29T10:27:20.762Z</time></trkpt><trkpt lat="38.1418633" lon="14.8243"><ele>153.5</ele><time>2026-03-29T10:27:21.762Z</time></trkpt><trkpt lat="38.1419583" lon="14.8242933"><ele>152.0</ele><time>2026-03-29T10:27:23.762Z</time></trkpt><trkpt lat="38.1420917" lon="14.8242767"><ele>150.5</ele><time>2026-03-29T10:27:25.761Z</time></trkpt><trkpt lat="38.1421583" lon="14.8242883"><ele>149.0</ele><time>2026-03-29T10:27:26.762Z</time></trkpt><trkpt lat="38.1422233" lon="14.8242983"><ele>152.0</ele><time>2026-03-29T10:27:27.762Z</time></trkpt><trkpt lat="38.1423367" lon="14.824325"><ele>155.0</ele><time>2026-03-29T10:27:29.762Z</time></trkpt><trkpt lat="38.1424217" lon="14.8243833"><ele>158.0</ele><time>2026-03-29T10:27:31.762Z</time></trkpt><trkpt lat="38.1425083" lon="14.824385"><ele>161.0</ele><time>2026-03-29T10:27:33.762Z</time></trkpt><trkpt lat="38.1425733" lon="14.8244167"><ele>164.0</ele><time>2026-03-29T10:27:35.762Z</time></trkpt><trkpt lat="38.1425833" lon="14.8245017"><ele>167.0</ele><time>2026-03-29T10:27:37.762Z</time></trkpt><trkpt lat="38.1425583" lon="14.8246533"><ele>167.0</ele><time>2026-03-29T10:27:39.761Z</time></trkpt><trkpt lat="38.1425483" lon="14.824755"><ele>167.0</ele><time>2026-03-29T10:27:41.763Z</time></trkpt><trkpt lat="38.1426" lon="14.8246983"><ele>167.0</ele><time>2026-03-29T10:27:45.763Z</time></trkpt><trkpt lat="38.142655" lon="14.8246233"><ele>167.0</ele><time>2026-03-29T10:27:48.762Z</time></trkpt><trkpt lat="38.1427533" lon="14.8245467"><ele>167.0</ele><time>2026-03-29T10:27:58.763Z</time></trkpt><trkpt lat="38.142825" lon="14.8245"><ele>167.0</ele><time>2026-03-29T10:28:03.763Z</time></trkpt><trkpt lat="38.142895" lon="14.8244367"><ele>167.0</ele><time>2026-03-29T10:28:06.763Z</time></trkpt><trkpt lat="38.14293" lon="14.8243333"><ele>167.0</ele><time>2026-03-29T10:28:10.763Z</time></trkpt><trkpt lat="38.14293" lon="14.8242233"><ele>167.0</ele><time>2026-03-29T10:28:13.762Z</time></trkpt><trkpt lat="38.1430033" lon="14.8242383"><ele>167.0</ele><time>2026-03-29T10:28:16.763Z</time></trkpt><trkpt lat="38.143045" lon="14.82434"><ele>167.0</ele><time>2026-03-29T10:28:18.763Z</time></trkpt><trkpt lat="38.1430417" lon="14.824425"><ele>167.0</ele><time>2026-03-29T10:28:19.763Z</time></trkpt><trkpt lat="38.1430317" lon="14.8245233"><ele>167.0</ele><time>2026-03-29T10:28:20.763Z</time></trkpt><trkpt lat="38.1430233" lon="14.8246067"><ele>167.0</ele><time>2026-03-29T10:28:21.763Z</time></trkpt><trkpt lat="38.1429983" lon="14.8247483"><ele>167.0</ele><time>2026-03-29T10:28:23.763Z</time></trkpt><trkpt lat="38.1429833" lon="14.8248567"><ele>167.0</ele><time>2026-03-29T10:28:25.763Z</time></trkpt><trkpt lat="38.1430533" lon="14.824855"><ele>167.0</ele><time>2026-03-29T10:28:29.763Z</time></trkpt><trkpt lat="38.143085" lon="14.8246767"><ele>167.0</ele><time>2026-03-29T10:28:31.762Z</time></trkpt><trkpt lat="38.1431183" lon="14.8245433"><ele>167.0</ele><time>2026-03-29T10:28:32.763Z</time></trkpt><trkpt lat="38.143145" lon="14.8243933"><ele>167.0</ele><time>2026-03-29T10:28:33.763Z</time></trkpt><trkpt lat="38.14316" lon="14.8242567"><ele>167.0</ele><time>2026-03-29T10:28:34.763Z</time></trkpt><trkpt lat="38.1431383" lon="14.824055"><ele>164.66666666666666</ele><time>2026-03-29T10:28:36.762Z</time></trkpt><trkpt lat="38.143105" lon="14.823965"><ele>162.33333333333331</ele><time>2026-03-29T10:28:37.762Z</time></trkpt><trkpt lat="38.1430583" lon="14.823895"><ele>160.0</ele><time>2026-03-29T10:28:38.762Z</time></trkpt><trkpt lat="38.1430017" lon="14.8238467"><ele>157.66666666666666</ele><time>2026-03-29T10:28:39.763Z</time></trkpt><trkpt lat="38.1429317" lon="14.823835"><ele>155.33333333333334</ele><time>2026-03-29T10:28:40.763Z</time></trkpt><trkpt lat="38.142825" lon="14.8238717"><ele>153.0</ele><time>2026-03-29T10:28:42.762Z</time></trkpt><trkpt lat="38.1427533" lon="14.8239"><ele>153.0</ele><time>2026-03-29T10:28:44.763Z</time></trkpt><trkpt lat="38.1428317" lon="14.8238217"><ele>153.0</ele><time>2026-03-29T10:28:47.762Z</time></trkpt><trkpt lat="38.1428967" lon="14.82378"><ele>153.0</ele><time>2026-03-29T10:28:48.762Z</time></trkpt><trkpt lat="38.14296" lon="14.82375"><ele>153.0</ele><time>2026-03-29T10:28:49.763Z</time></trkpt><trkpt lat="38.1430367" lon="14.8237317"><ele>153.0</ele><time>2026-03-29T10:28:50.763Z</time></trkpt><trkpt lat="38.1431167" lon="14.8237233"><ele>153.0</ele><time>2026-03-29T10:28:51.763Z</time></trkpt><trkpt lat="38.1431883" lon="14.8236983"><ele>147.4</ele><time>2026-03-29T10:28:52.762Z</time></trkpt><trkpt lat="38.143285" lon="14.8237117"><ele>141.8</ele><time>2026-03-29T10:28:54.762Z</time></trkpt><trkpt lat="38.143375" lon="14.8238267"><ele>136.2</ele><time>2026-03-29T10:28:56.763Z</time></trkpt><trkpt lat="38.1434033" lon="14.8239317"><ele>130.6</ele><time>2026-03-29T10:28:57.763Z</time></trkpt><trkpt lat="38.143425" lon="14.8240417"><ele>125.0</ele><time>2026-03-29T10:28:58.763Z</time></trkpt><trkpt lat="38.1434467" lon="14.8241467"><ele>124.99999999999999</ele><time>2026-03-29T10:28:59.763Z</time></trkpt><trkpt lat="38.14347" lon="14.824245"><ele>125.0</ele><time>2026-03-29T10:29:00.763Z</time></trkpt><trkpt lat="38.1434883" lon="14.82433"><ele>125.0</ele><time>2026-03-29T10:29:01.763Z</time></trkpt><trkpt lat="38.1435367" lon="14.82446"><ele>125.0</ele><time>2026-03-29T10:29:03.763Z</time></trkpt><trkpt lat="38.1435833" lon="14.82456"><ele>124.99999999999999</ele><time>2026-03-29T10:29:05.763Z</time></trkpt><trkpt lat="38.1436417" lon="14.8246217"><ele>125.0</ele><time>2026-03-29T10:29:07.763Z</time></trkpt><trkpt lat="38.1437017" lon="14.82457"><ele>125.0</ele><time>2026-03-29T10:29:10.763Z</time></trkpt><trkpt lat="38.14368" lon="14.8243883"><ele>125.0</ele><time>2026-03-29T10:29:12.763Z</time></trkpt><trkpt lat="38.1436583" lon="14.8242667"><ele>125.0</ele><time>2026-03-29T10:29:13.762Z</time></trkpt><trkpt lat="38.1436433" lon="14.8241467"><ele>125.0</ele><time>2026-03-29T10:29:14.763Z</time></trkpt><trkpt lat="38.1436367" lon="14.824045"><ele>125.0</ele><time>2026-03-29T10:29:15.762Z</time></trkpt><trkpt lat="38.143625" lon="14.8239517"><ele>125.0</ele><time>2026-03-29T10:29:16.762Z</time></trkpt><trkpt lat="38.1436183" lon="14.8238067"><ele>125.0</ele><time>2026-03-29T10:29:18.762Z</time></trkpt><trkpt lat="38.1436633" lon="14.8236917"><ele>125.0</ele><time>2026-03-29T10:29:20.762Z</time></trkpt><trkpt lat="38.1437217" lon="14.8236317"><ele>125.0</ele><time>2026-03-29T10:29:21.762Z</time></trkpt><trkpt lat="38.1437783" lon="14.8235883"><ele>125.0</ele><time>2026-03-29T10:29:22.763Z</time></trkpt><trkpt lat="38.14386" lon="14.8235"><ele>119.6</ele><time>2026-03-29T10:29:24.763Z</time></trkpt><trkpt lat="38.14381" lon="14.8233867"><ele>114.2</ele><time>2026-03-29T10:29:26.763Z</time></trkpt><trkpt lat="38.14373" lon="14.8233133"><ele>108.80000000000001</ele><time>2026-03-29T10:29:27.763Z</time></trkpt><trkpt lat="38.14364" lon="14.8232233"><ele>103.4</ele><time>2026-03-29T10:29:28.762Z</time></trkpt><trkpt lat="38.14357" lon="14.823125"><ele>98.0</ele><time>2026-03-29T10:29:29.763Z</time></trkpt><trkpt lat="38.14351" lon="14.82304"><ele>98.0</ele><time>2026-03-29T10:29:30.763Z</time></trkpt><trkpt lat="38.14345" lon="14.822985"><ele>98.0</ele><time>2026-03-29T10:29:31.763Z</time></trkpt><trkpt lat="38.143355" lon="14.8229433"><ele>98.0</ele><time>2026-03-29T10:29:33.763Z</time></trkpt><trkpt lat="38.14344" lon="14.8229217"><ele>98.0</ele><time>2026-03-29T10:29:37.763Z</time></trkpt><trkpt lat="38.1435233" lon="14.8229617"><ele>98.0</ele><time>2026-03-29T10:29:38.763Z</time></trkpt><trkpt lat="38.1436167" lon="14.8230183"><ele>97.99999999999999</ele><time>2026-03-29T10:29:39.763Z</time></trkpt><trkpt lat="38.1437033" lon="14.823065"><ele>98.0</ele><time>2026-03-29T10:29:40.762Z</time></trkpt><trkpt lat="38.1437733" lon="14.8231017"><ele>98.0</ele><time>2026-03-29T10:29:41.763Z</time></trkpt><trkpt lat="38.1438433" lon="14.8231233"><ele>98.0</ele><time>2026-03-29T10:29:42.763Z</time></trkpt><trkpt lat="38.1439117" lon="14.82314"><ele>97.99999999999999</ele><time>2026-03-29T10:29:43.763Z</time></trkpt><trkpt lat="38.1440233" lon="14.8231917"><ele>98.0</ele><time>2026-03-29T10:29:45.763Z</time></trkpt><trkpt lat="38.1441283" lon="14.8232483"><ele>95.66666666666666</ele><time>2026-03-29T10:29:47.763Z</time></trkpt><trkpt lat="38.14421" lon="14.823325"><ele>93.33333333333333</ele><time>2026-03-29T10:29:49.762Z</time></trkpt><trkpt lat="38.14425" lon="14.8234017"><ele>91.0</ele><time>2026-03-29T10:29:51.763Z</time></trkpt><trkpt lat="38.144235" lon="14.823485"><ele>88.66666666666666</ele><time>2026-03-29T10:29:53.763Z</time></trkpt><trkpt lat="38.1442117" lon="14.823585"><ele>86.33333333333333</ele><time>2026-03-29T10:29:55.763Z</time></trkpt><trkpt lat="38.14421" lon="14.8236783"><ele>84.0</ele><time>2026-03-29T10:29:57.763Z</time></trkpt><trkpt lat="38.1442933" lon="14.8237517"><ele>84.0</ele><time>2026-03-29T10:30:00.762Z</time></trkpt><trkpt lat="38.1444233" lon="14.8236867"><ele>84.0</ele><time>2026-03-29T10:30:02.762Z</time></trkpt><trkpt lat="38.14449" lon="14.82365"><ele>84.0</ele><time>2026-03-29T10:30:03.762Z</time></trkpt><trkpt lat="38.1445883" lon="14.8236"><ele>84.0</ele><time>2026-03-29T10:30:05.763Z</time></trkpt><trkpt lat="38.1446483" lon="14.8235683"><ele>84.0</ele><time>2026-03-29T10:30:07.763Z</time></trkpt><trkpt lat="38.1447267" lon="14.8235317"><ele>84.0</ele><time>2026-03-29T10:30:09.763Z</time></trkpt><trkpt lat="38.1447933" lon="14.8234833"><ele>84.0</ele><time>2026-03-29T10:30:11.763Z</time></trkpt><trkpt lat="38.1448667" lon="14.823425"><ele>71.0</ele><time>2026-03-29T10:30:14.763Z</time></trkpt><trkpt lat="38.144915" lon="14.8233583"><ele>61.0</ele><time>2026-03-29T10:30:19.763Z</time></trkpt><trkpt lat="38.1449667" lon="14.8233017"><ele>61.0</ele><time>2026-03-29T10:30:21.763Z</time></trkpt><trkpt lat="38.145005" lon="14.82321"><ele>61.0</ele><time>2026-03-29T10:30:24.762Z</time></trkpt></trkseg><trkseg><trkpt lat="38.1295634" lon="14.9045144"><ele>454.99999999999994</ele><time>2026-03-29T11:51:36.722Z</time></trkpt><trkpt lat="38.1295617" lon="14.904595"><ele>455.0</ele><time>2026-03-29T11:51:50.721Z</time></trkpt><trkpt lat="38.1294784" lon="14.9046062"><ele>455.0</ele><time>2026-03-29T11:52:26.722Z</time></trkpt><trkpt lat="38.1293795" lon="14.9046381"><ele>455.0</ele><time>2026-03-29T11:52:56.722Z</time></trkpt><trkpt lat="38.1292712" lon="14.904608"><ele>454.99999999999994</ele><time>2026-03-29T11:52:58.722Z</time></trkpt><trkpt lat="38.1292082" lon="14.9045731"><ele>455.0</ele><time>2026-03-29T11:52:59.722Z</time></trkpt><trkpt lat="38.1291432" lon="14.9045347"><ele>455.0</ele><time>2026-03-29T11:53:00.721Z</time></trkpt><trkpt lat="38.1290785" lon="14.9044982"><ele>455.0</ele><time>2026-03-29T11:53:01.722Z</time></trkpt><trkpt lat="38.1290154" lon="14.9044696"><ele>455.0</ele><time>2026-03-29T11:53:02.722Z</time></trkpt><trkpt lat="38.1289491" lon="14.9044402"><ele>455.0</ele><time>2026-03-29T11:53:03.722Z</time></trkpt><trkpt lat="38.1288844" lon="14.9044089"><ele>455.0</ele><time>2026-03-29T11:53:04.722Z</time></trkpt><trkpt lat="38.1288205" lon="14.9043746"><ele>455.0</ele><time>2026-03-29T11:53:05.722Z</time></trkpt><trkpt lat="38.1287567" lon="14.9043486"><ele>455.0</ele><time>2026-03-29T11:53:06.721Z</time></trkpt><trkpt lat="38.1286902" lon="14.9043296"><ele>457.49999999999994</ele><time>2026-03-29T11:53:07.721Z</time></trkpt><trkpt lat="38.1286201" lon="14.9043264"><ele>460.0</ele><time>2026-03-29T11:53:08.722Z</time></trkpt><trkpt lat="38.1285457" lon="14.904331"><ele>462.5</ele><time>2026-03-29T11:53:09.722Z</time></trkpt><trkpt lat="38.1284767" lon="14.9043491"><ele>465.0</ele><time>2026-03-29T11:53:10.721Z</time></trkpt><trkpt lat="38.1284096" lon="14.9043767"><ele>467.49999999999994</ele><time>2026-03-29T11:53:11.721Z</time></trkpt><trkpt lat="38.128344" lon="14.9044337"><ele>470.0</ele><time>2026-03-29T11:53:12.722Z</time></trkpt><trkpt lat="38.12829" lon="14.9045417"><ele>470.0</ele><time>2026-03-29T11:53:13.722Z</time></trkpt><trkpt lat="38.128255" lon="14.9046583"><ele>470.0</ele><time>2026-03-29T11:53:14.722Z</time></trkpt><trkpt lat="38.1282317" lon="14.9047483"><ele>470.0</ele><time>2026-03-29T11:53:15.722Z</time></trkpt><trkpt lat="38.128165" lon="14.9048517"><ele>470.0</ele><time>2026-03-29T11:53:17.722Z</time></trkpt><trkpt lat="38.128085" lon="14.9049383"><ele>470.0</ele><time>2026-03-29T11:53:19.722Z</time></trkpt><trkpt lat="38.1280433" lon="14.905005"><ele>473.8333333333333</ele><time>2026-03-29T11:53:20.721Z</time></trkpt><trkpt lat="38.1279783" lon="14.9050767"><ele>477.66666666666663</ele><time>2026-03-29T11:53:22.721Z</time></trkpt><trkpt lat="38.1279083" lon="14.9050883"><ele>481.5</ele><time>2026-03-29T11:53:25.722Z</time></trkpt><trkpt lat="38.1279767" lon="14.9051467"><ele>485.33333333333337</ele><time>2026-03-29T11:53:37.722Z</time></trkpt><trkpt lat="38.12805" lon="14.9050967"><ele>489.1666666666667</ele><time>2026-03-29T11:53:39.722Z</time></trkpt><trkpt lat="38.1281217" lon="14.9050667"><ele>493.0</ele><time>2026-03-29T11:53:41.722Z</time></trkpt><trkpt lat="38.1281417" lon="14.9051567"><ele>494.79999999999995</ele><time>2026-03-29T11:53:44.722Z</time></trkpt><trkpt lat="38.1280983" lon="14.90525"><ele>496.59999999999997</ele><time>2026-03-29T11:53:46.722Z</time></trkpt><trkpt lat="38.12804" lon="14.9053017"><ele>498.40000000000003</ele><time>2026-03-29T11:53:47.721Z</time></trkpt><trkpt lat="38.1279583" lon="14.9053567"><ele>500.20000000000005</ele><time>2026-03-29T11:53:48.721Z</time></trkpt><trkpt lat="38.1278717" lon="14.9054167"><ele>502.0</ele><time>2026-03-29T11:53:49.722Z</time></trkpt><trkpt lat="38.1277733" lon="14.9054767"><ele>502.0</ele><time>2026-03-29T11:53:50.721Z</time></trkpt><trkpt lat="38.1276533" lon="14.9055233"><ele>502.0</ele><time>2026-03-29T11:53:51.721Z</time></trkpt><trkpt lat="38.12754" lon="14.9055617"><ele>502.0</ele><time>2026-03-29T11:53:52.722Z</time></trkpt><trkpt lat="38.1274233" lon="14.9055833"><ele>502.0</ele><time>2026-03-29T11:53:53.722Z</time></trkpt><trkpt lat="38.127325" lon="14.905615"><ele>506.20000000000005</ele><time>2026-03-29T11:53:54.721Z</time></trkpt><trkpt lat="38.127235" lon="14.905665"><ele>510.40000000000003</ele><time>2026-03-29T11:53:55.721Z</time></trkpt><trkpt lat="38.127155" lon="14.9057317"><ele>514.5999999999999</ele><time>2026-03-29T11:53:56.721Z</time></trkpt><trkpt lat="38.1270917" lon="14.9058283"><ele>518.8</ele><time>2026-03-29T11:53:57.721Z</time></trkpt><trkpt lat="38.1270533" lon="14.90594"><ele>523.0</ele><time>2026-03-29T11:53:58.722Z</time></trkpt><trkpt lat="38.1270367" lon="14.906055"><ele>523.0</ele><time>2026-03-29T11:53:59.721Z</time></trkpt><trkpt lat="38.1270433" lon="14.9061767"><ele>523.0</ele><time>2026-03-29T11:54:00.722Z</time></trkpt><trkpt lat="38.1270467" lon="14.9062833"><ele>523.0</ele><time>2026-03-29T11:54:01.721Z</time></trkpt><trkpt lat="38.1270517" lon="14.90637"><ele>523.0</ele><time>2026-03-29T11:54:02.722Z</time></trkpt><trkpt lat="38.1270567" lon="14.9064883"><ele>523.0</ele><time>2026-03-29T11:54:04.722Z</time></trkpt><trkpt lat="38.1270183" lon="14.9066267"><ele>523.0</ele><time>2026-03-29T11:54:06.721Z</time></trkpt><trkpt lat="38.1269717" lon="14.9067033"><ele>523.0</ele><time>2026-03-29T11:54:07.721Z</time></trkpt><trkpt lat="38.1269333" lon="14.9067733"><ele>523.0</ele><time>2026-03-29T11:54:08.722Z</time></trkpt><trkpt lat="38.12689" lon="14.9068883"><ele>523.0</ele><time>2026-03-29T11:54:10.721Z</time></trkpt><trkpt lat="38.12693" lon="14.9069983"><ele>523.0</ele><time>2026-03-29T11:54:12.722Z</time></trkpt><trkpt lat="38.126975" lon="14.907065"><ele>523.0</ele><time>2026-03-29T11:54:14.721Z</time></trkpt><trkpt lat="38.1269767" lon="14.9071733"><ele>524.3333333333334</ele><time>2026-03-29T11:54:18.722Z</time></trkpt><trkpt lat="38.126935" lon="14.90726"><ele>525.6666666666667</ele><time>2026-03-29T11:54:20.722Z</time></trkpt><trkpt lat="38.1268783" lon="14.907345"><ele>527.0</ele><time>2026-03-29T11:54:22.722Z</time></trkpt><trkpt lat="38.126815" lon="14.9074233"><ele>528.3333333333334</ele><time>2026-03-29T11:54:25.722Z</time></trkpt><trkpt lat="38.1267417" lon="14.907465"><ele>529.6666666666666</ele><time>2026-03-29T11:54:27.721Z</time></trkpt><trkpt lat="38.12664" lon="14.9074983"><ele>531.0</ele><time>2026-03-29T11:54:29.722Z</time></trkpt><trkpt lat="38.1265283" lon="14.9075133"><ele>532.8</ele><time>2026-03-29T11:54:31.722Z</time></trkpt><trkpt lat="38.12644" lon="14.907555"><ele>534.6</ele><time>2026-03-29T11:54:33.722Z</time></trkpt><trkpt lat="38.1263633" lon="14.9075767"><ele>536.4</ele><time>2026-03-29T11:54:35.722Z</time></trkpt><trkpt lat="38.1262633" lon="14.9075917"><ele>538.2</ele><time>2026-03-29T11:54:37.722Z</time></trkpt><trkpt lat="38.1261567" lon="14.9076083"><ele>540.0</ele><time>2026-03-29T11:54:39.722Z</time></trkpt><trkpt lat="38.12604" lon="14.9076517"><ele>540.0</ele><time>2026-03-29T11:54:41.721Z</time></trkpt><trkpt lat="38.1259367" lon="14.9077233"><ele>540.0</ele><time>2026-03-29T11:54:43.722Z</time></trkpt><trkpt lat="38.125885" lon="14.9077767"><ele>540.0</ele><time>2026-03-29T11:54:44.721Z</time></trkpt><trkpt lat="38.1257883" lon="14.9078867"><ele>540.0</ele><time>2026-03-29T11:54:46.722Z</time></trkpt><trkpt lat="38.1257383" lon="14.9079383"><ele>540.0</ele><time>2026-03-29T11:54:47.721Z</time></trkpt><trkpt lat="38.1256633" lon="14.9080333"><ele>543.1666666666666</ele><time>2026-03-29T11:54:49.722Z</time></trkpt><trkpt lat="38.1255917" lon="14.908115"><ele>546.3333333333334</ele><time>2026-03-29T11:54:51.721Z</time></trkpt><trkpt lat="38.1255117" lon="14.9081783"><ele>549.5</ele><time>2026-03-29T11:54:53.722Z</time></trkpt><trkpt lat="38.1254183" lon="14.9082467"><ele>552.6666666666667</ele><time>2026-03-29T11:54:55.722Z</time></trkpt><trkpt lat="38.1253433" lon="14.908285"><ele>555.8333333333334</ele><time>2026-03-29T11:54:57.722Z</time></trkpt><trkpt lat="38.1253867" lon="14.90835"><ele>559.0</ele><time>2026-03-29T11:55:42.721Z</time></trkpt><trkpt lat="38.1253983" lon="14.9084367"><ele>559.6666666666667</ele><time>2026-03-29T11:57:34.721Z</time></trkpt><trkpt lat="38.1254533" lon="14.90851"><ele>560.3333333333334</ele><time>2026-03-29T11:57:39.722Z</time></trkpt><trkpt lat="38.1255267" lon="14.9084783"><ele>561.0</ele><time>2026-03-29T11:59:03.722Z</time></trkpt><trkpt lat="38.1255583" lon="14.9085733"><ele>561.6666666666666</ele><time>2026-03-29T11:59:06.722Z</time></trkpt><trkpt lat="38.125565" lon="14.90868"><ele>562.3333333333333</ele><time>2026-03-29T11:59:08.722Z</time></trkpt><trkpt lat="38.12555" lon="14.9087817"><ele>563.0</ele><time>2026-03-29T11:59:10.723Z</time></trkpt><trkpt lat="38.1255333" lon="14.908895"><ele>563.0</ele><time>2026-03-29T11:59:12.722Z</time></trkpt><trkpt lat="38.1255167" lon="14.9090017"><ele>563.0</ele><time>2026-03-29T11:59:14.723Z</time></trkpt><trkpt lat="38.1254967" lon="14.9090883"><ele>563.0</ele><time>2026-03-29T11:59:16.723Z</time></trkpt><trkpt lat="38.1254883" lon="14.9091717"><ele>563.0</ele><time>2026-03-29T11:59:18.722Z</time></trkpt><trkpt lat="38.12548" lon="14.9093067"><ele>563.0</ele><time>2026-03-29T11:59:45.723Z</time></trkpt><trkpt lat="38.125465" lon="14.9094"><ele>563.0</ele><time>2026-03-29T11:59:50.722Z</time></trkpt><trkpt lat="38.1254217" lon="14.9094783"><ele>565.8333333333333</ele><time>2026-03-29T11:59:54.723Z</time></trkpt><trkpt lat="38.1253417" lon="14.909535"><ele>568.6666666666666</ele><time>2026-03-29T12:01:12.722Z</time></trkpt><trkpt lat="38.1252983" lon="14.9096333"><ele>571.5</ele><time>2026-03-29T12:01:15.723Z</time></trkpt><trkpt lat="38.12528" lon="14.9097233"><ele>574.3333333333334</ele><time>2026-03-29T12:01:19.723Z</time></trkpt><trkpt lat="38.12528" lon="14.9098233"><ele>577.1666666666667</ele><time>2026-03-29T12:01:58.723Z</time></trkpt><trkpt lat="38.1252617" lon="14.90991"><ele>580.0</ele><time>2026-03-29T12:03:25.722Z</time></trkpt><trkpt lat="38.1253056" lon="14.9099685"><ele>580.0</ele><time>2026-03-29T12:03:47.723Z</time></trkpt><trkpt lat="38.1253933" lon="14.9100296"><ele>580.0</ele><time>2026-03-29T12:04:04.723Z</time></trkpt><trkpt lat="38.1253882" lon="14.910119"><ele>580.0</ele><time>2026-03-29T12:04:28.722Z</time></trkpt><trkpt lat="38.1253475" lon="14.9101936"><ele>580.0</ele><time>2026-03-29T12:04:32.723Z</time></trkpt><trkpt lat="38.1252746" lon="14.9100881"><ele>580.0</ele><time>2026-03-29T12:05:09.723Z</time></trkpt><trkpt lat="38.1252911" lon="14.9100047"><ele>580.0</ele><time>2026-03-29T12:05:24.723Z</time></trkpt><trkpt lat="38.1252533" lon="14.9099339"><ele>580.0</ele><time>2026-03-29T12:06:03.723Z</time></trkpt><trkpt lat="38.1251915" lon="14.9099543"><ele>580.0</ele><time>2026-03-29T12:06:21.723Z</time></trkpt><trkpt lat="38.1251319" lon="14.9100126"><ele>580.0</ele><time>2026-03-29T12:06:24.723Z</time></trkpt><trkpt lat="38.1250483" lon="14.9100983"><ele>580.0</ele><time>2026-03-29T12:07:49.724Z</time></trkpt><trkpt lat="38.12504" lon="14.9102267"><ele>580.0</ele><time>2026-03-29T12:08:00.723Z</time></trkpt><trkpt lat="38.124955" lon="14.91033"><ele>582.1666666666667</ele><time>2026-03-29T12:08:44.723Z</time></trkpt><trkpt lat="38.1250267" lon="14.910345"><ele>584.3333333333334</ele><time>2026-03-29T12:11:41.724Z</time></trkpt><trkpt lat="38.1249979" lon="14.9104628"><ele>586.5</ele><time>2026-03-29T12:11:51.724Z</time></trkpt><trkpt lat="38.1249609" lon="14.9106138"><ele>588.6666666666666</ele><time>2026-03-29T12:12:36.724Z</time></trkpt><trkpt lat="38.125023" lon="14.9105433"><ele>590.8333333333333</ele><time>2026-03-29T12:13:00.724Z</time></trkpt><trkpt lat="38.1250501" lon="14.9104639"><ele>593.0</ele><time>2026-03-29T12:13:06.723Z</time></trkpt><trkpt lat="38.1250488" lon="14.9103787"><ele>593.0</ele><time>2026-03-29T12:13:11.724Z</time></trkpt><trkpt lat="38.1250622" lon="14.9102129"><ele>593.0</ele><time>2026-03-29T12:13:43.724Z</time></trkpt><trkpt lat="38.1251198" lon="14.9101784"><ele>593.0</ele><time>2026-03-29T12:13:48.723Z</time></trkpt><trkpt lat="38.1251281" lon="14.9102625"><ele>593.0</ele><time>2026-03-29T12:14:19.724Z</time></trkpt><trkpt lat="38.1251954" lon="14.9102985"><ele>593.0</ele><time>2026-03-29T12:15:09.724Z</time></trkpt><trkpt lat="38.1251229" lon="14.9102963"><ele>593.0</ele><time>2026-03-29T12:15:14.725Z</time></trkpt><trkpt lat="38.1250511" lon="14.910284"><ele>593.0</ele><time>2026-03-29T12:15:18.725Z</time></trkpt><trkpt lat="38.1250446" lon="14.9101764"><ele>593.0</ele><time>2026-03-29T12:16:07.724Z</time></trkpt><trkpt lat="38.1250604" lon="14.9100799"><ele>593.0</ele><time>2026-03-29T12:16:10.725Z</time></trkpt><trkpt lat="38.1250868" lon="14.9100034"><ele>593.0</ele><time>2026-03-29T12:16:16.725Z</time></trkpt><trkpt lat="38.1251621" lon="14.9099329"><ele>593.0</ele><time>2026-03-29T12:16:50.724Z</time></trkpt><trkpt lat="38.1252131" lon="14.9098836"><ele>593.0</ele><time>2026-03-29T12:16:53.725Z</time></trkpt><trkpt lat="38.1253161" lon="14.909839"><ele>590.8333333333333</ele><time>2026-03-29T12:18:17.725Z</time></trkpt><trkpt lat="38.1253649" lon="14.9097207"><ele>588.6666666666666</ele><time>2026-03-29T12:18:33.724Z</time></trkpt><trkpt lat="38.1253768" lon="14.9096195"><ele>586.5</ele><time>2026-03-29T12:18:35.725Z</time></trkpt><trkpt lat="38.1253893" lon="14.9095226"><ele>584.3333333333334</ele><time>2026-03-29T12:18:39.724Z</time></trkpt><trkpt lat="38.1254209" lon="14.9094515"><ele>582.1666666666667</ele><time>2026-03-29T12:18:42.724Z</time></trkpt><trkpt lat="38.1254603" lon="14.9093753"><ele>580.0</ele><time>2026-03-29T12:18:46.725Z</time></trkpt><trkpt lat="38.1254971" lon="14.9093054"><ele>577.5714285714286</ele><time>2026-03-29T12:18:51.724Z</time></trkpt><trkpt lat="38.1255399" lon="14.90921"><ele>575.1428571428572</ele><time>2026-03-29T12:18:55.725Z</time></trkpt><trkpt lat="38.1255697" lon="14.9091297"><ele>572.7142857142858</ele><time>2026-03-29T12:18:58.724Z</time></trkpt><trkpt lat="38.1256058" lon="14.9090588"><ele>570.2857142857143</ele><time>2026-03-29T12:19:01.725Z</time></trkpt><trkpt lat="38.1256296" lon="14.9089844"><ele>567.8571428571429</ele><time>2026-03-29T12:19:05.725Z</time></trkpt><trkpt lat="38.1255981" lon="14.9090567"><ele>565.4285714285714</ele><time>2026-03-29T12:19:17.724Z</time></trkpt><trkpt lat="38.1255476" lon="14.9091393"><ele>563.0</ele><time>2026-03-29T12:19:27.724Z</time></trkpt><trkpt lat="38.1255545" lon="14.9092294"><ele>563.0</ele><time>2026-03-29T12:21:12.725Z</time></trkpt><trkpt lat="38.1256333" lon="14.9092483"><ele>563.0</ele><time>2026-03-29T12:21:27.725Z</time></trkpt><trkpt lat="38.1256833" lon="14.9093167"><ele>563.0</ele><time>2026-03-29T12:24:24.726Z</time></trkpt><trkpt lat="38.1256617" lon="14.9092133"><ele>563.0</ele><time>2026-03-29T12:24:28.726Z</time></trkpt><trkpt lat="38.1257067" lon="14.9091333"><ele>563.0</ele><time>2026-03-29T12:24:31.725Z</time></trkpt><trkpt lat="38.1257467" lon="14.9090583"><ele>563.0</ele><time>2026-03-29T12:24:34.725Z</time></trkpt><trkpt lat="38.1256783" lon="14.9091133"><ele>563.0</ele><time>2026-03-29T12:24:40.726Z</time></trkpt><trkpt lat="38.1256033" lon="14.9092617"><ele>563.0</ele><time>2026-03-29T12:25:00.725Z</time></trkpt><trkpt lat="38.125557" lon="14.9093645"><ele>563.0</ele><time>2026-03-29T12:25:16.725Z</time></trkpt><trkpt lat="38.1256154" lon="14.90943"><ele>563.0</ele><time>2026-03-29T12:25:34.725Z</time></trkpt><trkpt lat="38.1256292" lon="14.9093088"><ele>563.0</ele><time>2026-03-29T12:25:54.726Z</time></trkpt><trkpt lat="38.1256228" lon="14.9092171"><ele>563.0</ele><time>2026-03-29T12:25:57.726Z</time></trkpt><trkpt lat="38.1255568" lon="14.9091933"><ele>563.0</ele><time>2026-03-29T12:26:30.726Z</time></trkpt><trkpt lat="38.125564" lon="14.9090489"><ele>563.0</ele><time>2026-03-29T12:27:50.725Z</time></trkpt><trkpt lat="38.1256104" lon="14.9089686"><ele>563.0</ele><time>2026-03-29T12:27:53.725Z</time></trkpt><trkpt lat="38.1256476" lon="14.9088876"><ele>563.0</ele><time>2026-03-29T12:27:56.725Z</time></trkpt><trkpt lat="38.1256963" lon="14.9088116"><ele>563.0</ele><time>2026-03-29T12:27:59.726Z</time></trkpt><trkpt lat="38.1257452" lon="14.9087553"><ele>563.0</ele><time>2026-03-29T12:28:09.727Z</time></trkpt><trkpt lat="38.1257737" lon="14.908657"><ele>563.0</ele><time>2026-03-29T12:28:12.727Z</time></trkpt><trkpt lat="38.1257988" lon="14.9085714"><ele>563.0</ele><time>2026-03-29T12:28:15.727Z</time></trkpt><trkpt lat="38.1258446" lon="14.9084955"><ele>563.0</ele><time>2026-03-29T12:28:19.726Z</time></trkpt><trkpt lat="38.1257981" lon="14.9084178"><ele>563.0</ele><time>2026-03-29T12:30:06.727Z</time></trkpt><trkpt lat="38.125714" lon="14.9084218"><ele>563.0</ele><time>2026-03-29T12:30:23.727Z</time></trkpt><trkpt lat="38.1256748" lon="14.9083098"><ele>563.0</ele><time>2026-03-29T12:33:18.726Z</time></trkpt><trkpt lat="38.125614" lon="14.9083435"><ele>563.0</ele><time>2026-03-29T12:33:21.726Z</time></trkpt><trkpt lat="38.1255471" lon="14.908378"><ele>563.0</ele><time>2026-03-29T12:33:24.727Z</time></trkpt><trkpt lat="38.125475" lon="14.9084517"><ele>563.0</ele><time>2026-03-29T12:33:54.727Z</time></trkpt><trkpt lat="38.125435" lon="14.9083717"><ele>563.0</ele><time>2026-03-29T12:34:02.727Z</time></trkpt><trkpt lat="38.1253733" lon="14.9082317"><ele>563.0</ele><time>2026-03-29T12:34:13.727Z</time></trkpt><trkpt lat="38.125445" lon="14.9082033"><ele>562.4285714285714</ele><time>2026-03-29T12:34:16.727Z</time></trkpt><trkpt lat="38.12551" lon="14.9081633"><ele>561.8571428571429</ele><time>2026-03-29T12:34:18.727Z</time></trkpt><trkpt lat="38.1255733" lon="14.9081117"><ele>561.2857142857143</ele><time>2026-03-29T12:34:20.727Z</time></trkpt><trkpt lat="38.1256383" lon="14.9080617"><ele>560.7142857142858</ele><time>2026-03-29T12:34:22.726Z</time></trkpt><trkpt lat="38.12569" lon="14.90801"><ele>560.1428571428572</ele><time>2026-03-29T12:34:24.727Z</time></trkpt><trkpt lat="38.1257367" lon="14.9079483"><ele>559.5714285714286</ele><time>2026-03-29T12:34:27.727Z</time></trkpt><trkpt lat="38.12578" lon="14.9078883"><ele>559.0</ele><time>2026-03-29T12:34:29.726Z</time></trkpt><trkpt lat="38.1258217" lon="14.9078133"><ele>558.2</ele><time>2026-03-29T12:34:40.728Z</time></trkpt><trkpt lat="38.1258833" lon="14.9077433"><ele>557.4</ele><time>2026-03-29T12:34:43.728Z</time></trkpt><trkpt lat="38.1259633" lon="14.90766"><ele>556.6</ele><time>2026-03-29T12:34:45.728Z</time></trkpt><trkpt lat="38.12606" lon="14.90759"><ele>555.8</ele><time>2026-03-29T12:34:47.727Z</time></trkpt><trkpt lat="38.1261483" lon="14.90756"><ele>555.0</ele><time>2026-03-29T12:34:49.728Z</time></trkpt><trkpt lat="38.126215" lon="14.9075417"><ele>555.0</ele><time>2026-03-29T12:34:51.728Z</time></trkpt><trkpt lat="38.1263017" lon="14.90753"><ele>555.0</ele><time>2026-03-29T12:34:53.728Z</time></trkpt><trkpt lat="38.12639" lon="14.9075083"><ele>555.0</ele><time>2026-03-29T12:34:55.728Z</time></trkpt><trkpt lat="38.126455" lon="14.9074633"><ele>555.0</ele><time>2026-03-29T12:34:57.728Z</time></trkpt><trkpt lat="38.1265167" lon="14.9074183"><ele>555.0</ele><time>2026-03-29T12:34:59.728Z</time></trkpt><trkpt lat="38.12662" lon="14.9073867"><ele>555.0</ele><time>2026-03-29T12:35:02.727Z</time></trkpt><trkpt lat="38.1267017" lon="14.9073717"><ele>551.0</ele><time>2026-03-29T12:35:04.728Z</time></trkpt><trkpt lat="38.1267567" lon="14.9073183"><ele>547.0</ele><time>2026-03-29T12:35:06.727Z</time></trkpt><trkpt lat="38.1268083" lon="14.9072633"><ele>543.0</ele><time>2026-03-29T12:35:08.727Z</time></trkpt><trkpt lat="38.1269017" lon="14.9072083"><ele>539.0</ele><time>2026-03-29T12:35:11.728Z</time></trkpt><trkpt lat="38.1269767" lon="14.9071317"><ele>535.0</ele><time>2026-03-29T12:35:13.727Z</time></trkpt><trkpt lat="38.127005" lon="14.9070417"><ele>531.0</ele><time>2026-03-29T12:35:15.728Z</time></trkpt><trkpt lat="38.1269883" lon="14.9069367"><ele>531.0</ele><time>2026-03-29T12:35:18.728Z</time></trkpt><trkpt lat="38.1269383" lon="14.906875"><ele>531.0</ele><time>2026-03-29T12:35:20.728Z</time></trkpt><trkpt lat="38.1269233" lon="14.9067633"><ele>531.0</ele><time>2026-03-29T12:35:23.727Z</time></trkpt><trkpt lat="38.1269683" lon="14.906685"><ele>531.0</ele><time>2026-03-29T12:35:25.728Z</time></trkpt><trkpt lat="38.1270183" lon="14.9066067"><ele>531.0</ele><time>2026-03-29T12:35:27.728Z</time></trkpt><trkpt lat="38.1270633" lon="14.906495"><ele>531.0</ele><time>2026-03-29T12:35:29.728Z</time></trkpt><trkpt lat="38.1270867" lon="14.906405"><ele>530.4</ele><time>2026-03-29T12:35:31.728Z</time></trkpt><trkpt lat="38.1271167" lon="14.9063317"><ele>529.8</ele><time>2026-03-29T12:35:33.727Z</time></trkpt><trkpt lat="38.1271517" lon="14.90623"><ele>529.1999999999999</ele><time>2026-03-29T12:35:36.728Z</time></trkpt><trkpt lat="38.1271483" lon="14.9061133"><ele>528.6</ele><time>2026-03-29T12:35:38.728Z</time></trkpt><trkpt lat="38.1271467" lon="14.9059583"><ele>528.0</ele><time>2026-03-29T12:35:40.728Z</time></trkpt><trkpt lat="38.12718" lon="14.9058333"><ele>528.0</ele><time>2026-03-29T12:35:42.728Z</time></trkpt><trkpt lat="38.12723" lon="14.9057233"><ele>528.0</ele><time>2026-03-29T12:35:44.727Z</time></trkpt><trkpt lat="38.1272783" lon="14.9056267"><ele>528.0</ele><time>2026-03-29T12:35:46.727Z</time></trkpt><trkpt lat="38.1273517" lon="14.905545"><ele>528.0</ele><time>2026-03-29T12:35:48.728Z</time></trkpt><trkpt lat="38.1274417" lon="14.9055183"><ele>528.0</ele><time>2026-03-29T12:35:50.728Z</time></trkpt><trkpt lat="38.127535" lon="14.9054983"><ele>522.8</ele><time>2026-03-29T12:35:52.727Z</time></trkpt><trkpt lat="38.12763" lon="14.90545"><ele>517.5999999999999</ele><time>2026-03-29T12:35:54.728Z</time></trkpt><trkpt lat="38.1277233" lon="14.9053967"><ele>512.4000000000001</ele><time>2026-03-29T12:35:56.728Z</time></trkpt><trkpt lat="38.12781" lon="14.9053317"><ele>507.20000000000005</ele><time>2026-03-29T12:35:58.728Z</time></trkpt><trkpt lat="38.1278983" lon="14.90526"><ele>502.0</ele><time>2026-03-29T12:36:00.727Z</time></trkpt><trkpt lat="38.1280017" lon="14.9051783"><ele>500.20000000000005</ele><time>2026-03-29T12:36:02.728Z</time></trkpt><trkpt lat="38.12807" lon="14.9050733"><ele>498.40000000000003</ele><time>2026-03-29T12:36:04.728Z</time></trkpt><trkpt lat="38.1281183" lon="14.90496"><ele>496.59999999999997</ele><time>2026-03-29T12:36:06.728Z</time></trkpt><trkpt lat="38.1281833" lon="14.9048417"><ele>494.79999999999995</ele><time>2026-03-29T12:36:08.728Z</time></trkpt><trkpt lat="38.12825" lon="14.90472"><ele>493.0</ele><time>2026-03-29T12:36:10.727Z</time></trkpt><trkpt lat="38.128285" lon="14.904645"><ele>489.1666666666667</ele><time>2026-03-29T12:36:11.728Z</time></trkpt><trkpt lat="38.128305" lon="14.9045667"><ele>485.33333333333337</ele><time>2026-03-29T12:36:12.728Z</time></trkpt><trkpt lat="38.1283367" lon="14.9044917"><ele>481.5</ele><time>2026-03-29T12:36:13.728Z</time></trkpt><trkpt lat="38.1284333" lon="14.9043867"><ele>477.66666666666663</ele><time>2026-03-29T12:36:15.727Z</time></trkpt><trkpt lat="38.1284933" lon="14.9043583"><ele>473.8333333333333</ele><time>2026-03-29T12:36:16.728Z</time></trkpt><trkpt lat="38.1285617" lon="14.9043417"><ele>470.0</ele><time>2026-03-29T12:36:17.727Z</time></trkpt><trkpt lat="38.12863" lon="14.90433"><ele>470.0</ele><time>2026-03-29T12:36:18.727Z</time></trkpt><trkpt lat="38.128695" lon="14.90433"><ele>470.0</ele><time>2026-03-29T12:36:19.727Z</time></trkpt><trkpt lat="38.1288117" lon="14.9043817"><ele>470.0</ele><time>2026-03-29T12:36:21.728Z</time></trkpt><trkpt lat="38.1289217" lon="14.9044367"><ele>470.0</ele><time>2026-03-29T12:36:23.728Z</time></trkpt><trkpt lat="38.129025" lon="14.9045033"><ele>470.0</ele><time>2026-03-29T12:36:25.728Z</time></trkpt><trkpt lat="38.1290833" lon="14.904535"><ele>467.49999999999994</ele><time>2026-03-29T12:36:26.728Z</time></trkpt><trkpt lat="38.1291433" lon="14.9045633"><ele>465.0</ele><time>2026-03-29T12:36:27.728Z</time></trkpt><trkpt lat="38.1292467" lon="14.9046133"><ele>462.5</ele><time>2026-03-29T12:36:29.728Z</time></trkpt><trkpt lat="38.1293167" lon="14.9046367"><ele>460.0</ele><time>2026-03-29T12:36:31.728Z</time></trkpt><trkpt lat="38.129405" lon="14.9046133"><ele>457.49999999999994</ele><time>2026-03-29T12:36:34.728Z</time></trkpt><trkpt lat="38.1293207" lon="14.9046366"><ele>455.0</ele><time>2026-03-29T12:37:52.728Z</time></trkpt><trkpt lat="38.1292003" lon="14.9046028"><ele>454.99999999999994</ele><time>2026-03-29T12:37:54.728Z</time></trkpt><trkpt lat="38.1291395" lon="14.9045665"><ele>455.0</ele><time>2026-03-29T12:37:55.727Z</time></trkpt><trkpt lat="38.1290811" lon="14.9045318"><ele>455.0</ele><time>2026-03-29T12:37:56.728Z</time></trkpt><trkpt lat="38.1290234" lon="14.9044967"><ele>455.0</ele><time>2026-03-29T12:37:57.728Z</time></trkpt><trkpt lat="38.1289162" lon="14.9044325"><ele>454.99999999999994</ele><time>2026-03-29T12:37:59.728Z</time></trkpt><trkpt lat="38.1287965" lon="14.904378"><ele>455.0</ele><time>2026-03-29T12:38:01.727Z</time></trkpt><trkpt lat="38.1287271" lon="14.9043523"><ele>457.49999999999994</ele><time>2026-03-29T12:38:02.728Z</time></trkpt><trkpt lat="38.1286475" lon="14.9043418"><ele>460.0</ele><time>2026-03-29T12:38:03.727Z</time></trkpt><trkpt lat="38.1285674" lon="14.9043453"><ele>462.5</ele><time>2026-03-29T12:38:04.728Z</time></trkpt><trkpt lat="38.1285006" lon="14.9043549"><ele>465.0</ele><time>2026-03-29T12:38:05.728Z</time></trkpt><trkpt lat="38.1283842" lon="14.9044206"><ele>467.49999999999994</ele><time>2026-03-29T12:38:07.728Z</time></trkpt><trkpt lat="38.1283281" lon="14.9044846"><ele>470.0</ele><time>2026-03-29T12:38:08.727Z</time></trkpt><trkpt lat="38.1282756" lon="14.9045754"><ele>469.99999999999994</ele><time>2026-03-29T12:38:09.728Z</time></trkpt><trkpt lat="38.128238" lon="14.9046791"><ele>470.0</ele><time>2026-03-29T12:38:10.728Z</time></trkpt><trkpt lat="38.128201" lon="14.9047809"><ele>470.0</ele><time>2026-03-29T12:38:11.727Z</time></trkpt><trkpt lat="38.1281572" lon="14.9048716"><ele>470.0</ele><time>2026-03-29T12:38:12.728Z</time></trkpt><trkpt lat="38.1281059" lon="14.9049627"><ele>469.99999999999994</ele><time>2026-03-29T12:38:13.728Z</time></trkpt><trkpt lat="38.1280477" lon="14.9050464"><ele>470.0</ele><time>2026-03-29T12:38:14.727Z</time></trkpt><trkpt lat="38.1279939" lon="14.9051115"><ele>473.8333333333333</ele><time>2026-03-29T12:38:15.727Z</time></trkpt><trkpt lat="38.1279041" lon="14.9051445"><ele>477.66666666666663</ele><time>2026-03-29T12:38:17.728Z</time></trkpt><trkpt lat="38.1278475" lon="14.9050102"><ele>481.5</ele><time>2026-03-29T12:38:19.727Z</time></trkpt><trkpt lat="38.1278324" lon="14.9049142"><ele>485.33333333333337</ele><time>2026-03-29T12:38:20.727Z</time></trkpt><trkpt lat="38.1278192" lon="14.9048201"><ele>489.1666666666667</ele><time>2026-03-29T12:38:21.728Z</time></trkpt><trkpt lat="38.1278094" lon="14.9047326"><ele>493.0</ele><time>2026-03-29T12:38:22.728Z</time></trkpt><trkpt lat="38.1278078" lon="14.9046488"><ele>493.0</ele><time>2026-03-29T12:38:23.727Z</time></trkpt><trkpt lat="38.1278135" lon="14.9045628"><ele>492.99999999999994</ele><time>2026-03-29T12:38:24.727Z</time></trkpt><trkpt lat="38.1278481" lon="14.904419"><ele>492.99999999999994</ele><time>2026-03-29T12:38:26.728Z</time></trkpt><trkpt lat="38.1278885" lon="14.9042803"><ele>493.0</ele><time>2026-03-29T12:38:28.727Z</time></trkpt><trkpt lat="38.1279314" lon="14.904154"><ele>493.0</ele><time>2026-03-29T12:38:30.728Z</time></trkpt><trkpt lat="38.1279556" lon="14.9040439"><ele>496.59999999999997</ele><time>2026-03-29T12:38:34.728Z</time></trkpt><trkpt lat="38.1279897" lon="14.903917"><ele>500.19999999999993</ele><time>2026-03-29T12:38:36.727Z</time></trkpt><trkpt lat="38.1280338" lon="14.9038143"><ele>503.8</ele><time>2026-03-29T12:38:38.728Z</time></trkpt><trkpt lat="38.1280486" lon="14.9037175"><ele>507.4</ele><time>2026-03-29T12:38:40.728Z</time></trkpt><trkpt lat="38.1279981" lon="14.9035722"><ele>511.0</ele><time>2026-03-29T12:38:42.727Z</time></trkpt><trkpt lat="38.1279576" lon="14.9034983"><ele>512.4</ele><time>2026-03-29T12:38:43.727Z</time></trkpt><trkpt lat="38.1278952" lon="14.9033738"><ele>513.8</ele><time>2026-03-29T12:38:45.727Z</time></trkpt><trkpt lat="38.1278698" lon="14.9032592"><ele>515.1999999999999</ele><time>2026-03-29T12:38:47.728Z</time></trkpt><trkpt lat="38.1278277" lon="14.903159"><ele>516.6</ele><time>2026-03-29T12:38:49.728Z</time></trkpt><trkpt lat="38.127764" lon="14.9030728"><ele>518.0</ele><time>2026-03-29T12:38:51.727Z</time></trkpt><trkpt lat="38.1276988" lon="14.9029398"><ele>518.0</ele><time>2026-03-29T12:38:53.728Z</time></trkpt><trkpt lat="38.1276408" lon="14.9028311"><ele>518.0</ele><time>2026-03-29T12:38:55.728Z</time></trkpt><trkpt lat="38.1275704" lon="14.9027514"><ele>518.0</ele><time>2026-03-29T12:38:57.727Z</time></trkpt><trkpt lat="38.1275207" lon="14.9026266"><ele>518.0</ele><time>2026-03-29T12:38:59.728Z</time></trkpt><trkpt lat="38.1275063" lon="14.9025479"><ele>518.0</ele><time>2026-03-29T12:39:00.727Z</time></trkpt><trkpt lat="38.1274941" lon="14.902459"><ele>518.0</ele><time>2026-03-29T12:39:01.728Z</time></trkpt><trkpt lat="38.1274792" lon="14.902356"><ele>519.5</ele><time>2026-03-29T12:39:03.727Z</time></trkpt><trkpt lat="38.127456" lon="14.9022251"><ele>521.0</ele><time>2026-03-29T12:39:06.728Z</time></trkpt><trkpt lat="38.1273875" lon="14.9021743"><ele>522.5</ele><time>2026-03-29T12:39:08.728Z</time></trkpt><trkpt lat="38.1272847" lon="14.9022303"><ele>524.0</ele><time>2026-03-29T12:39:10.728Z</time></trkpt><trkpt lat="38.1272406" lon="14.9023"><ele>525.5</ele><time>2026-03-29T12:39:11.727Z</time></trkpt><trkpt lat="38.1272142" lon="14.902393"><ele>527.0</ele><time>2026-03-29T12:39:12.727Z</time></trkpt><trkpt lat="38.127204" lon="14.9024901"><ele>535.0000000000001</ele><time>2026-03-29T12:39:13.728Z</time></trkpt><trkpt lat="38.1271986" lon="14.902583"><ele>543.0</ele><time>2026-03-29T12:39:14.728Z</time></trkpt><trkpt lat="38.1271992" lon="14.9026742"><ele>551.0</ele><time>2026-03-29T12:39:15.728Z</time></trkpt><trkpt lat="38.1272146" lon="14.9027602"><ele>559.0</ele><time>2026-03-29T12:39:16.728Z</time></trkpt><trkpt lat="38.1272342" lon="14.9028459"><ele>567.0</ele><time>2026-03-29T12:39:17.728Z</time></trkpt><trkpt lat="38.1272552" lon="14.9029339"><ele>575.0000000000001</ele><time>2026-03-29T12:39:18.728Z</time></trkpt><trkpt lat="38.1272851" lon="14.9030176"><ele>583.0</ele><time>2026-03-29T12:39:19.727Z</time></trkpt><trkpt lat="38.1273281" lon="14.9030881"><ele>583.0</ele><time>2026-03-29T12:39:20.727Z</time></trkpt><trkpt lat="38.1273953" lon="14.9032086"><ele>583.0</ele><time>2026-03-29T12:39:22.728Z</time></trkpt><trkpt lat="38.1274007" lon="14.9033358"><ele>583.0</ele><time>2026-03-29T12:39:24.727Z</time></trkpt><trkpt lat="38.1273158" lon="14.9034094"><ele>583.0</ele><time>2026-03-29T12:39:26.728Z</time></trkpt><trkpt lat="38.1272483" lon="14.9034308"><ele>583.0</ele><time>2026-03-29T12:39:27.728Z</time></trkpt><trkpt lat="38.1271849" lon="14.9034567"><ele>580.4</ele><time>2026-03-29T12:39:28.728Z</time></trkpt><trkpt lat="38.1271258" lon="14.9034986"><ele>577.8</ele><time>2026-03-29T12:39:29.727Z</time></trkpt><trkpt lat="38.1270787" lon="14.9035543"><ele>575.2</ele><time>2026-03-29T12:39:30.728Z</time></trkpt><trkpt lat="38.1270579" lon="14.9037021"><ele>572.6</ele><time>2026-03-29T12:39:32.727Z</time></trkpt><trkpt lat="38.127071" lon="14.9038458"><ele>570.0</ele><time>2026-03-29T12:39:34.728Z</time></trkpt><trkpt lat="38.1270272" lon="14.9039546"><ele>570.0</ele><time>2026-03-29T12:39:36.728Z</time></trkpt><trkpt lat="38.1269626" lon="14.9040687"><ele>570.0</ele><time>2026-03-29T12:39:38.727Z</time></trkpt><trkpt lat="38.126916" lon="14.9041944"><ele>570.0</ele><time>2026-03-29T12:39:40.727Z</time></trkpt><trkpt lat="38.1268816" lon="14.9043221"><ele>570.0</ele><time>2026-03-29T12:39:42.728Z</time></trkpt><trkpt lat="38.1268445" lon="14.9044492"><ele>570.0</ele><time>2026-03-29T12:39:44.728Z</time></trkpt><trkpt lat="38.1268072" lon="14.9043361"><ele>570.0</ele><time>2026-03-29T12:39:49.727Z</time></trkpt><trkpt lat="38.1268153" lon="14.9042553"><ele>570.0</ele><time>2026-03-29T12:39:50.727Z</time></trkpt><trkpt lat="38.1268193" lon="14.904165"><ele>570.0</ele><time>2026-03-29T12:39:51.727Z</time></trkpt><trkpt lat="38.1268187" lon="14.9040527"><ele>570.0</ele><time>2026-03-29T12:39:52.727Z</time></trkpt><trkpt lat="38.1268221" lon="14.9039418"><ele>570.0</ele><time>2026-03-29T12:39:53.728Z</time></trkpt><trkpt lat="38.1268299" lon="14.9038568"><ele>570.0</ele><time>2026-03-29T12:39:54.728Z</time></trkpt><trkpt lat="38.1268042" lon="14.9037092"><ele>570.0</ele><time>2026-03-29T12:39:56.728Z</time></trkpt><trkpt lat="38.1267763" lon="14.9036342"><ele>570.0</ele><time>2026-03-29T12:39:57.728Z</time></trkpt><trkpt lat="38.1267491" lon="14.9035528"><ele>570.0</ele><time>2026-03-29T12:39:58.728Z</time></trkpt><trkpt lat="38.1267489" lon="14.9034082"><ele>570.0</ele><time>2026-03-29T12:40:00.728Z</time></trkpt><trkpt lat="38.1267977" lon="14.9032763"><ele>570.0</ele><time>2026-03-29T12:40:02.728Z</time></trkpt><trkpt lat="38.1268108" lon="14.9031963"><ele>570.0</ele><time>2026-03-29T12:40:03.727Z</time></trkpt><trkpt lat="38.1267846" lon="14.9030468"><ele>572.6</ele><time>2026-03-29T12:40:05.727Z</time></trkpt><trkpt lat="38.126741" lon="14.9029859"><ele>575.2</ele><time>2026-03-29T12:40:06.728Z</time></trkpt><trkpt lat="38.1266585" lon="14.9029003"><ele>577.8</ele><time>2026-03-29T12:40:08.728Z</time></trkpt><trkpt lat="38.1265659" lon="14.9027968"><ele>580.4</ele><time>2026-03-29T12:40:10.728Z</time></trkpt><trkpt lat="38.126521" lon="14.9026822"><ele>583.0</ele><time>2026-03-29T12:40:12.727Z</time></trkpt><trkpt lat="38.126499" lon="14.9026014"><ele>589.8571428571429</ele><time>2026-03-29T12:40:13.727Z</time></trkpt><trkpt lat="38.1264599" lon="14.9025297"><ele>596.7142857142858</ele><time>2026-03-29T12:40:14.727Z</time></trkpt><trkpt lat="38.1264188" lon="14.9024626"><ele>603.5714285714287</ele><time>2026-03-29T12:40:15.728Z</time></trkpt><trkpt lat="38.1263819" lon="14.9023927"><ele>610.4285714285714</ele><time>2026-03-29T12:40:16.728Z</time></trkpt><trkpt lat="38.1263423" lon="14.9023253"><ele>617.2857142857142</ele><time>2026-03-29T12:40:17.727Z</time></trkpt><trkpt lat="38.1262842" lon="14.9022592"><ele>624.1428571428572</ele><time>2026-03-29T12:40:18.728Z</time></trkpt><trkpt lat="38.1262158" lon="14.9021922"><ele>631.0</ele><time>2026-03-29T12:40:19.727Z</time></trkpt><trkpt lat="38.1261409" lon="14.9021312"><ele>631.0</ele><time>2026-03-29T12:40:20.728Z</time></trkpt><trkpt lat="38.126078" lon="14.9020556"><ele>631.0</ele><time>2026-03-29T12:40:21.728Z</time></trkpt><trkpt lat="38.1260272" lon="14.9019769"><ele>631.0</ele><time>2026-03-29T12:40:22.727Z</time></trkpt><trkpt lat="38.1259715" lon="14.9018897"><ele>631.0</ele><time>2026-03-29T12:40:24.728Z</time></trkpt><trkpt lat="38.1259241" lon="14.9019554"><ele>631.0</ele><time>2026-03-29T12:40:27.728Z</time></trkpt><trkpt lat="38.1259762" lon="14.9021032"><ele>631.0</ele><time>2026-03-29T12:40:29.728Z</time></trkpt><trkpt lat="38.1260293" lon="14.9022096"><ele>631.0</ele><time>2026-03-29T12:40:30.728Z</time></trkpt><trkpt lat="38.1260818" lon="14.9023077"><ele>631.0</ele><time>2026-03-29T12:40:31.728Z</time></trkpt><trkpt lat="38.1261256" lon="14.9023943"><ele>631.0</ele><time>2026-03-29T12:40:32.727Z</time></trkpt><trkpt lat="38.1261639" lon="14.9024703"><ele>631.0</ele><time>2026-03-29T12:40:33.728Z</time></trkpt><trkpt lat="38.126199" lon="14.9025498"><ele>631.0</ele><time>2026-03-29T12:40:34.727Z</time></trkpt><trkpt lat="38.1262396" lon="14.9026232"><ele>629.0</ele><time>2026-03-29T12:40:35.728Z</time></trkpt><trkpt lat="38.1262927" lon="14.9027562"><ele>627.0</ele><time>2026-03-29T12:40:37.728Z</time></trkpt><trkpt lat="38.1262648" lon="14.9028725"><ele>625.0</ele><time>2026-03-29T12:40:39.728Z</time></trkpt><trkpt lat="38.1262171" lon="14.902926"><ele>623.0</ele><time>2026-03-29T12:40:40.728Z</time></trkpt><trkpt lat="38.1261571" lon="14.902981"><ele>621.0</ele><time>2026-03-29T12:40:41.727Z</time></trkpt><trkpt lat="38.1260912" lon="14.9030483"><ele>619.0</ele><time>2026-03-29T12:40:42.728Z</time></trkpt><trkpt lat="38.1260218" lon="14.9031295"><ele>619.0</ele><time>2026-03-29T12:40:43.728Z</time></trkpt><trkpt lat="38.1259629" lon="14.9032003"><ele>619.0</ele><time>2026-03-29T12:40:44.727Z</time></trkpt><trkpt lat="38.1259203" lon="14.903265"><ele>619.0</ele><time>2026-03-29T12:40:45.728Z</time></trkpt><trkpt lat="38.1258669" lon="14.9033609"><ele>619.0</ele><time>2026-03-29T12:40:47.728Z</time></trkpt><trkpt lat="38.1258006" lon="14.9033778"><ele>619.0</ele><time>2026-03-29T12:40:50.728Z</time></trkpt><trkpt lat="38.1257642" lon="14.9033108"><ele>619.0</ele><time>2026-03-29T12:40:52.728Z</time></trkpt><trkpt lat="38.1256996" lon="14.903206"><ele>621.0</ele><time>2026-03-29T12:40:54.728Z</time></trkpt><trkpt lat="38.1256553" lon="14.9031396"><ele>623.0</ele><time>2026-03-29T12:40:55.727Z</time></trkpt><trkpt lat="38.1256193" lon="14.9030677"><ele>625.0</ele><time>2026-03-29T12:40:56.728Z</time></trkpt><trkpt lat="38.1255836" lon="14.9029859"><ele>627.0</ele><time>2026-03-29T12:40:57.728Z</time></trkpt><trkpt lat="38.1255445" lon="14.9029032"><ele>629.0</ele><time>2026-03-29T12:40:58.728Z</time></trkpt><trkpt lat="38.1255022" lon="14.9028173"><ele>631.0</ele><time>2026-03-29T12:40:59.729Z</time></trkpt><trkpt lat="38.1254502" lon="14.9027259"><ele>631.0</ele><time>2026-03-29T12:41:00.729Z</time></trkpt><trkpt lat="38.1253844" lon="14.902649"><ele>631.0</ele><time>2026-03-29T12:41:01.728Z</time></trkpt><trkpt lat="38.1253087" lon="14.9025782"><ele>631.0</ele><time>2026-03-29T12:41:02.729Z</time></trkpt><trkpt lat="38.1252425" lon="14.9025159"><ele>631.0</ele><time>2026-03-29T12:41:03.728Z</time></trkpt><trkpt lat="38.125181" lon="14.9024614"><ele>631.0</ele><time>2026-03-29T12:41:04.729Z</time></trkpt><trkpt lat="38.1251256" lon="14.9024051"><ele>631.0</ele><time>2026-03-29T12:41:05.729Z</time></trkpt><trkpt lat="38.1250747" lon="14.9023383"><ele>635.0</ele><time>2026-03-29T12:41:06.728Z</time></trkpt><trkpt lat="38.1250214" lon="14.902257"><ele>639.0</ele><time>2026-03-29T12:41:07.729Z</time></trkpt><trkpt lat="38.1249703" lon="14.9021789"><ele>643.0</ele><time>2026-03-29T12:41:08.729Z</time></trkpt><trkpt lat="38.1249225" lon="14.9021179"><ele>647.0</ele><time>2026-03-29T12:41:09.729Z</time></trkpt><trkpt lat="38.1248692" lon="14.9020743"><ele>651.0</ele><time>2026-03-29T12:41:10.728Z</time></trkpt><trkpt lat="38.1248123" lon="14.9020299"><ele>655.0</ele><time>2026-03-29T12:41:11.729Z</time></trkpt><trkpt lat="38.1247515" lon="14.9019824"><ele>659.0</ele><time>2026-03-29T12:41:12.729Z</time></trkpt><trkpt lat="38.1246986" lon="14.9019295"><ele>662.8333333333333</ele><time>2026-03-29T12:41:13.728Z</time></trkpt><trkpt lat="38.1246541" lon="14.9018464"><ele>666.6666666666666</ele><time>2026-03-29T12:41:15.729Z</time></trkpt><trkpt lat="38.1247026" lon="14.9017802"><ele>670.5</ele><time>2026-03-29T12:41:18.729Z</time></trkpt><trkpt lat="38.12482" lon="14.9017517"><ele>674.3333333333334</ele><time>2026-03-29T12:41:59.729Z</time></trkpt><trkpt lat="38.124885" lon="14.9017433"><ele>678.1666666666667</ele><time>2026-03-29T12:42:36.729Z</time></trkpt><trkpt lat="38.1249367" lon="14.9016683"><ele>682.0</ele><time>2026-03-29T12:42:38.729Z</time></trkpt><trkpt lat="38.124985" lon="14.9016017"><ele>682.0</ele><time>2026-03-29T12:42:40.728Z</time></trkpt><trkpt lat="38.1250233" lon="14.90152"><ele>682.0</ele><time>2026-03-29T12:42:42.729Z</time></trkpt><trkpt lat="38.12503" lon="14.9014367"><ele>682.0</ele><time>2026-03-29T12:42:44.729Z</time></trkpt><trkpt lat="38.124945" lon="14.9013767"><ele>682.0</ele><time>2026-03-29T12:42:47.728Z</time></trkpt><trkpt lat="38.1248667" lon="14.901345"><ele>682.0</ele><time>2026-03-29T12:42:49.729Z</time></trkpt><trkpt lat="38.1248083" lon="14.901315"><ele>682.0</ele><time>2026-03-29T12:42:51.729Z</time></trkpt><trkpt lat="38.1247733" lon="14.9012433"><ele>682.0</ele><time>2026-03-29T12:42:54.729Z</time></trkpt><trkpt lat="38.1247483" lon="14.9011517"><ele>687.6666666666667</ele><time>2026-03-29T12:42:59.728Z</time></trkpt><trkpt lat="38.1247017" lon="14.901045"><ele>693.3333333333334</ele><time>2026-03-29T12:43:01.729Z</time></trkpt><trkpt lat="38.124675" lon="14.9009583"><ele>699.0</ele><time>2026-03-29T12:43:03.728Z</time></trkpt><trkpt lat="38.124665" lon="14.900875"><ele>704.6666666666666</ele><time>2026-03-29T12:43:05.728Z</time></trkpt><trkpt lat="38.1247217" lon="14.9008133"><ele>710.3333333333333</ele><time>2026-03-29T12:43:08.729Z</time></trkpt><trkpt lat="38.1247967" lon="14.9007417"><ele>716.0</ele><time>2026-03-29T12:43:11.728Z</time></trkpt><trkpt lat="38.1248417" lon="14.9006833"><ele>714.1666666666666</ele><time>2026-03-29T12:43:13.729Z</time></trkpt><trkpt lat="38.12489" lon="14.900605"><ele>712.3333333333333</ele><time>2026-03-29T12:43:16.729Z</time></trkpt><trkpt lat="38.1249033" lon="14.9005267"><ele>710.5</ele><time>2026-03-29T12:43:43.729Z</time></trkpt><trkpt lat="38.1249167" lon="14.900425"><ele>708.6666666666666</ele><time>2026-03-29T12:43:47.729Z</time></trkpt><trkpt lat="38.1249067" lon="14.900315"><ele>706.8333333333334</ele><time>2026-03-29T12:43:50.729Z</time></trkpt><trkpt lat="38.124925" lon="14.900215"><ele>705.0</ele><time>2026-03-29T12:43:52.729Z</time></trkpt><trkpt lat="38.12496" lon="14.9000767"><ele>710.2</ele><time>2026-03-29T12:43:54.729Z</time></trkpt><trkpt lat="38.1249717" lon="14.8999633"><ele>715.4</ele><time>2026-03-29T12:43:56.729Z</time></trkpt><trkpt lat="38.124975" lon="14.89986"><ele>720.5999999999999</ele><time>2026-03-29T12:43:58.729Z</time></trkpt><trkpt lat="38.1250133" lon="14.89977"><ele>725.8</ele><time>2026-03-29T12:44:00.728Z</time></trkpt><trkpt lat="38.1250933" lon="14.89971"><ele>731.0</ele><time>2026-03-29T12:44:02.729Z</time></trkpt><trkpt lat="38.1252017" lon="14.8996983"><ele>731.0</ele><time>2026-03-29T12:44:04.729Z</time></trkpt><trkpt lat="38.1252933" lon="14.8997"><ele>731.0</ele><time>2026-03-29T12:44:06.728Z</time></trkpt><trkpt lat="38.1253717" lon="14.89965"><ele>731.0</ele><time>2026-03-29T12:44:09.729Z</time></trkpt><trkpt lat="38.125305" lon="14.8996817"><ele>731.0</ele><time>2026-03-29T12:45:18.728Z</time></trkpt><trkpt lat="38.125235" lon="14.8997"><ele>731.0</ele><time>2026-03-29T12:45:20.729Z</time></trkpt><trkpt lat="38.1251683" lon="14.8997017"><ele>731.0</ele><time>2026-03-29T12:45:22.729Z</time></trkpt><trkpt lat="38.1250767" lon="14.8997083"><ele>731.0</ele><time>2026-03-29T12:45:25.729Z</time></trkpt><trkpt lat="38.12501" lon="14.8996433"><ele>731.0</ele><time>2026-03-29T12:45:28.729Z</time></trkpt><trkpt lat="38.1249817" lon="14.89952"><ele>731.0</ele><time>2026-03-29T12:45:30.728Z</time></trkpt><trkpt lat="38.1250217" lon="14.8993967"><ele>731.0</ele><time>2026-03-29T12:45:32.728Z</time></trkpt><trkpt lat="38.12513" lon="14.8992933"><ele>731.0</ele><time>2026-03-29T12:45:34.728Z</time></trkpt><trkpt lat="38.1252" lon="14.8992083"><ele>733.0</ele><time>2026-03-29T12:45:36.728Z</time></trkpt><trkpt lat="38.1252683" lon="14.8991817"><ele>735.0</ele><time>2026-03-29T12:45:38.729Z</time></trkpt><trkpt lat="38.12533" lon="14.8991083"><ele>737.0</ele><time>2026-03-29T12:45:40.729Z</time></trkpt><trkpt lat="38.1253917" lon="14.89902"><ele>739.0</ele><time>2026-03-29T12:45:42.729Z</time></trkpt><trkpt lat="38.125455" lon="14.8989683"><ele>741.0</ele><time>2026-03-29T12:45:44.729Z</time></trkpt><trkpt lat="38.1255183" lon="14.8989233"><ele>743.0</ele><time>2026-03-29T12:45:48.729Z</time></trkpt><trkpt lat="38.125555" lon="14.898855"><ele>743.0</ele><time>2026-03-29T12:45:50.728Z</time></trkpt><trkpt lat="38.12549" lon="14.898805"><ele>743.0</ele><time>2026-03-29T12:45:54.728Z</time></trkpt><trkpt lat="38.1253683" lon="14.8988467"><ele>743.0</ele><time>2026-03-29T12:45:56.729Z</time></trkpt><trkpt lat="38.1252817" lon="14.8988667"><ele>743.0</ele><time>2026-03-29T12:45:57.729Z</time></trkpt><trkpt lat="38.125185" lon="14.898885"><ele>743.0</ele><time>2026-03-29T12:45:58.729Z</time></trkpt><trkpt lat="38.1250933" lon="14.8989"><ele>743.0</ele><time>2026-03-29T12:45:59.729Z</time></trkpt><trkpt lat="38.12501" lon="14.89891"><ele>743.0</ele><time>2026-03-29T12:46:00.729Z</time></trkpt><trkpt lat="38.124935" lon="14.898905"><ele>743.0</ele><time>2026-03-29T12:46:01.728Z</time></trkpt><trkpt lat="38.124865" lon="14.898885"><ele>743.0</ele><time>2026-03-29T12:46:02.729Z</time></trkpt><trkpt lat="38.1247367" lon="14.8988383"><ele>743.0</ele><time>2026-03-29T12:46:04.728Z</time></trkpt><trkpt lat="38.1246617" lon="14.89884"><ele>743.0</ele><time>2026-03-29T12:46:05.729Z</time></trkpt><trkpt lat="38.12459" lon="14.898855"><ele>744.8</ele><time>2026-03-29T12:46:06.729Z</time></trkpt><trkpt lat="38.1244933" lon="14.8989033"><ele>746.5999999999999</ele><time>2026-03-29T12:46:08.728Z</time></trkpt><trkpt lat="38.12439" lon="14.8989117"><ele>748.4000000000001</ele><time>2026-03-29T12:46:10.729Z</time></trkpt><trkpt lat="38.12427" lon="14.89887"><ele>750.2</ele><time>2026-03-29T12:46:12.728Z</time></trkpt><trkpt lat="38.124195" lon="14.8988783"><ele>752.0</ele><time>2026-03-29T12:46:13.729Z</time></trkpt><trkpt lat="38.1241317" lon="14.898915"><ele>752.0</ele><time>2026-03-29T12:46:14.728Z</time></trkpt><trkpt lat="38.1240767" lon="14.8989667"><ele>752.0</ele><time>2026-03-29T12:46:15.729Z</time></trkpt><trkpt lat="38.1240283" lon="14.89904"><ele>752.0</ele><time>2026-03-29T12:46:16.728Z</time></trkpt><trkpt lat="38.123925" lon="14.89912"><ele>752.0</ele><time>2026-03-29T12:46:18.729Z</time></trkpt><trkpt lat="38.12388" lon="14.8991883"><ele>752.0</ele><time>2026-03-29T12:46:20.729Z</time></trkpt><trkpt lat="38.1239617" lon="14.899295"><ele>756.5</ele><time>2026-03-29T12:46:22.728Z</time></trkpt><trkpt lat="38.123995" lon="14.8993683"><ele>761.0</ele><time>2026-03-29T12:46:23.729Z</time></trkpt><trkpt lat="38.124015" lon="14.89946"><ele>765.5</ele><time>2026-03-29T12:46:24.728Z</time></trkpt><trkpt lat="38.1240283" lon="14.8995667"><ele>770.0</ele><time>2026-03-29T12:46:25.728Z</time></trkpt><trkpt lat="38.1240383" lon="14.8996733"><ele>774.5000000000001</ele><time>2026-03-29T12:46:26.729Z</time></trkpt><trkpt lat="38.1240417" lon="14.8997733"><ele>779.0</ele><time>2026-03-29T12:46:27.729Z</time></trkpt><trkpt lat="38.1240317" lon="14.8998667"><ele>779.0000000000001</ele><time>2026-03-29T12:46:28.729Z</time></trkpt><trkpt lat="38.1240117" lon="14.899955"><ele>779.0</ele><time>2026-03-29T12:46:29.729Z</time></trkpt><trkpt lat="38.1239633" lon="14.9000433"><ele>779.0</ele><time>2026-03-29T12:46:30.728Z</time></trkpt><trkpt lat="38.1239117" lon="14.90012"><ele>779.0</ele><time>2026-03-29T12:46:31.729Z</time></trkpt><trkpt lat="38.1238633" lon="14.90019"><ele>779.0000000000001</ele><time>2026-03-29T12:46:32.728Z</time></trkpt><trkpt lat="38.1238067" lon="14.900265"><ele>779.0</ele><time>2026-03-29T12:46:33.728Z</time></trkpt><trkpt lat="38.12375" lon="14.9003483"><ele>779.0000000000001</ele><time>2026-03-29T12:46:34.728Z</time></trkpt><trkpt lat="38.1236817" lon="14.90043"><ele>779.0</ele><time>2026-03-29T12:46:35.729Z</time></trkpt><trkpt lat="38.12362" lon="14.9005133"><ele>779.0</ele><time>2026-03-29T12:46:36.729Z</time></trkpt><trkpt lat="38.12358" lon="14.9005917"><ele>779.0</ele><time>2026-03-29T12:46:37.729Z</time></trkpt><trkpt lat="38.123555" lon="14.9006667"><ele>779.0000000000001</ele><time>2026-03-29T12:46:38.729Z</time></trkpt><trkpt lat="38.1234967" lon="14.9007817"><ele>779.0</ele><time>2026-03-29T12:46:40.728Z</time></trkpt><trkpt lat="38.1234117" lon="14.90089"><ele>779.5714285714287</ele><time>2026-03-29T12:46:42.728Z</time></trkpt><trkpt lat="38.1233633" lon="14.9009483"><ele>780.1428571428571</ele><time>2026-03-29T12:46:43.729Z</time></trkpt><trkpt lat="38.1232833" lon="14.9010533"><ele>780.7142857142858</ele><time>2026-03-29T12:46:45.729Z</time></trkpt><trkpt lat="38.12324" lon="14.9011167"><ele>781.2857142857143</ele><time>2026-03-29T12:46:46.729Z</time></trkpt><trkpt lat="38.1231933" lon="14.90118"><ele>781.8571428571429</ele><time>2026-03-29T12:46:47.728Z</time></trkpt><trkpt lat="38.12315" lon="14.9012417"><ele>782.4285714285714</ele><time>2026-03-29T12:46:48.729Z</time></trkpt><trkpt lat="38.123115" lon="14.9013083"><ele>783.0</ele><time>2026-03-29T12:46:49.728Z</time></trkpt><trkpt lat="38.1230417" lon="14.9014483"><ele>783.0</ele><time>2026-03-29T12:46:51.729Z</time></trkpt><trkpt lat="38.1229717" lon="14.901565"><ele>783.0</ele><time>2026-03-29T12:46:53.73Z</time></trkpt><trkpt lat="38.1229" lon="14.9017167"><ele>783.0</ele><time>2026-03-29T12:46:55.73Z</time></trkpt><trkpt lat="38.1228667" lon="14.901805"><ele>783.0</ele><time>2026-03-29T12:46:56.73Z</time></trkpt><trkpt lat="38.1228367" lon="14.9018767"><ele>783.0</ele><time>2026-03-29T12:46:57.73Z</time></trkpt><trkpt lat="38.1227733" lon="14.9019533"><ele>784.1666666666666</ele><time>2026-03-29T12:46:59.729Z</time></trkpt><trkpt lat="38.1227217" lon="14.90201"><ele>785.3333333333333</ele><time>2026-03-29T12:47:00.73Z</time></trkpt><trkpt lat="38.1226567" lon="14.9020717"><ele>786.5</ele><time>2026-03-29T12:47:01.729Z</time></trkpt><trkpt lat="38.12258" lon="14.9021383"><ele>787.6666666666666</ele><time>2026-03-29T12:47:02.73Z</time></trkpt><trkpt lat="38.122505" lon="14.9022117"><ele>788.8333333333333</ele><time>2026-03-29T12:47:03.73Z</time></trkpt><trkpt lat="38.1224233" lon="14.9022967"><ele>790.0</ele><time>2026-03-29T12:47:04.729Z</time></trkpt><trkpt lat="38.1223483" lon="14.90239"><ele>790.6</ele><time>2026-03-29T12:47:05.73Z</time></trkpt><trkpt lat="38.12227" lon="14.9024933"><ele>791.2</ele><time>2026-03-29T12:47:06.73Z</time></trkpt><trkpt lat="38.1222167" lon="14.9025733"><ele>791.8</ele><time>2026-03-29T12:47:07.729Z</time></trkpt><trkpt lat="38.1221667" lon="14.9026333"><ele>792.4</ele><time>2026-03-29T12:47:08.729Z</time></trkpt><trkpt lat="38.1220283" lon="14.9026683"><ele>793.0</ele><time>2026-03-29T12:47:10.73Z</time></trkpt><trkpt lat="38.1219383" lon="14.9026683"><ele>795.8</ele><time>2026-03-29T12:47:11.729Z</time></trkpt><trkpt lat="38.1218533" lon="14.9026883"><ele>798.5999999999999</ele><time>2026-03-29T12:47:12.729Z</time></trkpt><trkpt lat="38.1217633" lon="14.9027217"><ele>801.4000000000001</ele><time>2026-03-29T12:47:13.729Z</time></trkpt><trkpt lat="38.1216867" lon="14.9027883"><ele>804.2</ele><time>2026-03-29T12:47:14.73Z</time></trkpt><trkpt lat="38.121595" lon="14.9028767"><ele>807.0</ele><time>2026-03-29T12:47:15.73Z</time></trkpt><trkpt lat="38.1215083" lon="14.9029717"><ele>807.0</ele><time>2026-03-29T12:47:16.729Z</time></trkpt><trkpt lat="38.12143" lon="14.90307"><ele>807.0</ele><time>2026-03-29T12:47:17.729Z</time></trkpt><trkpt lat="38.1213333" lon="14.90318"><ele>807.0</ele><time>2026-03-29T12:47:18.73Z</time></trkpt><trkpt lat="38.12124" lon="14.9032833"><ele>807.0</ele><time>2026-03-29T12:47:19.73Z</time></trkpt><trkpt lat="38.12115" lon="14.9033783"><ele>812.8</ele><time>2026-03-29T12:47:20.73Z</time></trkpt><trkpt lat="38.1210717" lon="14.9034633"><ele>818.6</ele><time>2026-03-29T12:47:21.729Z</time></trkpt><trkpt lat="38.121" lon="14.9035217"><ele>824.4</ele><time>2026-03-29T12:47:22.729Z</time></trkpt><trkpt lat="38.1209383" lon="14.9035967"><ele>830.1999999999999</ele><time>2026-03-29T12:47:23.73Z</time></trkpt><trkpt lat="38.1208767" lon="14.90369"><ele>836.0</ele><time>2026-03-29T12:47:24.729Z</time></trkpt><trkpt lat="38.120815" lon="14.9037883"><ele>836.0000000000001</ele><time>2026-03-29T12:47:25.729Z</time></trkpt><trkpt lat="38.1207533" lon="14.9038917"><ele>836.0</ele><time>2026-03-29T12:47:26.729Z</time></trkpt><trkpt lat="38.1207033" lon="14.90398"><ele>836.0</ele><time>2026-03-29T12:47:27.73Z</time></trkpt><trkpt lat="38.1206633" lon="14.9040683"><ele>836.0</ele><time>2026-03-29T12:47:28.73Z</time></trkpt><trkpt lat="38.1206117" lon="14.9041483"><ele>836.0000000000001</ele><time>2026-03-29T12:47:29.729Z</time></trkpt><trkpt lat="38.12054" lon="14.904225"><ele>836.0</ele><time>2026-03-29T12:47:30.73Z</time></trkpt><trkpt lat="38.1204683" lon="14.9042883"><ele>836.4</ele><time>2026-03-29T12:47:31.73Z</time></trkpt><trkpt lat="38.12039" lon="14.9043517"><ele>836.8</ele><time>2026-03-29T12:47:32.729Z</time></trkpt><trkpt lat="38.12031" lon="14.904415"><ele>837.1999999999999</ele><time>2026-03-29T12:47:33.73Z</time></trkpt><trkpt lat="38.120225" lon="14.90449"><ele>837.5999999999999</ele><time>2026-03-29T12:47:34.729Z</time></trkpt><trkpt lat="38.1201417" lon="14.9045583"><ele>838.0</ele><time>2026-03-29T12:47:35.729Z</time></trkpt><trkpt lat="38.12007" lon="14.904625"><ele>838.0</ele><time>2026-03-29T12:47:36.73Z</time></trkpt><trkpt lat="38.119985" lon="14.9046883"><ele>838.0</ele><time>2026-03-29T12:47:37.729Z</time></trkpt><trkpt lat="38.1198967" lon="14.9047483"><ele>838.0</ele><time>2026-03-29T12:47:38.729Z</time></trkpt><trkpt lat="38.1197933" lon="14.9047883"><ele>838.0</ele><time>2026-03-29T12:47:39.73Z</time></trkpt><trkpt lat="38.1196983" lon="14.9048283"><ele>838.0</ele><time>2026-03-29T12:47:40.73Z</time></trkpt><trkpt lat="38.11961" lon="14.9048767"><ele>840.5999999999999</ele><time>2026-03-29T12:47:41.73Z</time></trkpt><trkpt lat="38.1195383" lon="14.9049133"><ele>843.1999999999999</ele><time>2026-03-29T12:47:42.73Z</time></trkpt><trkpt lat="38.1194383" lon="14.904975"><ele>845.8</ele><time>2026-03-29T12:47:44.73Z</time></trkpt><trkpt lat="38.1193183" lon="14.9050467"><ele>848.4</ele><time>2026-03-29T12:47:46.729Z</time></trkpt><trkpt lat="38.11922" lon="14.9050433"><ele>851.0</ele><time>2026-03-29T12:47:47.73Z</time></trkpt><trkpt lat="38.1191217" lon="14.905015"><ele>852.75</ele><time>2026-03-29T12:47:48.729Z</time></trkpt><trkpt lat="38.11901" lon="14.904965"><ele>854.5</ele><time>2026-03-29T12:47:49.729Z</time></trkpt><trkpt lat="38.1189017" lon="14.9048833"><ele>856.25</ele><time>2026-03-29T12:47:50.729Z</time></trkpt><trkpt lat="38.118785" lon="14.9048083"><ele>858.0</ele><time>2026-03-29T12:47:51.73Z</time></trkpt><trkpt lat="38.1186683" lon="14.904745"><ele>858.0</ele><time>2026-03-29T12:47:52.729Z</time></trkpt><trkpt lat="38.1185717" lon="14.9047067"><ele>858.0</ele><time>2026-03-29T12:47:53.73Z</time></trkpt><trkpt lat="38.1184983" lon="14.904685"><ele>858.0</ele><time>2026-03-29T12:47:54.729Z</time></trkpt><trkpt lat="38.118395" lon="14.9046833"><ele>858.0</ele><time>2026-03-29T12:47:56.73Z</time></trkpt><trkpt lat="38.1184133" lon="14.9047833"><ele>858.0</ele><time>2026-03-29T12:47:59.73Z</time></trkpt><trkpt lat="38.1184733" lon="14.9048267"><ele>858.0</ele><time>2026-03-29T12:48:00.729Z</time></trkpt><trkpt lat="38.1185683" lon="14.9048817"><ele>858.0</ele><time>2026-03-29T12:48:01.73Z</time></trkpt><trkpt lat="38.1186817" lon="14.9049717"><ele>858.0</ele><time>2026-03-29T12:48:02.729Z</time></trkpt><trkpt lat="38.1188033" lon="14.9051067"><ele>858.0</ele><time>2026-03-29T12:48:03.73Z</time></trkpt><trkpt lat="38.1189083" lon="14.9052483"><ele>858.0</ele><time>2026-03-29T12:48:04.73Z</time></trkpt><trkpt lat="38.119" lon="14.9054033"><ele>856.8</ele><time>2026-03-29T12:48:05.73Z</time></trkpt><trkpt lat="38.1190583" lon="14.9055367"><ele>855.5999999999999</ele><time>2026-03-29T12:48:06.73Z</time></trkpt><trkpt lat="38.1190917" lon="14.9056533"><ele>854.4000000000001</ele><time>2026-03-29T12:48:07.73Z</time></trkpt><trkpt lat="38.119115" lon="14.9057617"><ele>853.2</ele><time>2026-03-29T12:48:08.729Z</time></trkpt><trkpt lat="38.1191167" lon="14.90588"><ele>852.0</ele><time>2026-03-29T12:48:09.729Z</time></trkpt><trkpt lat="38.1190917" lon="14.906"><ele>856.2</ele><time>2026-03-29T12:48:10.73Z</time></trkpt><trkpt lat="38.119045" lon="14.9061233"><ele>860.4000000000001</ele><time>2026-03-29T12:48:11.73Z</time></trkpt><trkpt lat="38.1189817" lon="14.906235"><ele>864.5999999999999</ele><time>2026-03-29T12:48:12.73Z</time></trkpt><trkpt lat="38.11891" lon="14.90633"><ele>868.8</ele><time>2026-03-29T12:48:13.729Z</time></trkpt><trkpt lat="38.1188267" lon="14.9064117"><ele>873.0</ele><time>2026-03-29T12:48:14.73Z</time></trkpt><trkpt lat="38.118735" lon="14.9064733"><ele>873.0</ele><time>2026-03-29T12:48:15.73Z</time></trkpt><trkpt lat="38.11861" lon="14.9065217"><ele>873.0</ele><time>2026-03-29T12:48:16.73Z</time></trkpt><trkpt lat="38.11847" lon="14.9065733"><ele>873.0</ele><time>2026-03-29T12:48:17.73Z</time></trkpt><trkpt lat="38.1183217" lon="14.90663"><ele>873.0</ele><time>2026-03-29T12:48:18.729Z</time></trkpt><trkpt lat="38.1181917" lon="14.9066983"><ele>870.5</ele><time>2026-03-29T12:48:19.73Z</time></trkpt><trkpt lat="38.11806" lon="14.9067733"><ele>868.0</ele><time>2026-03-29T12:48:20.73Z</time></trkpt><trkpt lat="38.1179117" lon="14.9068283"><ele>865.5</ele><time>2026-03-29T12:48:21.729Z</time></trkpt><trkpt lat="38.11779" lon="14.9068667"><ele>863.0</ele><time>2026-03-29T12:48:22.729Z</time></trkpt><trkpt lat="38.1177" lon="14.906885"><ele>863.0</ele><time>2026-03-29T12:48:23.729Z</time></trkpt><trkpt lat="38.1176383" lon="14.9069083"><ele>863.0</ele><time>2026-03-29T12:48:24.729Z</time></trkpt><trkpt lat="38.1175617" lon="14.9068783"><ele>863.0</ele><time>2026-03-29T12:48:26.73Z</time></trkpt><trkpt lat="38.1176533" lon="14.906795"><ele>863.0</ele><time>2026-03-29T12:48:28.73Z</time></trkpt><trkpt lat="38.117755" lon="14.9067283"><ele>863.0</ele><time>2026-03-29T12:48:29.73Z</time></trkpt><trkpt lat="38.1178717" lon="14.9066517"><ele>865.5</ele><time>2026-03-29T12:48:30.73Z</time></trkpt><trkpt lat="38.118" lon="14.90655"><ele>868.0</ele><time>2026-03-29T12:48:31.73Z</time></trkpt><trkpt lat="38.1181217" lon="14.90644"><ele>870.5</ele><time>2026-03-29T12:48:32.729Z</time></trkpt><trkpt lat="38.1182367" lon="14.90634"><ele>873.0</ele><time>2026-03-29T12:48:33.729Z</time></trkpt><trkpt lat="38.118335" lon="14.9062483"><ele>873.0</ele><time>2026-03-29T12:48:34.729Z</time></trkpt><trkpt lat="38.1184133" lon="14.9061717"><ele>873.0</ele><time>2026-03-29T12:48:35.729Z</time></trkpt><trkpt lat="38.1184767" lon="14.9061133"><ele>873.0</ele><time>2026-03-29T12:48:36.729Z</time></trkpt><trkpt lat="38.1185533" lon="14.90608"><ele>873.0</ele><time>2026-03-29T12:48:38.73Z</time></trkpt><trkpt lat="38.1184717" lon="14.9061133"><ele>873.0</ele><time>2026-03-29T12:49:44.73Z</time></trkpt><trkpt lat="38.11839" lon="14.9062167"><ele>873.0</ele><time>2026-03-29T12:49:46.73Z</time></trkpt><trkpt lat="38.11834" lon="14.906275"><ele>873.0</ele><time>2026-03-29T12:49:47.73Z</time></trkpt><trkpt lat="38.1182733" lon="14.9063333"><ele>873.0</ele><time>2026-03-29T12:49:48.73Z</time></trkpt><trkpt lat="38.1182" lon="14.9064017"><ele>873.0</ele><time>2026-03-29T12:49:49.729Z</time></trkpt><trkpt lat="38.1181333" lon="14.9064583"><ele>873.0</ele><time>2026-03-29T12:49:50.73Z</time></trkpt><trkpt lat="38.11807" lon="14.90651"><ele>873.0</ele><time>2026-03-29T12:49:51.73Z</time></trkpt><trkpt lat="38.118005" lon="14.9065633"><ele>875.8333333333334</ele><time>2026-03-29T12:49:52.729Z</time></trkpt><trkpt lat="38.1179317" lon="14.9066117"><ele>878.6666666666667</ele><time>2026-03-29T12:49:53.73Z</time></trkpt><trkpt lat="38.117855" lon="14.9066567"><ele>881.5</ele><time>2026-03-29T12:49:54.729Z</time></trkpt><trkpt lat="38.117775" lon="14.906695"><ele>884.3333333333334</ele><time>2026-03-29T12:49:55.73Z</time></trkpt><trkpt lat="38.1177" lon="14.9067183"><ele>887.1666666666667</ele><time>2026-03-29T12:49:56.73Z</time></trkpt><trkpt lat="38.1176183" lon="14.9067367"><ele>890.0</ele><time>2026-03-29T12:49:57.73Z</time></trkpt><trkpt lat="38.1175433" lon="14.9067433"><ele>890.0</ele><time>2026-03-29T12:49:58.73Z</time></trkpt><trkpt lat="38.1174767" lon="14.9067383"><ele>890.0</ele><time>2026-03-29T12:49:59.73Z</time></trkpt><trkpt lat="38.1173583" lon="14.9067467"><ele>890.0</ele><time>2026-03-29T12:50:01.73Z</time></trkpt><trkpt lat="38.1172283" lon="14.9067733"><ele>890.0</ele><time>2026-03-29T12:50:03.73Z</time></trkpt><trkpt lat="38.11716" lon="14.9067833"><ele>890.0</ele><time>2026-03-29T12:50:04.73Z</time></trkpt><trkpt lat="38.1170883" lon="14.9067917"><ele>889.7142857142858</ele><time>2026-03-29T12:50:05.73Z</time></trkpt><trkpt lat="38.1170233" lon="14.9068017"><ele>889.4285714285713</ele><time>2026-03-29T12:50:06.729Z</time></trkpt><trkpt lat="38.1169567" lon="14.9068217"><ele>889.1428571428571</ele><time>2026-03-29T12:50:07.729Z</time></trkpt><trkpt lat="38.1168817" lon="14.906855"><ele>888.8571428571429</ele><time>2026-03-29T12:50:08.73Z</time></trkpt><trkpt lat="38.1168133" lon="14.9069083"><ele>888.5714285714287</ele><time>2026-03-29T12:50:09.729Z</time></trkpt><trkpt lat="38.1167567" lon="14.9069567"><ele>888.2857142857142</ele><time>2026-03-29T12:50:10.729Z</time></trkpt><trkpt lat="38.1167017" lon="14.90701"><ele>888.0</ele><time>2026-03-29T12:50:11.73Z</time></trkpt><trkpt lat="38.1166433" lon="14.9070633"><ele>888.0</ele><time>2026-03-29T12:50:12.73Z</time></trkpt><trkpt lat="38.11659" lon="14.9071083"><ele>888.0</ele><time>2026-03-29T12:50:13.73Z</time></trkpt><trkpt lat="38.116495" lon="14.9071967"><ele>888.0</ele><time>2026-03-29T12:50:15.73Z</time></trkpt><trkpt lat="38.11645" lon="14.907255"><ele>888.0</ele><time>2026-03-29T12:50:16.73Z</time></trkpt><trkpt lat="38.1163783" lon="14.907385"><ele>888.0</ele><time>2026-03-29T12:50:18.73Z</time></trkpt><trkpt lat="38.11634" lon="14.90745"><ele>888.0</ele><time>2026-03-29T12:50:19.73Z</time></trkpt><trkpt lat="38.1162867" lon="14.9074983"><ele>888.8</ele><time>2026-03-29T12:50:20.73Z</time></trkpt><trkpt lat="38.1162067" lon="14.9075417"><ele>889.5999999999999</ele><time>2026-03-29T12:50:21.729Z</time></trkpt><trkpt lat="38.1161067" lon="14.9075817"><ele>890.4000000000001</ele><time>2026-03-29T12:50:22.729Z</time></trkpt><trkpt lat="38.11601" lon="14.9076417"><ele>891.2</ele><time>2026-03-29T12:50:23.73Z</time></trkpt><trkpt lat="38.115925" lon="14.9076917"><ele>892.0</ele><time>2026-03-29T12:50:24.73Z</time></trkpt><trkpt lat="38.1158517" lon="14.907745"><ele>889.8</ele><time>2026-03-29T12:50:25.73Z</time></trkpt><trkpt lat="38.1157783" lon="14.9077983"><ele>887.6</ele><time>2026-03-29T12:50:26.729Z</time></trkpt><trkpt lat="38.1156983" lon="14.9078533"><ele>885.3999999999999</ele><time>2026-03-29T12:50:27.73Z</time></trkpt><trkpt lat="38.115605" lon="14.9079217"><ele>883.1999999999999</ele><time>2026-03-29T12:50:28.729Z</time></trkpt><trkpt lat="38.1155117" lon="14.9079817"><ele>881.0</ele><time>2026-03-29T12:50:29.729Z</time></trkpt><trkpt lat="38.1154283" lon="14.908025"><ele>884.2857142857142</ele><time>2026-03-29T12:50:30.729Z</time></trkpt><trkpt lat="38.115365" lon="14.9080417"><ele>887.5714285714287</ele><time>2026-03-29T12:50:31.73Z</time></trkpt><trkpt lat="38.1152983" lon="14.9080417"><ele>890.8571428571429</ele><time>2026-03-29T12:50:32.73Z</time></trkpt><trkpt lat="38.1152317" lon="14.9080533"><ele>894.1428571428571</ele><time>2026-03-29T12:50:33.73Z</time></trkpt><trkpt lat="38.1151617" lon="14.9080483"><ele>897.4285714285713</ele><time>2026-03-29T12:50:34.729Z</time></trkpt><trkpt lat="38.1150783" lon="14.90804"><ele>900.7142857142858</ele><time>2026-03-29T12:50:35.729Z</time></trkpt><trkpt lat="38.1149983" lon="14.9080233"><ele>904.0</ele><time>2026-03-29T12:50:36.73Z</time></trkpt><trkpt lat="38.1149117" lon="14.9080067"><ele>904.7142857142858</ele><time>2026-03-29T12:50:37.729Z</time></trkpt><trkpt lat="38.114835" lon="14.907995"><ele>905.4285714285713</ele><time>2026-03-29T12:50:38.73Z</time></trkpt><trkpt lat="38.1147633" lon="14.9080017"><ele>906.1428571428571</ele><time>2026-03-29T12:50:39.729Z</time></trkpt><trkpt lat="38.1146983" lon="14.908005"><ele>906.8571428571429</ele><time>2026-03-29T12:50:40.729Z</time></trkpt><trkpt lat="38.1146283" lon="14.9080217"><ele>907.5714285714287</ele><time>2026-03-29T12:50:41.73Z</time></trkpt><trkpt lat="38.1145533" lon="14.90804"><ele>908.2857142857142</ele><time>2026-03-29T12:50:42.729Z</time></trkpt><trkpt lat="38.114485" lon="14.9080583"><ele>909.0</ele><time>2026-03-29T12:50:43.73Z</time></trkpt><trkpt lat="38.1143917" lon="14.908085"><ele>909.0</ele><time>2026-03-29T12:50:45.73Z</time></trkpt><trkpt lat="38.1143183" lon="14.9081467"><ele>909.0000000000001</ele><time>2026-03-29T12:50:47.729Z</time></trkpt><trkpt lat="38.1142367" lon="14.9082367"><ele>909.0000000000001</ele><time>2026-03-29T12:50:49.73Z</time></trkpt><trkpt lat="38.1141533" lon="14.9083367"><ele>909.0</ele><time>2026-03-29T12:50:51.729Z</time></trkpt><trkpt lat="38.1140583" lon="14.9084467"><ele>909.0</ele><time>2026-03-29T12:50:53.729Z</time></trkpt><trkpt lat="38.1140133" lon="14.9085033"><ele>908.2</ele><time>2026-03-29T12:50:54.73Z</time></trkpt><trkpt lat="38.1139483" lon="14.9085883"><ele>907.4000000000001</ele><time>2026-03-29T12:50:56.73Z</time></trkpt><trkpt lat="38.113905" lon="14.9086617"><ele>906.6</ele><time>2026-03-29T12:50:58.729Z</time></trkpt><trkpt lat="38.1138417" lon="14.908735"><ele>905.8</ele><time>2026-03-29T12:51:00.73Z</time></trkpt><trkpt lat="38.1137583" lon="14.9087917"><ele>905.0</ele><time>2026-03-29T12:51:02.729Z</time></trkpt><trkpt lat="38.1136667" lon="14.90888"><ele>905.0000000000001</ele><time>2026-03-29T12:51:04.729Z</time></trkpt><trkpt lat="38.1136117" lon="14.9089217"><ele>905.0</ele><time>2026-03-29T12:51:05.73Z</time></trkpt><trkpt lat="38.1135367" lon="14.9089583"><ele>905.0</ele><time>2026-03-29T12:51:06.729Z</time></trkpt><trkpt lat="38.113455" lon="14.9089967"><ele>905.0</ele><time>2026-03-29T12:51:07.73Z</time></trkpt><trkpt lat="38.1133633" lon="14.909035"><ele>905.0000000000001</ele><time>2026-03-29T12:51:08.729Z</time></trkpt><trkpt lat="38.1132783" lon="14.9090833"><ele>905.0</ele><time>2026-03-29T12:51:09.729Z</time></trkpt><trkpt lat="38.1132133" lon="14.90911"><ele>905.2</ele><time>2026-03-29T12:51:10.73Z</time></trkpt><trkpt lat="38.1130933" lon="14.90914"><ele>905.4</ele><time>2026-03-29T12:51:12.73Z</time></trkpt><trkpt lat="38.113015" lon="14.909155"><ele>905.5999999999999</ele><time>2026-03-29T12:51:13.729Z</time></trkpt><trkpt lat="38.112925" lon="14.9091783"><ele>905.8</ele><time>2026-03-29T12:51:14.73Z</time></trkpt><trkpt lat="38.112835" lon="14.9092033"><ele>906.0</ele><time>2026-03-29T12:51:15.73Z</time></trkpt><trkpt lat="38.1127517" lon="14.9092267"><ele>906.8</ele><time>2026-03-29T12:51:16.729Z</time></trkpt><trkpt lat="38.112675" lon="14.9092467"><ele>907.5999999999999</ele><time>2026-03-29T12:51:17.73Z</time></trkpt><trkpt lat="38.112605" lon="14.9092667"><ele>908.4</ele><time>2026-03-29T12:51:18.729Z</time></trkpt><trkpt lat="38.1124933" lon="14.9093017"><ele>909.2</ele><time>2026-03-29T12:51:20.73Z</time></trkpt><trkpt lat="38.112395" lon="14.90931"><ele>910.0</ele><time>2026-03-29T12:51:22.73Z</time></trkpt><trkpt lat="38.112295" lon="14.90931"><ele>915.0</ele><time>2026-03-29T12:51:24.73Z</time></trkpt><trkpt lat="38.11217" lon="14.90933"><ele>920.0</ele><time>2026-03-29T12:51:26.73Z</time></trkpt><trkpt lat="38.1120617" lon="14.9093667"><ele>925.0</ele><time>2026-03-29T12:51:28.73Z</time></trkpt><trkpt lat="38.111965" lon="14.90941"><ele>930.0</ele><time>2026-03-29T12:51:30.729Z</time></trkpt><trkpt lat="38.1118683" lon="14.9094833"><ele>930.0</ele><time>2026-03-29T12:51:32.73Z</time></trkpt><trkpt lat="38.1117967" lon="14.9095883"><ele>930.0</ele><time>2026-03-29T12:51:34.729Z</time></trkpt><trkpt lat="38.1117167" lon="14.9097"><ele>930.0</ele><time>2026-03-29T12:51:36.73Z</time></trkpt><trkpt lat="38.11163" lon="14.9097883"><ele>930.0</ele><time>2026-03-29T12:51:38.729Z</time></trkpt><trkpt lat="38.11155" lon="14.9098567"><ele>930.0</ele><time>2026-03-29T12:51:40.729Z</time></trkpt><trkpt lat="38.1114667" lon="14.9099517"><ele>928.6</ele><time>2026-03-29T12:51:42.729Z</time></trkpt><trkpt lat="38.1113883" lon="14.9100467"><ele>927.2</ele><time>2026-03-29T12:51:44.73Z</time></trkpt><trkpt lat="38.1113217" lon="14.9101267"><ele>925.8</ele><time>2026-03-29T12:51:46.729Z</time></trkpt><trkpt lat="38.11124" lon="14.9102167"><ele>924.4</ele><time>2026-03-29T12:51:48.73Z</time></trkpt><trkpt lat="38.1111583" lon="14.9103167"><ele>923.0</ele><time>2026-03-29T12:51:50.729Z</time></trkpt><trkpt lat="38.11108" lon="14.9104317"><ele>927.5999999999999</ele><time>2026-03-29T12:51:52.729Z</time></trkpt><trkpt lat="38.111015" lon="14.9105317"><ele>932.1999999999999</ele><time>2026-03-29T12:51:54.729Z</time></trkpt><trkpt lat="38.1109583" lon="14.910615"><ele>936.8</ele><time>2026-03-29T12:51:56.73Z</time></trkpt><trkpt lat="38.1108933" lon="14.910715"><ele>941.4</ele><time>2026-03-29T12:51:58.73Z</time></trkpt><trkpt lat="38.11082" lon="14.91083"><ele>946.0</ele><time>2026-03-29T12:52:00.73Z</time></trkpt><trkpt lat="38.11075" lon="14.9109283"><ele>949.0</ele><time>2026-03-29T12:52:02.729Z</time></trkpt><trkpt lat="38.1106467" lon="14.9109783"><ele>951.9999999999999</ele><time>2026-03-29T12:52:04.73Z</time></trkpt><trkpt lat="38.1105417" lon="14.9110117"><ele>954.9999999999999</ele><time>2026-03-29T12:52:06.729Z</time></trkpt><trkpt lat="38.1104617" lon="14.9110667"><ele>958.0</ele><time>2026-03-29T12:52:08.729Z</time></trkpt><trkpt lat="38.1103933" lon="14.91111"><ele>961.0</ele><time>2026-03-29T12:52:10.73Z</time></trkpt><trkpt lat="38.110335" lon="14.911175"><ele>961.0</ele><time>2026-03-29T12:52:12.73Z</time></trkpt><trkpt lat="38.1102783" lon="14.911285"><ele>960.9999999999999</ele><time>2026-03-29T12:52:14.73Z</time></trkpt><trkpt lat="38.110225" lon="14.9114067"><ele>960.9999999999999</ele><time>2026-03-29T12:52:16.73Z</time></trkpt><trkpt lat="38.1101683" lon="14.91154"><ele>961.0</ele><time>2026-03-29T12:52:18.729Z</time></trkpt><trkpt lat="38.1101133" lon="14.911665"><ele>961.0</ele><time>2026-03-29T12:52:20.729Z</time></trkpt><trkpt lat="38.1100483" lon="14.91178"><ele>962.0</ele><time>2026-03-29T12:52:22.73Z</time></trkpt><trkpt lat="38.1099767" lon="14.9118933"><ele>962.9999999999999</ele><time>2026-03-29T12:52:24.729Z</time></trkpt><trkpt lat="38.1099" lon="14.9120183"><ele>963.9999999999999</ele><time>2026-03-29T12:52:26.73Z</time></trkpt><trkpt lat="38.1098333" lon="14.91211"><ele>965.0</ele><time>2026-03-29T12:52:28.729Z</time></trkpt><trkpt lat="38.10978" lon="14.9122067"><ele>966.0</ele><time>2026-03-29T12:52:30.73Z</time></trkpt><trkpt lat="38.1097167" lon="14.9123083"><ele>966.4</ele><time>2026-03-29T12:52:32.731Z</time></trkpt><trkpt lat="38.109635" lon="14.9124183"><ele>966.8</ele><time>2026-03-29T12:52:34.731Z</time></trkpt><trkpt lat="38.10954" lon="14.9125067"><ele>967.1999999999999</ele><time>2026-03-29T12:52:36.73Z</time></trkpt><trkpt lat="38.1094817" lon="14.9125867"><ele>967.5999999999999</ele><time>2026-03-29T12:52:38.73Z</time></trkpt><trkpt lat="38.1095383" lon="14.9126717"><ele>968.0</ele><time>2026-03-29T12:52:41.73Z</time></trkpt><trkpt lat="38.10958" lon="14.91277"><ele>970.8</ele><time>2026-03-29T12:52:43.731Z</time></trkpt><trkpt lat="38.1095933" lon="14.9128783"><ele>973.5999999999999</ele><time>2026-03-29T12:52:45.73Z</time></trkpt><trkpt lat="38.1095633" lon="14.91303"><ele>976.4000000000001</ele><time>2026-03-29T12:52:47.731Z</time></trkpt><trkpt lat="38.1095383" lon="14.9131133"><ele>979.2</ele><time>2026-03-29T12:52:48.731Z</time></trkpt><trkpt lat="38.1095133" lon="14.9132517"><ele>982.0</ele><time>2026-03-29T12:52:50.731Z</time></trkpt><trkpt lat="38.1095033" lon="14.9133767"><ele>985.0</ele><time>2026-03-29T12:52:52.731Z</time></trkpt><trkpt lat="38.1094733" lon="14.913505"><ele>988.0</ele><time>2026-03-29T12:52:54.731Z</time></trkpt><trkpt lat="38.1094367" lon="14.9136267"><ele>991.0</ele><time>2026-03-29T12:52:56.731Z</time></trkpt><trkpt lat="38.1094067" lon="14.913765"><ele>994.0</ele><time>2026-03-29T12:52:58.731Z</time></trkpt><trkpt lat="38.1093883" lon="14.913845"><ele>997.0</ele><time>2026-03-29T12:52:59.73Z</time></trkpt><trkpt lat="38.109375" lon="14.913935"><ele>997.0</ele><time>2026-03-29T12:53:00.731Z</time></trkpt><trkpt lat="38.10938" lon="14.9140383"><ele>997.0</ele><time>2026-03-29T12:53:01.73Z</time></trkpt><trkpt lat="38.10939" lon="14.914125"><ele>997.0</ele><time>2026-03-29T12:53:02.73Z</time></trkpt><trkpt lat="38.1094133" lon="14.914275"><ele>997.0</ele><time>2026-03-29T12:53:04.731Z</time></trkpt><trkpt lat="38.1094" lon="14.9144167"><ele>997.0</ele><time>2026-03-29T12:53:06.731Z</time></trkpt><trkpt lat="38.109345" lon="14.914555"><ele>997.4999999999999</ele><time>2026-03-29T12:53:08.73Z</time></trkpt><trkpt lat="38.1093" lon="14.914635"><ele>998.0</ele><time>2026-03-29T12:53:09.731Z</time></trkpt><trkpt lat="38.1092583" lon="14.91471"><ele>998.5</ele><time>2026-03-29T12:53:10.731Z</time></trkpt><trkpt lat="38.1092217" lon="14.9147883"><ele>999.0</ele><time>2026-03-29T12:53:11.731Z</time></trkpt><trkpt lat="38.1091817" lon="14.9148817"><ele>999.4999999999999</ele><time>2026-03-29T12:53:12.731Z</time></trkpt><trkpt lat="38.1091417" lon="14.91499"><ele>1000.0</ele><time>2026-03-29T12:53:13.731Z</time></trkpt><trkpt lat="38.1091" lon="14.91508"><ele>1000.0</ele><time>2026-03-29T12:53:14.731Z</time></trkpt><trkpt lat="38.1090433" lon="14.91521"><ele>1000.0</ele><time>2026-03-29T12:53:16.73Z</time></trkpt><trkpt lat="38.108985" lon="14.9153267"><ele>1000.0</ele><time>2026-03-29T12:53:18.731Z</time></trkpt><trkpt lat="38.1088817" lon="14.915425"><ele>1000.0</ele><time>2026-03-29T12:53:20.731Z</time></trkpt><trkpt lat="38.108795" lon="14.9155017"><ele>999.9999999999999</ele><time>2026-03-29T12:53:22.731Z</time></trkpt><trkpt lat="38.1087267" lon="14.9155367"><ele>1000.0</ele><time>2026-03-29T12:53:24.73Z</time></trkpt><trkpt lat="38.1086567" lon="14.915565"><ele>1000.0</ele><time>2026-03-29T12:53:26.73Z</time></trkpt><trkpt lat="38.108585" lon="14.91559"><ele>1000.0</ele><time>2026-03-29T12:53:28.73Z</time></trkpt><trkpt lat="38.1085" lon="14.9156333"><ele>999.9999999999999</ele><time>2026-03-29T12:53:31.731Z</time></trkpt><trkpt lat="38.1084317" lon="14.9156617"><ele>1000.0</ele><time>2026-03-29T12:53:34.73Z</time></trkpt><trkpt lat="38.1083517" lon="14.9156883"><ele>999.9999999999999</ele><time>2026-03-29T12:53:37.73Z</time></trkpt><trkpt lat="38.1082867" lon="14.9157267"><ele>1000.0</ele><time>2026-03-29T12:53:39.731Z</time></trkpt><trkpt lat="38.1082267" lon="14.9157733"><ele>1000.0</ele><time>2026-03-29T12:53:42.73Z</time></trkpt><trkpt lat="38.108155" lon="14.91581"><ele>1000.0</ele><time>2026-03-29T12:53:44.73Z</time></trkpt><trkpt lat="38.10807" lon="14.915835"><ele>999.9999999999999</ele><time>2026-03-29T12:53:46.731Z</time></trkpt><trkpt lat="38.108" lon="14.9158683"><ele>1000.0</ele><time>2026-03-29T12:53:48.73Z</time></trkpt><trkpt lat="38.1079317" lon="14.915895"><ele>999.9999999999999</ele><time>2026-03-29T12:53:51.731Z</time></trkpt><trkpt lat="38.1078667" lon="14.9159283"><ele>1000.0</ele><time>2026-03-29T12:53:53.731Z</time></trkpt><trkpt lat="38.1077967" lon="14.915965"><ele>1000.0</ele><time>2026-03-29T12:53:55.73Z</time></trkpt><trkpt lat="38.107705" lon="14.9160067"><ele>1000.0</ele><time>2026-03-29T12:53:57.73Z</time></trkpt><trkpt lat="38.1076067" lon="14.9160533"><ele>999.9999999999999</ele><time>2026-03-29T12:53:59.73Z</time></trkpt><trkpt lat="38.1075483" lon="14.9161"><ele>1000.0</ele><time>2026-03-29T12:54:00.731Z</time></trkpt><trkpt lat="38.107475" lon="14.9161517"><ele>1001.2</ele><time>2026-03-29T12:54:01.731Z</time></trkpt><trkpt lat="38.1073883" lon="14.9161933"><ele>1002.4</ele><time>2026-03-29T12:54:02.73Z</time></trkpt><trkpt lat="38.107285" lon="14.9162267"><ele>1003.5999999999999</ele><time>2026-03-29T12:54:03.731Z</time></trkpt><trkpt lat="38.1071783" lon="14.9162717"><ele>1004.8</ele><time>2026-03-29T12:54:04.73Z</time></trkpt><trkpt lat="38.1070817" lon="14.9163167"><ele>1006.0</ele><time>2026-03-29T12:54:05.73Z</time></trkpt><trkpt lat="38.10699" lon="14.916365"><ele>1005.9999999999999</ele><time>2026-03-29T12:54:06.73Z</time></trkpt><trkpt lat="38.1069217" lon="14.9164317"><ele>1006.0</ele><time>2026-03-29T12:54:07.731Z</time></trkpt><trkpt lat="38.1068617" lon="14.9165017"><ele>1006.0</ele><time>2026-03-29T12:54:08.73Z</time></trkpt><trkpt lat="38.1067917" lon="14.916585"><ele>1006.0</ele><time>2026-03-29T12:54:10.731Z</time></trkpt><trkpt lat="38.106715" lon="14.916685"><ele>1005.9999999999999</ele><time>2026-03-29T12:54:13.731Z</time></trkpt><trkpt lat="38.1066667" lon="14.9167417"><ele>1006.0</ele><time>2026-03-29T12:54:14.731Z</time></trkpt><trkpt lat="38.1065983" lon="14.91681"><ele>1005.1666666666666</ele><time>2026-03-29T12:54:15.731Z</time></trkpt><trkpt lat="38.10653" lon="14.9168767"><ele>1004.3333333333333</ele><time>2026-03-29T12:54:16.73Z</time></trkpt><trkpt lat="38.1064617" lon="14.9169317"><ele>1003.5</ele><time>2026-03-29T12:54:17.73Z</time></trkpt><trkpt lat="38.1063933" lon="14.9169817"><ele>1002.6666666666667</ele><time>2026-03-29T12:54:18.731Z</time></trkpt><trkpt lat="38.1063133" lon="14.9170117"><ele>1001.8333333333334</ele><time>2026-03-29T12:54:19.73Z</time></trkpt><trkpt lat="38.1062183" lon="14.917035"><ele>1001.0</ele><time>2026-03-29T12:54:20.73Z</time></trkpt><trkpt lat="38.1061033" lon="14.9170417"><ele>1001.0</ele><time>2026-03-29T12:54:21.731Z</time></trkpt><trkpt lat="38.105985" lon="14.91706"><ele>1000.9999999999999</ele><time>2026-03-29T12:54:22.73Z</time></trkpt><trkpt lat="38.105885" lon="14.91711"><ele>1000.9999999999999</ele><time>2026-03-29T12:54:23.731Z</time></trkpt><trkpt lat="38.1058083" lon="14.9171767"><ele>1001.0</ele><time>2026-03-29T12:54:24.731Z</time></trkpt><trkpt lat="38.1057417" lon="14.9172533"><ele>1001.0</ele><time>2026-03-29T12:54:25.73Z</time></trkpt><trkpt lat="38.1056667" lon="14.9173433"><ele>1001.0</ele><time>2026-03-29T12:54:26.731Z</time></trkpt><trkpt lat="38.10559" lon="14.917445"><ele>1000.9999999999999</ele><time>2026-03-29T12:54:27.73Z</time></trkpt><trkpt lat="38.10551" lon="14.9175433"><ele>1000.9999999999999</ele><time>2026-03-29T12:54:28.731Z</time></trkpt><trkpt lat="38.1054333" lon="14.917635"><ele>1001.0</ele><time>2026-03-29T12:54:29.731Z</time></trkpt><trkpt lat="38.1053783" lon="14.917715"><ele>1001.0</ele><time>2026-03-29T12:54:30.731Z</time></trkpt><trkpt lat="38.105335" lon="14.9177883"><ele>1002.8333333333334</ele><time>2026-03-29T12:54:31.731Z</time></trkpt><trkpt lat="38.1053033" lon="14.91788"><ele>1004.6666666666667</ele><time>2026-03-29T12:54:32.73Z</time></trkpt><trkpt lat="38.1052633" lon="14.9179883"><ele>1006.5</ele><time>2026-03-29T12:54:33.731Z</time></trkpt><trkpt lat="38.1052167" lon="14.9180867"><ele>1008.3333333333333</ele><time>2026-03-29T12:54:34.731Z</time></trkpt><trkpt lat="38.1051717" lon="14.9181833"><ele>1010.1666666666666</ele><time>2026-03-29T12:54:35.731Z</time></trkpt><trkpt lat="38.105125" lon="14.9182733"><ele>1012.0</ele><time>2026-03-29T12:54:36.731Z</time></trkpt><trkpt lat="38.1050617" lon="14.9183517"><ele>1010.9999999999999</ele><time>2026-03-29T12:54:37.731Z</time></trkpt><trkpt lat="38.1050117" lon="14.9184117"><ele>1010.0</ele><time>2026-03-29T12:54:38.73Z</time></trkpt><trkpt lat="38.1049183" lon="14.9185083"><ele>1009.0</ele><time>2026-03-29T12:54:40.73Z</time></trkpt><trkpt lat="38.1048717" lon="14.91857"><ele>1008.0</ele><time>2026-03-29T12:54:41.731Z</time></trkpt><trkpt lat="38.1048283" lon="14.9186433"><ele>1006.9999999999999</ele><time>2026-03-29T12:54:42.731Z</time></trkpt><trkpt lat="38.1047767" lon="14.91871"><ele>1006.0</ele><time>2026-03-29T12:54:43.731Z</time></trkpt><trkpt lat="38.104715" lon="14.918765"><ele>1010.5999999999999</ele><time>2026-03-29T12:54:44.731Z</time></trkpt><trkpt lat="38.1046233" lon="14.9188683"><ele>1015.1999999999999</ele><time>2026-03-29T12:54:46.731Z</time></trkpt><trkpt lat="38.1045767" lon="14.9189833"><ele>1019.8000000000001</ele><time>2026-03-29T12:54:48.731Z</time></trkpt><trkpt lat="38.1045083" lon="14.919025"><ele>1024.4</ele><time>2026-03-29T12:54:50.731Z</time></trkpt><trkpt lat="38.1044083" lon="14.9189667"><ele>1029.0</ele><time>2026-03-29T12:54:52.731Z</time></trkpt><trkpt lat="38.104285" lon="14.9189"><ele>1029.0</ele><time>2026-03-29T12:54:54.731Z</time></trkpt><trkpt lat="38.1042033" lon="14.9188367"><ele>1029.0</ele><time>2026-03-29T12:54:55.73Z</time></trkpt><trkpt lat="38.10412" lon="14.9187817"><ele>1029.0</ele><time>2026-03-29T12:54:56.731Z</time></trkpt><trkpt lat="38.1040483" lon="14.9187383"><ele>1029.0</ele><time>2026-03-29T12:54:57.731Z</time></trkpt><trkpt lat="38.1039783" lon="14.918715"><ele>1029.0</ele><time>2026-03-29T12:54:58.73Z</time></trkpt><trkpt lat="38.10386" lon="14.9187133"><ele>1031.2</ele><time>2026-03-29T12:55:00.73Z</time></trkpt><trkpt lat="38.10375" lon="14.91874"><ele>1033.4</ele><time>2026-03-29T12:55:02.731Z</time></trkpt><trkpt lat="38.1036433" lon="14.9187483"><ele>1035.6</ele><time>2026-03-29T12:55:04.73Z</time></trkpt><trkpt lat="38.103565" lon="14.918775"><ele>1037.8</ele><time>2026-03-29T12:55:06.731Z</time></trkpt><trkpt lat="38.103515" lon="14.9188667"><ele>1040.0</ele><time>2026-03-29T12:55:08.73Z</time></trkpt><trkpt lat="38.10347" lon="14.9189717"><ele>1040.0</ele><time>2026-03-29T12:55:10.731Z</time></trkpt><trkpt lat="38.1033933" lon="14.919055"><ele>1040.0</ele><time>2026-03-29T12:55:12.731Z</time></trkpt><trkpt lat="38.1033317" lon="14.919075"><ele>1040.0</ele><time>2026-03-29T12:55:13.731Z</time></trkpt><trkpt lat="38.103205" lon="14.9191"><ele>1040.0</ele><time>2026-03-29T12:55:15.731Z</time></trkpt><trkpt lat="38.1031283" lon="14.919105"><ele>1040.0</ele><time>2026-03-29T12:55:16.731Z</time></trkpt><trkpt lat="38.10306" lon="14.9191033"><ele>1040.0</ele><time>2026-03-29T12:55:17.73Z</time></trkpt><trkpt lat="38.102955" lon="14.9190283"><ele>1042.8</ele><time>2026-03-29T12:55:19.731Z</time></trkpt><trkpt lat="38.102855" lon="14.919"><ele>1045.6</ele><time>2026-03-29T12:55:21.73Z</time></trkpt><trkpt lat="38.102745" lon="14.918995"><ele>1048.4</ele><time>2026-03-29T12:55:23.731Z</time></trkpt><trkpt lat="38.1026283" lon="14.91897"><ele>1051.2</ele><time>2026-03-29T12:55:25.731Z</time></trkpt><trkpt lat="38.1025167" lon="14.9189883"><ele>1054.0</ele><time>2026-03-29T12:55:27.731Z</time></trkpt><trkpt lat="38.1024433" lon="14.919005"><ele>1055.5</ele><time>2026-03-29T12:55:28.73Z</time></trkpt><trkpt lat="38.1023717" lon="14.9190233"><ele>1057.0</ele><time>2026-03-29T12:55:29.731Z</time></trkpt><trkpt lat="38.1022983" lon="14.919025"><ele>1058.5</ele><time>2026-03-29T12:55:30.731Z</time></trkpt><trkpt lat="38.1022117" lon="14.919025"><ele>1060.0</ele><time>2026-03-29T12:55:32.73Z</time></trkpt><trkpt lat="38.1021333" lon="14.9190633"><ele>1061.5</ele><time>2026-03-29T12:55:35.73Z</time></trkpt><trkpt lat="38.102015" lon="14.9191033"><ele>1063.0</ele><time>2026-03-29T12:55:37.73Z</time></trkpt><trkpt lat="38.1019517" lon="14.919135"><ele>1063.0</ele><time>2026-03-29T12:55:38.73Z</time></trkpt><trkpt lat="38.1018933" lon="14.919175"><ele>1063.0</ele><time>2026-03-29T12:55:39.731Z</time></trkpt><trkpt lat="38.1018367" lon="14.919215"><ele>1063.0</ele><time>2026-03-29T12:55:40.731Z</time></trkpt><trkpt lat="38.101755" lon="14.919265"><ele>1063.0</ele><time>2026-03-29T12:55:42.73Z</time></trkpt><trkpt lat="38.1017133" lon="14.9193283"><ele>1063.0</ele><time>2026-03-29T12:55:44.731Z</time></trkpt><trkpt lat="38.1016617" lon="14.919385"><ele>1063.0</ele><time>2026-03-29T12:55:47.731Z</time></trkpt><trkpt lat="38.1015967" lon="14.91943"><ele>1063.0</ele><time>2026-03-29T12:55:49.731Z</time></trkpt><trkpt lat="38.1015383" lon="14.9194817"><ele>1064.8333333333333</ele><time>2026-03-29T12:55:51.731Z</time></trkpt><trkpt lat="38.1014417" lon="14.9195333"><ele>1066.6666666666665</ele><time>2026-03-29T12:55:53.73Z</time></trkpt><trkpt lat="38.1013733" lon="14.919545"><ele>1068.5</ele><time>2026-03-29T12:55:54.731Z</time></trkpt><trkpt lat="38.101295" lon="14.9195417"><ele>1070.3333333333333</ele><time>2026-03-29T12:55:55.73Z</time></trkpt><trkpt lat="38.1012183" lon="14.9195433"><ele>1072.1666666666667</ele><time>2026-03-29T12:55:56.73Z</time></trkpt><trkpt lat="38.1011467" lon="14.9195633"><ele>1074.0</ele><time>2026-03-29T12:55:57.73Z</time></trkpt><trkpt lat="38.101085" lon="14.91959"><ele>1074.0</ele><time>2026-03-29T12:55:58.731Z</time></trkpt><trkpt lat="38.1010233" lon="14.9196217"><ele>1074.0</ele><time>2026-03-29T12:55:59.73Z</time></trkpt><trkpt lat="38.10097" lon="14.91967"><ele>1074.0</ele><time>2026-03-29T12:56:00.731Z</time></trkpt><trkpt lat="38.1008833" lon="14.9197367"><ele>1074.0</ele><time>2026-03-29T12:56:02.731Z</time></trkpt><trkpt lat="38.1007883" lon="14.919745"><ele>1074.0</ele><time>2026-03-29T12:56:04.73Z</time></trkpt><trkpt lat="38.1006733" lon="14.91969"><ele>1072.8333333333333</ele><time>2026-03-29T12:56:06.731Z</time></trkpt><trkpt lat="38.1006117" lon="14.9196383"><ele>1071.6666666666667</ele><time>2026-03-29T12:56:07.73Z</time></trkpt><trkpt lat="38.1005517" lon="14.9196017"><ele>1070.5</ele><time>2026-03-29T12:56:08.731Z</time></trkpt><trkpt lat="38.10045" lon="14.9195733"><ele>1069.3333333333335</ele><time>2026-03-29T12:56:10.731Z</time></trkpt><trkpt lat="38.1003867" lon="14.9195767"><ele>1068.1666666666667</ele><time>2026-03-29T12:56:13.731Z</time></trkpt><trkpt lat="38.10048" lon="14.91957"><ele>1067.0</ele><time>2026-03-29T12:56:58.73Z</time></trkpt><trkpt lat="38.100545" lon="14.91959"><ele>1067.0</ele><time>2026-03-29T12:57:00.73Z</time></trkpt><trkpt lat="38.1006216" lon="14.9196317"><ele>1067.0</ele><time>2026-03-29T12:57:02.731Z</time></trkpt><trkpt lat="38.100705" lon="14.9196754"><ele>1067.0</ele><time>2026-03-29T12:57:04.731Z</time></trkpt><trkpt lat="38.1008017" lon="14.9197126"><ele>1067.0</ele><time>2026-03-29T12:57:06.731Z</time></trkpt><trkpt lat="38.1008821" lon="14.919711"><ele>1067.0</ele><time>2026-03-29T12:57:08.731Z</time></trkpt><trkpt lat="38.1009597" lon="14.9196755"><ele>1067.0</ele><time>2026-03-29T12:57:10.73Z</time></trkpt><trkpt lat="38.101023" lon="14.9196276"><ele>1068.1666666666667</ele><time>2026-03-29T12:57:12.73Z</time></trkpt><trkpt lat="38.1010857" lon="14.9195844"><ele>1069.3333333333335</ele><time>2026-03-29T12:57:14.73Z</time></trkpt><trkpt lat="38.1011608" lon="14.919558"><ele>1070.5</ele><time>2026-03-29T12:57:16.73Z</time></trkpt><trkpt lat="38.1012571" lon="14.9195417"><ele>1071.6666666666667</ele><time>2026-03-29T12:57:18.73Z</time></trkpt><trkpt lat="38.1013533" lon="14.919535"><ele>1072.8333333333333</ele><time>2026-03-29T12:57:20.731Z</time></trkpt><trkpt lat="38.1014067" lon="14.91959"><ele>1074.0</ele><time>2026-03-29T12:57:22.731Z</time></trkpt><trkpt lat="38.1014983" lon="14.919625"><ele>1074.0</ele><time>2026-03-29T12:57:28.731Z</time></trkpt><trkpt lat="38.1014867" lon="14.919535"><ele>1074.0</ele><time>2026-03-29T12:57:31.73Z</time></trkpt><trkpt lat="38.1015483" lon="14.9194667"><ele>1074.0</ele><time>2026-03-29T12:57:33.731Z</time></trkpt><trkpt lat="38.1016167" lon="14.9194133"><ele>1074.0</ele><time>2026-03-29T12:57:34.73Z</time></trkpt><trkpt lat="38.10169" lon="14.91935"><ele>1074.0</ele><time>2026-03-29T12:57:35.731Z</time></trkpt><trkpt lat="38.1017417" lon="14.9192983"><ele>1074.0</ele><time>2026-03-29T12:57:36.731Z</time></trkpt><trkpt lat="38.1017983" lon="14.919235"><ele>1072.1666666666667</ele><time>2026-03-29T12:57:38.731Z</time></trkpt><trkpt lat="38.1018867" lon="14.9191817"><ele>1070.3333333333333</ele><time>2026-03-29T12:57:41.731Z</time></trkpt><trkpt lat="38.101955" lon="14.91913"><ele>1068.5</ele><time>2026-03-29T12:57:43.731Z</time></trkpt><trkpt lat="38.10206" lon="14.9190783"><ele>1066.6666666666665</ele><time>2026-03-29T12:57:45.731Z</time></trkpt><trkpt lat="38.1021283" lon="14.9190567"><ele>1064.8333333333333</ele><time>2026-03-29T12:57:46.731Z</time></trkpt><trkpt lat="38.102195" lon="14.91904"><ele>1063.0</ele><time>2026-03-29T12:57:47.73Z</time></trkpt><trkpt lat="38.1022767" lon="14.9190217"><ele>1063.0</ele><time>2026-03-29T12:57:49.731Z</time></trkpt><trkpt lat="38.102345" lon="14.919005"><ele>1063.0</ele><time>2026-03-29T12:57:51.731Z</time></trkpt><trkpt lat="38.1024283" lon="14.91902"><ele>1063.0</ele><time>2026-03-29T12:57:55.73Z</time></trkpt><trkpt lat="38.1025117" lon="14.9189983"><ele>1063.0</ele><time>2026-03-29T12:57:58.731Z</time></trkpt><trkpt lat="38.102605" lon="14.918985"><ele>1063.0</ele><time>2026-03-29T12:58:01.731Z</time></trkpt><trkpt lat="38.1026833" lon="14.91898"><ele>1063.0</ele><time>2026-03-29T12:58:03.731Z</time></trkpt><trkpt lat="38.102775" lon="14.91898"><ele>1061.5</ele><time>2026-03-29T12:58:06.73Z</time></trkpt><trkpt lat="38.1028533" lon="14.9190117"><ele>1060.0</ele><time>2026-03-29T12:58:09.732Z</time></trkpt><trkpt lat="38.1029233" lon="14.9190083"><ele>1058.5</ele><time>2026-03-29T12:58:12.731Z</time></trkpt><trkpt lat="38.1029917" lon="14.9190283"><ele>1057.0</ele><time>2026-03-29T12:58:15.732Z</time></trkpt><trkpt lat="38.103055" lon="14.9190733"><ele>1055.5</ele><time>2026-03-29T12:58:18.731Z</time></trkpt><trkpt lat="38.1031483" lon="14.919095"><ele>1054.0</ele><time>2026-03-29T12:58:21.732Z</time></trkpt><trkpt lat="38.1032267" lon="14.91908"><ele>1051.6666666666665</ele><time>2026-03-29T12:58:23.731Z</time></trkpt><trkpt lat="38.1033" lon="14.91907"><ele>1049.3333333333333</ele><time>2026-03-29T12:58:25.732Z</time></trkpt><trkpt lat="38.1033767" lon="14.919055"><ele>1047.0</ele><time>2026-03-29T12:58:27.732Z</time></trkpt><trkpt lat="38.1034567" lon="14.9190167"><ele>1044.6666666666667</ele><time>2026-03-29T12:58:29.732Z</time></trkpt><trkpt lat="38.103505" lon="14.9189417"><ele>1042.3333333333335</ele><time>2026-03-29T12:58:31.732Z</time></trkpt><trkpt lat="38.1035383" lon="14.918845"><ele>1040.0</ele><time>2026-03-29T12:58:34.732Z</time></trkpt><trkpt lat="38.1035983" lon="14.91875"><ele>1040.0</ele><time>2026-03-29T12:58:37.732Z</time></trkpt><trkpt lat="38.103725" lon="14.9187417"><ele>1040.0</ele><time>2026-03-29T12:58:39.732Z</time></trkpt><trkpt lat="38.1038033" lon="14.9187283"><ele>1040.0</ele><time>2026-03-29T12:58:40.732Z</time></trkpt><trkpt lat="38.103875" lon="14.918715"><ele>1040.0</ele><time>2026-03-29T12:58:41.731Z</time></trkpt><trkpt lat="38.10394" lon="14.918705"><ele>1040.0</ele><time>2026-03-29T12:58:42.732Z</time></trkpt><trkpt lat="38.1040583" lon="14.9187267"><ele>1037.8</ele><time>2026-03-29T12:58:44.732Z</time></trkpt><trkpt lat="38.1041567" lon="14.9187967"><ele>1035.6</ele><time>2026-03-29T12:58:46.731Z</time></trkpt><trkpt lat="38.1042117" lon="14.9188383"><ele>1033.4</ele><time>2026-03-29T12:58:47.732Z</time></trkpt><trkpt lat="38.1042683" lon="14.9188767"><ele>1031.2</ele><time>2026-03-29T12:58:48.731Z</time></trkpt><trkpt lat="38.104375" lon="14.91895"><ele>1029.0</ele><time>2026-03-29T12:58:50.732Z</time></trkpt><trkpt lat="38.1044883" lon="14.91896"><ele>1029.0</ele><time>2026-03-29T12:58:52.732Z</time></trkpt><trkpt lat="38.1045617" lon="14.9189133"><ele>1029.0</ele><time>2026-03-29T12:58:54.731Z</time></trkpt><trkpt lat="38.104635" lon="14.9188367"><ele>1029.0</ele><time>2026-03-29T12:58:56.732Z</time></trkpt><trkpt lat="38.10472" lon="14.918745"><ele>1029.0</ele><time>2026-03-29T12:58:58.732Z</time></trkpt><trkpt lat="38.104795" lon="14.9186717"><ele>1029.0</ele><time>2026-03-29T12:59:00.731Z</time></trkpt><trkpt lat="38.10486" lon="14.918595"><ele>1026.1666666666667</ele><time>2026-03-29T12:59:02.732Z</time></trkpt><trkpt lat="38.10492" lon="14.9185133"><ele>1023.3333333333333</ele><time>2026-03-29T12:59:04.732Z</time></trkpt><trkpt lat="38.10498" lon="14.9184317"><ele>1020.5</ele><time>2026-03-29T12:59:06.731Z</time></trkpt><trkpt lat="38.1050467" lon="14.9183733"><ele>1017.6666666666666</ele><time>2026-03-29T12:59:08.732Z</time></trkpt><trkpt lat="38.1051217" lon="14.918285"><ele>1014.8333333333333</ele><time>2026-03-29T12:59:10.732Z</time></trkpt><trkpt lat="38.10517" lon="14.918205"><ele>1012.0</ele><time>2026-03-29T12:59:11.732Z</time></trkpt><trkpt lat="38.1052267" lon="14.91809"><ele>1012.0</ele><time>2026-03-29T12:59:12.732Z</time></trkpt><trkpt lat="38.1052817" lon="14.9179717"><ele>1012.0</ele><time>2026-03-29T12:59:13.732Z</time></trkpt><trkpt lat="38.105325" lon="14.91786"><ele>1012.0</ele><time>2026-03-29T12:59:14.731Z</time></trkpt><trkpt lat="38.1053633" lon="14.9177633"><ele>1012.0</ele><time>2026-03-29T12:59:15.732Z</time></trkpt><trkpt lat="38.10541" lon="14.9176767"><ele>1012.0</ele><time>2026-03-29T12:59:16.732Z</time></trkpt><trkpt lat="38.10547" lon="14.9175917"><ele>1009.8</ele><time>2026-03-29T12:59:17.731Z</time></trkpt><trkpt lat="38.1055467" lon="14.917495"><ele>1007.6</ele><time>2026-03-29T12:59:18.732Z</time></trkpt><trkpt lat="38.1056283" lon="14.917395"><ele>1005.3999999999999</ele><time>2026-03-29T12:59:19.732Z</time></trkpt><trkpt lat="38.1057067" lon="14.9173"><ele>1003.1999999999999</ele><time>2026-03-29T12:59:20.732Z</time></trkpt><trkpt lat="38.105775" lon="14.9172233"><ele>1001.0</ele><time>2026-03-29T12:59:21.732Z</time></trkpt><trkpt lat="38.1058317" lon="14.917165"><ele>1001.0000000000001</ele><time>2026-03-29T12:59:22.731Z</time></trkpt><trkpt lat="38.105885" lon="14.9171067"><ele>1001.0</ele><time>2026-03-29T12:59:23.731Z</time></trkpt><trkpt lat="38.1059817" lon="14.91703"><ele>1001.0</ele><time>2026-03-29T12:59:25.732Z</time></trkpt><trkpt lat="38.1060433" lon="14.9170067"><ele>1001.0</ele><time>2026-03-29T12:59:26.732Z</time></trkpt><trkpt lat="38.10611" lon="14.917"><ele>1001.0000000000001</ele><time>2026-03-29T12:59:27.731Z</time></trkpt><trkpt lat="38.1061883" lon="14.9170017"><ele>1001.0</ele><time>2026-03-29T12:59:28.731Z</time></trkpt><trkpt lat="38.1062783" lon="14.917"><ele>1001.0</ele><time>2026-03-29T12:59:29.731Z</time></trkpt><trkpt lat="38.1063733" lon="14.9169717"><ele>1000.9999999999999</ele><time>2026-03-29T12:59:30.732Z</time></trkpt><trkpt lat="38.1064683" lon="14.9169183"><ele>1000.9999999999999</ele><time>2026-03-29T12:59:31.731Z</time></trkpt><trkpt lat="38.10655" lon="14.916865"><ele>1001.0</ele><time>2026-03-29T12:59:32.731Z</time></trkpt><trkpt lat="38.10663" lon="14.9167917"><ele>1001.0</ele><time>2026-03-29T12:59:33.732Z</time></trkpt><trkpt lat="38.10671" lon="14.91671"><ele>1001.8333333333334</ele><time>2026-03-29T12:59:34.731Z</time></trkpt><trkpt lat="38.1067783" lon="14.9166333"><ele>1002.6666666666667</ele><time>2026-03-29T12:59:35.731Z</time></trkpt><trkpt lat="38.1068317" lon="14.9165733"><ele>1003.5</ele><time>2026-03-29T12:59:36.732Z</time></trkpt><trkpt lat="38.1069017" lon="14.9164967"><ele>1004.3333333333333</ele><time>2026-03-29T12:59:38.731Z</time></trkpt><trkpt lat="38.1069633" lon="14.916415"><ele>1005.1666666666666</ele><time>2026-03-29T12:59:40.732Z</time></trkpt><trkpt lat="38.1070383" lon="14.916355"><ele>1006.0</ele><time>2026-03-29T12:59:42.732Z</time></trkpt><trkpt lat="38.10712" lon="14.9162883"><ele>1006.0</ele><time>2026-03-29T12:59:44.731Z</time></trkpt><trkpt lat="38.1072167" lon="14.91624"><ele>1005.9999999999999</ele><time>2026-03-29T12:59:46.732Z</time></trkpt><trkpt lat="38.10734" lon="14.9162133"><ele>1005.9999999999999</ele><time>2026-03-29T12:59:48.732Z</time></trkpt><trkpt lat="38.1074167" lon="14.91619"><ele>1006.0</ele><time>2026-03-29T12:59:49.732Z</time></trkpt><trkpt lat="38.107495" lon="14.9161633"><ele>1006.0</ele><time>2026-03-29T12:59:50.731Z</time></trkpt><trkpt lat="38.1075617" lon="14.91614"><ele>1004.9999999999999</ele><time>2026-03-29T12:59:51.731Z</time></trkpt><trkpt lat="38.1076683" lon="14.9161017"><ele>1004.0</ele><time>2026-03-29T12:59:53.732Z</time></trkpt><trkpt lat="38.1077483" lon="14.9160617"><ele>1003.0</ele><time>2026-03-29T12:59:55.732Z</time></trkpt><trkpt lat="38.10781" lon="14.916035"><ele>1002.0</ele><time>2026-03-29T12:59:57.732Z</time></trkpt><trkpt lat="38.1078883" lon="14.91601"><ele>1000.9999999999999</ele><time>2026-03-29T12:59:59.731Z</time></trkpt><trkpt lat="38.1079817" lon="14.916015"><ele>1000.0</ele><time>2026-03-29T13:00:01.732Z</time></trkpt><trkpt lat="38.1080917" lon="14.9160483"><ele>999.9999999999999</ele><time>2026-03-29T13:00:03.732Z</time></trkpt><trkpt lat="38.1081567" lon="14.9160583"><ele>1000.0</ele><time>2026-03-29T13:00:04.732Z</time></trkpt><trkpt lat="38.1082367" lon="14.9160617"><ele>1000.0</ele><time>2026-03-29T13:00:05.732Z</time></trkpt><trkpt lat="38.1083283" lon="14.916055"><ele>1000.0</ele><time>2026-03-29T13:00:06.732Z</time></trkpt><trkpt lat="38.108415" lon="14.9160617"><ele>999.9999999999999</ele><time>2026-03-29T13:00:07.732Z</time></trkpt><trkpt lat="38.1085067" lon="14.916085"><ele>1000.0</ele><time>2026-03-29T13:00:08.731Z</time></trkpt><trkpt lat="38.1086117" lon="14.9161283"><ele>996.6666666666666</ele><time>2026-03-29T13:00:09.731Z</time></trkpt><trkpt lat="38.108715" lon="14.916175"><ele>993.3333333333333</ele><time>2026-03-29T13:00:10.731Z</time></trkpt><trkpt lat="38.1088133" lon="14.916205"><ele>990.0</ele><time>2026-03-29T13:00:11.732Z</time></trkpt><trkpt lat="38.1088933" lon="14.91622"><ele>986.6666666666667</ele><time>2026-03-29T13:00:12.731Z</time></trkpt><trkpt lat="38.1089667" lon="14.9162283"><ele>983.3333333333334</ele><time>2026-03-29T13:00:13.732Z</time></trkpt><trkpt lat="38.1090433" lon="14.9162233"><ele>980.0</ele><time>2026-03-29T13:00:14.731Z</time></trkpt><trkpt lat="38.10912" lon="14.9162117"><ele>979.1666666666667</ele><time>2026-03-29T13:00:15.732Z</time></trkpt><trkpt lat="38.1092" lon="14.9162067"><ele>978.3333333333334</ele><time>2026-03-29T13:00:16.732Z</time></trkpt><trkpt lat="38.109275" lon="14.91622"><ele>977.5</ele><time>2026-03-29T13:00:17.732Z</time></trkpt><trkpt lat="38.10934" lon="14.9162317"><ele>976.6666666666667</ele><time>2026-03-29T13:00:18.732Z</time></trkpt><trkpt lat="38.1094033" lon="14.91625"><ele>975.8333333333334</ele><time>2026-03-29T13:00:19.731Z</time></trkpt><trkpt lat="38.1094717" lon="14.9162583"><ele>975.0</ele><time>2026-03-29T13:00:20.731Z</time></trkpt><trkpt lat="38.1095733" lon="14.916285"><ele>975.0</ele><time>2026-03-29T13:00:22.732Z</time></trkpt><trkpt lat="38.1094933" lon="14.9162583"><ele>975.0</ele><time>2026-03-29T13:01:13.731Z</time></trkpt><trkpt lat="38.109395" lon="14.9162517"><ele>975.0</ele><time>2026-03-29T13:01:14.732Z</time></trkpt><trkpt lat="38.1092967" lon="14.9162533"><ele>975.0</ele><time>2026-03-29T13:01:15.731Z</time></trkpt><trkpt lat="38.1092067" lon="14.9162717"><ele>975.0</ele><time>2026-03-29T13:01:16.732Z</time></trkpt><trkpt lat="38.10911" lon="14.9163167"><ele>976.0</ele><time>2026-03-29T13:01:17.732Z</time></trkpt><trkpt lat="38.1090167" lon="14.9163767"><ele>977.0</ele><time>2026-03-29T13:01:18.732Z</time></trkpt><trkpt lat="38.108945" lon="14.9164233"><ele>978.0</ele><time>2026-03-29T13:01:19.731Z</time></trkpt><trkpt lat="38.108835" lon="14.91646"><ele>979.0</ele><time>2026-03-29T13:01:21.732Z</time></trkpt><trkpt lat="38.1087417" lon="14.9164217"><ele>980.0</ele><time>2026-03-29T13:01:23.732Z</time></trkpt><trkpt lat="38.1086267" lon="14.9163667"><ele>980.0</ele><time>2026-03-29T13:01:25.732Z</time></trkpt><trkpt lat="38.108555" lon="14.9163467"><ele>980.0</ele><time>2026-03-29T13:01:26.732Z</time></trkpt><trkpt lat="38.1084867" lon="14.9163383"><ele>980.0</ele><time>2026-03-29T13:01:27.732Z</time></trkpt><trkpt lat="38.1084233" lon="14.9163367"><ele>980.0</ele><time>2026-03-29T13:01:28.731Z</time></trkpt><trkpt lat="38.1083567" lon="14.9163417"><ele>980.0</ele><time>2026-03-29T13:01:29.731Z</time></trkpt><trkpt lat="38.1082783" lon="14.9163733"><ele>980.0</ele><time>2026-03-29T13:01:30.732Z</time></trkpt><trkpt lat="38.108215" lon="14.9164117"><ele>980.0</ele><time>2026-03-29T13:01:31.731Z</time></trkpt><trkpt lat="38.1081617" lon="14.91646"><ele>978.2</ele><time>2026-03-29T13:01:32.732Z</time></trkpt><trkpt lat="38.108085" lon="14.9165817"><ele>976.4</ele><time>2026-03-29T13:01:34.731Z</time></trkpt><trkpt lat="38.108015" lon="14.9166767"><ele>974.5999999999999</ele><time>2026-03-29T13:01:36.732Z</time></trkpt><trkpt lat="38.1079217" lon="14.9167333"><ele>972.8</ele><time>2026-03-29T13:01:38.731Z</time></trkpt><trkpt lat="38.107835" lon="14.9167417"><ele>971.0</ele><time>2026-03-29T13:01:40.731Z</time></trkpt><trkpt lat="38.1077383" lon="14.9167633"><ele>971.0</ele><time>2026-03-29T13:01:42.731Z</time></trkpt><trkpt lat="38.1076317" lon="14.9168283"><ele>970.9999999999999</ele><time>2026-03-29T13:01:44.732Z</time></trkpt><trkpt lat="38.1075783" lon="14.91691"><ele>970.9999999999999</ele><time>2026-03-29T13:01:45.732Z</time></trkpt><trkpt lat="38.1075233" lon="14.9170317"><ele>971.0</ele><time>2026-03-29T13:01:46.731Z</time></trkpt><trkpt lat="38.1074633" lon="14.9171833"><ele>971.0</ele><time>2026-03-29T13:01:47.732Z</time></trkpt><trkpt lat="38.1074083" lon="14.91733"><ele>967.0</ele><time>2026-03-29T13:01:48.732Z</time></trkpt><trkpt lat="38.10737" lon="14.9174567"><ele>962.9999999999999</ele><time>2026-03-29T13:01:49.732Z</time></trkpt><trkpt lat="38.107325" lon="14.91756"><ele>958.9999999999999</ele><time>2026-03-29T13:01:50.732Z</time></trkpt><trkpt lat="38.10727" lon="14.9176333"><ele>955.0</ele><time>2026-03-29T13:01:51.732Z</time></trkpt><trkpt lat="38.10717" lon="14.9177117"><ele>951.0</ele><time>2026-03-29T13:01:53.731Z</time></trkpt><trkpt lat="38.1071067" lon="14.91773"><ele>951.0</ele><time>2026-03-29T13:01:54.732Z</time></trkpt><trkpt lat="38.1070383" lon="14.9177317"><ele>950.9999999999999</ele><time>2026-03-29T13:01:55.732Z</time></trkpt><trkpt lat="38.10695" lon="14.9177333"><ele>950.9999999999999</ele><time>2026-03-29T13:01:56.732Z</time></trkpt><trkpt lat="38.1068483" lon="14.91772"><ele>951.0</ele><time>2026-03-29T13:01:57.731Z</time></trkpt><trkpt lat="38.1067483" lon="14.9177117"><ele>951.0</ele><time>2026-03-29T13:01:58.732Z</time></trkpt><trkpt lat="38.1066567" lon="14.917705"><ele>955.6666666666666</ele><time>2026-03-29T13:01:59.731Z</time></trkpt><trkpt lat="38.1065617" lon="14.9177"><ele>960.3333333333333</ele><time>2026-03-29T13:02:00.732Z</time></trkpt><trkpt lat="38.1064733" lon="14.9176917"><ele>965.0</ele><time>2026-03-29T13:02:01.731Z</time></trkpt><trkpt lat="38.1063933" lon="14.9176867"><ele>969.6666666666666</ele><time>2026-03-29T13:02:02.731Z</time></trkpt><trkpt lat="38.1063217" lon="14.9176817"><ele>974.3333333333333</ele><time>2026-03-29T13:02:03.731Z</time></trkpt><trkpt lat="38.106245" lon="14.9176817"><ele>979.0</ele><time>2026-03-29T13:02:04.732Z</time></trkpt><trkpt lat="38.1061817" lon="14.9177067"><ele>978.9999999999999</ele><time>2026-03-29T13:02:05.732Z</time></trkpt><trkpt lat="38.1061233" lon="14.91774"><ele>979.0</ele><time>2026-03-29T13:02:06.731Z</time></trkpt><trkpt lat="38.1060233" lon="14.917825"><ele>979.0</ele><time>2026-03-29T13:02:08.731Z</time></trkpt><trkpt lat="38.1059833" lon="14.9178933"><ele>979.0</ele><time>2026-03-29T13:02:09.732Z</time></trkpt><trkpt lat="38.10595" lon="14.91797"><ele>978.9999999999999</ele><time>2026-03-29T13:02:10.731Z</time></trkpt><trkpt lat="38.1059217" lon="14.9180483"><ele>979.0</ele><time>2026-03-29T13:02:11.732Z</time></trkpt><trkpt lat="38.10589" lon="14.91813"><ele>979.0</ele><time>2026-03-29T13:02:12.732Z</time></trkpt><trkpt lat="38.105865" lon="14.9182317"><ele>979.0000000000001</ele><time>2026-03-29T13:02:13.731Z</time></trkpt><trkpt lat="38.1058383" lon="14.91834"><ele>979.0000000000001</ele><time>2026-03-29T13:02:14.732Z</time></trkpt><trkpt lat="38.1058117" lon="14.9184433"><ele>979.0</ele><time>2026-03-29T13:02:15.732Z</time></trkpt><trkpt lat="38.1057917" lon="14.9185383"><ele>979.0</ele><time>2026-03-29T13:02:16.732Z</time></trkpt><trkpt lat="38.1057667" lon="14.9186883"><ele>977.6</ele><time>2026-03-29T13:02:18.732Z</time></trkpt><trkpt lat="38.1057367" lon="14.9188433"><ele>976.2</ele><time>2026-03-29T13:02:20.732Z</time></trkpt><trkpt lat="38.1057283" lon="14.918925"><ele>974.8000000000001</ele><time>2026-03-29T13:02:21.732Z</time></trkpt><trkpt lat="38.105725" lon="14.9190067"><ele>973.4000000000001</ele><time>2026-03-29T13:02:22.731Z</time></trkpt><trkpt lat="38.10574" lon="14.9191417"><ele>972.0</ele><time>2026-03-29T13:02:24.732Z</time></trkpt><trkpt lat="38.1058" lon="14.9192733"><ele>972.0</ele><time>2026-03-29T13:02:26.732Z</time></trkpt><trkpt lat="38.1058483" lon="14.9193333"><ele>972.0</ele><time>2026-03-29T13:02:27.731Z</time></trkpt><trkpt lat="38.105905" lon="14.9193917"><ele>972.0</ele><time>2026-03-29T13:02:28.731Z</time></trkpt><trkpt lat="38.105975" lon="14.9194383"><ele>972.0</ele><time>2026-03-29T13:02:29.731Z</time></trkpt><trkpt lat="38.1060483" lon="14.9194933"><ele>972.0</ele><time>2026-03-29T13:02:30.732Z</time></trkpt><trkpt lat="38.1061183" lon="14.9195483"><ele>972.0</ele><time>2026-03-29T13:02:31.731Z</time></trkpt><trkpt lat="38.1061783" lon="14.9196033"><ele>972.0</ele><time>2026-03-29T13:02:32.732Z</time></trkpt><trkpt lat="38.1062333" lon="14.9196617"><ele>972.0</ele><time>2026-03-29T13:02:33.732Z</time></trkpt><trkpt lat="38.1062783" lon="14.9197217"><ele>972.0</ele><time>2026-03-29T13:02:34.731Z</time></trkpt><trkpt lat="38.1063467" lon="14.9198517"><ele>972.0</ele><time>2026-03-29T13:02:36.732Z</time></trkpt><trkpt lat="38.1064117" lon="14.9199783"><ele>972.0</ele><time>2026-03-29T13:02:38.732Z</time></trkpt><trkpt lat="38.1064767" lon="14.9201033"><ele>968.1666666666666</ele><time>2026-03-29T13:02:40.732Z</time></trkpt><trkpt lat="38.106515" lon="14.92017"><ele>964.3333333333333</ele><time>2026-03-29T13:02:41.731Z</time></trkpt><trkpt lat="38.10658" lon="14.9202933"><ele>960.5</ele><time>2026-03-29T13:02:43.731Z</time></trkpt><trkpt lat="38.1066267" lon="14.92043"><ele>956.6666666666666</ele><time>2026-03-29T13:02:45.732Z</time></trkpt><trkpt lat="38.1066633" lon="14.9205"><ele>952.8333333333333</ele><time>2026-03-29T13:02:46.731Z</time></trkpt><trkpt lat="38.10669" lon="14.9205767"><ele>949.0</ele><time>2026-03-29T13:02:47.732Z</time></trkpt><trkpt lat="38.1067117" lon="14.9206667"><ele>948.0000000000001</ele><time>2026-03-29T13:02:48.732Z</time></trkpt><trkpt lat="38.1067383" lon="14.9207533"><ele>947.0</ele><time>2026-03-29T13:02:49.732Z</time></trkpt><trkpt lat="38.1067667" lon="14.9208417"><ele>946.0000000000001</ele><time>2026-03-29T13:02:50.732Z</time></trkpt><trkpt lat="38.1067917" lon="14.9209333"><ele>945.0000000000001</ele><time>2026-03-29T13:02:51.732Z</time></trkpt><trkpt lat="38.106815" lon="14.9210233"><ele>944.0</ele><time>2026-03-29T13:02:52.732Z</time></trkpt><trkpt lat="38.1068433" lon="14.92111"><ele>943.0000000000001</ele><time>2026-03-29T13:02:53.732Z</time></trkpt><trkpt lat="38.1068633" lon="14.9211917"><ele>942.0000000000001</ele><time>2026-03-29T13:02:54.731Z</time></trkpt><trkpt lat="38.1068783" lon="14.92134"><ele>937.0</ele><time>2026-03-29T13:02:56.731Z</time></trkpt><trkpt lat="38.106875" lon="14.9214683"><ele>932.0</ele><time>2026-03-29T13:02:58.732Z</time></trkpt><trkpt lat="38.106935" lon="14.9215333"><ele>927.0</ele><time>2026-03-29T13:03:01.732Z</time></trkpt><trkpt lat="38.1069833" lon="14.9214717"><ele>922.0</ele><time>2026-03-29T13:03:04.732Z</time></trkpt><trkpt lat="38.1070233" lon="14.9213367"><ele>917.0</ele><time>2026-03-29T13:03:06.732Z</time></trkpt><trkpt lat="38.1070467" lon="14.92125"><ele>912.0</ele><time>2026-03-29T13:03:07.732Z</time></trkpt><trkpt lat="38.1070633" lon="14.92117"><ele>912.0</ele><time>2026-03-29T13:03:08.731Z</time></trkpt><trkpt lat="38.1070783" lon="14.9210733"><ele>912.0</ele><time>2026-03-29T13:03:09.731Z</time></trkpt><trkpt lat="38.1070883" lon="14.9209783"><ele>912.0</ele><time>2026-03-29T13:03:10.731Z</time></trkpt><trkpt lat="38.1071" lon="14.920885"><ele>912.0</ele><time>2026-03-29T13:03:11.731Z</time></trkpt><trkpt lat="38.1071083" lon="14.9207833"><ele>912.0</ele><time>2026-03-29T13:03:12.732Z</time></trkpt><trkpt lat="38.1071167" lon="14.9206917"><ele>912.0</ele><time>2026-03-29T13:03:13.732Z</time></trkpt><trkpt lat="38.1071283" lon="14.9206033"><ele>915.1428571428571</ele><time>2026-03-29T13:03:14.732Z</time></trkpt><trkpt lat="38.1071433" lon="14.9205117"><ele>918.2857142857142</ele><time>2026-03-29T13:03:15.731Z</time></trkpt><trkpt lat="38.1071367" lon="14.9204283"><ele>921.4285714285713</ele><time>2026-03-29T13:03:16.732Z</time></trkpt><trkpt lat="38.1071167" lon="14.9203333"><ele>924.5714285714284</ele><time>2026-03-29T13:03:17.732Z</time></trkpt><trkpt lat="38.1070883" lon="14.9202417"><ele>927.7142857142857</ele><time>2026-03-29T13:03:18.732Z</time></trkpt><trkpt lat="38.107065" lon="14.9201533"><ele>930.8571428571427</ele><time>2026-03-29T13:03:19.732Z</time></trkpt><trkpt lat="38.1070417" lon="14.92007"><ele>933.9999999999999</ele><time>2026-03-29T13:03:20.732Z</time></trkpt><trkpt lat="38.10702" lon="14.9199817"><ele>933.9999999999999</ele><time>2026-03-29T13:03:21.732Z</time></trkpt><trkpt lat="38.106965" lon="14.9198517"><ele>934.0</ele><time>2026-03-29T13:03:23.732Z</time></trkpt><trkpt lat="38.10693" lon="14.919745"><ele>934.0</ele><time>2026-03-29T13:03:25.731Z</time></trkpt><trkpt lat="38.1069983" lon="14.9197567"><ele>934.0</ele><time>2026-03-29T13:03:29.732Z</time></trkpt><trkpt lat="38.1070383" lon="14.91984"><ele>933.9999999999999</ele><time>2026-03-29T13:03:30.732Z</time></trkpt><trkpt lat="38.1070883" lon="14.91993"><ele>934.0</ele><time>2026-03-29T13:03:31.731Z</time></trkpt><trkpt lat="38.1071483" lon="14.920035"><ele>935.3333333333333</ele><time>2026-03-29T13:03:32.732Z</time></trkpt><trkpt lat="38.107205" lon="14.9201417"><ele>936.6666666666666</ele><time>2026-03-29T13:03:33.732Z</time></trkpt><trkpt lat="38.107255" lon="14.9202317"><ele>938.0</ele><time>2026-03-29T13:03:34.732Z</time></trkpt><trkpt lat="38.1072983" lon="14.920305"><ele>939.3333333333333</ele><time>2026-03-29T13:03:35.732Z</time></trkpt><trkpt lat="38.1073417" lon="14.920365"><ele>940.6666666666666</ele><time>2026-03-29T13:03:36.732Z</time></trkpt><trkpt lat="38.107415" lon="14.92048"><ele>942.0</ele><time>2026-03-29T13:03:38.732Z</time></trkpt><trkpt lat="38.10744" lon="14.92063"><ele>931.8</ele><time>2026-03-29T13:03:40.733Z</time></trkpt><trkpt lat="38.1074617" lon="14.9207217"><ele>921.6</ele><time>2026-03-29T13:03:41.733Z</time></trkpt><trkpt lat="38.1074883" lon="14.9208267"><ele>911.3999999999999</ele><time>2026-03-29T13:03:42.732Z</time></trkpt><trkpt lat="38.1075167" lon="14.920965"><ele>901.1999999999999</ele><time>2026-03-29T13:03:43.733Z</time></trkpt><trkpt lat="38.1075383" lon="14.9211033"><ele>891.0</ele><time>2026-03-29T13:03:44.733Z</time></trkpt><trkpt lat="38.10755" lon="14.9212283"><ele>890.5999999999999</ele><time>2026-03-29T13:03:45.733Z</time></trkpt><trkpt lat="38.1075667" lon="14.9213483"><ele>890.1999999999999</ele><time>2026-03-29T13:03:46.733Z</time></trkpt><trkpt lat="38.1075733" lon="14.921465"><ele>889.8000000000001</ele><time>2026-03-29T13:03:47.733Z</time></trkpt><trkpt lat="38.1075717" lon="14.921595"><ele>889.4000000000001</ele><time>2026-03-29T13:03:48.732Z</time></trkpt><trkpt lat="38.1075617" lon="14.9217233"><ele>889.0</ele><time>2026-03-29T13:03:49.733Z</time></trkpt><trkpt lat="38.1075517" lon="14.9218383"><ele>885.4999999999999</ele><time>2026-03-29T13:03:50.733Z</time></trkpt><trkpt lat="38.1075367" lon="14.9219333"><ele>882.0</ele><time>2026-03-29T13:03:51.733Z</time></trkpt><trkpt lat="38.1075167" lon="14.92202"><ele>878.5</ele><time>2026-03-29T13:03:52.732Z</time></trkpt><trkpt lat="38.1074867" lon="14.922095"><ele>875.0</ele><time>2026-03-29T13:03:53.732Z</time></trkpt><trkpt lat="38.1074367" lon="14.9221633"><ele>871.4999999999999</ele><time>2026-03-29T13:03:54.732Z</time></trkpt><trkpt lat="38.1073833" lon="14.92221"><ele>868.0</ele><time>2026-03-29T13:03:55.733Z</time></trkpt><trkpt lat="38.1072867" lon="14.922255"><ele>868.0</ele><time>2026-03-29T13:03:57.732Z</time></trkpt><trkpt lat="38.1071967" lon="14.9222767"><ele>868.0</ele><time>2026-03-29T13:03:59.732Z</time></trkpt><trkpt lat="38.1071317" lon="14.92228"><ele>868.0</ele><time>2026-03-29T13:04:00.733Z</time></trkpt><trkpt lat="38.107045" lon="14.9222683"><ele>868.0</ele><time>2026-03-29T13:04:01.733Z</time></trkpt><trkpt lat="38.10695" lon="14.9222317"><ele>868.0</ele><time>2026-03-29T13:04:02.733Z</time></trkpt><trkpt lat="38.106845" lon="14.9222"><ele>868.0</ele><time>2026-03-29T13:04:03.732Z</time></trkpt><trkpt lat="38.1067383" lon="14.9221833"><ele>868.0</ele><time>2026-03-29T13:04:04.733Z</time></trkpt><trkpt lat="38.1066333" lon="14.922185"><ele>868.0</ele><time>2026-03-29T13:04:05.732Z</time></trkpt><trkpt lat="38.10654" lon="14.9222033"><ele>868.0</ele><time>2026-03-29T13:04:06.733Z</time></trkpt><trkpt lat="38.1064617" lon="14.9222283"><ele>868.0</ele><time>2026-03-29T13:04:07.732Z</time></trkpt><trkpt lat="38.106395" lon="14.9222617"><ele>867.9999999999999</ele><time>2026-03-29T13:04:08.733Z</time></trkpt><trkpt lat="38.1063333" lon="14.92229"><ele>868.0</ele><time>2026-03-29T13:04:09.733Z</time></trkpt><trkpt lat="38.1062733" lon="14.92233"><ele>868.0</ele><time>2026-03-29T13:04:10.733Z</time></trkpt><trkpt lat="38.1062217" lon="14.9223817"><ele>868.0</ele><time>2026-03-29T13:04:11.733Z</time></trkpt><trkpt lat="38.1061267" lon="14.9224517"><ele>867.9999999999999</ele><time>2026-03-29T13:04:13.732Z</time></trkpt><trkpt lat="38.106025" lon="14.922475"><ele>868.0</ele><time>2026-03-29T13:04:15.733Z</time></trkpt><trkpt lat="38.1059117" lon="14.9224567"><ele>868.0</ele><time>2026-03-29T13:04:17.733Z</time></trkpt><trkpt lat="38.105805" lon="14.9224117"><ele>868.0</ele><time>2026-03-29T13:04:19.733Z</time></trkpt><trkpt lat="38.1057033" lon="14.9223583"><ele>868.0</ele><time>2026-03-29T13:04:21.733Z</time></trkpt><trkpt lat="38.1056233" lon="14.922275"><ele>868.0</ele><time>2026-03-29T13:04:23.733Z</time></trkpt><trkpt lat="38.1055433" lon="14.92219"><ele>868.0</ele><time>2026-03-29T13:04:25.733Z</time></trkpt><trkpt lat="38.1054567" lon="14.92209"><ele>872.5999999999999</ele><time>2026-03-29T13:04:27.732Z</time></trkpt><trkpt lat="38.1053417" lon="14.922035"><ele>877.1999999999999</ele><time>2026-03-29T13:04:29.733Z</time></trkpt><trkpt lat="38.105235" lon="14.922045"><ele>881.8</ele><time>2026-03-29T13:04:31.732Z</time></trkpt><trkpt lat="38.1051783" lon="14.9221233"><ele>886.4</ele><time>2026-03-29T13:04:33.733Z</time></trkpt><trkpt lat="38.1051883" lon="14.9222783"><ele>891.0</ele><time>2026-03-29T13:04:35.732Z</time></trkpt><trkpt lat="38.1052167" lon="14.92239"><ele>891.0</ele><time>2026-03-29T13:04:36.732Z</time></trkpt><trkpt lat="38.1052567" lon="14.9225167"><ele>891.0</ele><time>2026-03-29T13:04:37.733Z</time></trkpt><trkpt lat="38.105295" lon="14.92267"><ele>891.0</ele><time>2026-03-29T13:04:38.733Z</time></trkpt><trkpt lat="38.1053183" lon="14.922815"><ele>891.0</ele><time>2026-03-29T13:04:39.733Z</time></trkpt><trkpt lat="38.105345" lon="14.92294"><ele>893.5</ele><time>2026-03-29T13:04:40.732Z</time></trkpt><trkpt lat="38.1053633" lon="14.923045"><ele>896.0</ele><time>2026-03-29T13:04:41.733Z</time></trkpt><trkpt lat="38.105385" lon="14.9231367"><ele>898.5</ele><time>2026-03-29T13:04:42.732Z</time></trkpt><trkpt lat="38.1054083" lon="14.9232233"><ele>901.0</ele><time>2026-03-29T13:04:43.732Z</time></trkpt><trkpt lat="38.105435" lon="14.92332"><ele>903.5</ele><time>2026-03-29T13:04:44.732Z</time></trkpt><trkpt lat="38.1054683" lon="14.9234133"><ele>906.0</ele><time>2026-03-29T13:04:45.733Z</time></trkpt><trkpt lat="38.1054967" lon="14.9235033"><ele>906.142857142857</ele><time>2026-03-29T13:04:46.732Z</time></trkpt><trkpt lat="38.1055117" lon="14.9235867"><ele>906.2857142857142</ele><time>2026-03-29T13:04:47.733Z</time></trkpt><trkpt lat="38.1055217" lon="14.9236667"><ele>906.4285714285714</ele><time>2026-03-29T13:04:48.732Z</time></trkpt><trkpt lat="38.1055183" lon="14.9237467"><ele>906.5714285714286</ele><time>2026-03-29T13:04:49.733Z</time></trkpt><trkpt lat="38.1055067" lon="14.923835"><ele>906.7142857142858</ele><time>2026-03-29T13:04:50.733Z</time></trkpt><trkpt lat="38.1054883" lon="14.9239333"><ele>906.857142857143</ele><time>2026-03-29T13:04:51.732Z</time></trkpt><trkpt lat="38.1054517" lon="14.92404"><ele>907.0000000000001</ele><time>2026-03-29T13:04:52.733Z</time></trkpt><trkpt lat="38.1054083" lon="14.9241483"><ele>902.8</ele><time>2026-03-29T13:04:53.732Z</time></trkpt><trkpt lat="38.105375" lon="14.9242567"><ele>898.6</ele><time>2026-03-29T13:04:54.732Z</time></trkpt><trkpt lat="38.1053567" lon="14.924375"><ele>894.3999999999999</ele><time>2026-03-29T13:04:55.733Z</time></trkpt><trkpt lat="38.1053333" lon="14.9244883"><ele>890.1999999999999</ele><time>2026-03-29T13:04:56.732Z</time></trkpt><trkpt lat="38.10531" lon="14.9245717"><ele>886.0</ele><time>2026-03-29T13:04:57.733Z</time></trkpt><trkpt lat="38.105245" lon="14.924685"><ele>886.0</ele><time>2026-03-29T13:04:59.732Z</time></trkpt><trkpt lat="38.1051767" lon="14.9247933"><ele>885.9999999999999</ele><time>2026-03-29T13:05:01.732Z</time></trkpt><trkpt lat="38.1050867" lon="14.9249083"><ele>885.9999999999999</ele><time>2026-03-29T13:05:03.733Z</time></trkpt><trkpt lat="38.10504" lon="14.9249733"><ele>886.0</ele><time>2026-03-29T13:05:04.733Z</time></trkpt><trkpt lat="38.105005" lon="14.92504"><ele>886.0</ele><time>2026-03-29T13:05:05.733Z</time></trkpt><trkpt lat="38.104945" lon="14.9251817"><ele>885.8333333333333</ele><time>2026-03-29T13:05:07.733Z</time></trkpt><trkpt lat="38.1049167" lon="14.9252567"><ele>885.6666666666666</ele><time>2026-03-29T13:05:08.733Z</time></trkpt><trkpt lat="38.1048817" lon="14.92536"><ele>885.5</ele><time>2026-03-29T13:05:09.732Z</time></trkpt><trkpt lat="38.1048517" lon="14.925475"><ele>885.3333333333333</ele><time>2026-03-29T13:05:10.733Z</time></trkpt><trkpt lat="38.104835" lon="14.9255883"><ele>885.1666666666666</ele><time>2026-03-29T13:05:11.732Z</time></trkpt><trkpt lat="38.1048083" lon="14.9256983"><ele>885.0</ele><time>2026-03-29T13:05:12.733Z</time></trkpt><trkpt lat="38.1047783" lon="14.9257933"><ele>884.4</ele><time>2026-03-29T13:05:13.733Z</time></trkpt><trkpt lat="38.1047283" lon="14.9259283"><ele>883.8</ele><time>2026-03-29T13:05:15.733Z</time></trkpt><trkpt lat="38.10473" lon="14.9260283"><ele>883.2</ele><time>2026-03-29T13:05:17.733Z</time></trkpt><trkpt lat="38.1047767" lon="14.9261217"><ele>882.6</ele><time>2026-03-29T13:05:20.732Z</time></trkpt><trkpt lat="38.104885" lon="14.9261867"><ele>882.0</ele><time>2026-03-29T13:05:22.733Z</time></trkpt><trkpt lat="38.1049633" lon="14.9262017"><ele>882.0</ele><time>2026-03-29T13:05:23.733Z</time></trkpt><trkpt lat="38.10505" lon="14.9262083"><ele>882.0</ele><time>2026-03-29T13:05:24.732Z</time></trkpt><trkpt lat="38.105145" lon="14.9262033"><ele>882.0</ele><time>2026-03-29T13:05:25.733Z</time></trkpt><trkpt lat="38.105235" lon="14.9262067"><ele>882.0</ele><time>2026-03-29T13:05:26.733Z</time></trkpt><trkpt lat="38.1053017" lon="14.9262183"><ele>882.0</ele><time>2026-03-29T13:05:27.733Z</time></trkpt><trkpt lat="38.105385" lon="14.92623"><ele>882.0</ele><time>2026-03-29T13:05:29.732Z</time></trkpt><trkpt lat="38.1054483" lon="14.9262567"><ele>882.0</ele><time>2026-03-29T13:05:33.732Z</time></trkpt><trkpt lat="38.1055133" lon="14.9263067"><ele>882.0</ele><time>2026-03-29T13:05:39.733Z</time></trkpt><trkpt lat="38.1055417" lon="14.9264"><ele>882.0</ele><time>2026-03-29T13:05:42.732Z</time></trkpt><trkpt lat="38.1055833" lon="14.9264917"><ele>882.0</ele><time>2026-03-29T13:05:44.732Z</time></trkpt><trkpt lat="38.1056483" lon="14.9265833"><ele>882.0</ele><time>2026-03-29T13:05:46.733Z</time></trkpt><trkpt lat="38.1057117" lon="14.9266467"><ele>882.0</ele><time>2026-03-29T13:05:48.732Z</time></trkpt><trkpt lat="38.1057667" lon="14.92673"><ele>883.6666666666666</ele><time>2026-03-29T13:05:50.733Z</time></trkpt><trkpt lat="38.105785" lon="14.9268133"><ele>885.3333333333333</ele><time>2026-03-29T13:05:52.733Z</time></trkpt><trkpt lat="38.1057683" lon="14.9268917"><ele>887.0</ele><time>2026-03-29T13:05:56.733Z</time></trkpt><trkpt lat="38.1057317" lon="14.9270283"><ele>888.6666666666666</ele><time>2026-03-29T13:05:59.733Z</time></trkpt><trkpt lat="38.1057083" lon="14.9271133"><ele>890.3333333333333</ele><time>2026-03-29T13:06:00.733Z</time></trkpt><trkpt lat="38.1056917" lon="14.9272133"><ele>892.0</ele><time>2026-03-29T13:06:01.732Z</time></trkpt><trkpt lat="38.1056833" lon="14.927315"><ele>892.0</ele><time>2026-03-29T13:06:02.732Z</time></trkpt><trkpt lat="38.1057" lon="14.9274117"><ele>892.0</ele><time>2026-03-29T13:06:03.732Z</time></trkpt><trkpt lat="38.1057433" lon="14.927535"><ele>892.0</ele><time>2026-03-29T13:06:04.733Z</time></trkpt><trkpt lat="38.1058017" lon="14.92766"><ele>892.0</ele><time>2026-03-29T13:06:05.732Z</time></trkpt><trkpt lat="38.1058683" lon="14.927775"><ele>892.0</ele><time>2026-03-29T13:06:06.733Z</time></trkpt><trkpt lat="38.1059267" lon="14.92788"><ele>888.4000000000001</ele><time>2026-03-29T13:06:07.732Z</time></trkpt><trkpt lat="38.1059967" lon="14.9279883"><ele>884.8000000000001</ele><time>2026-03-29T13:06:08.733Z</time></trkpt><trkpt lat="38.1060783" lon="14.928085"><ele>881.2</ele><time>2026-03-29T13:06:09.733Z</time></trkpt><trkpt lat="38.1061517" lon="14.9281783"><ele>877.6</ele><time>2026-03-29T13:06:10.733Z</time></trkpt><trkpt lat="38.1062283" lon="14.92827"><ele>874.0</ele><time>2026-03-29T13:06:11.733Z</time></trkpt><trkpt lat="38.1063033" lon="14.9283617"><ele>872.1666666666666</ele><time>2026-03-29T13:06:12.733Z</time></trkpt><trkpt lat="38.1063767" lon="14.9284367"><ele>870.3333333333333</ele><time>2026-03-29T13:06:13.732Z</time></trkpt><trkpt lat="38.1064483" lon="14.928505"><ele>868.5</ele><time>2026-03-29T13:06:14.733Z</time></trkpt><trkpt lat="38.1065033" lon="14.9285833"><ele>866.6666666666667</ele><time>2026-03-29T13:06:15.733Z</time></trkpt><trkpt lat="38.1065517" lon="14.9286683"><ele>864.8333333333334</ele><time>2026-03-29T13:06:16.732Z</time></trkpt><trkpt lat="38.1065833" lon="14.9287517"><ele>863.0</ele><time>2026-03-29T13:06:17.732Z</time></trkpt><trkpt lat="38.1066017" lon="14.92883"><ele>863.0000000000001</ele><time>2026-03-29T13:06:18.733Z</time></trkpt><trkpt lat="38.10663" lon="14.928915"><ele>863.0</ele><time>2026-03-29T13:06:19.732Z</time></trkpt><trkpt lat="38.106675" lon="14.9290167"><ele>863.0</ele><time>2026-03-29T13:06:20.732Z</time></trkpt><trkpt lat="38.1067467" lon="14.9291083"><ele>863.0</ele><time>2026-03-29T13:06:21.733Z</time></trkpt><trkpt lat="38.1068317" lon="14.9291683"><ele>863.0000000000001</ele><time>2026-03-29T13:06:22.733Z</time></trkpt><trkpt lat="38.1069033" lon="14.9292233"><ele>863.0</ele><time>2026-03-29T13:06:23.732Z</time></trkpt><trkpt lat="38.1069617" lon="14.9292883"><ele>866.1666666666667</ele><time>2026-03-29T13:06:24.733Z</time></trkpt><trkpt lat="38.1069967" lon="14.9293867"><ele>869.3333333333334</ele><time>2026-03-29T13:06:25.733Z</time></trkpt><trkpt lat="38.107025" lon="14.9294967"><ele>872.5</ele><time>2026-03-29T13:06:26.733Z</time></trkpt><trkpt lat="38.10704" lon="14.9296017"><ele>875.6666666666667</ele><time>2026-03-29T13:06:27.732Z</time></trkpt><trkpt lat="38.10705" lon="14.929685"><ele>878.8333333333334</ele><time>2026-03-29T13:06:28.732Z</time></trkpt><trkpt lat="38.107035" lon="14.9297717"><ele>882.0</ele><time>2026-03-29T13:06:29.732Z</time></trkpt><trkpt lat="38.1069983" lon="14.9298567"><ele>882.0</ele><time>2026-03-29T13:06:30.733Z</time></trkpt><trkpt lat="38.1069717" lon="14.9299317"><ele>882.0</ele><time>2026-03-29T13:06:31.732Z</time></trkpt><trkpt lat="38.1069683" lon="14.9300283"><ele>882.0</ele><time>2026-03-29T13:06:32.732Z</time></trkpt><trkpt lat="38.106975" lon="14.9301133"><ele>882.0</ele><time>2026-03-29T13:06:33.733Z</time></trkpt><trkpt lat="38.1069733" lon="14.9302583"><ele>882.0</ele><time>2026-03-29T13:06:35.733Z</time></trkpt><trkpt lat="38.1070333" lon="14.9303683"><ele>882.0</ele><time>2026-03-29T13:06:37.733Z</time></trkpt><trkpt lat="38.1071533" lon="14.9303733"><ele>883.6666666666666</ele><time>2026-03-29T13:06:39.733Z</time></trkpt><trkpt lat="38.107215" lon="14.9303383"><ele>885.3333333333333</ele><time>2026-03-29T13:06:40.733Z</time></trkpt><trkpt lat="38.1072683" lon="14.930255"><ele>887.0</ele><time>2026-03-29T13:06:41.732Z</time></trkpt><trkpt lat="38.1073317" lon="14.9301717"><ele>888.6666666666666</ele><time>2026-03-29T13:06:42.733Z</time></trkpt><trkpt lat="38.1073917" lon="14.9301183"><ele>890.3333333333333</ele><time>2026-03-29T13:06:43.733Z</time></trkpt><trkpt lat="38.1074683" lon="14.9301117"><ele>892.0</ele><time>2026-03-29T13:06:44.732Z</time></trkpt><trkpt lat="38.10756" lon="14.9301633"><ele>892.0</ele><time>2026-03-29T13:06:45.733Z</time></trkpt><trkpt lat="38.1076383" lon="14.9302583"><ele>892.0</ele><time>2026-03-29T13:06:46.732Z</time></trkpt><trkpt lat="38.1077267" lon="14.9303633"><ele>892.0</ele><time>2026-03-29T13:06:47.733Z</time></trkpt><trkpt lat="38.1078283" lon="14.9304583"><ele>892.0</ele><time>2026-03-29T13:06:48.733Z</time></trkpt><trkpt lat="38.1079267" lon="14.9305367"><ele>892.0</ele><time>2026-03-29T13:06:49.732Z</time></trkpt><trkpt lat="38.10804" lon="14.9306"><ele>892.0</ele><time>2026-03-29T13:06:50.733Z</time></trkpt><trkpt lat="38.108155" lon="14.9306567"><ele>892.0</ele><time>2026-03-29T13:06:51.732Z</time></trkpt><trkpt lat="38.1082783" lon="14.9307083"><ele>892.0</ele><time>2026-03-29T13:06:52.732Z</time></trkpt><trkpt lat="38.1083917" lon="14.9307583"><ele>890.0</ele><time>2026-03-29T13:06:53.733Z</time></trkpt><trkpt lat="38.108485" lon="14.93081"><ele>888.0</ele><time>2026-03-29T13:06:54.733Z</time></trkpt><trkpt lat="38.10857" lon="14.93088"><ele>886.0</ele><time>2026-03-29T13:06:55.733Z</time></trkpt><trkpt lat="38.10867" lon="14.9309317"><ele>884.0</ele><time>2026-03-29T13:06:56.733Z</time></trkpt><trkpt lat="38.10877" lon="14.93097"><ele>882.0</ele><time>2026-03-29T13:06:57.732Z</time></trkpt><trkpt lat="38.1088467" lon="14.9310067"><ele>885.5</ele><time>2026-03-29T13:06:58.732Z</time></trkpt><trkpt lat="38.1088983" lon="14.9310633"><ele>889.0</ele><time>2026-03-29T13:06:59.733Z</time></trkpt><trkpt lat="38.1089283" lon="14.9312067"><ele>892.5</ele><time>2026-03-29T13:07:01.732Z</time></trkpt><trkpt lat="38.10892" lon="14.9313033"><ele>896.0</ele><time>2026-03-29T13:07:02.733Z</time></trkpt><trkpt lat="38.1089083" lon="14.931405"><ele>899.5</ele><time>2026-03-29T13:07:03.732Z</time></trkpt><trkpt lat="38.1089167" lon="14.9315017"><ele>903.0</ele><time>2026-03-29T13:07:04.732Z</time></trkpt><trkpt lat="38.108935" lon="14.9316"><ele>903.0</ele><time>2026-03-29T13:07:05.733Z</time></trkpt><trkpt lat="38.1089667" lon="14.9316967"><ele>903.0</ele><time>2026-03-29T13:07:06.733Z</time></trkpt><trkpt lat="38.1090067" lon="14.9317817"><ele>903.0</ele><time>2026-03-29T13:07:07.732Z</time></trkpt><trkpt lat="38.1090583" lon="14.93185"><ele>903.0</ele><time>2026-03-29T13:07:08.733Z</time></trkpt><trkpt lat="38.109115" lon="14.9319067"><ele>903.0</ele><time>2026-03-29T13:07:09.732Z</time></trkpt><trkpt lat="38.1091717" lon="14.9319533"><ele>903.0</ele><time>2026-03-29T13:07:10.732Z</time></trkpt><trkpt lat="38.10925" lon="14.9320067"><ele>903.0</ele><time>2026-03-29T13:07:11.733Z</time></trkpt><trkpt lat="38.1093417" lon="14.9320717"><ele>903.0</ele><time>2026-03-29T13:07:12.732Z</time></trkpt><trkpt lat="38.1094317" lon="14.93214"><ele>903.0</ele><time>2026-03-29T13:07:13.733Z</time></trkpt><trkpt lat="38.1095117" lon="14.9321967"><ele>903.0</ele><time>2026-03-29T13:07:14.732Z</time></trkpt><trkpt lat="38.1095717" lon="14.9322383"><ele>903.0</ele><time>2026-03-29T13:07:15.733Z</time></trkpt><trkpt lat="38.1096433" lon="14.9322833"><ele>903.0</ele><time>2026-03-29T13:07:17.733Z</time></trkpt><trkpt lat="38.10973" lon="14.9323183"><ele>903.0</ele><time>2026-03-29T13:07:19.733Z</time></trkpt><trkpt lat="38.10979" lon="14.9323533"><ele>903.0</ele><time>2026-03-29T13:07:20.732Z</time></trkpt><trkpt lat="38.1098517" lon="14.9323833"><ele>903.0</ele><time>2026-03-29T13:07:21.732Z</time></trkpt><trkpt lat="38.1099217" lon="14.932405"><ele>903.0</ele><time>2026-03-29T13:07:22.733Z</time></trkpt><trkpt lat="38.110005" lon="14.9324417"><ele>903.0</ele><time>2026-03-29T13:07:23.733Z</time></trkpt><trkpt lat="38.1100767" lon="14.932495"><ele>906.0</ele><time>2026-03-29T13:07:24.733Z</time></trkpt><trkpt lat="38.1101583" lon="14.93253"><ele>909.0</ele><time>2026-03-29T13:07:25.733Z</time></trkpt><trkpt lat="38.1102533" lon="14.932565"><ele>912.0</ele><time>2026-03-29T13:07:26.732Z</time></trkpt><trkpt lat="38.1103583" lon="14.9326133"><ele>915.0</ele><time>2026-03-29T13:07:27.732Z</time></trkpt><trkpt lat="38.1104683" lon="14.9326483"><ele>918.0</ele><time>2026-03-29T13:07:28.732Z</time></trkpt><trkpt lat="38.1105717" lon="14.93267"><ele>918.0</ele><time>2026-03-29T13:07:29.732Z</time></trkpt><trkpt lat="38.110665" lon="14.9326817"><ele>918.0</ele><time>2026-03-29T13:07:30.733Z</time></trkpt><trkpt lat="38.1107467" lon="14.9327067"><ele>918.0</ele><time>2026-03-29T13:07:31.732Z</time></trkpt><trkpt lat="38.1108283" lon="14.9327117"><ele>918.0</ele><time>2026-03-29T13:07:32.733Z</time></trkpt><trkpt lat="38.1108967" lon="14.9327083"><ele>918.0</ele><time>2026-03-29T13:07:33.732Z</time></trkpt><trkpt lat="38.1109867" lon="14.9327167"><ele>918.0</ele><time>2026-03-29T13:07:35.733Z</time></trkpt><trkpt lat="38.1110717" lon="14.932715"><ele>917.5999999999999</ele><time>2026-03-29T13:07:37.732Z</time></trkpt><trkpt lat="38.111185" lon="14.9327117"><ele>917.1999999999999</ele><time>2026-03-29T13:07:39.733Z</time></trkpt><trkpt lat="38.1112683" lon="14.9326883"><ele>916.8</ele><time>2026-03-29T13:07:40.733Z</time></trkpt><trkpt lat="38.1113583" lon="14.9326567"><ele>916.4</ele><time>2026-03-29T13:07:41.733Z</time></trkpt><trkpt lat="38.1114217" lon="14.9326317"><ele>916.0</ele><time>2026-03-29T13:07:42.732Z</time></trkpt><trkpt lat="38.11152" lon="14.9326017"><ele>914.6666666666666</ele><time>2026-03-29T13:07:44.732Z</time></trkpt><trkpt lat="38.1115983" lon="14.9325883"><ele>913.3333333333333</ele><time>2026-03-29T13:07:45.733Z</time></trkpt><trkpt lat="38.11169" lon="14.9325733"><ele>912.0</ele><time>2026-03-29T13:07:46.732Z</time></trkpt><trkpt lat="38.1117683" lon="14.9325667"><ele>910.6666666666667</ele><time>2026-03-29T13:07:47.732Z</time></trkpt><trkpt lat="38.111845" lon="14.93259"><ele>909.3333333333334</ele><time>2026-03-29T13:07:48.732Z</time></trkpt><trkpt lat="38.1119183" lon="14.932635"><ele>908.0</ele><time>2026-03-29T13:07:49.732Z</time></trkpt><trkpt lat="38.1120117" lon="14.932685"><ele>908.0000000000001</ele><time>2026-03-29T13:07:50.733Z</time></trkpt><trkpt lat="38.11211" lon="14.9327167"><ele>908.0</ele><time>2026-03-29T13:07:51.733Z</time></trkpt><trkpt lat="38.112195" lon="14.9327367"><ele>908.0</ele><time>2026-03-29T13:07:52.733Z</time></trkpt><trkpt lat="38.1122817" lon="14.9327567"><ele>908.0</ele><time>2026-03-29T13:07:54.733Z</time></trkpt><trkpt lat="38.11236" lon="14.93281"><ele>908.0000000000001</ele><time>2026-03-29T13:07:58.733Z</time></trkpt><trkpt lat="38.1124233" lon="14.9328467"><ele>908.0</ele><time>2026-03-29T13:08:00.733Z</time></trkpt><trkpt lat="38.112495" lon="14.9328883"><ele>903.5999999999999</ele><time>2026-03-29T13:08:02.732Z</time></trkpt><trkpt lat="38.1125717" lon="14.9329583"><ele>899.1999999999999</ele><time>2026-03-29T13:08:04.732Z</time></trkpt><trkpt lat="38.1126383" lon="14.9330833"><ele>894.8</ele><time>2026-03-29T13:08:06.732Z</time></trkpt><trkpt lat="38.1126533" lon="14.9331633"><ele>890.4</ele><time>2026-03-29T13:08:07.733Z</time></trkpt><trkpt lat="38.1126767" lon="14.9332633"><ele>886.0</ele><time>2026-03-29T13:08:08.733Z</time></trkpt><trkpt lat="38.1127283" lon="14.9333817"><ele>889.0</ele><time>2026-03-29T13:08:09.733Z</time></trkpt><trkpt lat="38.1127917" lon="14.9335267"><ele>892.0</ele><time>2026-03-29T13:08:10.732Z</time></trkpt><trkpt lat="38.1128567" lon="14.93366"><ele>895.0</ele><time>2026-03-29T13:08:11.733Z</time></trkpt><trkpt lat="38.1129067" lon="14.9337817"><ele>898.0</ele><time>2026-03-29T13:08:12.733Z</time></trkpt><trkpt lat="38.112945" lon="14.933895"><ele>898.0</ele><time>2026-03-29T13:08:13.733Z</time></trkpt><trkpt lat="38.1129783" lon="14.9339917"><ele>898.0</ele><time>2026-03-29T13:08:14.733Z</time></trkpt><trkpt lat="38.1130033" lon="14.9340917"><ele>898.0</ele><time>2026-03-29T13:08:15.732Z</time></trkpt><trkpt lat="38.1130267" lon="14.93421"><ele>898.0</ele><time>2026-03-29T13:08:16.733Z</time></trkpt><trkpt lat="38.113055" lon="14.9343333"><ele>898.0</ele><time>2026-03-29T13:08:17.732Z</time></trkpt><trkpt lat="38.1130883" lon="14.934465"><ele>897.4</ele><time>2026-03-29T13:08:18.732Z</time></trkpt><trkpt lat="38.1131233" lon="14.9346083"><ele>896.8</ele><time>2026-03-29T13:08:19.733Z</time></trkpt><trkpt lat="38.1131683" lon="14.934735"><ele>896.2</ele><time>2026-03-29T13:08:20.733Z</time></trkpt><trkpt lat="38.1132283" lon="14.93485"><ele>895.6</ele><time>2026-03-29T13:08:21.733Z</time></trkpt><trkpt lat="38.1132783" lon="14.9349383"><ele>895.0</ele><time>2026-03-29T13:08:22.733Z</time></trkpt><trkpt lat="38.11333" lon="14.9350267"><ele>889.6666666666666</ele><time>2026-03-29T13:08:23.733Z</time></trkpt><trkpt lat="38.1133817" lon="14.935095"><ele>884.3333333333333</ele><time>2026-03-29T13:08:24.733Z</time></trkpt><trkpt lat="38.1134283" lon="14.9351517"><ele>879.0</ele><time>2026-03-29T13:08:25.732Z</time></trkpt><trkpt lat="38.1134983" lon="14.93522"><ele>873.6666666666667</ele><time>2026-03-29T13:08:27.732Z</time></trkpt><trkpt lat="38.1135317" lon="14.9352983"><ele>868.3333333333334</ele><time>2026-03-29T13:08:30.733Z</time></trkpt><trkpt lat="38.1135033" lon="14.9352217"><ele>863.0</ele><time>2026-03-29T13:08:35.734Z</time></trkpt><trkpt lat="38.113405" lon="14.935165"><ele>863.0000000000001</ele><time>2026-03-29T13:08:37.734Z</time></trkpt><trkpt lat="38.1133517" lon="14.9351217"><ele>863.0</ele><time>2026-03-29T13:08:38.733Z</time></trkpt><trkpt lat="38.113295" lon="14.935065"><ele>863.0</ele><time>2026-03-29T13:08:39.734Z</time></trkpt><trkpt lat="38.1132267" lon="14.9350267"><ele>863.0</ele><time>2026-03-29T13:08:40.733Z</time></trkpt><trkpt lat="38.1131583" lon="14.935035"><ele>863.0000000000001</ele><time>2026-03-29T13:08:41.734Z</time></trkpt><trkpt lat="38.1130733" lon="14.9350833"><ele>863.0</ele><time>2026-03-29T13:08:42.734Z</time></trkpt><trkpt lat="38.1129833" lon="14.935145"><ele>865.5999999999999</ele><time>2026-03-29T13:08:43.734Z</time></trkpt><trkpt lat="38.1129" lon="14.9352133"><ele>868.1999999999999</ele><time>2026-03-29T13:08:44.734Z</time></trkpt><trkpt lat="38.1128183" lon="14.9352867"><ele>870.8</ele><time>2026-03-29T13:08:45.734Z</time></trkpt><trkpt lat="38.112735" lon="14.9353417"><ele>873.4</ele><time>2026-03-29T13:08:46.733Z</time></trkpt><trkpt lat="38.1126533" lon="14.9353883"><ele>876.0</ele><time>2026-03-29T13:08:47.734Z</time></trkpt><trkpt lat="38.11257" lon="14.9354233"><ele>876.0</ele><time>2026-03-29T13:08:48.734Z</time></trkpt><trkpt lat="38.112495" lon="14.9354383"><ele>876.0</ele><time>2026-03-29T13:08:49.734Z</time></trkpt><trkpt lat="38.1124133" lon="14.9354533"><ele>876.0</ele><time>2026-03-29T13:08:50.734Z</time></trkpt><trkpt lat="38.1123233" lon="14.9354733"><ele>876.0</ele><time>2026-03-29T13:08:51.734Z</time></trkpt><trkpt lat="38.1122417" lon="14.93553"><ele>876.0</ele><time>2026-03-29T13:08:52.734Z</time></trkpt><trkpt lat="38.11217" lon="14.9356117"><ele>876.0</ele><time>2026-03-29T13:08:53.734Z</time></trkpt><trkpt lat="38.1121217" lon="14.9357"><ele>880.1666666666666</ele><time>2026-03-29T13:08:54.733Z</time></trkpt><trkpt lat="38.1120717" lon="14.9357817"><ele>884.3333333333333</ele><time>2026-03-29T13:08:55.734Z</time></trkpt><trkpt lat="38.11202" lon="14.9358333"><ele>888.5</ele><time>2026-03-29T13:08:56.734Z</time></trkpt><trkpt lat="38.11196" lon="14.9358633"><ele>892.6666666666666</ele><time>2026-03-29T13:08:57.733Z</time></trkpt><trkpt lat="38.11184" lon="14.93583"><ele>896.8333333333333</ele><time>2026-03-29T13:08:59.734Z</time></trkpt><trkpt lat="38.1117833" lon="14.935775"><ele>901.0</ele><time>2026-03-29T13:09:00.734Z</time></trkpt><trkpt lat="38.1117217" lon="14.93571"><ele>900.9999999999999</ele><time>2026-03-29T13:09:01.734Z</time></trkpt><trkpt lat="38.1116533" lon="14.935655"><ele>901.0</ele><time>2026-03-29T13:09:02.734Z</time></trkpt><trkpt lat="38.111585" lon="14.935625"><ele>901.0</ele><time>2026-03-29T13:09:03.733Z</time></trkpt><trkpt lat="38.111515" lon="14.935605"><ele>901.0</ele><time>2026-03-29T13:09:04.733Z</time></trkpt><trkpt lat="38.1114267" lon="14.9355917"><ele>900.9999999999999</ele><time>2026-03-29T13:09:05.733Z</time></trkpt><trkpt lat="38.1113233" lon="14.9355867"><ele>901.0</ele><time>2026-03-29T13:09:06.734Z</time></trkpt><trkpt lat="38.1112067" lon="14.9356017"><ele>899.4999999999999</ele><time>2026-03-29T13:09:07.733Z</time></trkpt><trkpt lat="38.1111117" lon="14.935605"><ele>898.0</ele><time>2026-03-29T13:09:08.733Z</time></trkpt><trkpt lat="38.1110267" lon="14.9356217"><ele>896.5</ele><time>2026-03-29T13:09:09.734Z</time></trkpt><trkpt lat="38.1109433" lon="14.93564"><ele>895.0</ele><time>2026-03-29T13:09:10.733Z</time></trkpt><trkpt lat="38.1108533" lon="14.93566"><ele>893.4999999999999</ele><time>2026-03-29T13:09:11.733Z</time></trkpt><trkpt lat="38.1107617" lon="14.9356483"><ele>892.0</ele><time>2026-03-29T13:09:12.734Z</time></trkpt><trkpt lat="38.11067" lon="14.9356167"><ele>891.9999999999999</ele><time>2026-03-29T13:09:13.733Z</time></trkpt><trkpt lat="38.1105867" lon="14.935575"><ele>892.0</ele><time>2026-03-29T13:09:14.734Z</time></trkpt><trkpt lat="38.1105117" lon="14.9355333"><ele>892.0</ele><time>2026-03-29T13:09:15.734Z</time></trkpt><trkpt lat="38.110445" lon="14.9354883"><ele>892.0</ele><time>2026-03-29T13:09:16.734Z</time></trkpt><trkpt lat="38.1103883" lon="14.93544"><ele>891.9999999999999</ele><time>2026-03-29T13:09:17.733Z</time></trkpt><trkpt lat="38.1103467" lon="14.93537"><ele>892.0</ele><time>2026-03-29T13:09:18.734Z</time></trkpt><trkpt lat="38.1103117" lon="14.9352683"><ele>891.9999999999999</ele><time>2026-03-29T13:09:19.734Z</time></trkpt><trkpt lat="38.1102733" lon="14.9351767"><ele>892.0</ele><time>2026-03-29T13:09:20.734Z</time></trkpt><trkpt lat="38.1102233" lon="14.9351017"><ele>892.0</ele><time>2026-03-29T13:09:21.734Z</time></trkpt><trkpt lat="38.11017" lon="14.9350167"><ele>892.0</ele><time>2026-03-29T13:09:22.733Z</time></trkpt><trkpt lat="38.110125" lon="14.93491"><ele>891.9999999999999</ele><time>2026-03-29T13:09:23.734Z</time></trkpt><trkpt lat="38.110075" lon="14.9347917"><ele>892.0</ele><time>2026-03-29T13:09:24.734Z</time></trkpt><trkpt lat="38.1100017" lon="14.934675"><ele>893.2</ele><time>2026-03-29T13:09:25.734Z</time></trkpt><trkpt lat="38.10993" lon="14.934565"><ele>894.4000000000001</ele><time>2026-03-29T13:09:26.734Z</time></trkpt><trkpt lat="38.1098567" lon="14.9344633"><ele>895.5999999999999</ele><time>2026-03-29T13:09:27.733Z</time></trkpt><trkpt lat="38.10978" lon="14.93439"><ele>896.8</ele><time>2026-03-29T13:09:28.733Z</time></trkpt><trkpt lat="38.10972" lon="14.934335"><ele>898.0</ele><time>2026-03-29T13:09:29.734Z</time></trkpt><trkpt lat="38.1096317" lon="14.93429"><ele>898.0</ele><time>2026-03-29T13:09:31.734Z</time></trkpt><trkpt lat="38.1096917" lon="14.9342267"><ele>898.0</ele><time>2026-03-29T13:09:34.734Z</time></trkpt><trkpt lat="38.10983" lon="14.9342567"><ele>898.0</ele><time>2026-03-29T13:09:36.734Z</time></trkpt><trkpt lat="38.1099217" lon="14.934285"><ele>898.0</ele><time>2026-03-29T13:09:37.734Z</time></trkpt><trkpt lat="38.110005" lon="14.9343067"><ele>898.0</ele><time>2026-03-29T13:09:38.734Z</time></trkpt><trkpt lat="38.1100783" lon="14.9343267"><ele>903.1666666666666</ele><time>2026-03-29T13:09:39.734Z</time></trkpt><trkpt lat="38.1101567" lon="14.9343467"><ele>908.3333333333333</ele><time>2026-03-29T13:09:40.734Z</time></trkpt><trkpt lat="38.1102333" lon="14.9343683"><ele>913.5</ele><time>2026-03-29T13:09:41.734Z</time></trkpt><trkpt lat="38.1103033" lon="14.9343967"><ele>918.6666666666667</ele><time>2026-03-29T13:09:42.734Z</time></trkpt><trkpt lat="38.11037" lon="14.9344283"><ele>923.8333333333334</ele><time>2026-03-29T13:09:43.734Z</time></trkpt><trkpt lat="38.110445" lon="14.9344933"><ele>929.0</ele><time>2026-03-29T13:09:45.734Z</time></trkpt><trkpt lat="38.1105433" lon="14.9345933"><ele>929.0</ele><time>2026-03-29T13:09:47.733Z</time></trkpt><trkpt lat="38.1106033" lon="14.93467"><ele>929.0000000000001</ele><time>2026-03-29T13:09:49.733Z</time></trkpt><trkpt lat="38.1106649" lon="14.9347012"><ele>929.0</ele><time>2026-03-29T13:12:52.733Z</time></trkpt><trkpt lat="38.1106276" lon="14.9347732"><ele>929.0</ele><time>2026-03-29T13:14:12.734Z</time></trkpt><trkpt lat="38.1105633" lon="14.9347514"><ele>929.0000000000001</ele><time>2026-03-29T13:15:11.735Z</time></trkpt><trkpt lat="38.110631" lon="14.9347834"><ele>929.0</ele><time>2026-03-29T13:23:22.736Z</time></trkpt><trkpt lat="38.1106339" lon="14.9347015"><ele>929.0</ele><time>2026-03-29T13:25:34.736Z</time></trkpt><trkpt lat="38.1106973" lon="14.934689"><ele>932.0000000000001</ele><time>2026-03-29T13:26:26.735Z</time></trkpt><trkpt lat="38.1107573" lon="14.9346344"><ele>935.0</ele><time>2026-03-29T13:30:47.737Z</time></trkpt><trkpt lat="38.1108182" lon="14.9346065"><ele>938.0</ele><time>2026-03-29T13:30:51.736Z</time></trkpt><trkpt lat="38.1108817" lon="14.9346083"><ele>941.0</ele><time>2026-03-29T13:32:40.736Z</time></trkpt><trkpt lat="38.1109554" lon="14.9346213"><ele>944.0000000000001</ele><time>2026-03-29T13:32:42.737Z</time></trkpt><trkpt lat="38.1110299" lon="14.9346222"><ele>947.0</ele><time>2026-03-29T13:32:45.737Z</time></trkpt><trkpt lat="38.1111274" lon="14.9346447"><ele>947.0000000000001</ele><time>2026-03-29T13:34:37.738Z</time></trkpt><trkpt lat="38.1111738" lon="14.9345748"><ele>947.0</ele><time>2026-03-29T13:34:40.737Z</time></trkpt><trkpt lat="38.1111421" lon="14.9344862"><ele>947.0</ele><time>2026-03-29T13:34:42.738Z</time></trkpt><trkpt lat="38.1110895" lon="14.934429"><ele>947.0</ele><time>2026-03-29T13:34:43.738Z</time></trkpt><trkpt lat="38.1110146" lon="14.9343671"><ele>947.0000000000001</ele><time>2026-03-29T13:34:44.737Z</time></trkpt><trkpt lat="38.1109229" lon="14.9343138"><ele>947.0</ele><time>2026-03-29T13:34:45.738Z</time></trkpt><trkpt lat="38.1108284" lon="14.934275"><ele>946.5</ele><time>2026-03-29T13:34:46.737Z</time></trkpt><trkpt lat="38.1107256" lon="14.9342463"><ele>946.0</ele><time>2026-03-29T13:34:47.737Z</time></trkpt><trkpt lat="38.1106085" lon="14.9342165"><ele>945.5</ele><time>2026-03-29T13:34:48.737Z</time></trkpt><trkpt lat="38.1104905" lon="14.9341849"><ele>945.0</ele><time>2026-03-29T13:34:49.738Z</time></trkpt><trkpt lat="38.1103812" lon="14.9341599"><ele>945.0</ele><time>2026-03-29T13:34:50.737Z</time></trkpt><trkpt lat="38.110279" lon="14.9341408"><ele>945.0</ele><time>2026-03-29T13:34:51.738Z</time></trkpt><trkpt lat="38.1101813" lon="14.9341298"><ele>945.0</ele><time>2026-03-29T13:34:52.737Z</time></trkpt><trkpt lat="38.1100937" lon="14.9341317"><ele>945.0</ele><time>2026-03-29T13:34:53.737Z</time></trkpt><trkpt lat="38.1100167" lon="14.9341459"><ele>945.0</ele><time>2026-03-29T13:34:54.737Z</time></trkpt><trkpt lat="38.1099505" lon="14.9341737"><ele>945.0</ele><time>2026-03-29T13:34:55.738Z</time></trkpt><trkpt lat="38.109834" lon="14.9342231"><ele>942.6666666666666</ele><time>2026-03-29T13:34:57.737Z</time></trkpt><trkpt lat="38.109728" lon="14.9342062"><ele>940.3333333333333</ele><time>2026-03-29T13:34:59.738Z</time></trkpt><trkpt lat="38.1096335" lon="14.9342301"><ele>938.0</ele><time>2026-03-29T13:35:01.738Z</time></trkpt><trkpt lat="38.1095708" lon="14.9342502"><ele>935.6666666666666</ele><time>2026-03-29T13:35:02.737Z</time></trkpt><trkpt lat="38.10949" lon="14.9342547"><ele>933.3333333333333</ele><time>2026-03-29T13:35:03.738Z</time></trkpt><trkpt lat="38.1093986" lon="14.9342337"><ele>931.0</ele><time>2026-03-29T13:35:04.738Z</time></trkpt><trkpt lat="38.1092926" lon="14.9341935"><ele>931.0</ele><time>2026-03-29T13:35:05.738Z</time></trkpt><trkpt lat="38.1091737" lon="14.9341384"><ele>931.0</ele><time>2026-03-29T13:35:06.738Z</time></trkpt><trkpt lat="38.1090527" lon="14.9340725"><ele>931.0</ele><time>2026-03-29T13:35:07.737Z</time></trkpt><trkpt lat="38.1089489" lon="14.9340205"><ele>931.0</ele><time>2026-03-29T13:35:08.737Z</time></trkpt><trkpt lat="38.1088658" lon="14.9339807"><ele>928.5</ele><time>2026-03-29T13:35:09.738Z</time></trkpt><trkpt lat="38.1087801" lon="14.9339384"><ele>926.0</ele><time>2026-03-29T13:35:10.737Z</time></trkpt><trkpt lat="38.1086669" lon="14.9338936"><ele>923.5</ele><time>2026-03-29T13:35:11.738Z</time></trkpt><trkpt lat="38.1085371" lon="14.9338481"><ele>921.0</ele><time>2026-03-29T13:35:12.738Z</time></trkpt><trkpt lat="38.1084025" lon="14.9337988"><ele>921.0</ele><time>2026-03-29T13:35:13.737Z</time></trkpt><trkpt lat="38.1082689" lon="14.9337424"><ele>921.0</ele><time>2026-03-29T13:35:14.738Z</time></trkpt><trkpt lat="38.1081493" lon="14.9336922"><ele>921.0</ele><time>2026-03-29T13:35:15.737Z</time></trkpt><trkpt lat="38.1080364" lon="14.9336567"><ele>921.0</ele><time>2026-03-29T13:35:16.738Z</time></trkpt><trkpt lat="38.1079264" lon="14.9336107"><ele>919.0</ele><time>2026-03-29T13:35:17.738Z</time></trkpt><trkpt lat="38.1078067" lon="14.9335653"><ele>917.0</ele><time>2026-03-29T13:35:18.738Z</time></trkpt><trkpt lat="38.107677" lon="14.9335246"><ele>915.0</ele><time>2026-03-29T13:35:19.738Z</time></trkpt><trkpt lat="38.1075703" lon="14.9334938"><ele>913.0</ele><time>2026-03-29T13:35:20.738Z</time></trkpt><trkpt lat="38.1074845" lon="14.9334795"><ele>911.9999999999999</ele><time>2026-03-29T13:35:21.737Z</time></trkpt><trkpt lat="38.1074049" lon="14.9334787"><ele>911.0</ele><time>2026-03-29T13:35:22.738Z</time></trkpt><trkpt lat="38.1073387" lon="14.9334753"><ele>910.0</ele><time>2026-03-29T13:35:23.737Z</time></trkpt><trkpt lat="38.1072724" lon="14.9334492"><ele>909.0</ele><time>2026-03-29T13:35:24.738Z</time></trkpt><trkpt lat="38.1072127" lon="14.9333974"><ele>907.9999999999999</ele><time>2026-03-29T13:35:25.738Z</time></trkpt><trkpt lat="38.1071553" lon="14.9333155"><ele>907.0</ele><time>2026-03-29T13:35:26.738Z</time></trkpt><trkpt lat="38.1070843" lon="14.9332409"><ele>913.0</ele><time>2026-03-29T13:35:27.738Z</time></trkpt><trkpt lat="38.1069923" lon="14.9331803"><ele>919.0</ele><time>2026-03-29T13:35:28.737Z</time></trkpt><trkpt lat="38.1068933" lon="14.9331334"><ele>925.0</ele><time>2026-03-29T13:35:29.738Z</time></trkpt><trkpt lat="38.1068002" lon="14.9331071"><ele>931.0</ele><time>2026-03-29T13:35:30.738Z</time></trkpt><trkpt lat="38.1067261" lon="14.9331007"><ele>937.0</ele><time>2026-03-29T13:35:31.737Z</time></trkpt><trkpt lat="38.1066366" lon="14.933084"><ele>936.9999999999999</ele><time>2026-03-29T13:35:33.738Z</time></trkpt><trkpt lat="38.1066337" lon="14.9329825"><ele>937.0</ele><time>2026-03-29T13:35:35.737Z</time></trkpt><trkpt lat="38.1067115" lon="14.932863"><ele>937.0</ele><time>2026-03-29T13:35:37.738Z</time></trkpt><trkpt lat="38.1067713" lon="14.9328286"><ele>937.0</ele><time>2026-03-29T13:35:38.738Z</time></trkpt><trkpt lat="38.1068592" lon="14.9327869"><ele>936.9999999999999</ele><time>2026-03-29T13:35:40.738Z</time></trkpt><trkpt lat="38.106921" lon="14.9327139"><ele>937.0</ele><time>2026-03-29T13:35:43.737Z</time></trkpt><trkpt lat="38.1069356" lon="14.9326262"><ele>936.9999999999999</ele><time>2026-03-29T13:35:45.738Z</time></trkpt><trkpt lat="38.1068839" lon="14.9325693"><ele>937.0</ele><time>2026-03-29T13:35:47.738Z</time></trkpt><trkpt lat="38.1068043" lon="14.9326087"><ele>937.0</ele><time>2026-03-29T13:35:49.737Z</time></trkpt><trkpt lat="38.1067602" lon="14.9327229"><ele>937.0</ele><time>2026-03-29T13:35:51.737Z</time></trkpt><trkpt lat="38.1067803" lon="14.9328355"><ele>936.9999999999999</ele><time>2026-03-29T13:35:53.737Z</time></trkpt><trkpt lat="38.1068303" lon="14.9328916"><ele>937.0</ele><time>2026-03-29T13:36:02.737Z</time></trkpt><trkpt lat="38.1068945" lon="14.9329138"><ele>936.9999999999999</ele><time>2026-03-29T13:36:04.738Z</time></trkpt><trkpt lat="38.1068746" lon="14.9328142"><ele>937.0</ele><time>2026-03-29T13:36:07.737Z</time></trkpt><trkpt lat="38.1067673" lon="14.9328014"><ele>937.0</ele><time>2026-03-29T13:36:09.738Z</time></trkpt><trkpt lat="38.1066843" lon="14.9328559"><ele>937.0</ele><time>2026-03-29T13:36:11.738Z</time></trkpt><trkpt lat="38.1066418" lon="14.9329283"><ele>936.9999999999999</ele><time>2026-03-29T13:36:13.738Z</time></trkpt><trkpt lat="38.1066159" lon="14.9330298"><ele>937.0</ele><time>2026-03-29T13:36:16.738Z</time></trkpt><trkpt lat="38.1066562" lon="14.9331144"><ele>937.0</ele><time>2026-03-29T13:36:19.737Z</time></trkpt><trkpt lat="38.1067141" lon="14.933147"><ele>937.0</ele><time>2026-03-29T13:36:21.737Z</time></trkpt><trkpt lat="38.106835" lon="14.933155"><ele>937.0</ele><time>2026-03-29T13:36:23.738Z</time></trkpt><trkpt lat="38.1069" lon="14.9331617"><ele>937.0</ele><time>2026-03-29T13:36:24.738Z</time></trkpt><trkpt lat="38.1070267" lon="14.933215"><ele>937.0</ele><time>2026-03-29T13:36:26.737Z</time></trkpt><trkpt lat="38.1070967" lon="14.9332567"><ele>936.9999999999999</ele><time>2026-03-29T13:36:27.738Z</time></trkpt><trkpt lat="38.1071533" lon="14.9333033"><ele>937.0</ele><time>2026-03-29T13:36:28.737Z</time></trkpt><trkpt lat="38.1072" lon="14.9333583"><ele>937.0</ele><time>2026-03-29T13:36:29.738Z</time></trkpt><trkpt lat="38.107245" lon="14.9334167"><ele>937.0</ele><time>2026-03-29T13:36:30.738Z</time></trkpt><trkpt lat="38.10735" lon="14.9335"><ele>936.9999999999999</ele><time>2026-03-29T13:36:32.738Z</time></trkpt><trkpt lat="38.1074233" lon="14.9335217"><ele>937.0</ele><time>2026-03-29T13:36:33.738Z</time></trkpt><trkpt lat="38.1075083" lon="14.93353"><ele>932.9999999999999</ele><time>2026-03-29T13:36:34.738Z</time></trkpt><trkpt lat="38.1076017" lon="14.933535"><ele>929.0</ele><time>2026-03-29T13:36:35.737Z</time></trkpt><trkpt lat="38.1076933" lon="14.93355"><ele>925.0</ele><time>2026-03-29T13:36:36.737Z</time></trkpt><trkpt lat="38.107775" lon="14.9335783"><ele>921.0</ele><time>2026-03-29T13:36:37.737Z</time></trkpt><trkpt lat="38.1078467" lon="14.9336133"><ele>916.9999999999999</ele><time>2026-03-29T13:36:38.738Z</time></trkpt><trkpt lat="38.1079083" lon="14.9336717"><ele>913.0</ele><time>2026-03-29T13:36:39.737Z</time></trkpt><trkpt lat="38.107965" lon="14.93375"><ele>912.9999999999999</ele><time>2026-03-29T13:36:40.738Z</time></trkpt><trkpt lat="38.1080183" lon="14.933835"><ele>913.0</ele><time>2026-03-29T13:36:41.738Z</time></trkpt><trkpt lat="38.108085" lon="14.933905"><ele>913.0</ele><time>2026-03-29T13:36:42.737Z</time></trkpt><trkpt lat="38.1081633" lon="14.9339633"><ele>913.0</ele><time>2026-03-29T13:36:43.738Z</time></trkpt><trkpt lat="38.108225" lon="14.93401"><ele>912.9999999999999</ele><time>2026-03-29T13:36:44.738Z</time></trkpt><trkpt lat="38.108305" lon="14.9340767"><ele>913.0</ele><time>2026-03-29T13:36:46.738Z</time></trkpt><trkpt lat="38.10822" lon="14.9340967"><ele>913.0</ele><time>2026-03-29T13:36:49.738Z</time></trkpt><trkpt lat="38.1081283" lon="14.9340817"><ele>913.0</ele><time>2026-03-29T13:36:50.738Z</time></trkpt><trkpt lat="38.1080333" lon="14.934065"><ele>913.0</ele><time>2026-03-29T13:36:51.738Z</time></trkpt><trkpt lat="38.1079483" lon="14.934065"><ele>913.0</ele><time>2026-03-29T13:36:52.738Z</time></trkpt><trkpt lat="38.10788" lon="14.9340767"><ele>913.0</ele><time>2026-03-29T13:36:53.738Z</time></trkpt><trkpt lat="38.1077717" lon="14.9341717"><ele>907.9999999999999</ele><time>2026-03-29T13:36:55.738Z</time></trkpt><trkpt lat="38.10772" lon="14.9342533"><ele>903.0</ele><time>2026-03-29T13:36:56.737Z</time></trkpt><trkpt lat="38.1076617" lon="14.9343617"><ele>898.0</ele><time>2026-03-29T13:36:57.737Z</time></trkpt><trkpt lat="38.1076267" lon="14.9344683"><ele>893.0</ele><time>2026-03-29T13:36:58.737Z</time></trkpt><trkpt lat="38.1075867" lon="14.9345517"><ele>887.9999999999999</ele><time>2026-03-29T13:36:59.738Z</time></trkpt><trkpt lat="38.1075417" lon="14.934615"><ele>883.0</ele><time>2026-03-29T13:37:00.738Z</time></trkpt><trkpt lat="38.1074817" lon="14.93472"><ele>882.9999999999999</ele><time>2026-03-29T13:37:02.738Z</time></trkpt><trkpt lat="38.1075283" lon="14.9347833"><ele>883.0</ele><time>2026-03-29T13:37:04.738Z</time></trkpt><trkpt lat="38.107665" lon="14.93479"><ele>883.0</ele><time>2026-03-29T13:37:06.738Z</time></trkpt><trkpt lat="38.1077333" lon="14.93477"><ele>883.0</ele><time>2026-03-29T13:37:07.738Z</time></trkpt><trkpt lat="38.1078033" lon="14.9347383"><ele>882.9999999999999</ele><time>2026-03-29T13:37:08.737Z</time></trkpt><trkpt lat="38.1078683" lon="14.93471"><ele>883.0</ele><time>2026-03-29T13:37:09.738Z</time></trkpt><trkpt lat="38.1080017" lon="14.9347417"><ele>882.9999999999999</ele><time>2026-03-29T13:37:11.737Z</time></trkpt><trkpt lat="38.1080933" lon="14.93477"><ele>883.0</ele><time>2026-03-29T13:37:12.738Z</time></trkpt><trkpt lat="38.108185" lon="14.9347983"><ele>883.0</ele><time>2026-03-29T13:37:13.737Z</time></trkpt><trkpt lat="38.1082633" lon="14.9348417"><ele>883.0</ele><time>2026-03-29T13:37:14.738Z</time></trkpt><trkpt lat="38.10833" lon="14.9348917"><ele>882.9999999999999</ele><time>2026-03-29T13:37:15.738Z</time></trkpt><trkpt lat="38.1084117" lon="14.93494"><ele>883.0</ele><time>2026-03-29T13:37:16.738Z</time></trkpt><trkpt lat="38.1085117" lon="14.9349817"><ele>883.4999999999999</ele><time>2026-03-29T13:37:17.737Z</time></trkpt><trkpt lat="38.10861" lon="14.93501"><ele>884.0</ele><time>2026-03-29T13:37:18.737Z</time></trkpt><trkpt lat="38.108705" lon="14.9350417"><ele>884.5</ele><time>2026-03-29T13:37:19.738Z</time></trkpt><trkpt lat="38.1087817" lon="14.9350733"><ele>885.0</ele><time>2026-03-29T13:37:20.737Z</time></trkpt><trkpt lat="38.108845" lon="14.9351117"><ele>885.4999999999999</ele><time>2026-03-29T13:37:21.737Z</time></trkpt><trkpt lat="38.1089267" lon="14.9351717"><ele>886.0</ele><time>2026-03-29T13:37:23.738Z</time></trkpt><trkpt lat="38.1090333" lon="14.9352583"><ele>881.0</ele><time>2026-03-29T13:37:25.738Z</time></trkpt><trkpt lat="38.1091083" lon="14.9353167"><ele>875.9999999999999</ele><time>2026-03-29T13:37:26.738Z</time></trkpt><trkpt lat="38.1091983" lon="14.935365"><ele>870.9999999999999</ele><time>2026-03-29T13:37:27.737Z</time></trkpt><trkpt lat="38.1092983" lon="14.9353983"><ele>866.0</ele><time>2026-03-29T13:37:28.738Z</time></trkpt><trkpt lat="38.1093917" lon="14.9354067"><ele>861.0</ele><time>2026-03-29T13:37:29.738Z</time></trkpt><trkpt lat="38.1094683" lon="14.935415"><ele>861.0</ele><time>2026-03-29T13:37:30.737Z</time></trkpt><trkpt lat="38.109575" lon="14.9354583"><ele>860.9999999999999</ele><time>2026-03-29T13:37:32.738Z</time></trkpt><trkpt lat="38.10965" lon="14.9355683"><ele>860.9999999999999</ele><time>2026-03-29T13:37:34.737Z</time></trkpt><trkpt lat="38.1096833" lon="14.9356483"><ele>861.0</ele><time>2026-03-29T13:37:35.738Z</time></trkpt><trkpt lat="38.109735" lon="14.9357233"><ele>861.0</ele><time>2026-03-29T13:37:36.738Z</time></trkpt><trkpt lat="38.1098" lon="14.9358233"><ele>861.5999999999999</ele><time>2026-03-29T13:37:37.738Z</time></trkpt><trkpt lat="38.109865" lon="14.93594"><ele>862.1999999999999</ele><time>2026-03-29T13:37:38.738Z</time></trkpt><trkpt lat="38.1099267" lon="14.9360417"><ele>862.8000000000001</ele><time>2026-03-29T13:37:39.738Z</time></trkpt><trkpt lat="38.1099817" lon="14.93613"><ele>863.4000000000001</ele><time>2026-03-29T13:37:40.737Z</time></trkpt><trkpt lat="38.1100383" lon="14.9362117"><ele>864.0</ele><time>2026-03-29T13:37:41.738Z</time></trkpt><trkpt lat="38.1101" lon="14.9362733"><ele>864.0</ele><time>2026-03-29T13:37:42.738Z</time></trkpt><trkpt lat="38.1101583" lon="14.9363333"><ele>864.0</ele><time>2026-03-29T13:37:43.738Z</time></trkpt><trkpt lat="38.110235" lon="14.9364183"><ele>864.0</ele><time>2026-03-29T13:37:45.737Z</time></trkpt><trkpt lat="38.1101933" lon="14.9364817"><ele>864.0</ele><time>2026-03-29T13:37:49.738Z</time></trkpt><trkpt lat="38.11017" lon="14.9365767"><ele>864.0</ele><time>2026-03-29T13:37:53.738Z</time></trkpt><trkpt lat="38.110175" lon="14.9367233"><ele>864.0</ele><time>2026-03-29T13:37:55.738Z</time></trkpt><trkpt lat="38.1101867" lon="14.9368583"><ele>861.25</ele><time>2026-03-29T13:37:56.737Z</time></trkpt><trkpt lat="38.1102033" lon="14.9370317"><ele>858.5</ele><time>2026-03-29T13:37:57.738Z</time></trkpt><trkpt lat="38.110225" lon="14.9372333"><ele>855.75</ele><time>2026-03-29T13:37:58.738Z</time></trkpt><trkpt lat="38.11025" lon="14.93741"><ele>853.0</ele><time>2026-03-29T13:37:59.737Z</time></trkpt><trkpt lat="38.110275" lon="14.9375617"><ele>849.2</ele><time>2026-03-29T13:38:00.738Z</time></trkpt><trkpt lat="38.1102917" lon="14.9377"><ele>845.4</ele><time>2026-03-29T13:38:01.738Z</time></trkpt><trkpt lat="38.1103133" lon="14.9378283"><ele>841.6</ele><time>2026-03-29T13:38:02.738Z</time></trkpt><trkpt lat="38.1103467" lon="14.93795"><ele>837.8000000000001</ele><time>2026-03-29T13:38:03.738Z</time></trkpt><trkpt lat="38.1103967" lon="14.9380567"><ele>834.0</ele><time>2026-03-29T13:38:04.737Z</time></trkpt><trkpt lat="38.1104633" lon="14.9381467"><ele>834.0</ele><time>2026-03-29T13:38:05.738Z</time></trkpt><trkpt lat="38.11055" lon="14.9382267"><ele>834.0</ele><time>2026-03-29T13:38:06.738Z</time></trkpt><trkpt lat="38.11066" lon="14.9382967"><ele>834.0</ele><time>2026-03-29T13:38:07.738Z</time></trkpt><trkpt lat="38.1107767" lon="14.9383433"><ele>834.0</ele><time>2026-03-29T13:38:08.737Z</time></trkpt><trkpt lat="38.1108733" lon="14.9383633"><ele>837.8333333333334</ele><time>2026-03-29T13:38:09.738Z</time></trkpt><trkpt lat="38.11096" lon="14.9383583"><ele>841.6666666666667</ele><time>2026-03-29T13:38:10.738Z</time></trkpt><trkpt lat="38.11104" lon="14.9383333"><ele>845.5</ele><time>2026-03-29T13:38:11.737Z</time></trkpt><trkpt lat="38.11111" lon="14.9383117"><ele>849.3333333333334</ele><time>2026-03-29T13:38:12.737Z</time></trkpt><trkpt lat="38.111165" lon="14.9382633"><ele>853.1666666666667</ele><time>2026-03-29T13:38:13.738Z</time></trkpt><trkpt lat="38.1112267" lon="14.938185"><ele>857.0</ele><time>2026-03-29T13:38:14.737Z</time></trkpt><trkpt lat="38.1113083" lon="14.938065"><ele>857.0</ele><time>2026-03-29T13:38:15.737Z</time></trkpt><trkpt lat="38.1114117" lon="14.9379383"><ele>857.0</ele><time>2026-03-29T13:38:16.737Z</time></trkpt><trkpt lat="38.11151" lon="14.9378083"><ele>857.0</ele><time>2026-03-29T13:38:17.737Z</time></trkpt><trkpt lat="38.1115817" lon="14.93769"><ele>857.0</ele><time>2026-03-29T13:38:18.737Z</time></trkpt><trkpt lat="38.111635" lon="14.937565"><ele>856.6</ele><time>2026-03-29T13:38:19.738Z</time></trkpt><trkpt lat="38.11167" lon="14.9374233"><ele>856.2</ele><time>2026-03-29T13:38:20.738Z</time></trkpt><trkpt lat="38.111695" lon="14.9372817"><ele>855.8</ele><time>2026-03-29T13:38:21.738Z</time></trkpt><trkpt lat="38.1117067" lon="14.93715"><ele>855.4</ele><time>2026-03-29T13:38:22.738Z</time></trkpt><trkpt lat="38.1117133" lon="14.9370367"><ele>855.0</ele><time>2026-03-29T13:38:23.738Z</time></trkpt><trkpt lat="38.1117367" lon="14.9369283"><ele>855.0</ele><time>2026-03-29T13:38:24.738Z</time></trkpt><trkpt lat="38.1117783" lon="14.9368433"><ele>855.0</ele><time>2026-03-29T13:38:25.738Z</time></trkpt><trkpt lat="38.11184" lon="14.9367833"><ele>855.0</ele><time>2026-03-29T13:38:26.738Z</time></trkpt><trkpt lat="38.111925" lon="14.9367483"><ele>855.0</ele><time>2026-03-29T13:38:27.738Z</time></trkpt><trkpt lat="38.1120383" lon="14.9367433"><ele>855.0</ele><time>2026-03-29T13:38:28.738Z</time></trkpt><trkpt lat="38.1121517" lon="14.9367233"><ele>852.5</ele><time>2026-03-29T13:38:29.738Z</time></trkpt><trkpt lat="38.112265" lon="14.9366533"><ele>850.0</ele><time>2026-03-29T13:38:30.738Z</time></trkpt><trkpt lat="38.1123833" lon="14.9365683"><ele>847.5</ele><time>2026-03-29T13:38:31.738Z</time></trkpt><trkpt lat="38.112495" lon="14.9364633"><ele>845.0</ele><time>2026-03-29T13:38:32.738Z</time></trkpt><trkpt lat="38.1125917" lon="14.9363467"><ele>845.0</ele><time>2026-03-29T13:38:33.737Z</time></trkpt><trkpt lat="38.1126783" lon="14.9362333"><ele>845.0</ele><time>2026-03-29T13:38:34.737Z</time></trkpt><trkpt lat="38.11278" lon="14.9361517"><ele>845.0</ele><time>2026-03-29T13:38:35.737Z</time></trkpt><trkpt lat="38.1128967" lon="14.9361017"><ele>845.0</ele><time>2026-03-29T13:38:36.738Z</time></trkpt><trkpt lat="38.1130033" lon="14.936065"><ele>845.0</ele><time>2026-03-29T13:38:37.737Z</time></trkpt><trkpt lat="38.1130783" lon="14.9360117"><ele>845.0</ele><time>2026-03-29T13:38:38.738Z</time></trkpt><trkpt lat="38.1131433" lon="14.9359233"><ele>845.0</ele><time>2026-03-29T13:38:39.737Z</time></trkpt><trkpt lat="38.1132067" lon="14.93581"><ele>845.0</ele><time>2026-03-29T13:38:40.738Z</time></trkpt><trkpt lat="38.1132683" lon="14.9356717"><ele>845.0</ele><time>2026-03-29T13:38:41.737Z</time></trkpt><trkpt lat="38.113335" lon="14.9355517"><ele>848.0000000000001</ele><time>2026-03-29T13:38:42.737Z</time></trkpt><trkpt lat="38.1134033" lon="14.93545"><ele>851.0</ele><time>2026-03-29T13:38:43.737Z</time></trkpt><trkpt lat="38.1134533" lon="14.9353617"><ele>854.0</ele><time>2026-03-29T13:38:44.738Z</time></trkpt><trkpt lat="38.1135083" lon="14.9353183"><ele>857.0</ele><time>2026-03-29T13:38:45.738Z</time></trkpt><trkpt lat="38.1136" lon="14.9352867"><ele>860.0000000000001</ele><time>2026-03-29T13:38:47.738Z</time></trkpt><trkpt lat="38.1136717" lon="14.9353033"><ele>863.0</ele><time>2026-03-29T13:38:49.737Z</time></trkpt><trkpt lat="38.113745" lon="14.9353033"><ele>863.0</ele><time>2026-03-29T13:38:52.738Z</time></trkpt><trkpt lat="38.1138383" lon="14.935325"><ele>863.0</ele><time>2026-03-29T13:38:54.737Z</time></trkpt><trkpt lat="38.1139417" lon="14.935325"><ele>863.0</ele><time>2026-03-29T13:38:56.738Z</time></trkpt><trkpt lat="38.1140717" lon="14.935365"><ele>863.0</ele><time>2026-03-29T13:38:58.737Z</time></trkpt><trkpt lat="38.1141483" lon="14.93541"><ele>863.0</ele><time>2026-03-29T13:38:59.738Z</time></trkpt><trkpt lat="38.1142233" lon="14.935465"><ele>863.0000000000001</ele><time>2026-03-29T13:39:00.739Z</time></trkpt><trkpt lat="38.1143033" lon="14.935515"><ele>863.0</ele><time>2026-03-29T13:39:01.739Z</time></trkpt><trkpt lat="38.1143833" lon="14.9355567"><ele>863.0</ele><time>2026-03-29T13:39:02.739Z</time></trkpt><trkpt lat="38.1144583" lon="14.9356017"><ele>863.0</ele><time>2026-03-29T13:39:03.739Z</time></trkpt><trkpt lat="38.11452" lon="14.9356467"><ele>863.0000000000001</ele><time>2026-03-29T13:39:04.739Z</time></trkpt><trkpt lat="38.1146033" lon="14.935705"><ele>863.0</ele><time>2026-03-29T13:39:06.739Z</time></trkpt><trkpt lat="38.1146717" lon="14.9357333"><ele>863.0000000000001</ele><time>2026-03-29T13:39:08.738Z</time></trkpt><trkpt lat="38.114765" lon="14.9357733"><ele>863.0</ele><time>2026-03-29T13:39:10.738Z</time></trkpt><trkpt lat="38.11486" lon="14.93581"><ele>863.0</ele><time>2026-03-29T13:39:12.739Z</time></trkpt><trkpt lat="38.1149267" lon="14.9358417"><ele>863.0</ele><time>2026-03-29T13:39:14.739Z</time></trkpt><trkpt lat="38.115" lon="14.9358817"><ele>863.0000000000001</ele><time>2026-03-29T13:39:16.739Z</time></trkpt><trkpt lat="38.115075" lon="14.935925"><ele>863.0</ele><time>2026-03-29T13:39:18.739Z</time></trkpt><trkpt lat="38.1151467" lon="14.9360067"><ele>858.4</ele><time>2026-03-29T13:39:20.738Z</time></trkpt><trkpt lat="38.1152333" lon="14.9361033"><ele>853.8</ele><time>2026-03-29T13:39:22.739Z</time></trkpt><trkpt lat="38.115325" lon="14.9361933"><ele>849.2</ele><time>2026-03-29T13:39:24.739Z</time></trkpt><trkpt lat="38.1153783" lon="14.936245"><ele>844.6</ele><time>2026-03-29T13:39:25.739Z</time></trkpt><trkpt lat="38.115425" lon="14.9363017"><ele>840.0</ele><time>2026-03-29T13:39:26.739Z</time></trkpt><trkpt lat="38.1154967" lon="14.9364"><ele>840.0</ele><time>2026-03-29T13:39:28.738Z</time></trkpt><trkpt lat="38.1155717" lon="14.9364917"><ele>840.0</ele><time>2026-03-29T13:39:30.738Z</time></trkpt><trkpt lat="38.1156683" lon="14.9365667"><ele>840.0</ele><time>2026-03-29T13:39:32.739Z</time></trkpt><trkpt lat="38.1157483" lon="14.93661"><ele>840.0</ele><time>2026-03-29T13:39:34.739Z</time></trkpt><trkpt lat="38.11582" lon="14.936665"><ele>840.0</ele><time>2026-03-29T13:39:36.739Z</time></trkpt><trkpt lat="38.1158483" lon="14.9367483"><ele>840.0</ele><time>2026-03-29T13:39:39.738Z</time></trkpt><trkpt lat="38.1158167" lon="14.9366617"><ele>840.0</ele><time>2026-03-29T13:39:44.739Z</time></trkpt><trkpt lat="38.1157583" lon="14.9366183"><ele>840.0</ele><time>2026-03-29T13:39:45.739Z</time></trkpt><trkpt lat="38.1156717" lon="14.936565"><ele>840.0</ele><time>2026-03-29T13:39:46.738Z</time></trkpt><trkpt lat="38.115585" lon="14.936495"><ele>840.0</ele><time>2026-03-29T13:39:47.738Z</time></trkpt><trkpt lat="38.1155033" lon="14.9364133"><ele>840.0</ele><time>2026-03-29T13:39:48.739Z</time></trkpt><trkpt lat="38.115435" lon="14.93631"><ele>840.0</ele><time>2026-03-29T13:39:49.738Z</time></trkpt><trkpt lat="38.1153583" lon="14.93622"><ele>840.0</ele><time>2026-03-29T13:39:50.739Z</time></trkpt><trkpt lat="38.1152717" lon="14.9361367"><ele>840.0</ele><time>2026-03-29T13:39:51.739Z</time></trkpt><trkpt lat="38.1151867" lon="14.9360433"><ele>840.0</ele><time>2026-03-29T13:39:52.738Z</time></trkpt><trkpt lat="38.1151033" lon="14.93596"><ele>840.0</ele><time>2026-03-29T13:39:53.738Z</time></trkpt><trkpt lat="38.1150383" lon="14.9359033"><ele>843.0</ele><time>2026-03-29T13:39:54.738Z</time></trkpt><trkpt lat="38.11498" lon="14.9358617"><ele>846.0</ele><time>2026-03-29T13:39:55.738Z</time></trkpt><trkpt lat="38.1149067" lon="14.9358233"><ele>849.0</ele><time>2026-03-29T13:39:56.739Z</time></trkpt><trkpt lat="38.114825" lon="14.9357783"><ele>852.0</ele><time>2026-03-29T13:39:57.738Z</time></trkpt><trkpt lat="38.11475" lon="14.93575"><ele>855.0</ele><time>2026-03-29T13:39:58.739Z</time></trkpt><trkpt lat="38.1146717" lon="14.93572"><ele>858.0</ele><time>2026-03-29T13:39:59.739Z</time></trkpt><trkpt lat="38.11459" lon="14.9356917"><ele>859.0</ele><time>2026-03-29T13:40:00.739Z</time></trkpt><trkpt lat="38.1145183" lon="14.93565"><ele>860.0</ele><time>2026-03-29T13:40:01.738Z</time></trkpt><trkpt lat="38.114425" lon="14.93557"><ele>861.0</ele><time>2026-03-29T13:40:03.739Z</time></trkpt><trkpt lat="38.114325" lon="14.9355283"><ele>862.0</ele><time>2026-03-29T13:40:05.739Z</time></trkpt><trkpt lat="38.1142433" lon="14.93547"><ele>863.0</ele><time>2026-03-29T13:40:07.738Z</time></trkpt><trkpt lat="38.1141517" lon="14.9354183"><ele>863.0</ele><time>2026-03-29T13:40:09.739Z</time></trkpt><trkpt lat="38.1140667" lon="14.9353667"><ele>863.0</ele><time>2026-03-29T13:40:11.738Z</time></trkpt><trkpt lat="38.1139717" lon="14.9353117"><ele>863.0</ele><time>2026-03-29T13:40:13.738Z</time></trkpt><trkpt lat="38.113865" lon="14.9352817"><ele>863.0</ele><time>2026-03-29T13:40:15.739Z</time></trkpt><trkpt lat="38.1138" lon="14.9352867"><ele>863.0</ele><time>2026-03-29T13:40:16.738Z</time></trkpt><trkpt lat="38.1136983" lon="14.9352583"><ele>863.0</ele><time>2026-03-29T13:40:18.739Z</time></trkpt><trkpt lat="38.1136233" lon="14.935135"><ele>863.0</ele><time>2026-03-29T13:40:20.739Z</time></trkpt><trkpt lat="38.113565" lon="14.9350267"><ele>863.0</ele><time>2026-03-29T13:40:21.738Z</time></trkpt><trkpt lat="38.11351" lon="14.9349083"><ele>863.0</ele><time>2026-03-29T13:40:22.739Z</time></trkpt><trkpt lat="38.1134733" lon="14.93479"><ele>863.0</ele><time>2026-03-29T13:40:23.738Z</time></trkpt><trkpt lat="38.1134417" lon="14.9346667"><ele>863.3333333333334</ele><time>2026-03-29T13:40:24.739Z</time></trkpt><trkpt lat="38.1134233" lon="14.934565"><ele>863.6666666666667</ele><time>2026-03-29T13:40:25.739Z</time></trkpt><trkpt lat="38.1134" lon="14.9344667"><ele>864.0</ele><time>2026-03-29T13:40:26.739Z</time></trkpt><trkpt lat="38.1133717" lon="14.9343567"><ele>864.3333333333333</ele><time>2026-03-29T13:40:27.739Z</time></trkpt><trkpt lat="38.1133383" lon="14.93423"><ele>864.6666666666666</ele><time>2026-03-29T13:40:28.738Z</time></trkpt><trkpt lat="38.1133183" lon="14.9341217"><ele>865.0</ele><time>2026-03-29T13:40:29.739Z</time></trkpt><trkpt lat="38.1133017" lon="14.9339983"><ele>864.9999999999999</ele><time>2026-03-29T13:40:30.739Z</time></trkpt><trkpt lat="38.1132867" lon="14.933875"><ele>865.0</ele><time>2026-03-29T13:40:31.739Z</time></trkpt><trkpt lat="38.1132667" lon="14.9337767"><ele>865.0</ele><time>2026-03-29T13:40:32.739Z</time></trkpt><trkpt lat="38.113245" lon="14.9337"><ele>865.0</ele><time>2026-03-29T13:40:33.738Z</time></trkpt><trkpt lat="38.11324" lon="14.9335983"><ele>864.9999999999999</ele><time>2026-03-29T13:40:35.738Z</time></trkpt><trkpt lat="38.1133233" lon="14.9336267"><ele>865.0</ele><time>2026-03-29T13:40:38.739Z</time></trkpt><trkpt lat="38.1133633" lon="14.9337183"><ele>864.9999999999999</ele><time>2026-03-29T13:40:39.739Z</time></trkpt><trkpt lat="38.1133917" lon="14.9338317"><ele>865.0</ele><time>2026-03-29T13:40:40.739Z</time></trkpt><trkpt lat="38.1134133" lon="14.933925"><ele>865.0</ele><time>2026-03-29T13:40:41.738Z</time></trkpt><trkpt lat="38.1134367" lon="14.9340017"><ele>865.0</ele><time>2026-03-29T13:40:42.739Z</time></trkpt><trkpt lat="38.11352" lon="14.9340117"><ele>864.9999999999999</ele><time>2026-03-29T13:40:44.739Z</time></trkpt><trkpt lat="38.11354" lon="14.9338683"><ele>865.0</ele><time>2026-03-29T13:40:46.739Z</time></trkpt><trkpt lat="38.1135283" lon="14.9337467"><ele>864.9999999999999</ele><time>2026-03-29T13:40:47.739Z</time></trkpt><trkpt lat="38.1135083" lon="14.9336217"><ele>865.0</ele><time>2026-03-29T13:40:48.739Z</time></trkpt><trkpt lat="38.1134867" lon="14.9335067"><ele>865.0</ele><time>2026-03-29T13:40:49.739Z</time></trkpt><trkpt lat="38.1134583" lon="14.93341"><ele>865.0</ele><time>2026-03-29T13:40:50.739Z</time></trkpt><trkpt lat="38.1134233" lon="14.933335"><ele>864.9999999999999</ele><time>2026-03-29T13:40:51.738Z</time></trkpt><trkpt lat="38.1133833" lon="14.9332683"><ele>865.0</ele><time>2026-03-29T13:40:52.739Z</time></trkpt><trkpt lat="38.1133383" lon="14.9331917"><ele>861.9999999999999</ele><time>2026-03-29T13:40:53.739Z</time></trkpt><trkpt lat="38.113295" lon="14.933105"><ele>859.0</ele><time>2026-03-29T13:40:54.739Z</time></trkpt><trkpt lat="38.113245" lon="14.9330267"><ele>856.0</ele><time>2026-03-29T13:40:55.738Z</time></trkpt><trkpt lat="38.113205" lon="14.9329367"><ele>853.0</ele><time>2026-03-29T13:40:56.739Z</time></trkpt><trkpt lat="38.113175" lon="14.9328533"><ele>849.9999999999999</ele><time>2026-03-29T13:40:57.738Z</time></trkpt><trkpt lat="38.11316" lon="14.9327667"><ele>847.0</ele><time>2026-03-29T13:40:58.739Z</time></trkpt><trkpt lat="38.1131483" lon="14.93267"><ele>850.0</ele><time>2026-03-29T13:40:59.738Z</time></trkpt><trkpt lat="38.113155" lon="14.93256"><ele>853.0</ele><time>2026-03-29T13:41:00.738Z</time></trkpt><trkpt lat="38.1131817" lon="14.9324367"><ele>856.0</ele><time>2026-03-29T13:41:01.739Z</time></trkpt><trkpt lat="38.1132133" lon="14.9323167"><ele>859.0</ele><time>2026-03-29T13:41:02.738Z</time></trkpt><trkpt lat="38.1132517" lon="14.9321933"><ele>862.0</ele><time>2026-03-29T13:41:03.739Z</time></trkpt><trkpt lat="38.1132883" lon="14.9320633"><ele>862.0</ele><time>2026-03-29T13:41:04.739Z</time></trkpt><trkpt lat="38.1133033" lon="14.9319517"><ele>862.0</ele><time>2026-03-29T13:41:05.738Z</time></trkpt><trkpt lat="38.1132983" lon="14.9318533"><ele>862.0</ele><time>2026-03-29T13:41:06.739Z</time></trkpt><trkpt lat="38.1132417" lon="14.9317367"><ele>862.0</ele><time>2026-03-29T13:41:08.739Z</time></trkpt><trkpt lat="38.1131667" lon="14.93173"><ele>862.0</ele><time>2026-03-29T13:41:09.739Z</time></trkpt><trkpt lat="38.11306" lon="14.93176"><ele>861.9999999999999</ele><time>2026-03-29T13:41:10.739Z</time></trkpt><trkpt lat="38.112955" lon="14.9317917"><ele>862.0</ele><time>2026-03-29T13:41:11.739Z</time></trkpt><trkpt lat="38.11286" lon="14.9318167"><ele>862.0</ele><time>2026-03-29T13:41:12.739Z</time></trkpt><trkpt lat="38.1127767" lon="14.93183"><ele>862.0</ele><time>2026-03-29T13:41:13.739Z</time></trkpt><trkpt lat="38.1127067" lon="14.9318167"><ele>861.9999999999999</ele><time>2026-03-29T13:41:14.739Z</time></trkpt><trkpt lat="38.1126383" lon="14.9318033"><ele>862.0</ele><time>2026-03-29T13:41:15.738Z</time></trkpt><trkpt lat="38.112565" lon="14.9317683"><ele>862.0</ele><time>2026-03-29T13:41:16.738Z</time></trkpt><trkpt lat="38.1124933" lon="14.931725"><ele>862.0</ele><time>2026-03-29T13:41:17.739Z</time></trkpt><trkpt lat="38.1124317" lon="14.931685"><ele>862.0</ele><time>2026-03-29T13:41:18.739Z</time></trkpt><trkpt lat="38.1123783" lon="14.9316367"><ele>862.0</ele><time>2026-03-29T13:41:19.739Z</time></trkpt><trkpt lat="38.112325" lon="14.9315867"><ele>862.0</ele><time>2026-03-29T13:41:20.739Z</time></trkpt><trkpt lat="38.112265" lon="14.931525"><ele>862.0</ele><time>2026-03-29T13:41:21.739Z</time></trkpt><trkpt lat="38.1122067" lon="14.9314467"><ele>862.0</ele><time>2026-03-29T13:41:22.739Z</time></trkpt><trkpt lat="38.112155" lon="14.93137"><ele>858.2857142857143</ele><time>2026-03-29T13:41:23.738Z</time></trkpt><trkpt lat="38.112105" lon="14.9313033"><ele>854.5714285714286</ele><time>2026-03-29T13:41:24.739Z</time></trkpt><trkpt lat="38.1120533" lon="14.9312333"><ele>850.8571428571429</ele><time>2026-03-29T13:41:25.738Z</time></trkpt><trkpt lat="38.1119967" lon="14.9311767"><ele>847.1428571428571</ele><time>2026-03-29T13:41:26.738Z</time></trkpt><trkpt lat="38.111935" lon="14.9311283"><ele>843.4285714285713</ele><time>2026-03-29T13:41:27.739Z</time></trkpt><trkpt lat="38.1118633" lon="14.93109"><ele>839.7142857142857</ele><time>2026-03-29T13:41:28.738Z</time></trkpt><trkpt lat="38.1117933" lon="14.931075"><ele>836.0</ele><time>2026-03-29T13:41:29.739Z</time></trkpt><trkpt lat="38.1117283" lon="14.931075"><ele>836.0000000000001</ele><time>2026-03-29T13:41:30.739Z</time></trkpt><trkpt lat="38.1116333" lon="14.9310433"><ele>836.0</ele><time>2026-03-29T13:41:32.738Z</time></trkpt><trkpt lat="38.111645" lon="14.93094"><ele>836.0</ele><time>2026-03-29T13:41:35.739Z</time></trkpt><trkpt lat="38.1117033" lon="14.9309067"><ele>836.0</ele><time>2026-03-29T13:41:36.738Z</time></trkpt><trkpt lat="38.111795" lon="14.930885"><ele>836.0000000000001</ele><time>2026-03-29T13:41:37.739Z</time></trkpt><trkpt lat="38.1119067" lon="14.93088"><ele>836.0</ele><time>2026-03-29T13:41:38.739Z</time></trkpt><trkpt lat="38.1120167" lon="14.9308883"><ele>836.0</ele><time>2026-03-29T13:41:39.739Z</time></trkpt><trkpt lat="38.112135" lon="14.9308967"><ele>836.0</ele><time>2026-03-29T13:41:40.738Z</time></trkpt><trkpt lat="38.1122483" lon="14.9308933"><ele>836.0</ele><time>2026-03-29T13:41:41.739Z</time></trkpt><trkpt lat="38.1123617" lon="14.9308767"><ele>836.0</ele><time>2026-03-29T13:41:42.739Z</time></trkpt><trkpt lat="38.11248" lon="14.930875"><ele>830.1999999999999</ele><time>2026-03-29T13:41:43.739Z</time></trkpt><trkpt lat="38.112595" lon="14.93086"><ele>824.4</ele><time>2026-03-29T13:41:44.739Z</time></trkpt><trkpt lat="38.1127133" lon="14.9308683"><ele>818.6</ele><time>2026-03-29T13:41:45.738Z</time></trkpt><trkpt lat="38.1128167" lon="14.9308667"><ele>812.8</ele><time>2026-03-29T13:41:46.738Z</time></trkpt><trkpt lat="38.1128967" lon="14.9308667"><ele>807.0</ele><time>2026-03-29T13:41:47.739Z</time></trkpt><trkpt lat="38.11299" lon="14.9308683"><ele>807.0</ele><time>2026-03-29T13:41:49.738Z</time></trkpt><trkpt lat="38.1128617" lon="14.930875"><ele>807.0</ele><time>2026-03-29T13:42:29.739Z</time></trkpt><trkpt lat="38.1127867" lon="14.9308667"><ele>807.0</ele><time>2026-03-29T13:42:30.738Z</time></trkpt><trkpt lat="38.112685" lon="14.9307933"><ele>807.0</ele><time>2026-03-29T13:42:32.739Z</time></trkpt><trkpt lat="38.1126" lon="14.9307083"><ele>807.0</ele><time>2026-03-29T13:42:34.738Z</time></trkpt><trkpt lat="38.11254" lon="14.9306783"><ele>807.0</ele><time>2026-03-29T13:42:35.739Z</time></trkpt><trkpt lat="38.1124733" lon="14.9306567"><ele>807.0</ele><time>2026-03-29T13:42:36.739Z</time></trkpt><trkpt lat="38.1123617" lon="14.9306217"><ele>807.0</ele><time>2026-03-29T13:42:38.738Z</time></trkpt><trkpt lat="38.11226" lon="14.9305983"><ele>807.0</ele><time>2026-03-29T13:42:40.739Z</time></trkpt><trkpt lat="38.1121533" lon="14.9305617"><ele>807.0</ele><time>2026-03-29T13:42:42.738Z</time></trkpt><trkpt lat="38.1120683" lon="14.930555"><ele>806.6</ele><time>2026-03-29T13:42:44.738Z</time></trkpt><trkpt lat="38.1119733" lon="14.93055"><ele>806.2</ele><time>2026-03-29T13:42:46.739Z</time></trkpt><trkpt lat="38.111865" lon="14.930545"><ele>805.8</ele><time>2026-03-29T13:42:48.739Z</time></trkpt><trkpt lat="38.1117833" lon="14.9305517"><ele>805.4</ele><time>2026-03-29T13:42:50.739Z</time></trkpt><trkpt lat="38.1117067" lon="14.9305417"><ele>805.0</ele><time>2026-03-29T13:42:53.739Z</time></trkpt><trkpt lat="38.111635" lon="14.9304783"><ele>806.2857142857143</ele><time>2026-03-29T13:43:00.738Z</time></trkpt><trkpt lat="38.1115667" lon="14.9304433"><ele>807.5714285714286</ele><time>2026-03-29T13:43:03.739Z</time></trkpt><trkpt lat="38.1114983" lon="14.9304367"><ele>808.8571428571429</ele><time>2026-03-29T13:43:05.738Z</time></trkpt><trkpt lat="38.1114133" lon="14.930445"><ele>810.1428571428571</ele><time>2026-03-29T13:43:08.738Z</time></trkpt><trkpt lat="38.1113467" lon="14.930445"><ele>811.4285714285714</ele><time>2026-03-29T13:43:10.738Z</time></trkpt><trkpt lat="38.1112817" lon="14.9304617"><ele>812.7142857142858</ele><time>2026-03-29T13:43:13.739Z</time></trkpt><trkpt lat="38.11122" lon="14.9304333"><ele>814.0</ele><time>2026-03-29T13:44:04.74Z</time></trkpt><trkpt lat="38.11114" lon="14.9304067"><ele>814.0</ele><time>2026-03-29T13:44:07.739Z</time></trkpt><trkpt lat="38.111015" lon="14.930375"><ele>814.0</ele><time>2026-03-29T13:45:28.74Z</time></trkpt><trkpt lat="38.1109433" lon="14.930375"><ele>814.0</ele><time>2026-03-29T13:45:31.739Z</time></trkpt><trkpt lat="38.1108583" lon="14.93035"><ele>814.0</ele><time>2026-03-29T13:45:51.74Z</time></trkpt><trkpt lat="38.110845" lon="14.9302367"><ele>814.0</ele><time>2026-03-29T13:46:25.74Z</time></trkpt><trkpt lat="38.1108183" lon="14.9301467"><ele>814.0</ele><time>2026-03-29T13:46:29.74Z</time></trkpt><trkpt lat="38.1107914" lon="14.9300672"><ele>814.0</ele><time>2026-03-29T13:46:34.74Z</time></trkpt><trkpt lat="38.1108007" lon="14.9299772"><ele>814.0</ele><time>2026-03-29T13:46:42.74Z</time></trkpt><trkpt lat="38.1107713" lon="14.9297814"><ele>814.0</ele><time>2026-03-29T13:48:50.74Z</time></trkpt><trkpt lat="38.110754" lon="14.9296929"><ele>814.0</ele><time>2026-03-29T13:48:53.739Z</time></trkpt><trkpt lat="38.1107581" lon="14.9295566"><ele>808.4000000000001</ele><time>2026-03-29T13:49:34.74Z</time></trkpt><trkpt lat="38.1107683" lon="14.9294167"><ele>802.8</ele><time>2026-03-29T13:50:18.741Z</time></trkpt><trkpt lat="38.1107583" lon="14.9293267"><ele>797.2</ele><time>2026-03-29T13:50:51.74Z</time></trkpt><trkpt lat="38.1108017" lon="14.9291717"><ele>791.5999999999999</ele><time>2026-03-29T13:52:16.741Z</time></trkpt><trkpt lat="38.1107817" lon="14.929045"><ele>786.0</ele><time>2026-03-29T13:54:29.741Z</time></trkpt><trkpt lat="38.1107783" lon="14.9289383"><ele>785.4</ele><time>2026-03-29T13:55:07.742Z</time></trkpt><trkpt lat="38.1108033" lon="14.9287817"><ele>784.8</ele><time>2026-03-29T13:55:36.741Z</time></trkpt><trkpt lat="38.110805" lon="14.9286817"><ele>784.1999999999999</ele><time>2026-03-29T13:55:48.741Z</time></trkpt><trkpt lat="38.1107317" lon="14.9285317"><ele>783.5999999999999</ele><time>2026-03-29T13:56:07.742Z</time></trkpt><trkpt lat="38.1106513" lon="14.9285317"><ele>783.0</ele><time>2026-03-29T13:56:15.741Z</time></trkpt><trkpt lat="38.1105847" lon="14.9285445"><ele>783.0</ele><time>2026-03-29T13:56:19.741Z</time></trkpt><trkpt lat="38.1105211" lon="14.9285367"><ele>783.0</ele><time>2026-03-29T13:56:26.742Z</time></trkpt><trkpt lat="38.1104555" lon="14.9285414"><ele>783.0</ele><time>2026-03-29T13:56:32.742Z</time></trkpt><trkpt lat="38.1103834" lon="14.9285404"><ele>783.0</ele><time>2026-03-29T13:56:37.742Z</time></trkpt><trkpt lat="38.1103169" lon="14.9285217"><ele>783.0</ele><time>2026-03-29T13:56:42.742Z</time></trkpt><trkpt lat="38.1102396" lon="14.9285192"><ele>783.0</ele><time>2026-03-29T13:56:48.742Z</time></trkpt><trkpt lat="38.1102083" lon="14.9284471"><ele>783.0</ele><time>2026-03-29T13:56:52.742Z</time></trkpt><trkpt lat="38.1102554" lon="14.928521"><ele>783.0</ele><time>2026-03-29T13:57:45.742Z</time></trkpt><trkpt lat="38.1103257" lon="14.9285393"><ele>783.0</ele><time>2026-03-29T13:57:48.742Z</time></trkpt><trkpt lat="38.1103883" lon="14.9285538"><ele>783.0</ele><time>2026-03-29T13:57:54.742Z</time></trkpt><trkpt lat="38.1104638" lon="14.9285482"><ele>783.0</ele><time>2026-03-29T13:58:00.741Z</time></trkpt><trkpt lat="38.1105644" lon="14.9285531"><ele>783.0</ele><time>2026-03-29T13:58:12.741Z</time></trkpt><trkpt lat="38.1107119" lon="14.9285589"><ele>783.0</ele><time>2026-03-29T13:58:22.742Z</time></trkpt><trkpt lat="38.1107547" lon="14.9286569"><ele>783.0</ele><time>2026-03-29T13:58:34.742Z</time></trkpt><trkpt lat="38.1107728" lon="14.9287747"><ele>783.0</ele><time>2026-03-29T14:00:43.743Z</time></trkpt><trkpt lat="38.1107918" lon="14.9286752"><ele>783.0</ele><time>2026-03-29T14:01:57.743Z</time></trkpt><trkpt lat="38.11073" lon="14.9285517"><ele>783.0</ele><time>2026-03-29T14:02:10.743Z</time></trkpt><trkpt lat="38.11064" lon="14.928565"><ele>783.0</ele><time>2026-03-29T14:02:13.743Z</time></trkpt><trkpt lat="38.110545" lon="14.928565"><ele>783.0</ele><time>2026-03-29T14:02:16.743Z</time></trkpt><trkpt lat="38.1104633" lon="14.9285767"><ele>783.0</ele><time>2026-03-29T14:02:18.742Z</time></trkpt><trkpt lat="38.1103883" lon="14.928575"><ele>783.0</ele><time>2026-03-29T14:02:20.742Z</time></trkpt><trkpt lat="38.1103217" lon="14.9285583"><ele>783.0</ele><time>2026-03-29T14:02:22.742Z</time></trkpt><trkpt lat="38.1102533" lon="14.9285383"><ele>783.0</ele><time>2026-03-29T14:02:24.743Z</time></trkpt><trkpt lat="38.1102483" lon="14.9284583"><ele>783.0</ele><time>2026-03-29T14:02:28.743Z</time></trkpt><trkpt lat="38.1103217" lon="14.9284467"><ele>783.0</ele><time>2026-03-29T14:02:34.743Z</time></trkpt><trkpt lat="38.1103983" lon="14.9284133"><ele>783.0</ele><time>2026-03-29T14:02:40.743Z</time></trkpt><trkpt lat="38.1104617" lon="14.9283683"><ele>783.0</ele><time>2026-03-29T14:02:43.743Z</time></trkpt><trkpt lat="38.1105383" lon="14.9283167"><ele>783.0</ele><time>2026-03-29T14:02:46.743Z</time></trkpt><trkpt lat="38.1105967" lon="14.9282867"><ele>783.0</ele><time>2026-03-29T14:02:48.742Z</time></trkpt><trkpt lat="38.1106533" lon="14.928245"><ele>783.0</ele><time>2026-03-29T14:02:50.742Z</time></trkpt><trkpt lat="38.1107333" lon="14.92822"><ele>776.6666666666666</ele><time>2026-03-29T14:02:52.743Z</time></trkpt><trkpt lat="38.1108117" lon="14.9282"><ele>770.3333333333334</ele><time>2026-03-29T14:02:54.742Z</time></trkpt><trkpt lat="38.11091" lon="14.928175"><ele>764.0</ele><time>2026-03-29T14:02:57.743Z</time></trkpt><trkpt lat="38.1109817" lon="14.92817"><ele>757.6666666666667</ele><time>2026-03-29T14:02:59.742Z</time></trkpt><trkpt lat="38.1110533" lon="14.928155"><ele>751.3333333333334</ele><time>2026-03-29T14:03:01.743Z</time></trkpt><trkpt lat="38.1111267" lon="14.9281467"><ele>745.0</ele><time>2026-03-29T14:03:03.743Z</time></trkpt><trkpt lat="38.1111933" lon="14.928125"><ele>745.0</ele><time>2026-03-29T14:03:05.742Z</time></trkpt><trkpt lat="38.1112667" lon="14.9280983"><ele>745.0</ele><time>2026-03-29T14:03:07.743Z</time></trkpt><trkpt lat="38.11133" lon="14.9280683"><ele>745.0</ele><time>2026-03-29T14:03:09.742Z</time></trkpt><trkpt lat="38.1114017" lon="14.9280667"><ele>745.0</ele><time>2026-03-29T14:03:12.743Z</time></trkpt><trkpt lat="38.1114717" lon="14.9280633"><ele>745.0</ele><time>2026-03-29T14:03:16.742Z</time></trkpt><trkpt lat="38.111535" lon="14.9280767"><ele>745.0</ele><time>2026-03-29T14:03:19.743Z</time></trkpt><trkpt lat="38.1116017" lon="14.9280483"><ele>745.0</ele><time>2026-03-29T14:03:23.743Z</time></trkpt><trkpt lat="38.1116417" lon="14.927985"><ele>745.0</ele><time>2026-03-29T14:03:25.743Z</time></trkpt><trkpt lat="38.1116183" lon="14.927815"><ele>745.0</ele><time>2026-03-29T14:03:50.743Z</time></trkpt><trkpt lat="38.1115767" lon="14.927745"><ele>745.0</ele><time>2026-03-29T14:03:54.742Z</time></trkpt><trkpt lat="38.1114803" lon="14.9277198"><ele>745.0</ele><time>2026-03-29T14:04:36.742Z</time></trkpt><trkpt lat="38.1114065" lon="14.9277172"><ele>745.0</ele><time>2026-03-29T14:04:39.742Z</time></trkpt><trkpt lat="38.1113397" lon="14.9276984"><ele>745.0</ele><time>2026-03-29T14:04:43.742Z</time></trkpt><trkpt lat="38.1112668" lon="14.9276864"><ele>745.0</ele><time>2026-03-29T14:04:47.743Z</time></trkpt><trkpt lat="38.1112868" lon="14.9275878"><ele>745.0</ele><time>2026-03-29T14:05:42.744Z</time></trkpt><trkpt lat="38.11136" lon="14.9275525"><ele>745.0</ele><time>2026-03-29T14:05:55.744Z</time></trkpt><trkpt lat="38.1114311" lon="14.927515"><ele>745.0</ele><time>2026-03-29T14:05:58.744Z</time></trkpt><trkpt lat="38.1115004" lon="14.9274834"><ele>745.0</ele><time>2026-03-29T14:06:01.743Z</time></trkpt><trkpt lat="38.1115814" lon="14.9274379"><ele>745.0</ele><time>2026-03-29T14:06:04.744Z</time></trkpt><trkpt lat="38.1116435" lon="14.9274135"><ele>738.7142857142857</ele><time>2026-03-29T14:06:07.744Z</time></trkpt><trkpt lat="38.1117013" lon="14.9273666"><ele>732.4285714285713</ele><time>2026-03-29T14:06:10.744Z</time></trkpt><trkpt lat="38.1117755" lon="14.9273465"><ele>726.1428571428571</ele><time>2026-03-29T14:06:14.744Z</time></trkpt><trkpt lat="38.111841" lon="14.9273179"><ele>719.8571428571429</ele><time>2026-03-29T14:06:34.744Z</time></trkpt><trkpt lat="38.1119047" lon="14.9273056"><ele>713.5714285714286</ele><time>2026-03-29T14:06:38.744Z</time></trkpt><trkpt lat="38.1119758" lon="14.9272884"><ele>707.2857142857143</ele><time>2026-03-29T14:06:41.743Z</time></trkpt><trkpt lat="38.11206" lon="14.9272768"><ele>701.0</ele><time>2026-03-29T14:06:44.743Z</time></trkpt><trkpt lat="38.1121416" lon="14.9272758"><ele>701.0</ele><time>2026-03-29T14:06:47.744Z</time></trkpt><trkpt lat="38.1122067" lon="14.9273137"><ele>701.0</ele><time>2026-03-29T14:06:50.744Z</time></trkpt><trkpt lat="38.1122835" lon="14.9273644"><ele>701.0</ele><time>2026-03-29T14:07:47.744Z</time></trkpt><trkpt lat="38.1123449" lon="14.9274034"><ele>701.0</ele><time>2026-03-29T14:07:49.743Z</time></trkpt><trkpt lat="38.1124108" lon="14.9274486"><ele>701.0</ele><time>2026-03-29T14:07:52.743Z</time></trkpt><trkpt lat="38.1124718" lon="14.9274983"><ele>701.0</ele><time>2026-03-29T14:07:56.744Z</time></trkpt><trkpt lat="38.1125048" lon="14.9275825"><ele>701.0</ele><time>2026-03-29T14:08:14.744Z</time></trkpt><trkpt lat="38.1125687" lon="14.9276158"><ele>698.8571428571429</ele><time>2026-03-29T14:08:18.744Z</time></trkpt><trkpt lat="38.1126248" lon="14.9275529"><ele>696.7142857142857</ele><time>2026-03-29T14:08:21.743Z</time></trkpt><trkpt lat="38.1126504" lon="14.927477"><ele>694.5714285714286</ele><time>2026-03-29T14:08:26.744Z</time></trkpt><trkpt lat="38.1126233" lon="14.9273967"><ele>692.4285714285714</ele><time>2026-03-29T14:08:32.744Z</time></trkpt><trkpt lat="38.1126067" lon="14.927315"><ele>690.2857142857142</ele><time>2026-03-29T14:08:36.744Z</time></trkpt><trkpt lat="38.1125633" lon="14.9272433"><ele>688.1428571428571</ele><time>2026-03-29T14:08:41.744Z</time></trkpt><trkpt lat="38.1125483" lon="14.9271583"><ele>686.0</ele><time>2026-03-29T14:08:45.743Z</time></trkpt><trkpt lat="38.1125117" lon="14.92708"><ele>686.0</ele><time>2026-03-29T14:08:48.743Z</time></trkpt><trkpt lat="38.112475" lon="14.92701"><ele>686.0</ele><time>2026-03-29T14:08:53.744Z</time></trkpt><trkpt lat="38.11242" lon="14.926965"><ele>686.0</ele><time>2026-03-29T14:08:56.744Z</time></trkpt><trkpt lat="38.1123667" lon="14.926915"><ele>686.0</ele><time>2026-03-29T14:08:59.743Z</time></trkpt><trkpt lat="38.1122883" lon="14.9268817"><ele>686.0</ele><time>2026-03-29T14:09:03.743Z</time></trkpt><trkpt lat="38.1122217" lon="14.9268633"><ele>686.0</ele><time>2026-03-29T14:09:07.743Z</time></trkpt><trkpt lat="38.1121567" lon="14.9268233"><ele>686.0</ele><time>2026-03-29T14:09:11.744Z</time></trkpt><trkpt lat="38.1121033" lon="14.926775"><ele>688.5</ele><time>2026-03-29T14:09:15.744Z</time></trkpt><trkpt lat="38.11203" lon="14.9267367"><ele>691.0</ele><time>2026-03-29T14:09:19.744Z</time></trkpt><trkpt lat="38.1119617" lon="14.9267117"><ele>693.5</ele><time>2026-03-29T14:09:23.744Z</time></trkpt><trkpt lat="38.11189" lon="14.9266533"><ele>696.0</ele><time>2026-03-29T14:09:27.743Z</time></trkpt><trkpt lat="38.1118333" lon="14.9266117"><ele>698.5</ele><time>2026-03-29T14:09:30.743Z</time></trkpt><trkpt lat="38.1117733" lon="14.9265667"><ele>701.0</ele><time>2026-03-29T14:09:33.744Z</time></trkpt><trkpt lat="38.11168" lon="14.9265033"><ele>695.5</ele><time>2026-03-29T14:10:15.744Z</time></trkpt><trkpt lat="38.1116" lon="14.9264767"><ele>690.0</ele><time>2026-03-29T14:10:39.743Z</time></trkpt><trkpt lat="38.1115367" lon="14.9264783"><ele>684.5</ele><time>2026-03-29T14:10:43.744Z</time></trkpt><trkpt lat="38.1114817" lon="14.9264233"><ele>679.0</ele><time>2026-03-29T14:10:47.744Z</time></trkpt><trkpt lat="38.1115583" lon="14.9263717"><ele>673.5</ele><time>2026-03-29T14:10:59.744Z</time></trkpt><trkpt lat="38.1116233" lon="14.9263517"><ele>668.0</ele><time>2026-03-29T14:11:02.744Z</time></trkpt><trkpt lat="38.11175" lon="14.9264233"><ele>668.0</ele><time>2026-03-29T14:12:33.744Z</time></trkpt><trkpt lat="38.1118212" lon="14.9263996"><ele>668.0</ele><time>2026-03-29T14:13:23.745Z</time></trkpt><trkpt lat="38.1119197" lon="14.9263761"><ele>668.0</ele><time>2026-03-29T14:14:00.744Z</time></trkpt><trkpt lat="38.112021" lon="14.926358"><ele>668.0</ele><time>2026-03-29T14:14:22.744Z</time></trkpt><trkpt lat="38.1120938" lon="14.9263284"><ele>668.0</ele><time>2026-03-29T14:14:25.745Z</time></trkpt><trkpt lat="38.1121586" lon="14.9263307"><ele>668.0</ele><time>2026-03-29T14:14:56.744Z</time></trkpt><trkpt lat="38.1122441" lon="14.9263659"><ele>668.0</ele><time>2026-03-29T14:14:59.745Z</time></trkpt><trkpt lat="38.1123117" lon="14.9264054"><ele>668.0</ele><time>2026-03-29T14:15:01.745Z</time></trkpt><trkpt lat="38.1123766" lon="14.9264311"><ele>668.0</ele><time>2026-03-29T14:15:05.745Z</time></trkpt><trkpt lat="38.1124574" lon="14.9264058"><ele>668.0</ele><time>2026-03-29T14:15:08.745Z</time></trkpt><trkpt lat="38.1125212" lon="14.9263655"><ele>668.0</ele><time>2026-03-29T14:15:12.744Z</time></trkpt><trkpt lat="38.1125884" lon="14.926304"><ele>668.0</ele><time>2026-03-29T14:15:47.744Z</time></trkpt><trkpt lat="38.1126648" lon="14.9262597"><ele>665.7142857142857</ele><time>2026-03-29T14:15:50.745Z</time></trkpt><trkpt lat="38.1127296" lon="14.926227"><ele>663.4285714285714</ele><time>2026-03-29T14:15:53.745Z</time></trkpt><trkpt lat="38.1127925" lon="14.9262162"><ele>661.1428571428571</ele><time>2026-03-29T14:15:57.745Z</time></trkpt><trkpt lat="38.1128646" lon="14.9261973"><ele>658.8571428571429</ele><time>2026-03-29T14:16:01.745Z</time></trkpt><trkpt lat="38.1129411" lon="14.9261761"><ele>656.5714285714286</ele><time>2026-03-29T14:16:04.744Z</time></trkpt><trkpt lat="38.1130083" lon="14.9261633"><ele>654.2857142857143</ele><time>2026-03-29T14:16:07.745Z</time></trkpt><trkpt lat="38.1130933" lon="14.92614"><ele>652.0</ele><time>2026-03-29T14:16:11.744Z</time></trkpt><trkpt lat="38.113175" lon="14.926125"><ele>647.1428571428572</ele><time>2026-03-29T14:16:14.744Z</time></trkpt><trkpt lat="38.1132483" lon="14.9261417"><ele>642.2857142857142</ele><time>2026-03-29T14:16:17.745Z</time></trkpt><trkpt lat="38.1132933" lon="14.92622"><ele>637.4285714285714</ele><time>2026-03-29T14:16:20.745Z</time></trkpt><trkpt lat="38.1133" lon="14.9263167"><ele>632.5714285714287</ele><time>2026-03-29T14:16:24.745Z</time></trkpt><trkpt lat="38.113315" lon="14.9263967"><ele>627.7142857142858</ele><time>2026-03-29T14:16:29.744Z</time></trkpt><trkpt lat="38.113305" lon="14.92648"><ele>622.8571428571429</ele><time>2026-03-29T14:16:33.745Z</time></trkpt><trkpt lat="38.1133" lon="14.92656"><ele>618.0</ele><time>2026-03-29T14:16:38.744Z</time></trkpt><trkpt lat="38.1133783" lon="14.92653"><ele>618.0</ele><time>2026-03-29T14:16:55.745Z</time></trkpt><trkpt lat="38.1134235" lon="14.9264089"><ele>618.0</ele><time>2026-03-29T14:17:31.746Z</time></trkpt><trkpt lat="38.1134482" lon="14.9262955"><ele>618.0</ele><time>2026-03-29T14:17:34.746Z</time></trkpt><trkpt lat="38.1134748" lon="14.9261979"><ele>618.0</ele><time>2026-03-29T14:17:37.746Z</time></trkpt><trkpt lat="38.1135002" lon="14.926122"><ele>618.0</ele><time>2026-03-29T14:17:40.746Z</time></trkpt><trkpt lat="38.1135344" lon="14.9260344"><ele>618.0</ele><time>2026-03-29T14:17:44.746Z</time></trkpt><trkpt lat="38.1135393" lon="14.9259229"><ele>616.8333333333334</ele><time>2026-03-29T14:18:07.746Z</time></trkpt><trkpt lat="38.1135278" lon="14.9258347"><ele>615.6666666666666</ele><time>2026-03-29T14:18:10.745Z</time></trkpt><trkpt lat="38.1135047" lon="14.9257354"><ele>614.5</ele><time>2026-03-29T14:18:17.746Z</time></trkpt><trkpt lat="38.1134533" lon="14.9256783"><ele>613.3333333333333</ele><time>2026-03-29T14:18:21.745Z</time></trkpt><trkpt lat="38.1133433" lon="14.925645"><ele>612.1666666666666</ele><time>2026-03-29T14:18:59.746Z</time></trkpt><trkpt lat="38.1132383" lon="14.9256167"><ele>611.0</ele><time>2026-03-29T14:19:10.746Z</time></trkpt><trkpt lat="38.11317" lon="14.9256233"><ele>611.0</ele><time>2026-03-29T14:19:13.746Z</time></trkpt><trkpt lat="38.1130867" lon="14.9256067"><ele>611.0</ele><time>2026-03-29T14:19:17.746Z</time></trkpt><trkpt lat="38.1130167" lon="14.9256117"><ele>611.0</ele><time>2026-03-29T14:19:20.746Z</time></trkpt><trkpt lat="38.1129333" lon="14.9255967"><ele>611.0</ele><time>2026-03-29T14:19:23.746Z</time></trkpt><trkpt lat="38.1128467" lon="14.925585"><ele>611.0</ele><time>2026-03-29T14:19:27.746Z</time></trkpt><trkpt lat="38.1127717" lon="14.9255533"><ele>611.0</ele><time>2026-03-29T14:19:31.745Z</time></trkpt><trkpt lat="38.1128198" lon="14.9254957"><ele>611.0</ele><time>2026-03-29T14:19:44.745Z</time></trkpt><trkpt lat="38.1129045" lon="14.9254673"><ele>611.0</ele><time>2026-03-29T14:19:46.745Z</time></trkpt><trkpt lat="38.1129784" lon="14.92543"><ele>611.0</ele><time>2026-03-29T14:19:50.745Z</time></trkpt><trkpt lat="38.1130421" lon="14.9253908"><ele>611.0</ele><time>2026-03-29T14:19:53.746Z</time></trkpt><trkpt lat="38.1130775" lon="14.9253143"><ele>611.0</ele><time>2026-03-29T14:19:58.746Z</time></trkpt><trkpt lat="38.1131306" lon="14.9252597"><ele>611.0</ele><time>2026-03-29T14:20:02.746Z</time></trkpt><trkpt lat="38.1132339" lon="14.92525"><ele>608.0</ele><time>2026-03-29T14:20:05.745Z</time></trkpt><trkpt lat="38.113303" lon="14.92521"><ele>605.0</ele><time>2026-03-29T14:20:07.745Z</time></trkpt><trkpt lat="38.1133618" lon="14.9251781"><ele>602.0</ele><time>2026-03-29T14:20:09.746Z</time></trkpt><trkpt lat="38.1134429" lon="14.9251282"><ele>599.0</ele><time>2026-03-29T14:20:12.746Z</time></trkpt><trkpt lat="38.113512" lon="14.9251075"><ele>596.0</ele><time>2026-03-29T14:20:14.746Z</time></trkpt><trkpt lat="38.1135882" lon="14.9250921"><ele>593.0</ele><time>2026-03-29T14:20:16.745Z</time></trkpt><trkpt lat="38.1136732" lon="14.9250878"><ele>592.9999999999999</ele><time>2026-03-29T14:20:18.745Z</time></trkpt><trkpt lat="38.1137557" lon="14.9251226"><ele>593.0</ele><time>2026-03-29T14:20:20.745Z</time></trkpt><trkpt lat="38.11382" lon="14.925158"><ele>593.0</ele><time>2026-03-29T14:20:22.746Z</time></trkpt><trkpt lat="38.1138821" lon="14.9251758"><ele>593.0</ele><time>2026-03-29T14:20:24.745Z</time></trkpt><trkpt lat="38.1138421" lon="14.9251115"><ele>593.0</ele><time>2026-03-29T14:21:36.746Z</time></trkpt><trkpt lat="38.113795" lon="14.9250387"><ele>592.9999999999999</ele><time>2026-03-29T14:21:41.745Z</time></trkpt><trkpt lat="38.1137907" lon="14.924939"><ele>593.0</ele><time>2026-03-29T14:21:54.745Z</time></trkpt><trkpt lat="38.1137452" lon="14.9248041"><ele>591.5</ele><time>2026-03-29T14:22:07.746Z</time></trkpt><trkpt lat="38.1137036" lon="14.9247437"><ele>590.0</ele><time>2026-03-29T14:22:12.746Z</time></trkpt><trkpt lat="38.1136709" lon="14.9246718"><ele>588.5</ele><time>2026-03-29T14:22:22.746Z</time></trkpt><trkpt lat="38.1136094" lon="14.9245465"><ele>587.0</ele><time>2026-03-29T14:23:00.747Z</time></trkpt><trkpt lat="38.1135813" lon="14.9244743"><ele>585.5</ele><time>2026-03-29T14:23:06.747Z</time></trkpt><trkpt lat="38.1135289" lon="14.9243501"><ele>584.0</ele><time>2026-03-29T14:23:20.747Z</time></trkpt><trkpt lat="38.1134583" lon="14.9242438"><ele>584.0</ele><time>2026-03-29T14:23:43.747Z</time></trkpt><trkpt lat="38.1134974" lon="14.9243406"><ele>584.0</ele><time>2026-03-29T14:25:33.747Z</time></trkpt><trkpt lat="38.113522" lon="14.9244214"><ele>584.0</ele><time>2026-03-29T14:25:40.747Z</time></trkpt><trkpt lat="38.1135708" lon="14.9245658"><ele>584.0</ele><time>2026-03-29T14:26:48.746Z</time></trkpt><trkpt lat="38.11363" lon="14.9246283"><ele>584.0</ele><time>2026-03-29T14:26:50.747Z</time></trkpt><trkpt lat="38.1136696" lon="14.9246913"><ele>584.0</ele><time>2026-03-29T14:26:53.747Z</time></trkpt><trkpt lat="38.1136975" lon="14.92478"><ele>584.0</ele><time>2026-03-29T14:27:40.747Z</time></trkpt><trkpt lat="38.1137435" lon="14.9248817"><ele>584.0</ele><time>2026-03-29T14:27:58.747Z</time></trkpt><trkpt lat="38.1137641" lon="14.9249666"><ele>584.0</ele><time>2026-03-29T14:28:01.747Z</time></trkpt><trkpt lat="38.1138316" lon="14.9250557"><ele>584.0</ele><time>2026-03-29T14:28:13.747Z</time></trkpt><trkpt lat="38.113935" lon="14.9251385"><ele>584.0</ele><time>2026-03-29T14:28:30.746Z</time></trkpt><trkpt lat="38.1139926" lon="14.9251865"><ele>584.5</ele><time>2026-03-29T14:28:32.747Z</time></trkpt><trkpt lat="38.1140579" lon="14.9252313"><ele>585.0</ele><time>2026-03-29T14:28:35.747Z</time></trkpt><trkpt lat="38.1141442" lon="14.9252283"><ele>585.5</ele><time>2026-03-29T14:28:41.748Z</time></trkpt><trkpt lat="38.114211" lon="14.9252078"><ele>586.0</ele><time>2026-03-29T14:28:43.748Z</time></trkpt><trkpt lat="38.1143131" lon="14.9251842"><ele>586.5</ele><time>2026-03-29T14:28:46.747Z</time></trkpt><trkpt lat="38.1143909" lon="14.9251761"><ele>587.0</ele><time>2026-03-29T14:28:48.748Z</time></trkpt><trkpt lat="38.1144615" lon="14.9251715"><ele>587.0</ele><time>2026-03-29T14:28:50.747Z</time></trkpt><trkpt lat="38.1145317" lon="14.925115"><ele>587.0</ele><time>2026-03-29T14:28:54.748Z</time></trkpt><trkpt lat="38.114595" lon="14.9250917"><ele>587.0</ele><time>2026-03-29T14:28:57.747Z</time></trkpt><trkpt lat="38.1146667" lon="14.925075"><ele>587.0</ele><time>2026-03-29T14:28:59.748Z</time></trkpt><trkpt lat="38.1147317" lon="14.9250433"><ele>587.0</ele><time>2026-03-29T14:29:01.747Z</time></trkpt><trkpt lat="38.1147933" lon="14.9249717"><ele>587.0</ele><time>2026-03-29T14:29:04.748Z</time></trkpt><trkpt lat="38.1148217" lon="14.9248583"><ele>581.25</ele><time>2026-03-29T14:29:06.748Z</time></trkpt><trkpt lat="38.1148633" lon="14.9246883"><ele>575.5</ele><time>2026-03-29T14:29:08.747Z</time></trkpt><trkpt lat="38.1148967" lon="14.924585"><ele>569.75</ele><time>2026-03-29T14:29:09.748Z</time></trkpt><trkpt lat="38.1149283" lon="14.92445"><ele>564.0</ele><time>2026-03-29T14:29:10.748Z</time></trkpt><trkpt lat="38.1149583" lon="14.9243067"><ele>562.6666666666666</ele><time>2026-03-29T14:29:11.748Z</time></trkpt><trkpt lat="38.11499" lon="14.9241883"><ele>561.3333333333334</ele><time>2026-03-29T14:29:12.747Z</time></trkpt><trkpt lat="38.1150117" lon="14.92409"><ele>560.0</ele><time>2026-03-29T14:29:13.748Z</time></trkpt><trkpt lat="38.11504" lon="14.9240083"><ele>558.6666666666667</ele><time>2026-03-29T14:29:14.748Z</time></trkpt><trkpt lat="38.1151217" lon="14.9239017"><ele>557.3333333333334</ele><time>2026-03-29T14:29:16.747Z</time></trkpt><trkpt lat="38.1151767" lon="14.9238533"><ele>556.0</ele><time>2026-03-29T14:29:17.747Z</time></trkpt><trkpt lat="38.1152333" lon="14.9238083"><ele>556.0</ele><time>2026-03-29T14:29:18.748Z</time></trkpt><trkpt lat="38.1153467" lon="14.9237583"><ele>556.0</ele><time>2026-03-29T14:29:20.747Z</time></trkpt><trkpt lat="38.1154017" lon="14.9237133"><ele>556.0</ele><time>2026-03-29T14:29:22.747Z</time></trkpt><trkpt lat="38.1154333" lon="14.9235933"><ele>556.0</ele><time>2026-03-29T14:29:32.747Z</time></trkpt><trkpt lat="38.11547" lon="14.9234933"><ele>556.0</ele><time>2026-03-29T14:29:34.748Z</time></trkpt><trkpt lat="38.11554" lon="14.92344"><ele>556.0</ele><time>2026-03-29T14:29:36.748Z</time></trkpt><trkpt lat="38.1156183" lon="14.9234617"><ele>556.0</ele><time>2026-03-29T14:29:38.747Z</time></trkpt><trkpt lat="38.1157133" lon="14.9235217"><ele>556.0</ele><time>2026-03-29T14:29:40.747Z</time></trkpt><trkpt lat="38.1158433" lon="14.923575"><ele>556.0</ele><time>2026-03-29T14:29:42.748Z</time></trkpt><trkpt lat="38.1159317" lon="14.9235867"><ele>556.0</ele><time>2026-03-29T14:29:43.747Z</time></trkpt><trkpt lat="38.1160317" lon="14.92358"><ele>553.2</ele><time>2026-03-29T14:29:44.747Z</time></trkpt><trkpt lat="38.1161317" lon="14.9235683"><ele>550.4000000000001</ele><time>2026-03-29T14:29:45.748Z</time></trkpt><trkpt lat="38.1162367" lon="14.9235467"><ele>547.6</ele><time>2026-03-29T14:29:46.748Z</time></trkpt><trkpt lat="38.1163433" lon="14.923515"><ele>544.8000000000001</ele><time>2026-03-29T14:29:47.748Z</time></trkpt><trkpt lat="38.1164317" lon="14.9234867"><ele>542.0</ele><time>2026-03-29T14:29:48.748Z</time></trkpt><trkpt lat="38.1165183" lon="14.9234483"><ele>543.1666666666666</ele><time>2026-03-29T14:29:49.747Z</time></trkpt><trkpt lat="38.1165983" lon="14.9234133"><ele>544.3333333333333</ele><time>2026-03-29T14:29:50.747Z</time></trkpt><trkpt lat="38.1166817" lon="14.9233667"><ele>545.5</ele><time>2026-03-29T14:29:51.748Z</time></trkpt><trkpt lat="38.1167583" lon="14.92332"><ele>546.6666666666666</ele><time>2026-03-29T14:29:52.748Z</time></trkpt><trkpt lat="38.1168167" lon="14.92329"><ele>547.8333333333334</ele><time>2026-03-29T14:29:53.747Z</time></trkpt><trkpt lat="38.116885" lon="14.9232867"><ele>549.0</ele><time>2026-03-29T14:29:55.748Z</time></trkpt><trkpt lat="38.1169867" lon="14.9233367"><ele>555.8333333333334</ele><time>2026-03-29T14:29:57.748Z</time></trkpt><trkpt lat="38.1170633" lon="14.923355"><ele>562.6666666666666</ele><time>2026-03-29T14:29:58.748Z</time></trkpt><trkpt lat="38.117145" lon="14.92336"><ele>569.5</ele><time>2026-03-29T14:29:59.748Z</time></trkpt><trkpt lat="38.1172083" lon="14.92338"><ele>576.3333333333333</ele><time>2026-03-29T14:30:00.748Z</time></trkpt><trkpt lat="38.1173017" lon="14.9233883"><ele>583.1666666666666</ele><time>2026-03-29T14:30:02.748Z</time></trkpt><trkpt lat="38.1173117" lon="14.9232433"><ele>590.0</ele><time>2026-03-29T14:30:04.748Z</time></trkpt><trkpt lat="38.1172833" lon="14.9231483"><ele>590.0</ele><time>2026-03-29T14:30:06.748Z</time></trkpt><trkpt lat="38.11722" lon="14.9231017"><ele>590.0</ele><time>2026-03-29T14:30:08.748Z</time></trkpt><trkpt lat="38.1171617" lon="14.9230317"><ele>590.0</ele><time>2026-03-29T14:30:10.748Z</time></trkpt><trkpt lat="38.1170933" lon="14.9229567"><ele>590.0</ele><time>2026-03-29T14:30:12.747Z</time></trkpt><trkpt lat="38.1170317" lon="14.9228933"><ele>590.0</ele><time>2026-03-29T14:30:14.748Z</time></trkpt><trkpt lat="38.1170067" lon="14.92279"><ele>590.0</ele><time>2026-03-29T14:30:16.747Z</time></trkpt><trkpt lat="38.1170067" lon="14.922695"><ele>590.0</ele><time>2026-03-29T14:30:18.748Z</time></trkpt><trkpt lat="38.1170124" lon="14.9225807"><ele>590.0</ele><time>2026-03-29T14:30:20.748Z</time></trkpt><trkpt lat="38.1170038" lon="14.9224471"><ele>590.0</ele><time>2026-03-29T14:30:22.748Z</time></trkpt><trkpt lat="38.1169884" lon="14.9223516"><ele>590.0</ele><time>2026-03-29T14:30:23.748Z</time></trkpt><trkpt lat="38.1169663" lon="14.9222632"><ele>590.0</ele><time>2026-03-29T14:30:24.748Z</time></trkpt><trkpt lat="38.1169207" lon="14.9221358"><ele>596.6</ele><time>2026-03-29T14:30:26.747Z</time></trkpt><trkpt lat="38.1168995" lon="14.9220301"><ele>603.2</ele><time>2026-03-29T14:30:28.748Z</time></trkpt><trkpt lat="38.116893" lon="14.9219111"><ele>609.8</ele><time>2026-03-29T14:30:30.748Z</time></trkpt><trkpt lat="38.1168505" lon="14.9217814"><ele>616.4</ele><time>2026-03-29T14:30:32.748Z</time></trkpt><trkpt lat="38.1168125" lon="14.9216704"><ele>623.0</ele><time>2026-03-29T14:30:34.747Z</time></trkpt><trkpt lat="38.1168487" lon="14.9216008"><ele>626.5</ele><time>2026-03-29T14:30:36.748Z</time></trkpt><trkpt lat="38.1169494" lon="14.9215926"><ele>630.0</ele><time>2026-03-29T14:30:38.748Z</time></trkpt><trkpt lat="38.1170167" lon="14.9215812"><ele>633.5</ele><time>2026-03-29T14:30:39.747Z</time></trkpt><trkpt lat="38.1170891" lon="14.9215527"><ele>637.0</ele><time>2026-03-29T14:30:40.748Z</time></trkpt><trkpt lat="38.1171629" lon="14.9214998"><ele>640.5</ele><time>2026-03-29T14:30:41.747Z</time></trkpt><trkpt lat="38.1172363" lon="14.9214485"><ele>644.0</ele><time>2026-03-29T14:30:42.747Z</time></trkpt><trkpt lat="38.1173036" lon="14.9214123"><ele>644.0</ele><time>2026-03-29T14:30:43.748Z</time></trkpt><trkpt lat="38.1173584" lon="14.9213613"><ele>644.0</ele><time>2026-03-29T14:30:44.748Z</time></trkpt><trkpt lat="38.1174078" lon="14.921293"><ele>644.0</ele><time>2026-03-29T14:30:45.747Z</time></trkpt><trkpt lat="38.1174662" lon="14.9212284"><ele>644.0</ele><time>2026-03-29T14:30:46.748Z</time></trkpt><trkpt lat="38.1175379" lon="14.9211712"><ele>644.0</ele><time>2026-03-29T14:30:47.748Z</time></trkpt><trkpt lat="38.1176183" lon="14.9211309"><ele>644.0</ele><time>2026-03-29T14:30:48.748Z</time></trkpt><trkpt lat="38.1176976" lon="14.9211128"><ele>638.2</ele><time>2026-03-29T14:30:49.747Z</time></trkpt><trkpt lat="38.117785" lon="14.9210916"><ele>632.4000000000001</ele><time>2026-03-29T14:30:50.747Z</time></trkpt><trkpt lat="38.1178841" lon="14.9210629"><ele>626.6</ele><time>2026-03-29T14:30:51.747Z</time></trkpt><trkpt lat="38.1179956" lon="14.9210261"><ele>620.8</ele><time>2026-03-29T14:30:52.748Z</time></trkpt><trkpt lat="38.1180948" lon="14.9209887"><ele>615.0</ele><time>2026-03-29T14:30:53.748Z</time></trkpt><trkpt lat="38.118187" lon="14.920951"><ele>612.0</ele><time>2026-03-29T14:30:54.747Z</time></trkpt><trkpt lat="38.1182593" lon="14.920921"><ele>609.0</ele><time>2026-03-29T14:30:55.748Z</time></trkpt><trkpt lat="38.1183172" lon="14.9208818"><ele>606.0</ele><time>2026-03-29T14:30:56.748Z</time></trkpt><trkpt lat="38.1184223" lon="14.9208133"><ele>603.0</ele><time>2026-03-29T14:30:58.748Z</time></trkpt><trkpt lat="38.1184832" lon="14.9207561"><ele>600.0</ele><time>2026-03-29T14:30:59.748Z</time></trkpt><trkpt lat="38.1185339" lon="14.9206496"><ele>597.0</ele><time>2026-03-29T14:31:00.748Z</time></trkpt><trkpt lat="38.1185716" lon="14.9205156"><ele>604.0</ele><time>2026-03-29T14:31:01.748Z</time></trkpt><trkpt lat="38.1185843" lon="14.9203841"><ele>611.0</ele><time>2026-03-29T14:31:02.748Z</time></trkpt><trkpt lat="38.1185809" lon="14.9202742"><ele>618.0</ele><time>2026-03-29T14:31:03.748Z</time></trkpt><trkpt lat="38.1185697" lon="14.9201927"><ele>625.0</ele><time>2026-03-29T14:31:04.748Z</time></trkpt><trkpt lat="38.1185114" lon="14.9201625"><ele>632.0</ele><time>2026-03-29T14:31:07.748Z</time></trkpt><trkpt lat="38.1184404" lon="14.9202663"><ele>639.0</ele><time>2026-03-29T14:31:09.748Z</time></trkpt><trkpt lat="38.1183257" lon="14.9203432"><ele>639.0</ele><time>2026-03-29T14:31:11.748Z</time></trkpt><trkpt lat="38.1182564" lon="14.9203805"><ele>639.0</ele><time>2026-03-29T14:31:12.748Z</time></trkpt><trkpt lat="38.1181842" lon="14.9204005"><ele>639.0</ele><time>2026-03-29T14:31:13.748Z</time></trkpt><trkpt lat="38.1181015" lon="14.9203981"><ele>639.0</ele><time>2026-03-29T14:31:14.748Z</time></trkpt><trkpt lat="38.1180116" lon="14.9203967"><ele>639.0</ele><time>2026-03-29T14:31:15.747Z</time></trkpt><trkpt lat="38.1179278" lon="14.9204143"><ele>639.0</ele><time>2026-03-29T14:31:16.747Z</time></trkpt><trkpt lat="38.1178516" lon="14.9204366"><ele>641.6666666666666</ele><time>2026-03-29T14:31:17.747Z</time></trkpt><trkpt lat="38.1177821" lon="14.9204457"><ele>644.3333333333334</ele><time>2026-03-29T14:31:18.748Z</time></trkpt><trkpt lat="38.1176929" lon="14.9204086"><ele>647.0</ele><time>2026-03-29T14:31:20.747Z</time></trkpt><trkpt lat="38.117706" lon="14.9202983"><ele>649.6666666666667</ele><time>2026-03-29T14:31:22.747Z</time></trkpt><trkpt lat="38.1177604" lon="14.9202343"><ele>652.3333333333334</ele><time>2026-03-29T14:31:23.747Z</time></trkpt><trkpt lat="38.1178342" lon="14.9201619"><ele>655.0</ele><time>2026-03-29T14:31:24.747Z</time></trkpt><trkpt lat="38.1179033" lon="14.9200763"><ele>660.8</ele><time>2026-03-29T14:31:25.748Z</time></trkpt><trkpt lat="38.117953" lon="14.9199727"><ele>666.6</ele><time>2026-03-29T14:31:26.748Z</time></trkpt><trkpt lat="38.117978" lon="14.919872"><ele>672.4000000000001</ele><time>2026-03-29T14:31:27.748Z</time></trkpt><trkpt lat="38.1179771" lon="14.9197864"><ele>678.2</ele><time>2026-03-29T14:31:28.748Z</time></trkpt><trkpt lat="38.1179231" lon="14.9196404"><ele>684.0</ele><time>2026-03-29T14:31:30.747Z</time></trkpt><trkpt lat="38.117901" lon="14.9195163"><ele>684.0</ele><time>2026-03-29T14:31:32.748Z</time></trkpt><trkpt lat="38.1179044" lon="14.9193778"><ele>684.0</ele><time>2026-03-29T14:31:34.748Z</time></trkpt><trkpt lat="38.1179004" lon="14.9192914"><ele>684.0</ele><time>2026-03-29T14:31:35.748Z</time></trkpt><trkpt lat="38.1178888" lon="14.9192001"><ele>699.0</ele><time>2026-03-29T14:31:36.747Z</time></trkpt><trkpt lat="38.117864" lon="14.9190697"><ele>699.0</ele><time>2026-03-29T14:31:38.748Z</time></trkpt></trkseg><trkseg><trkpt lat="38.11417" lon="14.91992"><ele>789.0</ele><time>2026-03-29T14:35:12.722Z</time></trkpt><trkpt lat="38.1142467" lon="14.920045"><ele>789.0</ele><time>2026-03-29T14:36:11.721Z</time></trkpt><trkpt lat="38.11435" lon="14.92012"><ele>789.0</ele><time>2026-03-29T14:36:45.722Z</time></trkpt><trkpt lat="38.11429" lon="14.9201717"><ele>789.0</ele><time>2026-03-29T14:36:49.721Z</time></trkpt><trkpt lat="38.114235" lon="14.9202117"><ele>789.0</ele><time>2026-03-29T14:36:50.722Z</time></trkpt><trkpt lat="38.1141033" lon="14.9202767"><ele>786.8000000000001</ele><time>2026-03-29T14:36:52.721Z</time></trkpt><trkpt lat="38.1139983" lon="14.9203283"><ele>784.6</ele><time>2026-03-29T14:36:53.722Z</time></trkpt><trkpt lat="38.1138867" lon="14.9203817"><ele>782.4</ele><time>2026-03-29T14:36:54.722Z</time></trkpt><trkpt lat="38.1137917" lon="14.9204133"><ele>780.2</ele><time>2026-03-29T14:36:55.721Z</time></trkpt><trkpt lat="38.1137183" lon="14.920435"><ele>778.0</ele><time>2026-03-29T14:36:56.721Z</time></trkpt><trkpt lat="38.113655" lon="14.920425"><ele>777.9999999999999</ele><time>2026-03-29T14:36:59.722Z</time></trkpt><trkpt lat="38.113585" lon="14.9204333"><ele>778.0</ele><time>2026-03-29T14:37:02.722Z</time></trkpt><trkpt lat="38.1134917" lon="14.920535"><ele>778.0</ele><time>2026-03-29T14:37:04.721Z</time></trkpt><trkpt lat="38.113445" lon="14.9205983"><ele>778.0</ele><time>2026-03-29T14:37:05.722Z</time></trkpt><trkpt lat="38.1134017" lon="14.92066"><ele>777.9999999999999</ele><time>2026-03-29T14:37:06.721Z</time></trkpt><trkpt lat="38.1133217" lon="14.9207433"><ele>778.0</ele><time>2026-03-29T14:37:08.722Z</time></trkpt><trkpt lat="38.1132283" lon="14.9207983"><ele>775.5999999999999</ele><time>2026-03-29T14:37:10.722Z</time></trkpt><trkpt lat="38.113165" lon="14.92079"><ele>773.1999999999999</ele><time>2026-03-29T14:37:11.722Z</time></trkpt><trkpt lat="38.1130933" lon="14.9207683"><ele>770.8</ele><time>2026-03-29T14:37:12.722Z</time></trkpt><trkpt lat="38.1129833" lon="14.9208067"><ele>768.4</ele><time>2026-03-29T14:37:14.721Z</time></trkpt><trkpt lat="38.1128817" lon="14.9208317"><ele>766.0</ele><time>2026-03-29T14:37:16.722Z</time></trkpt><trkpt lat="38.1127783" lon="14.920805"><ele>766.0</ele><time>2026-03-29T14:37:18.721Z</time></trkpt><trkpt lat="38.112675" lon="14.920755"><ele>766.0</ele><time>2026-03-29T14:37:20.722Z</time></trkpt><trkpt lat="38.1125783" lon="14.9207017"><ele>766.0</ele><time>2026-03-29T14:37:22.721Z</time></trkpt><trkpt lat="38.112505" lon="14.920685"><ele>766.0</ele><time>2026-03-29T14:37:23.721Z</time></trkpt><trkpt lat="38.1124417" lon="14.9206733"><ele>766.0</ele><time>2026-03-29T14:37:24.722Z</time></trkpt><trkpt lat="38.11232" lon="14.9206483"><ele>761.6666666666667</ele><time>2026-03-29T14:37:26.722Z</time></trkpt><trkpt lat="38.1122267" lon="14.9206067"><ele>757.3333333333334</ele><time>2026-03-29T14:37:28.722Z</time></trkpt><trkpt lat="38.112125" lon="14.9205767"><ele>753.0</ele><time>2026-03-29T14:37:30.722Z</time></trkpt><trkpt lat="38.112065" lon="14.9205517"><ele>748.6666666666666</ele><time>2026-03-29T14:37:31.722Z</time></trkpt><trkpt lat="38.111955" lon="14.920515"><ele>744.3333333333333</ele><time>2026-03-29T14:37:33.722Z</time></trkpt><trkpt lat="38.1118917" lon="14.9204933"><ele>740.0</ele><time>2026-03-29T14:37:34.722Z</time></trkpt><trkpt lat="38.111825" lon="14.9204533"><ele>740.0</ele><time>2026-03-29T14:37:35.722Z</time></trkpt><trkpt lat="38.11175" lon="14.9203933"><ele>740.0</ele><time>2026-03-29T14:37:36.722Z</time></trkpt><trkpt lat="38.111675" lon="14.9203433"><ele>740.0</ele><time>2026-03-29T14:37:37.722Z</time></trkpt><trkpt lat="38.1116033" lon="14.9203017"><ele>740.0</ele><time>2026-03-29T14:37:38.721Z</time></trkpt><trkpt lat="38.111545" lon="14.920265"><ele>740.0</ele><time>2026-03-29T14:37:39.722Z</time></trkpt><trkpt lat="38.111435" lon="14.9201883"><ele>740.0</ele><time>2026-03-29T14:37:41.722Z</time></trkpt><trkpt lat="38.111325" lon="14.9201617"><ele>737.0</ele><time>2026-03-29T14:37:43.721Z</time></trkpt><trkpt lat="38.111215" lon="14.9202617"><ele>734.0</ele><time>2026-03-29T14:37:45.722Z</time></trkpt><trkpt lat="38.1111333" lon="14.92034"><ele>731.0</ele><time>2026-03-29T14:37:47.721Z</time></trkpt><trkpt lat="38.11105" lon="14.9203667"><ele>728.0</ele><time>2026-03-29T14:37:50.722Z</time></trkpt><trkpt lat="38.1109483" lon="14.9203083"><ele>725.0</ele><time>2026-03-29T14:38:48.721Z</time></trkpt><trkpt lat="38.1108267" lon="14.9202517"><ele>728.5</ele><time>2026-03-29T14:38:50.721Z</time></trkpt><trkpt lat="38.1107383" lon="14.9202033"><ele>732.0</ele><time>2026-03-29T14:38:51.721Z</time></trkpt><trkpt lat="38.1106533" lon="14.9201467"><ele>735.5</ele><time>2026-03-29T14:38:52.721Z</time></trkpt><trkpt lat="38.1105783" lon="14.9200883"><ele>739.0</ele><time>2026-03-29T14:38:53.722Z</time></trkpt><trkpt lat="38.1105167" lon="14.9200417"><ele>742.5</ele><time>2026-03-29T14:38:54.722Z</time></trkpt><trkpt lat="38.1104533" lon="14.9199967"><ele>746.0</ele><time>2026-03-29T14:38:55.722Z</time></trkpt><trkpt lat="38.1103567" lon="14.919925"><ele>746.0</ele><time>2026-03-29T14:38:57.722Z</time></trkpt><trkpt lat="38.1102633" lon="14.9199033"><ele>746.0</ele><time>2026-03-29T14:38:59.722Z</time></trkpt><trkpt lat="38.1101633" lon="14.9199383"><ele>746.0</ele><time>2026-03-29T14:39:01.722Z</time></trkpt><trkpt lat="38.110085" lon="14.919995"><ele>746.0</ele><time>2026-03-29T14:39:03.722Z</time></trkpt><trkpt lat="38.110025" lon="14.9200583"><ele>746.0</ele><time>2026-03-29T14:39:05.722Z</time></trkpt><trkpt lat="38.1099467" lon="14.9201717"><ele>746.0</ele><time>2026-03-29T14:39:07.721Z</time></trkpt><trkpt lat="38.1098647" lon="14.920281"><ele>746.0</ele><time>2026-03-29T14:39:09.722Z</time></trkpt><trkpt lat="38.1098152" lon="14.9203738"><ele>746.0</ele><time>2026-03-29T14:39:11.722Z</time></trkpt><trkpt lat="38.1098345" lon="14.9204869"><ele>746.0</ele><time>2026-03-29T14:39:13.722Z</time></trkpt><trkpt lat="38.1098817" lon="14.9205562"><ele>746.0</ele><time>2026-03-29T14:39:14.722Z</time></trkpt><trkpt lat="38.1099395" lon="14.9206274"><ele>746.0</ele><time>2026-03-29T14:39:15.722Z</time></trkpt><trkpt lat="38.1099741" lon="14.9206983"><ele>746.0</ele><time>2026-03-29T14:39:16.722Z</time></trkpt><trkpt lat="38.1099946" lon="14.9207754"><ele>746.0</ele><time>2026-03-29T14:39:17.722Z</time></trkpt><trkpt lat="38.1100278" lon="14.92092"><ele>746.0</ele><time>2026-03-29T14:39:19.722Z</time></trkpt><trkpt lat="38.1100341" lon="14.921006"><ele>746.0</ele><time>2026-03-29T14:39:20.722Z</time></trkpt><trkpt lat="38.1100367" lon="14.921097"><ele>746.0</ele><time>2026-03-29T14:39:21.722Z</time></trkpt><trkpt lat="38.110042" lon="14.9211819"><ele>744.3333333333333</ele><time>2026-03-29T14:39:22.722Z</time></trkpt><trkpt lat="38.110043" lon="14.9212651"><ele>742.6666666666666</ele><time>2026-03-29T14:39:23.722Z</time></trkpt><trkpt lat="38.1099945" lon="14.9213828"><ele>741.0</ele><time>2026-03-29T14:39:25.722Z</time></trkpt><trkpt lat="38.1099198" lon="14.9213974"><ele>739.3333333333334</ele><time>2026-03-29T14:39:27.722Z</time></trkpt><trkpt lat="38.1098477" lon="14.921405"><ele>737.6666666666667</ele><time>2026-03-29T14:39:29.722Z</time></trkpt><trkpt lat="38.1097793" lon="14.9214387"><ele>736.0</ele><time>2026-03-29T14:39:33.722Z</time></trkpt><trkpt lat="38.1097251" lon="14.9214842"><ele>736.0</ele><time>2026-03-29T14:39:38.722Z</time></trkpt><trkpt lat="38.1097937" lon="14.921471"><ele>736.0</ele><time>2026-03-29T14:39:55.722Z</time></trkpt><trkpt lat="38.1098583" lon="14.9214493"><ele>736.0</ele><time>2026-03-29T14:39:58.722Z</time></trkpt><trkpt lat="38.1099491" lon="14.9214163"><ele>736.0</ele><time>2026-03-29T14:40:00.722Z</time></trkpt><trkpt lat="38.1100076" lon="14.9213666"><ele>736.0</ele><time>2026-03-29T14:40:02.721Z</time></trkpt><trkpt lat="38.1100182" lon="14.9212866"><ele>736.0</ele><time>2026-03-29T14:40:04.721Z</time></trkpt><trkpt lat="38.1100167" lon="14.9211289"><ele>736.0</ele><time>2026-03-29T14:40:06.722Z</time></trkpt><trkpt lat="38.1100175" lon="14.921037"><ele>736.0</ele><time>2026-03-29T14:40:07.722Z</time></trkpt><trkpt lat="38.1100136" lon="14.9209522"><ele>736.0</ele><time>2026-03-29T14:40:08.722Z</time></trkpt><trkpt lat="38.1100068" lon="14.9208723"><ele>736.0</ele><time>2026-03-29T14:40:09.722Z</time></trkpt><trkpt lat="38.1099852" lon="14.9207238"><ele>736.0</ele><time>2026-03-29T14:40:11.722Z</time></trkpt><trkpt lat="38.1099408" lon="14.9205927"><ele>736.0</ele><time>2026-03-29T14:40:13.722Z</time></trkpt><trkpt lat="38.1098715" lon="14.9204761"><ele>738.0</ele><time>2026-03-29T14:40:15.722Z</time></trkpt><trkpt lat="38.1098313" lon="14.9203586"><ele>740.0</ele><time>2026-03-29T14:40:17.721Z</time></trkpt><trkpt lat="38.1098634" lon="14.920245"><ele>742.0</ele><time>2026-03-29T14:40:19.722Z</time></trkpt><trkpt lat="38.1099629" lon="14.9201447"><ele>744.0</ele><time>2026-03-29T14:40:21.721Z</time></trkpt><trkpt lat="38.1100167" lon="14.92009"><ele>746.0</ele><time>2026-03-29T14:40:22.722Z</time></trkpt><trkpt lat="38.1100567" lon="14.9200133"><ele>748.5</ele><time>2026-03-29T14:40:23.721Z</time></trkpt><trkpt lat="38.1101033" lon="14.9199567"><ele>751.0</ele><time>2026-03-29T14:40:24.722Z</time></trkpt><trkpt lat="38.1102083" lon="14.9198917"><ele>753.5</ele><time>2026-03-29T14:40:26.722Z</time></trkpt><trkpt lat="38.1102733" lon="14.91988"><ele>756.0</ele><time>2026-03-29T14:40:27.721Z</time></trkpt><trkpt lat="38.11034" lon="14.9198967"><ele>758.5</ele><time>2026-03-29T14:40:28.722Z</time></trkpt><trkpt lat="38.1104233" lon="14.9199433"><ele>761.0</ele><time>2026-03-29T14:40:29.722Z</time></trkpt><trkpt lat="38.11051" lon="14.9200033"><ele>757.25</ele><time>2026-03-29T14:40:30.722Z</time></trkpt><trkpt lat="38.110615" lon="14.9200917"><ele>753.5</ele><time>2026-03-29T14:40:31.722Z</time></trkpt><trkpt lat="38.1107317" lon="14.9201733"><ele>749.75</ele><time>2026-03-29T14:40:32.722Z</time></trkpt><trkpt lat="38.11084" lon="14.92025"><ele>746.0</ele><time>2026-03-29T14:40:33.722Z</time></trkpt><trkpt lat="38.1109233" lon="14.92031"><ele>741.8</ele><time>2026-03-29T14:40:34.721Z</time></trkpt><trkpt lat="38.1110017" lon="14.92035"><ele>737.5999999999999</ele><time>2026-03-29T14:40:35.722Z</time></trkpt><trkpt lat="38.1111233" lon="14.9203717"><ele>733.4</ele><time>2026-03-29T14:40:37.722Z</time></trkpt><trkpt lat="38.111185" lon="14.9203533"><ele>729.2</ele><time>2026-03-29T14:40:38.722Z</time></trkpt><trkpt lat="38.1112717" lon="14.9202667"><ele>725.0</ele><time>2026-03-29T14:40:40.723Z</time></trkpt><trkpt lat="38.1113733" lon="14.9202233"><ele>725.0</ele><time>2026-03-29T14:40:42.723Z</time></trkpt><trkpt lat="38.1114917" lon="14.920265"><ele>725.0</ele><time>2026-03-29T14:40:44.723Z</time></trkpt><trkpt lat="38.1115617" lon="14.920335"><ele>725.0</ele><time>2026-03-29T14:40:45.722Z</time></trkpt><trkpt lat="38.1116567" lon="14.920405"><ele>725.0</ele><time>2026-03-29T14:40:46.722Z</time></trkpt><trkpt lat="38.11176" lon="14.9204883"><ele>725.0</ele><time>2026-03-29T14:40:47.723Z</time></trkpt><trkpt lat="38.11187" lon="14.9205567"><ele>728.75</ele><time>2026-03-29T14:40:48.722Z</time></trkpt><trkpt lat="38.1119883" lon="14.9206117"><ele>732.5</ele><time>2026-03-29T14:40:49.723Z</time></trkpt><trkpt lat="38.1121083" lon="14.9206483"><ele>736.25</ele><time>2026-03-29T14:40:50.723Z</time></trkpt><trkpt lat="38.1122333" lon="14.9206717"><ele>740.0</ele><time>2026-03-29T14:40:51.723Z</time></trkpt><trkpt lat="38.1123533" lon="14.9206833"><ele>745.2</ele><time>2026-03-29T14:40:52.723Z</time></trkpt><trkpt lat="38.1124567" lon="14.9206917"><ele>750.4</ele><time>2026-03-29T14:40:53.723Z</time></trkpt><trkpt lat="38.1125433" lon="14.9206933"><ele>755.5999999999999</ele><time>2026-03-29T14:40:54.723Z</time></trkpt><trkpt lat="38.11263" lon="14.92072"><ele>760.8</ele><time>2026-03-29T14:40:55.723Z</time></trkpt><trkpt lat="38.1127267" lon="14.92076"><ele>766.0</ele><time>2026-03-29T14:40:56.723Z</time></trkpt><trkpt lat="38.1128283" lon="14.9208133"><ele>766.0</ele><time>2026-03-29T14:40:57.723Z</time></trkpt><trkpt lat="38.1129083" lon="14.9208417"><ele>766.0</ele><time>2026-03-29T14:40:58.723Z</time></trkpt><trkpt lat="38.1129867" lon="14.9208383"><ele>766.0</ele><time>2026-03-29T14:40:59.722Z</time></trkpt><trkpt lat="38.1130533" lon="14.9208033"><ele>766.0</ele><time>2026-03-29T14:41:00.723Z</time></trkpt><trkpt lat="38.1131167" lon="14.9208017"><ele>766.0</ele><time>2026-03-29T14:41:01.723Z</time></trkpt><trkpt lat="38.11318" lon="14.9208083"><ele>766.0</ele><time>2026-03-29T14:41:02.722Z</time></trkpt><trkpt lat="38.1132967" lon="14.9207833"><ele>768.0</ele><time>2026-03-29T14:41:04.723Z</time></trkpt><trkpt lat="38.1133617" lon="14.9207267"><ele>770.0</ele><time>2026-03-29T14:41:05.722Z</time></trkpt><trkpt lat="38.11342" lon="14.9206533"><ele>772.0</ele><time>2026-03-29T14:41:06.723Z</time></trkpt><trkpt lat="38.1134767" lon="14.9205733"><ele>774.0</ele><time>2026-03-29T14:41:07.723Z</time></trkpt><trkpt lat="38.1135233" lon="14.9205067"><ele>775.9999999999999</ele><time>2026-03-29T14:41:08.723Z</time></trkpt><trkpt lat="38.11362" lon="14.9204367"><ele>778.0</ele><time>2026-03-29T14:41:10.722Z</time></trkpt><trkpt lat="38.1137383" lon="14.92039"><ele>778.0</ele><time>2026-03-29T14:41:12.723Z</time></trkpt><trkpt lat="38.1138267" lon="14.9203533"><ele>778.0</ele><time>2026-03-29T14:41:13.723Z</time></trkpt><trkpt lat="38.1139167" lon="14.9203167"><ele>778.0</ele><time>2026-03-29T14:41:14.723Z</time></trkpt><trkpt lat="38.1140133" lon="14.92024"><ele>778.0</ele><time>2026-03-29T14:41:15.722Z</time></trkpt><trkpt lat="38.1141117" lon="14.9201167"><ele>778.0</ele><time>2026-03-29T14:41:16.723Z</time></trkpt><trkpt lat="38.1142083" lon="14.9200117"><ele>780.2</ele><time>2026-03-29T14:41:17.722Z</time></trkpt><trkpt lat="38.11429" lon="14.91992"><ele>782.4</ele><time>2026-03-29T14:41:18.722Z</time></trkpt><trkpt lat="38.1143667" lon="14.9198367"><ele>784.6</ele><time>2026-03-29T14:41:19.723Z</time></trkpt><trkpt lat="38.1144583" lon="14.91977"><ele>786.8000000000001</ele><time>2026-03-29T14:41:20.723Z</time></trkpt><trkpt lat="38.1145517" lon="14.9197167"><ele>789.0</ele><time>2026-03-29T14:41:21.722Z</time></trkpt><trkpt lat="38.114635" lon="14.9196617"><ele>789.0</ele><time>2026-03-29T14:41:22.723Z</time></trkpt><trkpt lat="38.1147217" lon="14.9195833"><ele>789.0</ele><time>2026-03-29T14:41:23.723Z</time></trkpt><trkpt lat="38.11479" lon="14.9195017"><ele>789.0</ele><time>2026-03-29T14:41:24.722Z</time></trkpt><trkpt lat="38.1148467" lon="14.919425"><ele>789.0</ele><time>2026-03-29T14:41:25.722Z</time></trkpt><trkpt lat="38.1148817" lon="14.9193567"><ele>789.0</ele><time>2026-03-29T14:41:26.723Z</time></trkpt><trkpt lat="38.1149183" lon="14.9192033"><ele>789.4000000000001</ele><time>2026-03-29T14:41:28.723Z</time></trkpt><trkpt lat="38.1149417" lon="14.919105"><ele>789.8</ele><time>2026-03-29T14:41:29.722Z</time></trkpt><trkpt lat="38.1149533" lon="14.91899"><ele>790.2</ele><time>2026-03-29T14:41:30.723Z</time></trkpt><trkpt lat="38.11496" lon="14.9188967"><ele>790.5999999999999</ele><time>2026-03-29T14:41:31.723Z</time></trkpt><trkpt lat="38.115015" lon="14.9187783"><ele>791.0</ele><time>2026-03-29T14:41:33.722Z</time></trkpt><trkpt lat="38.1151233" lon="14.9187183"><ele>791.0</ele><time>2026-03-29T14:41:35.722Z</time></trkpt><trkpt lat="38.1151733" lon="14.9186633"><ele>791.0</ele><time>2026-03-29T14:41:36.723Z</time></trkpt><trkpt lat="38.11522" lon="14.9185917"><ele>791.0</ele><time>2026-03-29T14:41:37.723Z</time></trkpt><trkpt lat="38.1152533" lon="14.91851"><ele>791.0</ele><time>2026-03-29T14:41:38.723Z</time></trkpt><trkpt lat="38.1152817" lon="14.9184167"><ele>791.0</ele><time>2026-03-29T14:41:39.723Z</time></trkpt><trkpt lat="38.1153167" lon="14.9183283"><ele>791.0</ele><time>2026-03-29T14:41:40.723Z</time></trkpt><trkpt lat="38.1153467" lon="14.9182533"><ele>791.0</ele><time>2026-03-29T14:41:41.722Z</time></trkpt><trkpt lat="38.115395" lon="14.9181767"><ele>795.6666666666667</ele><time>2026-03-29T14:41:42.723Z</time></trkpt><trkpt lat="38.1154417" lon="14.91811"><ele>800.3333333333334</ele><time>2026-03-29T14:41:43.723Z</time></trkpt><trkpt lat="38.11548" lon="14.91804"><ele>805.0</ele><time>2026-03-29T14:41:44.722Z</time></trkpt><trkpt lat="38.115515" lon="14.91793"><ele>809.6666666666667</ele><time>2026-03-29T14:41:46.723Z</time></trkpt><trkpt lat="38.1154867" lon="14.918015"><ele>814.3333333333334</ele><time>2026-03-29T14:42:44.722Z</time></trkpt><trkpt lat="38.1153867" lon="14.91813"><ele>819.0</ele><time>2026-03-29T14:42:46.723Z</time></trkpt><trkpt lat="38.1153383" lon="14.9182067"><ele>819.0</ele><time>2026-03-29T14:42:47.723Z</time></trkpt><trkpt lat="38.115295" lon="14.91829"><ele>819.0</ele><time>2026-03-29T14:42:48.722Z</time></trkpt><trkpt lat="38.1152567" lon="14.9183883"><ele>819.0</ele><time>2026-03-29T14:42:49.722Z</time></trkpt><trkpt lat="38.11523" lon="14.918485"><ele>819.0</ele><time>2026-03-29T14:42:50.723Z</time></trkpt><trkpt lat="38.1152033" lon="14.9185767"><ele>819.0</ele><time>2026-03-29T14:42:51.722Z</time></trkpt><trkpt lat="38.1151617" lon="14.91865"><ele>819.0</ele><time>2026-03-29T14:42:52.722Z</time></trkpt><trkpt lat="38.1151133" lon="14.918705"><ele>820.8000000000001</ele><time>2026-03-29T14:42:53.722Z</time></trkpt><trkpt lat="38.1150583" lon="14.9187467"><ele>822.6</ele><time>2026-03-29T14:42:54.723Z</time></trkpt><trkpt lat="38.1149767" lon="14.918835"><ele>824.4</ele><time>2026-03-29T14:42:56.722Z</time></trkpt><trkpt lat="38.114945" lon="14.9189833"><ele>826.2</ele><time>2026-03-29T14:42:58.723Z</time></trkpt><trkpt lat="38.1149283" lon="14.9190667"><ele>828.0</ele><time>2026-03-29T14:42:59.723Z</time></trkpt><trkpt lat="38.11488" lon="14.9192133"><ele>821.5</ele><time>2026-03-29T14:43:01.722Z</time></trkpt><trkpt lat="38.1148483" lon="14.9193067"><ele>815.0</ele><time>2026-03-29T14:43:02.723Z</time></trkpt><trkpt lat="38.1148083" lon="14.9193917"><ele>808.5</ele><time>2026-03-29T14:43:03.723Z</time></trkpt><trkpt lat="38.1147267" lon="14.9194883"><ele>802.0</ele><time>2026-03-29T14:43:05.722Z</time></trkpt><trkpt lat="38.1146467" lon="14.9195183"><ele>795.5</ele><time>2026-03-29T14:43:07.723Z</time></trkpt><trkpt lat="38.1145783" lon="14.9195367"><ele>789.0</ele><time>2026-03-29T14:43:09.723Z</time></trkpt><trkpt lat="38.11451" lon="14.9195783"><ele>788.9999999999999</ele><time>2026-03-29T14:43:12.723Z</time></trkpt><trkpt lat="38.11445" lon="14.9196133"><ele>789.0</ele><time>2026-03-29T14:43:14.722Z</time></trkpt><trkpt lat="38.1143767" lon="14.9196733"><ele>789.0</ele><time>2026-03-29T14:43:17.722Z</time></trkpt><trkpt lat="38.1143217" lon="14.919715"><ele>789.0</ele><time>2026-03-29T14:43:19.723Z</time></trkpt><trkpt lat="38.1142683" lon="14.9197583"><ele>789.0</ele><time>2026-03-29T14:43:21.723Z</time></trkpt><trkpt lat="38.11421" lon="14.9198067"><ele>788.9999999999999</ele><time>2026-03-29T14:43:24.723Z</time></trkpt><trkpt lat="38.114145" lon="14.9198667"><ele>789.0</ele><time>2026-03-29T14:43:27.723Z</time></trkpt><trkpt lat="38.1140617" lon="14.9199167"><ele>787.1666666666666</ele><time>2026-03-29T14:43:30.722Z</time></trkpt><trkpt lat="38.1140117" lon="14.9199717"><ele>785.3333333333333</ele><time>2026-03-29T14:43:32.723Z</time></trkpt><trkpt lat="38.1139567" lon="14.9200317"><ele>783.5</ele><time>2026-03-29T14:43:34.723Z</time></trkpt><trkpt lat="38.1138783" lon="14.9200933"><ele>781.6666666666666</ele><time>2026-03-29T14:43:36.723Z</time></trkpt><trkpt lat="38.113805" lon="14.9201317"><ele>779.8333333333333</ele><time>2026-03-29T14:43:38.722Z</time></trkpt><trkpt lat="38.113745" lon="14.9201933"><ele>778.0</ele><time>2026-03-29T14:44:15.723Z</time></trkpt><trkpt lat="38.11383" lon="14.9201433"><ele>778.0</ele><time>2026-03-29T14:44:18.723Z</time></trkpt><trkpt lat="38.1139183" lon="14.9200983"><ele>778.0</ele><time>2026-03-29T14:44:20.722Z</time></trkpt><trkpt lat="38.1140083" lon="14.92004"><ele>778.0</ele><time>2026-03-29T14:44:22.722Z</time></trkpt><trkpt lat="38.1140883" lon="14.9199683"><ele>778.0</ele><time>2026-03-29T14:44:24.722Z</time></trkpt><trkpt lat="38.114135" lon="14.9198717"><ele>778.0</ele><time>2026-03-29T14:44:26.722Z</time></trkpt><trkpt lat="38.1142133" lon="14.9197633"><ele>779.8333333333333</ele><time>2026-03-29T14:44:28.723Z</time></trkpt><trkpt lat="38.1142883" lon="14.9196917"><ele>781.6666666666666</ele><time>2026-03-29T14:44:30.723Z</time></trkpt><trkpt lat="38.1143617" lon="14.919615"><ele>783.5</ele><time>2026-03-29T14:44:32.723Z</time></trkpt><trkpt lat="38.1144283" lon="14.91957"><ele>785.3333333333333</ele><time>2026-03-29T14:44:34.722Z</time></trkpt><trkpt lat="38.1144883" lon="14.919535"><ele>787.1666666666666</ele><time>2026-03-29T14:44:36.723Z</time></trkpt><trkpt lat="38.1145683" lon="14.9195267"><ele>789.0</ele><time>2026-03-29T14:44:38.723Z</time></trkpt><trkpt lat="38.1146383" lon="14.9195267"><ele>789.0</ele><time>2026-03-29T14:44:40.722Z</time></trkpt><trkpt lat="38.1147067" lon="14.919545"><ele>789.0</ele><time>2026-03-29T14:44:42.723Z</time></trkpt><trkpt lat="38.1146683" lon="14.9196283"><ele>789.0</ele><time>2026-03-29T14:44:46.723Z</time></trkpt><trkpt lat="38.114555" lon="14.9196883"><ele>789.0</ele><time>2026-03-29T14:44:48.723Z</time></trkpt><trkpt lat="38.11448" lon="14.9197233"><ele>789.0</ele><time>2026-03-29T14:44:49.723Z</time></trkpt><trkpt lat="38.1144067" lon="14.9197583"><ele>789.0</ele><time>2026-03-29T14:44:50.723Z</time></trkpt><trkpt lat="38.11434" lon="14.9197983"><ele>789.0</ele><time>2026-03-29T14:44:51.723Z</time></trkpt><trkpt lat="38.1142767" lon="14.9198533"><ele>789.0</ele><time>2026-03-29T14:44:52.723Z</time></trkpt><trkpt lat="38.114225" lon="14.9199133"><ele>789.0</ele><time>2026-03-29T14:44:53.723Z</time></trkpt><trkpt lat="38.1141817" lon="14.9199733"><ele>789.0</ele><time>2026-03-29T14:44:54.723Z</time></trkpt><trkpt lat="38.1141333" lon="14.92004"><ele>789.0</ele><time>2026-03-29T14:44:55.723Z</time></trkpt><trkpt lat="38.11406" lon="14.920125"><ele>789.0</ele><time>2026-03-29T14:44:57.722Z</time></trkpt><trkpt lat="38.1139633" lon="14.9202083"><ele>786.8000000000001</ele><time>2026-03-29T14:44:59.723Z</time></trkpt><trkpt lat="38.1138517" lon="14.9202367"><ele>784.6</ele><time>2026-03-29T14:45:01.723Z</time></trkpt><trkpt lat="38.1137467" lon="14.9202817"><ele>782.4</ele><time>2026-03-29T14:45:03.722Z</time></trkpt><trkpt lat="38.1136933" lon="14.92034"><ele>780.2</ele><time>2026-03-29T14:45:05.723Z</time></trkpt><trkpt lat="38.1137467" lon="14.9204317"><ele>778.0</ele><time>2026-03-29T14:45:09.723Z</time></trkpt><trkpt lat="38.11388" lon="14.9204333"><ele>778.0</ele><time>2026-03-29T14:45:11.723Z</time></trkpt><trkpt lat="38.113975" lon="14.92041"><ele>778.0</ele><time>2026-03-29T14:45:12.723Z</time></trkpt><trkpt lat="38.114075" lon="14.9203717"><ele>778.0</ele><time>2026-03-29T14:45:13.723Z</time></trkpt><trkpt lat="38.114165" lon="14.9203117"><ele>778.0</ele><time>2026-03-29T14:45:14.722Z</time></trkpt><trkpt lat="38.114245" lon="14.92024"><ele>778.0</ele><time>2026-03-29T14:45:15.723Z</time></trkpt><trkpt lat="38.11432" lon="14.9201817"><ele>779.8333333333333</ele><time>2026-03-29T14:45:16.723Z</time></trkpt><trkpt lat="38.1143817" lon="14.92013"><ele>781.6666666666666</ele><time>2026-03-29T14:45:17.723Z</time></trkpt><trkpt lat="38.1144367" lon="14.9200883"><ele>783.5</ele><time>2026-03-29T14:45:18.723Z</time></trkpt><trkpt lat="38.1145433" lon="14.9200267"><ele>785.3333333333333</ele><time>2026-03-29T14:45:20.722Z</time></trkpt><trkpt lat="38.114665" lon="14.9200067"><ele>787.1666666666666</ele><time>2026-03-29T14:45:22.723Z</time></trkpt><trkpt lat="38.11473" lon="14.91997"><ele>789.0</ele><time>2026-03-29T14:45:23.723Z</time></trkpt><trkpt lat="38.114795" lon="14.9199283"><ele>788.9999999999999</ele><time>2026-03-29T14:45:24.723Z</time></trkpt><trkpt lat="38.114855" lon="14.919885"><ele>789.0</ele><time>2026-03-29T14:45:25.722Z</time></trkpt><trkpt lat="38.11492" lon="14.919845"><ele>789.0</ele><time>2026-03-29T14:45:26.722Z</time></trkpt><trkpt lat="38.1149883" lon="14.9197933"><ele>789.0</ele><time>2026-03-29T14:45:27.723Z</time></trkpt><trkpt lat="38.1150517" lon="14.9197267"><ele>789.0</ele><time>2026-03-29T14:45:28.722Z</time></trkpt><trkpt lat="38.11511" lon="14.91966"><ele>788.9999999999999</ele><time>2026-03-29T14:45:29.722Z</time></trkpt><trkpt lat="38.1151517" lon="14.9195917"><ele>789.0</ele><time>2026-03-29T14:45:30.722Z</time></trkpt><trkpt lat="38.115185" lon="14.9195217"><ele>789.3333333333334</ele><time>2026-03-29T14:45:31.723Z</time></trkpt><trkpt lat="38.1152217" lon="14.91944"><ele>789.6666666666667</ele><time>2026-03-29T14:45:32.723Z</time></trkpt><trkpt lat="38.1152667" lon="14.9193583"><ele>790.0</ele><time>2026-03-29T14:45:33.723Z</time></trkpt><trkpt lat="38.115315" lon="14.9192917"><ele>790.3333333333334</ele><time>2026-03-29T14:45:34.722Z</time></trkpt><trkpt lat="38.1153783" lon="14.919275"><ele>790.6666666666667</ele><time>2026-03-29T14:45:35.723Z</time></trkpt><trkpt lat="38.1154517" lon="14.91928"><ele>791.0</ele><time>2026-03-29T14:45:36.722Z</time></trkpt><trkpt lat="38.115575" lon="14.9192333"><ele>791.0</ele><time>2026-03-29T14:45:38.723Z</time></trkpt><trkpt lat="38.1156483" lon="14.919185"><ele>791.0</ele><time>2026-03-29T14:45:39.722Z</time></trkpt><trkpt lat="38.1157333" lon="14.9191267"><ele>791.0</ele><time>2026-03-29T14:45:40.722Z</time></trkpt><trkpt lat="38.1158067" lon="14.9190733"><ele>791.0</ele><time>2026-03-29T14:45:41.723Z</time></trkpt><trkpt lat="38.1159167" lon="14.9189917"><ele>791.0</ele><time>2026-03-29T14:45:43.723Z</time></trkpt><trkpt lat="38.1159933" lon="14.9189517"><ele>785.8333333333334</ele><time>2026-03-29T14:45:44.723Z</time></trkpt><trkpt lat="38.116075" lon="14.9189117"><ele>780.6666666666667</ele><time>2026-03-29T14:45:45.723Z</time></trkpt><trkpt lat="38.116155" lon="14.91888"><ele>775.5</ele><time>2026-03-29T14:45:46.723Z</time></trkpt><trkpt lat="38.1162367" lon="14.9188533"><ele>770.3333333333334</ele><time>2026-03-29T14:45:47.723Z</time></trkpt><trkpt lat="38.1163133" lon="14.9188117"><ele>765.1666666666667</ele><time>2026-03-29T14:45:48.722Z</time></trkpt><trkpt lat="38.1163717" lon="14.9187583"><ele>760.0</ele><time>2026-03-29T14:45:49.722Z</time></trkpt><trkpt lat="38.1164233" lon="14.9186967"><ele>760.0</ele><time>2026-03-29T14:45:50.722Z</time></trkpt><trkpt lat="38.1164717" lon="14.918645"><ele>760.0</ele><time>2026-03-29T14:45:51.723Z</time></trkpt><trkpt lat="38.11654" lon="14.91858"><ele>760.0</ele><time>2026-03-29T14:45:53.723Z</time></trkpt><trkpt lat="38.1166033" lon="14.918585"><ele>760.0</ele><time>2026-03-29T14:45:55.723Z</time></trkpt><trkpt lat="38.1166017" lon="14.9187167"><ele>760.0</ele><time>2026-03-29T14:45:58.723Z</time></trkpt><trkpt lat="38.1165633" lon="14.91879"><ele>760.0</ele><time>2026-03-29T14:45:59.723Z</time></trkpt><trkpt lat="38.1165067" lon="14.9188767"><ele>760.0</ele><time>2026-03-29T14:46:00.723Z</time></trkpt><trkpt lat="38.1164433" lon="14.9189683"><ele>760.0</ele><time>2026-03-29T14:46:01.723Z</time></trkpt><trkpt lat="38.1163983" lon="14.91903"><ele>760.0</ele><time>2026-03-29T14:46:02.722Z</time></trkpt><trkpt lat="38.11634" lon="14.9191283"><ele>760.0</ele><time>2026-03-29T14:46:04.724Z</time></trkpt><trkpt lat="38.1163875" lon="14.9192042"><ele>760.0</ele><time>2026-03-29T14:50:10.723Z</time></trkpt><trkpt lat="38.1164525" lon="14.9192158"><ele>760.0</ele><time>2026-03-29T14:50:13.724Z</time></trkpt><trkpt lat="38.116532" lon="14.9191953"><ele>760.0</ele><time>2026-03-29T14:50:19.724Z</time></trkpt><trkpt lat="38.116615" lon="14.9191481"><ele>760.0</ele><time>2026-03-29T14:50:24.723Z</time></trkpt><trkpt lat="38.1166864" lon="14.9190903"><ele>760.0</ele><time>2026-03-29T14:50:26.724Z</time></trkpt><trkpt lat="38.1167458" lon="14.9190426"><ele>760.0</ele><time>2026-03-29T14:50:28.724Z</time></trkpt><trkpt lat="38.1166449" lon="14.919119"><ele>760.0</ele><time>2026-03-29T14:50:40.724Z</time></trkpt><trkpt lat="38.1165802" lon="14.9191514"><ele>760.0</ele><time>2026-03-29T14:50:41.724Z</time></trkpt><trkpt lat="38.1165104" lon="14.9191903"><ele>760.0</ele><time>2026-03-29T14:50:42.723Z</time></trkpt><trkpt lat="38.1164477" lon="14.9192167"><ele>760.0</ele><time>2026-03-29T14:50:43.723Z</time></trkpt><trkpt lat="38.1163593" lon="14.9191895"><ele>760.0</ele><time>2026-03-29T14:50:45.724Z</time></trkpt><trkpt lat="38.1163592" lon="14.9190752"><ele>760.0</ele><time>2026-03-29T14:50:47.724Z</time></trkpt><trkpt lat="38.1163948" lon="14.9190081"><ele>760.0</ele><time>2026-03-29T14:50:48.724Z</time></trkpt><trkpt lat="38.1164558" lon="14.9189283"><ele>760.0</ele><time>2026-03-29T14:50:49.724Z</time></trkpt><trkpt lat="38.1165281" lon="14.9188448"><ele>760.0</ele><time>2026-03-29T14:50:50.724Z</time></trkpt><trkpt lat="38.1165882" lon="14.9187506"><ele>760.0</ele><time>2026-03-29T14:50:51.724Z</time></trkpt><trkpt lat="38.1166249" lon="14.918662"><ele>760.0</ele><time>2026-03-29T14:50:52.724Z</time></trkpt><trkpt lat="38.1166271" lon="14.9185334"><ele>760.0</ele><time>2026-03-29T14:50:54.724Z</time></trkpt><trkpt lat="38.1165469" lon="14.918534"><ele>760.0</ele><time>2026-03-29T14:50:56.723Z</time></trkpt><trkpt lat="38.1164283" lon="14.918665"><ele>760.0</ele><time>2026-03-29T14:50:58.723Z</time></trkpt><trkpt lat="38.116365" lon="14.91873"><ele>760.0</ele><time>2026-03-29T14:50:59.724Z</time></trkpt><trkpt lat="38.116285" lon="14.9187967"><ele>760.0</ele><time>2026-03-29T14:51:00.724Z</time></trkpt><trkpt lat="38.11618" lon="14.91885"><ele>760.0</ele><time>2026-03-29T14:51:01.724Z</time></trkpt><trkpt lat="38.116075" lon="14.9189167"><ele>760.0</ele><time>2026-03-29T14:51:02.724Z</time></trkpt><trkpt lat="38.1159783" lon="14.9189817"><ele>760.0</ele><time>2026-03-29T14:51:03.723Z</time></trkpt><trkpt lat="38.1158817" lon="14.9190517"><ele>760.0</ele><time>2026-03-29T14:51:04.724Z</time></trkpt><trkpt lat="38.1157967" lon="14.9191117"><ele>760.0</ele><time>2026-03-29T14:51:05.723Z</time></trkpt><trkpt lat="38.1156967" lon="14.9191767"><ele>760.0</ele><time>2026-03-29T14:51:06.724Z</time></trkpt><trkpt lat="38.1156017" lon="14.9192383"><ele>760.0</ele><time>2026-03-29T14:51:07.724Z</time></trkpt><trkpt lat="38.1155117" lon="14.919285"><ele>760.8333333333334</ele><time>2026-03-29T14:51:08.723Z</time></trkpt><trkpt lat="38.1154283" lon="14.9193017"><ele>761.6666666666667</ele><time>2026-03-29T14:51:09.724Z</time></trkpt><trkpt lat="38.1153517" lon="14.9193283"><ele>762.5</ele><time>2026-03-29T14:51:10.723Z</time></trkpt><trkpt lat="38.1152883" lon="14.9193783"><ele>763.3333333333334</ele><time>2026-03-29T14:51:11.723Z</time></trkpt><trkpt lat="38.1152283" lon="14.9194467"><ele>764.1666666666666</ele><time>2026-03-29T14:51:12.724Z</time></trkpt><trkpt lat="38.1151767" lon="14.9195283"><ele>765.0</ele><time>2026-03-29T14:51:13.724Z</time></trkpt><trkpt lat="38.1151167" lon="14.9196217"><ele>765.0</ele><time>2026-03-29T14:51:14.724Z</time></trkpt><trkpt lat="38.1150583" lon="14.919705"><ele>765.0</ele><time>2026-03-29T14:51:15.724Z</time></trkpt><trkpt lat="38.1149883" lon="14.9197817"><ele>765.0</ele><time>2026-03-29T14:51:16.723Z</time></trkpt><trkpt lat="38.1149133" lon="14.9198583"><ele>765.0</ele><time>2026-03-29T14:51:17.723Z</time></trkpt><trkpt lat="38.11484" lon="14.9199233"><ele>765.0</ele><time>2026-03-29T14:51:18.723Z</time></trkpt><trkpt lat="38.1147617" lon="14.9199617"><ele>764.5</ele><time>2026-03-29T14:51:19.724Z</time></trkpt><trkpt lat="38.1146933" lon="14.9200017"><ele>764.0</ele><time>2026-03-29T14:51:20.724Z</time></trkpt><trkpt lat="38.1146333" lon="14.9200267"><ele>763.5</ele><time>2026-03-29T14:51:21.724Z</time></trkpt><trkpt lat="38.1145583" lon="14.9200533"><ele>763.0</ele><time>2026-03-29T14:51:22.723Z</time></trkpt><trkpt lat="38.1144767" lon="14.9200867"><ele>762.5</ele><time>2026-03-29T14:51:23.723Z</time></trkpt><trkpt lat="38.1143917" lon="14.9201433"><ele>762.0</ele><time>2026-03-29T14:51:24.724Z</time></trkpt><trkpt lat="38.11429" lon="14.92021"><ele>762.0</ele><time>2026-03-29T14:51:25.724Z</time></trkpt><trkpt lat="38.11417" lon="14.9202833"><ele>762.0</ele><time>2026-03-29T14:51:26.724Z</time></trkpt><trkpt lat="38.1140533" lon="14.9203433"><ele>762.0</ele><time>2026-03-29T14:51:27.723Z</time></trkpt><trkpt lat="38.11394" lon="14.92039"><ele>762.0</ele><time>2026-03-29T14:51:28.723Z</time></trkpt><trkpt lat="38.113835" lon="14.92041"><ele>764.6666666666666</ele><time>2026-03-29T14:51:29.724Z</time></trkpt><trkpt lat="38.1137517" lon="14.9204133"><ele>767.3333333333333</ele><time>2026-03-29T14:51:30.723Z</time></trkpt><trkpt lat="38.11368" lon="14.9204083"><ele>770.0</ele><time>2026-03-29T14:51:31.724Z</time></trkpt><trkpt lat="38.1136133" lon="14.9203917"><ele>772.6666666666666</ele><time>2026-03-29T14:51:33.724Z</time></trkpt><trkpt lat="38.1137183" lon="14.92037"><ele>775.3333333333333</ele><time>2026-03-29T14:51:36.724Z</time></trkpt><trkpt lat="38.1137933" lon="14.9203467"><ele>778.0</ele><time>2026-03-29T14:51:37.723Z</time></trkpt><trkpt lat="38.11389" lon="14.920315"><ele>778.0</ele><time>2026-03-29T14:51:38.724Z</time></trkpt><trkpt lat="38.1139833" lon="14.9202683"><ele>778.0</ele><time>2026-03-29T14:51:39.723Z</time></trkpt><trkpt lat="38.1140683" lon="14.920195"><ele>778.0</ele><time>2026-03-29T14:51:40.724Z</time></trkpt><trkpt lat="38.1141517" lon="14.9200867"><ele>778.0</ele><time>2026-03-29T14:51:41.724Z</time></trkpt><trkpt lat="38.11424" lon="14.9199733"><ele>778.0</ele><time>2026-03-29T14:51:42.724Z</time></trkpt><trkpt lat="38.1143283" lon="14.9198583"><ele>780.75</ele><time>2026-03-29T14:51:43.724Z</time></trkpt><trkpt lat="38.1144167" lon="14.9197683"><ele>783.5</ele><time>2026-03-29T14:51:44.724Z</time></trkpt><trkpt lat="38.1145183" lon="14.91971"><ele>786.25</ele><time>2026-03-29T14:51:45.724Z</time></trkpt><trkpt lat="38.1146383" lon="14.9196417"><ele>789.0</ele><time>2026-03-29T14:51:46.723Z</time></trkpt><trkpt lat="38.1147367" lon="14.919575"><ele>789.0</ele><time>2026-03-29T14:51:47.724Z</time></trkpt><trkpt lat="38.1148117" lon="14.9194783"><ele>789.0</ele><time>2026-03-29T14:51:48.724Z</time></trkpt><trkpt lat="38.1148667" lon="14.9193583"><ele>789.0</ele><time>2026-03-29T14:51:49.724Z</time></trkpt><trkpt lat="38.1149133" lon="14.9192017"><ele>789.0</ele><time>2026-03-29T14:51:50.724Z</time></trkpt><trkpt lat="38.11494" lon="14.9190517"><ele>789.3333333333334</ele><time>2026-03-29T14:51:51.724Z</time></trkpt><trkpt lat="38.1149533" lon="14.9189383"><ele>789.6666666666667</ele><time>2026-03-29T14:51:52.724Z</time></trkpt><trkpt lat="38.11496" lon="14.9188583"><ele>790.0</ele><time>2026-03-29T14:51:53.724Z</time></trkpt><trkpt lat="38.1150267" lon="14.9187433"><ele>790.3333333333334</ele><time>2026-03-29T14:51:55.723Z</time></trkpt><trkpt lat="38.1150933" lon="14.9186867"><ele>790.6666666666667</ele><time>2026-03-29T14:51:56.724Z</time></trkpt><trkpt lat="38.115145" lon="14.9186233"><ele>791.0</ele><time>2026-03-29T14:51:57.723Z</time></trkpt><trkpt lat="38.115185" lon="14.91853"><ele>791.0</ele><time>2026-03-29T14:51:58.723Z</time></trkpt><trkpt lat="38.1152283" lon="14.91843"><ele>791.0</ele><time>2026-03-29T14:51:59.724Z</time></trkpt><trkpt lat="38.11526" lon="14.918325"><ele>791.0</ele><time>2026-03-29T14:52:00.723Z</time></trkpt><trkpt lat="38.1153083" lon="14.9182233"><ele>791.0</ele><time>2026-03-29T14:52:01.724Z</time></trkpt><trkpt lat="38.1153633" lon="14.9181233"><ele>791.0</ele><time>2026-03-29T14:52:02.724Z</time></trkpt><trkpt lat="38.1154083" lon="14.918025"><ele>798.0</ele><time>2026-03-29T14:52:03.724Z</time></trkpt><trkpt lat="38.1154417" lon="14.9179117"><ele>805.0</ele><time>2026-03-29T14:52:04.723Z</time></trkpt><trkpt lat="38.11548" lon="14.91776"><ele>812.0</ele><time>2026-03-29T14:52:05.724Z</time></trkpt><trkpt lat="38.1155367" lon="14.9176083"><ele>819.0</ele><time>2026-03-29T14:52:06.723Z</time></trkpt><trkpt lat="38.11559" lon="14.9174667"><ele>816.0</ele><time>2026-03-29T14:52:07.724Z</time></trkpt><trkpt lat="38.1156567" lon="14.9173417"><ele>813.0</ele><time>2026-03-29T14:52:08.724Z</time></trkpt><trkpt lat="38.11571" lon="14.9172533"><ele>810.0</ele><time>2026-03-29T14:52:09.724Z</time></trkpt><trkpt lat="38.1157667" lon="14.9171667"><ele>807.0</ele><time>2026-03-29T14:52:10.723Z</time></trkpt><trkpt lat="38.1158083" lon="14.9170717"><ele>804.0</ele><time>2026-03-29T14:52:11.724Z</time></trkpt><trkpt lat="38.1158183" lon="14.91697"><ele>804.0</ele><time>2026-03-29T14:52:12.723Z</time></trkpt><trkpt lat="38.1157767" lon="14.9168717"><ele>804.0</ele><time>2026-03-29T14:52:13.724Z</time></trkpt><trkpt lat="38.11577" lon="14.9167883"><ele>804.0</ele><time>2026-03-29T14:52:14.723Z</time></trkpt><trkpt lat="38.115735" lon="14.916925"><ele>804.0</ele><time>2026-03-29T14:52:19.724Z</time></trkpt><trkpt lat="38.11573" lon="14.9170133"><ele>804.0</ele><time>2026-03-29T14:52:20.724Z</time></trkpt><trkpt lat="38.11571" lon="14.9171"><ele>804.0</ele><time>2026-03-29T14:52:21.723Z</time></trkpt><trkpt lat="38.1156783" lon="14.917175"><ele>811.1666666666666</ele><time>2026-03-29T14:52:22.723Z</time></trkpt><trkpt lat="38.11563" lon="14.917245"><ele>818.3333333333333</ele><time>2026-03-29T14:52:23.724Z</time></trkpt><trkpt lat="38.1155683" lon="14.9173"><ele>825.5</ele><time>2026-03-29T14:52:24.723Z</time></trkpt><trkpt lat="38.1154967" lon="14.91737"><ele>832.6666666666666</ele><time>2026-03-29T14:52:25.724Z</time></trkpt><trkpt lat="38.1154317" lon="14.9174317"><ele>839.8333333333333</ele><time>2026-03-29T14:52:26.723Z</time></trkpt><trkpt lat="38.1153583" lon="14.9174917"><ele>847.0</ele><time>2026-03-29T14:52:27.724Z</time></trkpt><trkpt lat="38.1152767" lon="14.9175483"><ele>849.3333333333333</ele><time>2026-03-29T14:52:28.723Z</time></trkpt><trkpt lat="38.1151983" lon="14.917605"><ele>851.6666666666666</ele><time>2026-03-29T14:52:29.724Z</time></trkpt><trkpt lat="38.1151333" lon="14.9176683"><ele>854.0</ele><time>2026-03-29T14:52:30.724Z</time></trkpt><trkpt lat="38.115065" lon="14.9177283"><ele>856.3333333333333</ele><time>2026-03-29T14:52:31.724Z</time></trkpt><trkpt lat="38.1149933" lon="14.9177617"><ele>858.6666666666666</ele><time>2026-03-29T14:52:32.724Z</time></trkpt><trkpt lat="38.1149167" lon="14.9178"><ele>861.0</ele><time>2026-03-29T14:52:33.724Z</time></trkpt><trkpt lat="38.1148367" lon="14.917865"><ele>861.0</ele><time>2026-03-29T14:52:34.725Z</time></trkpt><trkpt lat="38.1147467" lon="14.9179367"><ele>861.0</ele><time>2026-03-29T14:52:35.725Z</time></trkpt><trkpt lat="38.114655" lon="14.9180167"><ele>861.0</ele><time>2026-03-29T14:52:36.724Z</time></trkpt><trkpt lat="38.1145533" lon="14.9181167"><ele>861.0</ele><time>2026-03-29T14:52:37.725Z</time></trkpt><trkpt lat="38.1144333" lon="14.918235"><ele>861.0</ele><time>2026-03-29T14:52:38.725Z</time></trkpt><trkpt lat="38.114315" lon="14.9183683"><ele>861.0</ele><time>2026-03-29T14:52:39.725Z</time></trkpt><trkpt lat="38.1142167" lon="14.9184583"><ele>861.0</ele><time>2026-03-29T14:52:40.724Z</time></trkpt><trkpt lat="38.11414" lon="14.9185233"><ele>861.0</ele><time>2026-03-29T14:52:41.725Z</time></trkpt><trkpt lat="38.1140633" lon="14.91859"><ele>859.1999999999999</ele><time>2026-03-29T14:52:42.725Z</time></trkpt><trkpt lat="38.1139967" lon="14.918635"><ele>857.3999999999999</ele><time>2026-03-29T14:52:43.725Z</time></trkpt><trkpt lat="38.1139367" lon="14.9186667"><ele>855.6</ele><time>2026-03-29T14:52:44.725Z</time></trkpt><trkpt lat="38.1138233" lon="14.9187133"><ele>853.8</ele><time>2026-03-29T14:52:46.725Z</time></trkpt><trkpt lat="38.1137133" lon="14.9187967"><ele>852.0</ele><time>2026-03-29T14:52:48.725Z</time></trkpt><trkpt lat="38.11365" lon="14.9188567"><ele>851.9999999999999</ele><time>2026-03-29T14:52:49.724Z</time></trkpt><trkpt lat="38.1135917" lon="14.9188983"><ele>852.0</ele><time>2026-03-29T14:52:50.724Z</time></trkpt><trkpt lat="38.113535" lon="14.918935"><ele>852.0</ele><time>2026-03-29T14:52:51.724Z</time></trkpt><trkpt lat="38.11348" lon="14.91899"><ele>852.0</ele><time>2026-03-29T14:52:52.724Z</time></trkpt><trkpt lat="38.1134033" lon="14.9190567"><ele>852.0</ele><time>2026-03-29T14:52:54.724Z</time></trkpt><trkpt lat="38.1133533" lon="14.9191117"><ele>851.9999999999999</ele><time>2026-03-29T14:52:57.725Z</time></trkpt><trkpt lat="38.1132929" lon="14.9190703"><ele>852.0</ele><time>2026-03-29T14:56:34.725Z</time></trkpt><trkpt lat="38.1132176" lon="14.9190796"><ele>853.1666666666666</ele><time>2026-03-29T14:57:25.725Z</time></trkpt><trkpt lat="38.1131509" lon="14.919093"><ele>854.3333333333333</ele><time>2026-03-29T14:57:26.725Z</time></trkpt><trkpt lat="38.1130701" lon="14.919112"><ele>855.5</ele><time>2026-03-29T14:57:27.724Z</time></trkpt><trkpt lat="38.1129766" lon="14.9191268"><ele>856.6666666666666</ele><time>2026-03-29T14:57:28.725Z</time></trkpt><trkpt lat="38.11289" lon="14.9191348"><ele>857.8333333333333</ele><time>2026-03-29T14:57:29.725Z</time></trkpt><trkpt lat="38.1128191" lon="14.9191375"><ele>859.0</ele><time>2026-03-29T14:57:30.724Z</time></trkpt><trkpt lat="38.1127141" lon="14.9191653"><ele>858.9999999999999</ele><time>2026-03-29T14:57:32.724Z</time></trkpt><trkpt lat="38.1126501" lon="14.9192375"><ele>859.0</ele><time>2026-03-29T14:57:34.725Z</time></trkpt><trkpt lat="38.1126109" lon="14.9193136"><ele>859.0</ele><time>2026-03-29T14:57:37.724Z</time></trkpt><trkpt lat="38.1126579" lon="14.9192546"><ele>859.0</ele><time>2026-03-29T15:16:19.729Z</time></trkpt><trkpt lat="38.1127056" lon="14.9191853"><ele>858.9999999999999</ele><time>2026-03-29T15:16:20.728Z</time></trkpt><trkpt lat="38.1127645" lon="14.9191077"><ele>859.0</ele><time>2026-03-29T15:16:21.728Z</time></trkpt><trkpt lat="38.1128293" lon="14.9190165"><ele>859.0</ele><time>2026-03-29T15:16:22.729Z</time></trkpt><trkpt lat="38.1128966" lon="14.9189103"><ele>859.0000000000001</ele><time>2026-03-29T15:16:23.728Z</time></trkpt><trkpt lat="38.1129736" lon="14.9188024"><ele>859.0000000000001</ele><time>2026-03-29T15:16:24.729Z</time></trkpt><trkpt lat="38.1130593" lon="14.9187098"><ele>859.0</ele><time>2026-03-29T15:16:25.729Z</time></trkpt><trkpt lat="38.1131522" lon="14.9186345"><ele>859.0</ele><time>2026-03-29T15:16:26.728Z</time></trkpt><trkpt lat="38.113243" lon="14.9185666"><ele>857.25</ele><time>2026-03-29T15:16:27.729Z</time></trkpt><trkpt lat="38.1133367" lon="14.9184947"><ele>855.5</ele><time>2026-03-29T15:16:28.729Z</time></trkpt><trkpt lat="38.1134401" lon="14.9184097"><ele>853.75</ele><time>2026-03-29T15:16:29.729Z</time></trkpt><trkpt lat="38.1135406" lon="14.9183095"><ele>852.0</ele><time>2026-03-29T15:16:30.729Z</time></trkpt><trkpt lat="38.1136319" lon="14.918205"><ele>858.8</ele><time>2026-03-29T15:16:31.729Z</time></trkpt><trkpt lat="38.1137248" lon="14.918113"><ele>865.6</ele><time>2026-03-29T15:16:32.729Z</time></trkpt><trkpt lat="38.1138153" lon="14.9180491"><ele>872.3999999999999</ele><time>2026-03-29T15:16:33.728Z</time></trkpt><trkpt lat="38.1138948" lon="14.9179846"><ele>879.1999999999999</ele><time>2026-03-29T15:16:34.729Z</time></trkpt><trkpt lat="38.1139664" lon="14.9179146"><ele>886.0</ele><time>2026-03-29T15:16:35.729Z</time></trkpt><trkpt lat="38.1140355" lon="14.9178229"><ele>885.5</ele><time>2026-03-29T15:16:36.728Z</time></trkpt><trkpt lat="38.1140992" lon="14.9177055"><ele>885.0</ele><time>2026-03-29T15:16:37.729Z</time></trkpt><trkpt lat="38.1141512" lon="14.9175663"><ele>884.5</ele><time>2026-03-29T15:16:38.729Z</time></trkpt><trkpt lat="38.1141908" lon="14.917415"><ele>884.0</ele><time>2026-03-29T15:16:39.729Z</time></trkpt><trkpt lat="38.1142166" lon="14.9172701"><ele>884.0</ele><time>2026-03-29T15:16:40.729Z</time></trkpt><trkpt lat="38.1142241" lon="14.9171464"><ele>884.0000000000001</ele><time>2026-03-29T15:16:41.728Z</time></trkpt><trkpt lat="38.1142156" lon="14.9170332"><ele>884.0000000000001</ele><time>2026-03-29T15:16:42.729Z</time></trkpt><trkpt lat="38.1141841" lon="14.9169311"><ele>884.0</ele><time>2026-03-29T15:16:43.728Z</time></trkpt><trkpt lat="38.1141246" lon="14.9168257"><ele>884.0</ele><time>2026-03-29T15:16:44.729Z</time></trkpt><trkpt lat="38.1140509" lon="14.9167127"><ele>892.0</ele><time>2026-03-29T15:16:45.729Z</time></trkpt><trkpt lat="38.1139892" lon="14.9165874"><ele>900.0000000000001</ele><time>2026-03-29T15:16:46.729Z</time></trkpt><trkpt lat="38.1139426" lon="14.9164638"><ele>908.0000000000001</ele><time>2026-03-29T15:16:47.729Z</time></trkpt><trkpt lat="38.1139175" lon="14.9163571"><ele>916.0</ele><time>2026-03-29T15:16:48.729Z</time></trkpt><trkpt lat="38.1139057" lon="14.9162654"><ele>924.0</ele><time>2026-03-29T15:16:49.728Z</time></trkpt><trkpt lat="38.1138783" lon="14.9161363"><ele>924.0</ele><time>2026-03-29T15:16:51.729Z</time></trkpt><trkpt lat="38.1138064" lon="14.9161244"><ele>924.0</ele><time>2026-03-29T15:16:53.729Z</time></trkpt><trkpt lat="38.1136935" lon="14.9162518"><ele>924.0</ele><time>2026-03-29T15:16:55.729Z</time></trkpt><trkpt lat="38.1136457" lon="14.916387"><ele>924.0</ele><time>2026-03-29T15:16:56.728Z</time></trkpt><trkpt lat="38.1136156" lon="14.9165685"><ele>922.0</ele><time>2026-03-29T15:16:57.728Z</time></trkpt><trkpt lat="38.1135892" lon="14.9167736"><ele>920.0</ele><time>2026-03-29T15:16:58.729Z</time></trkpt><trkpt lat="38.1135613" lon="14.9169554"><ele>918.0</ele><time>2026-03-29T15:16:59.729Z</time></trkpt><trkpt lat="38.1135151" lon="14.9171084"><ele>916.0</ele><time>2026-03-29T15:17:00.729Z</time></trkpt><trkpt lat="38.113447" lon="14.9172383"><ele>916.0</ele><time>2026-03-29T15:17:01.729Z</time></trkpt><trkpt lat="38.1133622" lon="14.9173557"><ele>916.0</ele><time>2026-03-29T15:17:02.728Z</time></trkpt><trkpt lat="38.113274" lon="14.9174523"><ele>916.0</ele><time>2026-03-29T15:17:03.729Z</time></trkpt><trkpt lat="38.113177" lon="14.9175261"><ele>916.0</ele><time>2026-03-29T15:17:04.729Z</time></trkpt><trkpt lat="38.1130675" lon="14.9175888"><ele>911.5</ele><time>2026-03-29T15:17:05.728Z</time></trkpt><trkpt lat="38.1129515" lon="14.9176658"><ele>907.0</ele><time>2026-03-29T15:17:06.729Z</time></trkpt><trkpt lat="38.1128366" lon="14.9177483"><ele>902.5</ele><time>2026-03-29T15:17:07.729Z</time></trkpt><trkpt lat="38.1127409" lon="14.917817"><ele>898.0</ele><time>2026-03-29T15:17:08.729Z</time></trkpt><trkpt lat="38.1126605" lon="14.9178595"><ele>897.9999999999999</ele><time>2026-03-29T15:17:09.729Z</time></trkpt><trkpt lat="38.1125862" lon="14.9178827"><ele>898.0</ele><time>2026-03-29T15:17:10.729Z</time></trkpt><trkpt lat="38.1125108" lon="14.9178924"><ele>898.0</ele><time>2026-03-29T15:17:11.728Z</time></trkpt><trkpt lat="38.1124364" lon="14.9178736"><ele>898.0</ele><time>2026-03-29T15:17:12.729Z</time></trkpt><trkpt lat="38.1123655" lon="14.9178281"><ele>897.9999999999999</ele><time>2026-03-29T15:17:13.729Z</time></trkpt><trkpt lat="38.1122971" lon="14.917759"><ele>898.0</ele><time>2026-03-29T15:17:14.73Z</time></trkpt><trkpt lat="38.1122272" lon="14.9176718"><ele>905.5</ele><time>2026-03-29T15:17:15.73Z</time></trkpt><trkpt lat="38.1121527" lon="14.9175575"><ele>913.0</ele><time>2026-03-29T15:17:16.729Z</time></trkpt><trkpt lat="38.1120811" lon="14.917434"><ele>920.5</ele><time>2026-03-29T15:17:17.73Z</time></trkpt><trkpt lat="38.1120115" lon="14.9173214"><ele>928.0</ele><time>2026-03-29T15:17:18.73Z</time></trkpt><trkpt lat="38.1119395" lon="14.9172257"><ele>928.0</ele><time>2026-03-29T15:17:19.73Z</time></trkpt><trkpt lat="38.1118625" lon="14.9171523"><ele>928.0</ele><time>2026-03-29T15:17:20.73Z</time></trkpt><trkpt lat="38.1117784" lon="14.9171003"><ele>928.0</ele><time>2026-03-29T15:17:21.729Z</time></trkpt><trkpt lat="38.1116854" lon="14.9170564"><ele>928.0</ele><time>2026-03-29T15:17:22.73Z</time></trkpt><trkpt lat="38.1116066" lon="14.9170177"><ele>928.0</ele><time>2026-03-29T15:17:23.73Z</time></trkpt><trkpt lat="38.1115284" lon="14.9170078"><ele>927.0</ele><time>2026-03-29T15:17:24.73Z</time></trkpt><trkpt lat="38.1114388" lon="14.917022"><ele>926.0</ele><time>2026-03-29T15:17:25.73Z</time></trkpt><trkpt lat="38.1113346" lon="14.9170505"><ele>925.0</ele><time>2026-03-29T15:17:26.73Z</time></trkpt><trkpt lat="38.1112256" lon="14.9170688"><ele>924.0</ele><time>2026-03-29T15:17:27.73Z</time></trkpt><trkpt lat="38.1111089" lon="14.9170746"><ele>923.0</ele><time>2026-03-29T15:17:28.729Z</time></trkpt><trkpt lat="38.1109842" lon="14.9170733"><ele>923.0</ele><time>2026-03-29T15:17:29.73Z</time></trkpt><trkpt lat="38.1108683" lon="14.9170655"><ele>923.0</ele><time>2026-03-29T15:17:30.729Z</time></trkpt><trkpt lat="38.1107659" lon="14.9170559"><ele>923.0</ele><time>2026-03-29T15:17:31.729Z</time></trkpt><trkpt lat="38.110675" lon="14.9170522"><ele>923.0</ele><time>2026-03-29T15:17:32.729Z</time></trkpt><trkpt lat="38.1106023" lon="14.9170327"><ele>923.0</ele><time>2026-03-29T15:17:33.73Z</time></trkpt><trkpt lat="38.1105346" lon="14.9170056"><ele>923.1666666666667</ele><time>2026-03-29T15:17:34.73Z</time></trkpt><trkpt lat="38.1104626" lon="14.9169875"><ele>923.3333333333334</ele><time>2026-03-29T15:17:35.729Z</time></trkpt><trkpt lat="38.1103866" lon="14.9169882"><ele>923.5</ele><time>2026-03-29T15:17:36.73Z</time></trkpt><trkpt lat="38.1103059" lon="14.916996"><ele>923.6666666666667</ele><time>2026-03-29T15:17:37.73Z</time></trkpt><trkpt lat="38.1102265" lon="14.9169983"><ele>923.8333333333334</ele><time>2026-03-29T15:17:38.729Z</time></trkpt><trkpt lat="38.1101521" lon="14.9169923"><ele>924.0</ele><time>2026-03-29T15:17:39.729Z</time></trkpt><trkpt lat="38.1100838" lon="14.916969"><ele>924.0</ele><time>2026-03-29T15:17:40.73Z</time></trkpt><trkpt lat="38.1100199" lon="14.9169232"><ele>924.0000000000001</ele><time>2026-03-29T15:17:41.73Z</time></trkpt><trkpt lat="38.1099598" lon="14.9168737"><ele>924.0000000000001</ele><time>2026-03-29T15:17:42.73Z</time></trkpt><trkpt lat="38.1098627" lon="14.9168159"><ele>924.0</ele><time>2026-03-29T15:17:44.729Z</time></trkpt><trkpt lat="38.109769" lon="14.91682"><ele>924.0</ele><time>2026-03-29T15:17:46.729Z</time></trkpt><trkpt lat="38.1096597" lon="14.9168243"><ele>926.1666666666666</ele><time>2026-03-29T15:17:48.73Z</time></trkpt><trkpt lat="38.1095902" lon="14.9168312"><ele>928.3333333333333</ele><time>2026-03-29T15:17:49.73Z</time></trkpt><trkpt lat="38.109513" lon="14.9168229"><ele>930.5</ele><time>2026-03-29T15:17:50.73Z</time></trkpt><trkpt lat="38.1094398" lon="14.9168036"><ele>932.6666666666666</ele><time>2026-03-29T15:17:51.73Z</time></trkpt><trkpt lat="38.1093768" lon="14.9167845"><ele>934.8333333333333</ele><time>2026-03-29T15:17:52.73Z</time></trkpt><trkpt lat="38.1092971" lon="14.9167857"><ele>937.0</ele><time>2026-03-29T15:17:54.729Z</time></trkpt><trkpt lat="38.109193" lon="14.916816"><ele>936.9999999999999</ele><time>2026-03-29T15:17:57.73Z</time></trkpt><trkpt lat="38.1091298" lon="14.9168432"><ele>937.0</ele><time>2026-03-29T15:17:58.73Z</time></trkpt><trkpt lat="38.1090567" lon="14.9168849"><ele>937.0</ele><time>2026-03-29T15:17:59.73Z</time></trkpt><trkpt lat="38.10898" lon="14.9169435"><ele>937.0</ele><time>2026-03-29T15:18:00.729Z</time></trkpt><trkpt lat="38.1089077" lon="14.9170037"><ele>936.9999999999999</ele><time>2026-03-29T15:18:01.729Z</time></trkpt><trkpt lat="38.1088409" lon="14.9170605"><ele>937.0</ele><time>2026-03-29T15:18:02.729Z</time></trkpt><trkpt lat="38.1087848" lon="14.9171066"><ele>939.4999999999999</ele><time>2026-03-29T15:18:03.73Z</time></trkpt><trkpt lat="38.1087077" lon="14.9171503"><ele>942.0</ele><time>2026-03-29T15:18:05.73Z</time></trkpt><trkpt lat="38.108647" lon="14.9171009"><ele>944.5</ele><time>2026-03-29T15:18:07.729Z</time></trkpt><trkpt lat="38.1086206" lon="14.9170111"><ele>947.0</ele><time>2026-03-29T15:19:23.73Z</time></trkpt><trkpt lat="38.1086155" lon="14.9169054"><ele>949.4999999999999</ele><time>2026-03-29T15:19:25.73Z</time></trkpt><trkpt lat="38.108609" lon="14.9168239"><ele>952.0</ele><time>2026-03-29T15:19:26.729Z</time></trkpt><trkpt lat="38.1085913" lon="14.9167214"><ele>956.6666666666666</ele><time>2026-03-29T15:19:27.73Z</time></trkpt><trkpt lat="38.1085555" lon="14.9166107"><ele>961.3333333333333</ele><time>2026-03-29T15:19:28.73Z</time></trkpt><trkpt lat="38.1085034" lon="14.9165199"><ele>966.0</ele><time>2026-03-29T15:19:29.73Z</time></trkpt><trkpt lat="38.108441" lon="14.9164545"><ele>970.6666666666667</ele><time>2026-03-29T15:19:30.73Z</time></trkpt><trkpt lat="38.1083638" lon="14.9164169"><ele>975.3333333333334</ele><time>2026-03-29T15:19:31.73Z</time></trkpt><trkpt lat="38.1082839" lon="14.9164159"><ele>980.0</ele><time>2026-03-29T15:19:32.729Z</time></trkpt><trkpt lat="38.1082073" lon="14.9164417"><ele>980.0000000000001</ele><time>2026-03-29T15:19:33.73Z</time></trkpt><trkpt lat="38.1081477" lon="14.9164957"><ele>980.0</ele><time>2026-03-29T15:19:34.729Z</time></trkpt><trkpt lat="38.1080695" lon="14.9165734"><ele>980.0</ele><time>2026-03-29T15:19:36.729Z</time></trkpt><trkpt lat="38.1081133" lon="14.916485"><ele>980.0</ele><time>2026-03-29T15:19:39.729Z</time></trkpt><trkpt lat="38.10817" lon="14.9164067"><ele>980.0000000000001</ele><time>2026-03-29T15:19:40.729Z</time></trkpt><trkpt lat="38.108245" lon="14.9163417"><ele>980.0</ele><time>2026-03-29T15:19:41.73Z</time></trkpt><trkpt lat="38.108335" lon="14.9163067"><ele>980.0</ele><time>2026-03-29T15:19:42.73Z</time></trkpt><trkpt lat="38.1084333" lon="14.9163017"><ele>980.0</ele><time>2026-03-29T15:19:43.729Z</time></trkpt><trkpt lat="38.1085417" lon="14.9163167"><ele>980.0</ele><time>2026-03-29T15:19:44.73Z</time></trkpt><trkpt lat="38.1086483" lon="14.916335"><ele>980.0</ele><time>2026-03-29T15:19:45.73Z</time></trkpt><trkpt lat="38.1087383" lon="14.9163667"><ele>980.0</ele><time>2026-03-29T15:19:46.73Z</time></trkpt><trkpt lat="38.1088117" lon="14.9164"><ele>980.0</ele><time>2026-03-29T15:19:47.73Z</time></trkpt><trkpt lat="38.1089317" lon="14.9164"><ele>980.0</ele><time>2026-03-29T15:19:49.73Z</time></trkpt><trkpt lat="38.1090083" lon="14.9163533"><ele>980.0</ele><time>2026-03-29T15:19:50.73Z</time></trkpt><trkpt lat="38.109085" lon="14.9162967"><ele>980.0</ele><time>2026-03-29T15:19:51.73Z</time></trkpt><trkpt lat="38.1091567" lon="14.9162583"><ele>980.0</ele><time>2026-03-29T15:19:52.729Z</time></trkpt><trkpt lat="38.10924" lon="14.916235"><ele>980.0</ele><time>2026-03-29T15:19:54.729Z</time></trkpt><trkpt lat="38.1091617" lon="14.916185"><ele>980.0</ele><time>2026-03-29T15:19:59.73Z</time></trkpt><trkpt lat="38.1090417" lon="14.916185"><ele>980.0</ele><time>2026-03-29T15:20:01.73Z</time></trkpt><trkpt lat="38.1089683" lon="14.9161917"><ele>980.0</ele><time>2026-03-29T15:20:02.73Z</time></trkpt><trkpt lat="38.1088317" lon="14.9161967"><ele>980.0</ele><time>2026-03-29T15:20:04.73Z</time></trkpt><trkpt lat="38.1087433" lon="14.9161783"><ele>980.0</ele><time>2026-03-29T15:20:05.73Z</time></trkpt><trkpt lat="38.10864" lon="14.9161367"><ele>980.0</ele><time>2026-03-29T15:20:06.73Z</time></trkpt><trkpt lat="38.1085333" lon="14.916085"><ele>980.0</ele><time>2026-03-29T15:20:07.729Z</time></trkpt><trkpt lat="38.1084333" lon="14.9160467"><ele>980.0</ele><time>2026-03-29T15:20:08.73Z</time></trkpt><trkpt lat="38.1083417" lon="14.916025"><ele>980.0</ele><time>2026-03-29T15:20:09.73Z</time></trkpt><trkpt lat="38.108255" lon="14.9160217"><ele>983.3333333333334</ele><time>2026-03-29T15:20:10.729Z</time></trkpt><trkpt lat="38.1081833" lon="14.91602"><ele>986.6666666666667</ele><time>2026-03-29T15:20:11.73Z</time></trkpt><trkpt lat="38.108065" lon="14.9160167"><ele>990.0</ele><time>2026-03-29T15:20:13.73Z</time></trkpt><trkpt lat="38.1079933" lon="14.9160033"><ele>993.3333333333333</ele><time>2026-03-29T15:20:14.729Z</time></trkpt><trkpt lat="38.10793" lon="14.9159867"><ele>996.6666666666666</ele><time>2026-03-29T15:20:15.73Z</time></trkpt><trkpt lat="38.1078367" lon="14.91596"><ele>1000.0</ele><time>2026-03-29T15:20:17.729Z</time></trkpt><trkpt lat="38.1079283" lon="14.9158817"><ele>1000.0</ele><time>2026-03-29T15:20:20.73Z</time></trkpt><trkpt lat="38.1079917" lon="14.91586"><ele>1000.0</ele><time>2026-03-29T15:20:21.729Z</time></trkpt><trkpt lat="38.1080533" lon="14.9158333"><ele>1000.0</ele><time>2026-03-29T15:20:22.73Z</time></trkpt><trkpt lat="38.1081267" lon="14.915795"><ele>1000.0</ele><time>2026-03-29T15:20:23.729Z</time></trkpt><trkpt lat="38.108205" lon="14.91575"><ele>1000.0</ele><time>2026-03-29T15:20:24.729Z</time></trkpt><trkpt lat="38.1082717" lon="14.9157133"><ele>1000.0</ele><time>2026-03-29T15:20:25.73Z</time></trkpt><trkpt lat="38.1083283" lon="14.9156767"><ele>1000.0</ele><time>2026-03-29T15:20:26.73Z</time></trkpt><trkpt lat="38.1083883" lon="14.9156433"><ele>999.9999999999999</ele><time>2026-03-29T15:20:27.73Z</time></trkpt><trkpt lat="38.1084617" lon="14.9156217"><ele>1000.0</ele><time>2026-03-29T15:20:28.73Z</time></trkpt><trkpt lat="38.1085367" lon="14.91559"><ele>1000.0</ele><time>2026-03-29T15:20:29.729Z</time></trkpt><trkpt lat="38.108615" lon="14.9155583"><ele>1000.0</ele><time>2026-03-29T15:20:30.73Z</time></trkpt><trkpt lat="38.1086933" lon="14.9155283"><ele>999.9999999999999</ele><time>2026-03-29T15:20:31.73Z</time></trkpt><trkpt lat="38.1087633" lon="14.9154933"><ele>1000.0</ele><time>2026-03-29T15:20:32.73Z</time></trkpt><trkpt lat="38.1088283" lon="14.91545"><ele>1000.0</ele><time>2026-03-29T15:20:33.73Z</time></trkpt><trkpt lat="38.10889" lon="14.9154033"><ele>1000.0</ele><time>2026-03-29T15:20:34.73Z</time></trkpt><trkpt lat="38.1089483" lon="14.9153517"><ele>1000.0</ele><time>2026-03-29T15:20:35.73Z</time></trkpt><trkpt lat="38.1089917" lon="14.9152933"><ele>1000.0</ele><time>2026-03-29T15:20:36.729Z</time></trkpt><trkpt lat="38.10903" lon="14.9152283"><ele>1000.0</ele><time>2026-03-29T15:20:37.73Z</time></trkpt><trkpt lat="38.1090667" lon="14.91515"><ele>1000.0</ele><time>2026-03-29T15:20:38.73Z</time></trkpt><trkpt lat="38.1091033" lon="14.9150617"><ele>1000.0</ele><time>2026-03-29T15:20:39.729Z</time></trkpt><trkpt lat="38.10914" lon="14.9149583"><ele>999.9999999999999</ele><time>2026-03-29T15:20:40.73Z</time></trkpt><trkpt lat="38.1091733" lon="14.9148633"><ele>1000.0</ele><time>2026-03-29T15:20:41.729Z</time></trkpt><trkpt lat="38.1092067" lon="14.91478"><ele>1000.0</ele><time>2026-03-29T15:20:42.73Z</time></trkpt><trkpt lat="38.10926" lon="14.9146567"><ele>1000.0</ele><time>2026-03-29T15:20:44.73Z</time></trkpt><trkpt lat="38.1093017" lon="14.914575"><ele>999.9999999999999</ele><time>2026-03-29T15:20:46.73Z</time></trkpt><trkpt lat="38.109355" lon="14.9144733"><ele>1000.0</ele><time>2026-03-29T15:20:48.73Z</time></trkpt><trkpt lat="38.1094017" lon="14.9143583"><ele>999.9999999999999</ele><time>2026-03-29T15:20:50.729Z</time></trkpt><trkpt lat="38.1094217" lon="14.91424"><ele>1000.0</ele><time>2026-03-29T15:20:52.73Z</time></trkpt><trkpt lat="38.1094067" lon="14.9141417"><ele>1000.0</ele><time>2026-03-29T15:20:54.73Z</time></trkpt><trkpt lat="38.109395" lon="14.9140333"><ele>1000.0</ele><time>2026-03-29T15:20:57.73Z</time></trkpt><trkpt lat="38.1093833" lon="14.91393"><ele>999.9999999999999</ele><time>2026-03-29T15:21:11.73Z</time></trkpt><trkpt lat="38.1093817" lon="14.9138267"><ele>1000.0</ele><time>2026-03-29T15:21:13.73Z</time></trkpt><trkpt lat="38.1094017" lon="14.913715"><ele>999.4999999999999</ele><time>2026-03-29T15:21:15.729Z</time></trkpt><trkpt lat="38.1094317" lon="14.9136317"><ele>999.0</ele><time>2026-03-29T15:21:17.73Z</time></trkpt><trkpt lat="38.1094567" lon="14.9135233"><ele>998.5</ele><time>2026-03-29T15:21:20.73Z</time></trkpt><trkpt lat="38.10948" lon="14.9134333"><ele>998.0</ele><time>2026-03-29T15:21:22.73Z</time></trkpt><trkpt lat="38.109505" lon="14.9133383"><ele>997.4999999999999</ele><time>2026-03-29T15:21:25.73Z</time></trkpt><trkpt lat="38.1095167" lon="14.913245"><ele>997.0</ele><time>2026-03-29T15:21:28.73Z</time></trkpt><trkpt lat="38.109525" lon="14.9131433"><ele>994.4999999999999</ele><time>2026-03-29T15:21:31.729Z</time></trkpt><trkpt lat="38.1095567" lon="14.913025"><ele>992.0</ele><time>2026-03-29T15:21:34.729Z</time></trkpt><trkpt lat="38.1095883" lon="14.91293"><ele>989.5</ele><time>2026-03-29T15:21:36.729Z</time></trkpt><trkpt lat="38.10962" lon="14.9128333"><ele>987.0</ele><time>2026-03-29T15:21:38.729Z</time></trkpt><trkpt lat="38.1096067" lon="14.9127417"><ele>984.4999999999999</ele><time>2026-03-29T15:21:41.729Z</time></trkpt><trkpt lat="38.10957" lon="14.912675"><ele>982.0</ele><time>2026-03-29T15:21:44.73Z</time></trkpt><trkpt lat="38.1095233" lon="14.9125967"><ele>979.6666666666666</ele><time>2026-03-29T15:21:47.729Z</time></trkpt><trkpt lat="38.1095" lon="14.9125167"><ele>977.3333333333333</ele><time>2026-03-29T15:21:51.73Z</time></trkpt><trkpt lat="38.1095783" lon="14.9124367"><ele>975.0</ele><time>2026-03-29T15:21:54.73Z</time></trkpt><trkpt lat="38.1096367" lon="14.9123883"><ele>972.6666666666667</ele><time>2026-03-29T15:21:57.73Z</time></trkpt><trkpt lat="38.1097017" lon="14.9123233"><ele>970.3333333333334</ele><time>2026-03-29T15:22:14.731Z</time></trkpt><trkpt lat="38.1097483" lon="14.9122367"><ele>968.0</ele><time>2026-03-29T15:22:18.731Z</time></trkpt><trkpt lat="38.1097907" lon="14.9121771"><ele>968.0</ele><time>2026-03-29T15:22:21.731Z</time></trkpt><trkpt lat="38.1098322" lon="14.9121125"><ele>967.9999999999999</ele><time>2026-03-29T15:22:25.73Z</time></trkpt><trkpt lat="38.1098818" lon="14.9120511"><ele>968.0</ele><time>2026-03-29T15:22:29.73Z</time></trkpt><trkpt lat="38.1099218" lon="14.9119801"><ele>968.0</ele><time>2026-03-29T15:22:50.73Z</time></trkpt><trkpt lat="38.1099683" lon="14.9119051"><ele>967.9999999999999</ele><time>2026-03-29T15:22:53.731Z</time></trkpt><trkpt lat="38.1100149" lon="14.9118297"><ele>968.0</ele><time>2026-03-29T15:22:56.731Z</time></trkpt><trkpt lat="38.1100553" lon="14.9117559"><ele>968.0</ele><time>2026-03-29T15:22:58.731Z</time></trkpt><trkpt lat="38.1101016" lon="14.9116684"><ele>966.8333333333334</ele><time>2026-03-29T15:23:01.731Z</time></trkpt><trkpt lat="38.1101457" lon="14.9115685"><ele>965.6666666666667</ele><time>2026-03-29T15:23:04.731Z</time></trkpt><trkpt lat="38.1101765" lon="14.9114923"><ele>964.5</ele><time>2026-03-29T15:23:07.73Z</time></trkpt><trkpt lat="38.1102082" lon="14.9114181"><ele>963.3333333333333</ele><time>2026-03-29T15:23:16.73Z</time></trkpt><trkpt lat="38.110266" lon="14.9113078"><ele>962.1666666666666</ele><time>2026-03-29T15:23:18.731Z</time></trkpt><trkpt lat="38.1103229" lon="14.9112013"><ele>961.0</ele><time>2026-03-29T15:23:20.73Z</time></trkpt><trkpt lat="38.1103746" lon="14.9111104"><ele>961.0</ele><time>2026-03-29T15:23:22.731Z</time></trkpt><trkpt lat="38.1104608" lon="14.9110406"><ele>960.9999999999999</ele><time>2026-03-29T15:23:24.731Z</time></trkpt><trkpt lat="38.1105462" lon="14.9109925"><ele>960.9999999999999</ele><time>2026-03-29T15:23:26.731Z</time></trkpt><trkpt lat="38.1106441" lon="14.9109512"><ele>961.0</ele><time>2026-03-29T15:23:28.73Z</time></trkpt><trkpt lat="38.110725" lon="14.9109305"><ele>961.0</ele><time>2026-03-29T15:23:30.731Z</time></trkpt><trkpt lat="38.110792" lon="14.9108664"><ele>958.8571428571428</ele><time>2026-03-29T15:23:33.73Z</time></trkpt><trkpt lat="38.1108314" lon="14.9107986"><ele>956.7142857142856</ele><time>2026-03-29T15:23:35.731Z</time></trkpt><trkpt lat="38.1108825" lon="14.910723"><ele>954.5714285714286</ele><time>2026-03-29T15:23:37.73Z</time></trkpt><trkpt lat="38.1109333" lon="14.91064"><ele>952.4285714285713</ele><time>2026-03-29T15:23:40.731Z</time></trkpt><trkpt lat="38.110975" lon="14.9105733"><ele>950.2857142857142</ele><time>2026-03-29T15:23:42.73Z</time></trkpt><trkpt lat="38.1110183" lon="14.9104967"><ele>948.1428571428571</ele><time>2026-03-29T15:23:44.731Z</time></trkpt><trkpt lat="38.1110683" lon="14.9104217"><ele>946.0</ele><time>2026-03-29T15:23:46.73Z</time></trkpt><trkpt lat="38.1111133" lon="14.9103567"><ele>946.0</ele><time>2026-03-29T15:23:48.73Z</time></trkpt><trkpt lat="38.1111567" lon="14.910295"><ele>945.9999999999999</ele><time>2026-03-29T15:23:50.731Z</time></trkpt><trkpt lat="38.11124" lon="14.9101917"><ele>945.9999999999999</ele><time>2026-03-29T15:23:52.731Z</time></trkpt><trkpt lat="38.1113133" lon="14.9101033"><ele>946.0</ele><time>2026-03-29T15:23:54.73Z</time></trkpt><trkpt lat="38.1113767" lon="14.91003"><ele>946.0</ele><time>2026-03-29T15:23:56.731Z</time></trkpt><trkpt lat="38.1114483" lon="14.90996"><ele>943.3333333333333</ele><time>2026-03-29T15:23:59.731Z</time></trkpt><trkpt lat="38.1115033" lon="14.9098983"><ele>940.6666666666666</ele><time>2026-03-29T15:24:01.731Z</time></trkpt><trkpt lat="38.111565" lon="14.9098333"><ele>938.0</ele><time>2026-03-29T15:24:03.73Z</time></trkpt><trkpt lat="38.11162" lon="14.909775"><ele>935.3333333333333</ele><time>2026-03-29T15:24:05.73Z</time></trkpt><trkpt lat="38.1116883" lon="14.9097133"><ele>932.6666666666666</ele><time>2026-03-29T15:24:08.731Z</time></trkpt><trkpt lat="38.11175" lon="14.9096467"><ele>930.0</ele><time>2026-03-29T15:24:11.731Z</time></trkpt><trkpt lat="38.111805" lon="14.9095733"><ele>930.0</ele><time>2026-03-29T15:24:14.73Z</time></trkpt><trkpt lat="38.11186" lon="14.9095033"><ele>930.0</ele><time>2026-03-29T15:24:17.73Z</time></trkpt><trkpt lat="38.1119083" lon="14.9094417"><ele>930.0</ele><time>2026-03-29T15:24:19.731Z</time></trkpt><trkpt lat="38.111985" lon="14.909385"><ele>930.0</ele><time>2026-03-29T15:24:21.731Z</time></trkpt><trkpt lat="38.1121" lon="14.9093283"><ele>930.0</ele><time>2026-03-29T15:24:23.731Z</time></trkpt><trkpt lat="38.1121633" lon="14.9093067"><ele>930.0</ele><time>2026-03-29T15:24:24.731Z</time></trkpt><trkpt lat="38.1122833" lon="14.9092933"><ele>930.0</ele><time>2026-03-29T15:24:26.731Z</time></trkpt><trkpt lat="38.1123467" lon="14.90929"><ele>930.0</ele><time>2026-03-29T15:24:27.731Z</time></trkpt><trkpt lat="38.1124283" lon="14.9092867"><ele>930.0</ele><time>2026-03-29T15:24:29.731Z</time></trkpt><trkpt lat="38.1125" lon="14.90928"><ele>930.0</ele><time>2026-03-29T15:24:31.731Z</time></trkpt><trkpt lat="38.1125617" lon="14.9092517"><ele>930.0</ele><time>2026-03-29T15:24:33.73Z</time></trkpt><trkpt lat="38.11264" lon="14.9092333"><ele>930.0</ele><time>2026-03-29T15:24:35.731Z</time></trkpt><trkpt lat="38.1127083" lon="14.909215"><ele>930.0</ele><time>2026-03-29T15:24:36.73Z</time></trkpt><trkpt lat="38.1128033" lon="14.909195"><ele>925.2</ele><time>2026-03-29T15:24:37.731Z</time></trkpt><trkpt lat="38.11292" lon="14.90917"><ele>920.4</ele><time>2026-03-29T15:24:38.731Z</time></trkpt><trkpt lat="38.11304" lon="14.90914"><ele>915.5999999999999</ele><time>2026-03-29T15:24:39.731Z</time></trkpt><trkpt lat="38.1131333" lon="14.909105"><ele>910.8</ele><time>2026-03-29T15:24:40.731Z</time></trkpt><trkpt lat="38.1132117" lon="14.9090767"><ele>906.0</ele><time>2026-03-29T15:24:41.73Z</time></trkpt><trkpt lat="38.1132883" lon="14.9090417"><ele>905.8</ele><time>2026-03-29T15:24:42.731Z</time></trkpt><trkpt lat="38.11338" lon="14.9090017"><ele>905.5999999999999</ele><time>2026-03-29T15:24:43.73Z</time></trkpt><trkpt lat="38.113485" lon="14.908965"><ele>905.4</ele><time>2026-03-29T15:24:44.731Z</time></trkpt><trkpt lat="38.1135883" lon="14.9089033"><ele>905.2</ele><time>2026-03-29T15:24:45.731Z</time></trkpt><trkpt lat="38.1136817" lon="14.9088317"><ele>905.0</ele><time>2026-03-29T15:24:46.73Z</time></trkpt><trkpt lat="38.113775" lon="14.9087533"><ele>905.0</ele><time>2026-03-29T15:24:47.731Z</time></trkpt><trkpt lat="38.1138667" lon="14.9086683"><ele>905.0</ele><time>2026-03-29T15:24:48.73Z</time></trkpt><trkpt lat="38.1139433" lon="14.9085817"><ele>905.0</ele><time>2026-03-29T15:24:49.73Z</time></trkpt><trkpt lat="38.1140017" lon="14.9085067"><ele>905.0</ele><time>2026-03-29T15:24:50.731Z</time></trkpt><trkpt lat="38.1140683" lon="14.908435"><ele>905.0</ele><time>2026-03-29T15:24:51.731Z</time></trkpt><trkpt lat="38.1141317" lon="14.9083533"><ele>905.6666666666667</ele><time>2026-03-29T15:24:52.73Z</time></trkpt><trkpt lat="38.1142033" lon="14.9082733"><ele>906.3333333333334</ele><time>2026-03-29T15:24:53.731Z</time></trkpt><trkpt lat="38.1142633" lon="14.9081967"><ele>907.0</ele><time>2026-03-29T15:24:54.731Z</time></trkpt><trkpt lat="38.114325" lon="14.9081233"><ele>907.6666666666667</ele><time>2026-03-29T15:24:55.73Z</time></trkpt><trkpt lat="38.1143833" lon="14.9080683"><ele>908.3333333333334</ele><time>2026-03-29T15:24:56.73Z</time></trkpt><trkpt lat="38.1144417" lon="14.9080267"><ele>909.0</ele><time>2026-03-29T15:24:57.73Z</time></trkpt><trkpt lat="38.1145083" lon="14.9079917"><ele>909.0</ele><time>2026-03-29T15:24:58.731Z</time></trkpt><trkpt lat="38.1145933" lon="14.9079717"><ele>909.0</ele><time>2026-03-29T15:24:59.73Z</time></trkpt><trkpt lat="38.1146883" lon="14.9079633"><ele>909.0</ele><time>2026-03-29T15:25:00.731Z</time></trkpt><trkpt lat="38.1147767" lon="14.90796"><ele>909.0</ele><time>2026-03-29T15:25:01.731Z</time></trkpt><trkpt lat="38.114865" lon="14.907955"><ele>909.0</ele><time>2026-03-29T15:25:02.731Z</time></trkpt><trkpt lat="38.114935" lon="14.9079533"><ele>909.0</ele><time>2026-03-29T15:25:03.731Z</time></trkpt><trkpt lat="38.115" lon="14.90795"><ele>908.1666666666666</ele><time>2026-03-29T15:25:04.731Z</time></trkpt><trkpt lat="38.1150633" lon="14.9079667"><ele>907.3333333333333</ele><time>2026-03-29T15:25:05.731Z</time></trkpt><trkpt lat="38.11519" lon="14.90799"><ele>906.5</ele><time>2026-03-29T15:25:07.73Z</time></trkpt><trkpt lat="38.1152533" lon="14.9079983"><ele>905.6666666666666</ele><time>2026-03-29T15:25:08.731Z</time></trkpt><trkpt lat="38.1153183" lon="14.9080067"><ele>904.8333333333333</ele><time>2026-03-29T15:25:09.731Z</time></trkpt><trkpt lat="38.1154217" lon="14.9080033"><ele>904.0</ele><time>2026-03-29T15:25:11.731Z</time></trkpt><trkpt lat="38.1155033" lon="14.907955"><ele>904.0</ele><time>2026-03-29T15:25:13.731Z</time></trkpt><trkpt lat="38.11558" lon="14.907925"><ele>904.0000000000001</ele><time>2026-03-29T15:25:15.731Z</time></trkpt><trkpt lat="38.115645" lon="14.9078583"><ele>904.0000000000001</ele><time>2026-03-29T15:25:46.731Z</time></trkpt><trkpt lat="38.115755" lon="14.9077867"><ele>904.0</ele><time>2026-03-29T15:25:48.73Z</time></trkpt><trkpt lat="38.1158517" lon="14.907735"><ele>904.0</ele><time>2026-03-29T15:25:49.731Z</time></trkpt><trkpt lat="38.1159467" lon="14.9076767"><ele>901.0</ele><time>2026-03-29T15:25:50.731Z</time></trkpt><trkpt lat="38.1160483" lon="14.907605"><ele>898.0</ele><time>2026-03-29T15:25:51.731Z</time></trkpt><trkpt lat="38.1161617" lon="14.9075367"><ele>895.0</ele><time>2026-03-29T15:25:52.731Z</time></trkpt><trkpt lat="38.1162717" lon="14.9074783"><ele>892.0</ele><time>2026-03-29T15:25:53.731Z</time></trkpt><trkpt lat="38.11637" lon="14.9074233"><ele>891.9999999999999</ele><time>2026-03-29T15:25:54.731Z</time></trkpt><trkpt lat="38.116435" lon="14.9073483"><ele>892.0</ele><time>2026-03-29T15:25:55.73Z</time></trkpt><trkpt lat="38.116485" lon="14.9072817"><ele>892.0</ele><time>2026-03-29T15:25:56.731Z</time></trkpt><trkpt lat="38.1165217" lon="14.9072067"><ele>892.0</ele><time>2026-03-29T15:25:57.731Z</time></trkpt><trkpt lat="38.116565" lon="14.907145"><ele>891.9999999999999</ele><time>2026-03-29T15:25:58.731Z</time></trkpt><trkpt lat="38.11663" lon="14.90708"><ele>892.0</ele><time>2026-03-29T15:25:59.731Z</time></trkpt><trkpt lat="38.1167083" lon="14.9070233"><ele>892.6</ele><time>2026-03-29T15:26:00.73Z</time></trkpt><trkpt lat="38.1167783" lon="14.9069717"><ele>893.2</ele><time>2026-03-29T15:26:01.731Z</time></trkpt><trkpt lat="38.116835" lon="14.9069183"><ele>893.8</ele><time>2026-03-29T15:26:02.731Z</time></trkpt><trkpt lat="38.1169433" lon="14.9068233"><ele>894.4</ele><time>2026-03-29T15:26:04.731Z</time></trkpt><trkpt lat="38.11705" lon="14.906755"><ele>895.0</ele><time>2026-03-29T15:26:06.73Z</time></trkpt><trkpt lat="38.1171733" lon="14.9067267"><ele>895.0</ele><time>2026-03-29T15:26:08.731Z</time></trkpt><trkpt lat="38.117295" lon="14.9067233"><ele>895.0</ele><time>2026-03-29T15:26:10.731Z</time></trkpt><trkpt lat="38.1174033" lon="14.906705"><ele>895.0</ele><time>2026-03-29T15:26:12.731Z</time></trkpt><trkpt lat="38.1174983" lon="14.9067"><ele>895.0</ele><time>2026-03-29T15:26:14.731Z</time></trkpt><trkpt lat="38.11757" lon="14.906705"><ele>895.0</ele><time>2026-03-29T15:26:16.731Z</time></trkpt><trkpt lat="38.11766" lon="14.9066983"><ele>894.1666666666666</ele><time>2026-03-29T15:26:18.731Z</time></trkpt><trkpt lat="38.1177283" lon="14.9066783"><ele>893.3333333333333</ele><time>2026-03-29T15:26:19.73Z</time></trkpt><trkpt lat="38.1178083" lon="14.9066533"><ele>892.5</ele><time>2026-03-29T15:26:20.731Z</time></trkpt><trkpt lat="38.1178767" lon="14.9066333"><ele>891.6666666666667</ele><time>2026-03-29T15:26:21.73Z</time></trkpt><trkpt lat="38.1179767" lon="14.9066"><ele>890.8333333333334</ele><time>2026-03-29T15:26:23.731Z</time></trkpt><trkpt lat="38.1180317" lon="14.906545"><ele>890.0</ele><time>2026-03-29T15:26:25.731Z</time></trkpt><trkpt lat="38.1179633" lon="14.9065783"><ele>890.0000000000001</ele><time>2026-03-29T15:26:28.73Z</time></trkpt><trkpt lat="38.117905" lon="14.9066417"><ele>890.0</ele><time>2026-03-29T15:26:29.73Z</time></trkpt><trkpt lat="38.1178283" lon="14.9066983"><ele>890.0</ele><time>2026-03-29T15:26:30.731Z</time></trkpt><trkpt lat="38.1177483" lon="14.9067517"><ele>890.0</ele><time>2026-03-29T15:26:31.732Z</time></trkpt><trkpt lat="38.117685" lon="14.9067867"><ele>890.0000000000001</ele><time>2026-03-29T15:26:32.732Z</time></trkpt><trkpt lat="38.1176183" lon="14.9068483"><ele>890.0</ele><time>2026-03-29T15:26:34.731Z</time></trkpt><trkpt lat="38.1176817" lon="14.9068733"><ele>890.0</ele><time>2026-03-29T15:26:38.732Z</time></trkpt><trkpt lat="38.1177617" lon="14.9068417"><ele>890.0</ele><time>2026-03-29T15:26:41.732Z</time></trkpt><trkpt lat="38.1178383" lon="14.906815"><ele>890.0</ele><time>2026-03-29T15:26:43.731Z</time></trkpt><trkpt lat="38.117935" lon="14.9067933"><ele>890.0</ele><time>2026-03-29T15:26:45.732Z</time></trkpt><trkpt lat="38.1180383" lon="14.9067583"><ele>890.0</ele><time>2026-03-29T15:26:47.731Z</time></trkpt><trkpt lat="38.1181533" lon="14.90671"><ele>890.0</ele><time>2026-03-29T15:26:49.732Z</time></trkpt><trkpt lat="38.1182133" lon="14.9066767"><ele>890.0</ele><time>2026-03-29T15:26:50.732Z</time></trkpt><trkpt lat="38.1183183" lon="14.9066033"><ele>890.0</ele><time>2026-03-29T15:26:52.732Z</time></trkpt><trkpt lat="38.118425" lon="14.90654"><ele>890.0</ele><time>2026-03-29T15:26:54.732Z</time></trkpt><trkpt lat="38.1185267" lon="14.90651"><ele>890.0</ele><time>2026-03-29T15:26:56.732Z</time></trkpt><trkpt lat="38.1186367" lon="14.9064917"><ele>886.6</ele><time>2026-03-29T15:26:58.732Z</time></trkpt><trkpt lat="38.118755" lon="14.906445"><ele>883.2</ele><time>2026-03-29T15:27:00.732Z</time></trkpt><trkpt lat="38.1188117" lon="14.906405"><ele>879.8</ele><time>2026-03-29T15:27:01.731Z</time></trkpt><trkpt lat="38.1188667" lon="14.90636"><ele>876.4</ele><time>2026-03-29T15:27:02.732Z</time></trkpt><trkpt lat="38.1189567" lon="14.90626"><ele>873.0</ele><time>2026-03-29T15:27:04.732Z</time></trkpt><trkpt lat="38.1190317" lon="14.9061267"><ele>873.0</ele><time>2026-03-29T15:27:06.732Z</time></trkpt><trkpt lat="38.1190617" lon="14.9060533"><ele>873.0</ele><time>2026-03-29T15:27:07.731Z</time></trkpt><trkpt lat="38.1191083" lon="14.9059033"><ele>873.0</ele><time>2026-03-29T15:27:09.732Z</time></trkpt><trkpt lat="38.1191167" lon="14.9057483"><ele>873.0</ele><time>2026-03-29T15:27:11.731Z</time></trkpt><trkpt lat="38.1190933" lon="14.9055933"><ele>873.0</ele><time>2026-03-29T15:27:13.732Z</time></trkpt><trkpt lat="38.1190283" lon="14.9054533"><ele>873.8571428571428</ele><time>2026-03-29T15:27:15.731Z</time></trkpt><trkpt lat="38.1189867" lon="14.905385"><ele>874.7142857142857</ele><time>2026-03-29T15:27:16.732Z</time></trkpt><trkpt lat="38.11895" lon="14.905315"><ele>875.5714285714286</ele><time>2026-03-29T15:27:17.732Z</time></trkpt><trkpt lat="38.11891" lon="14.9052433"><ele>876.4285714285713</ele><time>2026-03-29T15:27:18.732Z</time></trkpt><trkpt lat="38.1188717" lon="14.9051733"><ele>877.2857142857143</ele><time>2026-03-29T15:27:19.732Z</time></trkpt><trkpt lat="38.1188283" lon="14.9051033"><ele>878.1428571428571</ele><time>2026-03-29T15:27:20.731Z</time></trkpt><trkpt lat="38.118775" lon="14.905035"><ele>879.0</ele><time>2026-03-29T15:27:21.732Z</time></trkpt><trkpt lat="38.1187183" lon="14.9049733"><ele>875.5</ele><time>2026-03-29T15:27:22.732Z</time></trkpt><trkpt lat="38.118665" lon="14.9049167"><ele>872.0</ele><time>2026-03-29T15:27:23.732Z</time></trkpt><trkpt lat="38.1186117" lon="14.90486"><ele>868.5</ele><time>2026-03-29T15:27:24.731Z</time></trkpt><trkpt lat="38.118555" lon="14.9048067"><ele>865.0</ele><time>2026-03-29T15:27:25.731Z</time></trkpt><trkpt lat="38.118495" lon="14.90477"><ele>861.5</ele><time>2026-03-29T15:27:26.732Z</time></trkpt><trkpt lat="38.1184033" lon="14.9047383"><ele>858.0</ele><time>2026-03-29T15:27:28.731Z</time></trkpt><trkpt lat="38.1184683" lon="14.9046617"><ele>858.0</ele><time>2026-03-29T15:27:32.731Z</time></trkpt><trkpt lat="38.1185767" lon="14.9046983"><ele>858.0</ele><time>2026-03-29T15:27:34.732Z</time></trkpt><trkpt lat="38.118705" lon="14.9047583"><ele>858.0</ele><time>2026-03-29T15:27:36.732Z</time></trkpt><trkpt lat="38.1187783" lon="14.9047967"><ele>858.0</ele><time>2026-03-29T15:27:37.732Z</time></trkpt><trkpt lat="38.1188583" lon="14.9048433"><ele>858.0</ele><time>2026-03-29T15:27:38.732Z</time></trkpt><trkpt lat="38.11893" lon="14.9048883"><ele>858.0</ele><time>2026-03-29T15:27:39.731Z</time></trkpt><trkpt lat="38.1189917" lon="14.9049317"><ele>858.0</ele><time>2026-03-29T15:27:40.732Z</time></trkpt><trkpt lat="38.1190583" lon="14.9049683"><ele>858.0</ele><time>2026-03-29T15:27:41.732Z</time></trkpt><trkpt lat="38.1191267" lon="14.905005"><ele>858.0</ele><time>2026-03-29T15:27:42.732Z</time></trkpt><trkpt lat="38.119195" lon="14.9050317"><ele>858.0</ele><time>2026-03-29T15:27:43.731Z</time></trkpt><trkpt lat="38.1192717" lon="14.9050483"><ele>858.0</ele><time>2026-03-29T15:27:44.732Z</time></trkpt><trkpt lat="38.119345" lon="14.905035"><ele>858.0</ele><time>2026-03-29T15:27:45.732Z</time></trkpt><trkpt lat="38.1194133" lon="14.905"><ele>856.8333333333334</ele><time>2026-03-29T15:27:46.732Z</time></trkpt><trkpt lat="38.11948" lon="14.9049567"><ele>855.6666666666667</ele><time>2026-03-29T15:27:47.732Z</time></trkpt><trkpt lat="38.1195433" lon="14.9049083"><ele>854.5</ele><time>2026-03-29T15:27:48.732Z</time></trkpt><trkpt lat="38.1196017" lon="14.9048683"><ele>853.3333333333334</ele><time>2026-03-29T15:27:49.732Z</time></trkpt><trkpt lat="38.1197133" lon="14.9048017"><ele>852.1666666666667</ele><time>2026-03-29T15:27:51.732Z</time></trkpt><trkpt lat="38.1197767" lon="14.9047733"><ele>851.0</ele><time>2026-03-29T15:27:52.732Z</time></trkpt><trkpt lat="38.1198467" lon="14.9047433"><ele>848.8333333333334</ele><time>2026-03-29T15:27:53.732Z</time></trkpt><trkpt lat="38.1199133" lon="14.9047183"><ele>846.6666666666667</ele><time>2026-03-29T15:27:54.732Z</time></trkpt><trkpt lat="38.11998" lon="14.904675"><ele>844.5</ele><time>2026-03-29T15:27:55.732Z</time></trkpt><trkpt lat="38.120045" lon="14.9046217"><ele>842.3333333333333</ele><time>2026-03-29T15:27:56.732Z</time></trkpt><trkpt lat="38.1201083" lon="14.9045683"><ele>840.1666666666666</ele><time>2026-03-29T15:27:57.732Z</time></trkpt><trkpt lat="38.1201733" lon="14.9045083"><ele>838.0</ele><time>2026-03-29T15:27:58.732Z</time></trkpt><trkpt lat="38.1202417" lon="14.90445"><ele>837.9999999999999</ele><time>2026-03-29T15:27:59.732Z</time></trkpt><trkpt lat="38.1203083" lon="14.904395"><ele>838.0</ele><time>2026-03-29T15:28:00.732Z</time></trkpt><trkpt lat="38.1203717" lon="14.904335"><ele>838.0</ele><time>2026-03-29T15:28:01.732Z</time></trkpt><trkpt lat="38.12044" lon="14.90428"><ele>838.0</ele><time>2026-03-29T15:28:02.732Z</time></trkpt><trkpt lat="38.120505" lon="14.9042267"><ele>837.9999999999999</ele><time>2026-03-29T15:28:03.732Z</time></trkpt><trkpt lat="38.1205683" lon="14.90417"><ele>838.0</ele><time>2026-03-29T15:28:04.732Z</time></trkpt><trkpt lat="38.1206317" lon="14.904105"><ele>837.6666666666666</ele><time>2026-03-29T15:28:05.731Z</time></trkpt><trkpt lat="38.1206817" lon="14.9040217"><ele>837.3333333333333</ele><time>2026-03-29T15:28:06.731Z</time></trkpt><trkpt lat="38.1207233" lon="14.90394"><ele>837.0</ele><time>2026-03-29T15:28:07.731Z</time></trkpt><trkpt lat="38.1207633" lon="14.90385"><ele>836.6666666666667</ele><time>2026-03-29T15:28:08.732Z</time></trkpt><trkpt lat="38.1208033" lon="14.9037633"><ele>836.3333333333334</ele><time>2026-03-29T15:28:09.732Z</time></trkpt><trkpt lat="38.1208483" lon="14.9036867"><ele>836.0</ele><time>2026-03-29T15:28:10.732Z</time></trkpt><trkpt lat="38.120895" lon="14.9036083"><ele>836.0</ele><time>2026-03-29T15:28:11.732Z</time></trkpt><trkpt lat="38.120945" lon="14.9035467"><ele>836.0</ele><time>2026-03-29T15:28:12.732Z</time></trkpt><trkpt lat="38.1209917" lon="14.9034917"><ele>836.0</ele><time>2026-03-29T15:28:13.731Z</time></trkpt><trkpt lat="38.12105" lon="14.903445"><ele>836.0</ele><time>2026-03-29T15:28:14.732Z</time></trkpt><trkpt lat="38.12111" lon="14.9033967"><ele>836.0</ele><time>2026-03-29T15:28:15.732Z</time></trkpt><trkpt lat="38.12118" lon="14.903345"><ele>836.0</ele><time>2026-03-29T15:28:16.732Z</time></trkpt><trkpt lat="38.1212483" lon="14.9032867"><ele>836.0</ele><time>2026-03-29T15:28:17.732Z</time></trkpt><trkpt lat="38.1213183" lon="14.9032167"><ele>833.1666666666667</ele><time>2026-03-29T15:28:18.732Z</time></trkpt><trkpt lat="38.1213867" lon="14.90316"><ele>830.3333333333334</ele><time>2026-03-29T15:28:19.731Z</time></trkpt><trkpt lat="38.12145" lon="14.903095"><ele>827.5</ele><time>2026-03-29T15:28:20.732Z</time></trkpt><trkpt lat="38.1215133" lon="14.903035"><ele>824.6666666666667</ele><time>2026-03-29T15:28:21.732Z</time></trkpt><trkpt lat="38.1215733" lon="14.9029667"><ele>821.8333333333334</ele><time>2026-03-29T15:28:22.732Z</time></trkpt><trkpt lat="38.1216383" lon="14.9028983"><ele>819.0</ele><time>2026-03-29T15:28:23.732Z</time></trkpt><trkpt lat="38.1217033" lon="14.90283"><ele>819.0</ele><time>2026-03-29T15:28:24.732Z</time></trkpt><trkpt lat="38.1217617" lon="14.9027783"><ele>819.0</ele><time>2026-03-29T15:28:25.732Z</time></trkpt><trkpt lat="38.1218183" lon="14.9027383"><ele>819.0</ele><time>2026-03-29T15:28:26.732Z</time></trkpt><trkpt lat="38.1219333" lon="14.90269"><ele>819.0</ele><time>2026-03-29T15:28:28.731Z</time></trkpt><trkpt lat="38.122055" lon="14.902695"><ele>819.0</ele><time>2026-03-29T15:28:30.732Z</time></trkpt><trkpt lat="38.12217" lon="14.9026583"><ele>814.6666666666666</ele><time>2026-03-29T15:28:32.731Z</time></trkpt><trkpt lat="38.12226" lon="14.9025533"><ele>810.3333333333333</ele><time>2026-03-29T15:28:34.732Z</time></trkpt><trkpt lat="38.12231" lon="14.9024817"><ele>806.0</ele><time>2026-03-29T15:28:35.732Z</time></trkpt><trkpt lat="38.1223517" lon="14.9024033"><ele>801.6666666666666</ele><time>2026-03-29T15:28:36.732Z</time></trkpt><trkpt lat="38.1223983" lon="14.9023283"><ele>797.3333333333333</ele><time>2026-03-29T15:28:37.732Z</time></trkpt><trkpt lat="38.1224517" lon="14.9022667"><ele>793.0</ele><time>2026-03-29T15:28:38.731Z</time></trkpt><trkpt lat="38.1225067" lon="14.90222"><ele>792.4999999999999</ele><time>2026-03-29T15:28:39.732Z</time></trkpt><trkpt lat="38.1225583" lon="14.9021733"><ele>792.0</ele><time>2026-03-29T15:28:40.732Z</time></trkpt><trkpt lat="38.122645" lon="14.9021033"><ele>791.5</ele><time>2026-03-29T15:28:42.732Z</time></trkpt><trkpt lat="38.1227083" lon="14.902035"><ele>791.0</ele><time>2026-03-29T15:28:44.732Z</time></trkpt><trkpt lat="38.122775" lon="14.9019633"><ele>790.4999999999999</ele><time>2026-03-29T15:28:46.732Z</time></trkpt><trkpt lat="38.1228133" lon="14.9018833"><ele>790.0</ele><time>2026-03-29T15:28:48.732Z</time></trkpt><trkpt lat="38.122845" lon="14.9017967"><ele>788.6</ele><time>2026-03-29T15:28:50.731Z</time></trkpt><trkpt lat="38.1228883" lon="14.9016833"><ele>787.2</ele><time>2026-03-29T15:28:52.732Z</time></trkpt><trkpt lat="38.1229467" lon="14.9015633"><ele>785.8</ele><time>2026-03-29T15:28:54.731Z</time></trkpt><trkpt lat="38.1230033" lon="14.9014517"><ele>784.4</ele><time>2026-03-29T15:28:56.732Z</time></trkpt><trkpt lat="38.1230583" lon="14.9013467"><ele>783.0</ele><time>2026-03-29T15:28:58.731Z</time></trkpt><trkpt lat="38.12311" lon="14.9012283"><ele>783.0</ele><time>2026-03-29T15:29:00.732Z</time></trkpt><trkpt lat="38.123185" lon="14.9011167"><ele>783.0</ele><time>2026-03-29T15:29:02.731Z</time></trkpt><trkpt lat="38.1232583" lon="14.9010067"><ele>783.0</ele><time>2026-03-29T15:29:04.731Z</time></trkpt><trkpt lat="38.1233533" lon="14.9008867"><ele>783.0</ele><time>2026-03-29T15:29:06.731Z</time></trkpt><trkpt lat="38.1234" lon="14.9008283"><ele>783.0</ele><time>2026-03-29T15:29:07.732Z</time></trkpt><trkpt lat="38.1234567" lon="14.900765"><ele>782.3333333333334</ele><time>2026-03-29T15:29:08.732Z</time></trkpt><trkpt lat="38.123505" lon="14.9007067"><ele>781.6666666666667</ele><time>2026-03-29T15:29:09.731Z</time></trkpt><trkpt lat="38.1235367" lon="14.900635"><ele>781.0</ele><time>2026-03-29T15:29:10.731Z</time></trkpt><trkpt lat="38.12358" lon="14.9005267"><ele>780.3333333333334</ele><time>2026-03-29T15:29:12.731Z</time></trkpt><trkpt lat="38.12362" lon="14.90046"><ele>779.6666666666667</ele><time>2026-03-29T15:29:13.731Z</time></trkpt><trkpt lat="38.1236683" lon="14.9004"><ele>779.0</ele><time>2026-03-29T15:29:14.731Z</time></trkpt><trkpt lat="38.1237533" lon="14.900295"><ele>779.0000000000001</ele><time>2026-03-29T15:29:16.731Z</time></trkpt><trkpt lat="38.1238" lon="14.90024"><ele>779.0</ele><time>2026-03-29T15:29:17.732Z</time></trkpt><trkpt lat="38.1238467" lon="14.9001783"><ele>779.0</ele><time>2026-03-29T15:29:18.732Z</time></trkpt><trkpt lat="38.1238933" lon="14.9001167"><ele>779.0</ele><time>2026-03-29T15:29:19.732Z</time></trkpt><trkpt lat="38.123935" lon="14.9000517"><ele>779.0</ele><time>2026-03-29T15:29:20.732Z</time></trkpt><trkpt lat="38.12397" lon="14.8999833"><ele>779.0000000000001</ele><time>2026-03-29T15:29:21.732Z</time></trkpt><trkpt lat="38.1239933" lon="14.8999067"><ele>779.0</ele><time>2026-03-29T15:29:22.732Z</time></trkpt><trkpt lat="38.124015" lon="14.8998283"><ele>779.0</ele><time>2026-03-29T15:29:23.731Z</time></trkpt><trkpt lat="38.12403" lon="14.8997117"><ele>779.0</ele><time>2026-03-29T15:29:25.731Z</time></trkpt><trkpt lat="38.1240267" lon="14.899595"><ele>779.0</ele><time>2026-03-29T15:29:27.732Z</time></trkpt><trkpt lat="38.123995" lon="14.8994333"><ele>779.0</ele><time>2026-03-29T15:29:29.732Z</time></trkpt><trkpt lat="38.1239833" lon="14.8993383"><ele>779.0</ele><time>2026-03-29T15:29:30.731Z</time></trkpt><trkpt lat="38.123965" lon="14.89926"><ele>774.6</ele><time>2026-03-29T15:29:31.732Z</time></trkpt><trkpt lat="38.1239183" lon="14.8991567"><ele>770.2</ele><time>2026-03-29T15:29:33.731Z</time></trkpt><trkpt lat="38.1239967" lon="14.8990917"><ele>765.8000000000001</ele><time>2026-03-29T15:29:37.732Z</time></trkpt><trkpt lat="38.12408" lon="14.8990117"><ele>761.4000000000001</ele><time>2026-03-29T15:29:39.732Z</time></trkpt><trkpt lat="38.1241217" lon="14.89895"><ele>757.0</ele><time>2026-03-29T15:29:40.732Z</time></trkpt><trkpt lat="38.124205" lon="14.8988633"><ele>756.1666666666667</ele><time>2026-03-29T15:29:42.732Z</time></trkpt><trkpt lat="38.1243033" lon="14.8988483"><ele>755.3333333333334</ele><time>2026-03-29T15:29:44.732Z</time></trkpt><trkpt lat="38.1243917" lon="14.898885"><ele>754.5</ele><time>2026-03-29T15:29:46.732Z</time></trkpt><trkpt lat="38.1244617" lon="14.8989167"><ele>753.6666666666666</ele><time>2026-03-29T15:29:48.731Z</time></trkpt><trkpt lat="38.1245333" lon="14.8989033"><ele>752.8333333333333</ele><time>2026-03-29T15:29:50.732Z</time></trkpt><trkpt lat="38.1246117" lon="14.8988567"><ele>752.0</ele><time>2026-03-29T15:29:52.732Z</time></trkpt><trkpt lat="38.12469" lon="14.89883"><ele>752.0</ele><time>2026-03-29T15:29:54.732Z</time></trkpt><trkpt lat="38.1247817" lon="14.898835"><ele>752.0</ele><time>2026-03-29T15:29:56.731Z</time></trkpt><trkpt lat="38.1248683" lon="14.8988717"><ele>752.0</ele><time>2026-03-29T15:29:58.732Z</time></trkpt><trkpt lat="38.12495" lon="14.8988983"><ele>752.0</ele><time>2026-03-29T15:30:00.732Z</time></trkpt><trkpt lat="38.125055" lon="14.8989033"><ele>752.0</ele><time>2026-03-29T15:30:02.732Z</time></trkpt><trkpt lat="38.1251683" lon="14.898875"><ele>750.5</ele><time>2026-03-29T15:30:04.731Z</time></trkpt><trkpt lat="38.1252583" lon="14.89886"><ele>749.0</ele><time>2026-03-29T15:30:06.732Z</time></trkpt><trkpt lat="38.125345" lon="14.8988267"><ele>747.5</ele><time>2026-03-29T15:30:08.731Z</time></trkpt><trkpt lat="38.1254117" lon="14.8988683"><ele>746.0</ele><time>2026-03-29T15:30:11.732Z</time></trkpt><trkpt lat="38.1254017" lon="14.8989767"><ele>744.5</ele><time>2026-03-29T15:30:13.731Z</time></trkpt><trkpt lat="38.1253617" lon="14.89904"><ele>743.0</ele><time>2026-03-29T15:30:14.732Z</time></trkpt><trkpt lat="38.1253" lon="14.8991017"><ele>743.0</ele><time>2026-03-29T15:30:15.731Z</time></trkpt><trkpt lat="38.125235" lon="14.8991617"><ele>743.0</ele><time>2026-03-29T15:30:16.731Z</time></trkpt><trkpt lat="38.1251717" lon="14.89922"><ele>743.0</ele><time>2026-03-29T15:30:17.732Z</time></trkpt><trkpt lat="38.1251233" lon="14.8992767"><ele>743.0</ele><time>2026-03-29T15:30:18.732Z</time></trkpt><trkpt lat="38.1250633" lon="14.8994033"><ele>743.0</ele><time>2026-03-29T15:30:20.732Z</time></trkpt><trkpt lat="38.12504" lon="14.8994783"><ele>743.0</ele><time>2026-03-29T15:30:21.732Z</time></trkpt><trkpt lat="38.1250317" lon="14.8996383"><ele>741.0</ele><time>2026-03-29T15:30:23.732Z</time></trkpt><trkpt lat="38.1250033" lon="14.899765"><ele>739.0</ele><time>2026-03-29T15:30:25.731Z</time></trkpt><trkpt lat="38.1249733" lon="14.8998633"><ele>737.0</ele><time>2026-03-29T15:30:27.732Z</time></trkpt><trkpt lat="38.124965" lon="14.8999433"><ele>735.0</ele><time>2026-03-29T15:30:29.732Z</time></trkpt><trkpt lat="38.1249667" lon="14.9000567"><ele>733.0</ele><time>2026-03-29T15:30:32.731Z</time></trkpt><trkpt lat="38.1249517" lon="14.90015"><ele>731.0</ele><time>2026-03-29T15:30:34.731Z</time></trkpt><trkpt lat="38.1249217" lon="14.9002383"><ele>731.8333333333333</ele><time>2026-03-29T15:30:36.731Z</time></trkpt><trkpt lat="38.124915" lon="14.9003317"><ele>732.6666666666666</ele><time>2026-03-29T15:30:40.732Z</time></trkpt><trkpt lat="38.1249133" lon="14.9004367"><ele>733.5</ele><time>2026-03-29T15:30:43.732Z</time></trkpt><trkpt lat="38.12489" lon="14.9005133"><ele>734.3333333333334</ele><time>2026-03-29T15:30:47.732Z</time></trkpt><trkpt lat="38.1248833" lon="14.9006317"><ele>735.1666666666667</ele><time>2026-03-29T15:31:08.733Z</time></trkpt><trkpt lat="38.124835" lon="14.9007083"><ele>736.0</ele><time>2026-03-29T15:31:12.732Z</time></trkpt><trkpt lat="38.1247817" lon="14.90079"><ele>736.0</ele><time>2026-03-29T15:31:16.733Z</time></trkpt><trkpt lat="38.1247217" lon="14.90084"><ele>736.0</ele><time>2026-03-29T15:31:19.733Z</time></trkpt><trkpt lat="38.1246867" lon="14.90092"><ele>736.0</ele><time>2026-03-29T15:31:23.732Z</time></trkpt><trkpt lat="38.1246967" lon="14.9010167"><ele>736.0</ele><time>2026-03-29T15:31:26.733Z</time></trkpt><trkpt lat="38.1247033" lon="14.9011"><ele>736.0</ele><time>2026-03-29T15:31:35.733Z</time></trkpt><trkpt lat="38.1247467" lon="14.9011933"><ele>736.0</ele><time>2026-03-29T15:31:38.733Z</time></trkpt><trkpt lat="38.12477" lon="14.9012767"><ele>736.0</ele><time>2026-03-29T15:31:42.733Z</time></trkpt><trkpt lat="38.12483" lon="14.9013467"><ele>728.2857142857143</ele><time>2026-03-29T15:31:46.733Z</time></trkpt><trkpt lat="38.1248983" lon="14.9013917"><ele>720.5714285714286</ele><time>2026-03-29T15:31:49.732Z</time></trkpt><trkpt lat="38.1249583" lon="14.9014267"><ele>712.8571428571429</ele><time>2026-03-29T15:31:52.733Z</time></trkpt><trkpt lat="38.125035" lon="14.9014367"><ele>705.1428571428571</ele><time>2026-03-29T15:31:59.733Z</time></trkpt><trkpt lat="38.1250467" lon="14.9015217"><ele>697.4285714285714</ele><time>2026-03-29T15:32:03.733Z</time></trkpt><trkpt lat="38.1250167" lon="14.9016117"><ele>689.7142857142857</ele><time>2026-03-29T15:32:08.733Z</time></trkpt><trkpt lat="38.1249883" lon="14.9016933"><ele>682.0</ele><time>2026-03-29T15:32:12.733Z</time></trkpt><trkpt lat="38.1249483" lon="14.9017633"><ele>683.5</ele><time>2026-03-29T15:32:14.733Z</time></trkpt><trkpt lat="38.124895" lon="14.9018533"><ele>685.0</ele><time>2026-03-29T15:32:16.733Z</time></trkpt><trkpt lat="38.1248483" lon="14.90194"><ele>686.5</ele><time>2026-03-29T15:32:18.733Z</time></trkpt><trkpt lat="38.1248333" lon="14.902065"><ele>688.0</ele><time>2026-03-29T15:32:21.733Z</time></trkpt><trkpt lat="38.1248583" lon="14.9021483"><ele>689.5</ele><time>2026-03-29T15:32:23.732Z</time></trkpt><trkpt lat="38.1249167" lon="14.90218"><ele>691.0</ele><time>2026-03-29T15:32:25.733Z</time></trkpt><trkpt lat="38.125" lon="14.9022383"><ele>685.6666666666667</ele><time>2026-03-29T15:32:28.733Z</time></trkpt><trkpt lat="38.1250433" lon="14.9023417"><ele>680.3333333333334</ele><time>2026-03-29T15:32:30.733Z</time></trkpt><trkpt lat="38.1250883" lon="14.9024117"><ele>675.0</ele><time>2026-03-29T15:32:32.733Z</time></trkpt><trkpt lat="38.12514" lon="14.90247"><ele>669.6666666666666</ele><time>2026-03-29T15:32:34.733Z</time></trkpt><trkpt lat="38.1251933" lon="14.9025267"><ele>664.3333333333333</ele><time>2026-03-29T15:32:36.733Z</time></trkpt><trkpt lat="38.125265" lon="14.90259"><ele>659.0</ele><time>2026-03-29T15:32:39.732Z</time></trkpt><trkpt lat="38.125325" lon="14.9026583"><ele>654.3333333333333</ele><time>2026-03-29T15:32:41.733Z</time></trkpt><trkpt lat="38.125375" lon="14.902715"><ele>649.6666666666666</ele><time>2026-03-29T15:32:43.732Z</time></trkpt><trkpt lat="38.12544" lon="14.9027883"><ele>645.0</ele><time>2026-03-29T15:32:46.732Z</time></trkpt><trkpt lat="38.1254933" lon="14.9028683"><ele>640.3333333333334</ele><time>2026-03-29T15:32:49.733Z</time></trkpt><trkpt lat="38.1255433" lon="14.9029733"><ele>635.6666666666667</ele><time>2026-03-29T15:32:52.733Z</time></trkpt><trkpt lat="38.125595" lon="14.9030717"><ele>631.0</ele><time>2026-03-29T15:32:55.733Z</time></trkpt><trkpt lat="38.125635" lon="14.903155"><ele>631.0</ele><time>2026-03-29T15:32:58.733Z</time></trkpt><trkpt lat="38.1256683" lon="14.9032317"><ele>631.0</ele><time>2026-03-29T15:33:00.732Z</time></trkpt><trkpt lat="38.1257167" lon="14.9033017"><ele>631.0</ele><time>2026-03-29T15:33:02.733Z</time></trkpt><trkpt lat="38.1257667" lon="14.90336"><ele>631.0</ele><time>2026-03-29T15:33:04.732Z</time></trkpt><trkpt lat="38.1258217" lon="14.903455"><ele>631.0</ele><time>2026-03-29T15:33:07.733Z</time></trkpt><trkpt lat="38.1259033" lon="14.9034317"><ele>631.0</ele><time>2026-03-29T15:33:11.733Z</time></trkpt><trkpt lat="38.125955" lon="14.9033217"><ele>628.6</ele><time>2026-03-29T15:33:13.733Z</time></trkpt><trkpt lat="38.1260333" lon="14.9031983"><ele>626.2</ele><time>2026-03-29T15:33:15.733Z</time></trkpt><trkpt lat="38.12611" lon="14.9030867"><ele>623.8</ele><time>2026-03-29T15:33:17.733Z</time></trkpt><trkpt lat="38.12615" lon="14.9030233"><ele>621.4</ele><time>2026-03-29T15:33:18.732Z</time></trkpt><trkpt lat="38.126205" lon="14.902955"><ele>619.0</ele><time>2026-03-29T15:33:20.732Z</time></trkpt><trkpt lat="38.126265" lon="14.90287"><ele>619.0</ele><time>2026-03-29T15:33:23.733Z</time></trkpt><trkpt lat="38.1262783" lon="14.90277"><ele>619.0</ele><time>2026-03-29T15:33:25.733Z</time></trkpt><trkpt lat="38.1262483" lon="14.90268"><ele>619.0</ele><time>2026-03-29T15:33:27.733Z</time></trkpt><trkpt lat="38.12619" lon="14.902565"><ele>619.0</ele><time>2026-03-29T15:33:29.733Z</time></trkpt><trkpt lat="38.12614" lon="14.9024533"><ele>619.0</ele><time>2026-03-29T15:33:31.733Z</time></trkpt><trkpt lat="38.1260883" lon="14.9023633"><ele>621.4</ele><time>2026-03-29T15:33:33.732Z</time></trkpt><trkpt lat="38.126025" lon="14.9022617"><ele>623.8</ele><time>2026-03-29T15:33:35.733Z</time></trkpt><trkpt lat="38.1259767" lon="14.90214"><ele>626.2</ele><time>2026-03-29T15:33:37.732Z</time></trkpt><trkpt lat="38.1259283" lon="14.9020333"><ele>628.6</ele><time>2026-03-29T15:33:39.733Z</time></trkpt><trkpt lat="38.1259883" lon="14.9020033"><ele>631.0</ele><time>2026-03-29T15:33:43.733Z</time></trkpt><trkpt lat="38.1260633" lon="14.9021117"><ele>631.0</ele><time>2026-03-29T15:33:45.732Z</time></trkpt><trkpt lat="38.1261133" lon="14.9021683"><ele>631.0</ele><time>2026-03-29T15:33:46.733Z</time></trkpt><trkpt lat="38.1261917" lon="14.9022533"><ele>631.0</ele><time>2026-03-29T15:33:48.733Z</time></trkpt><trkpt lat="38.1262767" lon="14.902325"><ele>631.0</ele><time>2026-03-29T15:33:50.733Z</time></trkpt><trkpt lat="38.12635" lon="14.9024067"><ele>631.0</ele><time>2026-03-29T15:33:52.733Z</time></trkpt><trkpt lat="38.12639" lon="14.90252"><ele>628.6</ele><time>2026-03-29T15:33:54.733Z</time></trkpt><trkpt lat="38.1264617" lon="14.9025833"><ele>626.2</ele><time>2026-03-29T15:33:56.733Z</time></trkpt><trkpt lat="38.1265183" lon="14.90269"><ele>623.8</ele><time>2026-03-29T15:33:58.732Z</time></trkpt><trkpt lat="38.12654" lon="14.9027983"><ele>621.4</ele><time>2026-03-29T15:34:00.733Z</time></trkpt><trkpt lat="38.126605" lon="14.9028933"><ele>619.0</ele><time>2026-03-29T15:34:02.733Z</time></trkpt><trkpt lat="38.1266817" lon="14.9029767"><ele>613.0</ele><time>2026-03-29T15:34:04.732Z</time></trkpt><trkpt lat="38.12675" lon="14.9030467"><ele>607.0</ele><time>2026-03-29T15:34:06.733Z</time></trkpt><trkpt lat="38.1267817" lon="14.9031467"><ele>601.0</ele><time>2026-03-29T15:34:08.733Z</time></trkpt><trkpt lat="38.1267817" lon="14.9032383"><ele>595.0</ele><time>2026-03-29T15:34:10.733Z</time></trkpt><trkpt lat="38.1267667" lon="14.9033217"><ele>589.0</ele><time>2026-03-29T15:34:12.732Z</time></trkpt><trkpt lat="38.1267333" lon="14.9034133"><ele>583.0</ele><time>2026-03-29T15:34:14.732Z</time></trkpt><trkpt lat="38.126715" lon="14.9034933"><ele>580.8333333333334</ele><time>2026-03-29T15:34:16.733Z</time></trkpt><trkpt lat="38.12672" lon="14.903575"><ele>578.6666666666667</ele><time>2026-03-29T15:34:18.732Z</time></trkpt><trkpt lat="38.1267467" lon="14.9036983"><ele>576.5</ele><time>2026-03-29T15:34:20.732Z</time></trkpt><trkpt lat="38.1267883" lon="14.9038133"><ele>574.3333333333334</ele><time>2026-03-29T15:34:22.732Z</time></trkpt><trkpt lat="38.126805" lon="14.9039317"><ele>572.1666666666666</ele><time>2026-03-29T15:34:24.733Z</time></trkpt><trkpt lat="38.1268" lon="14.9040167"><ele>570.0</ele><time>2026-03-29T15:34:25.732Z</time></trkpt><trkpt lat="38.1268" lon="14.9041033"><ele>570.0</ele><time>2026-03-29T15:34:26.732Z</time></trkpt><trkpt lat="38.1268" lon="14.904185"><ele>570.0</ele><time>2026-03-29T15:34:27.732Z</time></trkpt><trkpt lat="38.1267933" lon="14.904265"><ele>570.0</ele><time>2026-03-29T15:34:28.733Z</time></trkpt><trkpt lat="38.12678" lon="14.9044"><ele>570.0</ele><time>2026-03-29T15:34:30.732Z</time></trkpt><trkpt lat="38.1267867" lon="14.904505"><ele>570.0</ele><time>2026-03-29T15:34:32.733Z</time></trkpt><trkpt lat="38.1268517" lon="14.9044717"><ele>570.0</ele><time>2026-03-29T15:34:35.732Z</time></trkpt><trkpt lat="38.1268767" lon="14.9043633"><ele>570.0</ele><time>2026-03-29T15:34:37.733Z</time></trkpt><trkpt lat="38.1268867" lon="14.9042633"><ele>570.0</ele><time>2026-03-29T15:34:39.733Z</time></trkpt><trkpt lat="38.1269217" lon="14.9041667"><ele>570.0</ele><time>2026-03-29T15:34:41.733Z</time></trkpt><trkpt lat="38.12696" lon="14.9040633"><ele>570.0</ele><time>2026-03-29T15:34:43.732Z</time></trkpt><trkpt lat="38.127005" lon="14.9039733"><ele>570.0</ele><time>2026-03-29T15:34:45.733Z</time></trkpt><trkpt lat="38.1270717" lon="14.903885"><ele>570.0</ele><time>2026-03-29T15:34:47.732Z</time></trkpt><trkpt lat="38.1271033" lon="14.9037867"><ele>570.0</ele><time>2026-03-29T15:34:49.733Z</time></trkpt><trkpt lat="38.1270783" lon="14.9036667"><ele>570.0</ele><time>2026-03-29T15:34:51.733Z</time></trkpt><trkpt lat="38.12708" lon="14.903555"><ele>570.0</ele><time>2026-03-29T15:34:53.733Z</time></trkpt><trkpt lat="38.12712" lon="14.9034917"><ele>570.0</ele><time>2026-03-29T15:34:55.734Z</time></trkpt><trkpt lat="38.127205" lon="14.903445"><ele>570.0</ele><time>2026-03-29T15:34:57.734Z</time></trkpt><trkpt lat="38.127295" lon="14.903395"><ele>570.0</ele><time>2026-03-29T15:34:59.734Z</time></trkpt><trkpt lat="38.127375" lon="14.903355"><ele>572.1666666666666</ele><time>2026-03-29T15:35:01.733Z</time></trkpt><trkpt lat="38.1274167" lon="14.90327"><ele>574.3333333333334</ele><time>2026-03-29T15:35:03.733Z</time></trkpt><trkpt lat="38.1274017" lon="14.9031817"><ele>576.5</ele><time>2026-03-29T15:35:05.733Z</time></trkpt><trkpt lat="38.1273617" lon="14.9031117"><ele>578.6666666666667</ele><time>2026-03-29T15:35:07.734Z</time></trkpt><trkpt lat="38.12731" lon="14.90303"><ele>580.8333333333334</ele><time>2026-03-29T15:35:09.734Z</time></trkpt><trkpt lat="38.127265" lon="14.9029217"><ele>583.0</ele><time>2026-03-29T15:35:11.734Z</time></trkpt><trkpt lat="38.127245" lon="14.902825"><ele>583.0</ele><time>2026-03-29T15:35:13.734Z</time></trkpt><trkpt lat="38.1272233" lon="14.90273"><ele>583.0</ele><time>2026-03-29T15:35:15.734Z</time></trkpt><trkpt lat="38.1272" lon="14.9026333"><ele>583.0</ele><time>2026-03-29T15:35:17.734Z</time></trkpt><trkpt lat="38.1272117" lon="14.9025217"><ele>583.0</ele><time>2026-03-29T15:35:20.733Z</time></trkpt><trkpt lat="38.1272183" lon="14.9024317"><ele>583.0</ele><time>2026-03-29T15:35:22.734Z</time></trkpt><trkpt lat="38.127235" lon="14.9023217"><ele>583.0</ele><time>2026-03-29T15:35:25.734Z</time></trkpt><trkpt lat="38.1272933" lon="14.9022533"><ele>581.6666666666667</ele><time>2026-03-29T15:35:28.733Z</time></trkpt><trkpt lat="38.127375" lon="14.9022267"><ele>580.3333333333334</ele><time>2026-03-29T15:35:31.733Z</time></trkpt><trkpt lat="38.12745" lon="14.902265"><ele>579.0</ele><time>2026-03-29T15:35:34.733Z</time></trkpt><trkpt lat="38.1274683" lon="14.9023617"><ele>577.6666666666666</ele><time>2026-03-29T15:35:38.734Z</time></trkpt><trkpt lat="38.12745" lon="14.9024583"><ele>576.3333333333333</ele><time>2026-03-29T15:35:41.734Z</time></trkpt><trkpt lat="38.1274483" lon="14.9025633"><ele>575.0</ele><time>2026-03-29T15:35:44.734Z</time></trkpt><trkpt lat="38.1274817" lon="14.90265"><ele>566.8571428571429</ele><time>2026-03-29T15:35:47.733Z</time></trkpt><trkpt lat="38.1275033" lon="14.9027333"><ele>558.7142857142857</ele><time>2026-03-29T15:35:50.733Z</time></trkpt><trkpt lat="38.12755" lon="14.9028283"><ele>550.5714285714286</ele><time>2026-03-29T15:35:53.734Z</time></trkpt><trkpt lat="38.1276" lon="14.9028783"><ele>542.4285714285714</ele><time>2026-03-29T15:35:56.733Z</time></trkpt><trkpt lat="38.1276417" lon="14.90294"><ele>534.2857142857142</ele><time>2026-03-29T15:35:58.734Z</time></trkpt><trkpt lat="38.127685" lon="14.9030117"><ele>526.1428571428571</ele><time>2026-03-29T15:36:00.734Z</time></trkpt><trkpt lat="38.1277317" lon="14.9030883"><ele>518.0</ele><time>2026-03-29T15:36:02.734Z</time></trkpt><trkpt lat="38.1277767" lon="14.90316"><ele>518.0</ele><time>2026-03-29T15:36:04.734Z</time></trkpt><trkpt lat="38.12783" lon="14.90324"><ele>518.0</ele><time>2026-03-29T15:36:07.733Z</time></trkpt><trkpt lat="38.12787" lon="14.90331"><ele>518.0</ele><time>2026-03-29T15:36:09.734Z</time></trkpt><trkpt lat="38.1279067" lon="14.903405"><ele>518.0</ele><time>2026-03-29T15:36:11.733Z</time></trkpt><trkpt lat="38.1279367" lon="14.90349"><ele>518.0</ele><time>2026-03-29T15:36:13.734Z</time></trkpt><trkpt lat="38.1279683" lon="14.903595"><ele>518.0</ele><time>2026-03-29T15:36:16.734Z</time></trkpt><trkpt lat="38.1280067" lon="14.9036767"><ele>516.8333333333333</ele><time>2026-03-29T15:36:18.734Z</time></trkpt><trkpt lat="38.1280367" lon="14.90376"><ele>515.6666666666666</ele><time>2026-03-29T15:36:20.734Z</time></trkpt><trkpt lat="38.128005" lon="14.9038333"><ele>514.5</ele><time>2026-03-29T15:36:22.734Z</time></trkpt><trkpt lat="38.127956" lon="14.9039005"><ele>513.3333333333334</ele><time>2026-03-29T15:36:24.734Z</time></trkpt><trkpt lat="38.1279048" lon="14.9040001"><ele>512.1666666666667</ele><time>2026-03-29T15:36:26.734Z</time></trkpt><trkpt lat="38.1278896" lon="14.9040889"><ele>511.0</ele><time>2026-03-29T15:36:28.733Z</time></trkpt><trkpt lat="38.1278825" lon="14.9041845"><ele>508.00000000000006</ele><time>2026-03-29T15:36:32.733Z</time></trkpt><trkpt lat="38.1278716" lon="14.9042929"><ele>505.0</ele><time>2026-03-29T15:36:35.734Z</time></trkpt><trkpt lat="38.1278527" lon="14.9043916"><ele>502.0</ele><time>2026-03-29T15:36:37.734Z</time></trkpt><trkpt lat="38.1278315" lon="14.9044791"><ele>499.0</ele><time>2026-03-29T15:36:39.734Z</time></trkpt><trkpt lat="38.1278103" lon="14.9046002"><ele>496.00000000000006</ele><time>2026-03-29T15:36:41.734Z</time></trkpt><trkpt lat="38.1278217" lon="14.904715"><ele>493.0</ele><time>2026-03-29T15:36:43.733Z</time></trkpt><trkpt lat="38.12784" lon="14.9047983"><ele>493.00000000000006</ele><time>2026-03-29T15:36:45.734Z</time></trkpt><trkpt lat="38.1278583" lon="14.9048783"><ele>493.0</ele><time>2026-03-29T15:36:47.734Z</time></trkpt><trkpt lat="38.127885" lon="14.9050033"><ele>493.0</ele><time>2026-03-29T15:36:49.733Z</time></trkpt><trkpt lat="38.1279017" lon="14.9051033"><ele>493.0</ele><time>2026-03-29T15:36:51.733Z</time></trkpt><trkpt lat="38.1279783" lon="14.90515"><ele>493.00000000000006</ele><time>2026-03-29T15:36:54.734Z</time></trkpt><trkpt lat="38.12805" lon="14.9050933"><ele>493.0</ele><time>2026-03-29T15:36:56.734Z</time></trkpt><trkpt lat="38.1281233" lon="14.9050033"><ele>493.00000000000006</ele><time>2026-03-29T15:36:58.733Z</time></trkpt><trkpt lat="38.128185" lon="14.9049217"><ele>493.0</ele><time>2026-03-29T15:37:00.734Z</time></trkpt><trkpt lat="38.12822" lon="14.9048333"><ele>493.0</ele><time>2026-03-29T15:37:02.733Z</time></trkpt><trkpt lat="38.1282533" lon="14.9047517"><ele>493.0</ele><time>2026-03-29T15:37:04.734Z</time></trkpt><trkpt lat="38.1282933" lon="14.9046617"><ele>493.00000000000006</ele><time>2026-03-29T15:37:06.734Z</time></trkpt><trkpt lat="38.1283333" lon="14.9045667"><ele>493.0</ele><time>2026-03-29T15:37:08.733Z</time></trkpt><trkpt lat="38.1283733" lon="14.9044717"><ele>488.4</ele><time>2026-03-29T15:37:10.734Z</time></trkpt><trkpt lat="38.1284367" lon="14.9043867"><ele>483.79999999999995</ele><time>2026-03-29T15:37:12.733Z</time></trkpt><trkpt lat="38.1285617" lon="14.904355"><ele>479.2</ele><time>2026-03-29T15:37:14.733Z</time></trkpt><trkpt lat="38.12868" lon="14.90436"><ele>474.6</ele><time>2026-03-29T15:37:16.734Z</time></trkpt><trkpt lat="38.1287833" lon="14.9043733"><ele>470.0</ele><time>2026-03-29T15:37:18.734Z</time></trkpt><trkpt lat="38.1288783" lon="14.9044133"><ele>470.0</ele><time>2026-03-29T15:37:20.733Z</time></trkpt><trkpt lat="38.1289617" lon="14.904465"><ele>470.0</ele><time>2026-03-29T15:37:22.734Z</time></trkpt><trkpt lat="38.1290383" lon="14.904515"><ele>470.0</ele><time>2026-03-29T15:37:24.734Z</time></trkpt><trkpt lat="38.1291383" lon="14.904575"><ele>470.0</ele><time>2026-03-29T15:37:26.734Z</time></trkpt><trkpt lat="38.1292217" lon="14.90463"><ele>470.0</ele><time>2026-03-29T15:37:28.734Z</time></trkpt><trkpt lat="38.1293067" lon="14.904675"><ele>455.0</ele><time>2026-03-29T15:37:31.734Z</time></trkpt><trkpt lat="38.1293983" lon="14.9046583"><ele>455.0</ele><time>2026-03-29T15:37:34.733Z</time></trkpt></trkseg></trk></gpx>